<?xml version='1.0' encoding='UTF-8'?><gpx version="1.1" creator="JPX - https://github.com/jenetics/jpx" xmlns="http://www.topografix.com/GPX/1/1"><trk><trkseg><trkpt lat="44.2090072" lon="11.3457895"><ele>547.0</ele><time>2026-04-11T07:13:52.495Z</time></trkpt><trkpt lat="44.2090697" lon="11.3458507"><ele>547.0</ele><time>2026-04-11T07:13:54.493Z</time></trkpt><trkpt lat="44.2091657" lon="11.3459053"><ele>547.0</ele><time>2026-04-11T07:13:56.494Z</time></trkpt><trkpt lat="44.2092648" lon="11.3459525"><ele>547.0</ele><time>2026-04-11T07:13:58.494Z</time></trkpt><trkpt lat="44.2093557" lon="11.3459992"><ele>547.0</ele><time>2026-04-11T07:14:00.496Z</time></trkpt><trkpt lat="44.209436" lon="11.3460565"><ele>547.0</ele><time>2026-04-11T07:14:02.496Z</time></trkpt><trkpt lat="44.2095272" lon="11.3461328"><ele>547.0</ele><time>2026-04-11T07:14:04.496Z</time></trkpt><trkpt lat="44.2096038" lon="11.3462608"><ele>547.0</ele><time>2026-04-11T07:14:06.494Z</time></trkpt><trkpt lat="44.2096062" lon="11.3464175"><ele>547.0</ele><time>2026-04-11T07:14:08.496Z</time></trkpt><trkpt lat="44.2095703" lon="11.3465547"><ele>547.0</ele><time>2026-04-11T07:14:10.495Z</time></trkpt><trkpt lat="44.2094977" lon="11.3466078"><ele>548.6666666666667</ele><time>2026-04-11T07:14:12.494Z</time></trkpt><trkpt lat="44.2094025" lon="11.3465225"><ele>550.3333333333334</ele><time>2026-04-11T07:14:14.494Z</time></trkpt><trkpt lat="44.209337" lon="11.3464705"><ele>552.0</ele><time>2026-04-11T07:14:15.498Z</time></trkpt><trkpt lat="44.209264" lon="11.3464363"><ele>553.6666666666666</ele><time>2026-04-11T07:14:16.494Z</time></trkpt><trkpt lat="44.2091832" lon="11.3464247"><ele>555.3333333333333</ele><time>2026-04-11T07:14:17.495Z</time></trkpt><trkpt lat="44.2090952" lon="11.3464337"><ele>557.0</ele><time>2026-04-11T07:14:18.492Z</time></trkpt><trkpt lat="44.2090015" lon="11.3464582"><ele>557.8000000000001</ele><time>2026-04-11T07:14:19.493Z</time></trkpt><trkpt lat="44.2089095" lon="11.3464903"><ele>558.6</ele><time>2026-04-11T07:14:20.491Z</time></trkpt><trkpt lat="44.2088158" lon="11.3465267"><ele>559.4000000000001</ele><time>2026-04-11T07:14:21.492Z</time></trkpt><trkpt lat="44.208722" lon="11.3465665"><ele>560.2</ele><time>2026-04-11T07:14:22.492Z</time></trkpt><trkpt lat="44.2086258" lon="11.3466058"><ele>561.0</ele><time>2026-04-11T07:14:23.497Z</time></trkpt><trkpt lat="44.2085297" lon="11.346636"><ele>561.0</ele><time>2026-04-11T07:14:24.494Z</time></trkpt><trkpt lat="44.2084323" lon="11.3466552"><ele>561.0</ele><time>2026-04-11T07:14:25.494Z</time></trkpt><trkpt lat="44.208334" lon="11.3466637"><ele>561.0</ele><time>2026-04-11T07:14:26.495Z</time></trkpt><trkpt lat="44.2082345" lon="11.3466633"><ele>561.0</ele><time>2026-04-11T07:14:27.495Z</time></trkpt><trkpt lat="44.2081337" lon="11.3466567"><ele>561.0</ele><time>2026-04-11T07:14:28.495Z</time></trkpt><trkpt lat="44.2080317" lon="11.3466433"><ele>562.0</ele><time>2026-04-11T07:14:29.495Z</time></trkpt><trkpt lat="44.2079307" lon="11.3466283"><ele>563.0</ele><time>2026-04-11T07:14:30.495Z</time></trkpt><trkpt lat="44.2078308" lon="11.3466097"><ele>564.0</ele><time>2026-04-11T07:14:31.494Z</time></trkpt><trkpt lat="44.2077305" lon="11.3465862"><ele>565.0</ele><time>2026-04-11T07:14:32.495Z</time></trkpt><trkpt lat="44.2076303" lon="11.3465652"><ele>566.0</ele><time>2026-04-11T07:14:33.494Z</time></trkpt><trkpt lat="44.2075298" lon="11.3465498"><ele>566.0</ele><time>2026-04-11T07:14:34.494Z</time></trkpt><trkpt lat="44.2074292" lon="11.346539"><ele>566.0</ele><time>2026-04-11T07:14:35.494Z</time></trkpt><trkpt lat="44.2073277" lon="11.3465332"><ele>566.0</ele><time>2026-04-11T07:14:36.494Z</time></trkpt><trkpt lat="44.2072253" lon="11.3465368"><ele>566.0</ele><time>2026-04-11T07:14:37.494Z</time></trkpt><trkpt lat="44.2071233" lon="11.3465545"><ele>566.0</ele><time>2026-04-11T07:14:38.496Z</time></trkpt><trkpt lat="44.2070217" lon="11.3465928"><ele>566.6</ele><time>2026-04-11T07:14:39.495Z</time></trkpt><trkpt lat="44.2069253" lon="11.346648"><ele>567.2</ele><time>2026-04-11T07:14:40.493Z</time></trkpt><trkpt lat="44.206836" lon="11.3467205"><ele>567.8</ele><time>2026-04-11T07:14:41.495Z</time></trkpt><trkpt lat="44.206754" lon="11.3468158"><ele>568.4</ele><time>2026-04-11T07:14:42.493Z</time></trkpt><trkpt lat="44.2066838" lon="11.3469287"><ele>569.0</ele><time>2026-04-11T07:14:43.494Z</time></trkpt><trkpt lat="44.2066168" lon="11.3470458"><ele>569.0</ele><time>2026-04-11T07:14:44.494Z</time></trkpt><trkpt lat="44.2065485" lon="11.3471578"><ele>569.0</ele><time>2026-04-11T07:14:45.492Z</time></trkpt><trkpt lat="44.206468" lon="11.3472542"><ele>569.0</ele><time>2026-04-11T07:14:46.494Z</time></trkpt><trkpt lat="44.2063753" lon="11.3473205"><ele>569.0</ele><time>2026-04-11T07:14:47.494Z</time></trkpt><trkpt lat="44.206274" lon="11.34735"><ele>569.0</ele><time>2026-04-11T07:14:48.493Z</time></trkpt><trkpt lat="44.2061705" lon="11.3473535"><ele>572.0</ele><time>2026-04-11T07:14:49.493Z</time></trkpt><trkpt lat="44.2060683" lon="11.3473605"><ele>575.0</ele><time>2026-04-11T07:14:50.494Z</time></trkpt><trkpt lat="44.2059733" lon="11.347399"><ele>578.0</ele><time>2026-04-11T07:14:51.493Z</time></trkpt><trkpt lat="44.2058932" lon="11.3474758"><ele>581.0</ele><time>2026-04-11T07:14:52.493Z</time></trkpt><trkpt lat="44.2058365" lon="11.3475845"><ele>584.0</ele><time>2026-04-11T07:14:53.493Z</time></trkpt><trkpt lat="44.2058097" lon="11.3477113"><ele>584.0</ele><time>2026-04-11T07:14:54.493Z</time></trkpt><trkpt lat="44.2058138" lon="11.3478422"><ele>584.0</ele><time>2026-04-11T07:14:55.494Z</time></trkpt><trkpt lat="44.2058545" lon="11.34796"><ele>584.0</ele><time>2026-04-11T07:14:56.494Z</time></trkpt><trkpt lat="44.2059255" lon="11.3480488"><ele>584.0</ele><time>2026-04-11T07:14:57.493Z</time></trkpt><trkpt lat="44.2060147" lon="11.3480958"><ele>584.0</ele><time>2026-04-11T07:14:58.493Z</time></trkpt><trkpt lat="44.2061105" lon="11.3481127"><ele>585.0</ele><time>2026-04-11T07:14:59.494Z</time></trkpt><trkpt lat="44.2062117" lon="11.3481092"><ele>586.0</ele><time>2026-04-11T07:15:00.495Z</time></trkpt><trkpt lat="44.2063147" lon="11.3481047"><ele>587.0</ele><time>2026-04-11T07:15:01.494Z</time></trkpt><trkpt lat="44.2064203" lon="11.348119"><ele>588.0</ele><time>2026-04-11T07:15:02.493Z</time></trkpt><trkpt lat="44.2065262" lon="11.3481542"><ele>589.0</ele><time>2026-04-11T07:15:03.493Z</time></trkpt><trkpt lat="44.2066303" lon="11.3482062"><ele>589.0</ele><time>2026-04-11T07:15:04.492Z</time></trkpt><trkpt lat="44.2067338" lon="11.3482615"><ele>589.0</ele><time>2026-04-11T07:15:05.491Z</time></trkpt><trkpt lat="44.2068342" lon="11.3483168"><ele>589.0</ele><time>2026-04-11T07:15:06.491Z</time></trkpt><trkpt lat="44.2069325" lon="11.348373"><ele>589.0</ele><time>2026-04-11T07:15:07.491Z</time></trkpt><trkpt lat="44.2070305" lon="11.3484275"><ele>589.0</ele><time>2026-04-11T07:15:08.491Z</time></trkpt><trkpt lat="44.2071285" lon="11.3484813"><ele>589.0</ele><time>2026-04-11T07:15:09.492Z</time></trkpt><trkpt lat="44.2072267" lon="11.3485362"><ele>589.0</ele><time>2026-04-11T07:15:10.492Z</time></trkpt><trkpt lat="44.2073245" lon="11.3485922"><ele>589.0</ele><time>2026-04-11T07:15:11.493Z</time></trkpt><trkpt lat="44.2074235" lon="11.3486468"><ele>589.0</ele><time>2026-04-11T07:15:12.493Z</time></trkpt><trkpt lat="44.207522" lon="11.3487015"><ele>589.0</ele><time>2026-04-11T07:15:13.493Z</time></trkpt><trkpt lat="44.2076215" lon="11.3487578"><ele>589.0</ele><time>2026-04-11T07:15:14.493Z</time></trkpt><trkpt lat="44.2077207" lon="11.3488117"><ele>589.0</ele><time>2026-04-11T07:15:15.494Z</time></trkpt><trkpt lat="44.20782" lon="11.3488668"><ele>589.0</ele><time>2026-04-11T07:15:16.494Z</time></trkpt><trkpt lat="44.2079213" lon="11.3489228"><ele>589.0</ele><time>2026-04-11T07:15:17.495Z</time></trkpt><trkpt lat="44.2080235" lon="11.348978"><ele>589.0</ele><time>2026-04-11T07:15:18.494Z</time></trkpt><trkpt lat="44.2081268" lon="11.3490345"><ele>591.0</ele><time>2026-04-11T07:15:19.493Z</time></trkpt><trkpt lat="44.208231" lon="11.349094"><ele>593.0</ele><time>2026-04-11T07:15:20.495Z</time></trkpt><trkpt lat="44.2083363" lon="11.3491545"><ele>595.0</ele><time>2026-04-11T07:15:21.494Z</time></trkpt><trkpt lat="44.2084405" lon="11.3492157"><ele>597.0</ele><time>2026-04-11T07:15:22.495Z</time></trkpt><trkpt lat="44.208538" lon="11.3492898"><ele>597.0</ele><time>2026-04-11T07:15:23.495Z</time></trkpt><trkpt lat="44.2086253" lon="11.3493817"><ele>597.0</ele><time>2026-04-11T07:15:24.494Z</time></trkpt><trkpt lat="44.208696" lon="11.3494902"><ele>597.0</ele><time>2026-04-11T07:15:25.494Z</time></trkpt><trkpt lat="44.2087365" lon="11.349606"><ele>597.0</ele><time>2026-04-11T07:15:26.495Z</time></trkpt><trkpt lat="44.2087453" lon="11.3497247"><ele>597.0</ele><time>2026-04-11T07:15:27.494Z</time></trkpt><trkpt lat="44.2087377" lon="11.349843"><ele>599.3333333333334</ele><time>2026-04-11T07:15:28.494Z</time></trkpt><trkpt lat="44.2087257" lon="11.3499635"><ele>601.6666666666666</ele><time>2026-04-11T07:15:29.495Z</time></trkpt><trkpt lat="44.208714" lon="11.3500825"><ele>604.0</ele><time>2026-04-11T07:15:30.494Z</time></trkpt><trkpt lat="44.2086973" lon="11.350199"><ele>606.3333333333333</ele><time>2026-04-11T07:15:31.494Z</time></trkpt><trkpt lat="44.2086735" lon="11.3503108"><ele>608.6666666666666</ele><time>2026-04-11T07:15:32.492Z</time></trkpt><trkpt lat="44.2086455" lon="11.3504082"><ele>611.0</ele><time>2026-04-11T07:15:33.492Z</time></trkpt><trkpt lat="44.208614" lon="11.3504937"><ele>612.5</ele><time>2026-04-11T07:15:34.491Z</time></trkpt><trkpt lat="44.2085825" lon="11.3505705"><ele>614.0</ele><time>2026-04-11T07:15:35.492Z</time></trkpt><trkpt lat="44.2085002" lon="11.3506953"><ele>615.5</ele><time>2026-04-11T07:15:37.495Z</time></trkpt><trkpt lat="44.2084383" lon="11.350725"><ele>617.0</ele><time>2026-04-11T07:15:38.493Z</time></trkpt><trkpt lat="44.2083633" lon="11.3507277"><ele>618.5</ele><time>2026-04-11T07:15:39.493Z</time></trkpt><trkpt lat="44.2082808" lon="11.350709"><ele>620.0</ele><time>2026-04-11T07:15:40.493Z</time></trkpt><trkpt lat="44.2081998" lon="11.3506775"><ele>620.8333333333333</ele><time>2026-04-11T07:15:41.493Z</time></trkpt><trkpt lat="44.2081165" lon="11.3506417"><ele>621.6666666666666</ele><time>2026-04-11T07:15:42.493Z</time></trkpt><trkpt lat="44.2080332" lon="11.3506337"><ele>622.5</ele><time>2026-04-11T07:15:43.492Z</time></trkpt><trkpt lat="44.2079462" lon="11.3506565"><ele>623.3333333333334</ele><time>2026-04-11T07:15:44.493Z</time></trkpt><trkpt lat="44.2078583" lon="11.3507023"><ele>624.1666666666667</ele><time>2026-04-11T07:15:45.494Z</time></trkpt><trkpt lat="44.2077728" lon="11.3507573"><ele>625.0</ele><time>2026-04-11T07:15:46.493Z</time></trkpt><trkpt lat="44.2076907" lon="11.3508268"><ele>625.0</ele><time>2026-04-11T07:15:47.493Z</time></trkpt><trkpt lat="44.2076155" lon="11.3509042"><ele>625.0</ele><time>2026-04-11T07:15:48.494Z</time></trkpt><trkpt lat="44.207542" lon="11.3509837"><ele>625.0</ele><time>2026-04-11T07:15:49.493Z</time></trkpt><trkpt lat="44.207472" lon="11.3510562"><ele>625.0</ele><time>2026-04-11T07:15:50.494Z</time></trkpt><trkpt lat="44.2074008" lon="11.3511182"><ele>625.0</ele><time>2026-04-11T07:15:51.493Z</time></trkpt><trkpt lat="44.207324" lon="11.3511622"><ele>625.0</ele><time>2026-04-11T07:15:52.494Z</time></trkpt><trkpt lat="44.2072555" lon="11.3511845"><ele>625.0000000000001</ele><time>2026-04-11T07:15:53.493Z</time></trkpt><trkpt lat="44.2071922" lon="11.3512205"><ele>625.0</ele><time>2026-04-11T07:15:54.492Z</time></trkpt><trkpt lat="44.2071297" lon="11.3512725"><ele>625.0</ele><time>2026-04-11T07:15:55.492Z</time></trkpt><trkpt lat="44.207062" lon="11.3513208"><ele>625.0</ele><time>2026-04-11T07:15:56.492Z</time></trkpt><trkpt lat="44.2070002" lon="11.3513652"><ele>625.0</ele><time>2026-04-11T07:15:57.491Z</time></trkpt><trkpt lat="44.206934" lon="11.3514152"><ele>625.0000000000001</ele><time>2026-04-11T07:15:58.491Z</time></trkpt><trkpt lat="44.2068715" lon="11.3514603"><ele>625.0</ele><time>2026-04-11T07:15:59.492Z</time></trkpt><trkpt lat="44.206801" lon="11.3514977"><ele>626.8571428571429</ele><time>2026-04-11T07:16:00.492Z</time></trkpt><trkpt lat="44.2067352" lon="11.3515368"><ele>628.7142857142858</ele><time>2026-04-11T07:16:01.493Z</time></trkpt><trkpt lat="44.2066757" lon="11.351582"><ele>630.5714285714287</ele><time>2026-04-11T07:16:02.493Z</time></trkpt><trkpt lat="44.2066147" lon="11.3516103"><ele>632.4285714285714</ele><time>2026-04-11T07:16:03.492Z</time></trkpt><trkpt lat="44.2065548" lon="11.3516382"><ele>634.2857142857142</ele><time>2026-04-11T07:16:04.494Z</time></trkpt><trkpt lat="44.2065012" lon="11.3516862"><ele>636.1428571428572</ele><time>2026-04-11T07:16:05.494Z</time></trkpt><trkpt lat="44.2064375" lon="11.3518117"><ele>638.0</ele><time>2026-04-11T07:16:07.491Z</time></trkpt><trkpt lat="44.2063428" lon="11.3519178"><ele>638.0</ele><time>2026-04-11T07:16:09.493Z</time></trkpt><trkpt lat="44.2062863" lon="11.3519712"><ele>638.0</ele><time>2026-04-11T07:16:10.491Z</time></trkpt><trkpt lat="44.206224" lon="11.3520233"><ele>638.0</ele><time>2026-04-11T07:16:11.493Z</time></trkpt><trkpt lat="44.2061587" lon="11.3520817"><ele>638.0</ele><time>2026-04-11T07:16:12.493Z</time></trkpt><trkpt lat="44.2060983" lon="11.3521358"><ele>638.0</ele><time>2026-04-11T07:16:13.492Z</time></trkpt><trkpt lat="44.2060348" lon="11.35226"><ele>638.0</ele><time>2026-04-11T07:16:15.491Z</time></trkpt><trkpt lat="44.2060632" lon="11.3523877"><ele>640.2</ele><time>2026-04-11T07:16:17.492Z</time></trkpt><trkpt lat="44.2060972" lon="11.3525128"><ele>642.4</ele><time>2026-04-11T07:16:19.493Z</time></trkpt><trkpt lat="44.2061423" lon="11.3525982"><ele>644.6</ele><time>2026-04-11T07:16:21.491Z</time></trkpt><trkpt lat="44.2062077" lon="11.3526525"><ele>646.8000000000001</ele><time>2026-04-11T07:16:23.492Z</time></trkpt><trkpt lat="44.206291" lon="11.3527203"><ele>649.0</ele><time>2026-04-11T07:16:25.492Z</time></trkpt><trkpt lat="44.2063672" lon="11.3528438"><ele>649.0</ele><time>2026-04-11T07:16:27.494Z</time></trkpt><trkpt lat="44.2064443" lon="11.3529627"><ele>649.0</ele><time>2026-04-11T07:16:29.495Z</time></trkpt><trkpt lat="44.2064903" lon="11.353046"><ele>649.0</ele><time>2026-04-11T07:16:31.493Z</time></trkpt><trkpt lat="44.2065373" lon="11.3531238"><ele>649.0</ele><time>2026-04-11T07:16:33.492Z</time></trkpt><trkpt lat="44.2065713" lon="11.3532063"><ele>649.0</ele><time>2026-04-11T07:16:35.494Z</time></trkpt><trkpt lat="44.2066293" lon="11.3533102"><ele>649.0</ele><time>2026-04-11T07:16:37.493Z</time></trkpt><trkpt lat="44.2066945" lon="11.3534512"><ele>651.6</ele><time>2026-04-11T07:16:39.493Z</time></trkpt><trkpt lat="44.2067265" lon="11.3535865"><ele>654.2</ele><time>2026-04-11T07:16:41.493Z</time></trkpt><trkpt lat="44.2067545" lon="11.3537118"><ele>656.8000000000001</ele><time>2026-04-11T07:16:43.493Z</time></trkpt><trkpt lat="44.2067653" lon="11.3538672"><ele>659.4000000000001</ele><time>2026-04-11T07:16:45.492Z</time></trkpt><trkpt lat="44.2067173" lon="11.3540313"><ele>662.0</ele><time>2026-04-11T07:16:47.493Z</time></trkpt><trkpt lat="44.2066707" lon="11.3541228"><ele>662.8333333333333</ele><time>2026-04-11T07:16:48.494Z</time></trkpt><trkpt lat="44.206633" lon="11.354212"><ele>663.6666666666666</ele><time>2026-04-11T07:16:49.492Z</time></trkpt><trkpt lat="44.2066083" lon="11.3543002"><ele>664.5</ele><time>2026-04-11T07:16:50.494Z</time></trkpt><trkpt lat="44.2065812" lon="11.3543895"><ele>665.3333333333334</ele><time>2026-04-11T07:16:51.496Z</time></trkpt><trkpt lat="44.2065398" lon="11.3544905"><ele>666.1666666666667</ele><time>2026-04-11T07:16:52.495Z</time></trkpt><trkpt lat="44.2064855" lon="11.3545938"><ele>667.0</ele><time>2026-04-11T07:16:53.495Z</time></trkpt><trkpt lat="44.2064255" lon="11.3546988"><ele>669.4000000000001</ele><time>2026-04-11T07:16:54.495Z</time></trkpt><trkpt lat="44.2063728" lon="11.3548078"><ele>671.8000000000001</ele><time>2026-04-11T07:16:55.495Z</time></trkpt><trkpt lat="44.2063262" lon="11.3549237"><ele>674.2</ele><time>2026-04-11T07:16:56.495Z</time></trkpt><trkpt lat="44.2062758" lon="11.3550297"><ele>676.6</ele><time>2026-04-11T07:16:57.495Z</time></trkpt><trkpt lat="44.2062205" lon="11.3551188"><ele>679.0</ele><time>2026-04-11T07:16:58.493Z</time></trkpt><trkpt lat="44.2061593" lon="11.3552015"><ele>679.0</ele><time>2026-04-11T07:16:59.494Z</time></trkpt><trkpt lat="44.206096" lon="11.3552805"><ele>679.0</ele><time>2026-04-11T07:17:00.495Z</time></trkpt><trkpt lat="44.2060327" lon="11.355356"><ele>679.0</ele><time>2026-04-11T07:17:01.495Z</time></trkpt><trkpt lat="44.2059685" lon="11.3554402"><ele>679.0</ele><time>2026-04-11T07:17:02.495Z</time></trkpt><trkpt lat="44.2059048" lon="11.3555248"><ele>679.0</ele><time>2026-04-11T07:17:03.497Z</time></trkpt><trkpt lat="44.2058475" lon="11.3556067"><ele>679.0</ele><time>2026-04-11T07:17:04.495Z</time></trkpt><trkpt lat="44.2058072" lon="11.3556962"><ele>681.1666666666667</ele><time>2026-04-11T07:17:05.496Z</time></trkpt><trkpt lat="44.2057825" lon="11.3558012"><ele>683.3333333333334</ele><time>2026-04-11T07:17:06.496Z</time></trkpt><trkpt lat="44.2057633" lon="11.3559178"><ele>685.5</ele><time>2026-04-11T07:17:07.496Z</time></trkpt><trkpt lat="44.2057402" lon="11.3560348"><ele>687.6666666666666</ele><time>2026-04-11T07:17:08.496Z</time></trkpt><trkpt lat="44.2057157" lon="11.3561577"><ele>689.8333333333333</ele><time>2026-04-11T07:17:09.495Z</time></trkpt><trkpt lat="44.2056927" lon="11.3562775"><ele>692.0</ele><time>2026-04-11T07:17:10.492Z</time></trkpt><trkpt lat="44.2056647" lon="11.356391"><ele>694.0</ele><time>2026-04-11T07:17:11.493Z</time></trkpt><trkpt lat="44.2056273" lon="11.3564933"><ele>696.0</ele><time>2026-04-11T07:17:12.492Z</time></trkpt><trkpt lat="44.2055875" lon="11.3565883"><ele>698.0</ele><time>2026-04-11T07:17:13.492Z</time></trkpt><trkpt lat="44.205549" lon="11.356671"><ele>700.0</ele><time>2026-04-11T07:17:14.495Z</time></trkpt><trkpt lat="44.2055047" lon="11.3567402"><ele>702.0</ele><time>2026-04-11T07:17:15.494Z</time></trkpt><trkpt lat="44.2054623" lon="11.3568112"><ele>704.0</ele><time>2026-04-11T07:17:16.494Z</time></trkpt><trkpt lat="44.2053755" lon="11.3569398"><ele>704.0</ele><time>2026-04-11T07:17:18.496Z</time></trkpt><trkpt lat="44.2053203" lon="11.3570065"><ele>704.0</ele><time>2026-04-11T07:17:19.495Z</time></trkpt><trkpt lat="44.2052578" lon="11.3570678"><ele>704.0</ele><time>2026-04-11T07:17:20.497Z</time></trkpt><trkpt lat="44.2051975" lon="11.357124"><ele>704.0</ele><time>2026-04-11T07:17:21.494Z</time></trkpt><trkpt lat="44.205091" lon="11.3571753"><ele>704.0</ele><time>2026-04-11T07:17:23.497Z</time></trkpt><trkpt lat="44.2050198" lon="11.3571745"><ele>704.0</ele><time>2026-04-11T07:17:24.497Z</time></trkpt><trkpt lat="44.2049337" lon="11.3571653"><ele>704.0</ele><time>2026-04-11T07:17:25.496Z</time></trkpt><trkpt lat="44.2048363" lon="11.3571623"><ele>704.0</ele><time>2026-04-11T07:17:26.495Z</time></trkpt><trkpt lat="44.2047323" lon="11.357162"><ele>704.0</ele><time>2026-04-11T07:17:27.494Z</time></trkpt><trkpt lat="44.2046272" lon="11.3571742"><ele>704.0</ele><time>2026-04-11T07:17:28.494Z</time></trkpt><trkpt lat="44.2045255" lon="11.357211"><ele>704.0</ele><time>2026-04-11T07:17:29.495Z</time></trkpt><trkpt lat="44.204429" lon="11.357273"><ele>707.2</ele><time>2026-04-11T07:17:30.494Z</time></trkpt><trkpt lat="44.2043375" lon="11.3573572"><ele>710.4000000000001</ele><time>2026-04-11T07:17:31.494Z</time></trkpt><trkpt lat="44.2042533" lon="11.3574585"><ele>713.6</ele><time>2026-04-11T07:17:32.495Z</time></trkpt><trkpt lat="44.2041742" lon="11.3575683"><ele>716.8</ele><time>2026-04-11T07:17:33.494Z</time></trkpt><trkpt lat="44.2040945" lon="11.3576772"><ele>720.0</ele><time>2026-04-11T07:17:34.494Z</time></trkpt><trkpt lat="44.2040177" lon="11.3577882"><ele>720.8</ele><time>2026-04-11T07:17:35.492Z</time></trkpt><trkpt lat="44.203942" lon="11.357901"><ele>721.6</ele><time>2026-04-11T07:17:36.492Z</time></trkpt><trkpt lat="44.2038663" lon="11.3580113"><ele>722.4000000000001</ele><time>2026-04-11T07:17:37.491Z</time></trkpt><trkpt lat="44.2037917" lon="11.3581175"><ele>723.2</ele><time>2026-04-11T07:17:38.495Z</time></trkpt><trkpt lat="44.2037235" lon="11.3582163"><ele>724.0</ele><time>2026-04-11T07:17:39.495Z</time></trkpt><trkpt lat="44.2036628" lon="11.3583053"><ele>724.0</ele><time>2026-04-11T07:17:40.495Z</time></trkpt><trkpt lat="44.2036117" lon="11.3583802"><ele>724.0</ele><time>2026-04-11T07:17:41.494Z</time></trkpt><trkpt lat="44.2035355" lon="11.35849"><ele>724.0</ele><time>2026-04-11T07:17:43.494Z</time></trkpt><trkpt lat="44.2034787" lon="11.3585707"><ele>724.0</ele><time>2026-04-11T07:17:45.495Z</time></trkpt><trkpt lat="44.2034322" lon="11.3586663"><ele>724.0</ele><time>2026-04-11T07:17:47.494Z</time></trkpt><trkpt lat="44.203451" lon="11.3587697"><ele>724.0</ele><time>2026-04-11T07:17:49.493Z</time></trkpt><trkpt lat="44.2035623" lon="11.3588207"><ele>724.0</ele><time>2026-04-11T07:17:51.493Z</time></trkpt><trkpt lat="44.203646" lon="11.35884"><ele>724.0</ele><time>2026-04-11T07:17:52.492Z</time></trkpt><trkpt lat="44.2037365" lon="11.3588587"><ele>724.0</ele><time>2026-04-11T07:17:53.493Z</time></trkpt><trkpt lat="44.203818" lon="11.3588598"><ele>724.0</ele><time>2026-04-11T07:17:54.492Z</time></trkpt><trkpt lat="44.2038965" lon="11.3588372"><ele>724.0</ele><time>2026-04-11T07:17:55.493Z</time></trkpt><trkpt lat="44.203971" lon="11.3588103"><ele>724.0</ele><time>2026-04-11T07:17:56.493Z</time></trkpt><trkpt lat="44.204042" lon="11.358811"><ele>726.8333333333334</ele><time>2026-04-11T07:17:57.493Z</time></trkpt><trkpt lat="44.2041122" lon="11.3589015"><ele>729.6666666666667</ele><time>2026-04-11T07:17:59.492Z</time></trkpt><trkpt lat="44.204142" lon="11.3589792"><ele>732.5</ele><time>2026-04-11T07:18:00.491Z</time></trkpt><trkpt lat="44.2041828" lon="11.3590837"><ele>735.3333333333334</ele><time>2026-04-11T07:18:01.491Z</time></trkpt><trkpt lat="44.204219" lon="11.3591975"><ele>738.1666666666666</ele><time>2026-04-11T07:18:02.491Z</time></trkpt><trkpt lat="44.204246" lon="11.3593088"><ele>741.0</ele><time>2026-04-11T07:18:03.493Z</time></trkpt><trkpt lat="44.2042637" lon="11.359443"><ele>741.0</ele><time>2026-04-11T07:18:04.493Z</time></trkpt><trkpt lat="44.204278" lon="11.359592"><ele>741.0</ele><time>2026-04-11T07:18:05.494Z</time></trkpt><trkpt lat="44.2042977" lon="11.359738"><ele>741.0</ele><time>2026-04-11T07:18:06.495Z</time></trkpt><trkpt lat="44.2043188" lon="11.3598602"><ele>741.0</ele><time>2026-04-11T07:18:07.494Z</time></trkpt><trkpt lat="44.2043245" lon="11.359966"><ele>741.0</ele><time>2026-04-11T07:18:08.495Z</time></trkpt><trkpt lat="44.2043077" lon="11.360082"><ele>743.0</ele><time>2026-04-11T07:18:09.494Z</time></trkpt><trkpt lat="44.2042825" lon="11.3602102"><ele>745.0</ele><time>2026-04-11T07:18:10.495Z</time></trkpt><trkpt lat="44.204268" lon="11.3603382"><ele>747.0</ele><time>2026-04-11T07:18:11.495Z</time></trkpt><trkpt lat="44.2042633" lon="11.3604703"><ele>749.0</ele><time>2026-04-11T07:18:12.494Z</time></trkpt><trkpt lat="44.2042502" lon="11.3606023"><ele>751.0</ele><time>2026-04-11T07:18:13.495Z</time></trkpt><trkpt lat="44.2042387" lon="11.3607263"><ele>752.5</ele><time>2026-04-11T07:18:14.495Z</time></trkpt><trkpt lat="44.2042312" lon="11.3608412"><ele>754.0</ele><time>2026-04-11T07:18:15.495Z</time></trkpt><trkpt lat="44.2042268" lon="11.360959"><ele>755.5</ele><time>2026-04-11T07:18:16.494Z</time></trkpt><trkpt lat="44.2042267" lon="11.361076"><ele>757.0</ele><time>2026-04-11T07:18:17.495Z</time></trkpt><trkpt lat="44.2042288" lon="11.3612"><ele>758.5</ele><time>2026-04-11T07:18:18.496Z</time></trkpt><trkpt lat="44.2042335" lon="11.3613222"><ele>760.0</ele><time>2026-04-11T07:18:19.496Z</time></trkpt><trkpt lat="44.2042363" lon="11.3614392"><ele>761.6</ele><time>2026-04-11T07:18:20.496Z</time></trkpt><trkpt lat="44.2042407" lon="11.3615565"><ele>763.2</ele><time>2026-04-11T07:18:21.496Z</time></trkpt><trkpt lat="44.2042417" lon="11.3616777"><ele>764.8</ele><time>2026-04-11T07:18:22.495Z</time></trkpt><trkpt lat="44.2042377" lon="11.3618068"><ele>766.4</ele><time>2026-04-11T07:18:23.494Z</time></trkpt><trkpt lat="44.2042298" lon="11.3619493"><ele>768.0</ele><time>2026-04-11T07:18:24.494Z</time></trkpt><trkpt lat="44.2042035" lon="11.36208"><ele>768.0</ele><time>2026-04-11T07:18:25.493Z</time></trkpt><trkpt lat="44.2041625" lon="11.3621902"><ele>768.0</ele><time>2026-04-11T07:18:26.494Z</time></trkpt><trkpt lat="44.2041187" lon="11.3622872"><ele>768.0</ele><time>2026-04-11T07:18:27.493Z</time></trkpt><trkpt lat="44.2040805" lon="11.3623928"><ele>768.0</ele><time>2026-04-11T07:18:28.494Z</time></trkpt><trkpt lat="44.2040448" lon="11.3625077"><ele>768.0</ele><time>2026-04-11T07:18:29.495Z</time></trkpt><trkpt lat="44.2040093" lon="11.3626123"><ele>768.0</ele><time>2026-04-11T07:18:30.494Z</time></trkpt><trkpt lat="44.2039812" lon="11.3627182"><ele>770.3333333333334</ele><time>2026-04-11T07:18:31.496Z</time></trkpt><trkpt lat="44.2039578" lon="11.3628237"><ele>772.6666666666667</ele><time>2026-04-11T07:18:32.496Z</time></trkpt><trkpt lat="44.2039495" lon="11.3629262"><ele>775.0</ele><time>2026-04-11T07:18:33.496Z</time></trkpt><trkpt lat="44.203949" lon="11.3630478"><ele>777.3333333333334</ele><time>2026-04-11T07:18:34.497Z</time></trkpt><trkpt lat="44.2039367" lon="11.3631875"><ele>779.6666666666667</ele><time>2026-04-11T07:18:35.495Z</time></trkpt><trkpt lat="44.203931" lon="11.3633248"><ele>782.0</ele><time>2026-04-11T07:18:36.494Z</time></trkpt><trkpt lat="44.2039345" lon="11.3634627"><ele>782.5000000000001</ele><time>2026-04-11T07:18:37.494Z</time></trkpt><trkpt lat="44.2039272" lon="11.3635862"><ele>783.0</ele><time>2026-04-11T07:18:38.493Z</time></trkpt><trkpt lat="44.2039135" lon="11.3637033"><ele>783.5</ele><time>2026-04-11T07:18:39.493Z</time></trkpt><trkpt lat="44.2039107" lon="11.3637982"><ele>784.0</ele><time>2026-04-11T07:18:40.493Z</time></trkpt><trkpt lat="44.2039303" lon="11.3639"><ele>784.5000000000001</ele><time>2026-04-11T07:18:41.495Z</time></trkpt><trkpt lat="44.2039563" lon="11.3640365"><ele>785.0</ele><time>2026-04-11T07:18:42.494Z</time></trkpt><trkpt lat="44.2039815" lon="11.3642012"><ele>786.8333333333334</ele><time>2026-04-11T07:18:43.495Z</time></trkpt><trkpt lat="44.2040087" lon="11.3643475"><ele>788.6666666666667</ele><time>2026-04-11T07:18:44.495Z</time></trkpt><trkpt lat="44.2040298" lon="11.3644718"><ele>790.5</ele><time>2026-04-11T07:18:45.493Z</time></trkpt><trkpt lat="44.2040373" lon="11.3645675"><ele>792.3333333333333</ele><time>2026-04-11T07:18:46.495Z</time></trkpt><trkpt lat="44.2039853" lon="11.3646973"><ele>794.1666666666666</ele><time>2026-04-11T07:18:48.492Z</time></trkpt><trkpt lat="44.2039357" lon="11.364754"><ele>796.0</ele><time>2026-04-11T07:18:49.493Z</time></trkpt><trkpt lat="44.2038418" lon="11.3648513"><ele>797.4</ele><time>2026-04-11T07:18:51.493Z</time></trkpt><trkpt lat="44.2038275" lon="11.3650155"><ele>798.8</ele><time>2026-04-11T07:18:53.494Z</time></trkpt><trkpt lat="44.2038743" lon="11.365195"><ele>800.1999999999999</ele><time>2026-04-11T07:18:55.494Z</time></trkpt><trkpt lat="44.203885" lon="11.3652878"><ele>801.5999999999999</ele><time>2026-04-11T07:18:56.494Z</time></trkpt><trkpt lat="44.2038743" lon="11.3653812"><ele>803.0</ele><time>2026-04-11T07:18:57.494Z</time></trkpt><trkpt lat="44.2038513" lon="11.3654733"><ele>805.3333333333334</ele><time>2026-04-11T07:18:58.494Z</time></trkpt><trkpt lat="44.203823" lon="11.3655628"><ele>807.6666666666667</ele><time>2026-04-11T07:18:59.495Z</time></trkpt><trkpt lat="44.2037758" lon="11.3657312"><ele>810.0</ele><time>2026-04-11T07:19:01.493Z</time></trkpt><trkpt lat="44.203745" lon="11.3658337"><ele>812.3333333333333</ele><time>2026-04-11T07:19:02.493Z</time></trkpt><trkpt lat="44.2037197" lon="11.3659245"><ele>814.6666666666666</ele><time>2026-04-11T07:19:03.492Z</time></trkpt><trkpt lat="44.2036888" lon="11.3660247"><ele>817.0</ele><time>2026-04-11T07:19:04.492Z</time></trkpt><trkpt lat="44.203655" lon="11.3661053"><ele>816.9999999999999</ele><time>2026-04-11T07:19:05.493Z</time></trkpt><trkpt lat="44.2036125" lon="11.3661875"><ele>817.0</ele><time>2026-04-11T07:19:06.492Z</time></trkpt><trkpt lat="44.2035637" lon="11.3662558"><ele>817.0</ele><time>2026-04-11T07:19:07.494Z</time></trkpt><trkpt lat="44.2034913" lon="11.3663777"><ele>817.0</ele><time>2026-04-11T07:19:09.492Z</time></trkpt><trkpt lat="44.2034652" lon="11.3664642"><ele>816.9999999999999</ele><time>2026-04-11T07:19:10.493Z</time></trkpt><trkpt lat="44.2034333" lon="11.3665433"><ele>817.0</ele><time>2026-04-11T07:19:11.493Z</time></trkpt><trkpt lat="44.2033645" lon="11.3666643"><ele>819.0</ele><time>2026-04-11T07:19:13.491Z</time></trkpt><trkpt lat="44.2032688" lon="11.366781"><ele>821.0</ele><time>2026-04-11T07:19:15.492Z</time></trkpt><trkpt lat="44.2032193" lon="11.3668487"><ele>823.0</ele><time>2026-04-11T07:19:16.494Z</time></trkpt><trkpt lat="44.2031753" lon="11.366916"><ele>825.0</ele><time>2026-04-11T07:19:17.495Z</time></trkpt><trkpt lat="44.2030965" lon="11.3670387"><ele>827.0</ele><time>2026-04-11T07:19:19.495Z</time></trkpt><trkpt lat="44.203041" lon="11.3671135"><ele>827.6666666666667</ele><time>2026-04-11T07:19:20.494Z</time></trkpt><trkpt lat="44.2029695" lon="11.3671833"><ele>828.3333333333334</ele><time>2026-04-11T07:19:21.494Z</time></trkpt><trkpt lat="44.2028857" lon="11.3672468"><ele>829.0</ele><time>2026-04-11T07:19:22.493Z</time></trkpt><trkpt lat="44.2028165" lon="11.3673063"><ele>829.6666666666667</ele><time>2026-04-11T07:19:23.494Z</time></trkpt><trkpt lat="44.2027513" lon="11.3673823"><ele>830.3333333333334</ele><time>2026-04-11T07:19:24.492Z</time></trkpt><trkpt lat="44.2026973" lon="11.3674797"><ele>831.0</ele><time>2026-04-11T07:19:25.493Z</time></trkpt><trkpt lat="44.2026557" lon="11.3675748"><ele>832.3333333333334</ele><time>2026-04-11T07:19:26.494Z</time></trkpt><trkpt lat="44.2026172" lon="11.3676627"><ele>833.6666666666667</ele><time>2026-04-11T07:19:27.493Z</time></trkpt><trkpt lat="44.2025807" lon="11.3677555"><ele>835.0</ele><time>2026-04-11T07:19:28.493Z</time></trkpt><trkpt lat="44.202545" lon="11.3678348"><ele>836.3333333333334</ele><time>2026-04-11T07:19:29.493Z</time></trkpt><trkpt lat="44.2024982" lon="11.3679038"><ele>837.6666666666667</ele><time>2026-04-11T07:19:30.492Z</time></trkpt><trkpt lat="44.20241" lon="11.3680383"><ele>839.0</ele><time>2026-04-11T07:19:32.493Z</time></trkpt><trkpt lat="44.2023665" lon="11.3681463"><ele>840.3333333333334</ele><time>2026-04-11T07:19:33.493Z</time></trkpt><trkpt lat="44.2023308" lon="11.368273"><ele>841.6666666666667</ele><time>2026-04-11T07:19:34.493Z</time></trkpt><trkpt lat="44.202289" lon="11.3683877"><ele>843.0</ele><time>2026-04-11T07:19:35.494Z</time></trkpt><trkpt lat="44.2022473" lon="11.3684967"><ele>844.3333333333333</ele><time>2026-04-11T07:19:36.493Z</time></trkpt><trkpt lat="44.2022075" lon="11.3686072"><ele>845.6666666666666</ele><time>2026-04-11T07:19:37.491Z</time></trkpt><trkpt lat="44.2021653" lon="11.3687058"><ele>847.0</ele><time>2026-04-11T07:19:38.491Z</time></trkpt><trkpt lat="44.202128" lon="11.3688048"><ele>848.8333333333333</ele><time>2026-04-11T07:19:39.492Z</time></trkpt><trkpt lat="44.202093" lon="11.3689203"><ele>850.6666666666666</ele><time>2026-04-11T07:19:40.492Z</time></trkpt><trkpt lat="44.2020657" lon="11.369044"><ele>852.5</ele><time>2026-04-11T07:19:41.493Z</time></trkpt><trkpt lat="44.2020293" lon="11.3691585"><ele>854.3333333333333</ele><time>2026-04-11T07:19:42.493Z</time></trkpt><trkpt lat="44.2019987" lon="11.3692507"><ele>856.1666666666666</ele><time>2026-04-11T07:19:43.493Z</time></trkpt><trkpt lat="44.2019745" lon="11.369335"><ele>858.0</ele><time>2026-04-11T07:19:44.494Z</time></trkpt><trkpt lat="44.2018915" lon="11.3694248"><ele>858.0</ele><time>2026-04-11T07:19:46.493Z</time></trkpt><trkpt lat="44.2017753" lon="11.3694558"><ele>858.0</ele><time>2026-04-11T07:19:48.492Z</time></trkpt><trkpt lat="44.2016528" lon="11.3695302"><ele>858.0</ele><time>2026-04-11T07:19:50.494Z</time></trkpt><trkpt lat="44.2015867" lon="11.3695773"><ele>858.0</ele><time>2026-04-11T07:19:51.493Z</time></trkpt><trkpt lat="44.2015177" lon="11.3696335"><ele>858.0</ele><time>2026-04-11T07:19:52.493Z</time></trkpt><trkpt lat="44.2014497" lon="11.3696993"><ele>859.6666666666666</ele><time>2026-04-11T07:19:53.493Z</time></trkpt><trkpt lat="44.2013843" lon="11.3697642"><ele>861.3333333333333</ele><time>2026-04-11T07:19:54.493Z</time></trkpt><trkpt lat="44.2013252" lon="11.3698263"><ele>863.0</ele><time>2026-04-11T07:19:55.493Z</time></trkpt><trkpt lat="44.201274" lon="11.3698825"><ele>864.6666666666666</ele><time>2026-04-11T07:19:56.493Z</time></trkpt><trkpt lat="44.2012125" lon="11.3699267"><ele>866.3333333333333</ele><time>2026-04-11T07:19:57.495Z</time></trkpt><trkpt lat="44.2011457" lon="11.3699642"><ele>868.0</ele><time>2026-04-11T07:19:58.493Z</time></trkpt><trkpt lat="44.2010395" lon="11.3700655"><ele>867.9999999999999</ele><time>2026-04-11T07:20:00.493Z</time></trkpt><trkpt lat="44.2009853" lon="11.3701678"><ele>868.0</ele><time>2026-04-11T07:20:01.492Z</time></trkpt><trkpt lat="44.2009473" lon="11.3702702"><ele>868.0</ele><time>2026-04-11T07:20:02.493Z</time></trkpt><trkpt lat="44.2009225" lon="11.370371"><ele>868.0</ele><time>2026-04-11T07:20:03.492Z</time></trkpt><trkpt lat="44.200907" lon="11.370477"><ele>867.9999999999999</ele><time>2026-04-11T07:20:04.492Z</time></trkpt><trkpt lat="44.2009088" lon="11.370586"><ele>868.0</ele><time>2026-04-11T07:20:05.492Z</time></trkpt><trkpt lat="44.200911" lon="11.3706963"><ele>868.4285714285714</ele><time>2026-04-11T07:20:06.493Z</time></trkpt><trkpt lat="44.2009118" lon="11.3708062"><ele>868.8571428571429</ele><time>2026-04-11T07:20:07.493Z</time></trkpt><trkpt lat="44.2009087" lon="11.3709142"><ele>869.2857142857142</ele><time>2026-04-11T07:20:08.494Z</time></trkpt><trkpt lat="44.2008978" lon="11.3710133"><ele>869.7142857142858</ele><time>2026-04-11T07:20:09.493Z</time></trkpt><trkpt lat="44.2008773" lon="11.3711018"><ele>870.1428571428571</ele><time>2026-04-11T07:20:10.493Z</time></trkpt><trkpt lat="44.2008598" lon="11.3711913"><ele>870.5714285714286</ele><time>2026-04-11T07:20:11.494Z</time></trkpt><trkpt lat="44.2008398" lon="11.3712857"><ele>871.0</ele><time>2026-04-11T07:20:12.493Z</time></trkpt><trkpt lat="44.2008088" lon="11.3713697"><ele>871.0</ele><time>2026-04-11T07:20:13.494Z</time></trkpt><trkpt lat="44.2007765" lon="11.3714498"><ele>870.9999999999999</ele><time>2026-04-11T07:20:14.494Z</time></trkpt><trkpt lat="44.2007288" lon="11.3715912"><ele>870.9999999999999</ele><time>2026-04-11T07:20:16.493Z</time></trkpt><trkpt lat="44.200658" lon="11.3717118"><ele>871.0</ele><time>2026-04-11T07:20:18.495Z</time></trkpt><trkpt lat="44.2005942" lon="11.3718298"><ele>871.0</ele><time>2026-04-11T07:20:20.495Z</time></trkpt><trkpt lat="44.2005048" lon="11.3719283"><ele>871.0</ele><time>2026-04-11T07:20:22.494Z</time></trkpt><trkpt lat="44.200405" lon="11.3719892"><ele>870.9999999999999</ele><time>2026-04-11T07:20:24.494Z</time></trkpt><trkpt lat="44.2003103" lon="11.3720898"><ele>870.9999999999999</ele><time>2026-04-11T07:20:26.491Z</time></trkpt><trkpt lat="44.200259" lon="11.3721455"><ele>871.0</ele><time>2026-04-11T07:20:27.492Z</time></trkpt><trkpt lat="44.200146" lon="11.3722467"><ele>871.0</ele><time>2026-04-11T07:20:29.491Z</time></trkpt><trkpt lat="44.2000607" lon="11.372313"><ele>872.9999999999999</ele><time>2026-04-11T07:20:30.492Z</time></trkpt><trkpt lat="44.1999708" lon="11.3723775"><ele>875.0</ele><time>2026-04-11T07:20:31.494Z</time></trkpt><trkpt lat="44.1998913" lon="11.3724408"><ele>877.0</ele><time>2026-04-11T07:20:32.494Z</time></trkpt><trkpt lat="44.1998348" lon="11.3724907"><ele>879.0</ele><time>2026-04-11T07:20:33.495Z</time></trkpt><trkpt lat="44.1997352" lon="11.3725865"><ele>880.9999999999999</ele><time>2026-04-11T07:20:35.493Z</time></trkpt><trkpt lat="44.1996797" lon="11.3726415"><ele>883.0</ele><time>2026-04-11T07:20:36.493Z</time></trkpt><trkpt lat="44.1995758" lon="11.3727593"><ele>883.3333333333333</ele><time>2026-04-11T07:20:38.494Z</time></trkpt><trkpt lat="44.1995118" lon="11.3728343"><ele>883.6666666666666</ele><time>2026-04-11T07:20:39.493Z</time></trkpt><trkpt lat="44.1994585" lon="11.3728957"><ele>884.0</ele><time>2026-04-11T07:20:40.494Z</time></trkpt><trkpt lat="44.1993978" lon="11.3729553"><ele>884.3333333333333</ele><time>2026-04-11T07:20:41.495Z</time></trkpt><trkpt lat="44.1993447" lon="11.3730127"><ele>884.6666666666666</ele><time>2026-04-11T07:20:42.494Z</time></trkpt><trkpt lat="44.1992632" lon="11.3731405"><ele>885.0</ele><time>2026-04-11T07:20:44.494Z</time></trkpt><trkpt lat="44.1991822" lon="11.3732617"><ele>886.4</ele><time>2026-04-11T07:20:46.494Z</time></trkpt><trkpt lat="44.1991057" lon="11.3733672"><ele>887.8</ele><time>2026-04-11T07:20:48.493Z</time></trkpt><trkpt lat="44.1990083" lon="11.3734582"><ele>889.2</ele><time>2026-04-11T07:20:50.493Z</time></trkpt><trkpt lat="44.1989628" lon="11.3735248"><ele>890.6</ele><time>2026-04-11T07:20:51.492Z</time></trkpt><trkpt lat="44.19892" lon="11.3736202"><ele>892.0</ele><time>2026-04-11T07:20:52.494Z</time></trkpt><trkpt lat="44.198896" lon="11.373724"><ele>892.0</ele><time>2026-04-11T07:20:53.493Z</time></trkpt><trkpt lat="44.1988742" lon="11.373822"><ele>892.0</ele><time>2026-04-11T07:20:54.494Z</time></trkpt><trkpt lat="44.1988598" lon="11.3739092"><ele>892.0</ele><time>2026-04-11T07:20:55.494Z</time></trkpt><trkpt lat="44.1988457" lon="11.3740653"><ele>892.0</ele><time>2026-04-11T07:20:57.494Z</time></trkpt><trkpt lat="44.1987915" lon="11.374162"><ele>892.0</ele><time>2026-04-11T07:20:59.494Z</time></trkpt><trkpt lat="44.198713" lon="11.3742943"><ele>894.3333333333333</ele><time>2026-04-11T07:21:01.495Z</time></trkpt><trkpt lat="44.198678" lon="11.3743793"><ele>896.6666666666666</ele><time>2026-04-11T07:21:02.495Z</time></trkpt><trkpt lat="44.1986482" lon="11.3745102"><ele>899.0</ele><time>2026-04-11T07:21:04.493Z</time></trkpt><trkpt lat="44.1986298" lon="11.3746125"><ele>901.3333333333333</ele><time>2026-04-11T07:21:06.493Z</time></trkpt><trkpt lat="44.1986167" lon="11.3747138"><ele>903.6666666666666</ele><time>2026-04-11T07:21:08.495Z</time></trkpt><trkpt lat="44.1985825" lon="11.3747887"><ele>906.0</ele><time>2026-04-11T07:21:10.496Z</time></trkpt><trkpt lat="44.198499" lon="11.3748267"><ele>908.5999999999999</ele><time>2026-04-11T07:21:12.493Z</time></trkpt><trkpt lat="44.1984037" lon="11.3749138"><ele>911.1999999999999</ele><time>2026-04-11T07:21:14.494Z</time></trkpt><trkpt lat="44.1983538" lon="11.3750665"><ele>913.8000000000001</ele><time>2026-04-11T07:21:16.491Z</time></trkpt><trkpt lat="44.19834" lon="11.375206"><ele>916.4000000000001</ele><time>2026-04-11T07:21:18.492Z</time></trkpt><trkpt lat="44.1982937" lon="11.3753182"><ele>919.0</ele><time>2026-04-11T07:21:20.495Z</time></trkpt><trkpt lat="44.1982305" lon="11.3754173"><ele>922.4000000000001</ele><time>2026-04-11T07:21:22.495Z</time></trkpt><trkpt lat="44.1982138" lon="11.3755455"><ele>925.8000000000001</ele><time>2026-04-11T07:21:24.493Z</time></trkpt><trkpt lat="44.198237" lon="11.3756908"><ele>929.1999999999999</ele><time>2026-04-11T07:21:26.495Z</time></trkpt><trkpt lat="44.1982447" lon="11.3758182"><ele>932.5999999999999</ele><time>2026-04-11T07:21:28.494Z</time></trkpt><trkpt lat="44.1982343" lon="11.3759402"><ele>936.0</ele><time>2026-04-11T07:21:30.495Z</time></trkpt><trkpt lat="44.1982082" lon="11.3760433"><ele>936.6666666666666</ele><time>2026-04-11T07:21:32.494Z</time></trkpt><trkpt lat="44.1981417" lon="11.3761163"><ele>937.3333333333333</ele><time>2026-04-11T07:21:34.494Z</time></trkpt><trkpt lat="44.198075" lon="11.3762253"><ele>938.0</ele><time>2026-04-11T07:21:36.494Z</time></trkpt><trkpt lat="44.1980148" lon="11.37635"><ele>938.6666666666666</ele><time>2026-04-11T07:21:38.494Z</time></trkpt><trkpt lat="44.1979855" lon="11.3764465"><ele>939.3333333333333</ele><time>2026-04-11T07:21:40.492Z</time></trkpt><trkpt lat="44.1979218" lon="11.3764732"><ele>940.0</ele><time>2026-04-11T07:22:00.495Z</time></trkpt><trkpt lat="44.1978433" lon="11.3764932"><ele>940.0</ele><time>2026-04-11T07:22:02.496Z</time></trkpt><trkpt lat="44.1977462" lon="11.3764822"><ele>940.0</ele><time>2026-04-11T07:22:04.492Z</time></trkpt><trkpt lat="44.1976397" lon="11.376457"><ele>940.0</ele><time>2026-04-11T07:22:06.494Z</time></trkpt><trkpt lat="44.1975035" lon="11.3764177"><ele>940.0</ele><time>2026-04-11T07:22:08.495Z</time></trkpt><trkpt lat="44.197425" lon="11.3763973"><ele>940.0</ele><time>2026-04-11T07:22:09.495Z</time></trkpt><trkpt lat="44.1973493" lon="11.37638"><ele>938.4999999999999</ele><time>2026-04-11T07:22:10.494Z</time></trkpt><trkpt lat="44.1972777" lon="11.3763753"><ele>937.0</ele><time>2026-04-11T07:22:11.495Z</time></trkpt><trkpt lat="44.1972105" lon="11.3763795"><ele>935.5</ele><time>2026-04-11T07:22:12.494Z</time></trkpt><trkpt lat="44.1971425" lon="11.3763833"><ele>934.0</ele><time>2026-04-11T07:22:13.495Z</time></trkpt><trkpt lat="44.1970777" lon="11.3763743"><ele>932.4999999999999</ele><time>2026-04-11T07:22:14.497Z</time></trkpt><trkpt lat="44.1969702" lon="11.3762927"><ele>931.0</ele><time>2026-04-11T07:22:16.495Z</time></trkpt><trkpt lat="44.1969162" lon="11.3762298"><ele>930.9999999999999</ele><time>2026-04-11T07:22:17.495Z</time></trkpt><trkpt lat="44.1968538" lon="11.3761635"><ele>931.0</ele><time>2026-04-11T07:22:18.493Z</time></trkpt><trkpt lat="44.1967848" lon="11.3760957"><ele>931.0</ele><time>2026-04-11T07:22:19.496Z</time></trkpt><trkpt lat="44.1967173" lon="11.376032"><ele>931.0</ele><time>2026-04-11T07:22:20.495Z</time></trkpt><trkpt lat="44.196648" lon="11.3759738"><ele>930.9999999999999</ele><time>2026-04-11T07:22:21.494Z</time></trkpt><trkpt lat="44.1965702" lon="11.375918"><ele>931.0</ele><time>2026-04-11T07:22:22.494Z</time></trkpt><trkpt lat="44.1964722" lon="11.3758628"><ele>933.0</ele><time>2026-04-11T07:22:23.493Z</time></trkpt><trkpt lat="44.1963575" lon="11.375831"><ele>934.9999999999999</ele><time>2026-04-11T07:22:24.496Z</time></trkpt><trkpt lat="44.196256" lon="11.3758157"><ele>936.9999999999999</ele><time>2026-04-11T07:22:25.495Z</time></trkpt><trkpt lat="44.1961692" lon="11.375798"><ele>939.0</ele><time>2026-04-11T07:22:26.497Z</time></trkpt><trkpt lat="44.1960962" lon="11.3757632"><ele>941.0</ele><time>2026-04-11T07:22:27.496Z</time></trkpt><trkpt lat="44.1960207" lon="11.3757318"><ele>941.0000000000001</ele><time>2026-04-11T07:22:28.494Z</time></trkpt><trkpt lat="44.1959438" lon="11.3757042"><ele>941.0</ele><time>2026-04-11T07:22:29.494Z</time></trkpt><trkpt lat="44.1958665" lon="11.3756693"><ele>941.0</ele><time>2026-04-11T07:22:30.492Z</time></trkpt><trkpt lat="44.1957907" lon="11.375651"><ele>941.0</ele><time>2026-04-11T07:22:31.493Z</time></trkpt><trkpt lat="44.1957005" lon="11.3756428"><ele>941.0000000000001</ele><time>2026-04-11T07:22:32.495Z</time></trkpt><trkpt lat="44.195606" lon="11.3756442"><ele>941.0</ele><time>2026-04-11T07:22:33.497Z</time></trkpt><trkpt lat="44.1955117" lon="11.3756318"><ele>941.1666666666667</ele><time>2026-04-11T07:22:34.497Z</time></trkpt><trkpt lat="44.1954217" lon="11.3755977"><ele>941.3333333333334</ele><time>2026-04-11T07:22:35.496Z</time></trkpt><trkpt lat="44.1953398" lon="11.3755597"><ele>941.5</ele><time>2026-04-11T07:22:36.494Z</time></trkpt><trkpt lat="44.1952563" lon="11.375526"><ele>941.6666666666667</ele><time>2026-04-11T07:22:37.494Z</time></trkpt><trkpt lat="44.1951717" lon="11.3755002"><ele>941.8333333333334</ele><time>2026-04-11T07:22:38.495Z</time></trkpt><trkpt lat="44.1950942" lon="11.3754743"><ele>942.0</ele><time>2026-04-11T07:22:39.495Z</time></trkpt><trkpt lat="44.1949813" lon="11.375408"><ele>942.0000000000001</ele><time>2026-04-11T07:22:41.496Z</time></trkpt><trkpt lat="44.194927" lon="11.3753428"><ele>942.0</ele><time>2026-04-11T07:22:42.495Z</time></trkpt><trkpt lat="44.1948813" lon="11.3752707"><ele>942.0000000000001</ele><time>2026-04-11T07:22:43.497Z</time></trkpt><trkpt lat="44.1948325" lon="11.375196"><ele>942.0000000000001</ele><time>2026-04-11T07:22:44.496Z</time></trkpt><trkpt lat="44.1947908" lon="11.3751202"><ele>942.0</ele><time>2026-04-11T07:22:45.494Z</time></trkpt><trkpt lat="44.1947503" lon="11.3750275"><ele>942.0000000000001</ele><time>2026-04-11T07:22:46.494Z</time></trkpt><trkpt lat="44.1947122" lon="11.3749253"><ele>942.0000000000001</ele><time>2026-04-11T07:22:47.496Z</time></trkpt><trkpt lat="44.1946828" lon="11.3748163"><ele>941.4000000000001</ele><time>2026-04-11T07:22:48.494Z</time></trkpt><trkpt lat="44.1946568" lon="11.3746932"><ele>940.8000000000001</ele><time>2026-04-11T07:22:49.494Z</time></trkpt><trkpt lat="44.1946188" lon="11.3745633"><ele>940.2</ele><time>2026-04-11T07:22:50.494Z</time></trkpt><trkpt lat="44.1945693" lon="11.3744405"><ele>939.6</ele><time>2026-04-11T07:22:51.494Z</time></trkpt><trkpt lat="44.194508" lon="11.3743343"><ele>939.0</ele><time>2026-04-11T07:22:52.495Z</time></trkpt><trkpt lat="44.1944367" lon="11.3742525"><ele>939.0</ele><time>2026-04-11T07:22:53.493Z</time></trkpt><trkpt lat="44.1943603" lon="11.3741908"><ele>939.0</ele><time>2026-04-11T07:22:54.492Z</time></trkpt><trkpt lat="44.1942857" lon="11.3741315"><ele>939.0</ele><time>2026-04-11T07:22:55.493Z</time></trkpt><trkpt lat="44.1942248" lon="11.3740602"><ele>939.0</ele><time>2026-04-11T07:22:56.495Z</time></trkpt><trkpt lat="44.1941792" lon="11.3739705"><ele>939.0</ele><time>2026-04-11T07:22:57.495Z</time></trkpt><trkpt lat="44.1941403" lon="11.3738747"><ele>939.0</ele><time>2026-04-11T07:22:58.495Z</time></trkpt><trkpt lat="44.1941003" lon="11.3737692"><ele>937.4000000000001</ele><time>2026-04-11T07:22:59.495Z</time></trkpt><trkpt lat="44.1940572" lon="11.3736545"><ele>935.8000000000001</ele><time>2026-04-11T07:23:00.494Z</time></trkpt><trkpt lat="44.1940005" lon="11.373549"><ele>934.1999999999999</ele><time>2026-04-11T07:23:01.496Z</time></trkpt><trkpt lat="44.1939317" lon="11.373458"><ele>932.5999999999999</ele><time>2026-04-11T07:23:02.498Z</time></trkpt><trkpt lat="44.1938623" lon="11.373377"><ele>931.0</ele><time>2026-04-11T07:23:03.495Z</time></trkpt><trkpt lat="44.1938005" lon="11.3732922"><ele>930.1666666666666</ele><time>2026-04-11T07:23:04.495Z</time></trkpt><trkpt lat="44.1937482" lon="11.3732082"><ele>929.3333333333333</ele><time>2026-04-11T07:23:05.494Z</time></trkpt><trkpt lat="44.1937038" lon="11.3731282"><ele>928.5</ele><time>2026-04-11T07:23:06.494Z</time></trkpt><trkpt lat="44.1936515" lon="11.3730613"><ele>927.6666666666667</ele><time>2026-04-11T07:23:07.494Z</time></trkpt><trkpt lat="44.1935822" lon="11.3730042"><ele>926.8333333333334</ele><time>2026-04-11T07:23:08.494Z</time></trkpt><trkpt lat="44.1935007" lon="11.3729442"><ele>926.0</ele><time>2026-04-11T07:23:09.495Z</time></trkpt><trkpt lat="44.1934177" lon="11.3728833"><ele>926.0</ele><time>2026-04-11T07:23:10.494Z</time></trkpt><trkpt lat="44.1933403" lon="11.3728295"><ele>925.9999999999999</ele><time>2026-04-11T07:23:11.495Z</time></trkpt><trkpt lat="44.1932558" lon="11.3727495"><ele>925.9999999999999</ele><time>2026-04-11T07:23:12.494Z</time></trkpt><trkpt lat="44.1931632" lon="11.372644"><ele>926.0</ele><time>2026-04-11T07:23:13.494Z</time></trkpt><trkpt lat="44.193066" lon="11.3725303"><ele>926.0</ele><time>2026-04-11T07:23:14.495Z</time></trkpt><trkpt lat="44.1929763" lon="11.372433"><ele>926.0</ele><time>2026-04-11T07:23:15.495Z</time></trkpt><trkpt lat="44.1928912" lon="11.3723447"><ele>925.9999999999999</ele><time>2026-04-11T07:23:16.494Z</time></trkpt><trkpt lat="44.1928125" lon="11.372265"><ele>925.9999999999999</ele><time>2026-04-11T07:23:17.495Z</time></trkpt><trkpt lat="44.1927398" lon="11.3721898"><ele>926.0</ele><time>2026-04-11T07:23:18.494Z</time></trkpt><trkpt lat="44.19267" lon="11.372114"><ele>926.0</ele><time>2026-04-11T07:23:19.494Z</time></trkpt><trkpt lat="44.1926088" lon="11.3720392"><ele>926.0</ele><time>2026-04-11T07:23:20.494Z</time></trkpt><trkpt lat="44.1925597" lon="11.3719688"><ele>925.9999999999999</ele><time>2026-04-11T07:23:21.494Z</time></trkpt><trkpt lat="44.1925152" lon="11.371903"><ele>925.9999999999999</ele><time>2026-04-11T07:23:22.496Z</time></trkpt><trkpt lat="44.1924333" lon="11.3717728"><ele>926.0</ele><time>2026-04-11T07:23:24.495Z</time></trkpt><trkpt lat="44.192358" lon="11.3716388"><ele>926.0</ele><time>2026-04-11T07:23:26.497Z</time></trkpt><trkpt lat="44.1922855" lon="11.3714925"><ele>923.5000000000001</ele><time>2026-04-11T07:23:28.496Z</time></trkpt><trkpt lat="44.1922502" lon="11.3714148"><ele>921.0</ele><time>2026-04-11T07:23:29.497Z</time></trkpt><trkpt lat="44.1922142" lon="11.371336"><ele>918.5</ele><time>2026-04-11T07:23:30.496Z</time></trkpt><trkpt lat="44.1921785" lon="11.371246"><ele>916.0</ele><time>2026-04-11T07:23:31.496Z</time></trkpt><trkpt lat="44.1921373" lon="11.371146"><ele>913.5000000000001</ele><time>2026-04-11T07:23:32.496Z</time></trkpt><trkpt lat="44.1920848" lon="11.3710507"><ele>911.0</ele><time>2026-04-11T07:23:33.495Z</time></trkpt><trkpt lat="44.192025" lon="11.3709518"><ele>911.0</ele><time>2026-04-11T07:23:34.495Z</time></trkpt><trkpt lat="44.1919733" lon="11.3708342"><ele>910.9999999999999</ele><time>2026-04-11T07:23:35.495Z</time></trkpt><trkpt lat="44.1919228" lon="11.3706965"><ele>910.9999999999999</ele><time>2026-04-11T07:23:36.496Z</time></trkpt><trkpt lat="44.1918763" lon="11.370568"><ele>911.0</ele><time>2026-04-11T07:23:37.495Z</time></trkpt><trkpt lat="44.1918315" lon="11.3704517"><ele>911.0</ele><time>2026-04-11T07:23:38.495Z</time></trkpt><trkpt lat="44.1917883" lon="11.3703542"><ele>911.5000000000001</ele><time>2026-04-11T07:23:39.495Z</time></trkpt><trkpt lat="44.1917428" lon="11.3702683"><ele>912.0</ele><time>2026-04-11T07:23:40.495Z</time></trkpt><trkpt lat="44.191685" lon="11.3702042"><ele>912.5</ele><time>2026-04-11T07:23:41.495Z</time></trkpt><trkpt lat="44.1916208" lon="11.3701578"><ele>913.0</ele><time>2026-04-11T07:23:42.492Z</time></trkpt><trkpt lat="44.1915522" lon="11.3700987"><ele>913.5000000000001</ele><time>2026-04-11T07:23:43.493Z</time></trkpt><trkpt lat="44.1914852" lon="11.3700103"><ele>914.0</ele><time>2026-04-11T07:23:44.492Z</time></trkpt><trkpt lat="44.1914175" lon="11.3698977"><ele>912.3333333333334</ele><time>2026-04-11T07:23:45.492Z</time></trkpt><trkpt lat="44.1913572" lon="11.3697897"><ele>910.6666666666667</ele><time>2026-04-11T07:23:46.495Z</time></trkpt><trkpt lat="44.1912972" lon="11.3696998"><ele>909.0</ele><time>2026-04-11T07:23:47.497Z</time></trkpt><trkpt lat="44.1912368" lon="11.369618"><ele>907.3333333333333</ele><time>2026-04-11T07:23:48.497Z</time></trkpt><trkpt lat="44.191179" lon="11.3695315"><ele>905.6666666666666</ele><time>2026-04-11T07:23:49.496Z</time></trkpt><trkpt lat="44.1911195" lon="11.3694385"><ele>904.0</ele><time>2026-04-11T07:23:50.495Z</time></trkpt><trkpt lat="44.1910577" lon="11.3693435"><ele>903.9999999999999</ele><time>2026-04-11T07:23:51.496Z</time></trkpt><trkpt lat="44.1909925" lon="11.3692502"><ele>904.0</ele><time>2026-04-11T07:23:52.495Z</time></trkpt><trkpt lat="44.1909278" lon="11.3691595"><ele>904.0</ele><time>2026-04-11T07:23:53.496Z</time></trkpt><trkpt lat="44.1908697" lon="11.3690588"><ele>904.0</ele><time>2026-04-11T07:23:54.494Z</time></trkpt><trkpt lat="44.1908238" lon="11.3689533"><ele>903.9999999999999</ele><time>2026-04-11T07:23:55.494Z</time></trkpt><trkpt lat="44.190777" lon="11.3688582"><ele>904.0</ele><time>2026-04-11T07:23:56.495Z</time></trkpt><trkpt lat="44.1907177" lon="11.3687898"><ele>901.6666666666666</ele><time>2026-04-11T07:23:57.494Z</time></trkpt><trkpt lat="44.190661" lon="11.3687462"><ele>899.3333333333333</ele><time>2026-04-11T07:23:58.495Z</time></trkpt><trkpt lat="44.1905772" lon="11.3686482"><ele>897.0</ele><time>2026-04-11T07:24:00.496Z</time></trkpt><trkpt lat="44.1905302" lon="11.3685877"><ele>894.6666666666667</ele><time>2026-04-11T07:24:01.496Z</time></trkpt><trkpt lat="44.1904772" lon="11.3685177"><ele>892.3333333333334</ele><time>2026-04-11T07:24:02.495Z</time></trkpt><trkpt lat="44.1904227" lon="11.368446"><ele>890.0</ele><time>2026-04-11T07:24:03.497Z</time></trkpt><trkpt lat="44.1903728" lon="11.3683848"><ele>890.0000000000001</ele><time>2026-04-11T07:24:04.495Z</time></trkpt><trkpt lat="44.1902868" lon="11.3682887"><ele>890.0</ele><time>2026-04-11T07:24:06.493Z</time></trkpt><trkpt lat="44.1902083" lon="11.3682228"><ele>890.0</ele><time>2026-04-11T07:24:08.493Z</time></trkpt><trkpt lat="44.1901472" lon="11.3682015"><ele>890.0</ele><time>2026-04-11T07:24:10.492Z</time></trkpt><trkpt lat="44.1900763" lon="11.3681797"><ele>890.0000000000001</ele><time>2026-04-11T07:24:12.495Z</time></trkpt><trkpt lat="44.189998" lon="11.3681492"><ele>890.0</ele><time>2026-04-11T07:24:14.494Z</time></trkpt><trkpt lat="44.1899003" lon="11.368124"><ele>889.1666666666667</ele><time>2026-04-11T07:24:16.494Z</time></trkpt><trkpt lat="44.1897868" lon="11.3680755"><ele>888.3333333333334</ele><time>2026-04-11T07:24:18.495Z</time></trkpt><trkpt lat="44.1897115" lon="11.3680375"><ele>887.5</ele><time>2026-04-11T07:24:19.496Z</time></trkpt><trkpt lat="44.1896323" lon="11.3679985"><ele>886.6666666666667</ele><time>2026-04-11T07:24:20.496Z</time></trkpt><trkpt lat="44.1895538" lon="11.3679723"><ele>885.8333333333334</ele><time>2026-04-11T07:24:21.495Z</time></trkpt><trkpt lat="44.18949" lon="11.3679427"><ele>885.0</ele><time>2026-04-11T07:24:22.495Z</time></trkpt><trkpt lat="44.1893953" lon="11.3678455"><ele>884.8333333333334</ele><time>2026-04-11T07:24:24.495Z</time></trkpt><trkpt lat="44.1893333" lon="11.3678113"><ele>884.6666666666667</ele><time>2026-04-11T07:24:25.496Z</time></trkpt><trkpt lat="44.1892477" lon="11.3677782"><ele>884.5</ele><time>2026-04-11T07:24:26.496Z</time></trkpt><trkpt lat="44.1891613" lon="11.367741"><ele>884.3333333333334</ele><time>2026-04-11T07:24:27.496Z</time></trkpt><trkpt lat="44.1890837" lon="11.3677033"><ele>884.1666666666667</ele><time>2026-04-11T07:24:28.496Z</time></trkpt><trkpt lat="44.1890112" lon="11.3676645"><ele>884.0</ele><time>2026-04-11T07:24:29.495Z</time></trkpt><trkpt lat="44.188946" lon="11.3676113"><ele>884.3333333333334</ele><time>2026-04-11T07:24:30.494Z</time></trkpt><trkpt lat="44.1888865" lon="11.3675453"><ele>884.6666666666667</ele><time>2026-04-11T07:24:31.494Z</time></trkpt><trkpt lat="44.1888348" lon="11.3674843"><ele>885.0</ele><time>2026-04-11T07:24:32.493Z</time></trkpt><trkpt lat="44.1887895" lon="11.3674165"><ele>885.3333333333333</ele><time>2026-04-11T07:24:33.494Z</time></trkpt><trkpt lat="44.188709" lon="11.3673188"><ele>885.6666666666666</ele><time>2026-04-11T07:24:35.496Z</time></trkpt><trkpt lat="44.1886222" lon="11.3672153"><ele>886.0</ele><time>2026-04-11T07:24:37.495Z</time></trkpt><trkpt lat="44.1885665" lon="11.3671412"><ele>886.0</ele><time>2026-04-11T07:24:38.497Z</time></trkpt><trkpt lat="44.188493" lon="11.367051"><ele>886.0</ele><time>2026-04-11T07:24:39.496Z</time></trkpt><trkpt lat="44.1884005" lon="11.3669577"><ele>886.0</ele><time>2026-04-11T07:24:40.496Z</time></trkpt><trkpt lat="44.188293" lon="11.3668707"><ele>886.0</ele><time>2026-04-11T07:24:41.496Z</time></trkpt><trkpt lat="44.188183" lon="11.3667822"><ele>885.75</ele><time>2026-04-11T07:24:42.495Z</time></trkpt><trkpt lat="44.1880782" lon="11.3666847"><ele>885.5</ele><time>2026-04-11T07:24:43.494Z</time></trkpt><trkpt lat="44.187982" lon="11.3665733"><ele>885.25</ele><time>2026-04-11T07:24:44.494Z</time></trkpt><trkpt lat="44.1879023" lon="11.3664407"><ele>885.0</ele><time>2026-04-11T07:24:45.496Z</time></trkpt><trkpt lat="44.187842" lon="11.36629"><ele>887.5</ele><time>2026-04-11T07:24:46.493Z</time></trkpt><trkpt lat="44.1877955" lon="11.3661283"><ele>890.0</ele><time>2026-04-11T07:24:47.495Z</time></trkpt><trkpt lat="44.1877513" lon="11.3659622"><ele>892.5</ele><time>2026-04-11T07:24:48.495Z</time></trkpt><trkpt lat="44.1877078" lon="11.3657942"><ele>895.0</ele><time>2026-04-11T07:24:49.495Z</time></trkpt><trkpt lat="44.1876595" lon="11.3656302"><ele>894.75</ele><time>2026-04-11T07:24:50.496Z</time></trkpt><trkpt lat="44.1875907" lon="11.365488"><ele>894.5</ele><time>2026-04-11T07:24:51.495Z</time></trkpt><trkpt lat="44.1874972" lon="11.3653867"><ele>894.25</ele><time>2026-04-11T07:24:52.494Z</time></trkpt><trkpt lat="44.1873862" lon="11.365328"><ele>894.0</ele><time>2026-04-11T07:24:53.496Z</time></trkpt><trkpt lat="44.1872648" lon="11.3653152"><ele>894.0</ele><time>2026-04-11T07:24:54.495Z</time></trkpt><trkpt lat="44.1871392" lon="11.3653355"><ele>894.0</ele><time>2026-04-11T07:24:55.495Z</time></trkpt><trkpt lat="44.187013" lon="11.365359"><ele>894.0</ele><time>2026-04-11T07:24:56.495Z</time></trkpt><trkpt lat="44.1868917" lon="11.3653577"><ele>894.0</ele><time>2026-04-11T07:24:57.495Z</time></trkpt><trkpt lat="44.1867758" lon="11.3653143"><ele>894.0</ele><time>2026-04-11T07:24:58.492Z</time></trkpt><trkpt lat="44.1866762" lon="11.3652247"><ele>894.0</ele><time>2026-04-11T07:24:59.495Z</time></trkpt><trkpt lat="44.1865938" lon="11.3650983"><ele>894.0</ele><time>2026-04-11T07:25:00.495Z</time></trkpt><trkpt lat="44.1865207" lon="11.3649513"><ele>894.0</ele><time>2026-04-11T07:25:01.494Z</time></trkpt><trkpt lat="44.1864487" lon="11.3647997"><ele>894.5</ele><time>2026-04-11T07:25:02.494Z</time></trkpt><trkpt lat="44.1863753" lon="11.3646457"><ele>895.0</ele><time>2026-04-11T07:25:03.494Z</time></trkpt><trkpt lat="44.186303" lon="11.3644935"><ele>895.5</ele><time>2026-04-11T07:25:04.494Z</time></trkpt><trkpt lat="44.1862372" lon="11.3643533"><ele>896.0</ele><time>2026-04-11T07:25:05.495Z</time></trkpt><trkpt lat="44.1861685" lon="11.3642382"><ele>896.0</ele><time>2026-04-11T07:25:06.495Z</time></trkpt><trkpt lat="44.1860988" lon="11.3641458"><ele>895.9999999999999</ele><time>2026-04-11T07:25:07.493Z</time></trkpt><trkpt lat="44.1860197" lon="11.3640665"><ele>895.9999999999999</ele><time>2026-04-11T07:25:08.496Z</time></trkpt><trkpt lat="44.1859237" lon="11.3639928"><ele>896.0</ele><time>2026-04-11T07:25:09.495Z</time></trkpt><trkpt lat="44.1858178" lon="11.363923"><ele>896.0</ele><time>2026-04-11T07:25:10.497Z</time></trkpt><trkpt lat="44.1857102" lon="11.3638508"><ele>896.75</ele><time>2026-04-11T07:25:11.498Z</time></trkpt><trkpt lat="44.1856018" lon="11.3637748"><ele>897.5</ele><time>2026-04-11T07:25:12.497Z</time></trkpt><trkpt lat="44.185495" lon="11.363693"><ele>898.25</ele><time>2026-04-11T07:25:13.497Z</time></trkpt><trkpt lat="44.1853942" lon="11.3636053"><ele>899.0</ele><time>2026-04-11T07:25:14.496Z</time></trkpt><trkpt lat="44.1853013" lon="11.3635048"><ele>899.0</ele><time>2026-04-11T07:25:15.494Z</time></trkpt><trkpt lat="44.1852155" lon="11.363391"><ele>899.0000000000001</ele><time>2026-04-11T07:25:16.495Z</time></trkpt><trkpt lat="44.1851378" lon="11.3632733"><ele>899.0000000000001</ele><time>2026-04-11T07:25:17.495Z</time></trkpt><trkpt lat="44.185067" lon="11.3631587"><ele>899.0</ele><time>2026-04-11T07:25:18.495Z</time></trkpt><trkpt lat="44.184991" lon="11.3630562"><ele>899.0</ele><time>2026-04-11T07:25:19.496Z</time></trkpt><trkpt lat="44.1849075" lon="11.3629773"><ele>899.6</ele><time>2026-04-11T07:25:20.494Z</time></trkpt><trkpt lat="44.1848162" lon="11.3629133"><ele>900.2</ele><time>2026-04-11T07:25:21.493Z</time></trkpt><trkpt lat="44.1847292" lon="11.3628647"><ele>900.8000000000001</ele><time>2026-04-11T07:25:22.495Z</time></trkpt><trkpt lat="44.184642" lon="11.3628205"><ele>901.4000000000001</ele><time>2026-04-11T07:25:23.493Z</time></trkpt><trkpt lat="44.1845553" lon="11.3627937"><ele>902.0</ele><time>2026-04-11T07:25:24.494Z</time></trkpt><trkpt lat="44.1844718" lon="11.3627855"><ele>902.0000000000001</ele><time>2026-04-11T07:25:25.494Z</time></trkpt><trkpt lat="44.1843895" lon="11.3627875"><ele>902.0</ele><time>2026-04-11T07:25:26.495Z</time></trkpt><trkpt lat="44.1843133" lon="11.3628057"><ele>902.0</ele><time>2026-04-11T07:25:27.493Z</time></trkpt><trkpt lat="44.1842397" lon="11.362823"><ele>902.0</ele><time>2026-04-11T07:25:28.493Z</time></trkpt><trkpt lat="44.1841653" lon="11.3628207"><ele>902.0000000000001</ele><time>2026-04-11T07:25:29.496Z</time></trkpt><trkpt lat="44.1840538" lon="11.3628072"><ele>902.0</ele><time>2026-04-11T07:25:31.493Z</time></trkpt><trkpt lat="44.1839737" lon="11.3627952"><ele>900.2</ele><time>2026-04-11T07:25:33.492Z</time></trkpt><trkpt lat="44.1838845" lon="11.3627933"><ele>898.4000000000001</ele><time>2026-04-11T07:25:35.493Z</time></trkpt><trkpt lat="44.183809" lon="11.36282"><ele>896.5999999999999</ele><time>2026-04-11T07:25:37.491Z</time></trkpt><trkpt lat="44.1837115" lon="11.362855"><ele>894.8</ele><time>2026-04-11T07:25:39.491Z</time></trkpt><trkpt lat="44.1836017" lon="11.3628813"><ele>893.0</ele><time>2026-04-11T07:25:41.491Z</time></trkpt><trkpt lat="44.1834978" lon="11.3628623"><ele>893.0</ele><time>2026-04-11T07:25:43.491Z</time></trkpt><trkpt lat="44.1834033" lon="11.362851"><ele>893.0</ele><time>2026-04-11T07:25:45.489Z</time></trkpt><trkpt lat="44.183327" lon="11.3629137"><ele>893.0</ele><time>2026-04-11T07:25:47.489Z</time></trkpt><trkpt lat="44.183252" lon="11.3629895"><ele>893.0</ele><time>2026-04-11T07:25:49.491Z</time></trkpt><trkpt lat="44.1831387" lon="11.3630603"><ele>893.0</ele><time>2026-04-11T07:25:51.491Z</time></trkpt><trkpt lat="44.1830703" lon="11.3630625"><ele>891.5000000000001</ele><time>2026-04-11T07:25:52.492Z</time></trkpt><trkpt lat="44.1830023" lon="11.3630518"><ele>890.0</ele><time>2026-04-11T07:25:53.492Z</time></trkpt><trkpt lat="44.1829375" lon="11.3630417"><ele>888.5</ele><time>2026-04-11T07:25:54.49Z</time></trkpt><trkpt lat="44.1828263" lon="11.3630178"><ele>887.0</ele><time>2026-04-11T07:25:56.49Z</time></trkpt><trkpt lat="44.1827272" lon="11.3629875"><ele>885.5000000000001</ele><time>2026-04-11T07:25:58.49Z</time></trkpt><trkpt lat="44.1826583" lon="11.3630388"><ele>884.0</ele><time>2026-04-11T07:26:01.492Z</time></trkpt><trkpt lat="44.1825998" lon="11.3630875"><ele>884.0000000000001</ele><time>2026-04-11T07:26:03.49Z</time></trkpt><trkpt lat="44.1825035" lon="11.3630665"><ele>884.0</ele><time>2026-04-11T07:26:05.493Z</time></trkpt><trkpt lat="44.1824353" lon="11.3630432"><ele>884.0</ele><time>2026-04-11T07:26:06.492Z</time></trkpt><trkpt lat="44.1823703" lon="11.3630212"><ele>884.0</ele><time>2026-04-11T07:26:07.491Z</time></trkpt><trkpt lat="44.1823033" lon="11.3630003"><ele>884.0</ele><time>2026-04-11T07:26:08.49Z</time></trkpt><trkpt lat="44.1822335" lon="11.3629863"><ele>884.0000000000001</ele><time>2026-04-11T07:26:09.487Z</time></trkpt><trkpt lat="44.1821675" lon="11.362983"><ele>884.0</ele><time>2026-04-11T07:26:10.486Z</time></trkpt><trkpt lat="44.1820923" lon="11.3629955"><ele>884.0</ele><time>2026-04-11T07:26:11.487Z</time></trkpt><trkpt lat="44.1820105" lon="11.3630277"><ele>884.0000000000001</ele><time>2026-04-11T07:26:12.489Z</time></trkpt><trkpt lat="44.1819232" lon="11.3630767"><ele>884.0000000000001</ele><time>2026-04-11T07:26:13.49Z</time></trkpt><trkpt lat="44.1818393" lon="11.3631393"><ele>884.0</ele><time>2026-04-11T07:26:14.491Z</time></trkpt><trkpt lat="44.1817595" lon="11.3632035"><ele>884.0</ele><time>2026-04-11T07:26:15.489Z</time></trkpt><trkpt lat="44.1816895" lon="11.3632682"><ele>881.1428571428572</ele><time>2026-04-11T07:26:16.491Z</time></trkpt><trkpt lat="44.181624" lon="11.363327"><ele>878.2857142857143</ele><time>2026-04-11T07:26:17.491Z</time></trkpt><trkpt lat="44.181555" lon="11.3633683"><ele>875.4285714285714</ele><time>2026-04-11T07:26:18.49Z</time></trkpt><trkpt lat="44.1814867" lon="11.3634087"><ele>872.5714285714287</ele><time>2026-04-11T07:26:19.491Z</time></trkpt><trkpt lat="44.1814188" lon="11.3634612"><ele>869.7142857142857</ele><time>2026-04-11T07:26:20.491Z</time></trkpt><trkpt lat="44.1813578" lon="11.3635185"><ele>866.8571428571429</ele><time>2026-04-11T07:26:21.49Z</time></trkpt><trkpt lat="44.1812975" lon="11.3635688"><ele>864.0</ele><time>2026-04-11T07:26:22.491Z</time></trkpt><trkpt lat="44.1812285" lon="11.3635982"><ele>864.0</ele><time>2026-04-11T07:26:23.491Z</time></trkpt><trkpt lat="44.1811585" lon="11.3636123"><ele>864.0</ele><time>2026-04-11T07:26:24.49Z</time></trkpt><trkpt lat="44.1810908" lon="11.3636197"><ele>864.0</ele><time>2026-04-11T07:26:25.489Z</time></trkpt><trkpt lat="44.1810282" lon="11.363648"><ele>864.0</ele><time>2026-04-11T07:26:26.491Z</time></trkpt><trkpt lat="44.180965" lon="11.3637015"><ele>864.0</ele><time>2026-04-11T07:26:27.49Z</time></trkpt><trkpt lat="44.1808968" lon="11.36377"><ele>864.0</ele><time>2026-04-11T07:26:28.492Z</time></trkpt><trkpt lat="44.180833" lon="11.3638315"><ele>864.0</ele><time>2026-04-11T07:26:29.492Z</time></trkpt><trkpt lat="44.180768" lon="11.3638753"><ele>863.8000000000001</ele><time>2026-04-11T07:26:30.492Z</time></trkpt><trkpt lat="44.1806983" lon="11.363902"><ele>863.6000000000001</ele><time>2026-04-11T07:26:31.492Z</time></trkpt><trkpt lat="44.1806275" lon="11.3639213"><ele>863.4</ele><time>2026-04-11T07:26:32.492Z</time></trkpt><trkpt lat="44.1805267" lon="11.3638923"><ele>863.2</ele><time>2026-04-11T07:26:34.488Z</time></trkpt><trkpt lat="44.1804627" lon="11.3637252"><ele>863.0</ele><time>2026-04-11T07:26:36.488Z</time></trkpt><trkpt lat="44.1804358" lon="11.3635953"><ele>863.0000000000001</ele><time>2026-04-11T07:26:37.489Z</time></trkpt><trkpt lat="44.1804223" lon="11.3634843"><ele>863.0</ele><time>2026-04-11T07:26:38.49Z</time></trkpt><trkpt lat="44.1804228" lon="11.3633797"><ele>863.0</ele><time>2026-04-11T07:26:39.491Z</time></trkpt><trkpt lat="44.1804208" lon="11.3632475"><ele>863.0</ele><time>2026-04-11T07:26:40.491Z</time></trkpt><trkpt lat="44.1804142" lon="11.3631033"><ele>863.0000000000001</ele><time>2026-04-11T07:26:41.492Z</time></trkpt><trkpt lat="44.1804085" lon="11.36298"><ele>863.0</ele><time>2026-04-11T07:26:42.489Z</time></trkpt><trkpt lat="44.1803932" lon="11.3628775"><ele>866.0000000000001</ele><time>2026-04-11T07:26:43.489Z</time></trkpt><trkpt lat="44.1803557" lon="11.3627867"><ele>869.0</ele><time>2026-04-11T07:26:44.492Z</time></trkpt><trkpt lat="44.1803027" lon="11.3627017"><ele>872.0</ele><time>2026-04-11T07:26:45.491Z</time></trkpt><trkpt lat="44.1802373" lon="11.3626242"><ele>875.0</ele><time>2026-04-11T07:26:46.492Z</time></trkpt><trkpt lat="44.1801688" lon="11.3625632"><ele>878.0000000000001</ele><time>2026-04-11T07:26:47.494Z</time></trkpt><trkpt lat="44.1801043" lon="11.3625215"><ele>881.0</ele><time>2026-04-11T07:26:48.492Z</time></trkpt><trkpt lat="44.1800402" lon="11.3624878"><ele>881.0</ele><time>2026-04-11T07:26:49.491Z</time></trkpt><trkpt lat="44.1799778" lon="11.3624498"><ele>880.9999999999999</ele><time>2026-04-11T07:26:50.492Z</time></trkpt><trkpt lat="44.1798518" lon="11.3623872"><ele>880.9999999999999</ele><time>2026-04-11T07:26:52.491Z</time></trkpt><trkpt lat="44.1797317" lon="11.3622833"><ele>881.0</ele><time>2026-04-11T07:26:54.49Z</time></trkpt><trkpt lat="44.1796658" lon="11.362225"><ele>881.0</ele><time>2026-04-11T07:26:55.49Z</time></trkpt><trkpt lat="44.1796088" lon="11.3621585"><ele>882.8333333333334</ele><time>2026-04-11T07:26:56.492Z</time></trkpt><trkpt lat="44.1795523" lon="11.3620735"><ele>884.6666666666667</ele><time>2026-04-11T07:26:57.49Z</time></trkpt><trkpt lat="44.1794852" lon="11.3619927"><ele>886.5</ele><time>2026-04-11T07:26:58.488Z</time></trkpt><trkpt lat="44.1794152" lon="11.3619173"><ele>888.3333333333333</ele><time>2026-04-11T07:26:59.489Z</time></trkpt><trkpt lat="44.1793483" lon="11.3618405"><ele>890.1666666666666</ele><time>2026-04-11T07:27:00.488Z</time></trkpt><trkpt lat="44.1792837" lon="11.361766"><ele>892.0</ele><time>2026-04-11T07:27:01.488Z</time></trkpt><trkpt lat="44.1792108" lon="11.3616987"><ele>891.9999999999999</ele><time>2026-04-11T07:27:02.49Z</time></trkpt><trkpt lat="44.1791375" lon="11.3616317"><ele>892.0</ele><time>2026-04-11T07:27:03.491Z</time></trkpt><trkpt lat="44.179064" lon="11.3615665"><ele>892.0</ele><time>2026-04-11T07:27:04.492Z</time></trkpt><trkpt lat="44.178992" lon="11.3615115"><ele>892.0</ele><time>2026-04-11T07:27:05.491Z</time></trkpt><trkpt lat="44.1789272" lon="11.361455"><ele>891.9999999999999</ele><time>2026-04-11T07:27:06.491Z</time></trkpt><trkpt lat="44.1788653" lon="11.3614048"><ele>892.0</ele><time>2026-04-11T07:27:07.49Z</time></trkpt><trkpt lat="44.1788075" lon="11.3613653"><ele>894.8333333333333</ele><time>2026-04-11T07:27:08.491Z</time></trkpt><trkpt lat="44.1787328" lon="11.3613158"><ele>897.6666666666666</ele><time>2026-04-11T07:27:09.491Z</time></trkpt><trkpt lat="44.1786567" lon="11.3612757"><ele>900.5</ele><time>2026-04-11T07:27:10.491Z</time></trkpt><trkpt lat="44.178582" lon="11.3612382"><ele>903.3333333333333</ele><time>2026-04-11T07:27:11.492Z</time></trkpt><trkpt lat="44.1785037" lon="11.3611947"><ele>906.1666666666666</ele><time>2026-04-11T07:27:12.492Z</time></trkpt><trkpt lat="44.1784277" lon="11.3611408"><ele>909.0</ele><time>2026-04-11T07:27:13.491Z</time></trkpt><trkpt lat="44.178343" lon="11.3610643"><ele>909.0</ele><time>2026-04-11T07:27:14.492Z</time></trkpt><trkpt lat="44.1782623" lon="11.3609798"><ele>909.0</ele><time>2026-04-11T07:27:15.492Z</time></trkpt><trkpt lat="44.1782077" lon="11.3608953"><ele>909.0</ele><time>2026-04-11T07:27:16.491Z</time></trkpt><trkpt lat="44.178163" lon="11.360806"><ele>909.0</ele><time>2026-04-11T07:27:17.492Z</time></trkpt><trkpt lat="44.17811" lon="11.3607212"><ele>909.0</ele><time>2026-04-11T07:27:18.491Z</time></trkpt><trkpt lat="44.1780552" lon="11.3606477"><ele>909.0</ele><time>2026-04-11T07:27:19.491Z</time></trkpt><trkpt lat="44.1779648" lon="11.3605735"><ele>907.8000000000001</ele><time>2026-04-11T07:27:21.491Z</time></trkpt><trkpt lat="44.177845" lon="11.3605742"><ele>906.6000000000001</ele><time>2026-04-11T07:27:23.488Z</time></trkpt><trkpt lat="44.1777633" lon="11.360555"><ele>905.4</ele><time>2026-04-11T07:27:25.488Z</time></trkpt><trkpt lat="44.177681" lon="11.3605248"><ele>904.2</ele><time>2026-04-11T07:27:37.489Z</time></trkpt><trkpt lat="44.1776278" lon="11.3604757"><ele>903.0</ele><time>2026-04-11T07:27:38.489Z</time></trkpt><trkpt lat="44.1775432" lon="11.360357"><ele>905.2</ele><time>2026-04-11T07:27:40.49Z</time></trkpt><trkpt lat="44.1774243" lon="11.360301"><ele>907.4</ele><time>2026-04-11T07:27:42.488Z</time></trkpt><trkpt lat="44.1773593" lon="11.3603113"><ele>909.6000000000001</ele><time>2026-04-11T07:27:43.49Z</time></trkpt><trkpt lat="44.1772462" lon="11.3603658"><ele>911.8000000000001</ele><time>2026-04-11T07:27:45.488Z</time></trkpt><trkpt lat="44.1771252" lon="11.3603675"><ele>914.0</ele><time>2026-04-11T07:27:47.488Z</time></trkpt><trkpt lat="44.1770592" lon="11.360314"><ele>914.0</ele><time>2026-04-11T07:27:48.487Z</time></trkpt><trkpt lat="44.1769892" lon="11.3602437"><ele>914.0000000000001</ele><time>2026-04-11T07:27:49.488Z</time></trkpt><trkpt lat="44.1769293" lon="11.3601838"><ele>914.0000000000001</ele><time>2026-04-11T07:27:50.487Z</time></trkpt><trkpt lat="44.1768228" lon="11.3601587"><ele>914.0</ele><time>2026-04-11T07:27:52.489Z</time></trkpt><trkpt lat="44.1767348" lon="11.360162"><ele>914.0</ele><time>2026-04-11T07:27:53.49Z</time></trkpt><trkpt lat="44.1766362" lon="11.3601707"><ele>914.0000000000001</ele><time>2026-04-11T07:27:54.492Z</time></trkpt><trkpt lat="44.1765512" lon="11.3601753"><ele>914.0</ele><time>2026-04-11T07:27:55.49Z</time></trkpt><trkpt lat="44.1764445" lon="11.360134"><ele>914.0</ele><time>2026-04-11T07:27:57.491Z</time></trkpt><trkpt lat="44.1763862" lon="11.3600878"><ele>914.0</ele><time>2026-04-11T07:27:58.492Z</time></trkpt><trkpt lat="44.176306" lon="11.3600552"><ele>914.0000000000001</ele><time>2026-04-11T07:27:59.49Z</time></trkpt><trkpt lat="44.176234" lon="11.3600497"><ele>914.0</ele><time>2026-04-11T07:28:00.489Z</time></trkpt><trkpt lat="44.176132" lon="11.3600137"><ele>914.0000000000001</ele><time>2026-04-11T07:28:02.491Z</time></trkpt><trkpt lat="44.1760647" lon="11.3599902"><ele>914.0</ele><time>2026-04-11T07:28:03.489Z</time></trkpt><trkpt lat="44.175984" lon="11.3599582"><ele>914.0</ele><time>2026-04-11T07:28:04.489Z</time></trkpt><trkpt lat="44.175918" lon="11.3599235"><ele>914.0</ele><time>2026-04-11T07:28:05.49Z</time></trkpt><trkpt lat="44.1758548" lon="11.3599005"><ele>914.0000000000001</ele><time>2026-04-11T07:28:06.49Z</time></trkpt><trkpt lat="44.1757913" lon="11.3599073"><ele>914.0</ele><time>2026-04-11T07:28:07.489Z</time></trkpt><trkpt lat="44.1756858" lon="11.3599403"><ele>914.8333333333334</ele><time>2026-04-11T07:28:09.489Z</time></trkpt><trkpt lat="44.175619" lon="11.3599405"><ele>915.6666666666667</ele><time>2026-04-11T07:28:10.491Z</time></trkpt><trkpt lat="44.1755427" lon="11.3599548"><ele>916.5</ele><time>2026-04-11T07:28:11.491Z</time></trkpt><trkpt lat="44.175468" lon="11.3599665"><ele>917.3333333333333</ele><time>2026-04-11T07:28:12.489Z</time></trkpt><trkpt lat="44.1753833" lon="11.3599693"><ele>918.1666666666666</ele><time>2026-04-11T07:28:13.488Z</time></trkpt><trkpt lat="44.1753058" lon="11.359966"><ele>919.0</ele><time>2026-04-11T07:28:14.489Z</time></trkpt><trkpt lat="44.175192" lon="11.3599557"><ele>919.0</ele><time>2026-04-11T07:28:16.49Z</time></trkpt><trkpt lat="44.1750592" lon="11.3599378"><ele>919.0000000000001</ele><time>2026-04-11T07:28:18.491Z</time></trkpt><trkpt lat="44.1749932" lon="11.3599317"><ele>919.0000000000001</ele><time>2026-04-11T07:28:19.491Z</time></trkpt><trkpt lat="44.1748667" lon="11.3599185"><ele>919.0</ele><time>2026-04-11T07:28:21.492Z</time></trkpt><trkpt lat="44.174798" lon="11.3598855"><ele>919.0</ele><time>2026-04-11T07:28:22.491Z</time></trkpt><trkpt lat="44.174726" lon="11.3598523"><ele>920.8000000000001</ele><time>2026-04-11T07:28:23.491Z</time></trkpt><trkpt lat="44.174659" lon="11.3598372"><ele>922.6000000000001</ele><time>2026-04-11T07:28:24.49Z</time></trkpt><trkpt lat="44.1745567" lon="11.359856"><ele>924.4</ele><time>2026-04-11T07:28:26.493Z</time></trkpt><trkpt lat="44.174463" lon="11.3599175"><ele>926.2</ele><time>2026-04-11T07:28:28.491Z</time></trkpt><trkpt lat="44.1743675" lon="11.3599295"><ele>928.0</ele><time>2026-04-11T07:28:30.492Z</time></trkpt><trkpt lat="44.1742838" lon="11.3599262"><ele>928.0</ele><time>2026-04-11T07:28:32.491Z</time></trkpt><trkpt lat="44.1741917" lon="11.359958"><ele>928.0</ele><time>2026-04-11T07:28:34.491Z</time></trkpt><trkpt lat="44.1740967" lon="11.3600075"><ele>928.0</ele><time>2026-04-11T07:28:36.489Z</time></trkpt><trkpt lat="44.1739927" lon="11.3600397"><ele>928.0</ele><time>2026-04-11T07:28:38.491Z</time></trkpt><trkpt lat="44.1738957" lon="11.3600877"><ele>928.0</ele><time>2026-04-11T07:28:40.492Z</time></trkpt><trkpt lat="44.1738127" lon="11.3600952"><ele>926.9999999999999</ele><time>2026-04-11T07:28:42.49Z</time></trkpt><trkpt lat="44.1737268" lon="11.360077"><ele>926.0</ele><time>2026-04-11T07:28:45.489Z</time></trkpt><trkpt lat="44.17366" lon="11.3600755"><ele>925.0</ele><time>2026-04-11T07:28:47.491Z</time></trkpt><trkpt lat="44.1736268" lon="11.3601503"><ele>924.0</ele><time>2026-04-11T07:28:52.492Z</time></trkpt><trkpt lat="44.1736365" lon="11.3602387"><ele>922.9999999999999</ele><time>2026-04-11T07:28:56.494Z</time></trkpt><trkpt lat="44.1736527" lon="11.3603475"><ele>922.0</ele><time>2026-04-11T07:28:58.494Z</time></trkpt><trkpt lat="44.1736757" lon="11.3604768"><ele>919.9999999999999</ele><time>2026-04-11T07:29:00.493Z</time></trkpt><trkpt lat="44.1737012" lon="11.3606463"><ele>918.0</ele><time>2026-04-11T07:29:02.49Z</time></trkpt><trkpt lat="44.1737135" lon="11.3607418"><ele>916.0</ele><time>2026-04-11T07:29:03.491Z</time></trkpt><trkpt lat="44.1737208" lon="11.3608348"><ele>914.0</ele><time>2026-04-11T07:29:04.49Z</time></trkpt><trkpt lat="44.1737003" lon="11.3609825"><ele>911.9999999999999</ele><time>2026-04-11T07:29:06.492Z</time></trkpt><trkpt lat="44.1736462" lon="11.361051"><ele>910.0</ele><time>2026-04-11T07:29:08.493Z</time></trkpt><trkpt lat="44.1735772" lon="11.361122"><ele>910.0</ele><time>2026-04-11T07:29:10.494Z</time></trkpt><trkpt lat="44.1735098" lon="11.3612033"><ele>910.0</ele><time>2026-04-11T07:29:12.494Z</time></trkpt><trkpt lat="44.1734503" lon="11.3612868"><ele>910.0</ele><time>2026-04-11T07:29:14.494Z</time></trkpt><trkpt lat="44.1733873" lon="11.361386"><ele>910.0</ele><time>2026-04-11T07:29:16.493Z</time></trkpt><trkpt lat="44.1732927" lon="11.3614885"><ele>910.0</ele><time>2026-04-11T07:29:18.493Z</time></trkpt><trkpt lat="44.1732102" lon="11.3616195"><ele>906.0</ele><time>2026-04-11T07:29:20.493Z</time></trkpt><trkpt lat="44.1731525" lon="11.361783"><ele>902.0</ele><time>2026-04-11T07:29:22.493Z</time></trkpt><trkpt lat="44.1731322" lon="11.3618772"><ele>898.0</ele><time>2026-04-11T07:29:23.495Z</time></trkpt><trkpt lat="44.1731072" lon="11.362007"><ele>894.0</ele><time>2026-04-11T07:29:25.492Z</time></trkpt><trkpt lat="44.173091" lon="11.362114"><ele>890.0</ele><time>2026-04-11T07:29:27.491Z</time></trkpt><trkpt lat="44.173074" lon="11.3622165"><ele>888.5714285714286</ele><time>2026-04-11T07:29:30.494Z</time></trkpt><trkpt lat="44.1730453" lon="11.362315"><ele>887.1428571428571</ele><time>2026-04-11T07:29:32.494Z</time></trkpt><trkpt lat="44.1730085" lon="11.3624098"><ele>885.7142857142857</ele><time>2026-04-11T07:29:34.494Z</time></trkpt><trkpt lat="44.1729658" lon="11.3624902"><ele>884.2857142857142</ele><time>2026-04-11T07:29:36.495Z</time></trkpt><trkpt lat="44.1729083" lon="11.3625682"><ele>882.8571428571429</ele><time>2026-04-11T07:29:38.493Z</time></trkpt><trkpt lat="44.1728553" lon="11.3626342"><ele>881.4285714285713</ele><time>2026-04-11T07:29:40.494Z</time></trkpt><trkpt lat="44.1727947" lon="11.3626837"><ele>880.0</ele><time>2026-04-11T07:29:43.494Z</time></trkpt><trkpt lat="44.1727353" lon="11.3627317"><ele>879.9999999999999</ele><time>2026-04-11T07:29:46.495Z</time></trkpt><trkpt lat="44.1726717" lon="11.3627775"><ele>880.0</ele><time>2026-04-11T07:29:48.494Z</time></trkpt><trkpt lat="44.1725933" lon="11.3628252"><ele>880.0</ele><time>2026-04-11T07:29:50.491Z</time></trkpt><trkpt lat="44.1725178" lon="11.3628852"><ele>880.0</ele><time>2026-04-11T07:29:52.491Z</time></trkpt><trkpt lat="44.1724402" lon="11.3629568"><ele>879.9999999999999</ele><time>2026-04-11T07:29:54.493Z</time></trkpt><trkpt lat="44.1723872" lon="11.3630082"><ele>880.0</ele><time>2026-04-11T07:29:56.493Z</time></trkpt><trkpt lat="44.1723078" lon="11.3630755"><ele>876.8</ele><time>2026-04-11T07:29:58.494Z</time></trkpt><trkpt lat="44.1722227" lon="11.3631737"><ele>873.6</ele><time>2026-04-11T07:30:00.494Z</time></trkpt><trkpt lat="44.1721715" lon="11.3632858"><ele>870.4000000000001</ele><time>2026-04-11T07:30:02.495Z</time></trkpt><trkpt lat="44.1721233" lon="11.3634063"><ele>867.2</ele><time>2026-04-11T07:30:04.493Z</time></trkpt><trkpt lat="44.1720593" lon="11.3635165"><ele>864.0</ele><time>2026-04-11T07:30:06.493Z</time></trkpt><trkpt lat="44.1719707" lon="11.3636332"><ele>864.0</ele><time>2026-04-11T07:30:08.494Z</time></trkpt><trkpt lat="44.1719247" lon="11.3636938"><ele>864.0000000000001</ele><time>2026-04-11T07:30:09.496Z</time></trkpt><trkpt lat="44.1718452" lon="11.3638093"><ele>864.0000000000001</ele><time>2026-04-11T07:30:11.494Z</time></trkpt><trkpt lat="44.1717627" lon="11.3639007"><ele>864.0</ele><time>2026-04-11T07:30:13.495Z</time></trkpt><trkpt lat="44.1716837" lon="11.3639632"><ele>864.0</ele><time>2026-04-11T07:30:15.492Z</time></trkpt><trkpt lat="44.1716088" lon="11.3640622"><ele>862.6</ele><time>2026-04-11T07:30:17.493Z</time></trkpt><trkpt lat="44.1715465" lon="11.3641547"><ele>861.2</ele><time>2026-04-11T07:30:19.495Z</time></trkpt><trkpt lat="44.1714838" lon="11.3642493"><ele>859.8000000000001</ele><time>2026-04-11T07:30:21.494Z</time></trkpt><trkpt lat="44.1714378" lon="11.3643487"><ele>858.4000000000001</ele><time>2026-04-11T07:30:23.495Z</time></trkpt><trkpt lat="44.1714068" lon="11.3644755"><ele>857.0</ele><time>2026-04-11T07:30:25.493Z</time></trkpt><trkpt lat="44.1713912" lon="11.3646282"><ele>854.4000000000001</ele><time>2026-04-11T07:30:27.496Z</time></trkpt><trkpt lat="44.171379" lon="11.3647582"><ele>851.8000000000001</ele><time>2026-04-11T07:30:29.499Z</time></trkpt><trkpt lat="44.1713473" lon="11.364872"><ele>849.2</ele><time>2026-04-11T07:30:31.494Z</time></trkpt><trkpt lat="44.1713327" lon="11.3649927"><ele>846.6</ele><time>2026-04-11T07:30:33.494Z</time></trkpt><trkpt lat="44.1713108" lon="11.3651402"><ele>844.0</ele><time>2026-04-11T07:30:35.494Z</time></trkpt><trkpt lat="44.1712965" lon="11.3652855"><ele>843.9999999999999</ele><time>2026-04-11T07:30:37.493Z</time></trkpt><trkpt lat="44.1713023" lon="11.3654533"><ele>844.0</ele><time>2026-04-11T07:30:39.492Z</time></trkpt><trkpt lat="44.1713015" lon="11.3655902"><ele>844.0</ele><time>2026-04-11T07:30:41.493Z</time></trkpt><trkpt lat="44.1712767" lon="11.3656832"><ele>844.0</ele><time>2026-04-11T07:30:43.495Z</time></trkpt><trkpt lat="44.171241" lon="11.3657802"><ele>843.9999999999999</ele><time>2026-04-11T07:31:08.495Z</time></trkpt><trkpt lat="44.1712137" lon="11.3658738"><ele>844.0</ele><time>2026-04-11T07:31:13.495Z</time></trkpt><trkpt lat="44.171182" lon="11.3659522"><ele>843.1666666666666</ele><time>2026-04-11T07:31:17.496Z</time></trkpt><trkpt lat="44.1711607" lon="11.3660643"><ele>842.3333333333333</ele><time>2026-04-11T07:31:46.494Z</time></trkpt><trkpt lat="44.1711507" lon="11.366154"><ele>841.5</ele><time>2026-04-11T07:31:48.495Z</time></trkpt><trkpt lat="44.1711363" lon="11.3662565"><ele>840.6666666666667</ele><time>2026-04-11T07:31:50.495Z</time></trkpt><trkpt lat="44.1711388" lon="11.3663533"><ele>839.8333333333334</ele><time>2026-04-11T07:31:52.492Z</time></trkpt><trkpt lat="44.1711445" lon="11.3664975"><ele>839.0</ele><time>2026-04-11T07:31:55.492Z</time></trkpt><trkpt lat="44.1711763" lon="11.3666495"><ele>838.0</ele><time>2026-04-11T07:31:57.494Z</time></trkpt><trkpt lat="44.1711988" lon="11.3667993"><ele>837.0</ele><time>2026-04-11T07:31:59.495Z</time></trkpt><trkpt lat="44.1712067" lon="11.3668898"><ele>836.0</ele><time>2026-04-11T07:32:00.494Z</time></trkpt><trkpt lat="44.1712168" lon="11.3670517"><ele>835.0</ele><time>2026-04-11T07:32:02.495Z</time></trkpt><trkpt lat="44.1712045" lon="11.3671978"><ele>834.0</ele><time>2026-04-11T07:32:04.495Z</time></trkpt><trkpt lat="44.1711905" lon="11.3672935"><ele>834.0</ele><time>2026-04-11T07:32:06.494Z</time></trkpt><trkpt lat="44.1712247" lon="11.367379"><ele>834.0</ele><time>2026-04-11T07:32:08.494Z</time></trkpt><trkpt lat="44.1712758" lon="11.367443"><ele>834.0</ele><time>2026-04-11T07:32:10.493Z</time></trkpt><trkpt lat="44.1713385" lon="11.3675143"><ele>834.0</ele><time>2026-04-11T07:32:13.494Z</time></trkpt><trkpt lat="44.171419" lon="11.3675688"><ele>834.0</ele><time>2026-04-11T07:32:16.492Z</time></trkpt><trkpt lat="44.1714778" lon="11.3676308"><ele>834.0</ele><time>2026-04-11T07:32:18.491Z</time></trkpt><trkpt lat="44.1715312" lon="11.3676775"><ele>834.0</ele><time>2026-04-11T07:32:24.494Z</time></trkpt><trkpt lat="44.1716033" lon="11.3676992"><ele>834.0</ele><time>2026-04-11T07:32:56.494Z</time></trkpt><trkpt lat="44.171672" lon="11.3677142"><ele>834.0</ele><time>2026-04-11T07:32:58.493Z</time></trkpt><trkpt lat="44.1717385" lon="11.3677218"><ele>834.0</ele><time>2026-04-11T07:33:00.493Z</time></trkpt><trkpt lat="44.1718165" lon="11.3676968"><ele>834.0</ele><time>2026-04-11T07:33:02.493Z</time></trkpt><trkpt lat="44.1718843" lon="11.3677122"><ele>834.0</ele><time>2026-04-11T07:33:04.494Z</time></trkpt><trkpt lat="44.1719482" lon="11.3677528"><ele>834.0</ele><time>2026-04-11T07:33:06.49Z</time></trkpt><trkpt lat="44.1720178" lon="11.367841"><ele>834.0</ele><time>2026-04-11T07:33:08.49Z</time></trkpt><trkpt lat="44.1720912" lon="11.3679517"><ele>832.0</ele><time>2026-04-11T07:33:10.493Z</time></trkpt><trkpt lat="44.1721612" lon="11.3680417"><ele>830.0</ele><time>2026-04-11T07:33:12.492Z</time></trkpt><trkpt lat="44.1722455" lon="11.3680698"><ele>828.0</ele><time>2026-04-11T07:33:14.493Z</time></trkpt><trkpt lat="44.1723112" lon="11.3680643"><ele>826.0</ele><time>2026-04-11T07:33:16.492Z</time></trkpt><trkpt lat="44.1723853" lon="11.3680022"><ele>824.0</ele><time>2026-04-11T07:33:18.493Z</time></trkpt><trkpt lat="44.1724715" lon="11.367967"><ele>822.0</ele><time>2026-04-11T07:33:20.492Z</time></trkpt><trkpt lat="44.1725363" lon="11.3679568"><ele>819.5</ele><time>2026-04-11T07:33:22.493Z</time></trkpt><trkpt lat="44.1725868" lon="11.368028"><ele>817.0</ele><time>2026-04-11T07:33:25.493Z</time></trkpt><trkpt lat="44.1726423" lon="11.3681045"><ele>814.5</ele><time>2026-04-11T07:33:27.492Z</time></trkpt><trkpt lat="44.1727062" lon="11.3681727"><ele>812.0</ele><time>2026-04-11T07:33:29.492Z</time></trkpt><trkpt lat="44.1727935" lon="11.3682298"><ele>809.5</ele><time>2026-04-11T07:33:32.49Z</time></trkpt><trkpt lat="44.1728533" lon="11.3683065"><ele>807.0</ele><time>2026-04-11T07:33:34.491Z</time></trkpt><trkpt lat="44.1728925" lon="11.3684005"><ele>807.0</ele><time>2026-04-11T07:33:36.491Z</time></trkpt><trkpt lat="44.1729057" lon="11.3685233"><ele>807.0</ele><time>2026-04-11T07:33:38.492Z</time></trkpt><trkpt lat="44.1729818" lon="11.3686573"><ele>807.0</ele><time>2026-04-11T07:33:40.493Z</time></trkpt><trkpt lat="44.1730453" lon="11.368704"><ele>807.0</ele><time>2026-04-11T07:33:42.492Z</time></trkpt><trkpt lat="44.1731082" lon="11.3687422"><ele>807.0</ele><time>2026-04-11T07:33:44.492Z</time></trkpt><trkpt lat="44.173164" lon="11.3688175"><ele>807.0</ele><time>2026-04-11T07:33:46.491Z</time></trkpt><trkpt lat="44.1732155" lon="11.3689227"><ele>802.8</ele><time>2026-04-11T07:33:48.493Z</time></trkpt><trkpt lat="44.1732982" lon="11.3690115"><ele>798.6</ele><time>2026-04-11T07:33:50.493Z</time></trkpt><trkpt lat="44.1733427" lon="11.3690803"><ele>794.4</ele><time>2026-04-11T07:33:51.493Z</time></trkpt><trkpt lat="44.1734293" lon="11.36919"><ele>790.1999999999999</ele><time>2026-04-11T07:33:53.493Z</time></trkpt><trkpt lat="44.1734898" lon="11.3693078"><ele>786.0</ele><time>2026-04-11T07:33:55.489Z</time></trkpt><trkpt lat="44.1735362" lon="11.3693753"><ele>786.0</ele><time>2026-04-11T07:34:00.492Z</time></trkpt><trkpt lat="44.1736003" lon="11.3694705"><ele>786.0</ele><time>2026-04-11T07:34:31.494Z</time></trkpt><trkpt lat="44.1735442" lon="11.3695505"><ele>786.0</ele><time>2026-04-11T07:34:34.493Z</time></trkpt><trkpt lat="44.1734792" lon="11.3695775"><ele>786.0</ele><time>2026-04-11T07:34:38.494Z</time></trkpt><trkpt lat="44.1734138" lon="11.3695917"><ele>786.0</ele><time>2026-04-11T07:34:40.493Z</time></trkpt><trkpt lat="44.1733197" lon="11.3695682"><ele>786.0</ele><time>2026-04-11T07:34:42.494Z</time></trkpt><trkpt lat="44.1732237" lon="11.3695535"><ele>785.6666666666666</ele><time>2026-04-11T07:34:44.49Z</time></trkpt><trkpt lat="44.1731607" lon="11.3695545"><ele>785.3333333333333</ele><time>2026-04-11T07:34:45.49Z</time></trkpt><trkpt lat="44.173086" lon="11.3695543"><ele>785.0</ele><time>2026-04-11T07:34:46.49Z</time></trkpt><trkpt lat="44.1730062" lon="11.3695518"><ele>784.6666666666666</ele><time>2026-04-11T07:34:47.491Z</time></trkpt><trkpt lat="44.1729073" lon="11.3695488"><ele>784.3333333333333</ele><time>2026-04-11T07:34:48.492Z</time></trkpt><trkpt lat="44.1727932" lon="11.3695415"><ele>784.0</ele><time>2026-04-11T07:34:49.494Z</time></trkpt><trkpt lat="44.1726592" lon="11.3695285"><ele>784.0</ele><time>2026-04-11T07:34:50.494Z</time></trkpt><trkpt lat="44.1725415" lon="11.3695165"><ele>784.0</ele><time>2026-04-11T07:34:51.493Z</time></trkpt><trkpt lat="44.1724388" lon="11.3695193"><ele>784.0</ele><time>2026-04-11T07:34:52.493Z</time></trkpt><trkpt lat="44.1723457" lon="11.3695233"><ele>784.0</ele><time>2026-04-11T07:34:53.494Z</time></trkpt><trkpt lat="44.1722757" lon="11.3695052"><ele>784.0</ele><time>2026-04-11T07:34:54.495Z</time></trkpt><trkpt lat="44.1721962" lon="11.3694055"><ele>781.9999999999999</ele><time>2026-04-11T07:34:56.494Z</time></trkpt><trkpt lat="44.1721232" lon="11.369282"><ele>780.0</ele><time>2026-04-11T07:34:58.492Z</time></trkpt><trkpt lat="44.1720633" lon="11.3692503"><ele>778.0</ele><time>2026-04-11T07:34:59.494Z</time></trkpt><trkpt lat="44.1719948" lon="11.3692373"><ele>776.0</ele><time>2026-04-11T07:35:00.493Z</time></trkpt><trkpt lat="44.1719195" lon="11.3692363"><ele>773.9999999999999</ele><time>2026-04-11T07:35:01.492Z</time></trkpt><trkpt lat="44.171838" lon="11.3692373"><ele>772.0</ele><time>2026-04-11T07:35:02.493Z</time></trkpt><trkpt lat="44.1717478" lon="11.369231"><ele>771.9999999999999</ele><time>2026-04-11T07:35:03.492Z</time></trkpt><trkpt lat="44.1716618" lon="11.3692137"><ele>772.0</ele><time>2026-04-11T07:35:04.493Z</time></trkpt><trkpt lat="44.1715847" lon="11.3691893"><ele>772.0</ele><time>2026-04-11T07:35:05.493Z</time></trkpt><trkpt lat="44.1715012" lon="11.3691938"><ele>772.0</ele><time>2026-04-11T07:35:06.495Z</time></trkpt><trkpt lat="44.1714145" lon="11.3692162"><ele>771.9999999999999</ele><time>2026-04-11T07:35:07.493Z</time></trkpt><trkpt lat="44.1713303" lon="11.3692233"><ele>772.0</ele><time>2026-04-11T07:35:08.49Z</time></trkpt><trkpt lat="44.1712452" lon="11.3692005"><ele>769.6</ele><time>2026-04-11T07:35:09.49Z</time></trkpt><trkpt lat="44.1711585" lon="11.3691513"><ele>767.2</ele><time>2026-04-11T07:35:10.489Z</time></trkpt><trkpt lat="44.1710768" lon="11.369085"><ele>764.8</ele><time>2026-04-11T07:35:11.49Z</time></trkpt><trkpt lat="44.1709915" lon="11.3690282"><ele>762.4</ele><time>2026-04-11T07:35:12.491Z</time></trkpt><trkpt lat="44.1708998" lon="11.3689937"><ele>760.0</ele><time>2026-04-11T07:35:13.492Z</time></trkpt><trkpt lat="44.1708063" lon="11.3689687"><ele>760.0</ele><time>2026-04-11T07:35:14.491Z</time></trkpt><trkpt lat="44.1707042" lon="11.368927"><ele>760.0</ele><time>2026-04-11T07:35:15.492Z</time></trkpt><trkpt lat="44.1706198" lon="11.3688805"><ele>760.0</ele><time>2026-04-11T07:35:16.49Z</time></trkpt><trkpt lat="44.1705447" lon="11.3688638"><ele>760.0</ele><time>2026-04-11T07:35:17.492Z</time></trkpt><trkpt lat="44.1704642" lon="11.3688828"><ele>760.0</ele><time>2026-04-11T07:35:18.491Z</time></trkpt><trkpt lat="44.1703798" lon="11.3689152"><ele>760.0</ele><time>2026-04-11T07:35:19.491Z</time></trkpt><trkpt lat="44.1703165" lon="11.3689613"><ele>759.8333333333334</ele><time>2026-04-11T07:35:20.493Z</time></trkpt><trkpt lat="44.1702665" lon="11.3690225"><ele>759.6666666666667</ele><time>2026-04-11T07:35:21.492Z</time></trkpt><trkpt lat="44.1702113" lon="11.3690662"><ele>759.5</ele><time>2026-04-11T07:35:22.492Z</time></trkpt><trkpt lat="44.1701477" lon="11.3690772"><ele>759.3333333333334</ele><time>2026-04-11T07:35:23.494Z</time></trkpt><trkpt lat="44.1700805" lon="11.3690632"><ele>759.1666666666666</ele><time>2026-04-11T07:35:24.492Z</time></trkpt><trkpt lat="44.1700107" lon="11.369049"><ele>759.0</ele><time>2026-04-11T07:35:25.492Z</time></trkpt><trkpt lat="44.1698942" lon="11.369088"><ele>760.0</ele><time>2026-04-11T07:35:27.491Z</time></trkpt><trkpt lat="44.1697738" lon="11.3690722"><ele>761.0</ele><time>2026-04-11T07:35:29.493Z</time></trkpt><trkpt lat="44.1696945" lon="11.3690262"><ele>762.0</ele><time>2026-04-11T07:35:30.494Z</time></trkpt><trkpt lat="44.1695967" lon="11.368979"><ele>763.0</ele><time>2026-04-11T07:35:31.491Z</time></trkpt><trkpt lat="44.1694855" lon="11.3689407"><ele>764.0</ele><time>2026-04-11T07:35:32.492Z</time></trkpt><trkpt lat="44.1693677" lon="11.3689075"><ele>764.0</ele><time>2026-04-11T07:35:33.49Z</time></trkpt><trkpt lat="44.1692462" lon="11.3688835"><ele>764.0</ele><time>2026-04-11T07:35:34.49Z</time></trkpt><trkpt lat="44.169119" lon="11.3688722"><ele>764.0</ele><time>2026-04-11T07:35:35.491Z</time></trkpt><trkpt lat="44.1689907" lon="11.3688593"><ele>764.0</ele><time>2026-04-11T07:35:36.489Z</time></trkpt><trkpt lat="44.1688648" lon="11.3688443"><ele>766.5</ele><time>2026-04-11T07:35:37.493Z</time></trkpt><trkpt lat="44.1687427" lon="11.3688493"><ele>769.0</ele><time>2026-04-11T07:35:38.493Z</time></trkpt><trkpt lat="44.168621" lon="11.3688653"><ele>771.5</ele><time>2026-04-11T07:35:39.493Z</time></trkpt><trkpt lat="44.168501" lon="11.3688887"><ele>774.0</ele><time>2026-04-11T07:35:40.493Z</time></trkpt><trkpt lat="44.1684" lon="11.3689313"><ele>774.0</ele><time>2026-04-11T07:35:41.495Z</time></trkpt><trkpt lat="44.1683163" lon="11.368997"><ele>774.0</ele><time>2026-04-11T07:35:42.493Z</time></trkpt><trkpt lat="44.1682485" lon="11.3690888"><ele>774.0</ele><time>2026-04-11T07:35:43.495Z</time></trkpt><trkpt lat="44.1682012" lon="11.3692075"><ele>774.0</ele><time>2026-04-11T07:35:44.494Z</time></trkpt><trkpt lat="44.1681705" lon="11.3693557"><ele>774.0</ele><time>2026-04-11T07:35:45.494Z</time></trkpt><trkpt lat="44.1681425" lon="11.369529"><ele>776.25</ele><time>2026-04-11T07:35:46.492Z</time></trkpt><trkpt lat="44.1681123" lon="11.3697183"><ele>778.5</ele><time>2026-04-11T07:35:47.493Z</time></trkpt><trkpt lat="44.168083" lon="11.369893"><ele>780.75</ele><time>2026-04-11T07:35:48.492Z</time></trkpt><trkpt lat="44.1680548" lon="11.3700475"><ele>783.0</ele><time>2026-04-11T07:35:49.493Z</time></trkpt><trkpt lat="44.1680148" lon="11.3701788"><ele>783.0</ele><time>2026-04-11T07:35:50.493Z</time></trkpt><trkpt lat="44.1679582" lon="11.3702882"><ele>783.0</ele><time>2026-04-11T07:35:51.494Z</time></trkpt><trkpt lat="44.16788" lon="11.3703868"><ele>783.0</ele><time>2026-04-11T07:35:52.493Z</time></trkpt><trkpt lat="44.1677863" lon="11.3704842"><ele>783.0</ele><time>2026-04-11T07:35:53.493Z</time></trkpt><trkpt lat="44.1676848" lon="11.3705897"><ele>783.0</ele><time>2026-04-11T07:35:54.493Z</time></trkpt><trkpt lat="44.1675882" lon="11.3707127"><ele>782.5</ele><time>2026-04-11T07:35:55.495Z</time></trkpt><trkpt lat="44.1675037" lon="11.3708542"><ele>782.0</ele><time>2026-04-11T07:35:56.493Z</time></trkpt><trkpt lat="44.1674325" lon="11.3710183"><ele>781.5</ele><time>2026-04-11T07:35:57.491Z</time></trkpt><trkpt lat="44.1673613" lon="11.3711965"><ele>781.0</ele><time>2026-04-11T07:35:58.49Z</time></trkpt><trkpt lat="44.1672767" lon="11.3713745"><ele>787.3333333333333</ele><time>2026-04-11T07:35:59.489Z</time></trkpt><trkpt lat="44.1671798" lon="11.3715603"><ele>793.6666666666667</ele><time>2026-04-11T07:36:00.49Z</time></trkpt><trkpt lat="44.1670933" lon="11.3717438"><ele>800.0</ele><time>2026-04-11T07:36:01.493Z</time></trkpt><trkpt lat="44.1670217" lon="11.3719113"><ele>800.0</ele><time>2026-04-11T07:36:02.493Z</time></trkpt><trkpt lat="44.1669552" lon="11.3720517"><ele>800.0</ele><time>2026-04-11T07:36:03.493Z</time></trkpt><trkpt lat="44.1668793" lon="11.372152"><ele>800.0</ele><time>2026-04-11T07:36:04.492Z</time></trkpt><trkpt lat="44.1667973" lon="11.3722148"><ele>800.0</ele><time>2026-04-11T07:36:05.493Z</time></trkpt><trkpt lat="44.1667028" lon="11.3722652"><ele>800.0</ele><time>2026-04-11T07:36:06.492Z</time></trkpt><trkpt lat="44.1665878" lon="11.372312"><ele>799.75</ele><time>2026-04-11T07:36:07.492Z</time></trkpt><trkpt lat="44.1664575" lon="11.3723595"><ele>799.5</ele><time>2026-04-11T07:36:08.493Z</time></trkpt><trkpt lat="44.1663142" lon="11.3724122"><ele>799.25</ele><time>2026-04-11T07:36:09.493Z</time></trkpt><trkpt lat="44.1661718" lon="11.3724665"><ele>799.0</ele><time>2026-04-11T07:36:10.493Z</time></trkpt><trkpt lat="44.1660372" lon="11.3725022"><ele>799.0</ele><time>2026-04-11T07:36:11.493Z</time></trkpt><trkpt lat="44.1659065" lon="11.3725175"><ele>799.0</ele><time>2026-04-11T07:36:12.494Z</time></trkpt><trkpt lat="44.1657743" lon="11.3725155"><ele>799.0</ele><time>2026-04-11T07:36:13.493Z</time></trkpt><trkpt lat="44.1656423" lon="11.3724972"><ele>799.0</ele><time>2026-04-11T07:36:14.494Z</time></trkpt><trkpt lat="44.1655153" lon="11.3724627"><ele>799.5</ele><time>2026-04-11T07:36:15.495Z</time></trkpt><trkpt lat="44.1654005" lon="11.3724127"><ele>800.0</ele><time>2026-04-11T07:36:16.493Z</time></trkpt><trkpt lat="44.1652827" lon="11.3723677"><ele>800.5</ele><time>2026-04-11T07:36:17.493Z</time></trkpt><trkpt lat="44.1651567" lon="11.3723502"><ele>801.0</ele><time>2026-04-11T07:36:18.495Z</time></trkpt><trkpt lat="44.1650318" lon="11.3723718"><ele>801.0</ele><time>2026-04-11T07:36:19.492Z</time></trkpt><trkpt lat="44.1649033" lon="11.3724335"><ele>801.0</ele><time>2026-04-11T07:36:20.493Z</time></trkpt><trkpt lat="44.1647707" lon="11.3725245"><ele>801.0</ele><time>2026-04-11T07:36:21.493Z</time></trkpt><trkpt lat="44.1646393" lon="11.3726373"><ele>801.0</ele><time>2026-04-11T07:36:22.49Z</time></trkpt><trkpt lat="44.1645252" lon="11.3727442"><ele>803.4</ele><time>2026-04-11T07:36:23.491Z</time></trkpt><trkpt lat="44.1644275" lon="11.372833"><ele>805.8</ele><time>2026-04-11T07:36:24.491Z</time></trkpt><trkpt lat="44.164345" lon="11.3728872"><ele>808.1999999999999</ele><time>2026-04-11T07:36:25.493Z</time></trkpt><trkpt lat="44.1642505" lon="11.3729058"><ele>810.5999999999999</ele><time>2026-04-11T07:36:26.494Z</time></trkpt><trkpt lat="44.1641392" lon="11.3728977"><ele>813.0</ele><time>2026-04-11T07:36:27.493Z</time></trkpt><trkpt lat="44.1640142" lon="11.3728947"><ele>814.25</ele><time>2026-04-11T07:36:28.494Z</time></trkpt><trkpt lat="44.1638772" lon="11.3729175"><ele>815.5</ele><time>2026-04-11T07:36:29.494Z</time></trkpt><trkpt lat="44.1637325" lon="11.3729632"><ele>816.75</ele><time>2026-04-11T07:36:30.493Z</time></trkpt><trkpt lat="44.1635847" lon="11.3730333"><ele>818.0</ele><time>2026-04-11T07:36:31.494Z</time></trkpt><trkpt lat="44.1634342" lon="11.3731243"><ele>818.0</ele><time>2026-04-11T07:36:32.493Z</time></trkpt><trkpt lat="44.1632865" lon="11.3732323"><ele>818.0</ele><time>2026-04-11T07:36:33.493Z</time></trkpt><trkpt lat="44.163144" lon="11.3733505"><ele>818.0</ele><time>2026-04-11T07:36:34.493Z</time></trkpt><trkpt lat="44.1629988" lon="11.3734742"><ele>821.6666666666667</ele><time>2026-04-11T07:36:35.493Z</time></trkpt><trkpt lat="44.1628702" lon="11.3736023"><ele>825.3333333333333</ele><time>2026-04-11T07:36:36.492Z</time></trkpt><trkpt lat="44.1627545" lon="11.3737395"><ele>829.0</ele><time>2026-04-11T07:36:37.492Z</time></trkpt><trkpt lat="44.1626402" lon="11.3738985"><ele>829.0</ele><time>2026-04-11T07:36:38.493Z</time></trkpt><trkpt lat="44.1625332" lon="11.374059"><ele>829.0</ele><time>2026-04-11T07:36:39.493Z</time></trkpt><trkpt lat="44.1624425" lon="11.3741977"><ele>829.0</ele><time>2026-04-11T07:36:40.493Z</time></trkpt><trkpt lat="44.1623548" lon="11.3743223"><ele>829.0</ele><time>2026-04-11T07:36:41.493Z</time></trkpt><trkpt lat="44.1622597" lon="11.3744498"><ele>828.6666666666666</ele><time>2026-04-11T07:36:42.494Z</time></trkpt><trkpt lat="44.1621572" lon="11.3745967"><ele>828.3333333333333</ele><time>2026-04-11T07:36:43.494Z</time></trkpt><trkpt lat="44.162055" lon="11.3747597"><ele>828.0</ele><time>2026-04-11T07:36:44.494Z</time></trkpt><trkpt lat="44.1619585" lon="11.3749408"><ele>828.0</ele><time>2026-04-11T07:36:45.494Z</time></trkpt><trkpt lat="44.1618732" lon="11.3751123"><ele>828.0</ele><time>2026-04-11T07:36:46.493Z</time></trkpt><trkpt lat="44.1617885" lon="11.3752728"><ele>828.0</ele><time>2026-04-11T07:36:47.491Z</time></trkpt><trkpt lat="44.1617055" lon="11.3754355"><ele>828.0</ele><time>2026-04-11T07:36:48.491Z</time></trkpt><trkpt lat="44.1616292" lon="11.3756032"><ele>827.0</ele><time>2026-04-11T07:36:49.491Z</time></trkpt><trkpt lat="44.1615637" lon="11.3757597"><ele>826.0</ele><time>2026-04-11T07:36:50.494Z</time></trkpt><trkpt lat="44.1614972" lon="11.3759075"><ele>825.0</ele><time>2026-04-11T07:36:51.493Z</time></trkpt><trkpt lat="44.1614165" lon="11.3760547"><ele>824.0</ele><time>2026-04-11T07:36:52.494Z</time></trkpt><trkpt lat="44.16132" lon="11.3761977"><ele>824.0</ele><time>2026-04-11T07:36:53.494Z</time></trkpt><trkpt lat="44.1612145" lon="11.3763315"><ele>824.0</ele><time>2026-04-11T07:36:54.494Z</time></trkpt><trkpt lat="44.1611023" lon="11.3764463"><ele>824.0</ele><time>2026-04-11T07:36:55.495Z</time></trkpt><trkpt lat="44.16098" lon="11.3765588"><ele>824.0</ele><time>2026-04-11T07:36:56.495Z</time></trkpt><trkpt lat="44.1608497" lon="11.376678"><ele>820.3333333333334</ele><time>2026-04-11T07:36:57.493Z</time></trkpt><trkpt lat="44.1607197" lon="11.3768117"><ele>816.6666666666667</ele><time>2026-04-11T07:36:58.493Z</time></trkpt><trkpt lat="44.160601" lon="11.3769605"><ele>813.0</ele><time>2026-04-11T07:36:59.494Z</time></trkpt><trkpt lat="44.1604905" lon="11.3771197"><ele>812.6666666666667</ele><time>2026-04-11T07:37:00.494Z</time></trkpt><trkpt lat="44.1603905" lon="11.3772928"><ele>812.3333333333334</ele><time>2026-04-11T07:37:01.495Z</time></trkpt><trkpt lat="44.1603082" lon="11.3774832"><ele>812.0</ele><time>2026-04-11T07:37:02.494Z</time></trkpt><trkpt lat="44.1602467" lon="11.3776843"><ele>812.0</ele><time>2026-04-11T07:37:03.493Z</time></trkpt><trkpt lat="44.1602052" lon="11.377887"><ele>812.0</ele><time>2026-04-11T07:37:04.493Z</time></trkpt><trkpt lat="44.1601755" lon="11.3780968"><ele>812.0</ele><time>2026-04-11T07:37:05.494Z</time></trkpt><trkpt lat="44.1601448" lon="11.3783122"><ele>813.0</ele><time>2026-04-11T07:37:06.496Z</time></trkpt><trkpt lat="44.16011" lon="11.3785215"><ele>814.0</ele><time>2026-04-11T07:37:07.493Z</time></trkpt><trkpt lat="44.160082" lon="11.378722"><ele>815.0</ele><time>2026-04-11T07:37:08.495Z</time></trkpt><trkpt lat="44.160068" lon="11.3789138"><ele>816.0</ele><time>2026-04-11T07:37:09.493Z</time></trkpt><trkpt lat="44.1600777" lon="11.3791108"><ele>817.0</ele><time>2026-04-11T07:37:10.493Z</time></trkpt><trkpt lat="44.160108" lon="11.3793175"><ele>818.0</ele><time>2026-04-11T07:37:11.493Z</time></trkpt><trkpt lat="44.1601463" lon="11.3795332"><ele>819.0</ele><time>2026-04-11T07:37:12.492Z</time></trkpt><trkpt lat="44.1601833" lon="11.3797548"><ele>819.5</ele><time>2026-04-11T07:37:13.493Z</time></trkpt><trkpt lat="44.1602085" lon="11.3799682"><ele>820.0</ele><time>2026-04-11T07:37:14.495Z</time></trkpt><trkpt lat="44.160214" lon="11.3801668"><ele>820.5</ele><time>2026-04-11T07:37:15.495Z</time></trkpt><trkpt lat="44.1602015" lon="11.3803648"><ele>821.0</ele><time>2026-04-11T07:37:16.494Z</time></trkpt><trkpt lat="44.1601735" lon="11.3805652"><ele>822.0</ele><time>2026-04-11T07:37:17.496Z</time></trkpt><trkpt lat="44.160136" lon="11.3807542"><ele>823.0</ele><time>2026-04-11T07:37:18.494Z</time></trkpt><trkpt lat="44.1600948" lon="11.380917"><ele>824.0</ele><time>2026-04-11T07:37:19.494Z</time></trkpt><trkpt lat="44.1600495" lon="11.3810437"><ele>825.0</ele><time>2026-04-11T07:37:20.495Z</time></trkpt><trkpt lat="44.1600018" lon="11.3811238"><ele>826.0</ele><time>2026-04-11T07:37:21.494Z</time></trkpt><trkpt lat="44.1598843" lon="11.3811682"><ele>823.5</ele><time>2026-04-11T07:37:23.494Z</time></trkpt><trkpt lat="44.1597887" lon="11.3811608"><ele>821.0</ele><time>2026-04-11T07:37:24.493Z</time></trkpt><trkpt lat="44.159672" lon="11.3811417"><ele>818.5</ele><time>2026-04-11T07:37:25.492Z</time></trkpt><trkpt lat="44.1595515" lon="11.3811325"><ele>816.0</ele><time>2026-04-11T07:37:26.495Z</time></trkpt><trkpt lat="44.1594325" lon="11.3811467"><ele>816.0</ele><time>2026-04-11T07:37:27.493Z</time></trkpt><trkpt lat="44.1593118" lon="11.3811668"><ele>816.0</ele><time>2026-04-11T07:37:28.495Z</time></trkpt><trkpt lat="44.1591902" lon="11.3811787"><ele>816.0</ele><time>2026-04-11T07:37:29.493Z</time></trkpt><trkpt lat="44.1590723" lon="11.3811665"><ele>816.0</ele><time>2026-04-11T07:37:30.493Z</time></trkpt><trkpt lat="44.1589527" lon="11.3811235"><ele>812.0</ele><time>2026-04-11T07:37:31.494Z</time></trkpt><trkpt lat="44.1588307" lon="11.3810613"><ele>808.0</ele><time>2026-04-11T07:37:32.495Z</time></trkpt><trkpt lat="44.158709" lon="11.3809957"><ele>804.0</ele><time>2026-04-11T07:37:33.494Z</time></trkpt><trkpt lat="44.158585" lon="11.3809397"><ele>800.0</ele><time>2026-04-11T07:37:34.494Z</time></trkpt><trkpt lat="44.1584618" lon="11.3808998"><ele>800.0</ele><time>2026-04-11T07:37:35.49Z</time></trkpt><trkpt lat="44.1583407" lon="11.3808773"><ele>800.0</ele><time>2026-04-11T07:37:36.491Z</time></trkpt><trkpt lat="44.1582192" lon="11.3808727"><ele>800.0</ele><time>2026-04-11T07:37:37.491Z</time></trkpt><trkpt lat="44.158099" lon="11.3808798"><ele>800.0</ele><time>2026-04-11T07:37:38.49Z</time></trkpt><trkpt lat="44.1579832" lon="11.3808953"><ele>797.25</ele><time>2026-04-11T07:37:39.492Z</time></trkpt><trkpt lat="44.1578597" lon="11.3809218"><ele>794.5</ele><time>2026-04-11T07:37:40.494Z</time></trkpt><trkpt lat="44.1577192" lon="11.3809575"><ele>791.75</ele><time>2026-04-11T07:37:41.494Z</time></trkpt><trkpt lat="44.1575793" lon="11.3809943"><ele>789.0</ele><time>2026-04-11T07:37:42.494Z</time></trkpt><trkpt lat="44.1574478" lon="11.3810267"><ele>786.0</ele><time>2026-04-11T07:37:43.494Z</time></trkpt><trkpt lat="44.1573232" lon="11.381053"><ele>783.0</ele><time>2026-04-11T07:37:44.494Z</time></trkpt><trkpt lat="44.1572023" lon="11.381068"><ele>780.0</ele><time>2026-04-11T07:37:45.493Z</time></trkpt><trkpt lat="44.1570832" lon="11.3810628"><ele>777.0</ele><time>2026-04-11T07:37:46.495Z</time></trkpt><trkpt lat="44.1569588" lon="11.3810333"><ele>777.0</ele><time>2026-04-11T07:37:47.494Z</time></trkpt><trkpt lat="44.1568247" lon="11.380986"><ele>777.0</ele><time>2026-04-11T07:37:48.494Z</time></trkpt><trkpt lat="44.1566928" lon="11.3809357"><ele>777.0</ele><time>2026-04-11T07:37:49.493Z</time></trkpt><trkpt lat="44.1565617" lon="11.3808828"><ele>777.0</ele><time>2026-04-11T07:37:50.494Z</time></trkpt><trkpt lat="44.1564315" lon="11.3808338"><ele>774.4000000000001</ele><time>2026-04-11T07:37:51.493Z</time></trkpt><trkpt lat="44.1563077" lon="11.3807937"><ele>771.8000000000001</ele><time>2026-04-11T07:37:52.493Z</time></trkpt><trkpt lat="44.1561992" lon="11.3807695"><ele>769.2</ele><time>2026-04-11T07:37:53.495Z</time></trkpt><trkpt lat="44.1561023" lon="11.380755"><ele>766.6</ele><time>2026-04-11T07:37:54.495Z</time></trkpt><trkpt lat="44.1560078" lon="11.3807465"><ele>764.0</ele><time>2026-04-11T07:37:55.492Z</time></trkpt><trkpt lat="44.1559043" lon="11.380722"><ele>764.0</ele><time>2026-04-11T07:37:56.496Z</time></trkpt><trkpt lat="44.1558013" lon="11.3806952"><ele>764.0</ele><time>2026-04-11T07:37:57.494Z</time></trkpt><trkpt lat="44.1556973" lon="11.3806903"><ele>764.0</ele><time>2026-04-11T07:37:58.495Z</time></trkpt><trkpt lat="44.1555937" lon="11.3807163"><ele>764.0</ele><time>2026-04-11T07:37:59.493Z</time></trkpt><trkpt lat="44.15549" lon="11.3807492"><ele>764.0</ele><time>2026-04-11T07:38:00.492Z</time></trkpt><trkpt lat="44.1553838" lon="11.3807667"><ele>762.2</ele><time>2026-04-11T07:38:01.491Z</time></trkpt><trkpt lat="44.1552787" lon="11.3807597"><ele>760.4000000000001</ele><time>2026-04-11T07:38:02.492Z</time></trkpt><trkpt lat="44.1551848" lon="11.3807583"><ele>758.6</ele><time>2026-04-11T07:38:03.494Z</time></trkpt><trkpt lat="44.155102" lon="11.3807877"><ele>756.8</ele><time>2026-04-11T07:38:04.495Z</time></trkpt><trkpt lat="44.1550303" lon="11.3808598"><ele>755.0</ele><time>2026-04-11T07:38:05.495Z</time></trkpt><trkpt lat="44.1549668" lon="11.3809535"><ele>755.0</ele><time>2026-04-11T07:38:06.496Z</time></trkpt><trkpt lat="44.1548927" lon="11.3810248"><ele>755.0</ele><time>2026-04-11T07:38:07.495Z</time></trkpt><trkpt lat="44.1548067" lon="11.381045"><ele>755.0</ele><time>2026-04-11T07:38:08.494Z</time></trkpt><trkpt lat="44.1547193" lon="11.3810113"><ele>755.0</ele><time>2026-04-11T07:38:09.493Z</time></trkpt><trkpt lat="44.1546323" lon="11.3809403"><ele>755.0</ele><time>2026-04-11T07:38:10.493Z</time></trkpt><trkpt lat="44.1545477" lon="11.3808527"><ele>753.4</ele><time>2026-04-11T07:38:11.493Z</time></trkpt><trkpt lat="44.1544633" lon="11.3807737"><ele>751.8</ele><time>2026-04-11T07:38:12.494Z</time></trkpt><trkpt lat="44.1543672" lon="11.3807348"><ele>750.2</ele><time>2026-04-11T07:38:13.492Z</time></trkpt><trkpt lat="44.1542683" lon="11.380742"><ele>748.6</ele><time>2026-04-11T07:38:14.493Z</time></trkpt><trkpt lat="44.154171" lon="11.3807788"><ele>747.0</ele><time>2026-04-11T07:38:15.492Z</time></trkpt><trkpt lat="44.1540672" lon="11.3808327"><ele>742.5</ele><time>2026-04-11T07:38:16.492Z</time></trkpt><trkpt lat="44.1539487" lon="11.3808775"><ele>738.0</ele><time>2026-04-11T07:38:17.493Z</time></trkpt><trkpt lat="44.1538238" lon="11.3809002"><ele>733.5</ele><time>2026-04-11T07:38:18.493Z</time></trkpt><trkpt lat="44.1537023" lon="11.3809152"><ele>729.0</ele><time>2026-04-11T07:38:19.493Z</time></trkpt><trkpt lat="44.1535865" lon="11.3809508"><ele>729.0</ele><time>2026-04-11T07:38:20.492Z</time></trkpt><trkpt lat="44.1534812" lon="11.381009"><ele>729.0</ele><time>2026-04-11T07:38:21.492Z</time></trkpt><trkpt lat="44.1533852" lon="11.3810875"><ele>729.0</ele><time>2026-04-11T07:38:22.493Z</time></trkpt><trkpt lat="44.1533047" lon="11.3811922"><ele>729.0</ele><time>2026-04-11T07:38:23.492Z</time></trkpt><trkpt lat="44.153242" lon="11.3813237"><ele>729.0</ele><time>2026-04-11T07:38:24.492Z</time></trkpt><trkpt lat="44.1531828" lon="11.381465"><ele>727.0</ele><time>2026-04-11T07:38:25.488Z</time></trkpt><trkpt lat="44.1531245" lon="11.3816018"><ele>725.0</ele><time>2026-04-11T07:38:26.489Z</time></trkpt><trkpt lat="44.1530603" lon="11.3817247"><ele>723.0</ele><time>2026-04-11T07:38:27.489Z</time></trkpt><trkpt lat="44.152995" lon="11.381835"><ele>721.0</ele><time>2026-04-11T07:38:28.491Z</time></trkpt><trkpt lat="44.152916" lon="11.3819227"><ele>719.0</ele><time>2026-04-11T07:38:29.492Z</time></trkpt><trkpt lat="44.152825" lon="11.3819862"><ele>719.0</ele><time>2026-04-11T07:38:30.491Z</time></trkpt><trkpt lat="44.1527212" lon="11.3820177"><ele>719.0</ele><time>2026-04-11T07:38:31.492Z</time></trkpt><trkpt lat="44.1526162" lon="11.3820222"><ele>719.0</ele><time>2026-04-11T07:38:32.492Z</time></trkpt><trkpt lat="44.1525277" lon="11.3820242"><ele>719.0</ele><time>2026-04-11T07:38:33.492Z</time></trkpt><trkpt lat="44.1524542" lon="11.38204"><ele>719.0</ele><time>2026-04-11T07:38:34.493Z</time></trkpt><trkpt lat="44.1523547" lon="11.382099"><ele>717.8000000000001</ele><time>2026-04-11T07:38:36.494Z</time></trkpt><trkpt lat="44.1522828" lon="11.3822455"><ele>716.6</ele><time>2026-04-11T07:38:38.493Z</time></trkpt><trkpt lat="44.1522567" lon="11.3823643"><ele>715.4</ele><time>2026-04-11T07:38:39.492Z</time></trkpt><trkpt lat="44.1522287" lon="11.3825023"><ele>714.2</ele><time>2026-04-11T07:38:40.494Z</time></trkpt><trkpt lat="44.1521985" lon="11.3826497"><ele>713.0</ele><time>2026-04-11T07:38:41.492Z</time></trkpt><trkpt lat="44.1521593" lon="11.3827948"><ele>713.0</ele><time>2026-04-11T07:38:42.493Z</time></trkpt><trkpt lat="44.1521" lon="11.3829282"><ele>713.0</ele><time>2026-04-11T07:38:43.492Z</time></trkpt><trkpt lat="44.1520242" lon="11.3830475"><ele>713.0</ele><time>2026-04-11T07:38:44.493Z</time></trkpt><trkpt lat="44.1519353" lon="11.3831577"><ele>713.0</ele><time>2026-04-11T07:38:45.493Z</time></trkpt><trkpt lat="44.1518417" lon="11.3832662"><ele>715.25</ele><time>2026-04-11T07:38:46.494Z</time></trkpt><trkpt lat="44.1517517" lon="11.3833867"><ele>717.5</ele><time>2026-04-11T07:38:47.493Z</time></trkpt><trkpt lat="44.1516818" lon="11.3835308"><ele>719.75</ele><time>2026-04-11T07:38:48.491Z</time></trkpt><trkpt lat="44.151634" lon="11.383694"><ele>722.0</ele><time>2026-04-11T07:38:49.49Z</time></trkpt><trkpt lat="44.1516048" lon="11.3838547"><ele>721.6</ele><time>2026-04-11T07:38:50.492Z</time></trkpt><trkpt lat="44.1515807" lon="11.3840005"><ele>721.2</ele><time>2026-04-11T07:38:51.492Z</time></trkpt><trkpt lat="44.1515572" lon="11.3841307"><ele>720.8</ele><time>2026-04-11T07:38:52.494Z</time></trkpt><trkpt lat="44.1515282" lon="11.384241"><ele>720.4</ele><time>2026-04-11T07:38:53.496Z</time></trkpt><trkpt lat="44.1514933" lon="11.3843318"><ele>720.0</ele><time>2026-04-11T07:38:54.495Z</time></trkpt><trkpt lat="44.1514203" lon="11.3844185"><ele>720.0</ele><time>2026-04-11T07:38:56.496Z</time></trkpt><trkpt lat="44.1513702" lon="11.3843625"><ele>720.0</ele><time>2026-04-11T07:38:59.495Z</time></trkpt><trkpt lat="44.1512985" lon="11.3843352"><ele>720.0</ele><time>2026-04-11T07:39:01.493Z</time></trkpt><trkpt lat="44.1512077" lon="11.3843052"><ele>720.0</ele><time>2026-04-11T07:39:04.494Z</time></trkpt><trkpt lat="44.1511452" lon="11.3842517"><ele>720.0</ele><time>2026-04-11T07:39:06.493Z</time></trkpt><trkpt lat="44.1510775" lon="11.3841987"><ele>720.0</ele><time>2026-04-11T07:39:08.494Z</time></trkpt><trkpt lat="44.1509795" lon="11.3841258"><ele>720.0</ele><time>2026-04-11T07:39:10.493Z</time></trkpt><trkpt lat="44.1509198" lon="11.3840978"><ele>720.0</ele><time>2026-04-11T07:39:11.494Z</time></trkpt><trkpt lat="44.1508622" lon="11.384053"><ele>720.0</ele><time>2026-04-11T07:39:12.494Z</time></trkpt><trkpt lat="44.150806" lon="11.3839923"><ele>720.0</ele><time>2026-04-11T07:39:13.491Z</time></trkpt><trkpt lat="44.1507522" lon="11.3839443"><ele>720.0</ele><time>2026-04-11T07:39:14.492Z</time></trkpt><trkpt lat="44.150697" lon="11.3839012"><ele>720.0</ele><time>2026-04-11T07:39:15.492Z</time></trkpt><trkpt lat="44.1505777" lon="11.3838725"><ele>720.0</ele><time>2026-04-11T07:39:17.493Z</time></trkpt><trkpt lat="44.1505105" lon="11.3838847"><ele>718.6</ele><time>2026-04-11T07:39:18.492Z</time></trkpt><trkpt lat="44.1503872" lon="11.3839198"><ele>717.2</ele><time>2026-04-11T07:39:20.494Z</time></trkpt><trkpt lat="44.1502768" lon="11.3839442"><ele>715.8</ele><time>2026-04-11T07:39:22.495Z</time></trkpt><trkpt lat="44.1501533" lon="11.3839235"><ele>714.4</ele><time>2026-04-11T07:39:24.495Z</time></trkpt><trkpt lat="44.1500745" lon="11.3838973"><ele>713.0</ele><time>2026-04-11T07:39:25.494Z</time></trkpt><trkpt lat="44.1500037" lon="11.3838682"><ele>713.0</ele><time>2026-04-11T07:39:26.494Z</time></trkpt><trkpt lat="44.1499377" lon="11.3838515"><ele>713.0</ele><time>2026-04-11T07:39:27.494Z</time></trkpt><trkpt lat="44.149824" lon="11.383818"><ele>713.0</ele><time>2026-04-11T07:39:29.495Z</time></trkpt><trkpt lat="44.149748" lon="11.383786"><ele>713.0</ele><time>2026-04-11T07:39:31.493Z</time></trkpt><trkpt lat="44.149665" lon="11.3837537"><ele>713.0</ele><time>2026-04-11T07:39:37.492Z</time></trkpt><trkpt lat="44.1495793" lon="11.3837157"><ele>713.0</ele><time>2026-04-11T07:39:39.491Z</time></trkpt><trkpt lat="44.149475" lon="11.383657"><ele>707.25</ele><time>2026-04-11T07:39:41.493Z</time></trkpt><trkpt lat="44.1493878" lon="11.3835652"><ele>701.5</ele><time>2026-04-11T07:39:43.494Z</time></trkpt><trkpt lat="44.1493387" lon="11.3834295"><ele>695.75</ele><time>2026-04-11T07:39:45.494Z</time></trkpt><trkpt lat="44.149314" lon="11.3832813"><ele>690.0</ele><time>2026-04-11T07:39:47.493Z</time></trkpt><trkpt lat="44.149263" lon="11.3831102"><ele>689.5</ele><time>2026-04-11T07:39:49.495Z</time></trkpt><trkpt lat="44.1492388" lon="11.383005"><ele>689.0</ele><time>2026-04-11T07:39:50.495Z</time></trkpt><trkpt lat="44.1492213" lon="11.3828973"><ele>688.5</ele><time>2026-04-11T07:39:51.494Z</time></trkpt><trkpt lat="44.1492142" lon="11.3828032"><ele>688.0</ele><time>2026-04-11T07:39:52.494Z</time></trkpt><trkpt lat="44.1491963" lon="11.382718"><ele>687.5</ele><time>2026-04-11T07:39:53.494Z</time></trkpt><trkpt lat="44.1491537" lon="11.3825817"><ele>687.0</ele><time>2026-04-11T07:39:55.493Z</time></trkpt><trkpt lat="44.1490943" lon="11.3824427"><ele>687.0</ele><time>2026-04-11T07:39:57.494Z</time></trkpt><trkpt lat="44.1490478" lon="11.3823452"><ele>687.0</ele><time>2026-04-11T07:39:58.492Z</time></trkpt><trkpt lat="44.1489957" lon="11.3822555"><ele>687.0</ele><time>2026-04-11T07:39:59.493Z</time></trkpt><trkpt lat="44.1489443" lon="11.382177"><ele>687.0</ele><time>2026-04-11T07:40:00.492Z</time></trkpt><trkpt lat="44.1488917" lon="11.3821093"><ele>687.0</ele><time>2026-04-11T07:40:01.492Z</time></trkpt><trkpt lat="44.1488268" lon="11.3820447"><ele>687.0</ele><time>2026-04-11T07:40:02.492Z</time></trkpt><trkpt lat="44.148762" lon="11.3819872"><ele>684.4285714285714</ele><time>2026-04-11T07:40:03.491Z</time></trkpt><trkpt lat="44.1487015" lon="11.3819247"><ele>681.8571428571428</ele><time>2026-04-11T07:40:04.493Z</time></trkpt><trkpt lat="44.1486455" lon="11.3818608"><ele>679.2857142857142</ele><time>2026-04-11T07:40:05.493Z</time></trkpt><trkpt lat="44.1485943" lon="11.3817963"><ele>676.7142857142858</ele><time>2026-04-11T07:40:06.494Z</time></trkpt><trkpt lat="44.1485412" lon="11.381731"><ele>674.1428571428571</ele><time>2026-04-11T07:40:07.495Z</time></trkpt><trkpt lat="44.1484885" lon="11.3816752"><ele>671.5714285714286</ele><time>2026-04-11T07:40:08.495Z</time></trkpt><trkpt lat="44.1484328" lon="11.3816335"><ele>669.0</ele><time>2026-04-11T07:40:09.494Z</time></trkpt><trkpt lat="44.1483728" lon="11.3815965"><ele>669.0</ele><time>2026-04-11T07:40:10.494Z</time></trkpt><trkpt lat="44.1482903" lon="11.3814832"><ele>669.0</ele><time>2026-04-11T07:40:12.494Z</time></trkpt><trkpt lat="44.1482452" lon="11.3813325"><ele>669.0</ele><time>2026-04-11T07:40:14.496Z</time></trkpt><trkpt lat="44.1481777" lon="11.3812145"><ele>669.0</ele><time>2026-04-11T07:40:16.495Z</time></trkpt><trkpt lat="44.1480943" lon="11.3811045"><ele>666.4000000000001</ele><time>2026-04-11T07:40:18.493Z</time></trkpt><trkpt lat="44.1480933" lon="11.3809977"><ele>663.8</ele><time>2026-04-11T07:40:20.497Z</time></trkpt><trkpt lat="44.1481567" lon="11.380898"><ele>661.2</ele><time>2026-04-11T07:40:22.494Z</time></trkpt><trkpt lat="44.1482622" lon="11.3808078"><ele>658.5999999999999</ele><time>2026-04-11T07:40:24.493Z</time></trkpt><trkpt lat="44.1483193" lon="11.3807615"><ele>656.0</ele><time>2026-04-11T07:40:25.492Z</time></trkpt><trkpt lat="44.1483942" lon="11.3806428"><ele>656.0</ele><time>2026-04-11T07:40:27.492Z</time></trkpt><trkpt lat="44.1484222" lon="11.3805633"><ele>656.0</ele><time>2026-04-11T07:40:28.49Z</time></trkpt><trkpt lat="44.1484895" lon="11.380442"><ele>656.0</ele><time>2026-04-11T07:40:30.491Z</time></trkpt><trkpt lat="44.1485828" lon="11.3803778"><ele>656.0</ele><time>2026-04-11T07:40:32.493Z</time></trkpt><trkpt lat="44.1486665" lon="11.3803453"><ele>656.0</ele><time>2026-04-11T07:40:34.493Z</time></trkpt><trkpt lat="44.1487247" lon="11.3802778"><ele>656.0</ele><time>2026-04-11T07:40:37.494Z</time></trkpt><trkpt lat="44.1486847" lon="11.3802025"><ele>654.1666666666666</ele><time>2026-04-11T07:40:39.493Z</time></trkpt><trkpt lat="44.1486292" lon="11.3801265"><ele>652.3333333333333</ele><time>2026-04-11T07:40:41.493Z</time></trkpt><trkpt lat="44.1485934" lon="11.3800111"><ele>650.5</ele><time>2026-04-11T07:40:43.492Z</time></trkpt><trkpt lat="44.1485465" lon="11.3799198"><ele>648.6666666666666</ele><time>2026-04-11T07:40:45.493Z</time></trkpt><trkpt lat="44.1484839" lon="11.379839"><ele>646.8333333333334</ele><time>2026-04-11T07:40:47.492Z</time></trkpt><trkpt lat="44.1484036" lon="11.3797388"><ele>645.0</ele><time>2026-04-11T07:40:49.492Z</time></trkpt><trkpt lat="44.1483653" lon="11.379657"><ele>644.2857142857143</ele><time>2026-04-11T07:40:50.493Z</time></trkpt><trkpt lat="44.1483266" lon="11.3795741"><ele>643.5714285714286</ele><time>2026-04-11T07:40:51.49Z</time></trkpt><trkpt lat="44.1482885" lon="11.3794948"><ele>642.8571428571429</ele><time>2026-04-11T07:40:52.491Z</time></trkpt><trkpt lat="44.148252" lon="11.3794126"><ele>642.1428571428571</ele><time>2026-04-11T07:40:53.491Z</time></trkpt><trkpt lat="44.1482081" lon="11.3793391"><ele>641.4285714285714</ele><time>2026-04-11T07:40:54.493Z</time></trkpt><trkpt lat="44.1481647" lon="11.3792602"><ele>640.7142857142857</ele><time>2026-04-11T07:40:55.492Z</time></trkpt><trkpt lat="44.1481163" lon="11.3791775"><ele>640.0</ele><time>2026-04-11T07:40:56.494Z</time></trkpt><trkpt lat="44.1480679" lon="11.3791035"><ele>636.8</ele><time>2026-04-11T07:40:57.493Z</time></trkpt><trkpt lat="44.1480192" lon="11.3790464"><ele>633.6</ele><time>2026-04-11T07:40:58.492Z</time></trkpt><trkpt lat="44.1479248" lon="11.378967"><ele>630.4</ele><time>2026-04-11T07:41:00.494Z</time></trkpt><trkpt lat="44.1478582" lon="11.3788687"><ele>627.2</ele><time>2026-04-11T07:41:02.493Z</time></trkpt><trkpt lat="44.1477728" lon="11.3787853"><ele>624.0</ele><time>2026-04-11T07:41:04.492Z</time></trkpt><trkpt lat="44.1476792" lon="11.3787525"><ele>623.1666666666666</ele><time>2026-04-11T07:41:06.491Z</time></trkpt><trkpt lat="44.1475887" lon="11.378731"><ele>622.3333333333334</ele><time>2026-04-11T07:41:08.494Z</time></trkpt><trkpt lat="44.1474978" lon="11.3786757"><ele>621.5</ele><time>2026-04-11T07:41:10.494Z</time></trkpt><trkpt lat="44.1474453" lon="11.3786272"><ele>620.6666666666667</ele><time>2026-04-11T07:41:11.493Z</time></trkpt><trkpt lat="44.1473823" lon="11.3785683"><ele>619.8333333333334</ele><time>2026-04-11T07:41:12.493Z</time></trkpt><trkpt lat="44.1473232" lon="11.3785103"><ele>619.0</ele><time>2026-04-11T07:41:13.492Z</time></trkpt><trkpt lat="44.1472238" lon="11.3784418"><ele>616.8</ele><time>2026-04-11T07:41:15.492Z</time></trkpt><trkpt lat="44.147116" lon="11.3784482"><ele>614.5999999999999</ele><time>2026-04-11T07:41:17.493Z</time></trkpt><trkpt lat="44.147006" lon="11.378493"><ele>612.4</ele><time>2026-04-11T07:41:19.491Z</time></trkpt><trkpt lat="44.1469095" lon="11.3785473"><ele>610.1999999999999</ele><time>2026-04-11T07:41:21.493Z</time></trkpt><trkpt lat="44.146807" lon="11.3785207"><ele>608.0</ele><time>2026-04-11T07:41:23.493Z</time></trkpt><trkpt lat="44.1467153" lon="11.3784575"><ele>608.0</ele><time>2026-04-11T07:41:25.493Z</time></trkpt><trkpt lat="44.1466317" lon="11.3784005"><ele>608.0</ele><time>2026-04-11T07:41:27.493Z</time></trkpt><trkpt lat="44.1465385" lon="11.3783597"><ele>608.0</ele><time>2026-04-11T07:41:29.495Z</time></trkpt><trkpt lat="44.146475" lon="11.3783517"><ele>608.0</ele><time>2026-04-11T07:41:30.495Z</time></trkpt><trkpt lat="44.146354" lon="11.3783572"><ele>608.0</ele><time>2026-04-11T07:41:32.496Z</time></trkpt><trkpt lat="44.1462718" lon="11.3783648"><ele>605.6</ele><time>2026-04-11T07:41:33.494Z</time></trkpt><trkpt lat="44.1461723" lon="11.3783663"><ele>603.1999999999999</ele><time>2026-04-11T07:41:34.495Z</time></trkpt><trkpt lat="44.1460638" lon="11.3783445"><ele>600.8</ele><time>2026-04-11T07:41:35.494Z</time></trkpt><trkpt lat="44.1459525" lon="11.3782882"><ele>598.4</ele><time>2026-04-11T07:41:36.493Z</time></trkpt><trkpt lat="44.1458508" lon="11.3782077"><ele>596.0</ele><time>2026-04-11T07:41:37.493Z</time></trkpt><trkpt lat="44.145757" lon="11.378123"><ele>594.4</ele><time>2026-04-11T07:41:38.493Z</time></trkpt><trkpt lat="44.1456655" lon="11.3780417"><ele>592.8</ele><time>2026-04-11T07:41:39.492Z</time></trkpt><trkpt lat="44.1455773" lon="11.3779663"><ele>591.1999999999999</ele><time>2026-04-11T07:41:40.491Z</time></trkpt><trkpt lat="44.1455055" lon="11.3779062"><ele>589.6</ele><time>2026-04-11T07:41:41.492Z</time></trkpt><trkpt lat="44.145413" lon="11.377881"><ele>588.0</ele><time>2026-04-11T07:41:43.492Z</time></trkpt><trkpt lat="44.1453307" lon="11.3778807"><ele>588.0</ele><time>2026-04-11T07:41:46.493Z</time></trkpt><trkpt lat="44.1452773" lon="11.37781"><ele>588.0</ele><time>2026-04-11T07:41:48.493Z</time></trkpt><trkpt lat="44.1451953" lon="11.3777313"><ele>588.0</ele><time>2026-04-11T07:41:50.494Z</time></trkpt><trkpt lat="44.145121" lon="11.3776765"><ele>588.0</ele><time>2026-04-11T07:41:52.493Z</time></trkpt><trkpt lat="44.1450293" lon="11.3776127"><ele>588.0</ele><time>2026-04-11T07:41:54.493Z</time></trkpt><trkpt lat="44.1449117" lon="11.3775918"><ele>587.8333333333334</ele><time>2026-04-11T07:41:56.492Z</time></trkpt><trkpt lat="44.144849" lon="11.3776145"><ele>587.6666666666666</ele><time>2026-04-11T07:41:57.495Z</time></trkpt><trkpt lat="44.1447763" lon="11.3776545"><ele>587.5</ele><time>2026-04-11T07:41:58.494Z</time></trkpt><trkpt lat="44.1447037" lon="11.3777"><ele>587.3333333333333</ele><time>2026-04-11T07:41:59.495Z</time></trkpt><trkpt lat="44.1446165" lon="11.3777348"><ele>587.1666666666666</ele><time>2026-04-11T07:42:00.494Z</time></trkpt><trkpt lat="44.1445253" lon="11.3777638"><ele>587.0</ele><time>2026-04-11T07:42:01.494Z</time></trkpt><trkpt lat="44.1444455" lon="11.3778093"><ele>587.0</ele><time>2026-04-11T07:42:02.492Z</time></trkpt><trkpt lat="44.1443793" lon="11.3778843"><ele>587.0</ele><time>2026-04-11T07:42:03.492Z</time></trkpt><trkpt lat="44.1443207" lon="11.3779553"><ele>587.0</ele><time>2026-04-11T07:42:04.491Z</time></trkpt><trkpt lat="44.1442535" lon="11.3780135"><ele>587.0</ele><time>2026-04-11T07:42:05.491Z</time></trkpt><trkpt lat="44.1441723" lon="11.3780565"><ele>587.0</ele><time>2026-04-11T07:42:06.49Z</time></trkpt><trkpt lat="44.144082" lon="11.3781012"><ele>587.0</ele><time>2026-04-11T07:42:07.49Z</time></trkpt><trkpt lat="44.1439852" lon="11.3781448"><ele>588.4</ele><time>2026-04-11T07:42:08.494Z</time></trkpt><trkpt lat="44.1438888" lon="11.3781778"><ele>589.8000000000001</ele><time>2026-04-11T07:42:09.492Z</time></trkpt><trkpt lat="44.143789" lon="11.3782095"><ele>591.2</ele><time>2026-04-11T07:42:10.494Z</time></trkpt><trkpt lat="44.1436992" lon="11.3782483"><ele>592.6</ele><time>2026-04-11T07:42:11.494Z</time></trkpt><trkpt lat="44.1436185" lon="11.3782862"><ele>594.0</ele><time>2026-04-11T07:42:12.493Z</time></trkpt><trkpt lat="44.1435418" lon="11.3783205"><ele>594.0</ele><time>2026-04-11T07:42:13.493Z</time></trkpt><trkpt lat="44.1434752" lon="11.3783745"><ele>594.0</ele><time>2026-04-11T07:42:14.494Z</time></trkpt><trkpt lat="44.1434192" lon="11.3784475"><ele>594.0</ele><time>2026-04-11T07:42:15.495Z</time></trkpt><trkpt lat="44.1433632" lon="11.3785198"><ele>594.0</ele><time>2026-04-11T07:42:16.493Z</time></trkpt><trkpt lat="44.1433137" lon="11.378603"><ele>594.0</ele><time>2026-04-11T07:42:17.494Z</time></trkpt><trkpt lat="44.1432745" lon="11.3786958"><ele>594.0</ele><time>2026-04-11T07:42:18.492Z</time></trkpt><trkpt lat="44.1432415" lon="11.378788"><ele>591.0</ele><time>2026-04-11T07:42:19.492Z</time></trkpt><trkpt lat="44.1432018" lon="11.378881"><ele>588.0</ele><time>2026-04-11T07:42:20.493Z</time></trkpt><trkpt lat="44.1431523" lon="11.3789662"><ele>585.0</ele><time>2026-04-11T07:42:21.493Z</time></trkpt><trkpt lat="44.1431025" lon="11.3790402"><ele>582.0</ele><time>2026-04-11T07:42:22.494Z</time></trkpt><trkpt lat="44.1430583" lon="11.379105"><ele>579.0</ele><time>2026-04-11T07:42:23.491Z</time></trkpt><trkpt lat="44.1430078" lon="11.3791645"><ele>576.0</ele><time>2026-04-11T07:42:24.492Z</time></trkpt><trkpt lat="44.142939" lon="11.3792275"><ele>573.0</ele><time>2026-04-11T07:42:25.492Z</time></trkpt><trkpt lat="44.1428645" lon="11.3792938"><ele>573.0</ele><time>2026-04-11T07:42:26.492Z</time></trkpt><trkpt lat="44.1427918" lon="11.3793685"><ele>573.0</ele><time>2026-04-11T07:42:27.491Z</time></trkpt><trkpt lat="44.1427233" lon="11.3794528"><ele>573.0</ele><time>2026-04-11T07:42:28.491Z</time></trkpt><trkpt lat="44.1426597" lon="11.3795328"><ele>573.0</ele><time>2026-04-11T07:42:29.489Z</time></trkpt><trkpt lat="44.1425982" lon="11.3796127"><ele>573.0</ele><time>2026-04-11T07:42:30.489Z</time></trkpt><trkpt lat="44.1425425" lon="11.3796993"><ele>573.0</ele><time>2026-04-11T07:42:31.488Z</time></trkpt><trkpt lat="44.1424923" lon="11.3797782"><ele>571.5714285714286</ele><time>2026-04-11T07:42:32.489Z</time></trkpt><trkpt lat="44.142461" lon="11.3798663"><ele>570.1428571428572</ele><time>2026-04-11T07:42:33.49Z</time></trkpt><trkpt lat="44.1424403" lon="11.3799728"><ele>568.7142857142858</ele><time>2026-04-11T07:42:34.49Z</time></trkpt><trkpt lat="44.142418" lon="11.3800722"><ele>567.2857142857143</ele><time>2026-04-11T07:42:35.492Z</time></trkpt><trkpt lat="44.1423897" lon="11.3801612"><ele>565.8571428571429</ele><time>2026-04-11T07:42:36.49Z</time></trkpt><trkpt lat="44.1423502" lon="11.3802428"><ele>564.4285714285714</ele><time>2026-04-11T07:42:37.49Z</time></trkpt><trkpt lat="44.1423028" lon="11.3803008"><ele>563.0</ele><time>2026-04-11T07:42:38.49Z</time></trkpt><trkpt lat="44.1422048" lon="11.3803553"><ele>558.8</ele><time>2026-04-11T07:42:40.489Z</time></trkpt><trkpt lat="44.1420723" lon="11.3803807"><ele>554.5999999999999</ele><time>2026-04-11T07:42:42.493Z</time></trkpt><trkpt lat="44.1419925" lon="11.3803715"><ele>550.4000000000001</ele><time>2026-04-11T07:42:43.492Z</time></trkpt><trkpt lat="44.1419103" lon="11.3803612"><ele>546.2</ele><time>2026-04-11T07:42:44.492Z</time></trkpt><trkpt lat="44.1418273" lon="11.3803755"><ele>542.0</ele><time>2026-04-11T07:42:45.491Z</time></trkpt><trkpt lat="44.1417445" lon="11.3804072"><ele>542.0</ele><time>2026-04-11T07:42:46.492Z</time></trkpt><trkpt lat="44.1416588" lon="11.3804402"><ele>542.0</ele><time>2026-04-11T07:42:47.492Z</time></trkpt><trkpt lat="44.1415692" lon="11.3804743"><ele>542.0</ele><time>2026-04-11T07:42:48.492Z</time></trkpt><trkpt lat="44.141479" lon="11.3805032"><ele>542.0</ele><time>2026-04-11T07:42:49.492Z</time></trkpt><trkpt lat="44.1413888" lon="11.3805307"><ele>542.0</ele><time>2026-04-11T07:42:50.493Z</time></trkpt><trkpt lat="44.1412932" lon="11.380566"><ele>539.5</ele><time>2026-04-11T07:42:51.491Z</time></trkpt><trkpt lat="44.1411763" lon="11.3805998"><ele>537.0</ele><time>2026-04-11T07:42:52.492Z</time></trkpt><trkpt lat="44.1410422" lon="11.3806342"><ele>534.5</ele><time>2026-04-11T07:42:53.49Z</time></trkpt><trkpt lat="44.1409043" lon="11.3806622"><ele>532.0</ele><time>2026-04-11T07:42:54.488Z</time></trkpt><trkpt lat="44.1407652" lon="11.380679"><ele>531.0</ele><time>2026-04-11T07:42:55.486Z</time></trkpt><trkpt lat="44.1406362" lon="11.3807002"><ele>530.0</ele><time>2026-04-11T07:42:56.487Z</time></trkpt><trkpt lat="44.140512" lon="11.38073"><ele>529.0</ele><time>2026-04-11T07:42:57.489Z</time></trkpt><trkpt lat="44.140406" lon="11.3807593"><ele>528.0</ele><time>2026-04-11T07:42:58.492Z</time></trkpt><trkpt lat="44.1403263" lon="11.3807727"><ele>527.0</ele><time>2026-04-11T07:42:59.492Z</time></trkpt><trkpt lat="44.1402247" lon="11.3807455"><ele>527.0</ele><time>2026-04-11T07:43:01.491Z</time></trkpt><trkpt lat="44.140139" lon="11.3806788"><ele>527.0</ele><time>2026-04-11T07:43:03.492Z</time></trkpt><trkpt lat="44.1400473" lon="11.3805748"><ele>527.0</ele><time>2026-04-11T07:43:05.493Z</time></trkpt><trkpt lat="44.139961" lon="11.380471"><ele>527.0</ele><time>2026-04-11T07:43:07.492Z</time></trkpt><trkpt lat="44.1398413" lon="11.380464"><ele>522.3333333333333</ele><time>2026-04-11T07:43:09.49Z</time></trkpt><trkpt lat="44.1397698" lon="11.3804915"><ele>517.6666666666666</ele><time>2026-04-11T07:43:10.49Z</time></trkpt><trkpt lat="44.1397055" lon="11.3805128"><ele>513.0</ele><time>2026-04-11T07:43:11.491Z</time></trkpt><trkpt lat="44.1396045" lon="11.3805722"><ele>508.33333333333337</ele><time>2026-04-11T07:43:13.49Z</time></trkpt><trkpt lat="44.1395452" lon="11.3806497"><ele>503.6666666666667</ele><time>2026-04-11T07:43:15.491Z</time></trkpt><trkpt lat="44.1394842" lon="11.3807147"><ele>499.0</ele><time>2026-04-11T07:43:17.491Z</time></trkpt><trkpt lat="44.1394728" lon="11.3806177"><ele>496.6</ele><time>2026-04-11T07:43:21.489Z</time></trkpt><trkpt lat="44.1395422" lon="11.380455"><ele>494.2</ele><time>2026-04-11T07:43:23.491Z</time></trkpt><trkpt lat="44.1395897" lon="11.3803572"><ele>491.80000000000007</ele><time>2026-04-11T07:43:24.49Z</time></trkpt><trkpt lat="44.1396293" lon="11.380255"><ele>489.40000000000003</ele><time>2026-04-11T07:43:25.491Z</time></trkpt><trkpt lat="44.1396587" lon="11.3801438"><ele>487.0</ele><time>2026-04-11T07:43:26.491Z</time></trkpt><trkpt lat="44.1396858" lon="11.3800278"><ele>487.00000000000006</ele><time>2026-04-11T07:43:27.49Z</time></trkpt><trkpt lat="44.1397163" lon="11.379907"><ele>487.0</ele><time>2026-04-11T07:43:28.49Z</time></trkpt><trkpt lat="44.1397518" lon="11.3797853"><ele>487.0</ele><time>2026-04-11T07:43:29.492Z</time></trkpt><trkpt lat="44.1397867" lon="11.379663"><ele>487.0</ele><time>2026-04-11T07:43:30.49Z</time></trkpt><trkpt lat="44.139808" lon="11.3795557"><ele>487.00000000000006</ele><time>2026-04-11T07:43:31.49Z</time></trkpt><trkpt lat="44.139813" lon="11.3794487"><ele>487.0</ele><time>2026-04-11T07:43:32.49Z</time></trkpt><trkpt lat="44.139798" lon="11.3793507"><ele>485.0</ele><time>2026-04-11T07:43:33.495Z</time></trkpt><trkpt lat="44.139771" lon="11.379253"><ele>483.00000000000006</ele><time>2026-04-11T07:43:34.492Z</time></trkpt><trkpt lat="44.1397455" lon="11.3791413"><ele>481.00000000000006</ele><time>2026-04-11T07:43:35.493Z</time></trkpt><trkpt lat="44.139742" lon="11.3790028"><ele>479.0</ele><time>2026-04-11T07:43:36.492Z</time></trkpt><trkpt lat="44.1397523" lon="11.3788408"><ele>477.0</ele><time>2026-04-11T07:43:37.494Z</time></trkpt><trkpt lat="44.1397678" lon="11.3786742"><ele>476.0</ele><time>2026-04-11T07:43:38.493Z</time></trkpt><trkpt lat="44.1397905" lon="11.3785157"><ele>475.00000000000006</ele><time>2026-04-11T07:43:39.493Z</time></trkpt><trkpt lat="44.139825" lon="11.3783687"><ele>474.00000000000006</ele><time>2026-04-11T07:43:40.492Z</time></trkpt><trkpt lat="44.1398708" lon="11.3782358"><ele>473.0</ele><time>2026-04-11T07:43:41.492Z</time></trkpt><trkpt lat="44.1399235" lon="11.3781148"><ele>472.0</ele><time>2026-04-11T07:43:42.49Z</time></trkpt><trkpt lat="44.1399675" lon="11.3780013"><ele>472.1666666666667</ele><time>2026-04-11T07:43:43.49Z</time></trkpt><trkpt lat="44.139976" lon="11.3778953"><ele>472.33333333333337</ele><time>2026-04-11T07:43:44.491Z</time></trkpt><trkpt lat="44.1399422" lon="11.3778118"><ele>472.5</ele><time>2026-04-11T07:43:45.491Z</time></trkpt><trkpt lat="44.1398753" lon="11.3777783"><ele>472.66666666666663</ele><time>2026-04-11T07:43:46.491Z</time></trkpt><trkpt lat="44.139794" lon="11.3777928"><ele>472.8333333333333</ele><time>2026-04-11T07:43:47.492Z</time></trkpt><trkpt lat="44.1397093" lon="11.3778442"><ele>473.0</ele><time>2026-04-11T07:43:48.491Z</time></trkpt><trkpt lat="44.139623" lon="11.377913"><ele>473.0</ele><time>2026-04-11T07:43:49.492Z</time></trkpt><trkpt lat="44.1395352" lon="11.3779963"><ele>472.99999999999994</ele><time>2026-04-11T07:43:50.492Z</time></trkpt><trkpt lat="44.1394657" lon="11.3781037"><ele>472.99999999999994</ele><time>2026-04-11T07:43:51.491Z</time></trkpt><trkpt lat="44.1394245" lon="11.3782385"><ele>473.0</ele><time>2026-04-11T07:43:52.491Z</time></trkpt><trkpt lat="44.1394102" lon="11.3783915"><ele>473.0</ele><time>2026-04-11T07:43:53.494Z</time></trkpt><trkpt lat="44.1394128" lon="11.37854"><ele>472.79999999999995</ele><time>2026-04-11T07:43:54.492Z</time></trkpt><trkpt lat="44.139424" lon="11.3786815"><ele>472.59999999999997</ele><time>2026-04-11T07:43:55.491Z</time></trkpt><trkpt lat="44.139436" lon="11.3788192"><ele>472.40000000000003</ele><time>2026-04-11T07:43:56.492Z</time></trkpt><trkpt lat="44.1394363" lon="11.3789477"><ele>472.20000000000005</ele><time>2026-04-11T07:43:57.492Z</time></trkpt><trkpt lat="44.139416" lon="11.3790437"><ele>472.0</ele><time>2026-04-11T07:43:58.492Z</time></trkpt><trkpt lat="44.1392977" lon="11.379134"><ele>473.0</ele><time>2026-04-11T07:44:00.493Z</time></trkpt><trkpt lat="44.1392042" lon="11.3791538"><ele>474.00000000000006</ele><time>2026-04-11T07:44:01.494Z</time></trkpt><trkpt lat="44.139098" lon="11.3791755"><ele>475.00000000000006</ele><time>2026-04-11T07:44:02.493Z</time></trkpt><trkpt lat="44.1389832" lon="11.3792003"><ele>476.0</ele><time>2026-04-11T07:44:03.494Z</time></trkpt><trkpt lat="44.1388618" lon="11.3792228"><ele>477.0</ele><time>2026-04-11T07:44:04.492Z</time></trkpt><trkpt lat="44.1387365" lon="11.3792468"><ele>478.0</ele><time>2026-04-11T07:44:05.494Z</time></trkpt><trkpt lat="44.1386103" lon="11.3792753"><ele>479.0</ele><time>2026-04-11T07:44:06.492Z</time></trkpt><trkpt lat="44.138492" lon="11.3793282"><ele>480.0</ele><time>2026-04-11T07:44:07.489Z</time></trkpt><trkpt lat="44.1383923" lon="11.3794228"><ele>481.0</ele><time>2026-04-11T07:44:08.49Z</time></trkpt><trkpt lat="44.138322" lon="11.379555"><ele>482.25</ele><time>2026-04-11T07:44:09.488Z</time></trkpt><trkpt lat="44.1382788" lon="11.3797115"><ele>483.5</ele><time>2026-04-11T07:44:10.488Z</time></trkpt><trkpt lat="44.1382497" lon="11.3798788"><ele>484.75</ele><time>2026-04-11T07:44:11.492Z</time></trkpt><trkpt lat="44.138224" lon="11.3800452"><ele>486.0</ele><time>2026-04-11T07:44:12.49Z</time></trkpt><trkpt lat="44.1381918" lon="11.3801872"><ele>489.5</ele><time>2026-04-11T07:44:13.491Z</time></trkpt><trkpt lat="44.1381425" lon="11.3802862"><ele>493.0</ele><time>2026-04-11T07:44:14.492Z</time></trkpt><trkpt lat="44.1380808" lon="11.3803208"><ele>496.5</ele><time>2026-04-11T07:44:15.492Z</time></trkpt><trkpt lat="44.1380172" lon="11.3802898"><ele>500.0</ele><time>2026-04-11T07:44:16.494Z</time></trkpt><trkpt lat="44.1379665" lon="11.3802037"><ele>503.5</ele><time>2026-04-11T07:44:17.494Z</time></trkpt><trkpt lat="44.137931" lon="11.3800777"><ele>507.0</ele><time>2026-04-11T07:44:18.494Z</time></trkpt><trkpt lat="44.1378983" lon="11.379931"><ele>507.0</ele><time>2026-04-11T07:44:19.493Z</time></trkpt><trkpt lat="44.1378463" lon="11.3797868"><ele>507.0</ele><time>2026-04-11T07:44:20.492Z</time></trkpt><trkpt lat="44.137773" lon="11.3796497"><ele>507.0</ele><time>2026-04-11T07:44:21.49Z</time></trkpt><trkpt lat="44.137691" lon="11.3795072"><ele>507.0</ele><time>2026-04-11T07:44:22.491Z</time></trkpt><trkpt lat="44.1376075" lon="11.379363"><ele>505.75</ele><time>2026-04-11T07:44:23.493Z</time></trkpt><trkpt lat="44.1375178" lon="11.379224"><ele>504.5</ele><time>2026-04-11T07:44:24.494Z</time></trkpt><trkpt lat="44.1374238" lon="11.3790892"><ele>503.25</ele><time>2026-04-11T07:44:25.492Z</time></trkpt><trkpt lat="44.1373258" lon="11.3789603"><ele>502.0</ele><time>2026-04-11T07:44:26.493Z</time></trkpt><trkpt lat="44.1372242" lon="11.3788388"><ele>504.5</ele><time>2026-04-11T07:44:27.492Z</time></trkpt><trkpt lat="44.1371222" lon="11.3787225"><ele>507.0</ele><time>2026-04-11T07:44:28.492Z</time></trkpt><trkpt lat="44.1370258" lon="11.3786228"><ele>509.5</ele><time>2026-04-11T07:44:29.493Z</time></trkpt><trkpt lat="44.1369318" lon="11.3785545"><ele>512.0</ele><time>2026-04-11T07:44:30.492Z</time></trkpt><trkpt lat="44.1368382" lon="11.3785358"><ele>512.0</ele><time>2026-04-11T07:44:31.492Z</time></trkpt><trkpt lat="44.1367573" lon="11.3785753"><ele>512.0</ele><time>2026-04-11T07:44:32.491Z</time></trkpt><trkpt lat="44.1367102" lon="11.3786665"><ele>512.0</ele><time>2026-04-11T07:44:33.491Z</time></trkpt><trkpt lat="44.1367037" lon="11.3787867"><ele>512.0</ele><time>2026-04-11T07:44:34.492Z</time></trkpt><trkpt lat="44.1367257" lon="11.3789258"><ele>512.0</ele><time>2026-04-11T07:44:35.493Z</time></trkpt><trkpt lat="44.1367562" lon="11.3790783"><ele>513.25</ele><time>2026-04-11T07:44:36.494Z</time></trkpt><trkpt lat="44.136794" lon="11.3792382"><ele>514.5</ele><time>2026-04-11T07:44:37.493Z</time></trkpt><trkpt lat="44.1368437" lon="11.3793982"><ele>515.75</ele><time>2026-04-11T07:44:38.493Z</time></trkpt><trkpt lat="44.1369028" lon="11.3795492"><ele>517.0</ele><time>2026-04-11T07:44:39.492Z</time></trkpt><trkpt lat="44.1369448" lon="11.379688"><ele>518.2</ele><time>2026-04-11T07:44:40.492Z</time></trkpt><trkpt lat="44.1369497" lon="11.3798217"><ele>519.4000000000001</ele><time>2026-04-11T07:44:41.494Z</time></trkpt><trkpt lat="44.1369165" lon="11.3799403"><ele>520.5999999999999</ele><time>2026-04-11T07:44:42.493Z</time></trkpt><trkpt lat="44.1368485" lon="11.3800308"><ele>521.8</ele><time>2026-04-11T07:44:43.492Z</time></trkpt><trkpt lat="44.1367572" lon="11.3801052"><ele>523.0</ele><time>2026-04-11T07:44:44.493Z</time></trkpt><trkpt lat="44.1366527" lon="11.3801798"><ele>527.0</ele><time>2026-04-11T07:44:45.492Z</time></trkpt><trkpt lat="44.136549" lon="11.3802713"><ele>531.0</ele><time>2026-04-11T07:44:46.493Z</time></trkpt><trkpt lat="44.1364537" lon="11.3803917"><ele>535.0</ele><time>2026-04-11T07:44:47.493Z</time></trkpt><trkpt lat="44.1363837" lon="11.3805375"><ele>539.0</ele><time>2026-04-11T07:44:48.492Z</time></trkpt><trkpt lat="44.1363437" lon="11.3807063"><ele>539.0</ele><time>2026-04-11T07:44:49.493Z</time></trkpt><trkpt lat="44.1363203" lon="11.3808835"><ele>539.0</ele><time>2026-04-11T07:44:50.493Z</time></trkpt><trkpt lat="44.1363008" lon="11.3810633"><ele>539.0</ele><time>2026-04-11T07:44:51.493Z</time></trkpt><trkpt lat="44.1362817" lon="11.3812348"><ele>539.0</ele><time>2026-04-11T07:44:52.492Z</time></trkpt><trkpt lat="44.1362645" lon="11.3813837"><ele>538.1666666666666</ele><time>2026-04-11T07:44:53.492Z</time></trkpt><trkpt lat="44.1362418" lon="11.3815093"><ele>537.3333333333333</ele><time>2026-04-11T07:44:54.492Z</time></trkpt><trkpt lat="44.1361985" lon="11.3816018"><ele>536.5</ele><time>2026-04-11T07:44:55.492Z</time></trkpt><trkpt lat="44.1361343" lon="11.3816465"><ele>535.6666666666666</ele><time>2026-04-11T07:44:56.491Z</time></trkpt><trkpt lat="44.1360635" lon="11.3816312"><ele>534.8333333333334</ele><time>2026-04-11T07:44:57.49Z</time></trkpt><trkpt lat="44.1360033" lon="11.3815557"><ele>534.0</ele><time>2026-04-11T07:44:58.491Z</time></trkpt><trkpt lat="44.1359663" lon="11.3814338"><ele>535.25</ele><time>2026-04-11T07:44:59.49Z</time></trkpt><trkpt lat="44.1359458" lon="11.3812828"><ele>536.5</ele><time>2026-04-11T07:45:00.492Z</time></trkpt><trkpt lat="44.1359303" lon="11.3811147"><ele>537.75</ele><time>2026-04-11T07:45:01.494Z</time></trkpt><trkpt lat="44.1359092" lon="11.3809408"><ele>539.0</ele><time>2026-04-11T07:45:02.492Z</time></trkpt><trkpt lat="44.1358853" lon="11.3807673"><ele>539.0</ele><time>2026-04-11T07:45:03.492Z</time></trkpt><trkpt lat="44.1358617" lon="11.3805967"><ele>539.0</ele><time>2026-04-11T07:45:04.492Z</time></trkpt><trkpt lat="44.1358368" lon="11.3804288"><ele>539.0</ele><time>2026-04-11T07:45:05.495Z</time></trkpt><trkpt lat="44.1358073" lon="11.3802648"><ele>539.0</ele><time>2026-04-11T07:45:06.494Z</time></trkpt><trkpt lat="44.1357843" lon="11.3801015"><ele>539.5</ele><time>2026-04-11T07:45:07.493Z</time></trkpt><trkpt lat="44.1357627" lon="11.379942"><ele>540.0</ele><time>2026-04-11T07:45:08.493Z</time></trkpt><trkpt lat="44.1357268" lon="11.3797883"><ele>540.5</ele><time>2026-04-11T07:45:09.493Z</time></trkpt><trkpt lat="44.1356662" lon="11.3796427"><ele>541.0</ele><time>2026-04-11T07:45:10.492Z</time></trkpt><trkpt lat="44.1355843" lon="11.3795145"><ele>544.5</ele><time>2026-04-11T07:45:11.492Z</time></trkpt><trkpt lat="44.1354933" lon="11.379394"><ele>548.0</ele><time>2026-04-11T07:45:12.491Z</time></trkpt><trkpt lat="44.1353967" lon="11.3792757"><ele>551.5</ele><time>2026-04-11T07:45:13.493Z</time></trkpt><trkpt lat="44.1353007" lon="11.3791553"><ele>555.0</ele><time>2026-04-11T07:45:14.492Z</time></trkpt><trkpt lat="44.1352132" lon="11.3790257"><ele>555.0</ele><time>2026-04-11T07:45:15.491Z</time></trkpt><trkpt lat="44.1351363" lon="11.3788872"><ele>555.0</ele><time>2026-04-11T07:45:16.493Z</time></trkpt><trkpt lat="44.1350707" lon="11.3787388"><ele>555.0</ele><time>2026-04-11T07:45:17.493Z</time></trkpt><trkpt lat="44.1350207" lon="11.3785798"><ele>555.0</ele><time>2026-04-11T07:45:18.492Z</time></trkpt><trkpt lat="44.1349837" lon="11.3784135"><ele>554.75</ele><time>2026-04-11T07:45:19.492Z</time></trkpt><trkpt lat="44.1349567" lon="11.3782433"><ele>554.5</ele><time>2026-04-11T07:45:20.492Z</time></trkpt><trkpt lat="44.134934" lon="11.3780727"><ele>554.25</ele><time>2026-04-11T07:45:21.489Z</time></trkpt><trkpt lat="44.134917" lon="11.3778997"><ele>554.0</ele><time>2026-04-11T07:45:22.491Z</time></trkpt><trkpt lat="44.1349152" lon="11.3777277"><ele>554.8</ele><time>2026-04-11T07:45:23.492Z</time></trkpt><trkpt lat="44.1349373" lon="11.3775623"><ele>555.5999999999999</ele><time>2026-04-11T07:45:24.491Z</time></trkpt><trkpt lat="44.1349783" lon="11.377417"><ele>556.4</ele><time>2026-04-11T07:45:25.493Z</time></trkpt><trkpt lat="44.1350115" lon="11.3772897"><ele>557.1999999999999</ele><time>2026-04-11T07:45:26.493Z</time></trkpt><trkpt lat="44.1350133" lon="11.3771798"><ele>558.0</ele><time>2026-04-11T07:45:27.494Z</time></trkpt><trkpt lat="44.1349747" lon="11.3770933"><ele>558.3333333333334</ele><time>2026-04-11T07:45:28.493Z</time></trkpt><trkpt lat="44.1349095" lon="11.3770573"><ele>558.6666666666666</ele><time>2026-04-11T07:45:29.494Z</time></trkpt><trkpt lat="44.1348387" lon="11.3770855"><ele>559.0</ele><time>2026-04-11T07:45:30.494Z</time></trkpt><trkpt lat="44.1347812" lon="11.3771727"><ele>559.3333333333333</ele><time>2026-04-11T07:45:31.493Z</time></trkpt><trkpt lat="44.1347223" lon="11.3772908"><ele>559.6666666666666</ele><time>2026-04-11T07:45:32.494Z</time></trkpt><trkpt lat="44.1346568" lon="11.3774232"><ele>560.0</ele><time>2026-04-11T07:45:33.494Z</time></trkpt><trkpt lat="44.134588" lon="11.3775665"><ele>563.0</ele><time>2026-04-11T07:45:34.495Z</time></trkpt><trkpt lat="44.1345153" lon="11.377715"><ele>566.0</ele><time>2026-04-11T07:45:35.494Z</time></trkpt><trkpt lat="44.1344382" lon="11.3778643"><ele>569.0</ele><time>2026-04-11T07:45:36.494Z</time></trkpt><trkpt lat="44.1343602" lon="11.3780162"><ele>572.0</ele><time>2026-04-11T07:45:37.494Z</time></trkpt><trkpt lat="44.1342825" lon="11.3781682"><ele>572.0</ele><time>2026-04-11T07:45:38.494Z</time></trkpt><trkpt lat="44.1342055" lon="11.378317"><ele>572.0</ele><time>2026-04-11T07:45:39.494Z</time></trkpt><trkpt lat="44.13413" lon="11.3784645"><ele>572.0</ele><time>2026-04-11T07:45:40.494Z</time></trkpt><trkpt lat="44.1340572" lon="11.3786115"><ele>572.0</ele><time>2026-04-11T07:45:41.493Z</time></trkpt><trkpt lat="44.1339877" lon="11.3787577"><ele>573.25</ele><time>2026-04-11T07:45:42.493Z</time></trkpt><trkpt lat="44.1339202" lon="11.378904"><ele>574.5</ele><time>2026-04-11T07:45:43.494Z</time></trkpt><trkpt lat="44.1338598" lon="11.3790565"><ele>575.75</ele><time>2026-04-11T07:45:44.494Z</time></trkpt><trkpt lat="44.1338128" lon="11.3792185"><ele>577.0</ele><time>2026-04-11T07:45:45.492Z</time></trkpt><trkpt lat="44.1337717" lon="11.3793843"><ele>577.0</ele><time>2026-04-11T07:45:46.491Z</time></trkpt><trkpt lat="44.1337323" lon="11.379553"><ele>577.0</ele><time>2026-04-11T07:45:47.492Z</time></trkpt><trkpt lat="44.1336948" lon="11.3797235"><ele>577.0</ele><time>2026-04-11T07:45:48.493Z</time></trkpt><trkpt lat="44.1336562" lon="11.3798907"><ele>577.0</ele><time>2026-04-11T07:45:49.494Z</time></trkpt><trkpt lat="44.1336165" lon="11.3800425"><ele>577.2</ele><time>2026-04-11T07:45:50.494Z</time></trkpt><trkpt lat="44.1335747" lon="11.3801843"><ele>577.4000000000001</ele><time>2026-04-11T07:45:51.493Z</time></trkpt><trkpt lat="44.1335233" lon="11.3803192"><ele>577.5999999999999</ele><time>2026-04-11T07:45:52.493Z</time></trkpt><trkpt lat="44.1334588" lon="11.380446"><ele>577.8</ele><time>2026-04-11T07:45:53.495Z</time></trkpt><trkpt lat="44.133385" lon="11.3805655"><ele>578.0</ele><time>2026-04-11T07:45:54.494Z</time></trkpt><trkpt lat="44.1333038" lon="11.3806747"><ele>576.5</ele><time>2026-04-11T07:45:55.493Z</time></trkpt><trkpt lat="44.1332122" lon="11.3807753"><ele>575.0</ele><time>2026-04-11T07:45:56.494Z</time></trkpt><trkpt lat="44.133113" lon="11.3808725"><ele>573.5</ele><time>2026-04-11T07:45:57.493Z</time></trkpt><trkpt lat="44.13301" lon="11.3809673"><ele>572.0</ele><time>2026-04-11T07:45:58.494Z</time></trkpt><trkpt lat="44.1329083" lon="11.3810577"><ele>572.0</ele><time>2026-04-11T07:45:59.494Z</time></trkpt><trkpt lat="44.132806" lon="11.3811443"><ele>572.0</ele><time>2026-04-11T07:46:00.492Z</time></trkpt><trkpt lat="44.132699" lon="11.3812257"><ele>572.0</ele><time>2026-04-11T07:46:01.493Z</time></trkpt><trkpt lat="44.1325893" lon="11.3812993"><ele>572.0</ele><time>2026-04-11T07:46:02.493Z</time></trkpt><trkpt lat="44.1324802" lon="11.3813683"><ele>570.0</ele><time>2026-04-11T07:46:03.493Z</time></trkpt><trkpt lat="44.1323745" lon="11.3814377"><ele>568.0</ele><time>2026-04-11T07:46:04.494Z</time></trkpt><trkpt lat="44.1322747" lon="11.3815098"><ele>566.0</ele><time>2026-04-11T07:46:05.495Z</time></trkpt><trkpt lat="44.1321847" lon="11.3815922"><ele>564.0</ele><time>2026-04-11T07:46:06.494Z</time></trkpt><trkpt lat="44.132113" lon="11.3816957"><ele>562.0</ele><time>2026-04-11T07:46:07.494Z</time></trkpt><trkpt lat="44.1320545" lon="11.3818102"><ele>562.0</ele><time>2026-04-11T07:46:08.494Z</time></trkpt><trkpt lat="44.1319967" lon="11.3819222"><ele>562.0</ele><time>2026-04-11T07:46:09.492Z</time></trkpt><trkpt lat="44.1319298" lon="11.3820308"><ele>562.0</ele><time>2026-04-11T07:46:10.492Z</time></trkpt><trkpt lat="44.1318492" lon="11.382115"><ele>562.0</ele><time>2026-04-11T07:46:11.491Z</time></trkpt><trkpt lat="44.1317528" lon="11.382153"><ele>562.0</ele><time>2026-04-11T07:46:12.49Z</time></trkpt><trkpt lat="44.1316462" lon="11.3821385"><ele>559.75</ele><time>2026-04-11T07:46:13.49Z</time></trkpt><trkpt lat="44.1315327" lon="11.3820863"><ele>557.5</ele><time>2026-04-11T07:46:14.494Z</time></trkpt><trkpt lat="44.131418" lon="11.3820252"><ele>555.25</ele><time>2026-04-11T07:46:15.493Z</time></trkpt><trkpt lat="44.1313075" lon="11.3819725"><ele>553.0</ele><time>2026-04-11T07:46:16.493Z</time></trkpt><trkpt lat="44.1312012" lon="11.3819293"><ele>553.0</ele><time>2026-04-11T07:46:17.493Z</time></trkpt><trkpt lat="44.131104" lon="11.3818933"><ele>553.0</ele><time>2026-04-11T07:46:18.493Z</time></trkpt><trkpt lat="44.1310265" lon="11.3818595"><ele>553.0</ele><time>2026-04-11T07:46:19.492Z</time></trkpt><trkpt lat="44.1309622" lon="11.3818243"><ele>553.0</ele><time>2026-04-11T07:46:20.494Z</time></trkpt><trkpt lat="44.1308997" lon="11.3817907"><ele>553.0</ele><time>2026-04-11T07:46:21.493Z</time></trkpt><trkpt lat="44.1307838" lon="11.3817615"><ele>553.0</ele><time>2026-04-11T07:46:23.494Z</time></trkpt><trkpt lat="44.1307207" lon="11.3817665"><ele>550.5</ele><time>2026-04-11T07:46:24.492Z</time></trkpt><trkpt lat="44.1306513" lon="11.3817772"><ele>548.0</ele><time>2026-04-11T07:46:25.493Z</time></trkpt><trkpt lat="44.1305835" lon="11.3817992"><ele>545.5</ele><time>2026-04-11T07:46:26.493Z</time></trkpt><trkpt lat="44.1305192" lon="11.3818123"><ele>543.0</ele><time>2026-04-11T07:46:27.495Z</time></trkpt><trkpt lat="44.1304183" lon="11.3817643"><ele>540.5</ele><time>2026-04-11T07:46:29.493Z</time></trkpt><trkpt lat="44.1303275" lon="11.3817183"><ele>538.0</ele><time>2026-04-11T07:46:31.494Z</time></trkpt><trkpt lat="44.1302467" lon="11.3817598"><ele>538.0</ele><time>2026-04-11T07:46:33.493Z</time></trkpt><trkpt lat="44.1301562" lon="11.3818745"><ele>538.0</ele><time>2026-04-11T07:46:35.491Z</time></trkpt><trkpt lat="44.1300482" lon="11.3819517"><ele>538.0</ele><time>2026-04-11T07:46:37.49Z</time></trkpt><trkpt lat="44.1299438" lon="11.3819268"><ele>538.0</ele><time>2026-04-11T07:46:39.49Z</time></trkpt><trkpt lat="44.129832" lon="11.3818767"><ele>536.0</ele><time>2026-04-11T07:46:41.493Z</time></trkpt><trkpt lat="44.1297177" lon="11.3818057"><ele>534.0</ele><time>2026-04-11T07:46:43.493Z</time></trkpt><trkpt lat="44.1296488" lon="11.3817618"><ele>532.0</ele><time>2026-04-11T07:46:44.492Z</time></trkpt><trkpt lat="44.1295803" lon="11.3817142"><ele>530.0</ele><time>2026-04-11T07:46:45.491Z</time></trkpt><trkpt lat="44.1295077" lon="11.3816737"><ele>528.0</ele><time>2026-04-11T07:46:46.492Z</time></trkpt><trkpt lat="44.1294385" lon="11.3816358"><ele>526.0</ele><time>2026-04-11T07:46:47.492Z</time></trkpt><trkpt lat="44.1293625" lon="11.3815892"><ele>526.0</ele><time>2026-04-11T07:46:48.492Z</time></trkpt><trkpt lat="44.1292795" lon="11.3815388"><ele>526.0</ele><time>2026-04-11T07:46:49.491Z</time></trkpt><trkpt lat="44.129201" lon="11.3814885"><ele>526.0</ele><time>2026-04-11T07:46:50.492Z</time></trkpt><trkpt lat="44.1291268" lon="11.381443"><ele>526.0</ele><time>2026-04-11T07:46:51.491Z</time></trkpt><trkpt lat="44.1290487" lon="11.3814033"><ele>526.0</ele><time>2026-04-11T07:46:52.491Z</time></trkpt><trkpt lat="44.1289742" lon="11.3813632"><ele>526.0</ele><time>2026-04-11T07:46:53.493Z</time></trkpt><trkpt lat="44.1289027" lon="11.3813283"><ele>522.6666666666667</ele><time>2026-04-11T07:46:54.49Z</time></trkpt><trkpt lat="44.1288308" lon="11.3812873"><ele>519.3333333333334</ele><time>2026-04-11T07:46:55.49Z</time></trkpt><trkpt lat="44.1287503" lon="11.3812463"><ele>516.0</ele><time>2026-04-11T07:46:56.491Z</time></trkpt><trkpt lat="44.1286737" lon="11.3812098"><ele>512.6666666666666</ele><time>2026-04-11T07:46:57.492Z</time></trkpt><trkpt lat="44.1285968" lon="11.3811702"><ele>509.3333333333333</ele><time>2026-04-11T07:46:58.49Z</time></trkpt><trkpt lat="44.1285287" lon="11.381124"><ele>506.0</ele><time>2026-04-11T07:46:59.49Z</time></trkpt><trkpt lat="44.128462" lon="11.3810795"><ele>505.99999999999994</ele><time>2026-04-11T07:47:00.491Z</time></trkpt><trkpt lat="44.1283933" lon="11.3810442"><ele>506.0</ele><time>2026-04-11T07:47:01.49Z</time></trkpt><trkpt lat="44.1283282" lon="11.381025"><ele>506.0</ele><time>2026-04-11T07:47:02.49Z</time></trkpt><trkpt lat="44.1281928" lon="11.3810198"><ele>506.0</ele><time>2026-04-11T07:47:04.49Z</time></trkpt><trkpt lat="44.1281197" lon="11.381023"><ele>505.99999999999994</ele><time>2026-04-11T07:47:05.491Z</time></trkpt><trkpt lat="44.12805" lon="11.3810308"><ele>506.0</ele><time>2026-04-11T07:47:06.491Z</time></trkpt><trkpt lat="44.1279842" lon="11.3810458"><ele>504.3333333333333</ele><time>2026-04-11T07:47:07.491Z</time></trkpt><trkpt lat="44.1279252" lon="11.3810805"><ele>502.66666666666663</ele><time>2026-04-11T07:47:08.491Z</time></trkpt><trkpt lat="44.1278163" lon="11.3811565"><ele>501.0</ele><time>2026-04-11T07:47:10.49Z</time></trkpt><trkpt lat="44.1277527" lon="11.3811777"><ele>499.33333333333337</ele><time>2026-04-11T07:47:11.491Z</time></trkpt><trkpt lat="44.1276503" lon="11.3811188"><ele>497.6666666666667</ele><time>2026-04-11T07:47:13.491Z</time></trkpt><trkpt lat="44.1276072" lon="11.381042"><ele>496.0</ele><time>2026-04-11T07:47:14.491Z</time></trkpt><trkpt lat="44.127551" lon="11.380949"><ele>496.00000000000006</ele><time>2026-04-11T07:47:15.491Z</time></trkpt><trkpt lat="44.1274882" lon="11.3808685"><ele>496.0</ele><time>2026-04-11T07:47:16.49Z</time></trkpt><trkpt lat="44.1274175" lon="11.380799"><ele>496.0</ele><time>2026-04-11T07:47:17.491Z</time></trkpt><trkpt lat="44.127342" lon="11.3807437"><ele>496.0</ele><time>2026-04-11T07:47:18.492Z</time></trkpt><trkpt lat="44.127263" lon="11.3806985"><ele>496.00000000000006</ele><time>2026-04-11T07:47:19.491Z</time></trkpt><trkpt lat="44.1271837" lon="11.380665"><ele>496.0</ele><time>2026-04-11T07:47:20.492Z</time></trkpt><trkpt lat="44.1271002" lon="11.3806495"><ele>492.8</ele><time>2026-04-11T07:47:21.492Z</time></trkpt><trkpt lat="44.127013" lon="11.380652"><ele>489.6</ele><time>2026-04-11T07:47:22.492Z</time></trkpt><trkpt lat="44.126923" lon="11.3806477"><ele>486.4</ele><time>2026-04-11T07:47:23.491Z</time></trkpt><trkpt lat="44.1268378" lon="11.3806167"><ele>483.2</ele><time>2026-04-11T07:47:24.489Z</time></trkpt><trkpt lat="44.1267535" lon="11.380553"><ele>480.0</ele><time>2026-04-11T07:47:25.491Z</time></trkpt><trkpt lat="44.1266653" lon="11.3804742"><ele>480.0</ele><time>2026-04-11T07:47:26.491Z</time></trkpt><trkpt lat="44.1265717" lon="11.3803993"><ele>480.0</ele><time>2026-04-11T07:47:27.493Z</time></trkpt><trkpt lat="44.1264767" lon="11.3803343"><ele>480.0</ele><time>2026-04-11T07:47:28.493Z</time></trkpt><trkpt lat="44.1263792" lon="11.3802855"><ele>480.0</ele><time>2026-04-11T07:47:29.493Z</time></trkpt><trkpt lat="44.1262828" lon="11.3802375"><ele>480.0</ele><time>2026-04-11T07:47:30.493Z</time></trkpt><trkpt lat="44.1261873" lon="11.3801832"><ele>477.4</ele><time>2026-04-11T07:47:31.494Z</time></trkpt><trkpt lat="44.1260945" lon="11.380114"><ele>474.8</ele><time>2026-04-11T07:47:32.495Z</time></trkpt><trkpt lat="44.126001" lon="11.3800328"><ele>472.20000000000005</ele><time>2026-04-11T07:47:33.494Z</time></trkpt><trkpt lat="44.125901" lon="11.3799587"><ele>469.6</ele><time>2026-04-11T07:47:34.493Z</time></trkpt><trkpt lat="44.1257908" lon="11.3799062"><ele>467.0</ele><time>2026-04-11T07:47:35.494Z</time></trkpt><trkpt lat="44.1256748" lon="11.3798752"><ele>463.25</ele><time>2026-04-11T07:47:36.494Z</time></trkpt><trkpt lat="44.125555" lon="11.3798532"><ele>459.5</ele><time>2026-04-11T07:47:37.493Z</time></trkpt><trkpt lat="44.1254365" lon="11.3798193"><ele>455.75</ele><time>2026-04-11T07:47:38.493Z</time></trkpt><trkpt lat="44.1253207" lon="11.3797665"><ele>452.0</ele><time>2026-04-11T07:47:39.493Z</time></trkpt><trkpt lat="44.1252058" lon="11.37971"><ele>451.5</ele><time>2026-04-11T07:47:40.491Z</time></trkpt><trkpt lat="44.1250892" lon="11.3796677"><ele>451.0</ele><time>2026-04-11T07:47:41.492Z</time></trkpt><trkpt lat="44.1249688" lon="11.3796427"><ele>450.5</ele><time>2026-04-11T07:47:42.491Z</time></trkpt><trkpt lat="44.1248493" lon="11.3796325"><ele>450.0</ele><time>2026-04-11T07:47:43.491Z</time></trkpt><trkpt lat="44.1247303" lon="11.3796307"><ele>447.25</ele><time>2026-04-11T07:47:44.493Z</time></trkpt><trkpt lat="44.1246132" lon="11.3796312"><ele>444.5</ele><time>2026-04-11T07:47:45.493Z</time></trkpt><trkpt lat="44.124497" lon="11.3796292"><ele>441.75</ele><time>2026-04-11T07:47:46.493Z</time></trkpt><trkpt lat="44.1243792" lon="11.3796145"><ele>439.0</ele><time>2026-04-11T07:47:47.493Z</time></trkpt><trkpt lat="44.1242613" lon="11.379578"><ele>439.0</ele><time>2026-04-11T07:47:48.492Z</time></trkpt><trkpt lat="44.124145" lon="11.3795275"><ele>439.0</ele><time>2026-04-11T07:47:49.492Z</time></trkpt><trkpt lat="44.1240292" lon="11.3794702"><ele>439.0</ele><time>2026-04-11T07:47:50.491Z</time></trkpt><trkpt lat="44.1239133" lon="11.3794153"><ele>439.0</ele><time>2026-04-11T07:47:51.489Z</time></trkpt><trkpt lat="44.1238017" lon="11.3793628"><ele>437.0</ele><time>2026-04-11T07:47:52.492Z</time></trkpt><trkpt lat="44.1236933" lon="11.379304"><ele>435.0</ele><time>2026-04-11T07:47:53.493Z</time></trkpt><trkpt lat="44.1235867" lon="11.3792442"><ele>433.0</ele><time>2026-04-11T07:47:54.493Z</time></trkpt><trkpt lat="44.1234833" lon="11.3791882"><ele>431.0</ele><time>2026-04-11T07:47:55.493Z</time></trkpt><trkpt lat="44.1233795" lon="11.3791345"><ele>431.0</ele><time>2026-04-11T07:47:56.493Z</time></trkpt><trkpt lat="44.1232703" lon="11.3790753"><ele>431.0</ele><time>2026-04-11T07:47:57.492Z</time></trkpt><trkpt lat="44.123157" lon="11.3790127"><ele>431.0</ele><time>2026-04-11T07:47:58.492Z</time></trkpt><trkpt lat="44.1230375" lon="11.3789497"><ele>431.0</ele><time>2026-04-11T07:47:59.493Z</time></trkpt><trkpt lat="44.1229155" lon="11.3788878"><ele>430.75</ele><time>2026-04-11T07:48:00.493Z</time></trkpt><trkpt lat="44.1227972" lon="11.3788282"><ele>430.5</ele><time>2026-04-11T07:48:01.493Z</time></trkpt><trkpt lat="44.12268" lon="11.3787705"><ele>430.25</ele><time>2026-04-11T07:48:02.494Z</time></trkpt><trkpt lat="44.1225632" lon="11.3787078"><ele>430.0</ele><time>2026-04-11T07:48:03.493Z</time></trkpt><trkpt lat="44.122456" lon="11.3786423"><ele>429.8</ele><time>2026-04-11T07:48:04.492Z</time></trkpt><trkpt lat="44.122361" lon="11.3785693"><ele>429.6</ele><time>2026-04-11T07:48:05.494Z</time></trkpt><trkpt lat="44.1222792" lon="11.378495"><ele>429.4</ele><time>2026-04-11T07:48:06.493Z</time></trkpt><trkpt lat="44.1221965" lon="11.378439"><ele>429.2</ele><time>2026-04-11T07:48:07.492Z</time></trkpt><trkpt lat="44.122098" lon="11.3784238"><ele>429.0</ele><time>2026-04-11T07:48:08.494Z</time></trkpt><trkpt lat="44.1219863" lon="11.3784317"><ele>429.0</ele><time>2026-04-11T07:48:09.493Z</time></trkpt><trkpt lat="44.1218685" lon="11.3784425"><ele>429.0</ele><time>2026-04-11T07:48:10.492Z</time></trkpt><trkpt lat="44.1217475" lon="11.3784543"><ele>429.0</ele><time>2026-04-11T07:48:11.493Z</time></trkpt><trkpt lat="44.1216262" lon="11.3784665"><ele>429.0</ele><time>2026-04-11T07:48:12.492Z</time></trkpt><trkpt lat="44.1215067" lon="11.3784752"><ele>429.0</ele><time>2026-04-11T07:48:13.49Z</time></trkpt><trkpt lat="44.1213903" lon="11.3784805"><ele>429.0</ele><time>2026-04-11T07:48:14.49Z</time></trkpt><trkpt lat="44.1212787" lon="11.3784868"><ele>429.0</ele><time>2026-04-11T07:48:15.49Z</time></trkpt><trkpt lat="44.1211705" lon="11.3784953"><ele>429.0</ele><time>2026-04-11T07:48:16.492Z</time></trkpt><trkpt lat="44.1210627" lon="11.3785032"><ele>429.0</ele><time>2026-04-11T07:48:17.494Z</time></trkpt><trkpt lat="44.1209548" lon="11.3785098"><ele>429.0</ele><time>2026-04-11T07:48:18.494Z</time></trkpt><trkpt lat="44.1208477" lon="11.3785158"><ele>429.0</ele><time>2026-04-11T07:48:19.493Z</time></trkpt><trkpt lat="44.120743" lon="11.378524"><ele>429.0</ele><time>2026-04-11T07:48:20.493Z</time></trkpt><trkpt lat="44.1206398" lon="11.3785335"><ele>429.0</ele><time>2026-04-11T07:48:21.494Z</time></trkpt><trkpt lat="44.1205375" lon="11.3785395"><ele>429.0</ele><time>2026-04-11T07:48:22.492Z</time></trkpt><trkpt lat="44.1204418" lon="11.3785433"><ele>428.8333333333333</ele><time>2026-04-11T07:48:23.492Z</time></trkpt><trkpt lat="44.1203493" lon="11.3785472"><ele>428.66666666666663</ele><time>2026-04-11T07:48:24.492Z</time></trkpt><trkpt lat="44.1202598" lon="11.3785513"><ele>428.5</ele><time>2026-04-11T07:48:25.492Z</time></trkpt><trkpt lat="44.1201815" lon="11.3785548"><ele>428.3333333333333</ele><time>2026-04-11T07:48:26.493Z</time></trkpt><trkpt lat="44.120118" lon="11.378548"><ele>428.16666666666663</ele><time>2026-04-11T07:48:27.494Z</time></trkpt><trkpt lat="44.1200382" lon="11.3784637"><ele>428.0</ele><time>2026-04-11T07:48:29.494Z</time></trkpt><trkpt lat="44.1200032" lon="11.3783797"><ele>428.0</ele><time>2026-04-11T07:48:30.493Z</time></trkpt><trkpt lat="44.1199703" lon="11.3782733"><ele>427.99999999999994</ele><time>2026-04-11T07:48:31.493Z</time></trkpt><trkpt lat="44.1199417" lon="11.3781528"><ele>427.99999999999994</ele><time>2026-04-11T07:48:32.494Z</time></trkpt><trkpt lat="44.1199225" lon="11.3780222"><ele>428.0</ele><time>2026-04-11T07:48:33.492Z</time></trkpt><trkpt lat="44.1199173" lon="11.3778842"><ele>428.0</ele><time>2026-04-11T07:48:34.493Z</time></trkpt><trkpt lat="44.119918" lon="11.3777443"><ele>428.3333333333333</ele><time>2026-04-11T07:48:35.492Z</time></trkpt><trkpt lat="44.1199213" lon="11.3776123"><ele>428.66666666666663</ele><time>2026-04-11T07:48:36.491Z</time></trkpt><trkpt lat="44.1199257" lon="11.3774943"><ele>429.0</ele><time>2026-04-11T07:48:37.488Z</time></trkpt><trkpt lat="44.119931" lon="11.3773848"><ele>429.33333333333337</ele><time>2026-04-11T07:48:38.488Z</time></trkpt><trkpt lat="44.119936" lon="11.3772797"><ele>429.6666666666667</ele><time>2026-04-11T07:48:39.487Z</time></trkpt><trkpt lat="44.1199403" lon="11.3771798"><ele>430.0</ele><time>2026-04-11T07:48:40.488Z</time></trkpt><trkpt lat="44.1199312" lon="11.3770895"><ele>429.2</ele><time>2026-04-11T07:48:41.491Z</time></trkpt><trkpt lat="44.1198493" lon="11.3769963"><ele>428.4</ele><time>2026-04-11T07:48:43.491Z</time></trkpt><trkpt lat="44.1197382" lon="11.3770247"><ele>427.6</ele><time>2026-04-11T07:48:45.491Z</time></trkpt><trkpt lat="44.1196347" lon="11.377065"><ele>426.8</ele><time>2026-04-11T07:48:47.492Z</time></trkpt><trkpt lat="44.1195312" lon="11.3771097"><ele>426.0</ele><time>2026-04-11T07:48:49.489Z</time></trkpt><trkpt lat="44.1194077" lon="11.3771628"><ele>426.1666666666667</ele><time>2026-04-11T07:48:51.49Z</time></trkpt><trkpt lat="44.1193352" lon="11.3771907"><ele>426.33333333333337</ele><time>2026-04-11T07:48:52.49Z</time></trkpt><trkpt lat="44.1192578" lon="11.377223"><ele>426.5</ele><time>2026-04-11T07:48:53.49Z</time></trkpt><trkpt lat="44.1191802" lon="11.3772567"><ele>426.6666666666667</ele><time>2026-04-11T07:48:54.49Z</time></trkpt><trkpt lat="44.1191012" lon="11.3772912"><ele>426.83333333333337</ele><time>2026-04-11T07:48:55.49Z</time></trkpt><trkpt lat="44.1190207" lon="11.3773237"><ele>427.0</ele><time>2026-04-11T07:48:56.492Z</time></trkpt><trkpt lat="44.1189395" lon="11.3773553"><ele>426.33333333333337</ele><time>2026-04-11T07:48:57.489Z</time></trkpt><trkpt lat="44.1188572" lon="11.377388"><ele>425.6666666666667</ele><time>2026-04-11T07:48:58.491Z</time></trkpt><trkpt lat="44.1187752" lon="11.3774218"><ele>425.0</ele><time>2026-04-11T07:48:59.493Z</time></trkpt><trkpt lat="44.1186938" lon="11.3774543"><ele>424.33333333333337</ele><time>2026-04-11T07:49:00.491Z</time></trkpt><trkpt lat="44.1186135" lon="11.377487"><ele>423.6666666666667</ele><time>2026-04-11T07:49:01.488Z</time></trkpt><trkpt lat="44.1185372" lon="11.3775162"><ele>423.0</ele><time>2026-04-11T07:49:02.49Z</time></trkpt><trkpt lat="44.1184583" lon="11.3775507"><ele>423.0</ele><time>2026-04-11T07:49:03.488Z</time></trkpt><trkpt lat="44.1183825" lon="11.3775835"><ele>423.0</ele><time>2026-04-11T07:49:04.488Z</time></trkpt><trkpt lat="44.1183103" lon="11.377619"><ele>423.0</ele><time>2026-04-11T07:49:05.491Z</time></trkpt><trkpt lat="44.1182307" lon="11.377651"><ele>423.0</ele><time>2026-04-11T07:49:06.491Z</time></trkpt><trkpt lat="44.1181483" lon="11.3776855"><ele>423.0</ele><time>2026-04-11T07:49:07.491Z</time></trkpt><trkpt lat="44.1180655" lon="11.3777225"><ele>423.0</ele><time>2026-04-11T07:49:08.491Z</time></trkpt><trkpt lat="44.1179802" lon="11.3777588"><ele>422.6666666666667</ele><time>2026-04-11T07:49:09.49Z</time></trkpt><trkpt lat="44.1178945" lon="11.3777977"><ele>422.33333333333337</ele><time>2026-04-11T07:49:10.491Z</time></trkpt><trkpt lat="44.1178127" lon="11.377833"><ele>422.0</ele><time>2026-04-11T07:49:11.491Z</time></trkpt><trkpt lat="44.117737" lon="11.3778637"><ele>421.6666666666667</ele><time>2026-04-11T07:49:12.49Z</time></trkpt><trkpt lat="44.1176693" lon="11.3778963"><ele>421.33333333333337</ele><time>2026-04-11T07:49:13.49Z</time></trkpt><trkpt lat="44.1176077" lon="11.3779193"><ele>421.0</ele><time>2026-04-11T07:49:14.491Z</time></trkpt><trkpt lat="44.117498" lon="11.3779607"><ele>421.00000000000006</ele><time>2026-04-11T07:49:16.49Z</time></trkpt><trkpt lat="44.1173772" lon="11.3780182"><ele>421.0</ele><time>2026-04-11T07:49:18.492Z</time></trkpt><trkpt lat="44.1173197" lon="11.3780825"><ele>421.0</ele><time>2026-04-11T07:49:19.492Z</time></trkpt><trkpt lat="44.1172835" lon="11.3781737"><ele>421.0</ele><time>2026-04-11T07:49:20.492Z</time></trkpt><trkpt lat="44.1172752" lon="11.3782828"><ele>421.00000000000006</ele><time>2026-04-11T07:49:21.491Z</time></trkpt><trkpt lat="44.1172813" lon="11.3784032"><ele>421.0</ele><time>2026-04-11T07:49:22.49Z</time></trkpt><trkpt lat="44.117294" lon="11.3785285"><ele>421.00000000000006</ele><time>2026-04-11T07:49:23.492Z</time></trkpt><trkpt lat="44.1173103" lon="11.3786575"><ele>421.0</ele><time>2026-04-11T07:49:24.49Z</time></trkpt><trkpt lat="44.117324" lon="11.3787795"><ele>421.0</ele><time>2026-04-11T07:49:25.49Z</time></trkpt><trkpt lat="44.1173385" lon="11.3788922"><ele>421.0</ele><time>2026-04-11T07:49:26.49Z</time></trkpt><trkpt lat="44.1173537" lon="11.3789942"><ele>421.00000000000006</ele><time>2026-04-11T07:49:27.491Z</time></trkpt><trkpt lat="44.1173657" lon="11.3790878"><ele>421.0</ele><time>2026-04-11T07:49:28.49Z</time></trkpt><trkpt lat="44.1173788" lon="11.3791785"><ele>420.50000000000006</ele><time>2026-04-11T07:49:29.493Z</time></trkpt><trkpt lat="44.11739" lon="11.3792728"><ele>420.0</ele><time>2026-04-11T07:49:30.493Z</time></trkpt><trkpt lat="44.117396" lon="11.3793618"><ele>419.5</ele><time>2026-04-11T07:49:31.491Z</time></trkpt><trkpt lat="44.1173773" lon="11.3795302"><ele>419.0</ele><time>2026-04-11T07:49:33.492Z</time></trkpt><trkpt lat="44.1173008" lon="11.3796578"><ele>418.50000000000006</ele><time>2026-04-11T07:49:35.492Z</time></trkpt><trkpt lat="44.1172378" lon="11.3797033"><ele>418.0</ele><time>2026-04-11T07:49:36.491Z</time></trkpt><trkpt lat="44.1171642" lon="11.379739"><ele>418.0</ele><time>2026-04-11T07:49:37.491Z</time></trkpt><trkpt lat="44.117086" lon="11.3797772"><ele>418.0</ele><time>2026-04-11T07:49:38.491Z</time></trkpt><trkpt lat="44.1169987" lon="11.3798123"><ele>418.0</ele><time>2026-04-11T07:49:39.493Z</time></trkpt><trkpt lat="44.1169067" lon="11.3798472"><ele>418.0</ele><time>2026-04-11T07:49:40.491Z</time></trkpt><trkpt lat="44.1168127" lon="11.3798833"><ele>418.0</ele><time>2026-04-11T07:49:41.491Z</time></trkpt><trkpt lat="44.116715" lon="11.3799165"><ele>418.0</ele><time>2026-04-11T07:49:42.492Z</time></trkpt><trkpt lat="44.1166147" lon="11.379951"><ele>418.0</ele><time>2026-04-11T07:49:43.492Z</time></trkpt><trkpt lat="44.116514" lon="11.3799842"><ele>418.0</ele><time>2026-04-11T07:49:44.491Z</time></trkpt><trkpt lat="44.1164157" lon="11.3800238"><ele>418.0</ele><time>2026-04-11T07:49:45.49Z</time></trkpt><trkpt lat="44.116312" lon="11.380058"><ele>418.0</ele><time>2026-04-11T07:49:46.491Z</time></trkpt><trkpt lat="44.1162097" lon="11.3800955"><ele>418.2</ele><time>2026-04-11T07:49:47.493Z</time></trkpt><trkpt lat="44.116106" lon="11.380131"><ele>418.4</ele><time>2026-04-11T07:49:48.491Z</time></trkpt><trkpt lat="44.1160047" lon="11.3801665"><ele>418.59999999999997</ele><time>2026-04-11T07:49:49.491Z</time></trkpt><trkpt lat="44.1159033" lon="11.3801988"><ele>418.79999999999995</ele><time>2026-04-11T07:49:50.492Z</time></trkpt><trkpt lat="44.1158018" lon="11.3802187"><ele>419.0</ele><time>2026-04-11T07:49:51.488Z</time></trkpt><trkpt lat="44.1156992" lon="11.3802172"><ele>420.2</ele><time>2026-04-11T07:49:52.491Z</time></trkpt><trkpt lat="44.1156002" lon="11.3801963"><ele>421.4</ele><time>2026-04-11T07:49:53.491Z</time></trkpt><trkpt lat="44.1155083" lon="11.3801728"><ele>422.6</ele><time>2026-04-11T07:49:54.492Z</time></trkpt><trkpt lat="44.115415" lon="11.3801563"><ele>423.8</ele><time>2026-04-11T07:49:55.492Z</time></trkpt><trkpt lat="44.1153212" lon="11.380157"><ele>425.0</ele><time>2026-04-11T07:49:56.492Z</time></trkpt><trkpt lat="44.1152323" lon="11.3801787"><ele>425.0</ele><time>2026-04-11T07:49:57.493Z</time></trkpt><trkpt lat="44.1151458" lon="11.3802237"><ele>425.0</ele><time>2026-04-11T07:49:58.493Z</time></trkpt><trkpt lat="44.115061" lon="11.3802873"><ele>425.0</ele><time>2026-04-11T07:49:59.491Z</time></trkpt><trkpt lat="44.1149772" lon="11.3803583"><ele>425.0</ele><time>2026-04-11T07:50:00.492Z</time></trkpt><trkpt lat="44.1148922" lon="11.3804318"><ele>425.0</ele><time>2026-04-11T07:50:01.491Z</time></trkpt><trkpt lat="44.1148065" lon="11.3805093"><ele>425.4</ele><time>2026-04-11T07:50:02.493Z</time></trkpt><trkpt lat="44.1147252" lon="11.3805897"><ele>425.8</ele><time>2026-04-11T07:50:03.493Z</time></trkpt><trkpt lat="44.114646" lon="11.3806652"><ele>426.20000000000005</ele><time>2026-04-11T07:50:04.492Z</time></trkpt><trkpt lat="44.1145662" lon="11.3807307"><ele>426.6</ele><time>2026-04-11T07:50:05.492Z</time></trkpt><trkpt lat="44.1144882" lon="11.3807847"><ele>427.0</ele><time>2026-04-11T07:50:06.492Z</time></trkpt><trkpt lat="44.1144177" lon="11.3808255"><ele>427.00000000000006</ele><time>2026-04-11T07:50:07.492Z</time></trkpt><trkpt lat="44.1143547" lon="11.380856"><ele>427.0</ele><time>2026-04-11T07:50:08.493Z</time></trkpt><trkpt lat="44.1142582" lon="11.3808852"><ele>427.0</ele><time>2026-04-11T07:50:10.492Z</time></trkpt><trkpt lat="44.1141892" lon="11.3808715"><ele>427.0</ele><time>2026-04-11T07:50:12.492Z</time></trkpt><trkpt lat="44.1141592" lon="11.3807835"><ele>427.00000000000006</ele><time>2026-04-11T07:50:14.491Z</time></trkpt><trkpt lat="44.114146" lon="11.3806388"><ele>427.0</ele><time>2026-04-11T07:50:16.487Z</time></trkpt><trkpt lat="44.1141252" lon="11.3805505"><ele>428.0</ele><time>2026-04-11T07:50:17.489Z</time></trkpt><trkpt lat="44.1141093" lon="11.3804542"><ele>429.0</ele><time>2026-04-11T07:50:18.489Z</time></trkpt><trkpt lat="44.1140985" lon="11.3803658"><ele>430.0</ele><time>2026-04-11T07:50:19.491Z</time></trkpt><trkpt lat="44.11409" lon="11.3802787"><ele>431.0</ele><time>2026-04-11T07:50:20.49Z</time></trkpt><trkpt lat="44.1140812" lon="11.3801912"><ele>432.0</ele><time>2026-04-11T07:50:21.49Z</time></trkpt><trkpt lat="44.1140717" lon="11.3801038"><ele>433.0</ele><time>2026-04-11T07:50:22.49Z</time></trkpt><trkpt lat="44.1140625" lon="11.3800133"><ele>434.0</ele><time>2026-04-11T07:50:23.49Z</time></trkpt><trkpt lat="44.1140407" lon="11.3798505"><ele>434.0</ele><time>2026-04-11T07:50:25.489Z</time></trkpt><trkpt lat="44.114006" lon="11.3797048"><ele>434.0</ele><time>2026-04-11T07:50:27.491Z</time></trkpt><trkpt lat="44.1139698" lon="11.3795552"><ele>434.0</ele><time>2026-04-11T07:50:29.491Z</time></trkpt><trkpt lat="44.113926" lon="11.379401"><ele>434.0</ele><time>2026-04-11T07:50:31.491Z</time></trkpt><trkpt lat="44.113872" lon="11.3792608"><ele>436.16666666666663</ele><time>2026-04-11T07:50:33.492Z</time></trkpt><trkpt lat="44.1138217" lon="11.3791255"><ele>438.3333333333333</ele><time>2026-04-11T07:50:35.492Z</time></trkpt><trkpt lat="44.1137885" lon="11.3790463"><ele>440.5</ele><time>2026-04-11T07:50:36.492Z</time></trkpt><trkpt lat="44.1137513" lon="11.3789628"><ele>442.66666666666663</ele><time>2026-04-11T07:50:37.491Z</time></trkpt><trkpt lat="44.1137223" lon="11.3788837"><ele>444.8333333333333</ele><time>2026-04-11T07:50:38.493Z</time></trkpt><trkpt lat="44.1136748" lon="11.3787323"><ele>447.0</ele><time>2026-04-11T07:50:40.49Z</time></trkpt><trkpt lat="44.1136218" lon="11.3785998"><ele>449.6</ele><time>2026-04-11T07:50:42.488Z</time></trkpt><trkpt lat="44.113557" lon="11.378479"><ele>452.20000000000005</ele><time>2026-04-11T07:50:44.493Z</time></trkpt><trkpt lat="44.1134797" lon="11.3783575"><ele>454.8</ele><time>2026-04-11T07:50:46.492Z</time></trkpt><trkpt lat="44.1134012" lon="11.3782177"><ele>457.4</ele><time>2026-04-11T07:50:48.491Z</time></trkpt><trkpt lat="44.1133537" lon="11.378141"><ele>460.0</ele><time>2026-04-11T07:50:49.492Z</time></trkpt><trkpt lat="44.1133097" lon="11.3780713"><ele>460.50000000000006</ele><time>2026-04-11T07:50:50.492Z</time></trkpt><trkpt lat="44.1132353" lon="11.3779435"><ele>461.0</ele><time>2026-04-11T07:50:52.492Z</time></trkpt><trkpt lat="44.113164" lon="11.3778105"><ele>461.5</ele><time>2026-04-11T07:50:54.491Z</time></trkpt><trkpt lat="44.1131303" lon="11.3777263"><ele>462.0</ele><time>2026-04-11T07:50:55.491Z</time></trkpt><trkpt lat="44.1131005" lon="11.3776367"><ele>462.50000000000006</ele><time>2026-04-11T07:50:56.492Z</time></trkpt><trkpt lat="44.1130802" lon="11.3775467"><ele>463.0</ele><time>2026-04-11T07:50:57.491Z</time></trkpt><trkpt lat="44.1130188" lon="11.3774045"><ele>463.00000000000006</ele><time>2026-04-11T07:50:59.492Z</time></trkpt><trkpt lat="44.1129682" lon="11.3773337"><ele>463.0</ele><time>2026-04-11T07:51:00.492Z</time></trkpt><trkpt lat="44.1129152" lon="11.377252"><ele>463.0</ele><time>2026-04-11T07:51:01.49Z</time></trkpt><trkpt lat="44.1128533" lon="11.3771502"><ele>463.0</ele><time>2026-04-11T07:51:02.492Z</time></trkpt><trkpt lat="44.1127883" lon="11.3770447"><ele>463.00000000000006</ele><time>2026-04-11T07:51:03.49Z</time></trkpt><trkpt lat="44.112724" lon="11.3769567"><ele>463.0</ele><time>2026-04-11T07:51:04.489Z</time></trkpt><trkpt lat="44.1126692" lon="11.3768703"><ele>464.33333333333337</ele><time>2026-04-11T07:51:05.492Z</time></trkpt><trkpt lat="44.1126195" lon="11.376776"><ele>465.6666666666667</ele><time>2026-04-11T07:51:06.488Z</time></trkpt><trkpt lat="44.1125645" lon="11.3766743"><ele>467.0</ele><time>2026-04-11T07:51:07.49Z</time></trkpt><trkpt lat="44.1125065" lon="11.3765848"><ele>468.33333333333337</ele><time>2026-04-11T07:51:08.49Z</time></trkpt><trkpt lat="44.1124382" lon="11.3765102"><ele>469.6666666666667</ele><time>2026-04-11T07:51:09.491Z</time></trkpt><trkpt lat="44.1123668" lon="11.3764332"><ele>471.0</ele><time>2026-04-11T07:51:10.492Z</time></trkpt><trkpt lat="44.1122993" lon="11.3763557"><ele>472.8333333333333</ele><time>2026-04-11T07:51:11.492Z</time></trkpt><trkpt lat="44.1122302" lon="11.3762893"><ele>474.66666666666663</ele><time>2026-04-11T07:51:12.491Z</time></trkpt><trkpt lat="44.1121695" lon="11.376215"><ele>476.5</ele><time>2026-04-11T07:51:13.49Z</time></trkpt><trkpt lat="44.1121092" lon="11.376143"><ele>478.3333333333333</ele><time>2026-04-11T07:51:14.491Z</time></trkpt><trkpt lat="44.112042" lon="11.3760885"><ele>480.16666666666663</ele><time>2026-04-11T07:51:15.491Z</time></trkpt><trkpt lat="44.1119732" lon="11.3760497"><ele>482.0</ele><time>2026-04-11T07:51:16.49Z</time></trkpt><trkpt lat="44.1119002" lon="11.3760203"><ele>481.99999999999994</ele><time>2026-04-11T07:51:17.491Z</time></trkpt><trkpt lat="44.1118228" lon="11.3759965"><ele>482.0</ele><time>2026-04-11T07:51:18.491Z</time></trkpt><trkpt lat="44.1117508" lon="11.3759658"><ele>482.0</ele><time>2026-04-11T07:51:19.491Z</time></trkpt><trkpt lat="44.1116793" lon="11.3759098"><ele>482.0</ele><time>2026-04-11T07:51:20.491Z</time></trkpt><trkpt lat="44.1116092" lon="11.3758367"><ele>481.99999999999994</ele><time>2026-04-11T07:51:21.49Z</time></trkpt><trkpt lat="44.1115418" lon="11.3757748"><ele>482.0</ele><time>2026-04-11T07:51:22.503Z</time></trkpt><trkpt lat="44.1114473" lon="11.3756572"><ele>481.49999999999994</ele><time>2026-04-11T07:51:24.491Z</time></trkpt><trkpt lat="44.1114052" lon="11.3755727"><ele>481.0</ele><time>2026-04-11T07:51:25.491Z</time></trkpt><trkpt lat="44.1113688" lon="11.3754792"><ele>480.5</ele><time>2026-04-11T07:51:26.491Z</time></trkpt><trkpt lat="44.1113287" lon="11.375372"><ele>480.0</ele><time>2026-04-11T07:51:27.491Z</time></trkpt><trkpt lat="44.1112972" lon="11.3752715"><ele>479.49999999999994</ele><time>2026-04-11T07:51:28.489Z</time></trkpt><trkpt lat="44.1112605" lon="11.3751745"><ele>479.0</ele><time>2026-04-11T07:51:29.489Z</time></trkpt><trkpt lat="44.1112183" lon="11.3750787"><ele>480.6</ele><time>2026-04-11T07:51:30.489Z</time></trkpt><trkpt lat="44.1111752" lon="11.3749707"><ele>482.2</ele><time>2026-04-11T07:51:31.489Z</time></trkpt><trkpt lat="44.1111293" lon="11.3748355"><ele>483.80000000000007</ele><time>2026-04-11T07:51:32.494Z</time></trkpt><trkpt lat="44.1110918" lon="11.374701"><ele>485.40000000000003</ele><time>2026-04-11T07:51:33.497Z</time></trkpt><trkpt lat="44.1110608" lon="11.374592"><ele>487.0</ele><time>2026-04-11T07:51:34.493Z</time></trkpt><trkpt lat="44.1109885" lon="11.3744603"><ele>488.1666666666667</ele><time>2026-04-11T07:51:36.491Z</time></trkpt><trkpt lat="44.1109297" lon="11.37442"><ele>489.33333333333337</ele><time>2026-04-11T07:51:37.492Z</time></trkpt><trkpt lat="44.1108648" lon="11.3743658"><ele>490.5</ele><time>2026-04-11T07:51:38.491Z</time></trkpt><trkpt lat="44.110793" lon="11.3743"><ele>491.66666666666663</ele><time>2026-04-11T07:51:39.492Z</time></trkpt><trkpt lat="44.1107322" lon="11.3742307"><ele>492.8333333333333</ele><time>2026-04-11T07:51:40.492Z</time></trkpt><trkpt lat="44.1106788" lon="11.3741605"><ele>494.0</ele><time>2026-04-11T07:51:41.492Z</time></trkpt><trkpt lat="44.110603" lon="11.374032"><ele>494.4</ele><time>2026-04-11T07:51:43.492Z</time></trkpt><trkpt lat="44.110526" lon="11.37392"><ele>494.79999999999995</ele><time>2026-04-11T07:51:45.491Z</time></trkpt><trkpt lat="44.1104168" lon="11.3738765"><ele>495.20000000000005</ele><time>2026-04-11T07:51:47.491Z</time></trkpt><trkpt lat="44.1103497" lon="11.3738383"><ele>495.6</ele><time>2026-04-11T07:51:49.49Z</time></trkpt><trkpt lat="44.11026" lon="11.3737597"><ele>496.0</ele><time>2026-04-11T07:51:51.49Z</time></trkpt><trkpt lat="44.1101817" lon="11.3736847"><ele>498.33333333333337</ele><time>2026-04-11T07:51:53.488Z</time></trkpt><trkpt lat="44.1100978" lon="11.373619"><ele>500.6666666666667</ele><time>2026-04-11T07:51:55.488Z</time></trkpt><trkpt lat="44.1100283" lon="11.373552"><ele>503.0</ele><time>2026-04-11T07:51:57.491Z</time></trkpt><trkpt lat="44.1099635" lon="11.3734997"><ele>505.33333333333337</ele><time>2026-04-11T07:52:00.491Z</time></trkpt><trkpt lat="44.1098883" lon="11.3734263"><ele>507.6666666666667</ele><time>2026-04-11T07:52:02.492Z</time></trkpt><trkpt lat="44.1098123" lon="11.3733417"><ele>510.0</ele><time>2026-04-11T07:52:04.491Z</time></trkpt><trkpt lat="44.1097502" lon="11.3732728"><ele>510.0</ele><time>2026-04-11T07:52:06.491Z</time></trkpt><trkpt lat="44.1096702" lon="11.3732502"><ele>510.0</ele><time>2026-04-11T07:52:54.49Z</time></trkpt><trkpt lat="44.1097258" lon="11.3733175"><ele>510.0</ele><time>2026-04-11T07:58:43.493Z</time></trkpt><trkpt lat="44.1097877" lon="11.3733895"><ele>510.0</ele><time>2026-04-11T07:58:47.492Z</time></trkpt><trkpt lat="44.1098473" lon="11.3734308"><ele>510.0</ele><time>2026-04-11T07:59:36.493Z</time></trkpt><trkpt lat="44.1099148" lon="11.3734967"><ele>510.0</ele><time>2026-04-11T07:59:39.49Z</time></trkpt><trkpt lat="44.109976" lon="11.3735612"><ele>510.0</ele><time>2026-04-11T07:59:42.494Z</time></trkpt><trkpt lat="44.1100427" lon="11.3736135"><ele>510.0</ele><time>2026-04-11T07:59:44.494Z</time></trkpt><trkpt lat="44.1100995" lon="11.3736662"><ele>510.0</ele><time>2026-04-11T07:59:46.492Z</time></trkpt><trkpt lat="44.1101675" lon="11.373738"><ele>510.0</ele><time>2026-04-11T07:59:48.496Z</time></trkpt><trkpt lat="44.1102373" lon="11.3737967"><ele>510.0</ele><time>2026-04-11T07:59:50.493Z</time></trkpt><trkpt lat="44.1102945" lon="11.3738338"><ele>510.0</ele><time>2026-04-11T07:59:52.491Z</time></trkpt><trkpt lat="44.1103802" lon="11.3738772"><ele>507.2</ele><time>2026-04-11T07:59:55.493Z</time></trkpt><trkpt lat="44.1104507" lon="11.3739663"><ele>504.4</ele><time>2026-04-11T07:59:58.492Z</time></trkpt><trkpt lat="44.110507" lon="11.3740545"><ele>501.6</ele><time>2026-04-11T08:00:00.493Z</time></trkpt><trkpt lat="44.1105748" lon="11.3741085"><ele>498.8</ele><time>2026-04-11T08:00:37.492Z</time></trkpt><trkpt lat="44.110635" lon="11.3741822"><ele>496.0</ele><time>2026-04-11T08:00:39.492Z</time></trkpt><trkpt lat="44.110731" lon="11.3742845"><ele>495.6</ele><time>2026-04-11T08:00:41.494Z</time></trkpt><trkpt lat="44.1107953" lon="11.37434"><ele>495.20000000000005</ele><time>2026-04-11T08:00:42.494Z</time></trkpt><trkpt lat="44.1108952" lon="11.3744235"><ele>494.79999999999995</ele><time>2026-04-11T08:00:44.494Z</time></trkpt><trkpt lat="44.1109398" lon="11.3745383"><ele>494.4</ele><time>2026-04-11T08:00:46.494Z</time></trkpt><trkpt lat="44.1109888" lon="11.3746957"><ele>494.0</ele><time>2026-04-11T08:00:48.493Z</time></trkpt><trkpt lat="44.1110175" lon="11.3747978"><ele>492.8333333333333</ele><time>2026-04-11T08:00:49.495Z</time></trkpt><trkpt lat="44.1110552" lon="11.374916"><ele>491.66666666666663</ele><time>2026-04-11T08:00:50.494Z</time></trkpt><trkpt lat="44.1110957" lon="11.375019"><ele>490.5</ele><time>2026-04-11T08:00:51.492Z</time></trkpt><trkpt lat="44.1111335" lon="11.3751057"><ele>489.33333333333337</ele><time>2026-04-11T08:00:52.492Z</time></trkpt><trkpt lat="44.1111692" lon="11.3752"><ele>488.1666666666667</ele><time>2026-04-11T08:00:53.493Z</time></trkpt><trkpt lat="44.1112003" lon="11.3752917"><ele>487.0</ele><time>2026-04-11T08:00:54.492Z</time></trkpt><trkpt lat="44.111228" lon="11.3753793"><ele>487.00000000000006</ele><time>2026-04-11T08:00:55.493Z</time></trkpt><trkpt lat="44.1112617" lon="11.375463"><ele>487.0</ele><time>2026-04-11T08:00:56.495Z</time></trkpt><trkpt lat="44.1113273" lon="11.375605"><ele>487.0</ele><time>2026-04-11T08:00:58.494Z</time></trkpt><trkpt lat="44.111377" lon="11.3756593"><ele>487.0</ele><time>2026-04-11T08:00:59.494Z</time></trkpt><trkpt lat="44.1114332" lon="11.3757165"><ele>487.00000000000006</ele><time>2026-04-11T08:01:00.494Z</time></trkpt><trkpt lat="44.1114932" lon="11.375772"><ele>487.0</ele><time>2026-04-11T08:01:01.493Z</time></trkpt><trkpt lat="44.1115548" lon="11.3758283"><ele>486.1666666666667</ele><time>2026-04-11T08:01:02.493Z</time></trkpt><trkpt lat="44.1116148" lon="11.3758682"><ele>485.33333333333337</ele><time>2026-04-11T08:01:03.493Z</time></trkpt><trkpt lat="44.1116843" lon="11.3758925"><ele>484.5</ele><time>2026-04-11T08:01:04.495Z</time></trkpt><trkpt lat="44.1117567" lon="11.3759135"><ele>483.66666666666663</ele><time>2026-04-11T08:01:05.495Z</time></trkpt><trkpt lat="44.1118608" lon="11.3759678"><ele>482.8333333333333</ele><time>2026-04-11T08:01:07.493Z</time></trkpt><trkpt lat="44.1119575" lon="11.37606"><ele>482.0</ele><time>2026-04-11T08:01:09.492Z</time></trkpt><trkpt lat="44.112014" lon="11.3761227"><ele>481.99999999999994</ele><time>2026-04-11T08:01:10.495Z</time></trkpt><trkpt lat="44.1120727" lon="11.3761828"><ele>482.0</ele><time>2026-04-11T08:01:11.508Z</time></trkpt><trkpt lat="44.112136" lon="11.3762388"><ele>482.0</ele><time>2026-04-11T08:01:12.494Z</time></trkpt><trkpt lat="44.1121982" lon="11.3763023"><ele>482.0</ele><time>2026-04-11T08:01:13.495Z</time></trkpt><trkpt lat="44.11226" lon="11.3763715"><ele>481.99999999999994</ele><time>2026-04-11T08:01:14.494Z</time></trkpt><trkpt lat="44.1123205" lon="11.3764378"><ele>482.0</ele><time>2026-04-11T08:01:15.493Z</time></trkpt><trkpt lat="44.1123773" lon="11.3765072"><ele>480.16666666666663</ele><time>2026-04-11T08:01:16.491Z</time></trkpt><trkpt lat="44.1124285" lon="11.3765917"><ele>478.3333333333333</ele><time>2026-04-11T08:01:17.492Z</time></trkpt><trkpt lat="44.1124812" lon="11.3766853"><ele>476.5</ele><time>2026-04-11T08:01:18.492Z</time></trkpt><trkpt lat="44.1125277" lon="11.3767702"><ele>474.66666666666663</ele><time>2026-04-11T08:01:19.491Z</time></trkpt><trkpt lat="44.1125708" lon="11.376843"><ele>472.8333333333333</ele><time>2026-04-11T08:01:20.495Z</time></trkpt><trkpt lat="44.112624" lon="11.3769267"><ele>471.0</ele><time>2026-04-11T08:01:21.494Z</time></trkpt><trkpt lat="44.112687" lon="11.3770275"><ele>471.00000000000006</ele><time>2026-04-11T08:01:22.493Z</time></trkpt><trkpt lat="44.1127462" lon="11.3771137"><ele>471.0</ele><time>2026-04-11T08:01:23.493Z</time></trkpt><trkpt lat="44.1127978" lon="11.3771818"><ele>471.00000000000006</ele><time>2026-04-11T08:01:24.493Z</time></trkpt><trkpt lat="44.1128505" lon="11.3772565"><ele>471.00000000000006</ele><time>2026-04-11T08:01:25.495Z</time></trkpt><trkpt lat="44.1128912" lon="11.3773275"><ele>471.0</ele><time>2026-04-11T08:01:26.495Z</time></trkpt><trkpt lat="44.1129212" lon="11.3774108"><ele>471.00000000000006</ele><time>2026-04-11T08:01:27.493Z</time></trkpt><trkpt lat="44.1129448" lon="11.3774998"><ele>471.00000000000006</ele><time>2026-04-11T08:01:28.493Z</time></trkpt><trkpt lat="44.1129752" lon="11.3775893"><ele>469.6666666666667</ele><time>2026-04-11T08:01:29.493Z</time></trkpt><trkpt lat="44.1130133" lon="11.377671"><ele>468.33333333333337</ele><time>2026-04-11T08:01:30.495Z</time></trkpt><trkpt lat="44.1130718" lon="11.3777823"><ele>467.0</ele><time>2026-04-11T08:01:32.493Z</time></trkpt><trkpt lat="44.1131267" lon="11.377872"><ele>465.6666666666667</ele><time>2026-04-11T08:01:34.495Z</time></trkpt><trkpt lat="44.1132037" lon="11.3779935"><ele>464.33333333333337</ele><time>2026-04-11T08:01:36.494Z</time></trkpt><trkpt lat="44.1132478" lon="11.378064"><ele>463.0</ele><time>2026-04-11T08:01:37.495Z</time></trkpt><trkpt lat="44.113321" lon="11.3782007"><ele>462.4</ele><time>2026-04-11T08:01:39.494Z</time></trkpt><trkpt lat="44.1133952" lon="11.3783225"><ele>461.79999999999995</ele><time>2026-04-11T08:01:41.492Z</time></trkpt><trkpt lat="44.1134695" lon="11.3784458"><ele>461.2</ele><time>2026-04-11T08:01:43.492Z</time></trkpt><trkpt lat="44.113524" lon="11.3785707"><ele>460.6</ele><time>2026-04-11T08:01:45.494Z</time></trkpt><trkpt lat="44.113578" lon="11.3787022"><ele>460.0</ele><time>2026-04-11T08:01:47.495Z</time></trkpt><trkpt lat="44.1136275" lon="11.3788433"><ele>456.75</ele><time>2026-04-11T08:01:49.494Z</time></trkpt><trkpt lat="44.1136907" lon="11.3789897"><ele>453.5</ele><time>2026-04-11T08:01:51.493Z</time></trkpt><trkpt lat="44.1137513" lon="11.3791365"><ele>450.25</ele><time>2026-04-11T08:01:53.495Z</time></trkpt><trkpt lat="44.1138125" lon="11.3792827"><ele>447.0</ele><time>2026-04-11T08:01:55.495Z</time></trkpt><trkpt lat="44.1138597" lon="11.3794332"><ele>447.0</ele><time>2026-04-11T08:01:57.494Z</time></trkpt><trkpt lat="44.1139015" lon="11.3795888"><ele>447.00000000000006</ele><time>2026-04-11T08:01:59.494Z</time></trkpt><trkpt lat="44.1139412" lon="11.3797108"><ele>447.00000000000006</ele><time>2026-04-11T08:02:01.494Z</time></trkpt><trkpt lat="44.1139643" lon="11.3798415"><ele>447.0</ele><time>2026-04-11T08:02:03.493Z</time></trkpt><trkpt lat="44.1139897" lon="11.379987"><ele>447.0</ele><time>2026-04-11T08:02:05.492Z</time></trkpt><trkpt lat="44.1140123" lon="11.38015"><ele>444.40000000000003</ele><time>2026-04-11T08:02:07.491Z</time></trkpt><trkpt lat="44.1140397" lon="11.3803105"><ele>441.80000000000007</ele><time>2026-04-11T08:02:09.493Z</time></trkpt><trkpt lat="44.1140667" lon="11.3804615"><ele>439.2</ele><time>2026-04-11T08:02:11.493Z</time></trkpt><trkpt lat="44.1141042" lon="11.3806008"><ele>436.6</ele><time>2026-04-11T08:02:13.494Z</time></trkpt><trkpt lat="44.1141192" lon="11.380698"><ele>434.0</ele><time>2026-04-11T08:02:15.493Z</time></trkpt><trkpt lat="44.1140625" lon="11.3807742"><ele>431.79999999999995</ele><time>2026-04-11T08:02:19.494Z</time></trkpt><trkpt lat="44.1139275" lon="11.3807458"><ele>429.59999999999997</ele><time>2026-04-11T08:02:21.494Z</time></trkpt><trkpt lat="44.1138455" lon="11.38072"><ele>427.4</ele><time>2026-04-11T08:02:22.494Z</time></trkpt><trkpt lat="44.1137567" lon="11.3806812"><ele>425.2</ele><time>2026-04-11T08:02:23.495Z</time></trkpt><trkpt lat="44.1136623" lon="11.3806302"><ele>423.0</ele><time>2026-04-11T08:02:24.494Z</time></trkpt><trkpt lat="44.1135657" lon="11.3805765"><ele>423.0</ele><time>2026-04-11T08:02:25.495Z</time></trkpt><trkpt lat="44.1134727" lon="11.3805275"><ele>423.0</ele><time>2026-04-11T08:02:26.495Z</time></trkpt><trkpt lat="44.1133897" lon="11.3804975"><ele>423.0</ele><time>2026-04-11T08:02:27.496Z</time></trkpt><trkpt lat="44.1133167" lon="11.380499"><ele>423.0</ele><time>2026-04-11T08:02:28.496Z</time></trkpt><trkpt lat="44.1132257" lon="11.3805865"><ele>423.0</ele><time>2026-04-11T08:02:30.493Z</time></trkpt><trkpt lat="44.1131877" lon="11.380667"><ele>423.0</ele><time>2026-04-11T08:02:32.493Z</time></trkpt><trkpt lat="44.1131897" lon="11.3807725"><ele>423.0</ele><time>2026-04-11T08:02:57.493Z</time></trkpt><trkpt lat="44.113226" lon="11.3808472"><ele>423.0</ele><time>2026-04-11T08:02:59.496Z</time></trkpt><trkpt lat="44.1132563" lon="11.3810027"><ele>423.0</ele><time>2026-04-11T08:03:01.494Z</time></trkpt><trkpt lat="44.1132903" lon="11.3810912"><ele>423.0</ele><time>2026-04-11T08:03:02.494Z</time></trkpt><trkpt lat="44.113346" lon="11.3811653"><ele>423.0</ele><time>2026-04-11T08:03:03.493Z</time></trkpt><trkpt lat="44.113422" lon="11.381219"><ele>423.0</ele><time>2026-04-11T08:03:04.495Z</time></trkpt><trkpt lat="44.1135105" lon="11.3812528"><ele>423.0</ele><time>2026-04-11T08:03:05.495Z</time></trkpt><trkpt lat="44.113607" lon="11.3812718"><ele>423.0</ele><time>2026-04-11T08:03:06.495Z</time></trkpt><trkpt lat="44.1137082" lon="11.3812895"><ele>423.0</ele><time>2026-04-11T08:03:07.495Z</time></trkpt><trkpt lat="44.1138122" lon="11.3813038"><ele>423.0</ele><time>2026-04-11T08:03:08.494Z</time></trkpt><trkpt lat="44.1139195" lon="11.3813142"><ele>423.0</ele><time>2026-04-11T08:03:09.493Z</time></trkpt><trkpt lat="44.1140285" lon="11.381325"><ele>422.4</ele><time>2026-04-11T08:03:10.494Z</time></trkpt><trkpt lat="44.1141372" lon="11.3813373"><ele>421.79999999999995</ele><time>2026-04-11T08:03:11.495Z</time></trkpt><trkpt lat="44.1142443" lon="11.3813492"><ele>421.2</ele><time>2026-04-11T08:03:12.495Z</time></trkpt><trkpt lat="44.1143497" lon="11.3813605"><ele>420.6</ele><time>2026-04-11T08:03:13.494Z</time></trkpt><trkpt lat="44.1144523" lon="11.381371"><ele>420.0</ele><time>2026-04-11T08:03:14.495Z</time></trkpt><trkpt lat="44.114551" lon="11.3813865"><ele>420.0</ele><time>2026-04-11T08:03:15.495Z</time></trkpt><trkpt lat="44.11464" lon="11.3814208"><ele>420.0</ele><time>2026-04-11T08:03:16.499Z</time></trkpt><trkpt lat="44.1147152" lon="11.3814808"><ele>420.0</ele><time>2026-04-11T08:03:17.495Z</time></trkpt><trkpt lat="44.1147793" lon="11.3815632"><ele>420.0</ele><time>2026-04-11T08:03:18.493Z</time></trkpt><trkpt lat="44.114837" lon="11.38166"><ele>420.0</ele><time>2026-04-11T08:03:19.492Z</time></trkpt><trkpt lat="44.1148807" lon="11.3817698"><ele>420.0</ele><time>2026-04-11T08:03:20.493Z</time></trkpt><trkpt lat="44.1148983" lon="11.3818893"><ele>420.0</ele><time>2026-04-11T08:03:21.493Z</time></trkpt><trkpt lat="44.1148888" lon="11.3820143"><ele>420.0</ele><time>2026-04-11T08:03:22.492Z</time></trkpt><trkpt lat="44.1148645" lon="11.3821452"><ele>420.0</ele><time>2026-04-11T08:03:23.494Z</time></trkpt><trkpt lat="44.1148365" lon="11.3822812"><ele>420.0</ele><time>2026-04-11T08:03:24.494Z</time></trkpt><trkpt lat="44.1148048" lon="11.3824225"><ele>420.0</ele><time>2026-04-11T08:03:25.494Z</time></trkpt><trkpt lat="44.1147707" lon="11.38257"><ele>419.5</ele><time>2026-04-11T08:03:26.495Z</time></trkpt><trkpt lat="44.114736" lon="11.3827227"><ele>419.0</ele><time>2026-04-11T08:03:27.496Z</time></trkpt><trkpt lat="44.1147015" lon="11.3828788"><ele>418.5</ele><time>2026-04-11T08:03:28.498Z</time></trkpt><trkpt lat="44.1146692" lon="11.3830353"><ele>418.0</ele><time>2026-04-11T08:03:29.495Z</time></trkpt><trkpt lat="44.114646" lon="11.3831928"><ele>417.75</ele><time>2026-04-11T08:03:30.495Z</time></trkpt><trkpt lat="44.1146322" lon="11.383351"><ele>417.5</ele><time>2026-04-11T08:03:31.496Z</time></trkpt><trkpt lat="44.1146285" lon="11.383508"><ele>417.25</ele><time>2026-04-11T08:03:32.495Z</time></trkpt><trkpt lat="44.1146433" lon="11.3836642"><ele>417.0</ele><time>2026-04-11T08:03:33.497Z</time></trkpt><trkpt lat="44.1146747" lon="11.383818"><ele>416.75</ele><time>2026-04-11T08:03:34.494Z</time></trkpt><trkpt lat="44.1147172" lon="11.3839687"><ele>416.5</ele><time>2026-04-11T08:03:35.495Z</time></trkpt><trkpt lat="44.114772" lon="11.3841153"><ele>416.25</ele><time>2026-04-11T08:03:36.495Z</time></trkpt><trkpt lat="44.1148382" lon="11.384257"><ele>416.0</ele><time>2026-04-11T08:03:37.495Z</time></trkpt><trkpt lat="44.1149155" lon="11.3843927"><ele>416.0</ele><time>2026-04-11T08:03:38.496Z</time></trkpt><trkpt lat="44.1150018" lon="11.3845205"><ele>416.0</ele><time>2026-04-11T08:03:39.495Z</time></trkpt><trkpt lat="44.1150935" lon="11.38464"><ele>416.0</ele><time>2026-04-11T08:03:40.494Z</time></trkpt><trkpt lat="44.1151845" lon="11.3847518"><ele>416.0</ele><time>2026-04-11T08:03:41.496Z</time></trkpt><trkpt lat="44.1152697" lon="11.3848522"><ele>416.3333333333333</ele><time>2026-04-11T08:03:42.496Z</time></trkpt><trkpt lat="44.115341" lon="11.3849435"><ele>416.66666666666663</ele><time>2026-04-11T08:03:43.494Z</time></trkpt><trkpt lat="44.1153947" lon="11.3850313"><ele>417.0</ele><time>2026-04-11T08:03:44.492Z</time></trkpt><trkpt lat="44.1154347" lon="11.385111"><ele>417.33333333333337</ele><time>2026-04-11T08:03:45.492Z</time></trkpt><trkpt lat="44.115503" lon="11.3852187"><ele>417.6666666666667</ele><time>2026-04-11T08:03:47.496Z</time></trkpt><trkpt lat="44.11553" lon="11.3851285"><ele>418.0</ele><time>2026-04-11T08:03:51.494Z</time></trkpt><trkpt lat="44.1154537" lon="11.385004"><ele>418.00000000000006</ele><time>2026-04-11T08:03:53.495Z</time></trkpt><trkpt lat="44.1153668" lon="11.384906"><ele>418.0</ele><time>2026-04-11T08:03:55.495Z</time></trkpt><trkpt lat="44.1152982" lon="11.3848237"><ele>418.0</ele><time>2026-04-11T08:03:57.495Z</time></trkpt><trkpt lat="44.1152445" lon="11.3847552"><ele>418.0</ele><time>2026-04-11T08:03:59.496Z</time></trkpt><trkpt lat="44.115191" lon="11.3847033"><ele>418.00000000000006</ele><time>2026-04-11T08:04:06.493Z</time></trkpt><trkpt lat="44.115256" lon="11.3846828"><ele>418.0</ele><time>2026-04-11T08:04:10.492Z</time></trkpt><trkpt lat="44.1153365" lon="11.3847605"><ele>418.0</ele><time>2026-04-11T08:04:12.495Z</time></trkpt><trkpt lat="44.1154122" lon="11.3847942"><ele>418.0</ele><time>2026-04-11T08:04:14.494Z</time></trkpt><trkpt lat="44.1154875" lon="11.3848415"><ele>418.0</ele><time>2026-04-11T08:04:16.495Z</time></trkpt><trkpt lat="44.1155468" lon="11.3849272"><ele>418.0</ele><time>2026-04-11T08:04:18.496Z</time></trkpt><trkpt lat="44.1156288" lon="11.3850238"><ele>418.0</ele><time>2026-04-11T08:04:20.494Z</time></trkpt><trkpt lat="44.1157168" lon="11.3850925"><ele>417.50000000000006</ele><time>2026-04-11T08:04:22.494Z</time></trkpt><trkpt lat="44.1157855" lon="11.3852212"><ele>417.0</ele><time>2026-04-11T08:04:24.494Z</time></trkpt><trkpt lat="44.115825" lon="11.3853178"><ele>416.5</ele><time>2026-04-11T08:04:25.494Z</time></trkpt><trkpt lat="44.1158707" lon="11.3854212"><ele>416.0</ele><time>2026-04-11T08:04:26.495Z</time></trkpt><trkpt lat="44.1159138" lon="11.385519"><ele>415.50000000000006</ele><time>2026-04-11T08:04:27.495Z</time></trkpt><trkpt lat="44.1159537" lon="11.3856225"><ele>415.0</ele><time>2026-04-11T08:04:28.495Z</time></trkpt><trkpt lat="44.1159952" lon="11.3857288"><ele>415.0</ele><time>2026-04-11T08:04:29.494Z</time></trkpt><trkpt lat="44.1160345" lon="11.3858457"><ele>415.0</ele><time>2026-04-11T08:04:30.495Z</time></trkpt><trkpt lat="44.1160738" lon="11.385978"><ele>415.0</ele><time>2026-04-11T08:04:31.493Z</time></trkpt><trkpt lat="44.1161092" lon="11.3861142"><ele>415.0</ele><time>2026-04-11T08:04:32.491Z</time></trkpt><trkpt lat="44.1161387" lon="11.3862488"><ele>415.0</ele><time>2026-04-11T08:04:33.491Z</time></trkpt><trkpt lat="44.1161653" lon="11.3863835"><ele>415.6666666666667</ele><time>2026-04-11T08:04:34.491Z</time></trkpt><trkpt lat="44.116189" lon="11.3865257"><ele>416.33333333333337</ele><time>2026-04-11T08:04:35.492Z</time></trkpt><trkpt lat="44.1162065" lon="11.3866595"><ele>417.0</ele><time>2026-04-11T08:04:36.493Z</time></trkpt><trkpt lat="44.1162245" lon="11.386783"><ele>417.66666666666663</ele><time>2026-04-11T08:04:37.494Z</time></trkpt><trkpt lat="44.116235" lon="11.3868953"><ele>418.3333333333333</ele><time>2026-04-11T08:04:38.495Z</time></trkpt><trkpt lat="44.1162397" lon="11.386996"><ele>419.0</ele><time>2026-04-11T08:04:39.494Z</time></trkpt><trkpt lat="44.1162578" lon="11.3871512"><ele>419.4</ele><time>2026-04-11T08:04:41.493Z</time></trkpt><trkpt lat="44.1162867" lon="11.3873062"><ele>419.79999999999995</ele><time>2026-04-11T08:04:43.495Z</time></trkpt><trkpt lat="44.116319" lon="11.3874455"><ele>420.20000000000005</ele><time>2026-04-11T08:04:45.494Z</time></trkpt><trkpt lat="44.1163412" lon="11.3875533"><ele>420.6</ele><time>2026-04-11T08:04:47.495Z</time></trkpt><trkpt lat="44.1163647" lon="11.3876582"><ele>421.0</ele><time>2026-04-11T08:04:49.497Z</time></trkpt><trkpt lat="44.1163813" lon="11.3877622"><ele>421.0</ele><time>2026-04-11T08:04:52.493Z</time></trkpt><trkpt lat="44.1164178" lon="11.38789"><ele>421.0</ele><time>2026-04-11T08:04:57.492Z</time></trkpt><trkpt lat="44.1164658" lon="11.388047"><ele>421.0</ele><time>2026-04-11T08:04:59.491Z</time></trkpt><trkpt lat="44.116507" lon="11.3881767"><ele>421.0</ele><time>2026-04-11T08:05:01.494Z</time></trkpt><trkpt lat="44.1165425" lon="11.3882907"><ele>421.0</ele><time>2026-04-11T08:05:03.494Z</time></trkpt><trkpt lat="44.1165865" lon="11.3884122"><ele>421.00000000000006</ele><time>2026-04-11T08:05:06.495Z</time></trkpt><trkpt lat="44.1166252" lon="11.3885157"><ele>421.0</ele><time>2026-04-11T08:05:09.495Z</time></trkpt><trkpt lat="44.1165848" lon="11.388444"><ele>421.0</ele><time>2026-04-11T08:06:03.497Z</time></trkpt><trkpt lat="44.116545" lon="11.3883292"><ele>421.0</ele><time>2026-04-11T08:06:05.494Z</time></trkpt><trkpt lat="44.116513" lon="11.3882162"><ele>421.00000000000006</ele><time>2026-04-11T08:06:07.495Z</time></trkpt><trkpt lat="44.1164855" lon="11.3881188"><ele>421.0</ele><time>2026-04-11T08:06:09.495Z</time></trkpt><trkpt lat="44.1164533" lon="11.3880065"><ele>421.00000000000006</ele><time>2026-04-11T08:06:11.493Z</time></trkpt><trkpt lat="44.1164265" lon="11.3879007"><ele>421.0</ele><time>2026-04-11T08:06:13.492Z</time></trkpt><trkpt lat="44.1164002" lon="11.3878105"><ele>421.0</ele><time>2026-04-11T08:06:21.495Z</time></trkpt><trkpt lat="44.1163883" lon="11.3877088"><ele>421.0</ele><time>2026-04-11T08:06:26.495Z</time></trkpt><trkpt lat="44.1163593" lon="11.3875867"><ele>421.00000000000006</ele><time>2026-04-11T08:06:29.495Z</time></trkpt><trkpt lat="44.116334" lon="11.387479"><ele>421.0</ele><time>2026-04-11T08:06:31.494Z</time></trkpt><trkpt lat="44.1163085" lon="11.3873777"><ele>421.00000000000006</ele><time>2026-04-11T08:06:33.494Z</time></trkpt><trkpt lat="44.1162882" lon="11.3872873"><ele>421.0</ele><time>2026-04-11T08:06:35.494Z</time></trkpt><trkpt lat="44.1162702" lon="11.3871978"><ele>421.0</ele><time>2026-04-11T08:06:37.492Z</time></trkpt><trkpt lat="44.1162578" lon="11.3871108"><ele>421.0</ele><time>2026-04-11T08:06:39.495Z</time></trkpt><trkpt lat="44.1162485" lon="11.3869652"><ele>421.00000000000006</ele><time>2026-04-11T08:06:41.496Z</time></trkpt><trkpt lat="44.1162315" lon="11.3867873"><ele>421.0</ele><time>2026-04-11T08:06:43.494Z</time></trkpt><trkpt lat="44.1162147" lon="11.3866815"><ele>420.6666666666667</ele><time>2026-04-11T08:06:44.492Z</time></trkpt><trkpt lat="44.1161988" lon="11.3865703"><ele>420.33333333333337</ele><time>2026-04-11T08:06:45.495Z</time></trkpt><trkpt lat="44.1161847" lon="11.3864645"><ele>420.0</ele><time>2026-04-11T08:06:46.495Z</time></trkpt><trkpt lat="44.1161683" lon="11.3863618"><ele>419.66666666666663</ele><time>2026-04-11T08:06:47.495Z</time></trkpt><trkpt lat="44.1161478" lon="11.3862608"><ele>419.3333333333333</ele><time>2026-04-11T08:06:48.495Z</time></trkpt><trkpt lat="44.1161228" lon="11.3861595"><ele>419.0</ele><time>2026-04-11T08:06:49.493Z</time></trkpt><trkpt lat="44.116094" lon="11.3860567"><ele>418.4285714285714</ele><time>2026-04-11T08:06:50.496Z</time></trkpt><trkpt lat="44.1160642" lon="11.3859567"><ele>417.85714285714283</ele><time>2026-04-11T08:06:51.494Z</time></trkpt><trkpt lat="44.1160352" lon="11.3858648"><ele>417.2857142857143</ele><time>2026-04-11T08:06:52.495Z</time></trkpt><trkpt lat="44.1160042" lon="11.3857752"><ele>416.71428571428567</ele><time>2026-04-11T08:06:53.495Z</time></trkpt><trkpt lat="44.1159678" lon="11.3856823"><ele>416.14285714285717</ele><time>2026-04-11T08:06:54.495Z</time></trkpt><trkpt lat="44.1159297" lon="11.3855902"><ele>415.57142857142856</ele><time>2026-04-11T08:06:55.493Z</time></trkpt><trkpt lat="44.1158917" lon="11.3854993"><ele>415.0</ele><time>2026-04-11T08:06:56.493Z</time></trkpt><trkpt lat="44.1158552" lon="11.3854153"><ele>414.83333333333337</ele><time>2026-04-11T08:06:57.495Z</time></trkpt><trkpt lat="44.1158008" lon="11.3852755"><ele>414.6666666666667</ele><time>2026-04-11T08:06:59.493Z</time></trkpt><trkpt lat="44.115755" lon="11.385164"><ele>414.5</ele><time>2026-04-11T08:07:01.493Z</time></trkpt><trkpt lat="44.1157443" lon="11.3850593"><ele>414.33333333333337</ele><time>2026-04-11T08:07:03.492Z</time></trkpt><trkpt lat="44.1157203" lon="11.3849725"><ele>414.1666666666667</ele><time>2026-04-11T08:07:05.493Z</time></trkpt><trkpt lat="44.1157038" lon="11.3848567"><ele>414.0</ele><time>2026-04-11T08:07:40.495Z</time></trkpt><trkpt lat="44.1156798" lon="11.3847647"><ele>414.3333333333333</ele><time>2026-04-11T08:07:42.494Z</time></trkpt><trkpt lat="44.1156308" lon="11.3846427"><ele>414.66666666666663</ele><time>2026-04-11T08:07:44.494Z</time></trkpt><trkpt lat="44.1156065" lon="11.3845595"><ele>415.0</ele><time>2026-04-11T08:07:45.494Z</time></trkpt><trkpt lat="44.1155937" lon="11.3844727"><ele>415.3333333333333</ele><time>2026-04-11T08:07:46.495Z</time></trkpt><trkpt lat="44.1156018" lon="11.3843323"><ele>415.66666666666663</ele><time>2026-04-11T08:07:48.492Z</time></trkpt><trkpt lat="44.1156633" lon="11.384276"><ele>416.0</ele><time>2026-04-11T08:07:50.494Z</time></trkpt><trkpt lat="44.11573" lon="11.3842553"><ele>415.66666666666663</ele><time>2026-04-11T08:07:54.493Z</time></trkpt><trkpt lat="44.115793" lon="11.3842312"><ele>415.3333333333333</ele><time>2026-04-11T08:07:57.493Z</time></trkpt><trkpt lat="44.1158603" lon="11.3842073"><ele>415.0</ele><time>2026-04-11T08:08:00.495Z</time></trkpt><trkpt lat="44.1159355" lon="11.3842097"><ele>414.66666666666663</ele><time>2026-04-11T08:08:03.495Z</time></trkpt><trkpt lat="44.116008" lon="11.3841797"><ele>414.3333333333333</ele><time>2026-04-11T08:08:05.497Z</time></trkpt><trkpt lat="44.1161077" lon="11.3841325"><ele>414.0</ele><time>2026-04-11T08:08:07.494Z</time></trkpt><trkpt lat="44.1162002" lon="11.3841807"><ele>414.0</ele><time>2026-04-11T08:08:09.495Z</time></trkpt><trkpt lat="44.1162677" lon="11.3843195"><ele>414.0</ele><time>2026-04-11T08:08:11.498Z</time></trkpt><trkpt lat="44.1163032" lon="11.384398"><ele>414.0</ele><time>2026-04-11T08:08:12.495Z</time></trkpt><trkpt lat="44.1163428" lon="11.3844803"><ele>414.0</ele><time>2026-04-11T08:08:13.495Z</time></trkpt><trkpt lat="44.1163798" lon="11.3845723"><ele>414.0</ele><time>2026-04-11T08:08:14.493Z</time></trkpt><trkpt lat="44.1164115" lon="11.3846748"><ele>414.0</ele><time>2026-04-11T08:08:15.492Z</time></trkpt><trkpt lat="44.1164447" lon="11.3847782"><ele>414.0</ele><time>2026-04-11T08:08:16.493Z</time></trkpt><trkpt lat="44.116487" lon="11.3848688"><ele>414.0</ele><time>2026-04-11T08:08:17.494Z</time></trkpt><trkpt lat="44.1165398" lon="11.3849463"><ele>414.0</ele><time>2026-04-11T08:08:18.495Z</time></trkpt><trkpt lat="44.1165873" lon="11.3850152"><ele>414.0</ele><time>2026-04-11T08:08:19.494Z</time></trkpt><trkpt lat="44.1166302" lon="11.3851738"><ele>414.0</ele><time>2026-04-11T08:08:21.495Z</time></trkpt><trkpt lat="44.1166327" lon="11.3852762"><ele>414.0</ele><time>2026-04-11T08:08:22.496Z</time></trkpt><trkpt lat="44.1166397" lon="11.3853893"><ele>413.79999999999995</ele><time>2026-04-11T08:08:23.496Z</time></trkpt><trkpt lat="44.1166555" lon="11.3855137"><ele>413.59999999999997</ele><time>2026-04-11T08:08:24.495Z</time></trkpt><trkpt lat="44.1166798" lon="11.3856462"><ele>413.4</ele><time>2026-04-11T08:08:25.495Z</time></trkpt><trkpt lat="44.1167042" lon="11.3857875"><ele>413.2</ele><time>2026-04-11T08:08:26.495Z</time></trkpt><trkpt lat="44.116729" lon="11.3859355"><ele>413.0</ele><time>2026-04-11T08:08:27.495Z</time></trkpt><trkpt lat="44.1167597" lon="11.3860833"><ele>413.0</ele><time>2026-04-11T08:08:28.495Z</time></trkpt><trkpt lat="44.1167967" lon="11.3862317"><ele>413.0</ele><time>2026-04-11T08:08:29.496Z</time></trkpt><trkpt lat="44.116838" lon="11.386377"><ele>413.0</ele><time>2026-04-11T08:08:30.495Z</time></trkpt><trkpt lat="44.1168803" lon="11.3865218"><ele>413.0</ele><time>2026-04-11T08:08:31.494Z</time></trkpt><trkpt lat="44.1169222" lon="11.386665"><ele>413.0</ele><time>2026-04-11T08:08:32.496Z</time></trkpt><trkpt lat="44.1169648" lon="11.3868055"><ele>413.0</ele><time>2026-04-11T08:08:33.493Z</time></trkpt><trkpt lat="44.1170113" lon="11.3869458"><ele>413.0</ele><time>2026-04-11T08:08:34.493Z</time></trkpt><trkpt lat="44.1170608" lon="11.3870855"><ele>413.0</ele><time>2026-04-11T08:08:35.494Z</time></trkpt><trkpt lat="44.117103" lon="11.3872262"><ele>413.0</ele><time>2026-04-11T08:08:36.495Z</time></trkpt><trkpt lat="44.1171412" lon="11.387355"><ele>413.0</ele><time>2026-04-11T08:08:37.492Z</time></trkpt><trkpt lat="44.1171882" lon="11.3874617"><ele>412.8333333333333</ele><time>2026-04-11T08:08:38.494Z</time></trkpt><trkpt lat="44.1172452" lon="11.3875608"><ele>412.66666666666663</ele><time>2026-04-11T08:08:39.493Z</time></trkpt><trkpt lat="44.1172905" lon="11.3876613"><ele>412.5</ele><time>2026-04-11T08:08:40.492Z</time></trkpt><trkpt lat="44.1173122" lon="11.387764"><ele>412.33333333333337</ele><time>2026-04-11T08:08:41.495Z</time></trkpt><trkpt lat="44.1173007" lon="11.3878718"><ele>412.1666666666667</ele><time>2026-04-11T08:08:42.495Z</time></trkpt><trkpt lat="44.1172798" lon="11.387979"><ele>412.0</ele><time>2026-04-11T08:08:43.494Z</time></trkpt><trkpt lat="44.1172802" lon="11.3880848"><ele>411.8</ele><time>2026-04-11T08:08:44.494Z</time></trkpt><trkpt lat="44.1173018" lon="11.3882028"><ele>411.6</ele><time>2026-04-11T08:08:45.494Z</time></trkpt><trkpt lat="44.1173333" lon="11.3883285"><ele>411.40000000000003</ele><time>2026-04-11T08:08:46.494Z</time></trkpt><trkpt lat="44.1173707" lon="11.3884572"><ele>411.20000000000005</ele><time>2026-04-11T08:08:47.494Z</time></trkpt><trkpt lat="44.11742" lon="11.3885817"><ele>411.0</ele><time>2026-04-11T08:08:48.493Z</time></trkpt><trkpt lat="44.117481" lon="11.388691"><ele>411.0</ele><time>2026-04-11T08:08:49.494Z</time></trkpt><trkpt lat="44.1175462" lon="11.3887787"><ele>411.0</ele><time>2026-04-11T08:08:50.494Z</time></trkpt><trkpt lat="44.1176133" lon="11.3888683"><ele>411.0</ele><time>2026-04-11T08:08:51.494Z</time></trkpt><trkpt lat="44.1176727" lon="11.3889687"><ele>411.0</ele><time>2026-04-11T08:08:52.495Z</time></trkpt><trkpt lat="44.1177268" lon="11.3890818"><ele>411.0</ele><time>2026-04-11T08:08:53.494Z</time></trkpt><trkpt lat="44.1177767" lon="11.3891998"><ele>410.8333333333333</ele><time>2026-04-11T08:08:54.492Z</time></trkpt><trkpt lat="44.1178118" lon="11.3893083"><ele>410.66666666666663</ele><time>2026-04-11T08:08:55.493Z</time></trkpt><trkpt lat="44.1178247" lon="11.3893942"><ele>410.5</ele><time>2026-04-11T08:08:56.493Z</time></trkpt><trkpt lat="44.1177785" lon="11.3895138"><ele>410.3333333333333</ele><time>2026-04-11T08:08:58.493Z</time></trkpt><trkpt lat="44.11774" lon="11.3895898"><ele>410.16666666666663</ele><time>2026-04-11T08:08:59.494Z</time></trkpt><trkpt lat="44.1177232" lon="11.3897298"><ele>410.0</ele><time>2026-04-11T08:09:01.491Z</time></trkpt><trkpt lat="44.1177963" lon="11.3898673"><ele>410.0</ele><time>2026-04-11T08:09:03.492Z</time></trkpt><trkpt lat="44.1178467" lon="11.3900177"><ele>410.0</ele><time>2026-04-11T08:09:05.493Z</time></trkpt><trkpt lat="44.117828" lon="11.3901922"><ele>410.0</ele><time>2026-04-11T08:09:07.494Z</time></trkpt><trkpt lat="44.1178032" lon="11.3902877"><ele>410.0</ele><time>2026-04-11T08:09:08.494Z</time></trkpt><trkpt lat="44.117769" lon="11.3903792"><ele>410.0</ele><time>2026-04-11T08:09:09.494Z</time></trkpt><trkpt lat="44.1177312" lon="11.3904597"><ele>410.16666666666663</ele><time>2026-04-11T08:09:10.494Z</time></trkpt><trkpt lat="44.1177007" lon="11.390539"><ele>410.3333333333333</ele><time>2026-04-11T08:09:11.493Z</time></trkpt><trkpt lat="44.1177133" lon="11.3906843"><ele>410.5</ele><time>2026-04-11T08:09:13.493Z</time></trkpt><trkpt lat="44.1177535" lon="11.390756"><ele>410.66666666666663</ele><time>2026-04-11T08:09:14.492Z</time></trkpt><trkpt lat="44.117805" lon="11.390838"><ele>410.8333333333333</ele><time>2026-04-11T08:09:15.494Z</time></trkpt><trkpt lat="44.117859" lon="11.3909317"><ele>411.0</ele><time>2026-04-11T08:09:16.493Z</time></trkpt><trkpt lat="44.1179077" lon="11.391035"><ele>411.0</ele><time>2026-04-11T08:09:17.494Z</time></trkpt><trkpt lat="44.1179537" lon="11.3911478"><ele>411.0</ele><time>2026-04-11T08:09:18.494Z</time></trkpt><trkpt lat="44.1179975" lon="11.3912607"><ele>411.0</ele><time>2026-04-11T08:09:19.494Z</time></trkpt><trkpt lat="44.1180475" lon="11.3913728"><ele>411.0</ele><time>2026-04-11T08:09:20.496Z</time></trkpt><trkpt lat="44.1181045" lon="11.3914827"><ele>411.0</ele><time>2026-04-11T08:09:21.495Z</time></trkpt><trkpt lat="44.1181688" lon="11.3915858"><ele>410.8333333333333</ele><time>2026-04-11T08:09:22.494Z</time></trkpt><trkpt lat="44.1182282" lon="11.3916813"><ele>410.66666666666663</ele><time>2026-04-11T08:09:23.495Z</time></trkpt><trkpt lat="44.1182775" lon="11.3917765"><ele>410.5</ele><time>2026-04-11T08:09:24.496Z</time></trkpt><trkpt lat="44.1183202" lon="11.3918695"><ele>410.3333333333333</ele><time>2026-04-11T08:09:25.493Z</time></trkpt><trkpt lat="44.1183582" lon="11.3919613"><ele>410.16666666666663</ele><time>2026-04-11T08:09:26.491Z</time></trkpt><trkpt lat="44.1183897" lon="11.3920475"><ele>410.0</ele><time>2026-04-11T08:09:27.491Z</time></trkpt><trkpt lat="44.118426" lon="11.3921338"><ele>409.5714285714286</ele><time>2026-04-11T08:09:28.492Z</time></trkpt><trkpt lat="44.1184578" lon="11.3922227"><ele>409.1428571428571</ele><time>2026-04-11T08:09:29.493Z</time></trkpt><trkpt lat="44.1184823" lon="11.3923145"><ele>408.7142857142857</ele><time>2026-04-11T08:09:30.495Z</time></trkpt><trkpt lat="44.1185035" lon="11.3924052"><ele>408.28571428571433</ele><time>2026-04-11T08:09:31.494Z</time></trkpt><trkpt lat="44.1185242" lon="11.3924948"><ele>407.8571428571429</ele><time>2026-04-11T08:09:32.494Z</time></trkpt><trkpt lat="44.1185425" lon="11.3925843"><ele>407.42857142857144</ele><time>2026-04-11T08:09:33.494Z</time></trkpt><trkpt lat="44.1185608" lon="11.3926713"><ele>407.0</ele><time>2026-04-11T08:09:34.494Z</time></trkpt><trkpt lat="44.1185788" lon="11.3927608"><ele>407.00000000000006</ele><time>2026-04-11T08:09:35.495Z</time></trkpt><trkpt lat="44.1185958" lon="11.3928545"><ele>407.0</ele><time>2026-04-11T08:09:36.494Z</time></trkpt><trkpt lat="44.1186063" lon="11.39295"><ele>407.0</ele><time>2026-04-11T08:09:37.494Z</time></trkpt><trkpt lat="44.118612" lon="11.3930457"><ele>407.0</ele><time>2026-04-11T08:09:38.495Z</time></trkpt><trkpt lat="44.118621" lon="11.3931448"><ele>407.0</ele><time>2026-04-11T08:09:39.494Z</time></trkpt><trkpt lat="44.1186343" lon="11.3932488"><ele>407.00000000000006</ele><time>2026-04-11T08:09:40.495Z</time></trkpt><trkpt lat="44.1186532" lon="11.3933555"><ele>407.0</ele><time>2026-04-11T08:09:41.494Z</time></trkpt><trkpt lat="44.1186803" lon="11.3934623"><ele>407.0</ele><time>2026-04-11T08:09:42.492Z</time></trkpt><trkpt lat="44.1187205" lon="11.3935782"><ele>407.0</ele><time>2026-04-11T08:09:43.493Z</time></trkpt><trkpt lat="44.1187703" lon="11.3937015"><ele>407.0</ele><time>2026-04-11T08:09:44.495Z</time></trkpt><trkpt lat="44.1188268" lon="11.3938255"><ele>407.0</ele><time>2026-04-11T08:09:45.494Z</time></trkpt><trkpt lat="44.11889" lon="11.3939483"><ele>407.0</ele><time>2026-04-11T08:09:46.494Z</time></trkpt><trkpt lat="44.1189605" lon="11.3940677"><ele>408.0</ele><time>2026-04-11T08:09:47.495Z</time></trkpt><trkpt lat="44.1190347" lon="11.3941777"><ele>409.0</ele><time>2026-04-11T08:09:48.494Z</time></trkpt><trkpt lat="44.1191112" lon="11.3942812"><ele>410.0</ele><time>2026-04-11T08:09:49.494Z</time></trkpt><trkpt lat="44.1191905" lon="11.3943838"><ele>411.0</ele><time>2026-04-11T08:09:50.493Z</time></trkpt><trkpt lat="44.1192725" lon="11.3944833"><ele>412.0</ele><time>2026-04-11T08:09:51.49Z</time></trkpt><trkpt lat="44.1193545" lon="11.3945788"><ele>412.6</ele><time>2026-04-11T08:09:52.491Z</time></trkpt><trkpt lat="44.119436" lon="11.3946762"><ele>413.20000000000005</ele><time>2026-04-11T08:09:53.491Z</time></trkpt><trkpt lat="44.1195157" lon="11.3947725"><ele>413.8</ele><time>2026-04-11T08:09:54.491Z</time></trkpt><trkpt lat="44.1195953" lon="11.3948682"><ele>414.4</ele><time>2026-04-11T08:09:55.492Z</time></trkpt><trkpt lat="44.1196752" lon="11.3949645"><ele>415.0</ele><time>2026-04-11T08:09:56.494Z</time></trkpt><trkpt lat="44.119756" lon="11.3950648"><ele>415.0</ele><time>2026-04-11T08:09:57.493Z</time></trkpt><trkpt lat="44.1198302" lon="11.3951643"><ele>415.0</ele><time>2026-04-11T08:09:58.492Z</time></trkpt><trkpt lat="44.1198975" lon="11.3952595"><ele>415.0</ele><time>2026-04-11T08:09:59.493Z</time></trkpt><trkpt lat="44.1199597" lon="11.3953467"><ele>415.0</ele><time>2026-04-11T08:10:00.491Z</time></trkpt><trkpt lat="44.1200262" lon="11.3954383"><ele>415.0</ele><time>2026-04-11T08:10:01.493Z</time></trkpt><trkpt lat="44.1200997" lon="11.3955323"><ele>413.8</ele><time>2026-04-11T08:10:02.494Z</time></trkpt><trkpt lat="44.1201777" lon="11.3956272"><ele>412.6</ele><time>2026-04-11T08:10:03.493Z</time></trkpt><trkpt lat="44.120261" lon="11.3957195"><ele>411.4</ele><time>2026-04-11T08:10:04.493Z</time></trkpt><trkpt lat="44.1203505" lon="11.3958057"><ele>410.2</ele><time>2026-04-11T08:10:05.493Z</time></trkpt><trkpt lat="44.1204438" lon="11.3958908"><ele>409.0</ele><time>2026-04-11T08:10:06.492Z</time></trkpt><trkpt lat="44.1205383" lon="11.3959788"><ele>409.0</ele><time>2026-04-11T08:10:07.493Z</time></trkpt><trkpt lat="44.1206332" lon="11.3960682"><ele>409.0</ele><time>2026-04-11T08:10:08.493Z</time></trkpt><trkpt lat="44.1207257" lon="11.3961583"><ele>409.0</ele><time>2026-04-11T08:10:09.491Z</time></trkpt><trkpt lat="44.1208135" lon="11.3962412"><ele>409.0</ele><time>2026-04-11T08:10:10.492Z</time></trkpt><trkpt lat="44.1208898" lon="11.3963123"><ele>409.0</ele><time>2026-04-11T08:10:11.493Z</time></trkpt><trkpt lat="44.1209542" lon="11.3963753"><ele>409.83333333333337</ele><time>2026-04-11T08:10:12.492Z</time></trkpt><trkpt lat="44.1210093" lon="11.3964372"><ele>410.6666666666667</ele><time>2026-04-11T08:10:13.49Z</time></trkpt><trkpt lat="44.1210567" lon="11.3964985"><ele>411.5</ele><time>2026-04-11T08:10:14.491Z</time></trkpt><trkpt lat="44.1211253" lon="11.3966123"><ele>412.33333333333337</ele><time>2026-04-11T08:10:16.488Z</time></trkpt><trkpt lat="44.1211973" lon="11.3966292"><ele>413.1666666666667</ele><time>2026-04-11T08:10:19.491Z</time></trkpt><trkpt lat="44.1211945" lon="11.3965147"><ele>414.0</ele><time>2026-04-11T08:10:21.489Z</time></trkpt><trkpt lat="44.1211698" lon="11.3964275"><ele>415.2</ele><time>2026-04-11T08:10:22.49Z</time></trkpt><trkpt lat="44.1211363" lon="11.3963227"><ele>416.4</ele><time>2026-04-11T08:10:23.49Z</time></trkpt><trkpt lat="44.1210957" lon="11.3962012"><ele>417.6</ele><time>2026-04-11T08:10:24.49Z</time></trkpt><trkpt lat="44.1210458" lon="11.3960698"><ele>418.8</ele><time>2026-04-11T08:10:25.489Z</time></trkpt><trkpt lat="44.1209833" lon="11.395932"><ele>420.0</ele><time>2026-04-11T08:10:26.49Z</time></trkpt><trkpt lat="44.1209147" lon="11.3958022"><ele>420.0</ele><time>2026-04-11T08:10:27.491Z</time></trkpt><trkpt lat="44.1208482" lon="11.395682"><ele>420.0</ele><time>2026-04-11T08:10:28.49Z</time></trkpt><trkpt lat="44.1207842" lon="11.3955682"><ele>420.0</ele><time>2026-04-11T08:10:29.49Z</time></trkpt><trkpt lat="44.1207205" lon="11.3954553"><ele>420.0</ele><time>2026-04-11T08:10:30.491Z</time></trkpt><trkpt lat="44.1206553" lon="11.3953428"><ele>420.0</ele><time>2026-04-11T08:10:31.491Z</time></trkpt><trkpt lat="44.1205892" lon="11.39523"><ele>418.3333333333333</ele><time>2026-04-11T08:10:32.491Z</time></trkpt><trkpt lat="44.1205273" lon="11.3951205"><ele>416.66666666666663</ele><time>2026-04-11T08:10:33.49Z</time></trkpt><trkpt lat="44.1204722" lon="11.3950195"><ele>415.0</ele><time>2026-04-11T08:10:34.491Z</time></trkpt><trkpt lat="44.1204208" lon="11.394934"><ele>413.3333333333333</ele><time>2026-04-11T08:10:35.49Z</time></trkpt><trkpt lat="44.1203795" lon="11.3948648"><ele>411.66666666666663</ele><time>2026-04-11T08:10:36.49Z</time></trkpt><trkpt lat="44.1202947" lon="11.3947963"><ele>410.0</ele><time>2026-04-11T08:10:38.493Z</time></trkpt><trkpt lat="44.120212" lon="11.3948603"><ele>409.99999999999994</ele><time>2026-04-11T08:10:40.49Z</time></trkpt><trkpt lat="44.1201423" lon="11.395008"><ele>410.0</ele><time>2026-04-11T08:10:42.49Z</time></trkpt><trkpt lat="44.1201017" lon="11.3950875"><ele>410.0</ele><time>2026-04-11T08:10:43.489Z</time></trkpt><trkpt lat="44.1200518" lon="11.3951627"><ele>410.0</ele><time>2026-04-11T08:10:44.492Z</time></trkpt><trkpt lat="44.1199973" lon="11.3952375"><ele>409.99999999999994</ele><time>2026-04-11T08:10:45.491Z</time></trkpt><trkpt lat="44.1199413" lon="11.3953118"><ele>410.0</ele><time>2026-04-11T08:10:46.491Z</time></trkpt><trkpt lat="44.1198895" lon="11.3953843"><ele>410.7142857142857</ele><time>2026-04-11T08:10:47.491Z</time></trkpt><trkpt lat="44.1198408" lon="11.3954542"><ele>411.4285714285714</ele><time>2026-04-11T08:10:48.49Z</time></trkpt><trkpt lat="44.1197935" lon="11.3955198"><ele>412.1428571428571</ele><time>2026-04-11T08:10:49.489Z</time></trkpt><trkpt lat="44.119747" lon="11.3955823"><ele>412.8571428571429</ele><time>2026-04-11T08:10:50.491Z</time></trkpt><trkpt lat="44.1196965" lon="11.395635"><ele>413.57142857142856</ele><time>2026-04-11T08:10:51.491Z</time></trkpt><trkpt lat="44.1196363" lon="11.3956607"><ele>414.2857142857143</ele><time>2026-04-11T08:10:52.492Z</time></trkpt><trkpt lat="44.1195668" lon="11.3956547"><ele>415.0</ele><time>2026-04-11T08:10:53.492Z</time></trkpt><trkpt lat="44.1194928" lon="11.3956283"><ele>418.00000000000006</ele><time>2026-04-11T08:10:54.489Z</time></trkpt><trkpt lat="44.119414" lon="11.3956035"><ele>421.0</ele><time>2026-04-11T08:10:55.489Z</time></trkpt><trkpt lat="44.119333" lon="11.3955855"><ele>424.0</ele><time>2026-04-11T08:10:56.49Z</time></trkpt><trkpt lat="44.1192522" lon="11.3955683"><ele>427.0</ele><time>2026-04-11T08:10:57.49Z</time></trkpt><trkpt lat="44.1191723" lon="11.395547"><ele>430.00000000000006</ele><time>2026-04-11T08:10:58.49Z</time></trkpt><trkpt lat="44.1190942" lon="11.3955187"><ele>433.0</ele><time>2026-04-11T08:10:59.492Z</time></trkpt><trkpt lat="44.1190172" lon="11.3954713"><ele>434.4</ele><time>2026-04-11T08:11:00.49Z</time></trkpt><trkpt lat="44.1189453" lon="11.3954072"><ele>435.79999999999995</ele><time>2026-04-11T08:11:01.492Z</time></trkpt><trkpt lat="44.118873" lon="11.3953313"><ele>437.2</ele><time>2026-04-11T08:11:02.49Z</time></trkpt><trkpt lat="44.118805" lon="11.3952407"><ele>438.6</ele><time>2026-04-11T08:11:03.489Z</time></trkpt><trkpt lat="44.118747" lon="11.3951347"><ele>440.0</ele><time>2026-04-11T08:11:04.492Z</time></trkpt><trkpt lat="44.1186928" lon="11.3950215"><ele>440.0</ele><time>2026-04-11T08:11:05.488Z</time></trkpt><trkpt lat="44.1186312" lon="11.3949153"><ele>440.0</ele><time>2026-04-11T08:11:06.488Z</time></trkpt><trkpt lat="44.1185555" lon="11.3948193"><ele>440.0</ele><time>2026-04-11T08:11:07.488Z</time></trkpt><trkpt lat="44.1184715" lon="11.3947362"><ele>440.0</ele><time>2026-04-11T08:11:08.489Z</time></trkpt><trkpt lat="44.1183823" lon="11.3946615"><ele>440.0</ele><time>2026-04-11T08:11:09.49Z</time></trkpt><trkpt lat="44.118293" lon="11.3945977"><ele>440.8</ele><time>2026-04-11T08:11:10.489Z</time></trkpt><trkpt lat="44.11821" lon="11.3945613"><ele>441.6</ele><time>2026-04-11T08:11:11.49Z</time></trkpt><trkpt lat="44.1181405" lon="11.394556"><ele>442.4</ele><time>2026-04-11T08:11:12.49Z</time></trkpt><trkpt lat="44.1180693" lon="11.3946615"><ele>443.2</ele><time>2026-04-11T08:11:14.492Z</time></trkpt><trkpt lat="44.1181515" lon="11.3947965"><ele>444.0</ele><time>2026-04-11T08:11:16.491Z</time></trkpt><trkpt lat="44.1182297" lon="11.3948477"><ele>443.2</ele><time>2026-04-11T08:11:17.492Z</time></trkpt><trkpt lat="44.1183062" lon="11.394916"><ele>442.4</ele><time>2026-04-11T08:11:18.491Z</time></trkpt><trkpt lat="44.118379" lon="11.395"><ele>441.6</ele><time>2026-04-11T08:11:19.491Z</time></trkpt><trkpt lat="44.1184425" lon="11.3950967"><ele>440.8</ele><time>2026-04-11T08:11:20.49Z</time></trkpt><trkpt lat="44.1184912" lon="11.3952125"><ele>440.0</ele><time>2026-04-11T08:11:21.491Z</time></trkpt><trkpt lat="44.1185273" lon="11.3953415"><ele>440.0</ele><time>2026-04-11T08:11:22.49Z</time></trkpt><trkpt lat="44.1185552" lon="11.395469"><ele>440.0</ele><time>2026-04-11T08:11:23.491Z</time></trkpt><trkpt lat="44.1185745" lon="11.39558"><ele>440.0</ele><time>2026-04-11T08:11:24.49Z</time></trkpt><trkpt lat="44.1185788" lon="11.3956697"><ele>440.0</ele><time>2026-04-11T08:11:25.49Z</time></trkpt><trkpt lat="44.1185215" lon="11.3957953"><ele>440.0</ele><time>2026-04-11T08:11:27.49Z</time></trkpt><trkpt lat="44.1183922" lon="11.395749"><ele>440.8</ele><time>2026-04-11T08:11:29.49Z</time></trkpt><trkpt lat="44.1183152" lon="11.3956765"><ele>441.6</ele><time>2026-04-11T08:11:30.488Z</time></trkpt><trkpt lat="44.1182393" lon="11.395591"><ele>442.4</ele><time>2026-04-11T08:11:31.489Z</time></trkpt><trkpt lat="44.1181547" lon="11.3955108"><ele>443.2</ele><time>2026-04-11T08:11:32.489Z</time></trkpt><trkpt lat="44.1180627" lon="11.3954615"><ele>444.0</ele><time>2026-04-11T08:11:33.49Z</time></trkpt><trkpt lat="44.117959" lon="11.3954372"><ele>444.0</ele><time>2026-04-11T08:11:34.49Z</time></trkpt><trkpt lat="44.1178517" lon="11.3954348"><ele>444.0</ele><time>2026-04-11T08:11:35.492Z</time></trkpt><trkpt lat="44.1177422" lon="11.3954502"><ele>444.0</ele><time>2026-04-11T08:11:36.489Z</time></trkpt><trkpt lat="44.1176313" lon="11.3954722"><ele>444.0</ele><time>2026-04-11T08:11:37.489Z</time></trkpt><trkpt lat="44.1175252" lon="11.3955033"><ele>444.0</ele><time>2026-04-11T08:11:38.49Z</time></trkpt><trkpt lat="44.1174373" lon="11.3955647"><ele>446.79999999999995</ele><time>2026-04-11T08:11:39.491Z</time></trkpt><trkpt lat="44.117361" lon="11.395662"><ele>449.59999999999997</ele><time>2026-04-11T08:11:40.49Z</time></trkpt><trkpt lat="44.117299" lon="11.3957885"><ele>452.4</ele><time>2026-04-11T08:11:41.493Z</time></trkpt><trkpt lat="44.1172453" lon="11.3959252"><ele>455.2</ele><time>2026-04-11T08:11:42.49Z</time></trkpt><trkpt lat="44.1171893" lon="11.3960567"><ele>458.0</ele><time>2026-04-11T08:11:43.49Z</time></trkpt><trkpt lat="44.1171202" lon="11.3961697"><ele>458.0</ele><time>2026-04-11T08:11:44.489Z</time></trkpt><trkpt lat="44.117036" lon="11.3962475"><ele>457.99999999999994</ele><time>2026-04-11T08:11:45.489Z</time></trkpt><trkpt lat="44.1169405" lon="11.3962832"><ele>457.99999999999994</ele><time>2026-04-11T08:11:46.49Z</time></trkpt><trkpt lat="44.1168433" lon="11.3962748"><ele>458.0</ele><time>2026-04-11T08:11:47.488Z</time></trkpt><trkpt lat="44.1167507" lon="11.3962247"><ele>458.0</ele><time>2026-04-11T08:11:48.488Z</time></trkpt><trkpt lat="44.1166562" lon="11.3961763"><ele>457.59999999999997</ele><time>2026-04-11T08:11:49.488Z</time></trkpt><trkpt lat="44.1165628" lon="11.3961527"><ele>457.19999999999993</ele><time>2026-04-11T08:11:50.49Z</time></trkpt><trkpt lat="44.1164693" lon="11.3961568"><ele>456.8</ele><time>2026-04-11T08:11:51.489Z</time></trkpt><trkpt lat="44.1163692" lon="11.3961777"><ele>456.4</ele><time>2026-04-11T08:11:52.49Z</time></trkpt><trkpt lat="44.1162662" lon="11.3962087"><ele>456.0</ele><time>2026-04-11T08:11:53.488Z</time></trkpt><trkpt lat="44.1161712" lon="11.3962588"><ele>456.0</ele><time>2026-04-11T08:11:54.487Z</time></trkpt><trkpt lat="44.1160915" lon="11.3963358"><ele>456.0</ele><time>2026-04-11T08:11:55.488Z</time></trkpt><trkpt lat="44.1160235" lon="11.396443"><ele>456.0</ele><time>2026-04-11T08:11:56.488Z</time></trkpt><trkpt lat="44.1159645" lon="11.3965617"><ele>456.0</ele><time>2026-04-11T08:11:57.49Z</time></trkpt><trkpt lat="44.115901" lon="11.3966723"><ele>456.0</ele><time>2026-04-11T08:11:58.49Z</time></trkpt><trkpt lat="44.1158215" lon="11.3967625"><ele>460.4</ele><time>2026-04-11T08:11:59.49Z</time></trkpt><trkpt lat="44.1157305" lon="11.396834"><ele>464.8</ele><time>2026-04-11T08:12:00.489Z</time></trkpt><trkpt lat="44.1156305" lon="11.3968893"><ele>469.19999999999993</ele><time>2026-04-11T08:12:01.489Z</time></trkpt><trkpt lat="44.1155268" lon="11.3969395"><ele>473.59999999999997</ele><time>2026-04-11T08:12:02.491Z</time></trkpt><trkpt lat="44.1154252" lon="11.39699"><ele>478.0</ele><time>2026-04-11T08:12:03.491Z</time></trkpt><trkpt lat="44.1153448" lon="11.3970595"><ele>478.0</ele><time>2026-04-11T08:12:04.49Z</time></trkpt><trkpt lat="44.1152845" lon="11.3971665"><ele>477.99999999999994</ele><time>2026-04-11T08:12:05.491Z</time></trkpt><trkpt lat="44.1152337" lon="11.3972973"><ele>477.99999999999994</ele><time>2026-04-11T08:12:06.493Z</time></trkpt><trkpt lat="44.115176" lon="11.3974268"><ele>478.0</ele><time>2026-04-11T08:12:07.49Z</time></trkpt><trkpt lat="44.1151055" lon="11.397545"><ele>478.0</ele><time>2026-04-11T08:12:08.492Z</time></trkpt><trkpt lat="44.1150248" lon="11.3976512"><ele>478.0</ele><time>2026-04-11T08:12:09.493Z</time></trkpt><trkpt lat="44.1149425" lon="11.3977565"><ele>477.99999999999994</ele><time>2026-04-11T08:12:10.49Z</time></trkpt><trkpt lat="44.1148645" lon="11.3978658"><ele>477.99999999999994</ele><time>2026-04-11T08:12:11.491Z</time></trkpt><trkpt lat="44.1147977" lon="11.3979862"><ele>478.0</ele><time>2026-04-11T08:12:12.491Z</time></trkpt><trkpt lat="44.1147405" lon="11.3981168"><ele>478.0</ele><time>2026-04-11T08:12:13.493Z</time></trkpt><trkpt lat="44.11469" lon="11.3982523"><ele>478.4</ele><time>2026-04-11T08:12:14.493Z</time></trkpt><trkpt lat="44.1146417" lon="11.398389"><ele>478.79999999999995</ele><time>2026-04-11T08:12:15.491Z</time></trkpt><trkpt lat="44.1145957" lon="11.3985257"><ele>479.2</ele><time>2026-04-11T08:12:16.491Z</time></trkpt><trkpt lat="44.1145522" lon="11.3986592"><ele>479.6</ele><time>2026-04-11T08:12:17.491Z</time></trkpt><trkpt lat="44.1145172" lon="11.3987808"><ele>480.0</ele><time>2026-04-11T08:12:18.49Z</time></trkpt><trkpt lat="44.114506" lon="11.3988888"><ele>480.2</ele><time>2026-04-11T08:12:19.49Z</time></trkpt><trkpt lat="44.1145255" lon="11.3989932"><ele>480.4</ele><time>2026-04-11T08:12:20.489Z</time></trkpt><trkpt lat="44.1145657" lon="11.3991077"><ele>480.6</ele><time>2026-04-11T08:12:21.49Z</time></trkpt><trkpt lat="44.1146072" lon="11.3992318"><ele>480.8</ele><time>2026-04-11T08:12:22.492Z</time></trkpt><trkpt lat="44.114645" lon="11.3993588"><ele>481.0</ele><time>2026-04-11T08:12:23.49Z</time></trkpt><trkpt lat="44.114673" lon="11.399485"><ele>481.00000000000006</ele><time>2026-04-11T08:12:24.488Z</time></trkpt><trkpt lat="44.1146927" lon="11.3996185"><ele>481.0</ele><time>2026-04-11T08:12:25.49Z</time></trkpt><trkpt lat="44.1146898" lon="11.3997557"><ele>481.0</ele><time>2026-04-11T08:12:26.491Z</time></trkpt><trkpt lat="44.1146748" lon="11.3998847"><ele>481.0</ele><time>2026-04-11T08:12:27.49Z</time></trkpt><trkpt lat="44.114655" lon="11.3999988"><ele>481.00000000000006</ele><time>2026-04-11T08:12:28.491Z</time></trkpt><trkpt lat="44.1146318" lon="11.4000892"><ele>481.0</ele><time>2026-04-11T08:12:29.49Z</time></trkpt><trkpt lat="44.1145858" lon="11.4002112"><ele>482.1428571428571</ele><time>2026-04-11T08:12:31.49Z</time></trkpt><trkpt lat="44.114608" lon="11.4003068"><ele>483.2857142857143</ele><time>2026-04-11T08:12:34.49Z</time></trkpt><trkpt lat="44.1146652" lon="11.4002358"><ele>484.42857142857144</ele><time>2026-04-11T08:12:36.489Z</time></trkpt><trkpt lat="44.1147082" lon="11.4001688"><ele>485.57142857142856</ele><time>2026-04-11T08:12:37.489Z</time></trkpt><trkpt lat="44.1147538" lon="11.4000925"><ele>486.7142857142858</ele><time>2026-04-11T08:12:38.49Z</time></trkpt><trkpt lat="44.1147995" lon="11.4000107"><ele>487.8571428571429</ele><time>2026-04-11T08:12:39.49Z</time></trkpt><trkpt lat="44.1148412" lon="11.3999232"><ele>489.0</ele><time>2026-04-11T08:12:40.488Z</time></trkpt><trkpt lat="44.114879" lon="11.3998393"><ele>494.1666666666667</ele><time>2026-04-11T08:12:41.488Z</time></trkpt><trkpt lat="44.1149463" lon="11.399739"><ele>499.33333333333337</ele><time>2026-04-11T08:12:43.488Z</time></trkpt><trkpt lat="44.11502" lon="11.3997148"><ele>504.5</ele><time>2026-04-11T08:12:45.49Z</time></trkpt><trkpt lat="44.1150748" lon="11.3997663"><ele>509.6666666666667</ele><time>2026-04-11T08:12:47.489Z</time></trkpt><trkpt lat="44.1151152" lon="11.3998878"><ele>514.8333333333334</ele><time>2026-04-11T08:12:49.489Z</time></trkpt><trkpt lat="44.115145" lon="11.4000388"><ele>520.0</ele><time>2026-04-11T08:12:51.489Z</time></trkpt><trkpt lat="44.1151577" lon="11.4002118"><ele>520.0000000000001</ele><time>2026-04-11T08:12:53.49Z</time></trkpt><trkpt lat="44.1151505" lon="11.4003003"><ele>520.0</ele><time>2026-04-11T08:12:54.489Z</time></trkpt><trkpt lat="44.115139" lon="11.4003973"><ele>520.0</ele><time>2026-04-11T08:12:55.489Z</time></trkpt><trkpt lat="44.1151235" lon="11.4004933"><ele>520.0</ele><time>2026-04-11T08:12:56.489Z</time></trkpt><trkpt lat="44.1151083" lon="11.4005947"><ele>520.0</ele><time>2026-04-11T08:12:57.488Z</time></trkpt><trkpt lat="44.1151028" lon="11.400698"><ele>520.0000000000001</ele><time>2026-04-11T08:12:58.489Z</time></trkpt><trkpt lat="44.1151125" lon="11.4008037"><ele>520.0</ele><time>2026-04-11T08:12:59.49Z</time></trkpt><trkpt lat="44.11512" lon="11.4009038"><ele>521.6666666666667</ele><time>2026-04-11T08:13:00.489Z</time></trkpt><trkpt lat="44.1151155" lon="11.4010063"><ele>523.3333333333334</ele><time>2026-04-11T08:13:01.49Z</time></trkpt><trkpt lat="44.115104" lon="11.4011078"><ele>525.0</ele><time>2026-04-11T08:13:02.49Z</time></trkpt><trkpt lat="44.1150795" lon="11.4012025"><ele>526.6666666666666</ele><time>2026-04-11T08:13:03.489Z</time></trkpt><trkpt lat="44.115059" lon="11.4012952"><ele>528.3333333333333</ele><time>2026-04-11T08:13:04.49Z</time></trkpt><trkpt lat="44.1150495" lon="11.4013883"><ele>530.0</ele><time>2026-04-11T08:13:05.489Z</time></trkpt><trkpt lat="44.1150795" lon="11.4015365"><ele>531.6666666666666</ele><time>2026-04-11T08:13:07.488Z</time></trkpt><trkpt lat="44.1151617" lon="11.4016028"><ele>533.3333333333333</ele><time>2026-04-11T08:13:09.488Z</time></trkpt><trkpt lat="44.1152402" lon="11.4015845"><ele>535.0</ele><time>2026-04-11T08:13:11.491Z</time></trkpt><trkpt lat="44.1153163" lon="11.4014895"><ele>536.6666666666666</ele><time>2026-04-11T08:13:13.49Z</time></trkpt><trkpt lat="44.1153648" lon="11.4014313"><ele>538.3333333333334</ele><time>2026-04-11T08:13:14.49Z</time></trkpt><trkpt lat="44.115418" lon="11.4013832"><ele>540.0</ele><time>2026-04-11T08:13:15.489Z</time></trkpt><trkpt lat="44.1155105" lon="11.401364"><ele>540.0</ele><time>2026-04-11T08:13:17.49Z</time></trkpt><trkpt lat="44.1155682" lon="11.4014418"><ele>540.0</ele><time>2026-04-11T08:13:19.489Z</time></trkpt><trkpt lat="44.1155793" lon="11.4015603"><ele>540.0</ele><time>2026-04-11T08:13:21.49Z</time></trkpt><trkpt lat="44.1156107" lon="11.4016537"><ele>540.0</ele><time>2026-04-11T08:13:23.49Z</time></trkpt><trkpt lat="44.1156945" lon="11.4016523"><ele>540.0</ele><time>2026-04-11T08:13:26.489Z</time></trkpt><trkpt lat="44.1157535" lon="11.4015687"><ele>540.0</ele><time>2026-04-11T08:13:28.489Z</time></trkpt><trkpt lat="44.1158102" lon="11.4014542"><ele>543.8</ele><time>2026-04-11T08:13:30.491Z</time></trkpt><trkpt lat="44.1158663" lon="11.4013527"><ele>547.6</ele><time>2026-04-11T08:13:32.486Z</time></trkpt><trkpt lat="44.1159392" lon="11.4012558"><ele>551.4</ele><time>2026-04-11T08:13:34.487Z</time></trkpt><trkpt lat="44.1160313" lon="11.401164"><ele>555.2</ele><time>2026-04-11T08:13:36.489Z</time></trkpt><trkpt lat="44.1161123" lon="11.4010397"><ele>559.0</ele><time>2026-04-11T08:13:38.49Z</time></trkpt><trkpt lat="44.1161822" lon="11.4009407"><ele>559.0</ele><time>2026-04-11T08:13:40.49Z</time></trkpt><trkpt lat="44.116269" lon="11.4008728"><ele>559.0</ele><time>2026-04-11T08:13:42.491Z</time></trkpt><trkpt lat="44.1163608" lon="11.4008615"><ele>559.0</ele><time>2026-04-11T08:13:44.491Z</time></trkpt><trkpt lat="44.1164368" lon="11.400883"><ele>559.0</ele><time>2026-04-11T08:13:46.489Z</time></trkpt><trkpt lat="44.116512" lon="11.4009092"><ele>559.0</ele><time>2026-04-11T08:13:48.49Z</time></trkpt><trkpt lat="44.1166012" lon="11.4009138"><ele>559.0</ele><time>2026-04-11T08:13:50.489Z</time></trkpt><trkpt lat="44.1166762" lon="11.40092"><ele>563.4</ele><time>2026-04-11T08:13:52.488Z</time></trkpt><trkpt lat="44.116762" lon="11.4009737"><ele>567.8</ele><time>2026-04-11T08:13:54.488Z</time></trkpt><trkpt lat="44.1168477" lon="11.4009472"><ele>572.2</ele><time>2026-04-11T08:13:57.488Z</time></trkpt><trkpt lat="44.1169143" lon="11.400888"><ele>576.6</ele><time>2026-04-11T08:13:59.487Z</time></trkpt><trkpt lat="44.1169828" lon="11.4008272"><ele>581.0</ele><time>2026-04-11T08:14:01.489Z</time></trkpt><trkpt lat="44.1170587" lon="11.4007205"><ele>581.0</ele><time>2026-04-11T08:14:03.49Z</time></trkpt><trkpt lat="44.11713" lon="11.4006257"><ele>581.0</ele><time>2026-04-11T08:14:05.49Z</time></trkpt><trkpt lat="44.1172308" lon="11.4005738"><ele>581.0</ele><time>2026-04-11T08:14:07.49Z</time></trkpt><trkpt lat="44.1172915" lon="11.400637"><ele>581.0</ele><time>2026-04-11T08:14:09.49Z</time></trkpt><trkpt lat="44.1172905" lon="11.4007705"><ele>581.0</ele><time>2026-04-11T08:14:12.491Z</time></trkpt><trkpt lat="44.117255" lon="11.4008698"><ele>581.0</ele><time>2026-04-11T08:14:14.491Z</time></trkpt><trkpt lat="44.1172655" lon="11.4009865"><ele>581.0</ele><time>2026-04-11T08:14:16.491Z</time></trkpt><trkpt lat="44.1172788" lon="11.4011088"><ele>581.0</ele><time>2026-04-11T08:14:18.491Z</time></trkpt><trkpt lat="44.1172825" lon="11.4012367"><ele>581.0</ele><time>2026-04-11T08:14:20.49Z</time></trkpt><trkpt lat="44.1173097" lon="11.4013512"><ele>581.0</ele><time>2026-04-11T08:14:22.489Z</time></trkpt><trkpt lat="44.1173617" lon="11.4014393"><ele>581.0</ele><time>2026-04-11T08:14:24.491Z</time></trkpt><trkpt lat="44.1174333" lon="11.4015342"><ele>587.4</ele><time>2026-04-11T08:14:26.492Z</time></trkpt><trkpt lat="44.1174863" lon="11.4016618"><ele>593.8</ele><time>2026-04-11T08:14:28.491Z</time></trkpt><trkpt lat="44.1175252" lon="11.4018118"><ele>600.1999999999999</ele><time>2026-04-11T08:14:30.489Z</time></trkpt><trkpt lat="44.1175437" lon="11.4019405"><ele>606.6</ele><time>2026-04-11T08:14:32.491Z</time></trkpt><trkpt lat="44.1175865" lon="11.4020588"><ele>613.0</ele><time>2026-04-11T08:14:34.49Z</time></trkpt><trkpt lat="44.11763" lon="11.4021855"><ele>615.8333333333334</ele><time>2026-04-11T08:14:36.489Z</time></trkpt><trkpt lat="44.1176307" lon="11.4023072"><ele>618.6666666666667</ele><time>2026-04-11T08:14:38.492Z</time></trkpt><trkpt lat="44.117642" lon="11.4024218"><ele>621.5</ele><time>2026-04-11T08:14:40.492Z</time></trkpt><trkpt lat="44.1176633" lon="11.4025402"><ele>624.3333333333334</ele><time>2026-04-11T08:14:42.493Z</time></trkpt><trkpt lat="44.117703" lon="11.4026768"><ele>627.1666666666666</ele><time>2026-04-11T08:14:44.491Z</time></trkpt><trkpt lat="44.1176937" lon="11.402785"><ele>630.0</ele><time>2026-04-11T08:14:46.489Z</time></trkpt><trkpt lat="44.1176338" lon="11.402825"><ele>630.0</ele><time>2026-04-11T08:14:48.49Z</time></trkpt><trkpt lat="44.1175568" lon="11.402863"><ele>630.0</ele><time>2026-04-11T08:14:52.491Z</time></trkpt><trkpt lat="44.1174913" lon="11.4028837"><ele>630.0</ele><time>2026-04-11T08:14:54.493Z</time></trkpt><trkpt lat="44.1173953" lon="11.4029253"><ele>630.0</ele><time>2026-04-11T08:14:56.492Z</time></trkpt><trkpt lat="44.1172857" lon="11.4029617"><ele>630.0</ele><time>2026-04-11T08:14:58.491Z</time></trkpt><trkpt lat="44.1171778" lon="11.4029678"><ele>631.2</ele><time>2026-04-11T08:15:00.491Z</time></trkpt><trkpt lat="44.1170887" lon="11.4029702"><ele>632.4</ele><time>2026-04-11T08:15:02.493Z</time></trkpt><trkpt lat="44.1170043" lon="11.4029918"><ele>633.6</ele><time>2026-04-11T08:15:04.491Z</time></trkpt><trkpt lat="44.1169568" lon="11.403084"><ele>634.8</ele><time>2026-04-11T08:15:06.492Z</time></trkpt><trkpt lat="44.1169423" lon="11.4032147"><ele>636.0</ele><time>2026-04-11T08:15:08.492Z</time></trkpt><trkpt lat="44.1169638" lon="11.4034158"><ele>636.0</ele><time>2026-04-11T08:15:10.491Z</time></trkpt><trkpt lat="44.1169827" lon="11.4035185"><ele>636.0</ele><time>2026-04-11T08:15:11.489Z</time></trkpt><trkpt lat="44.1169925" lon="11.4036762"><ele>636.0</ele><time>2026-04-11T08:15:13.493Z</time></trkpt><trkpt lat="44.1170013" lon="11.403829"><ele>636.0</ele><time>2026-04-11T08:15:15.491Z</time></trkpt><trkpt lat="44.11701" lon="11.4039617"><ele>636.0</ele><time>2026-04-11T08:15:17.492Z</time></trkpt><trkpt lat="44.1170232" lon="11.404092"><ele>638.4</ele><time>2026-04-11T08:15:19.491Z</time></trkpt><trkpt lat="44.117013" lon="11.404233"><ele>640.8</ele><time>2026-04-11T08:15:21.491Z</time></trkpt><trkpt lat="44.1170068" lon="11.4043915"><ele>643.1999999999999</ele><time>2026-04-11T08:15:23.493Z</time></trkpt><trkpt lat="44.1169703" lon="11.4045483"><ele>645.6</ele><time>2026-04-11T08:15:25.492Z</time></trkpt><trkpt lat="44.1169398" lon="11.404629"><ele>648.0</ele><time>2026-04-11T08:15:26.494Z</time></trkpt><trkpt lat="44.1169077" lon="11.4047075"><ele>648.1666666666666</ele><time>2026-04-11T08:15:27.493Z</time></trkpt><trkpt lat="44.1168797" lon="11.4047905"><ele>648.3333333333334</ele><time>2026-04-11T08:15:28.492Z</time></trkpt><trkpt lat="44.1168293" lon="11.4049207"><ele>648.5</ele><time>2026-04-11T08:15:30.492Z</time></trkpt><trkpt lat="44.1167268" lon="11.4049957"><ele>648.6666666666667</ele><time>2026-04-11T08:15:32.492Z</time></trkpt><trkpt lat="44.1166572" lon="11.4050322"><ele>648.8333333333334</ele><time>2026-04-11T08:15:33.49Z</time></trkpt><trkpt lat="44.1165803" lon="11.4050633"><ele>649.0</ele><time>2026-04-11T08:15:34.491Z</time></trkpt><trkpt lat="44.1165045" lon="11.4050932"><ele>649.0</ele><time>2026-04-11T08:15:35.49Z</time></trkpt><trkpt lat="44.1164258" lon="11.4051407"><ele>649.0</ele><time>2026-04-11T08:15:36.49Z</time></trkpt><trkpt lat="44.116357" lon="11.4051908"><ele>649.0</ele><time>2026-04-11T08:15:37.49Z</time></trkpt><trkpt lat="44.1162973" lon="11.4052397"><ele>649.0</ele><time>2026-04-11T08:15:38.492Z</time></trkpt><trkpt lat="44.1162387" lon="11.4053055"><ele>649.0</ele><time>2026-04-11T08:15:39.49Z</time></trkpt><trkpt lat="44.1161878" lon="11.405373"><ele>649.0</ele><time>2026-04-11T08:15:40.492Z</time></trkpt><trkpt lat="44.116144" lon="11.4054573"><ele>651.3333333333334</ele><time>2026-04-11T08:15:41.493Z</time></trkpt><trkpt lat="44.1161063" lon="11.4055482"><ele>653.6666666666667</ele><time>2026-04-11T08:15:42.493Z</time></trkpt><trkpt lat="44.1160702" lon="11.4056455"><ele>656.0</ele><time>2026-04-11T08:15:43.493Z</time></trkpt><trkpt lat="44.1160377" lon="11.4057462"><ele>658.3333333333334</ele><time>2026-04-11T08:15:44.493Z</time></trkpt><trkpt lat="44.116002" lon="11.405834"><ele>660.6666666666666</ele><time>2026-04-11T08:15:45.494Z</time></trkpt><trkpt lat="44.1159067" lon="11.4059262"><ele>663.0</ele><time>2026-04-11T08:15:47.494Z</time></trkpt><trkpt lat="44.1158097" lon="11.4059805"><ele>663.4</ele><time>2026-04-11T08:15:49.493Z</time></trkpt><trkpt lat="44.1157352" lon="11.4060617"><ele>663.8</ele><time>2026-04-11T08:15:51.491Z</time></trkpt><trkpt lat="44.1156742" lon="11.406136"><ele>664.2</ele><time>2026-04-11T08:15:53.494Z</time></trkpt><trkpt lat="44.1156048" lon="11.4062303"><ele>664.6</ele><time>2026-04-11T08:15:55.493Z</time></trkpt><trkpt lat="44.1155175" lon="11.4063502"><ele>665.0</ele><time>2026-04-11T08:15:57.492Z</time></trkpt><trkpt lat="44.115447" lon="11.4064563"><ele>669.2</ele><time>2026-04-11T08:15:59.49Z</time></trkpt><trkpt lat="44.1153755" lon="11.406537"><ele>673.4</ele><time>2026-04-11T08:16:01.491Z</time></trkpt><trkpt lat="44.1153063" lon="11.4066538"><ele>677.5999999999999</ele><time>2026-04-11T08:16:03.493Z</time></trkpt><trkpt lat="44.115235" lon="11.4067598"><ele>681.8</ele><time>2026-04-11T08:16:05.493Z</time></trkpt><trkpt lat="44.1151823" lon="11.406858"><ele>686.0</ele><time>2026-04-11T08:16:07.492Z</time></trkpt><trkpt lat="44.11515" lon="11.4069488"><ele>686.0</ele><time>2026-04-11T08:16:09.493Z</time></trkpt><trkpt lat="44.1150932" lon="11.4070502"><ele>686.0</ele><time>2026-04-11T08:16:11.495Z</time></trkpt><trkpt lat="44.1150558" lon="11.4071657"><ele>686.0</ele><time>2026-04-11T08:16:13.493Z</time></trkpt><trkpt lat="44.1149937" lon="11.4072277"><ele>686.0</ele><time>2026-04-11T08:16:15.496Z</time></trkpt><trkpt lat="44.1149223" lon="11.4072872"><ele>686.0</ele><time>2026-04-11T08:16:17.494Z</time></trkpt><trkpt lat="44.1148627" lon="11.4073233"><ele>686.0</ele><time>2026-04-11T08:16:18.494Z</time></trkpt><trkpt lat="44.1147928" lon="11.4073577"><ele>690.5999999999999</ele><time>2026-04-11T08:16:19.492Z</time></trkpt><trkpt lat="44.1147138" lon="11.407374"><ele>695.2</ele><time>2026-04-11T08:16:20.493Z</time></trkpt><trkpt lat="44.1146155" lon="11.407368"><ele>699.8</ele><time>2026-04-11T08:16:21.492Z</time></trkpt><trkpt lat="44.114506" lon="11.4073538"><ele>704.4000000000001</ele><time>2026-04-11T08:16:22.491Z</time></trkpt><trkpt lat="44.1143995" lon="11.4073455"><ele>709.0</ele><time>2026-04-11T08:16:23.49Z</time></trkpt><trkpt lat="44.1143033" lon="11.4073155"><ele>709.0</ele><time>2026-04-11T08:16:24.491Z</time></trkpt><trkpt lat="44.1142162" lon="11.407273"><ele>709.0</ele><time>2026-04-11T08:16:25.49Z</time></trkpt><trkpt lat="44.1141342" lon="11.4072358"><ele>709.0</ele><time>2026-04-11T08:16:26.493Z</time></trkpt><trkpt lat="44.1140518" lon="11.407216"><ele>709.0</ele><time>2026-04-11T08:16:27.493Z</time></trkpt><trkpt lat="44.1139682" lon="11.4072127"><ele>709.0</ele><time>2026-04-11T08:16:28.494Z</time></trkpt><trkpt lat="44.1138903" lon="11.4072188"><ele>709.0</ele><time>2026-04-11T08:16:29.494Z</time></trkpt><trkpt lat="44.1138143" lon="11.4072422"><ele>707.8000000000001</ele><time>2026-04-11T08:16:30.492Z</time></trkpt><trkpt lat="44.1137382" lon="11.4072718"><ele>706.6</ele><time>2026-04-11T08:16:31.494Z</time></trkpt><trkpt lat="44.1136502" lon="11.4072997"><ele>705.4</ele><time>2026-04-11T08:16:32.493Z</time></trkpt><trkpt lat="44.1135582" lon="11.407334"><ele>704.2</ele><time>2026-04-11T08:16:33.493Z</time></trkpt><trkpt lat="44.1134567" lon="11.407385"><ele>703.0</ele><time>2026-04-11T08:16:34.493Z</time></trkpt><trkpt lat="44.113356" lon="11.407442"><ele>703.0</ele><time>2026-04-11T08:16:35.495Z</time></trkpt><trkpt lat="44.1132638" lon="11.4074967"><ele>703.0</ele><time>2026-04-11T08:16:36.495Z</time></trkpt><trkpt lat="44.1131813" lon="11.4075495"><ele>703.0</ele><time>2026-04-11T08:16:37.493Z</time></trkpt><trkpt lat="44.1131057" lon="11.4076015"><ele>703.0</ele><time>2026-04-11T08:16:38.495Z</time></trkpt><trkpt lat="44.1130393" lon="11.4076485"><ele>703.0</ele><time>2026-04-11T08:16:39.493Z</time></trkpt><trkpt lat="44.1129815" lon="11.4077487"><ele>703.0</ele><time>2026-04-11T08:16:41.492Z</time></trkpt><trkpt lat="44.1129442" lon="11.4078682"><ele>700.5</ele><time>2026-04-11T08:16:43.492Z</time></trkpt><trkpt lat="44.1128188" lon="11.4079092"><ele>698.0</ele><time>2026-04-11T08:16:45.495Z</time></trkpt><trkpt lat="44.1127218" lon="11.4079213"><ele>695.5</ele><time>2026-04-11T08:16:46.492Z</time></trkpt><trkpt lat="44.1126075" lon="11.4079563"><ele>693.0</ele><time>2026-04-11T08:16:47.493Z</time></trkpt><trkpt lat="44.1124807" lon="11.4080017"><ele>692.8</ele><time>2026-04-11T08:16:48.49Z</time></trkpt><trkpt lat="44.1123645" lon="11.4080447"><ele>692.5999999999999</ele><time>2026-04-11T08:16:49.49Z</time></trkpt><trkpt lat="44.1122658" lon="11.4080898"><ele>692.4000000000001</ele><time>2026-04-11T08:16:50.49Z</time></trkpt><trkpt lat="44.1121868" lon="11.408114"><ele>692.2</ele><time>2026-04-11T08:16:51.493Z</time></trkpt><trkpt lat="44.1120578" lon="11.4080725"><ele>692.0</ele><time>2026-04-11T08:16:53.494Z</time></trkpt><trkpt lat="44.1119728" lon="11.4080553"><ele>692.0</ele><time>2026-04-11T08:16:54.491Z</time></trkpt><trkpt lat="44.111883" lon="11.4080565"><ele>692.0</ele><time>2026-04-11T08:16:55.493Z</time></trkpt><trkpt lat="44.1117925" lon="11.4080678"><ele>692.0</ele><time>2026-04-11T08:16:56.493Z</time></trkpt><trkpt lat="44.1117083" lon="11.4080867"><ele>692.0</ele><time>2026-04-11T08:16:57.49Z</time></trkpt><trkpt lat="44.1116313" lon="11.408118"><ele>692.0</ele><time>2026-04-11T08:16:58.492Z</time></trkpt><trkpt lat="44.111566" lon="11.408159"><ele>692.0</ele><time>2026-04-11T08:16:59.492Z</time></trkpt><trkpt lat="44.1114883" lon="11.408273"><ele>691.3333333333333</ele><time>2026-04-11T08:17:01.491Z</time></trkpt><trkpt lat="44.1114673" lon="11.4083722"><ele>690.6666666666666</ele><time>2026-04-11T08:17:02.492Z</time></trkpt><trkpt lat="44.111439" lon="11.4085013"><ele>690.0</ele><time>2026-04-11T08:17:03.493Z</time></trkpt><trkpt lat="44.1114002" lon="11.408621"><ele>689.3333333333334</ele><time>2026-04-11T08:17:04.493Z</time></trkpt><trkpt lat="44.1113522" lon="11.4087123"><ele>688.6666666666667</ele><time>2026-04-11T08:17:05.495Z</time></trkpt><trkpt lat="44.1112853" lon="11.4087918"><ele>688.0</ele><time>2026-04-11T08:17:06.496Z</time></trkpt><trkpt lat="44.1112032" lon="11.4088653"><ele>687.3333333333334</ele><time>2026-04-11T08:17:07.493Z</time></trkpt><trkpt lat="44.1111162" lon="11.4089182"><ele>686.6666666666667</ele><time>2026-04-11T08:17:08.493Z</time></trkpt><trkpt lat="44.1110355" lon="11.4089502"><ele>686.0</ele><time>2026-04-11T08:17:09.493Z</time></trkpt><trkpt lat="44.1109562" lon="11.408954"><ele>685.3333333333334</ele><time>2026-04-11T08:17:10.494Z</time></trkpt><trkpt lat="44.1108747" lon="11.4089328"><ele>684.6666666666666</ele><time>2026-04-11T08:17:11.492Z</time></trkpt><trkpt lat="44.1108082" lon="11.4089102"><ele>684.0</ele><time>2026-04-11T08:17:12.49Z</time></trkpt><trkpt lat="44.1107442" lon="11.4089198"><ele>684.8000000000001</ele><time>2026-04-11T08:17:13.491Z</time></trkpt><trkpt lat="44.1106653" lon="11.408956"><ele>685.6</ele><time>2026-04-11T08:17:14.491Z</time></trkpt><trkpt lat="44.1105773" lon="11.408997"><ele>686.4</ele><time>2026-04-11T08:17:15.492Z</time></trkpt><trkpt lat="44.1104883" lon="11.409052"><ele>687.2</ele><time>2026-04-11T08:17:16.492Z</time></trkpt><trkpt lat="44.110394" lon="11.4091152"><ele>688.0</ele><time>2026-04-11T08:17:17.493Z</time></trkpt><trkpt lat="44.110307" lon="11.4091773"><ele>688.0</ele><time>2026-04-11T08:17:18.493Z</time></trkpt><trkpt lat="44.1102262" lon="11.4092568"><ele>688.0</ele><time>2026-04-11T08:17:19.493Z</time></trkpt><trkpt lat="44.1101422" lon="11.4093527"><ele>688.0</ele><time>2026-04-11T08:17:20.494Z</time></trkpt><trkpt lat="44.1100587" lon="11.4094295"><ele>688.0</ele><time>2026-04-11T08:17:21.493Z</time></trkpt><trkpt lat="44.1099802" lon="11.4094852"><ele>688.0</ele><time>2026-04-11T08:17:22.494Z</time></trkpt><trkpt lat="44.1099017" lon="11.4095397"><ele>688.8333333333334</ele><time>2026-04-11T08:17:23.494Z</time></trkpt><trkpt lat="44.1098163" lon="11.4095827"><ele>689.6666666666667</ele><time>2026-04-11T08:17:24.495Z</time></trkpt><trkpt lat="44.1097355" lon="11.4096092"><ele>690.5</ele><time>2026-04-11T08:17:25.495Z</time></trkpt><trkpt lat="44.1096643" lon="11.409634"><ele>691.3333333333334</ele><time>2026-04-11T08:17:26.494Z</time></trkpt><trkpt lat="44.1095997" lon="11.4096583"><ele>692.1666666666666</ele><time>2026-04-11T08:17:27.495Z</time></trkpt><trkpt lat="44.1095385" lon="11.4096865"><ele>693.0</ele><time>2026-04-11T08:17:28.494Z</time></trkpt><trkpt lat="44.1094238" lon="11.409698"><ele>693.0</ele><time>2026-04-11T08:17:30.495Z</time></trkpt><trkpt lat="44.1093038" lon="11.4096677"><ele>693.0</ele><time>2026-04-11T08:17:32.495Z</time></trkpt><trkpt lat="44.1092267" lon="11.4096703"><ele>693.0</ele><time>2026-04-11T08:17:33.494Z</time></trkpt><trkpt lat="44.1091463" lon="11.4096798"><ele>693.0</ele><time>2026-04-11T08:17:34.495Z</time></trkpt><trkpt lat="44.1090692" lon="11.4096895"><ele>693.0</ele><time>2026-04-11T08:17:35.492Z</time></trkpt><trkpt lat="44.1089958" lon="11.4097102"><ele>693.0</ele><time>2026-04-11T08:17:36.489Z</time></trkpt><trkpt lat="44.1089293" lon="11.409746"><ele>689.8333333333334</ele><time>2026-04-11T08:17:37.49Z</time></trkpt><trkpt lat="44.1088718" lon="11.4098057"><ele>686.6666666666666</ele><time>2026-04-11T08:17:38.488Z</time></trkpt><trkpt lat="44.1088033" lon="11.4098957"><ele>683.5</ele><time>2026-04-11T08:17:39.487Z</time></trkpt><trkpt lat="44.1087383" lon="11.409979"><ele>680.3333333333333</ele><time>2026-04-11T08:17:40.49Z</time></trkpt><trkpt lat="44.1086745" lon="11.410037"><ele>677.1666666666666</ele><time>2026-04-11T08:17:41.49Z</time></trkpt><trkpt lat="44.1086135" lon="11.4100775"><ele>674.0</ele><time>2026-04-11T08:17:42.491Z</time></trkpt><trkpt lat="44.1085442" lon="11.4101173"><ele>674.0</ele><time>2026-04-11T08:17:43.491Z</time></trkpt><trkpt lat="44.108465" lon="11.4101483"><ele>674.0</ele><time>2026-04-11T08:17:44.492Z</time></trkpt><trkpt lat="44.108385" lon="11.4101713"><ele>674.0</ele><time>2026-04-11T08:17:45.492Z</time></trkpt><trkpt lat="44.1083083" lon="11.410177"><ele>674.0</ele><time>2026-04-11T08:17:46.494Z</time></trkpt><trkpt lat="44.1082403" lon="11.4101922"><ele>674.0</ele><time>2026-04-11T08:17:47.493Z</time></trkpt><trkpt lat="44.1081828" lon="11.410229"><ele>674.0</ele><time>2026-04-11T08:17:48.492Z</time></trkpt><trkpt lat="44.1081042" lon="11.4103578"><ele>670.4000000000001</ele><time>2026-04-11T08:17:50.494Z</time></trkpt><trkpt lat="44.1080163" lon="11.4104727"><ele>666.8</ele><time>2026-04-11T08:17:52.493Z</time></trkpt><trkpt lat="44.1079608" lon="11.4105183"><ele>663.2</ele><time>2026-04-11T08:17:53.493Z</time></trkpt><trkpt lat="44.1078715" lon="11.4106297"><ele>659.5999999999999</ele><time>2026-04-11T08:17:55.493Z</time></trkpt><trkpt lat="44.10774" lon="11.4106755"><ele>656.0</ele><time>2026-04-11T08:17:57.492Z</time></trkpt><trkpt lat="44.1076617" lon="11.4107048"><ele>656.0</ele><time>2026-04-11T08:17:58.496Z</time></trkpt><trkpt lat="44.1075758" lon="11.4107385"><ele>656.0</ele><time>2026-04-11T08:17:59.494Z</time></trkpt><trkpt lat="44.1074948" lon="11.4107732"><ele>656.0</ele><time>2026-04-11T08:18:00.493Z</time></trkpt><trkpt lat="44.1074217" lon="11.4108062"><ele>656.0</ele><time>2026-04-11T08:18:01.493Z</time></trkpt><trkpt lat="44.1073475" lon="11.4108425"><ele>656.0</ele><time>2026-04-11T08:18:02.493Z</time></trkpt><trkpt lat="44.10728" lon="11.4108817"><ele>656.0</ele><time>2026-04-11T08:18:03.492Z</time></trkpt><trkpt lat="44.1072155" lon="11.4109197"><ele>654.0</ele><time>2026-04-11T08:18:04.494Z</time></trkpt><trkpt lat="44.1071327" lon="11.410971"><ele>652.0</ele><time>2026-04-11T08:18:06.494Z</time></trkpt><trkpt lat="44.107046" lon="11.4110045"><ele>650.0</ele><time>2026-04-11T08:19:25.494Z</time></trkpt><trkpt lat="44.1069375" lon="11.4110125"><ele>648.0</ele><time>2026-04-11T08:19:27.493Z</time></trkpt><trkpt lat="44.1068682" lon="11.4110312"><ele>646.0</ele><time>2026-04-11T08:19:28.493Z</time></trkpt><trkpt lat="44.1067953" lon="11.411071"><ele>644.0</ele><time>2026-04-11T08:19:29.493Z</time></trkpt><trkpt lat="44.1067307" lon="11.4111083"><ele>644.0</ele><time>2026-04-11T08:19:30.49Z</time></trkpt><trkpt lat="44.106669" lon="11.4111335"><ele>644.0</ele><time>2026-04-11T08:19:31.491Z</time></trkpt><trkpt lat="44.106605" lon="11.4111375"><ele>644.0</ele><time>2026-04-11T08:19:32.491Z</time></trkpt><trkpt lat="44.1065303" lon="11.411127"><ele>644.0</ele><time>2026-04-11T08:19:33.49Z</time></trkpt><trkpt lat="44.1064565" lon="11.411113"><ele>644.0</ele><time>2026-04-11T08:19:34.49Z</time></trkpt><trkpt lat="44.1063788" lon="11.4111052"><ele>644.0</ele><time>2026-04-11T08:19:35.489Z</time></trkpt><trkpt lat="44.1062907" lon="11.4111092"><ele>644.0</ele><time>2026-04-11T08:19:36.49Z</time></trkpt><trkpt lat="44.1061872" lon="11.4111308"><ele>642.2</ele><time>2026-04-11T08:19:37.49Z</time></trkpt><trkpt lat="44.1060865" lon="11.4111502"><ele>640.4000000000001</ele><time>2026-04-11T08:19:38.489Z</time></trkpt><trkpt lat="44.1059728" lon="11.4111738"><ele>638.6</ele><time>2026-04-11T08:19:39.487Z</time></trkpt><trkpt lat="44.1058668" lon="11.4111937"><ele>636.8</ele><time>2026-04-11T08:19:40.487Z</time></trkpt><trkpt lat="44.1057697" lon="11.4112093"><ele>635.0</ele><time>2026-04-11T08:19:41.489Z</time></trkpt><trkpt lat="44.105679" lon="11.4112205"><ele>633.5</ele><time>2026-04-11T08:19:42.489Z</time></trkpt><trkpt lat="44.105591" lon="11.4112307"><ele>632.0</ele><time>2026-04-11T08:19:43.49Z</time></trkpt><trkpt lat="44.1055102" lon="11.4112453"><ele>630.5</ele><time>2026-04-11T08:19:44.49Z</time></trkpt><trkpt lat="44.105431" lon="11.411267"><ele>629.0</ele><time>2026-04-11T08:19:45.489Z</time></trkpt><trkpt lat="44.1053537" lon="11.4112943"><ele>627.5</ele><time>2026-04-11T08:19:46.49Z</time></trkpt><trkpt lat="44.1052792" lon="11.4113145"><ele>626.0</ele><time>2026-04-11T08:19:47.489Z</time></trkpt><trkpt lat="44.1052055" lon="11.4113193"><ele>626.0</ele><time>2026-04-11T08:19:48.489Z</time></trkpt><trkpt lat="44.1051367" lon="11.4113122"><ele>626.0</ele><time>2026-04-11T08:19:49.489Z</time></trkpt><trkpt lat="44.105073" lon="11.4113052"><ele>626.0</ele><time>2026-04-11T08:19:50.487Z</time></trkpt><trkpt lat="44.1049663" lon="11.4112418"><ele>626.0</ele><time>2026-04-11T08:19:52.49Z</time></trkpt><trkpt lat="44.104861" lon="11.4111423"><ele>626.0</ele><time>2026-04-11T08:19:54.489Z</time></trkpt><trkpt lat="44.1048012" lon="11.4111093"><ele>626.0</ele><time>2026-04-11T08:19:55.49Z</time></trkpt><trkpt lat="44.1047288" lon="11.4110873"><ele>624.3333333333333</ele><time>2026-04-11T08:19:56.49Z</time></trkpt><trkpt lat="44.1046512" lon="11.411076"><ele>622.6666666666666</ele><time>2026-04-11T08:19:57.489Z</time></trkpt><trkpt lat="44.1045735" lon="11.4110742"><ele>621.0</ele><time>2026-04-11T08:19:58.489Z</time></trkpt><trkpt lat="44.1044992" lon="11.411088"><ele>619.3333333333334</ele><time>2026-04-11T08:19:59.489Z</time></trkpt><trkpt lat="44.1044275" lon="11.4111207"><ele>617.6666666666667</ele><time>2026-04-11T08:20:00.488Z</time></trkpt><trkpt lat="44.1043593" lon="11.4111617"><ele>616.0</ele><time>2026-04-11T08:20:01.49Z</time></trkpt><trkpt lat="44.1042925" lon="11.411209"><ele>616.0</ele><time>2026-04-11T08:20:02.49Z</time></trkpt><trkpt lat="44.1042253" lon="11.4112613"><ele>616.0</ele><time>2026-04-11T08:20:03.487Z</time></trkpt><trkpt lat="44.1041557" lon="11.4113157"><ele>616.0</ele><time>2026-04-11T08:20:04.488Z</time></trkpt><trkpt lat="44.1040807" lon="11.4113695"><ele>616.0</ele><time>2026-04-11T08:20:05.488Z</time></trkpt><trkpt lat="44.1040035" lon="11.4114192"><ele>616.0</ele><time>2026-04-11T08:20:06.487Z</time></trkpt><trkpt lat="44.1039147" lon="11.4114545"><ele>616.0</ele><time>2026-04-11T08:20:07.489Z</time></trkpt><trkpt lat="44.1038172" lon="11.4114758"><ele>616.0</ele><time>2026-04-11T08:20:08.491Z</time></trkpt><trkpt lat="44.1037225" lon="11.4114992"><ele>616.0</ele><time>2026-04-11T08:20:09.489Z</time></trkpt><trkpt lat="44.1036367" lon="11.4115435"><ele>616.0</ele><time>2026-04-11T08:20:10.49Z</time></trkpt><trkpt lat="44.1035588" lon="11.411602"><ele>616.0</ele><time>2026-04-11T08:20:11.49Z</time></trkpt><trkpt lat="44.1034823" lon="11.4116607"><ele>616.0</ele><time>2026-04-11T08:20:12.489Z</time></trkpt><trkpt lat="44.1034067" lon="11.411722"><ele>616.0</ele><time>2026-04-11T08:20:13.49Z</time></trkpt><trkpt lat="44.1033352" lon="11.4117843"><ele>616.0</ele><time>2026-04-11T08:20:14.489Z</time></trkpt><trkpt lat="44.103259" lon="11.411838"><ele>616.0</ele><time>2026-04-11T08:20:15.488Z</time></trkpt><trkpt lat="44.103178" lon="11.4118782"><ele>616.0</ele><time>2026-04-11T08:20:16.489Z</time></trkpt><trkpt lat="44.1031002" lon="11.4119252"><ele>616.0</ele><time>2026-04-11T08:20:17.489Z</time></trkpt><trkpt lat="44.1030215" lon="11.4119808"><ele>616.0</ele><time>2026-04-11T08:20:18.488Z</time></trkpt><trkpt lat="44.1029438" lon="11.412047"><ele>614.5</ele><time>2026-04-11T08:20:19.489Z</time></trkpt><trkpt lat="44.1028648" lon="11.412112"><ele>613.0</ele><time>2026-04-11T08:20:20.489Z</time></trkpt><trkpt lat="44.1027838" lon="11.41217"><ele>611.5</ele><time>2026-04-11T08:20:21.489Z</time></trkpt><trkpt lat="44.1027005" lon="11.4122158"><ele>610.0</ele><time>2026-04-11T08:20:22.49Z</time></trkpt><trkpt lat="44.1026198" lon="11.4122587"><ele>608.5</ele><time>2026-04-11T08:20:23.489Z</time></trkpt><trkpt lat="44.1025452" lon="11.4123165"><ele>607.0</ele><time>2026-04-11T08:20:24.489Z</time></trkpt><trkpt lat="44.1024767" lon="11.4123768"><ele>607.8571428571428</ele><time>2026-04-11T08:20:25.489Z</time></trkpt><trkpt lat="44.1024097" lon="11.4124288"><ele>608.7142857142857</ele><time>2026-04-11T08:20:26.489Z</time></trkpt><trkpt lat="44.1023418" lon="11.4124802"><ele>609.5714285714286</ele><time>2026-04-11T08:20:27.488Z</time></trkpt><trkpt lat="44.1022783" lon="11.4125402"><ele>610.4285714285713</ele><time>2026-04-11T08:20:28.489Z</time></trkpt><trkpt lat="44.1022218" lon="11.4126053"><ele>611.2857142857142</ele><time>2026-04-11T08:20:29.487Z</time></trkpt><trkpt lat="44.1021748" lon="11.4126745"><ele>612.1428571428571</ele><time>2026-04-11T08:20:30.488Z</time></trkpt><trkpt lat="44.1021308" lon="11.4127422"><ele>613.0</ele><time>2026-04-11T08:20:31.487Z</time></trkpt><trkpt lat="44.1020848" lon="11.4128107"><ele>613.0</ele><time>2026-04-11T08:20:32.49Z</time></trkpt><trkpt lat="44.102048" lon="11.412894"><ele>613.0</ele><time>2026-04-11T08:20:33.49Z</time></trkpt><trkpt lat="44.102023" lon="11.4129845"><ele>613.0</ele><time>2026-04-11T08:20:34.49Z</time></trkpt><trkpt lat="44.1020092" lon="11.4130842"><ele>613.0</ele><time>2026-04-11T08:20:35.489Z</time></trkpt><trkpt lat="44.1020035" lon="11.413175"><ele>613.0</ele><time>2026-04-11T08:20:36.49Z</time></trkpt><trkpt lat="44.1019743" lon="11.4133422"><ele>613.0</ele><time>2026-04-11T08:20:38.49Z</time></trkpt><trkpt lat="44.1019453" lon="11.4134322"><ele>615.5</ele><time>2026-04-11T08:20:39.489Z</time></trkpt><trkpt lat="44.1018942" lon="11.4134982"><ele>618.0</ele><time>2026-04-11T08:20:40.488Z</time></trkpt><trkpt lat="44.101835" lon="11.4135648"><ele>620.5</ele><time>2026-04-11T08:20:41.489Z</time></trkpt><trkpt lat="44.1017613" lon="11.4136167"><ele>623.0</ele><time>2026-04-11T08:20:42.49Z</time></trkpt><trkpt lat="44.1016797" lon="11.4136522"><ele>625.5</ele><time>2026-04-11T08:20:43.489Z</time></trkpt><trkpt lat="44.1015977" lon="11.4136722"><ele>628.0</ele><time>2026-04-11T08:20:44.492Z</time></trkpt><trkpt lat="44.1015232" lon="11.4136715"><ele>627.9999999999999</ele><time>2026-04-11T08:20:45.492Z</time></trkpt><trkpt lat="44.101466" lon="11.4136343"><ele>628.0</ele><time>2026-04-11T08:20:46.49Z</time></trkpt><trkpt lat="44.1014088" lon="11.413585"><ele>628.0</ele><time>2026-04-11T08:20:47.49Z</time></trkpt><trkpt lat="44.1013352" lon="11.4135537"><ele>628.0</ele><time>2026-04-11T08:20:48.49Z</time></trkpt><trkpt lat="44.1012538" lon="11.413547"><ele>628.0</ele><time>2026-04-11T08:20:49.49Z</time></trkpt><trkpt lat="44.1011815" lon="11.413566"><ele>627.9999999999999</ele><time>2026-04-11T08:20:50.49Z</time></trkpt><trkpt lat="44.1011048" lon="11.4136118"><ele>628.0</ele><time>2026-04-11T08:20:51.491Z</time></trkpt><trkpt lat="44.1010225" lon="11.4136563"><ele>628.0</ele><time>2026-04-11T08:20:52.489Z</time></trkpt><trkpt lat="44.1009367" lon="11.4136943"><ele>628.0</ele><time>2026-04-11T08:20:53.489Z</time></trkpt><trkpt lat="44.1008495" lon="11.413717"><ele>628.0</ele><time>2026-04-11T08:20:54.489Z</time></trkpt><trkpt lat="44.1007625" lon="11.4137322"><ele>628.0</ele><time>2026-04-11T08:20:55.487Z</time></trkpt><trkpt lat="44.1006752" lon="11.4137372"><ele>628.0</ele><time>2026-04-11T08:20:56.491Z</time></trkpt><trkpt lat="44.1005942" lon="11.4137407"><ele>628.0</ele><time>2026-04-11T08:20:57.488Z</time></trkpt><trkpt lat="44.1005137" lon="11.4137518"><ele>627.3333333333334</ele><time>2026-04-11T08:20:58.488Z</time></trkpt><trkpt lat="44.1004343" lon="11.413773"><ele>626.6666666666667</ele><time>2026-04-11T08:20:59.49Z</time></trkpt><trkpt lat="44.1003597" lon="11.4137853"><ele>626.0</ele><time>2026-04-11T08:21:00.488Z</time></trkpt><trkpt lat="44.1002877" lon="11.4137995"><ele>625.3333333333334</ele><time>2026-04-11T08:21:01.489Z</time></trkpt><trkpt lat="44.1002183" lon="11.4138182"><ele>624.6666666666666</ele><time>2026-04-11T08:21:02.489Z</time></trkpt><trkpt lat="44.1001522" lon="11.413845"><ele>624.0</ele><time>2026-04-11T08:21:03.489Z</time></trkpt><trkpt lat="44.1000545" lon="11.4139462"><ele>627.3333333333334</ele><time>2026-04-11T08:21:05.488Z</time></trkpt><trkpt lat="44.1000178" lon="11.414023"><ele>630.6666666666666</ele><time>2026-04-11T08:21:06.489Z</time></trkpt><trkpt lat="44.0999698" lon="11.4141048"><ele>634.0</ele><time>2026-04-11T08:21:07.489Z</time></trkpt><trkpt lat="44.099914" lon="11.4141882"><ele>637.3333333333333</ele><time>2026-04-11T08:21:08.489Z</time></trkpt><trkpt lat="44.099852" lon="11.4142767"><ele>640.6666666666666</ele><time>2026-04-11T08:21:09.489Z</time></trkpt><trkpt lat="44.0997943" lon="11.4143628"><ele>644.0</ele><time>2026-04-11T08:21:10.489Z</time></trkpt><trkpt lat="44.0997557" lon="11.4144375"><ele>644.0</ele><time>2026-04-11T08:21:11.49Z</time></trkpt><trkpt lat="44.0996708" lon="11.4145262"><ele>644.0</ele><time>2026-04-11T08:21:13.489Z</time></trkpt><trkpt lat="44.0995725" lon="11.4145105"><ele>644.0</ele><time>2026-04-11T08:21:15.489Z</time></trkpt><trkpt lat="44.0994812" lon="11.414521"><ele>644.0</ele><time>2026-04-11T08:21:17.487Z</time></trkpt><trkpt lat="44.099385" lon="11.4146003"><ele>644.0</ele><time>2026-04-11T08:21:19.487Z</time></trkpt><trkpt lat="44.0992728" lon="11.4146278"><ele>644.0</ele><time>2026-04-11T08:21:21.489Z</time></trkpt><trkpt lat="44.0992027" lon="11.4146395"><ele>644.0</ele><time>2026-04-11T08:21:22.489Z</time></trkpt><trkpt lat="44.0991285" lon="11.4146478"><ele>644.0</ele><time>2026-04-11T08:21:23.49Z</time></trkpt><trkpt lat="44.0990635" lon="11.4146478"><ele>644.0</ele><time>2026-04-11T08:21:24.489Z</time></trkpt><trkpt lat="44.0990003" lon="11.4146547"><ele>644.0</ele><time>2026-04-11T08:21:25.489Z</time></trkpt><trkpt lat="44.098885" lon="11.4146967"><ele>644.0</ele><time>2026-04-11T08:21:27.49Z</time></trkpt><trkpt lat="44.0988133" lon="11.4147422"><ele>648.6666666666666</ele><time>2026-04-11T08:21:28.49Z</time></trkpt><trkpt lat="44.098731" lon="11.4147815"><ele>653.3333333333333</ele><time>2026-04-11T08:21:29.49Z</time></trkpt><trkpt lat="44.0986517" lon="11.4148135"><ele>658.0</ele><time>2026-04-11T08:21:30.49Z</time></trkpt><trkpt lat="44.0985733" lon="11.4148417"><ele>662.6666666666666</ele><time>2026-04-11T08:21:31.49Z</time></trkpt><trkpt lat="44.098505" lon="11.4148565"><ele>667.3333333333334</ele><time>2026-04-11T08:21:32.491Z</time></trkpt><trkpt lat="44.098378" lon="11.41486"><ele>672.0</ele><time>2026-04-11T08:21:34.492Z</time></trkpt><trkpt lat="44.0983153" lon="11.414879"><ele>671.3333333333334</ele><time>2026-04-11T08:21:35.49Z</time></trkpt><trkpt lat="44.0982302" lon="11.4149812"><ele>670.6666666666666</ele><time>2026-04-11T08:21:37.489Z</time></trkpt><trkpt lat="44.0981963" lon="11.4150715"><ele>670.0</ele><time>2026-04-11T08:21:38.49Z</time></trkpt><trkpt lat="44.098157" lon="11.4151645"><ele>669.3333333333333</ele><time>2026-04-11T08:21:39.489Z</time></trkpt><trkpt lat="44.0981093" lon="11.4152463"><ele>668.6666666666666</ele><time>2026-04-11T08:21:40.491Z</time></trkpt><trkpt lat="44.098052" lon="11.4153127"><ele>668.0</ele><time>2026-04-11T08:21:41.487Z</time></trkpt><trkpt lat="44.0980008" lon="11.4153807"><ele>668.0</ele><time>2026-04-11T08:21:42.488Z</time></trkpt><trkpt lat="44.0979553" lon="11.415445"><ele>668.0</ele><time>2026-04-11T08:21:43.488Z</time></trkpt><trkpt lat="44.097906" lon="11.4155003"><ele>668.0</ele><time>2026-04-11T08:21:44.488Z</time></trkpt><trkpt lat="44.0977962" lon="11.4155548"><ele>668.0</ele><time>2026-04-11T08:21:46.49Z</time></trkpt><trkpt lat="44.0976752" lon="11.4155633"><ele>668.0</ele><time>2026-04-11T08:21:48.49Z</time></trkpt><trkpt lat="44.0976092" lon="11.4155922"><ele>668.0</ele><time>2026-04-11T08:21:49.489Z</time></trkpt><trkpt lat="44.0975482" lon="11.4156367"><ele>671.2857142857142</ele><time>2026-04-11T08:21:50.489Z</time></trkpt><trkpt lat="44.0974842" lon="11.4156935"><ele>674.5714285714286</ele><time>2026-04-11T08:21:51.489Z</time></trkpt><trkpt lat="44.0974225" lon="11.4157458"><ele>677.8571428571429</ele><time>2026-04-11T08:21:52.489Z</time></trkpt><trkpt lat="44.0973625" lon="11.4157883"><ele>681.1428571428571</ele><time>2026-04-11T08:21:53.49Z</time></trkpt><trkpt lat="44.0972965" lon="11.415821"><ele>684.4285714285714</ele><time>2026-04-11T08:21:54.489Z</time></trkpt><trkpt lat="44.0972327" lon="11.4158415"><ele>687.7142857142857</ele><time>2026-04-11T08:21:55.489Z</time></trkpt><trkpt lat="44.0971563" lon="11.415863"><ele>691.0</ele><time>2026-04-11T08:21:56.49Z</time></trkpt><trkpt lat="44.097093" lon="11.415907"><ele>692.4</ele><time>2026-04-11T08:21:57.489Z</time></trkpt><trkpt lat="44.0970387" lon="11.4159572"><ele>693.8</ele><time>2026-04-11T08:21:58.49Z</time></trkpt><trkpt lat="44.0969293" lon="11.4160548"><ele>695.1999999999999</ele><time>2026-04-11T08:22:00.49Z</time></trkpt><trkpt lat="44.096866" lon="11.4161133"><ele>696.5999999999999</ele><time>2026-04-11T08:22:01.488Z</time></trkpt><trkpt lat="44.0968077" lon="11.4161568"><ele>698.0</ele><time>2026-04-11T08:22:02.489Z</time></trkpt><trkpt lat="44.0966803" lon="11.4161863"><ele>698.0</ele><time>2026-04-11T08:22:04.49Z</time></trkpt><trkpt lat="44.096602" lon="11.4161892"><ele>698.0</ele><time>2026-04-11T08:22:05.491Z</time></trkpt><trkpt lat="44.0965373" lon="11.4162117"><ele>698.0</ele><time>2026-04-11T08:22:06.49Z</time></trkpt><trkpt lat="44.0964703" lon="11.4162402"><ele>698.0</ele><time>2026-04-11T08:22:07.488Z</time></trkpt><trkpt lat="44.0963632" lon="11.4162417"><ele>698.0</ele><time>2026-04-11T08:22:09.49Z</time></trkpt><trkpt lat="44.096314" lon="11.416131"><ele>698.0</ele><time>2026-04-11T08:22:11.491Z</time></trkpt><trkpt lat="44.096244" lon="11.4160495"><ele>700.5</ele><time>2026-04-11T08:22:13.492Z</time></trkpt><trkpt lat="44.0961303" lon="11.4160782"><ele>703.0</ele><time>2026-04-11T08:22:15.491Z</time></trkpt><trkpt lat="44.0960703" lon="11.41612"><ele>705.5</ele><time>2026-04-11T08:22:16.49Z</time></trkpt><trkpt lat="44.096001" lon="11.4161618"><ele>708.0</ele><time>2026-04-11T08:22:17.492Z</time></trkpt><trkpt lat="44.0959278" lon="11.4161858"><ele>710.5</ele><time>2026-04-11T08:22:18.49Z</time></trkpt><trkpt lat="44.0958565" lon="11.4162122"><ele>713.0</ele><time>2026-04-11T08:22:19.489Z</time></trkpt><trkpt lat="44.0957892" lon="11.4162198"><ele>714.8</ele><time>2026-04-11T08:22:20.492Z</time></trkpt><trkpt lat="44.0956675" lon="11.41616"><ele>716.5999999999999</ele><time>2026-04-11T08:22:22.49Z</time></trkpt><trkpt lat="44.0955978" lon="11.4161243"><ele>718.4000000000001</ele><time>2026-04-11T08:22:23.491Z</time></trkpt><trkpt lat="44.0955255" lon="11.4161012"><ele>720.2</ele><time>2026-04-11T08:22:24.491Z</time></trkpt><trkpt lat="44.0954448" lon="11.4160897"><ele>722.0</ele><time>2026-04-11T08:22:25.492Z</time></trkpt><trkpt lat="44.095352" lon="11.4160868"><ele>722.0</ele><time>2026-04-11T08:22:26.492Z</time></trkpt><trkpt lat="44.0952608" lon="11.4160865"><ele>722.0</ele><time>2026-04-11T08:22:27.492Z</time></trkpt><trkpt lat="44.0951802" lon="11.41607"><ele>722.0</ele><time>2026-04-11T08:22:28.492Z</time></trkpt><trkpt lat="44.0951063" lon="11.4160538"><ele>722.0</ele><time>2026-04-11T08:22:29.492Z</time></trkpt><trkpt lat="44.09503" lon="11.4160428"><ele>722.0</ele><time>2026-04-11T08:22:30.491Z</time></trkpt><trkpt lat="44.0949507" lon="11.416031"><ele>722.0</ele><time>2026-04-11T08:22:31.49Z</time></trkpt><trkpt lat="44.0948733" lon="11.4160247"><ele>723.8333333333333</ele><time>2026-04-11T08:22:32.491Z</time></trkpt><trkpt lat="44.09479" lon="11.4160265"><ele>725.6666666666666</ele><time>2026-04-11T08:22:33.49Z</time></trkpt><trkpt lat="44.094703" lon="11.4160167"><ele>727.5</ele><time>2026-04-11T08:22:34.493Z</time></trkpt><trkpt lat="44.0946152" lon="11.4159957"><ele>729.3333333333334</ele><time>2026-04-11T08:22:35.493Z</time></trkpt><trkpt lat="44.0945282" lon="11.4159897"><ele>731.1666666666667</ele><time>2026-04-11T08:22:36.492Z</time></trkpt><trkpt lat="44.0944442" lon="11.416012"><ele>733.0</ele><time>2026-04-11T08:22:37.491Z</time></trkpt><trkpt lat="44.0943585" lon="11.4160498"><ele>733.0</ele><time>2026-04-11T08:22:38.493Z</time></trkpt><trkpt lat="44.0942638" lon="11.4160932"><ele>733.0</ele><time>2026-04-11T08:22:39.494Z</time></trkpt><trkpt lat="44.0941783" lon="11.4161245"><ele>733.0</ele><time>2026-04-11T08:22:40.492Z</time></trkpt><trkpt lat="44.0941113" lon="11.4161608"><ele>733.0</ele><time>2026-04-11T08:22:41.494Z</time></trkpt><trkpt lat="44.0940318" lon="11.4162568"><ele>733.0</ele><time>2026-04-11T08:22:43.493Z</time></trkpt><trkpt lat="44.0940443" lon="11.4163927"><ele>732.1666666666667</ele><time>2026-04-11T08:22:45.493Z</time></trkpt><trkpt lat="44.0940543" lon="11.4164927"><ele>731.3333333333334</ele><time>2026-04-11T08:22:48.494Z</time></trkpt><trkpt lat="44.0940188" lon="11.416343"><ele>730.5</ele><time>2026-04-11T08:22:56.491Z</time></trkpt><trkpt lat="44.0939843" lon="11.4162538"><ele>729.6666666666666</ele><time>2026-04-11T08:22:57.492Z</time></trkpt><trkpt lat="44.0939458" lon="11.4161773"><ele>728.8333333333333</ele><time>2026-04-11T08:22:58.493Z</time></trkpt><trkpt lat="44.0938608" lon="11.4160648"><ele>728.0</ele><time>2026-04-11T08:23:00.494Z</time></trkpt><trkpt lat="44.0937717" lon="11.416002"><ele>728.0</ele><time>2026-04-11T08:23:02.494Z</time></trkpt><trkpt lat="44.0937083" lon="11.4159648"><ele>728.0</ele><time>2026-04-11T08:23:07.492Z</time></trkpt><trkpt lat="44.0936027" lon="11.4159188"><ele>728.0</ele><time>2026-04-11T08:23:09.492Z</time></trkpt><trkpt lat="44.0935302" lon="11.4158735"><ele>728.0</ele><time>2026-04-11T08:23:10.493Z</time></trkpt><trkpt lat="44.0934617" lon="11.4158182"><ele>728.0</ele><time>2026-04-11T08:23:11.492Z</time></trkpt><trkpt lat="44.0933935" lon="11.4157613"><ele>728.0</ele><time>2026-04-11T08:23:12.493Z</time></trkpt><trkpt lat="44.0933255" lon="11.4156873"><ele>728.0</ele><time>2026-04-11T08:23:13.494Z</time></trkpt><trkpt lat="44.0932693" lon="11.4156022"><ele>728.0</ele><time>2026-04-11T08:23:14.496Z</time></trkpt><trkpt lat="44.0932203" lon="11.4155068"><ele>728.0</ele><time>2026-04-11T08:23:15.494Z</time></trkpt><trkpt lat="44.0931685" lon="11.4154218"><ele>728.0</ele><time>2026-04-11T08:23:16.493Z</time></trkpt><trkpt lat="44.093113" lon="11.4153403"><ele>728.0</ele><time>2026-04-11T08:23:17.494Z</time></trkpt><trkpt lat="44.0930615" lon="11.4152547"><ele>728.0</ele><time>2026-04-11T08:23:18.493Z</time></trkpt><trkpt lat="44.0930072" lon="11.4151727"><ele>725.3333333333333</ele><time>2026-04-11T08:23:19.49Z</time></trkpt><trkpt lat="44.092943" lon="11.4151133"><ele>722.6666666666666</ele><time>2026-04-11T08:23:20.491Z</time></trkpt><trkpt lat="44.0928688" lon="11.4150657"><ele>720.0</ele><time>2026-04-11T08:23:21.491Z</time></trkpt><trkpt lat="44.0927842" lon="11.4150223"><ele>717.3333333333334</ele><time>2026-04-11T08:23:22.491Z</time></trkpt><trkpt lat="44.0927115" lon="11.414965"><ele>714.6666666666667</ele><time>2026-04-11T08:23:23.495Z</time></trkpt><trkpt lat="44.0926557" lon="11.414888"><ele>712.0</ele><time>2026-04-11T08:23:24.494Z</time></trkpt><trkpt lat="44.092617" lon="11.4147807"><ele>712.2</ele><time>2026-04-11T08:23:25.493Z</time></trkpt><trkpt lat="44.0925827" lon="11.4146483"><ele>712.4000000000001</ele><time>2026-04-11T08:23:26.493Z</time></trkpt><trkpt lat="44.0925403" lon="11.4145193"><ele>712.5999999999999</ele><time>2026-04-11T08:23:27.493Z</time></trkpt><trkpt lat="44.0924782" lon="11.4144033"><ele>712.8</ele><time>2026-04-11T08:23:28.493Z</time></trkpt><trkpt lat="44.0924027" lon="11.4143075"><ele>713.0</ele><time>2026-04-11T08:23:29.493Z</time></trkpt><trkpt lat="44.0923172" lon="11.4142397"><ele>711.0</ele><time>2026-04-11T08:23:30.493Z</time></trkpt><trkpt lat="44.0922158" lon="11.414195"><ele>709.0</ele><time>2026-04-11T08:23:31.492Z</time></trkpt><trkpt lat="44.0921023" lon="11.4141867"><ele>707.0</ele><time>2026-04-11T08:23:32.493Z</time></trkpt><trkpt lat="44.0919775" lon="11.414219"><ele>705.0</ele><time>2026-04-11T08:23:33.494Z</time></trkpt><trkpt lat="44.0918385" lon="11.414282"><ele>705.0</ele><time>2026-04-11T08:23:34.497Z</time></trkpt><trkpt lat="44.0916978" lon="11.4143598"><ele>705.0</ele><time>2026-04-11T08:23:35.493Z</time></trkpt><trkpt lat="44.0915757" lon="11.4144232"><ele>705.0</ele><time>2026-04-11T08:23:36.495Z</time></trkpt><trkpt lat="44.0914807" lon="11.4144538"><ele>705.0</ele><time>2026-04-11T08:23:37.492Z</time></trkpt><trkpt lat="44.0914013" lon="11.4144503"><ele>704.5</ele><time>2026-04-11T08:23:38.493Z</time></trkpt><trkpt lat="44.0913208" lon="11.4144128"><ele>704.0</ele><time>2026-04-11T08:23:39.494Z</time></trkpt><trkpt lat="44.0912342" lon="11.414359"><ele>703.5</ele><time>2026-04-11T08:23:40.493Z</time></trkpt><trkpt lat="44.0911465" lon="11.4143275"><ele>703.0</ele><time>2026-04-11T08:23:41.493Z</time></trkpt><trkpt lat="44.0910613" lon="11.4143303"><ele>702.5</ele><time>2026-04-11T08:23:42.493Z</time></trkpt><trkpt lat="44.0909837" lon="11.4143618"><ele>702.0</ele><time>2026-04-11T08:23:43.492Z</time></trkpt><trkpt lat="44.090914" lon="11.4144282"><ele>702.0</ele><time>2026-04-11T08:23:44.491Z</time></trkpt><trkpt lat="44.0908495" lon="11.4145253"><ele>702.0</ele><time>2026-04-11T08:23:45.49Z</time></trkpt><trkpt lat="44.0907913" lon="11.4146258"><ele>702.0</ele><time>2026-04-11T08:23:46.49Z</time></trkpt><trkpt lat="44.0907315" lon="11.414711"><ele>702.0</ele><time>2026-04-11T08:23:47.491Z</time></trkpt><trkpt lat="44.0906638" lon="11.4147737"><ele>702.0</ele><time>2026-04-11T08:23:48.493Z</time></trkpt><trkpt lat="44.090593" lon="11.4147932"><ele>702.0</ele><time>2026-04-11T08:23:49.492Z</time></trkpt><trkpt lat="44.0905083" lon="11.4147797"><ele>700.0</ele><time>2026-04-11T08:23:50.493Z</time></trkpt><trkpt lat="44.0904178" lon="11.4147522"><ele>698.0</ele><time>2026-04-11T08:23:51.493Z</time></trkpt><trkpt lat="44.0903203" lon="11.4147167"><ele>696.0</ele><time>2026-04-11T08:23:52.493Z</time></trkpt><trkpt lat="44.0902225" lon="11.4146687"><ele>694.0</ele><time>2026-04-11T08:23:53.494Z</time></trkpt><trkpt lat="44.0901345" lon="11.414597"><ele>692.0</ele><time>2026-04-11T08:23:54.496Z</time></trkpt><trkpt lat="44.0900568" lon="11.414513"><ele>692.0</ele><time>2026-04-11T08:23:55.493Z</time></trkpt><trkpt lat="44.0899738" lon="11.4144593"><ele>692.0</ele><time>2026-04-11T08:23:56.493Z</time></trkpt><trkpt lat="44.0898718" lon="11.414447"><ele>692.0</ele><time>2026-04-11T08:23:57.492Z</time></trkpt><trkpt lat="44.0897485" lon="11.414464"><ele>692.0</ele><time>2026-04-11T08:23:58.494Z</time></trkpt><trkpt lat="44.0896102" lon="11.4145108"><ele>691.3333333333333</ele><time>2026-04-11T08:23:59.495Z</time></trkpt><trkpt lat="44.0894737" lon="11.4145805"><ele>690.6666666666666</ele><time>2026-04-11T08:24:00.494Z</time></trkpt><trkpt lat="44.0893325" lon="11.4146675"><ele>690.0</ele><time>2026-04-11T08:24:01.494Z</time></trkpt><trkpt lat="44.0891838" lon="11.4147622"><ele>690.6666666666666</ele><time>2026-04-11T08:24:02.494Z</time></trkpt><trkpt lat="44.0890337" lon="11.4148537"><ele>691.3333333333333</ele><time>2026-04-11T08:24:03.498Z</time></trkpt><trkpt lat="44.0888957" lon="11.4149418"><ele>692.0</ele><time>2026-04-11T08:24:04.493Z</time></trkpt><trkpt lat="44.0887713" lon="11.4150377"><ele>692.0</ele><time>2026-04-11T08:24:05.495Z</time></trkpt><trkpt lat="44.0886595" lon="11.415156"><ele>692.0</ele><time>2026-04-11T08:24:06.493Z</time></trkpt><trkpt lat="44.0885535" lon="11.4152813"><ele>692.0</ele><time>2026-04-11T08:24:07.493Z</time></trkpt><trkpt lat="44.0884542" lon="11.4153982"><ele>692.0</ele><time>2026-04-11T08:24:08.492Z</time></trkpt><trkpt lat="44.0883527" lon="11.4155137"><ele>694.25</ele><time>2026-04-11T08:24:09.492Z</time></trkpt><trkpt lat="44.0882447" lon="11.4156352"><ele>696.5</ele><time>2026-04-11T08:24:10.491Z</time></trkpt><trkpt lat="44.08813" lon="11.415764"><ele>698.75</ele><time>2026-04-11T08:24:11.492Z</time></trkpt><trkpt lat="44.0880015" lon="11.4159003"><ele>701.0</ele><time>2026-04-11T08:24:12.493Z</time></trkpt><trkpt lat="44.0878605" lon="11.4160412"><ele>701.0</ele><time>2026-04-11T08:24:13.495Z</time></trkpt><trkpt lat="44.0877072" lon="11.4161813"><ele>701.0</ele><time>2026-04-11T08:24:14.497Z</time></trkpt><trkpt lat="44.0875593" lon="11.4162993"><ele>701.0</ele><time>2026-04-11T08:24:15.494Z</time></trkpt><trkpt lat="44.0874188" lon="11.4163923"><ele>704.25</ele><time>2026-04-11T08:24:16.494Z</time></trkpt><trkpt lat="44.0872863" lon="11.4164715"><ele>707.5</ele><time>2026-04-11T08:24:17.495Z</time></trkpt><trkpt lat="44.0871588" lon="11.4165368"><ele>710.75</ele><time>2026-04-11T08:24:18.494Z</time></trkpt><trkpt lat="44.0870397" lon="11.4165747"><ele>714.0</ele><time>2026-04-11T08:24:19.494Z</time></trkpt><trkpt lat="44.086931" lon="11.4165853"><ele>714.0</ele><time>2026-04-11T08:24:20.493Z</time></trkpt><trkpt lat="44.0868283" lon="11.4165695"><ele>714.0</ele><time>2026-04-11T08:24:21.493Z</time></trkpt><trkpt lat="44.086716" lon="11.4165228"><ele>714.0</ele><time>2026-04-11T08:24:22.493Z</time></trkpt><trkpt lat="44.0865995" lon="11.4164585"><ele>714.0</ele><time>2026-04-11T08:24:23.494Z</time></trkpt><trkpt lat="44.0864738" lon="11.4163892"><ele>708.6666666666666</ele><time>2026-04-11T08:24:24.496Z</time></trkpt><trkpt lat="44.0863307" lon="11.4163193"><ele>703.3333333333333</ele><time>2026-04-11T08:24:25.492Z</time></trkpt><trkpt lat="44.0861775" lon="11.4162498"><ele>698.0</ele><time>2026-04-11T08:24:26.492Z</time></trkpt><trkpt lat="44.0860322" lon="11.4161803"><ele>698.0</ele><time>2026-04-11T08:24:27.492Z</time></trkpt><trkpt lat="44.0858918" lon="11.4161138"><ele>698.0</ele><time>2026-04-11T08:24:28.494Z</time></trkpt><trkpt lat="44.0857558" lon="11.4160502"><ele>698.0</ele><time>2026-04-11T08:24:29.493Z</time></trkpt><trkpt lat="44.0856213" lon="11.416004"><ele>698.0</ele><time>2026-04-11T08:24:30.494Z</time></trkpt><trkpt lat="44.0854828" lon="11.4159897"><ele>697.0</ele><time>2026-04-11T08:24:31.492Z</time></trkpt><trkpt lat="44.0853512" lon="11.4160095"><ele>696.0</ele><time>2026-04-11T08:24:32.49Z</time></trkpt><trkpt lat="44.0852293" lon="11.4160353"><ele>695.0</ele><time>2026-04-11T08:24:33.489Z</time></trkpt><trkpt lat="44.085113" lon="11.4160398"><ele>694.0</ele><time>2026-04-11T08:24:34.489Z</time></trkpt><trkpt lat="44.0850058" lon="11.4160082"><ele>695.25</ele><time>2026-04-11T08:24:35.49Z</time></trkpt><trkpt lat="44.0849018" lon="11.4159535"><ele>696.5</ele><time>2026-04-11T08:24:36.49Z</time></trkpt><trkpt lat="44.084787" lon="11.4158853"><ele>697.75</ele><time>2026-04-11T08:24:37.494Z</time></trkpt><trkpt lat="44.0846835" lon="11.4158103"><ele>699.0</ele><time>2026-04-11T08:24:38.494Z</time></trkpt><trkpt lat="44.0845927" lon="11.4157143"><ele>699.0</ele><time>2026-04-11T08:24:39.491Z</time></trkpt><trkpt lat="44.0845052" lon="11.415599"><ele>699.0</ele><time>2026-04-11T08:24:40.492Z</time></trkpt><trkpt lat="44.0844115" lon="11.415491"><ele>699.0</ele><time>2026-04-11T08:24:41.493Z</time></trkpt><trkpt lat="44.0843043" lon="11.4154032"><ele>699.0</ele><time>2026-04-11T08:24:42.492Z</time></trkpt><trkpt lat="44.0841862" lon="11.4153472"><ele>693.6666666666666</ele><time>2026-04-11T08:24:43.492Z</time></trkpt><trkpt lat="44.0840507" lon="11.4153245"><ele>688.3333333333333</ele><time>2026-04-11T08:24:44.494Z</time></trkpt><trkpt lat="44.0838928" lon="11.415317"><ele>683.0</ele><time>2026-04-11T08:24:45.492Z</time></trkpt><trkpt lat="44.0837163" lon="11.4153093"><ele>683.0</ele><time>2026-04-11T08:24:46.491Z</time></trkpt><trkpt lat="44.083545" lon="11.4153073"><ele>683.0</ele><time>2026-04-11T08:24:47.493Z</time></trkpt><trkpt lat="44.0833865" lon="11.4153285"><ele>683.0</ele><time>2026-04-11T08:24:48.492Z</time></trkpt><trkpt lat="44.0832393" lon="11.4153678"><ele>682.25</ele><time>2026-04-11T08:24:49.492Z</time></trkpt><trkpt lat="44.0831083" lon="11.415412"><ele>681.5</ele><time>2026-04-11T08:24:50.493Z</time></trkpt><trkpt lat="44.082992" lon="11.4154415"><ele>680.75</ele><time>2026-04-11T08:24:51.495Z</time></trkpt><trkpt lat="44.082885" lon="11.415445"><ele>680.0</ele><time>2026-04-11T08:24:52.494Z</time></trkpt><trkpt lat="44.0827813" lon="11.4154065"><ele>680.0</ele><time>2026-04-11T08:24:53.494Z</time></trkpt><trkpt lat="44.0826835" lon="11.4153297"><ele>680.0</ele><time>2026-04-11T08:24:54.493Z</time></trkpt><trkpt lat="44.0825953" lon="11.4152103"><ele>680.0</ele><time>2026-04-11T08:24:55.493Z</time></trkpt><trkpt lat="44.0825187" lon="11.4150542"><ele>680.0</ele><time>2026-04-11T08:24:56.493Z</time></trkpt><trkpt lat="44.0824352" lon="11.4148675"><ele>677.0</ele><time>2026-04-11T08:24:57.491Z</time></trkpt><trkpt lat="44.0823343" lon="11.4146608"><ele>674.0</ele><time>2026-04-11T08:24:58.491Z</time></trkpt><trkpt lat="44.0822378" lon="11.4144572"><ele>671.0</ele><time>2026-04-11T08:24:59.49Z</time></trkpt><trkpt lat="44.0821508" lon="11.4142618"><ele>671.0</ele><time>2026-04-11T08:25:00.493Z</time></trkpt><trkpt lat="44.0820682" lon="11.4140728"><ele>671.0</ele><time>2026-04-11T08:25:01.491Z</time></trkpt><trkpt lat="44.0819777" lon="11.4138818"><ele>671.0</ele><time>2026-04-11T08:25:02.494Z</time></trkpt><trkpt lat="44.0818843" lon="11.4136888"><ele>670.6666666666666</ele><time>2026-04-11T08:25:03.494Z</time></trkpt><trkpt lat="44.081798" lon="11.4135007"><ele>670.3333333333334</ele><time>2026-04-11T08:25:04.493Z</time></trkpt><trkpt lat="44.0817123" lon="11.4133195"><ele>670.0</ele><time>2026-04-11T08:25:05.493Z</time></trkpt><trkpt lat="44.0816268" lon="11.4131568"><ele>669.75</ele><time>2026-04-11T08:25:06.499Z</time></trkpt><trkpt lat="44.0815323" lon="11.4130217"><ele>669.5</ele><time>2026-04-11T08:25:07.494Z</time></trkpt><trkpt lat="44.0814288" lon="11.4129282"><ele>669.25</ele><time>2026-04-11T08:25:08.497Z</time></trkpt><trkpt lat="44.0813172" lon="11.4128728"><ele>669.0</ele><time>2026-04-11T08:25:09.494Z</time></trkpt><trkpt lat="44.0811842" lon="11.4128418"><ele>671.3333333333334</ele><time>2026-04-11T08:25:10.495Z</time></trkpt><trkpt lat="44.0810375" lon="11.4128282"><ele>673.6666666666667</ele><time>2026-04-11T08:25:11.495Z</time></trkpt><trkpt lat="44.080878" lon="11.4128183"><ele>676.0</ele><time>2026-04-11T08:25:12.495Z</time></trkpt><trkpt lat="44.0807058" lon="11.4128112"><ele>678.3333333333334</ele><time>2026-04-11T08:25:13.496Z</time></trkpt><trkpt lat="44.0805318" lon="11.412806"><ele>680.6666666666666</ele><time>2026-04-11T08:25:14.496Z</time></trkpt><trkpt lat="44.0803693" lon="11.4127942"><ele>683.0</ele><time>2026-04-11T08:25:15.494Z</time></trkpt><trkpt lat="44.0802225" lon="11.41279"><ele>683.0</ele><time>2026-04-11T08:25:16.494Z</time></trkpt><trkpt lat="44.0800793" lon="11.412811"><ele>683.0</ele><time>2026-04-11T08:25:17.495Z</time></trkpt><trkpt lat="44.0799465" lon="11.4128682"><ele>683.0</ele><time>2026-04-11T08:25:18.495Z</time></trkpt><trkpt lat="44.07984" lon="11.4129467"><ele>683.0</ele><time>2026-04-11T08:25:19.495Z</time></trkpt><trkpt lat="44.0797575" lon="11.4130203"><ele>683.8333333333333</ele><time>2026-04-11T08:25:20.495Z</time></trkpt><trkpt lat="44.079694" lon="11.4130578"><ele>684.6666666666666</ele><time>2026-04-11T08:25:21.495Z</time></trkpt><trkpt lat="44.0796328" lon="11.4129977"><ele>685.5</ele><time>2026-04-11T08:25:23.495Z</time></trkpt><trkpt lat="44.079672" lon="11.412842"><ele>686.3333333333334</ele><time>2026-04-11T08:25:25.498Z</time></trkpt><trkpt lat="44.0797098" lon="11.4127425"><ele>687.1666666666667</ele><time>2026-04-11T08:25:26.495Z</time></trkpt><trkpt lat="44.0797417" lon="11.4126325"><ele>688.0</ele><time>2026-04-11T08:25:27.494Z</time></trkpt><trkpt lat="44.0797675" lon="11.4125227"><ele>688.5</ele><time>2026-04-11T08:25:28.494Z</time></trkpt><trkpt lat="44.0797842" lon="11.4124268"><ele>689.0</ele><time>2026-04-11T08:25:29.494Z</time></trkpt><trkpt lat="44.079771" lon="11.4123268"><ele>689.5</ele><time>2026-04-11T08:25:31.493Z</time></trkpt><trkpt lat="44.0796802" lon="11.4123192"><ele>690.0</ele><time>2026-04-11T08:27:11.494Z</time></trkpt><trkpt lat="44.0795585" lon="11.4122935"><ele>690.5</ele><time>2026-04-11T08:27:13.493Z</time></trkpt><trkpt lat="44.079485" lon="11.4122807"><ele>691.0</ele><time>2026-04-11T08:27:14.494Z</time></trkpt><trkpt lat="44.0794198" lon="11.4122622"><ele>691.0</ele><time>2026-04-11T08:27:15.493Z</time></trkpt><trkpt lat="44.0793515" lon="11.4122293"><ele>691.0</ele><time>2026-04-11T08:27:16.495Z</time></trkpt><trkpt lat="44.0792817" lon="11.4121743"><ele>691.0</ele><time>2026-04-11T08:27:17.494Z</time></trkpt><trkpt lat="44.0792118" lon="11.4121058"><ele>691.0</ele><time>2026-04-11T08:27:18.494Z</time></trkpt><trkpt lat="44.0791468" lon="11.4120245"><ele>691.0</ele><time>2026-04-11T08:27:19.493Z</time></trkpt><trkpt lat="44.0790867" lon="11.411933"><ele>691.0</ele><time>2026-04-11T08:27:20.495Z</time></trkpt><trkpt lat="44.0790303" lon="11.4118373"><ele>691.0</ele><time>2026-04-11T08:27:21.494Z</time></trkpt><trkpt lat="44.0789553" lon="11.4117633"><ele>691.0</ele><time>2026-04-11T08:27:22.494Z</time></trkpt><trkpt lat="44.0788747" lon="11.4116992"><ele>691.0</ele><time>2026-04-11T08:27:23.494Z</time></trkpt><trkpt lat="44.078794" lon="11.411649"><ele>691.0</ele><time>2026-04-11T08:27:24.494Z</time></trkpt><trkpt lat="44.0787045" lon="11.4116183"><ele>691.0</ele><time>2026-04-11T08:27:25.491Z</time></trkpt><trkpt lat="44.078626" lon="11.4116145"><ele>691.0</ele><time>2026-04-11T08:27:26.492Z</time></trkpt><trkpt lat="44.0785095" lon="11.411682"><ele>690.9999999999999</ele><time>2026-04-11T08:27:28.493Z</time></trkpt><trkpt lat="44.0784692" lon="11.4117653"><ele>691.0</ele><time>2026-04-11T08:27:29.493Z</time></trkpt><trkpt lat="44.078432" lon="11.4118708"><ele>691.0</ele><time>2026-04-11T08:27:30.492Z</time></trkpt><trkpt lat="44.0783917" lon="11.4119563"><ele>691.0</ele><time>2026-04-11T08:27:31.497Z</time></trkpt><trkpt lat="44.0783363" lon="11.4120273"><ele>691.0</ele><time>2026-04-11T08:27:32.496Z</time></trkpt><trkpt lat="44.0782698" lon="11.4120653"><ele>690.9999999999999</ele><time>2026-04-11T08:27:33.496Z</time></trkpt><trkpt lat="44.0782042" lon="11.412078"><ele>691.0</ele><time>2026-04-11T08:27:34.494Z</time></trkpt><trkpt lat="44.0781322" lon="11.4120733"><ele>690.1999999999999</ele><time>2026-04-11T08:27:35.493Z</time></trkpt><trkpt lat="44.0780408" lon="11.4120543"><ele>689.4</ele><time>2026-04-11T08:27:36.493Z</time></trkpt><trkpt lat="44.077934" lon="11.4120435"><ele>688.6</ele><time>2026-04-11T08:27:37.494Z</time></trkpt><trkpt lat="44.0778335" lon="11.412058"><ele>687.8</ele><time>2026-04-11T08:27:38.495Z</time></trkpt><trkpt lat="44.0777358" lon="11.4120885"><ele>687.0</ele><time>2026-04-11T08:27:39.494Z</time></trkpt><trkpt lat="44.0776447" lon="11.4121005"><ele>687.0</ele><time>2026-04-11T08:27:40.494Z</time></trkpt><trkpt lat="44.0775498" lon="11.4120975"><ele>687.0</ele><time>2026-04-11T08:27:41.494Z</time></trkpt><trkpt lat="44.0774617" lon="11.4120955"><ele>687.0</ele><time>2026-04-11T08:27:42.494Z</time></trkpt><trkpt lat="44.0773747" lon="11.4120835"><ele>687.0</ele><time>2026-04-11T08:27:43.493Z</time></trkpt><trkpt lat="44.0772823" lon="11.4120712"><ele>687.0</ele><time>2026-04-11T08:27:44.495Z</time></trkpt><trkpt lat="44.0771897" lon="11.4120445"><ele>686.5</ele><time>2026-04-11T08:27:45.495Z</time></trkpt><trkpt lat="44.0771133" lon="11.4119953"><ele>686.0</ele><time>2026-04-11T08:27:46.494Z</time></trkpt><trkpt lat="44.0770458" lon="11.4119307"><ele>685.5</ele><time>2026-04-11T08:27:47.494Z</time></trkpt><trkpt lat="44.0769847" lon="11.4118713"><ele>685.0</ele><time>2026-04-11T08:27:48.492Z</time></trkpt><trkpt lat="44.0769175" lon="11.4118265"><ele>684.5</ele><time>2026-04-11T08:27:49.492Z</time></trkpt><trkpt lat="44.0768423" lon="11.4118068"><ele>684.0</ele><time>2026-04-11T08:27:50.492Z</time></trkpt><trkpt lat="44.076765" lon="11.4117932"><ele>684.0</ele><time>2026-04-11T08:27:51.492Z</time></trkpt><trkpt lat="44.0766992" lon="11.4117735"><ele>684.0</ele><time>2026-04-11T08:27:52.494Z</time></trkpt><trkpt lat="44.0765922" lon="11.41171"><ele>684.0</ele><time>2026-04-11T08:27:54.495Z</time></trkpt><trkpt lat="44.0765042" lon="11.411637"><ele>684.0</ele><time>2026-04-11T08:27:56.494Z</time></trkpt><trkpt lat="44.076448" lon="11.4115952"><ele>684.0</ele><time>2026-04-11T08:27:57.497Z</time></trkpt><trkpt lat="44.0763852" lon="11.4115562"><ele>684.0</ele><time>2026-04-11T08:27:58.493Z</time></trkpt><trkpt lat="44.0763212" lon="11.4115278"><ele>683.5</ele><time>2026-04-11T08:27:59.494Z</time></trkpt><trkpt lat="44.0762493" lon="11.4115123"><ele>683.0</ele><time>2026-04-11T08:28:00.493Z</time></trkpt><trkpt lat="44.0761778" lon="11.4115198"><ele>682.5</ele><time>2026-04-11T08:28:01.494Z</time></trkpt><trkpt lat="44.0761142" lon="11.411543"><ele>682.0</ele><time>2026-04-11T08:28:02.495Z</time></trkpt><trkpt lat="44.0760063" lon="11.4115888"><ele>681.5</ele><time>2026-04-11T08:28:04.495Z</time></trkpt><trkpt lat="44.0759472" lon="11.4116345"><ele>681.0</ele><time>2026-04-11T08:28:06.493Z</time></trkpt><trkpt lat="44.0758793" lon="11.411679"><ele>681.0</ele><time>2026-04-11T08:28:09.496Z</time></trkpt><trkpt lat="44.0758055" lon="11.4116917"><ele>681.0</ele><time>2026-04-11T08:28:12.494Z</time></trkpt><trkpt lat="44.0757263" lon="11.4117105"><ele>681.0</ele><time>2026-04-11T08:28:15.491Z</time></trkpt><trkpt lat="44.0756468" lon="11.4117463"><ele>681.0</ele><time>2026-04-11T08:28:18.492Z</time></trkpt><trkpt lat="44.0755492" lon="11.4118028"><ele>681.0</ele><time>2026-04-11T08:28:21.492Z</time></trkpt><trkpt lat="44.075429" lon="11.4118518"><ele>680.4</ele><time>2026-04-11T08:28:23.493Z</time></trkpt><trkpt lat="44.0753585" lon="11.4118807"><ele>679.8</ele><time>2026-04-11T08:28:24.493Z</time></trkpt><trkpt lat="44.0752613" lon="11.4119152"><ele>679.1999999999999</ele><time>2026-04-11T08:28:26.494Z</time></trkpt><trkpt lat="44.0751715" lon="11.4119125"><ele>678.5999999999999</ele><time>2026-04-11T08:28:28.493Z</time></trkpt><trkpt lat="44.0750492" lon="11.411898"><ele>678.0</ele><time>2026-04-11T08:28:30.492Z</time></trkpt><trkpt lat="44.0749318" lon="11.411906"><ele>676.1428571428571</ele><time>2026-04-11T08:28:32.496Z</time></trkpt><trkpt lat="44.0748512" lon="11.4119502"><ele>674.2857142857143</ele><time>2026-04-11T08:28:34.493Z</time></trkpt><trkpt lat="44.0747928" lon="11.4120048"><ele>672.4285714285714</ele><time>2026-04-11T08:28:36.495Z</time></trkpt><trkpt lat="44.0747312" lon="11.4120533"><ele>670.5714285714286</ele><time>2026-04-11T08:28:39.491Z</time></trkpt><trkpt lat="44.07467" lon="11.4121032"><ele>668.7142857142858</ele><time>2026-04-11T08:28:41.494Z</time></trkpt><trkpt lat="44.0746048" lon="11.412163"><ele>666.8571428571429</ele><time>2026-04-11T08:28:43.494Z</time></trkpt><trkpt lat="44.0745488" lon="11.4122118"><ele>665.0</ele><time>2026-04-11T08:28:45.495Z</time></trkpt><trkpt lat="44.0744838" lon="11.4122387"><ele>662.3333333333333</ele><time>2026-04-11T08:28:47.493Z</time></trkpt><trkpt lat="44.0743895" lon="11.4122262"><ele>659.6666666666666</ele><time>2026-04-11T08:28:50.493Z</time></trkpt><trkpt lat="44.074305" lon="11.4122187"><ele>657.0</ele><time>2026-04-11T08:28:53.495Z</time></trkpt><trkpt lat="44.0742153" lon="11.4122517"><ele>654.3333333333334</ele><time>2026-04-11T08:28:56.495Z</time></trkpt><trkpt lat="44.0741385" lon="11.4122457"><ele>651.6666666666667</ele><time>2026-04-11T08:28:59.494Z</time></trkpt><trkpt lat="44.0740722" lon="11.4122457"><ele>649.0</ele><time>2026-04-11T08:29:08.304Z</time></trkpt><trkpt lat="44.0740043" lon="11.4122592"><ele>647.1428571428571</ele><time>2026-04-11T08:29:40.301Z</time></trkpt><trkpt lat="44.0739402" lon="11.4122677"><ele>645.2857142857142</ele><time>2026-04-11T08:29:43.303Z</time></trkpt><trkpt lat="44.0738715" lon="11.4122685"><ele>643.4285714285713</ele><time>2026-04-11T08:29:48.304Z</time></trkpt><trkpt lat="44.0737897" lon="11.4122673"><ele>641.5714285714286</ele><time>2026-04-11T08:29:51.304Z</time></trkpt><trkpt lat="44.0737087" lon="11.4122608"><ele>639.7142857142858</ele><time>2026-04-11T08:29:54.302Z</time></trkpt><trkpt lat="44.0736433" lon="11.4122775"><ele>637.8571428571428</ele><time>2026-04-11T08:29:57.495Z</time></trkpt><trkpt lat="44.0735695" lon="11.412265"><ele>636.0</ele><time>2026-04-11T08:30:02.496Z</time></trkpt><trkpt lat="44.0734877" lon="11.412259"><ele>636.0</ele><time>2026-04-11T08:30:06.494Z</time></trkpt><trkpt lat="44.0734127" lon="11.4122287"><ele>636.0</ele><time>2026-04-11T08:30:22.492Z</time></trkpt><trkpt lat="44.0733527" lon="11.4122007"><ele>636.0</ele><time>2026-04-11T08:30:25.496Z</time></trkpt><trkpt lat="44.0732837" lon="11.4122668"><ele>636.0</ele><time>2026-04-11T08:30:28.494Z</time></trkpt><trkpt lat="44.0732378" lon="11.4123612"><ele>636.0</ele><time>2026-04-11T08:30:31.495Z</time></trkpt><trkpt lat="44.0732013" lon="11.4124327"><ele>636.0</ele><time>2026-04-11T08:30:34.494Z</time></trkpt><trkpt lat="44.0731447" lon="11.4124988"><ele>636.0</ele><time>2026-04-11T08:30:59.492Z</time></trkpt><trkpt lat="44.0730875" lon="11.4125652"><ele>635.4285714285714</ele><time>2026-04-11T08:31:31.492Z</time></trkpt><trkpt lat="44.0730372" lon="11.412619"><ele>634.8571428571429</ele><time>2026-04-11T08:31:48.491Z</time></trkpt><trkpt lat="44.073027" lon="11.4127093"><ele>634.2857142857143</ele><time>2026-04-11T08:31:59.498Z</time></trkpt><trkpt lat="44.072966" lon="11.4127642"><ele>633.7142857142858</ele><time>2026-04-11T08:32:04.492Z</time></trkpt><trkpt lat="44.0729027" lon="11.4127707"><ele>633.1428571428571</ele><time>2026-04-11T08:32:08.493Z</time></trkpt><trkpt lat="44.0728368" lon="11.4128308"><ele>632.5714285714287</ele><time>2026-04-11T08:32:14.493Z</time></trkpt><trkpt lat="44.072787" lon="11.4128873"><ele>632.0</ele><time>2026-04-11T08:32:16.492Z</time></trkpt><trkpt lat="44.0727332" lon="11.4129518"><ele>629.3333333333333</ele><time>2026-04-11T08:32:18.489Z</time></trkpt><trkpt lat="44.0726812" lon="11.4130213"><ele>626.6666666666666</ele><time>2026-04-11T08:32:20.49Z</time></trkpt><trkpt lat="44.0726182" lon="11.4130972"><ele>624.0</ele><time>2026-04-11T08:32:22.491Z</time></trkpt><trkpt lat="44.0725598" lon="11.4131827"><ele>621.3333333333334</ele><time>2026-04-11T08:32:24.493Z</time></trkpt><trkpt lat="44.0725037" lon="11.4132608"><ele>618.6666666666667</ele><time>2026-04-11T08:32:26.493Z</time></trkpt><trkpt lat="44.0724635" lon="11.4133338"><ele>616.0</ele><time>2026-04-11T08:32:28.493Z</time></trkpt><trkpt lat="44.0723942" lon="11.4133955"><ele>615.0</ele><time>2026-04-11T08:32:31.491Z</time></trkpt><trkpt lat="44.0723048" lon="11.4134483"><ele>614.0</ele><time>2026-04-11T08:32:34.493Z</time></trkpt><trkpt lat="44.0722468" lon="11.4134953"><ele>613.0</ele><time>2026-04-11T08:32:36.491Z</time></trkpt><trkpt lat="44.0721905" lon="11.4135508"><ele>612.0</ele><time>2026-04-11T08:32:38.492Z</time></trkpt><trkpt lat="44.0721422" lon="11.413616"><ele>611.0</ele><time>2026-04-11T08:32:40.494Z</time></trkpt><trkpt lat="44.0720855" lon="11.4136682"><ele>610.0</ele><time>2026-04-11T08:32:42.492Z</time></trkpt><trkpt lat="44.0719972" lon="11.4137162"><ele>610.0</ele><time>2026-04-11T08:32:44.491Z</time></trkpt><trkpt lat="44.0719033" lon="11.4137678"><ele>610.0</ele><time>2026-04-11T08:32:46.491Z</time></trkpt><trkpt lat="44.0718353" lon="11.4138547"><ele>610.0</ele><time>2026-04-11T08:32:48.492Z</time></trkpt><trkpt lat="44.071773" lon="11.4139585"><ele>610.0</ele><time>2026-04-11T08:32:50.492Z</time></trkpt><trkpt lat="44.0717207" lon="11.414064"><ele>610.0</ele><time>2026-04-11T08:32:52.493Z</time></trkpt><trkpt lat="44.071655" lon="11.4141803"><ele>606.0</ele><time>2026-04-11T08:32:54.493Z</time></trkpt><trkpt lat="44.0715848" lon="11.4143073"><ele>602.0</ele><time>2026-04-11T08:32:56.494Z</time></trkpt><trkpt lat="44.0715327" lon="11.414415"><ele>598.0</ele><time>2026-04-11T08:32:58.491Z</time></trkpt><trkpt lat="44.0714858" lon="11.4145383"><ele>594.0</ele><time>2026-04-11T08:33:00.493Z</time></trkpt><trkpt lat="44.0713995" lon="11.4146578"><ele>590.0</ele><time>2026-04-11T08:33:02.491Z</time></trkpt><trkpt lat="44.0713603" lon="11.4147367"><ele>587.0</ele><time>2026-04-11T08:33:03.491Z</time></trkpt><trkpt lat="44.0713185" lon="11.4148907"><ele>584.0</ele><time>2026-04-11T08:33:05.492Z</time></trkpt><trkpt lat="44.071309" lon="11.4149782"><ele>581.0</ele><time>2026-04-11T08:33:06.492Z</time></trkpt><trkpt lat="44.0712772" lon="11.4151287"><ele>578.0</ele><time>2026-04-11T08:33:08.491Z</time></trkpt><trkpt lat="44.0711993" lon="11.4152045"><ele>575.0</ele><time>2026-04-11T08:33:10.492Z</time></trkpt><trkpt lat="44.0711105" lon="11.415276"><ele>575.0</ele><time>2026-04-11T08:33:12.494Z</time></trkpt><trkpt lat="44.0709925" lon="11.4153467"><ele>575.0</ele><time>2026-04-11T08:33:14.495Z</time></trkpt><trkpt lat="44.070925" lon="11.4153817"><ele>575.0</ele><time>2026-04-11T08:33:15.494Z</time></trkpt><trkpt lat="44.0708562" lon="11.4154163"><ele>575.0</ele><time>2026-04-11T08:33:16.495Z</time></trkpt><trkpt lat="44.0707918" lon="11.4154578"><ele>575.0</ele><time>2026-04-11T08:33:17.494Z</time></trkpt><trkpt lat="44.0707348" lon="11.4155093"><ele>575.0</ele><time>2026-04-11T08:33:18.494Z</time></trkpt><trkpt lat="44.0706618" lon="11.4156263"><ele>573.6666666666666</ele><time>2026-04-11T08:33:20.494Z</time></trkpt><trkpt lat="44.0706128" lon="11.4157135"><ele>572.3333333333333</ele><time>2026-04-11T08:33:22.495Z</time></trkpt><trkpt lat="44.0705715" lon="11.4157812"><ele>571.0</ele><time>2026-04-11T08:33:24.494Z</time></trkpt><trkpt lat="44.0705328" lon="11.4158507"><ele>569.6666666666666</ele><time>2026-04-11T08:33:34.491Z</time></trkpt><trkpt lat="44.0704843" lon="11.4159807"><ele>568.3333333333334</ele><time>2026-04-11T08:33:49.496Z</time></trkpt><trkpt lat="44.0704487" lon="11.4160707"><ele>567.0</ele><time>2026-04-11T08:33:50.494Z</time></trkpt><trkpt lat="44.0704032" lon="11.416176"><ele>567.0</ele><time>2026-04-11T08:33:51.495Z</time></trkpt><trkpt lat="44.0703553" lon="11.4162897"><ele>567.0</ele><time>2026-04-11T08:33:52.494Z</time></trkpt><trkpt lat="44.0703137" lon="11.416403"><ele>567.0</ele><time>2026-04-11T08:33:53.493Z</time></trkpt><trkpt lat="44.0702783" lon="11.4165128"><ele>567.0</ele><time>2026-04-11T08:33:54.493Z</time></trkpt><trkpt lat="44.0702387" lon="11.4166205"><ele>567.0</ele><time>2026-04-11T08:33:55.491Z</time></trkpt><trkpt lat="44.0701887" lon="11.4167042"><ele>567.0</ele><time>2026-04-11T08:33:56.491Z</time></trkpt><trkpt lat="44.0701192" lon="11.4167538"><ele>567.3333333333334</ele><time>2026-04-11T08:33:57.491Z</time></trkpt><trkpt lat="44.0700473" lon="11.4168055"><ele>567.6666666666666</ele><time>2026-04-11T08:33:58.49Z</time></trkpt><trkpt lat="44.0699937" lon="11.4168853"><ele>568.0</ele><time>2026-04-11T08:33:59.489Z</time></trkpt><trkpt lat="44.069955" lon="11.4169843"><ele>568.3333333333333</ele><time>2026-04-11T08:34:00.492Z</time></trkpt><trkpt lat="44.0699207" lon="11.4170925"><ele>568.6666666666666</ele><time>2026-04-11T08:34:01.493Z</time></trkpt><trkpt lat="44.0698848" lon="11.4172057"><ele>569.0</ele><time>2026-04-11T08:34:02.493Z</time></trkpt><trkpt lat="44.0698465" lon="11.4173077"><ele>572.0</ele><time>2026-04-11T08:34:03.492Z</time></trkpt><trkpt lat="44.0698017" lon="11.4173827"><ele>575.0</ele><time>2026-04-11T08:34:04.492Z</time></trkpt><trkpt lat="44.0696963" lon="11.4173978"><ele>578.0</ele><time>2026-04-11T08:34:06.492Z</time></trkpt><trkpt lat="44.0696658" lon="11.4172532"><ele>581.0</ele><time>2026-04-11T08:34:08.492Z</time></trkpt><trkpt lat="44.06969" lon="11.4171582"><ele>584.0</ele><time>2026-04-11T08:34:09.491Z</time></trkpt><trkpt lat="44.0697163" lon="11.4170562"><ele>587.0</ele><time>2026-04-11T08:34:10.491Z</time></trkpt><trkpt lat="44.069737" lon="11.4169493"><ele>587.0</ele><time>2026-04-11T08:34:11.493Z</time></trkpt><trkpt lat="44.0697498" lon="11.4168383"><ele>587.0</ele><time>2026-04-11T08:34:12.493Z</time></trkpt><trkpt lat="44.0697447" lon="11.4167263"><ele>587.0</ele><time>2026-04-11T08:34:13.492Z</time></trkpt><trkpt lat="44.069719" lon="11.4166273"><ele>587.0</ele><time>2026-04-11T08:34:14.492Z</time></trkpt><trkpt lat="44.0696715" lon="11.4165505"><ele>587.0</ele><time>2026-04-11T08:34:15.492Z</time></trkpt><trkpt lat="44.0696133" lon="11.4165022"><ele>587.0</ele><time>2026-04-11T08:34:16.492Z</time></trkpt><trkpt lat="44.0695082" lon="11.4165193"><ele>587.0</ele><time>2026-04-11T08:34:18.492Z</time></trkpt><trkpt lat="44.0694892" lon="11.4166175"><ele>587.0</ele><time>2026-04-11T08:34:20.49Z</time></trkpt><trkpt lat="44.069497" lon="11.4167275"><ele>587.0</ele><time>2026-04-11T08:34:23.489Z</time></trkpt><trkpt lat="44.0694438" lon="11.4168127"><ele>587.0</ele><time>2026-04-11T08:34:26.49Z</time></trkpt><trkpt lat="44.0693577" lon="11.4168153"><ele>587.0</ele><time>2026-04-11T08:34:28.491Z</time></trkpt><trkpt lat="44.069255" lon="11.4168153"><ele>587.0</ele><time>2026-04-11T08:34:30.492Z</time></trkpt><trkpt lat="44.0691708" lon="11.4168708"><ele>594.2</ele><time>2026-04-11T08:34:32.493Z</time></trkpt><trkpt lat="44.0690945" lon="11.416945"><ele>601.4000000000001</ele><time>2026-04-11T08:34:34.491Z</time></trkpt><trkpt lat="44.0689998" lon="11.4169673"><ele>608.5999999999999</ele><time>2026-04-11T08:34:36.492Z</time></trkpt><trkpt lat="44.0688923" lon="11.4170068"><ele>615.8</ele><time>2026-04-11T08:34:38.492Z</time></trkpt><trkpt lat="44.0687885" lon="11.4170455"><ele>623.0</ele><time>2026-04-11T08:34:40.491Z</time></trkpt><trkpt lat="44.0687207" lon="11.417103"><ele>623.0</ele><time>2026-04-11T08:34:42.491Z</time></trkpt><trkpt lat="44.068659" lon="11.4171953"><ele>623.0</ele><time>2026-04-11T08:34:44.492Z</time></trkpt><trkpt lat="44.0686328" lon="11.417327"><ele>623.0</ele><time>2026-04-11T08:34:46.49Z</time></trkpt><trkpt lat="44.0686047" lon="11.4174825"><ele>623.0</ele><time>2026-04-11T08:34:48.49Z</time></trkpt><trkpt lat="44.0685752" lon="11.4176152"><ele>623.0</ele><time>2026-04-11T08:34:50.492Z</time></trkpt><trkpt lat="44.0685343" lon="11.417729"><ele>623.0</ele><time>2026-04-11T08:34:52.494Z</time></trkpt><trkpt lat="44.0685218" lon="11.4178483"><ele>623.0</ele><time>2026-04-11T08:34:54.491Z</time></trkpt><trkpt lat="44.0685503" lon="11.4179925"><ele>623.0</ele><time>2026-04-11T08:34:56.491Z</time></trkpt><trkpt lat="44.0685688" lon="11.4181507"><ele>623.0</ele><time>2026-04-11T08:34:58.491Z</time></trkpt><trkpt lat="44.0685672" lon="11.4183167"><ele>623.0</ele><time>2026-04-11T08:35:00.492Z</time></trkpt><trkpt lat="44.0685452" lon="11.4184023"><ele>622.6666666666666</ele><time>2026-04-11T08:35:01.491Z</time></trkpt><trkpt lat="44.0685097" lon="11.418502"><ele>622.3333333333333</ele><time>2026-04-11T08:35:02.492Z</time></trkpt><trkpt lat="44.0684655" lon="11.4186177"><ele>622.0</ele><time>2026-04-11T08:35:03.492Z</time></trkpt><trkpt lat="44.0684253" lon="11.4187232"><ele>621.6666666666666</ele><time>2026-04-11T08:35:04.493Z</time></trkpt><trkpt lat="44.0683947" lon="11.4188325"><ele>621.3333333333334</ele><time>2026-04-11T08:35:05.492Z</time></trkpt><trkpt lat="44.0683643" lon="11.4189288"><ele>621.0</ele><time>2026-04-11T08:35:06.491Z</time></trkpt><trkpt lat="44.068328" lon="11.4190022"><ele>626.3333333333334</ele><time>2026-04-11T08:35:07.492Z</time></trkpt><trkpt lat="44.0682427" lon="11.4190878"><ele>631.6666666666666</ele><time>2026-04-11T08:35:09.489Z</time></trkpt><trkpt lat="44.068178" lon="11.4191257"><ele>637.0</ele><time>2026-04-11T08:35:10.489Z</time></trkpt><trkpt lat="44.0681055" lon="11.419173"><ele>642.3333333333333</ele><time>2026-04-11T08:35:11.49Z</time></trkpt><trkpt lat="44.0680245" lon="11.4192122"><ele>647.6666666666666</ele><time>2026-04-11T08:35:12.489Z</time></trkpt><trkpt lat="44.0679542" lon="11.419254"><ele>653.0</ele><time>2026-04-11T08:35:13.489Z</time></trkpt><trkpt lat="44.0678793" lon="11.4193032"><ele>653.0</ele><time>2026-04-11T08:35:14.492Z</time></trkpt><trkpt lat="44.06781" lon="11.419356"><ele>653.0</ele><time>2026-04-11T08:35:15.49Z</time></trkpt><trkpt lat="44.067746" lon="11.4194115"><ele>653.0</ele><time>2026-04-11T08:35:16.49Z</time></trkpt><trkpt lat="44.0676785" lon="11.4194838"><ele>653.0</ele><time>2026-04-11T08:35:17.491Z</time></trkpt><trkpt lat="44.0676152" lon="11.419557"><ele>653.0</ele><time>2026-04-11T08:35:18.488Z</time></trkpt><trkpt lat="44.0675643" lon="11.419622"><ele>653.0</ele><time>2026-04-11T08:35:19.489Z</time></trkpt><trkpt lat="44.0674843" lon="11.4196902"><ele>655.0</ele><time>2026-04-11T08:35:21.489Z</time></trkpt><trkpt lat="44.0673925" lon="11.4197677"><ele>657.0</ele><time>2026-04-11T08:35:24.489Z</time></trkpt><trkpt lat="44.067332" lon="11.4198235"><ele>659.0</ele><time>2026-04-11T08:35:25.489Z</time></trkpt><trkpt lat="44.0672502" lon="11.4198915"><ele>661.0</ele><time>2026-04-11T08:35:26.488Z</time></trkpt><trkpt lat="44.0671735" lon="11.4199618"><ele>663.0</ele><time>2026-04-11T08:35:27.487Z</time></trkpt><trkpt lat="44.0671025" lon="11.4200165"><ele>665.0</ele><time>2026-04-11T08:35:28.488Z</time></trkpt><trkpt lat="44.0670017" lon="11.4201365"><ele>665.0</ele><time>2026-04-11T08:35:30.488Z</time></trkpt><trkpt lat="44.0669507" lon="11.4201933"><ele>665.0</ele><time>2026-04-11T08:35:31.488Z</time></trkpt><trkpt lat="44.0668918" lon="11.4202628"><ele>665.0</ele><time>2026-04-11T08:35:32.487Z</time></trkpt><trkpt lat="44.0668312" lon="11.4203048"><ele>665.0</ele><time>2026-04-11T08:35:33.486Z</time></trkpt><trkpt lat="44.066775" lon="11.4203568"><ele>665.0</ele><time>2026-04-11T08:35:34.485Z</time></trkpt><trkpt lat="44.0667133" lon="11.4204158"><ele>665.0</ele><time>2026-04-11T08:35:35.486Z</time></trkpt><trkpt lat="44.066651" lon="11.4204522"><ele>665.0</ele><time>2026-04-11T08:35:36.487Z</time></trkpt><trkpt lat="44.0665848" lon="11.4204515"><ele>668.3333333333333</ele><time>2026-04-11T08:35:37.485Z</time></trkpt><trkpt lat="44.0665137" lon="11.4204453"><ele>671.6666666666666</ele><time>2026-04-11T08:35:38.488Z</time></trkpt><trkpt lat="44.0664412" lon="11.4204353"><ele>675.0</ele><time>2026-04-11T08:35:39.487Z</time></trkpt><trkpt lat="44.0663727" lon="11.4204282"><ele>678.3333333333334</ele><time>2026-04-11T08:35:40.487Z</time></trkpt><trkpt lat="44.066263" lon="11.4204353"><ele>681.6666666666667</ele><time>2026-04-11T08:35:42.488Z</time></trkpt><trkpt lat="44.0661612" lon="11.4204423"><ele>685.0</ele><time>2026-04-11T08:35:44.488Z</time></trkpt><trkpt lat="44.066078" lon="11.4204202"><ele>685.0</ele><time>2026-04-11T08:35:46.49Z</time></trkpt><trkpt lat="44.0659787" lon="11.4203548"><ele>685.0</ele><time>2026-04-11T08:35:48.489Z</time></trkpt><trkpt lat="44.0659165" lon="11.4203203"><ele>685.0</ele><time>2026-04-11T08:35:49.488Z</time></trkpt><trkpt lat="44.065814" lon="11.4202615"><ele>685.0</ele><time>2026-04-11T08:35:51.488Z</time></trkpt><trkpt lat="44.0657337" lon="11.4202115"><ele>685.0</ele><time>2026-04-11T08:35:53.488Z</time></trkpt><trkpt lat="44.0656542" lon="11.4202137"><ele>683.5</ele><time>2026-04-11T08:35:55.488Z</time></trkpt><trkpt lat="44.065557" lon="11.4202743"><ele>682.0</ele><time>2026-04-11T08:35:57.488Z</time></trkpt><trkpt lat="44.0654898" lon="11.4203007"><ele>680.5</ele><time>2026-04-11T08:35:58.488Z</time></trkpt><trkpt lat="44.0654132" lon="11.4203088"><ele>679.0</ele><time>2026-04-11T08:35:59.49Z</time></trkpt><trkpt lat="44.0653455" lon="11.4203013"><ele>677.5</ele><time>2026-04-11T08:36:00.486Z</time></trkpt><trkpt lat="44.0652455" lon="11.420224"><ele>676.0</ele><time>2026-04-11T08:36:02.488Z</time></trkpt><trkpt lat="44.0651903" lon="11.4201502"><ele>676.0</ele><time>2026-04-11T08:36:04.49Z</time></trkpt><trkpt lat="44.0651537" lon="11.4199912"><ele>676.0</ele><time>2026-04-11T08:36:06.489Z</time></trkpt><trkpt lat="44.065108" lon="11.4198785"><ele>676.0</ele><time>2026-04-11T08:36:08.489Z</time></trkpt><trkpt lat="44.0650357" lon="11.4199033"><ele>676.0</ele><time>2026-04-11T08:36:10.489Z</time></trkpt><trkpt lat="44.0649162" lon="11.419953"><ele>676.0</ele><time>2026-04-11T08:36:12.488Z</time></trkpt><trkpt lat="44.06481" lon="11.41996"><ele>677.3333333333334</ele><time>2026-04-11T08:36:14.49Z</time></trkpt><trkpt lat="44.0647225" lon="11.4199482"><ele>678.6666666666667</ele><time>2026-04-11T08:36:16.49Z</time></trkpt><trkpt lat="44.0646477" lon="11.4199903"><ele>680.0</ele><time>2026-04-11T08:36:18.489Z</time></trkpt><trkpt lat="44.0645532" lon="11.4200382"><ele>681.3333333333334</ele><time>2026-04-11T08:36:20.489Z</time></trkpt><trkpt lat="44.0644792" lon="11.4200373"><ele>682.6666666666666</ele><time>2026-04-11T08:36:22.49Z</time></trkpt><trkpt lat="44.0644113" lon="11.4200043"><ele>684.0</ele><time>2026-04-11T08:36:24.488Z</time></trkpt><trkpt lat="44.0643618" lon="11.4199485"><ele>684.0</ele><time>2026-04-11T08:36:26.487Z</time></trkpt><trkpt lat="44.0642832" lon="11.4199022"><ele>684.0</ele><time>2026-04-11T08:36:29.487Z</time></trkpt><trkpt lat="44.0642362" lon="11.4199763"><ele>684.0</ele><time>2026-04-11T08:36:31.487Z</time></trkpt><trkpt lat="44.0641385" lon="11.4200972"><ele>684.0</ele><time>2026-04-11T08:36:33.488Z</time></trkpt><trkpt lat="44.0640853" lon="11.4201693"><ele>684.0</ele><time>2026-04-11T08:36:34.489Z</time></trkpt><trkpt lat="44.064021" lon="11.4202768"><ele>686.0</ele><time>2026-04-11T08:36:36.488Z</time></trkpt><trkpt lat="44.0639477" lon="11.4203522"><ele>688.0</ele><time>2026-04-11T08:36:38.488Z</time></trkpt><trkpt lat="44.0638653" lon="11.4203768"><ele>690.0</ele><time>2026-04-11T08:36:40.49Z</time></trkpt><trkpt lat="44.0637953" lon="11.4203372"><ele>692.0</ele><time>2026-04-11T08:36:42.488Z</time></trkpt><trkpt lat="44.063732" lon="11.4202598"><ele>694.0</ele><time>2026-04-11T08:36:44.488Z</time></trkpt><trkpt lat="44.0636768" lon="11.4201923"><ele>696.0</ele><time>2026-04-11T08:36:46.49Z</time></trkpt><trkpt lat="44.0635828" lon="11.4202335"><ele>696.0</ele><time>2026-04-11T08:36:49.487Z</time></trkpt><trkpt lat="44.0635055" lon="11.4202355"><ele>696.0</ele><time>2026-04-11T08:36:51.488Z</time></trkpt><trkpt lat="44.0634103" lon="11.4202022"><ele>696.0</ele><time>2026-04-11T08:36:53.489Z</time></trkpt><trkpt lat="44.0633147" lon="11.4202462"><ele>696.0</ele><time>2026-04-11T08:36:55.488Z</time></trkpt><trkpt lat="44.0632443" lon="11.4203312"><ele>696.0</ele><time>2026-04-11T08:36:57.489Z</time></trkpt><trkpt lat="44.0631937" lon="11.420444"><ele>692.1999999999999</ele><time>2026-04-11T08:36:59.489Z</time></trkpt><trkpt lat="44.0631327" lon="11.420579"><ele>688.4</ele><time>2026-04-11T08:37:01.487Z</time></trkpt><trkpt lat="44.0630835" lon="11.4207023"><ele>684.6</ele><time>2026-04-11T08:37:03.489Z</time></trkpt><trkpt lat="44.0630128" lon="11.4208082"><ele>680.8</ele><time>2026-04-11T08:37:05.488Z</time></trkpt><trkpt lat="44.062932" lon="11.420874"><ele>677.0</ele><time>2026-04-11T08:37:07.488Z</time></trkpt><trkpt lat="44.0628772" lon="11.4208187"><ele>677.0</ele><time>2026-04-11T08:37:09.489Z</time></trkpt><trkpt lat="44.0628335" lon="11.4207183"><ele>677.0</ele><time>2026-04-11T08:37:11.489Z</time></trkpt><trkpt lat="44.0628033" lon="11.4206327"><ele>677.0</ele><time>2026-04-11T08:37:12.486Z</time></trkpt><trkpt lat="44.062768" lon="11.420541"><ele>677.0</ele><time>2026-04-11T08:37:13.486Z</time></trkpt><trkpt lat="44.062726" lon="11.420438"><ele>677.0</ele><time>2026-04-11T08:37:15.487Z</time></trkpt><trkpt lat="44.0626715" lon="11.4203788"><ele>677.0</ele><time>2026-04-11T08:37:17.488Z</time></trkpt><trkpt lat="44.0626032" lon="11.4203318"><ele>681.8</ele><time>2026-04-11T08:37:19.487Z</time></trkpt><trkpt lat="44.0625273" lon="11.4203217"><ele>686.6</ele><time>2026-04-11T08:37:21.487Z</time></trkpt><trkpt lat="44.0624637" lon="11.4202885"><ele>691.4</ele><time>2026-04-11T08:37:23.488Z</time></trkpt><trkpt lat="44.0623695" lon="11.420282"><ele>696.1999999999999</ele><time>2026-04-11T08:37:25.487Z</time></trkpt><trkpt lat="44.0622363" lon="11.4203025"><ele>701.0</ele><time>2026-04-11T08:37:27.488Z</time></trkpt><trkpt lat="44.0621465" lon="11.4203253"><ele>701.0</ele><time>2026-04-11T08:37:28.487Z</time></trkpt><trkpt lat="44.0620668" lon="11.4203245"><ele>701.0</ele><time>2026-04-11T08:37:29.489Z</time></trkpt><trkpt lat="44.0619495" lon="11.4203463"><ele>701.0</ele><time>2026-04-11T08:37:31.488Z</time></trkpt><trkpt lat="44.0618783" lon="11.4203595"><ele>701.0</ele><time>2026-04-11T08:37:33.489Z</time></trkpt><trkpt lat="44.0618008" lon="11.4203727"><ele>701.0</ele><time>2026-04-11T08:37:35.488Z</time></trkpt><trkpt lat="44.0617207" lon="11.4203843"><ele>701.0</ele><time>2026-04-11T08:37:38.488Z</time></trkpt><trkpt lat="44.0616582" lon="11.4204165"><ele>701.3333333333333</ele><time>2026-04-11T08:37:47.489Z</time></trkpt><trkpt lat="44.0615972" lon="11.4204407"><ele>701.6666666666666</ele><time>2026-04-11T08:38:08.488Z</time></trkpt><trkpt lat="44.061534" lon="11.420432"><ele>702.0</ele><time>2026-04-11T08:39:01.49Z</time></trkpt><trkpt lat="44.0614828" lon="11.4205087"><ele>702.3333333333334</ele><time>2026-04-11T08:42:45.49Z</time></trkpt><trkpt lat="44.0614538" lon="11.420589"><ele>702.6666666666667</ele><time>2026-04-11T08:42:52.489Z</time></trkpt><trkpt lat="44.0614262" lon="11.4207215"><ele>703.0</ele><time>2026-04-11T08:42:55.486Z</time></trkpt><trkpt lat="44.0613968" lon="11.420832"><ele>703.1428571428571</ele><time>2026-04-11T08:42:57.486Z</time></trkpt><trkpt lat="44.0613755" lon="11.4209373"><ele>703.2857142857143</ele><time>2026-04-11T08:42:59.489Z</time></trkpt><trkpt lat="44.0613407" lon="11.4210373"><ele>703.4285714285714</ele><time>2026-04-11T08:43:01.488Z</time></trkpt><trkpt lat="44.0613118" lon="11.4211213"><ele>703.5714285714286</ele><time>2026-04-11T08:43:03.489Z</time></trkpt><trkpt lat="44.0612908" lon="11.421213"><ele>703.7142857142857</ele><time>2026-04-11T08:43:05.49Z</time></trkpt><trkpt lat="44.0612563" lon="11.4212923"><ele>703.8571428571429</ele><time>2026-04-11T08:43:07.488Z</time></trkpt><trkpt lat="44.0612108" lon="11.4213838"><ele>704.0</ele><time>2026-04-11T08:43:09.488Z</time></trkpt><trkpt lat="44.0611672" lon="11.4214825"><ele>706.0</ele><time>2026-04-11T08:43:11.489Z</time></trkpt><trkpt lat="44.0611325" lon="11.4215933"><ele>708.0</ele><time>2026-04-11T08:43:14.488Z</time></trkpt><trkpt lat="44.0611187" lon="11.4216877"><ele>710.0</ele><time>2026-04-11T08:43:16.487Z</time></trkpt><trkpt lat="44.0610967" lon="11.4218178"><ele>712.0</ele><time>2026-04-11T08:43:18.487Z</time></trkpt><trkpt lat="44.0610672" lon="11.4219315"><ele>714.0</ele><time>2026-04-11T08:43:20.488Z</time></trkpt><trkpt lat="44.061032" lon="11.4220557"><ele>716.0</ele><time>2026-04-11T08:43:22.487Z</time></trkpt><trkpt lat="44.0610022" lon="11.4221682"><ele>717.8</ele><time>2026-04-11T08:43:24.488Z</time></trkpt><trkpt lat="44.0609937" lon="11.422276"><ele>719.5999999999999</ele><time>2026-04-11T08:43:26.489Z</time></trkpt><trkpt lat="44.060969" lon="11.4224175"><ele>721.4</ele><time>2026-04-11T08:43:28.488Z</time></trkpt><trkpt lat="44.0609382" lon="11.4225523"><ele>723.2</ele><time>2026-04-11T08:43:30.49Z</time></trkpt><trkpt lat="44.060933" lon="11.4227022"><ele>725.0</ele><time>2026-04-11T08:43:32.489Z</time></trkpt><trkpt lat="44.0609183" lon="11.4227923"><ele>725.0</ele><time>2026-04-11T08:43:33.489Z</time></trkpt><trkpt lat="44.0609013" lon="11.4228808"><ele>725.0</ele><time>2026-04-11T08:43:34.488Z</time></trkpt><trkpt lat="44.0608747" lon="11.42302"><ele>725.0</ele><time>2026-04-11T08:43:36.488Z</time></trkpt><trkpt lat="44.0608502" lon="11.4231325"><ele>725.0</ele><time>2026-04-11T08:43:38.49Z</time></trkpt><trkpt lat="44.0608125" lon="11.4232697"><ele>725.0</ele><time>2026-04-11T08:43:40.488Z</time></trkpt><trkpt lat="44.0607677" lon="11.4233882"><ele>731.6666666666666</ele><time>2026-04-11T08:43:42.488Z</time></trkpt><trkpt lat="44.0607297" lon="11.4234853"><ele>738.3333333333333</ele><time>2026-04-11T08:43:44.487Z</time></trkpt><trkpt lat="44.0606863" lon="11.4235625"><ele>745.0</ele><time>2026-04-11T08:43:46.487Z</time></trkpt><trkpt lat="44.0606465" lon="11.4236483"><ele>751.6666666666666</ele><time>2026-04-11T08:43:48.487Z</time></trkpt><trkpt lat="44.0606053" lon="11.4237715"><ele>758.3333333333334</ele><time>2026-04-11T08:43:50.488Z</time></trkpt><trkpt lat="44.0605813" lon="11.4239013"><ele>765.0</ele><time>2026-04-11T08:43:53.489Z</time></trkpt><trkpt lat="44.0605507" lon="11.4240268"><ele>765.0</ele><time>2026-04-11T08:43:55.487Z</time></trkpt><trkpt lat="44.0605185" lon="11.4241503"><ele>765.0</ele><time>2026-04-11T08:43:57.488Z</time></trkpt><trkpt lat="44.0604903" lon="11.4242465"><ele>765.0</ele><time>2026-04-11T08:43:59.488Z</time></trkpt><trkpt lat="44.0604535" lon="11.4243343"><ele>765.0</ele><time>2026-04-11T08:44:01.487Z</time></trkpt><trkpt lat="44.0604323" lon="11.4244587"><ele>765.0</ele><time>2026-04-11T08:44:04.487Z</time></trkpt><trkpt lat="44.0604027" lon="11.424538"><ele>765.0</ele><time>2026-04-11T08:44:07.487Z</time></trkpt><trkpt lat="44.06037" lon="11.424628"><ele>764.1428571428572</ele><time>2026-04-11T08:44:09.487Z</time></trkpt><trkpt lat="44.0603242" lon="11.424708"><ele>763.2857142857143</ele><time>2026-04-11T08:44:11.487Z</time></trkpt><trkpt lat="44.060283" lon="11.424779"><ele>762.4285714285714</ele><time>2026-04-11T08:44:14.488Z</time></trkpt><trkpt lat="44.0602473" lon="11.4248558"><ele>761.5714285714287</ele><time>2026-04-11T08:44:18.487Z</time></trkpt><trkpt lat="44.0601885" lon="11.4249005"><ele>760.7142857142857</ele><time>2026-04-11T08:44:27.488Z</time></trkpt><trkpt lat="44.0601395" lon="11.4249655"><ele>759.8571428571429</ele><time>2026-04-11T08:45:02.488Z</time></trkpt><trkpt lat="44.0602025" lon="11.424985"><ele>759.0</ele><time>2026-04-11T08:45:08.488Z</time></trkpt><trkpt lat="44.0602245" lon="11.4250695"><ele>759.0</ele><time>2026-04-11T08:45:15.487Z</time></trkpt><trkpt lat="44.0602822" lon="11.42513"><ele>759.0</ele><time>2026-04-11T08:45:21.488Z</time></trkpt><trkpt lat="44.0603502" lon="11.4251322"><ele>759.0</ele><time>2026-04-11T08:45:25.487Z</time></trkpt><trkpt lat="44.060394" lon="11.4251968"><ele>759.0</ele><time>2026-04-11T08:45:37.491Z</time></trkpt><trkpt lat="44.0604487" lon="11.4252447"><ele>759.0</ele><time>2026-04-11T08:46:53.488Z</time></trkpt><trkpt lat="44.0604523" lon="11.4253478"><ele>759.0</ele><time>2026-04-11T08:48:44.489Z</time></trkpt><trkpt lat="44.0604083" lon="11.4254193"><ele>759.0</ele><time>2026-04-11T08:48:51.491Z</time></trkpt><trkpt lat="44.0603538" lon="11.425373"><ele>759.0</ele><time>2026-04-11T08:49:44.49Z</time></trkpt><trkpt lat="44.0602852" lon="11.4253537"><ele>759.0</ele><time>2026-04-11T08:49:58.488Z</time></trkpt><trkpt lat="44.0602147" lon="11.4253782"><ele>759.0</ele><time>2026-04-11T08:50:02.491Z</time></trkpt><trkpt lat="44.0601463" lon="11.4254522"><ele>759.0</ele><time>2026-04-11T08:50:13.489Z</time></trkpt><trkpt lat="44.0600923" lon="11.4255238"><ele>759.0</ele><time>2026-04-11T08:50:16.488Z</time></trkpt><trkpt lat="44.060011" lon="11.4256172"><ele>759.0</ele><time>2026-04-11T08:51:59.489Z</time></trkpt><trkpt lat="44.0599507" lon="11.4256518"><ele>762.3333333333334</ele><time>2026-04-11T08:52:03.488Z</time></trkpt><trkpt lat="44.0598985" lon="11.4257093"><ele>765.6666666666667</ele><time>2026-04-11T08:52:06.488Z</time></trkpt><trkpt lat="44.0598188" lon="11.4257927"><ele>769.0</ele><time>2026-04-11T08:53:37.489Z</time></trkpt><trkpt lat="44.0597508" lon="11.4258347"><ele>772.3333333333334</ele><time>2026-04-11T08:53:40.488Z</time></trkpt><trkpt lat="44.0596943" lon="11.4258825"><ele>775.6666666666667</ele><time>2026-04-11T08:53:43.488Z</time></trkpt><trkpt lat="44.0596192" lon="11.425904"><ele>779.0</ele><time>2026-04-11T08:53:47.49Z</time></trkpt><trkpt lat="44.05955" lon="11.4258795"><ele>779.0000000000001</ele><time>2026-04-11T08:53:51.487Z</time></trkpt><trkpt lat="44.059469" lon="11.4259025"><ele>779.0</ele><time>2026-04-11T08:53:55.488Z</time></trkpt><trkpt lat="44.0594015" lon="11.4259222"><ele>779.0</ele><time>2026-04-11T08:54:05.489Z</time></trkpt><trkpt lat="44.0593373" lon="11.4258998"><ele>779.0</ele><time>2026-04-11T08:54:27.488Z</time></trkpt><trkpt lat="44.0593117" lon="11.4258045"><ele>779.0000000000001</ele><time>2026-04-11T08:54:36.488Z</time></trkpt><trkpt lat="44.0592392" lon="11.4257927"><ele>779.0</ele><time>2026-04-11T08:54:42.487Z</time></trkpt><trkpt lat="44.0591652" lon="11.4258575"><ele>784.8333333333334</ele><time>2026-04-11T08:55:07.488Z</time></trkpt><trkpt lat="44.0591" lon="11.4259538"><ele>790.6666666666667</ele><time>2026-04-11T08:55:10.487Z</time></trkpt><trkpt lat="44.0590537" lon="11.426038"><ele>796.5</ele><time>2026-04-11T08:55:12.486Z</time></trkpt><trkpt lat="44.0590272" lon="11.4261628"><ele>802.3333333333333</ele><time>2026-04-11T08:55:15.489Z</time></trkpt><trkpt lat="44.0589983" lon="11.4262602"><ele>808.1666666666666</ele><time>2026-04-11T08:55:17.49Z</time></trkpt><trkpt lat="44.0589537" lon="11.4263773"><ele>814.0</ele><time>2026-04-11T08:55:19.493Z</time></trkpt><trkpt lat="44.0589098" lon="11.4264467"><ele>813.9999999999999</ele><time>2026-04-11T08:55:20.489Z</time></trkpt><trkpt lat="44.0588693" lon="11.4265225"><ele>814.0</ele><time>2026-04-11T08:55:21.49Z</time></trkpt><trkpt lat="44.0588337" lon="11.4266015"><ele>814.0</ele><time>2026-04-11T08:55:22.489Z</time></trkpt><trkpt lat="44.0588047" lon="11.4266842"><ele>814.0</ele><time>2026-04-11T08:55:23.489Z</time></trkpt><trkpt lat="44.0587408" lon="11.4268333"><ele>813.9999999999999</ele><time>2026-04-11T08:55:25.491Z</time></trkpt><trkpt lat="44.0586738" lon="11.4269743"><ele>814.0</ele><time>2026-04-11T08:55:27.49Z</time></trkpt><trkpt lat="44.0586387" lon="11.4270525"><ele>812.7142857142858</ele><time>2026-04-11T08:55:29.49Z</time></trkpt><trkpt lat="44.0586098" lon="11.4271517"><ele>811.4285714285714</ele><time>2026-04-11T08:55:32.49Z</time></trkpt><trkpt lat="44.0585555" lon="11.427213"><ele>810.1428571428571</ele><time>2026-04-11T08:55:35.49Z</time></trkpt><trkpt lat="44.058513" lon="11.427283"><ele>808.8571428571429</ele><time>2026-04-11T08:55:39.489Z</time></trkpt><trkpt lat="44.0584717" lon="11.4273628"><ele>807.5714285714286</ele><time>2026-04-11T08:55:43.489Z</time></trkpt><trkpt lat="44.0584488" lon="11.4274452"><ele>806.2857142857143</ele><time>2026-04-11T08:57:47.491Z</time></trkpt><trkpt lat="44.0584067" lon="11.4273798"><ele>805.0</ele><time>2026-04-11T09:03:08.49Z</time></trkpt><trkpt lat="44.0584012" lon="11.4274782"><ele>804.9999999999999</ele><time>2026-04-11T09:03:41.489Z</time></trkpt><trkpt lat="44.0584068" lon="11.4275685"><ele>805.0</ele><time>2026-04-11T09:03:46.488Z</time></trkpt><trkpt lat="44.0583792" lon="11.42766"><ele>805.0</ele><time>2026-04-11T09:03:50.49Z</time></trkpt><trkpt lat="44.0583593" lon="11.4277778"><ele>805.0</ele><time>2026-04-11T09:03:54.49Z</time></trkpt><trkpt lat="44.0583425" lon="11.427874"><ele>804.9999999999999</ele><time>2026-04-11T09:03:56.488Z</time></trkpt><trkpt lat="44.0583422" lon="11.4279723"><ele>805.0</ele><time>2026-04-11T09:03:58.489Z</time></trkpt><trkpt lat="44.058329" lon="11.4280887"><ele>810.4999999999999</ele><time>2026-04-11T09:04:01.49Z</time></trkpt><trkpt lat="44.0582688" lon="11.4281907"><ele>816.0</ele><time>2026-04-11T09:04:04.489Z</time></trkpt><trkpt lat="44.0582173" lon="11.4282573"><ele>821.5</ele><time>2026-04-11T09:04:06.489Z</time></trkpt><trkpt lat="44.0581902" lon="11.4283603"><ele>827.0</ele><time>2026-04-11T09:04:09.487Z</time></trkpt><trkpt lat="44.0581462" lon="11.4284237"><ele>832.4999999999999</ele><time>2026-04-11T09:04:11.488Z</time></trkpt><trkpt lat="44.058074" lon="11.4284827"><ele>838.0</ele><time>2026-04-11T09:04:14.489Z</time></trkpt><trkpt lat="44.058024" lon="11.4285553"><ele>837.9999999999999</ele><time>2026-04-11T09:04:19.492Z</time></trkpt><trkpt lat="44.057964" lon="11.4286273"><ele>838.0</ele><time>2026-04-11T09:04:21.489Z</time></trkpt><trkpt lat="44.0579105" lon="11.4287265"><ele>838.0</ele><time>2026-04-11T09:04:23.489Z</time></trkpt><trkpt lat="44.057861" lon="11.4288427"><ele>838.0</ele><time>2026-04-11T09:04:25.489Z</time></trkpt><trkpt lat="44.0578278" lon="11.4289652"><ele>837.9999999999999</ele><time>2026-04-11T09:04:27.488Z</time></trkpt><trkpt lat="44.0578212" lon="11.4290882"><ele>838.0</ele><time>2026-04-11T09:04:29.489Z</time></trkpt><trkpt lat="44.057841" lon="11.4291735"><ele>837.8</ele><time>2026-04-11T09:04:30.489Z</time></trkpt><trkpt lat="44.0578685" lon="11.4293362"><ele>837.5999999999999</ele><time>2026-04-11T09:04:32.49Z</time></trkpt><trkpt lat="44.0578695" lon="11.4294935"><ele>837.4000000000001</ele><time>2026-04-11T09:04:34.488Z</time></trkpt><trkpt lat="44.0578757" lon="11.42962"><ele>837.2</ele><time>2026-04-11T09:04:36.488Z</time></trkpt><trkpt lat="44.0578602" lon="11.4297205"><ele>837.0</ele><time>2026-04-11T09:04:38.488Z</time></trkpt><trkpt lat="44.0578532" lon="11.4298155"><ele>837.3333333333334</ele><time>2026-04-11T09:04:40.489Z</time></trkpt><trkpt lat="44.0578385" lon="11.4299243"><ele>837.6666666666667</ele><time>2026-04-11T09:04:42.489Z</time></trkpt><trkpt lat="44.057817" lon="11.430082"><ele>838.0</ele><time>2026-04-11T09:04:44.489Z</time></trkpt><trkpt lat="44.0577965" lon="11.4301688"><ele>838.3333333333334</ele><time>2026-04-11T09:04:45.489Z</time></trkpt><trkpt lat="44.0577702" lon="11.430256"><ele>838.6666666666667</ele><time>2026-04-11T09:04:46.489Z</time></trkpt><trkpt lat="44.0577475" lon="11.4303442"><ele>839.0</ele><time>2026-04-11T09:04:47.488Z</time></trkpt><trkpt lat="44.0577223" lon="11.4304273"><ele>841.1666666666667</ele><time>2026-04-11T09:04:48.489Z</time></trkpt><trkpt lat="44.0576828" lon="11.430541"><ele>843.3333333333334</ele><time>2026-04-11T09:04:50.49Z</time></trkpt><trkpt lat="44.0576202" lon="11.430615"><ele>845.5</ele><time>2026-04-11T09:04:52.488Z</time></trkpt><trkpt lat="44.057547" lon="11.4306962"><ele>847.6666666666667</ele><time>2026-04-11T09:04:54.488Z</time></trkpt><trkpt lat="44.0574872" lon="11.4307685"><ele>849.8333333333334</ele><time>2026-04-11T09:04:56.489Z</time></trkpt><trkpt lat="44.0574228" lon="11.4308107"><ele>852.0</ele><time>2026-04-11T09:04:58.486Z</time></trkpt><trkpt lat="44.0573415" lon="11.430883"><ele>854.0</ele><time>2026-04-11T09:05:01.488Z</time></trkpt><trkpt lat="44.0572863" lon="11.4309375"><ele>856.0</ele><time>2026-04-11T09:05:03.489Z</time></trkpt><trkpt lat="44.0572058" lon="11.4309735"><ele>858.0</ele><time>2026-04-11T09:05:05.489Z</time></trkpt><trkpt lat="44.057121" lon="11.430993"><ele>860.0</ele><time>2026-04-11T09:05:07.489Z</time></trkpt><trkpt lat="44.0570657" lon="11.4310385"><ele>862.0</ele><time>2026-04-11T09:05:10.49Z</time></trkpt><trkpt lat="44.0569857" lon="11.4311102"><ele>864.0</ele><time>2026-04-11T09:05:13.489Z</time></trkpt><trkpt lat="44.0569105" lon="11.4312277"><ele>865.3333333333334</ele><time>2026-04-11T09:05:15.487Z</time></trkpt><trkpt lat="44.056825" lon="11.4313432"><ele>866.6666666666667</ele><time>2026-04-11T09:05:17.489Z</time></trkpt><trkpt lat="44.056771" lon="11.4313963"><ele>868.0</ele><time>2026-04-11T09:05:18.488Z</time></trkpt><trkpt lat="44.0567057" lon="11.4314352"><ele>869.3333333333334</ele><time>2026-04-11T09:05:19.488Z</time></trkpt><trkpt lat="44.0566413" lon="11.4314593"><ele>870.6666666666667</ele><time>2026-04-11T09:05:20.489Z</time></trkpt><trkpt lat="44.05654" lon="11.4315208"><ele>872.0</ele><time>2026-04-11T09:05:22.49Z</time></trkpt><trkpt lat="44.0564808" lon="11.4316205"><ele>876.4000000000001</ele><time>2026-04-11T09:05:24.487Z</time></trkpt><trkpt lat="44.0564412" lon="11.4317233"><ele>880.8000000000001</ele><time>2026-04-11T09:05:26.487Z</time></trkpt><trkpt lat="44.0563928" lon="11.431826"><ele>885.2</ele><time>2026-04-11T09:05:29.488Z</time></trkpt><trkpt lat="44.0563385" lon="11.432001"><ele>889.6</ele><time>2026-04-11T09:06:36.487Z</time></trkpt><trkpt lat="44.0562658" lon="11.4320583"><ele>894.0</ele><time>2026-04-11T09:06:39.486Z</time></trkpt><trkpt lat="44.0562277" lon="11.4321363"><ele>895.3333333333334</ele><time>2026-04-11T09:06:42.488Z</time></trkpt><trkpt lat="44.0561895" lon="11.4322255"><ele>896.6666666666667</ele><time>2026-04-11T09:06:47.489Z</time></trkpt><trkpt lat="44.0561288" lon="11.4323098"><ele>898.0</ele><time>2026-04-11T09:06:50.488Z</time></trkpt><trkpt lat="44.0560835" lon="11.4323822"><ele>899.3333333333334</ele><time>2026-04-11T09:06:52.488Z</time></trkpt><trkpt lat="44.0560177" lon="11.43247"><ele>900.6666666666667</ele><time>2026-04-11T09:06:54.489Z</time></trkpt><trkpt lat="44.0559705" lon="11.4325667"><ele>902.0</ele><time>2026-04-11T09:06:56.488Z</time></trkpt><trkpt lat="44.055973" lon="11.4327402"><ele>902.0</ele><time>2026-04-11T09:06:58.487Z</time></trkpt><trkpt lat="44.0560212" lon="11.4328625"><ele>902.0</ele><time>2026-04-11T09:07:00.486Z</time></trkpt><trkpt lat="44.0560592" lon="11.4329742"><ele>902.0</ele><time>2026-04-11T09:07:02.486Z</time></trkpt><trkpt lat="44.056118" lon="11.4330952"><ele>902.0</ele><time>2026-04-11T09:07:04.486Z</time></trkpt><trkpt lat="44.0561677" lon="11.4331587"><ele>902.0</ele><time>2026-04-11T09:07:06.488Z</time></trkpt><trkpt lat="44.0562295" lon="11.4332473"><ele>905.5000000000001</ele><time>2026-04-11T09:08:05.488Z</time></trkpt><trkpt lat="44.0563022" lon="11.4332295"><ele>909.0</ele><time>2026-04-11T09:08:07.487Z</time></trkpt><trkpt lat="44.0564038" lon="11.4332398"><ele>912.5</ele><time>2026-04-11T09:08:09.487Z</time></trkpt><trkpt lat="44.0564818" lon="11.4332272"><ele>916.0</ele><time>2026-04-11T09:08:11.489Z</time></trkpt><trkpt lat="44.0565175" lon="11.4333022"><ele>919.5000000000001</ele><time>2026-04-11T09:08:16.487Z</time></trkpt><trkpt lat="44.0564058" lon="11.4333463"><ele>923.0</ele><time>2026-04-11T09:08:19.488Z</time></trkpt><trkpt lat="44.0563" lon="11.433403"><ele>923.0000000000001</ele><time>2026-04-11T09:08:21.489Z</time></trkpt><trkpt lat="44.056238" lon="11.4334978"><ele>923.0</ele><time>2026-04-11T09:08:23.488Z</time></trkpt><trkpt lat="44.056186" lon="11.4335962"><ele>923.0</ele><time>2026-04-11T09:08:25.489Z</time></trkpt><trkpt lat="44.0561403" lon="11.433703"><ele>923.0</ele><time>2026-04-11T09:08:28.489Z</time></trkpt><trkpt lat="44.0561027" lon="11.433797"><ele>923.0000000000001</ele><time>2026-04-11T09:08:30.49Z</time></trkpt><trkpt lat="44.0561153" lon="11.4338995"><ele>923.0</ele><time>2026-04-11T09:09:03.487Z</time></trkpt><trkpt lat="44.0560447" lon="11.4339717"><ele>927.5999999999999</ele><time>2026-04-11T09:09:06.486Z</time></trkpt><trkpt lat="44.0559517" lon="11.434022"><ele>932.1999999999999</ele><time>2026-04-11T09:09:08.489Z</time></trkpt><trkpt lat="44.0558888" lon="11.4340463"><ele>936.8</ele><time>2026-04-11T09:09:09.488Z</time></trkpt><trkpt lat="44.055772" lon="11.4340987"><ele>941.4</ele><time>2026-04-11T09:09:11.49Z</time></trkpt><trkpt lat="44.0556623" lon="11.4341398"><ele>946.0</ele><time>2026-04-11T09:09:13.49Z</time></trkpt><trkpt lat="44.0555482" lon="11.4341425"><ele>947.8571428571429</ele><time>2026-04-11T09:09:15.491Z</time></trkpt><trkpt lat="44.0554808" lon="11.4341427"><ele>949.7142857142857</ele><time>2026-04-11T09:09:16.49Z</time></trkpt><trkpt lat="44.0554143" lon="11.434138"><ele>951.5714285714286</ele><time>2026-04-11T09:09:17.491Z</time></trkpt><trkpt lat="44.0553432" lon="11.4341357"><ele>953.4285714285714</ele><time>2026-04-11T09:09:18.489Z</time></trkpt><trkpt lat="44.0552735" lon="11.4341298"><ele>955.2857142857142</ele><time>2026-04-11T09:09:19.49Z</time></trkpt><trkpt lat="44.0552002" lon="11.4341325"><ele>957.1428571428571</ele><time>2026-04-11T09:09:20.491Z</time></trkpt><trkpt lat="44.0551325" lon="11.434135"><ele>959.0</ele><time>2026-04-11T09:09:21.49Z</time></trkpt><trkpt lat="44.055027" lon="11.434139"><ele>962.6</ele><time>2026-04-11T09:09:23.49Z</time></trkpt><trkpt lat="44.0549097" lon="11.434143"><ele>966.2</ele><time>2026-04-11T09:09:25.491Z</time></trkpt><trkpt lat="44.0548462" lon="11.4341428"><ele>969.8000000000001</ele><time>2026-04-11T09:09:26.49Z</time></trkpt><trkpt lat="44.054744" lon="11.4341088"><ele>973.4000000000001</ele><time>2026-04-11T09:09:28.488Z</time></trkpt><trkpt lat="44.0546622" lon="11.4340083"><ele>977.0</ele><time>2026-04-11T09:09:30.489Z</time></trkpt><trkpt lat="44.0546322" lon="11.4339258"><ele>977.0000000000001</ele><time>2026-04-11T09:09:31.49Z</time></trkpt><trkpt lat="44.0545992" lon="11.4338202"><ele>977.0</ele><time>2026-04-11T09:09:32.493Z</time></trkpt><trkpt lat="44.0545767" lon="11.4337215"><ele>977.0</ele><time>2026-04-11T09:09:33.491Z</time></trkpt><trkpt lat="44.0545427" lon="11.4336418"><ele>977.0</ele><time>2026-04-11T09:09:34.491Z</time></trkpt><trkpt lat="44.0544717" lon="11.4335655"><ele>977.0000000000001</ele><time>2026-04-11T09:09:36.491Z</time></trkpt><trkpt lat="44.0544028" lon="11.4335762"><ele>977.0</ele><time>2026-04-11T09:09:40.489Z</time></trkpt><trkpt lat="44.0543458" lon="11.4336898"><ele>977.0000000000001</ele><time>2026-04-11T09:09:43.491Z</time></trkpt><trkpt lat="44.0543062" lon="11.4338373"><ele>977.0</ele><time>2026-04-11T09:09:45.49Z</time></trkpt><trkpt lat="44.054273" lon="11.4339203"><ele>977.0</ele><time>2026-04-11T09:09:46.49Z</time></trkpt><trkpt lat="44.0542305" lon="11.4340135"><ele>977.0</ele><time>2026-04-11T09:09:47.49Z</time></trkpt><trkpt lat="44.0541888" lon="11.4341222"><ele>977.0000000000001</ele><time>2026-04-11T09:09:48.491Z</time></trkpt><trkpt lat="44.0541355" lon="11.434237"><ele>977.0</ele><time>2026-04-11T09:09:49.49Z</time></trkpt><trkpt lat="44.0540858" lon="11.4343602"><ele>979.0</ele><time>2026-04-11T09:09:50.489Z</time></trkpt><trkpt lat="44.0540295" lon="11.4344777"><ele>981.0</ele><time>2026-04-11T09:09:51.49Z</time></trkpt><trkpt lat="44.0539805" lon="11.4345857"><ele>983.0</ele><time>2026-04-11T09:09:52.487Z</time></trkpt><trkpt lat="44.053928" lon="11.4346965"><ele>985.0</ele><time>2026-04-11T09:09:53.489Z</time></trkpt><trkpt lat="44.0538785" lon="11.434811"><ele>987.0</ele><time>2026-04-11T09:09:54.488Z</time></trkpt><trkpt lat="44.0538302" lon="11.4349117"><ele>987.0</ele><time>2026-04-11T09:09:55.489Z</time></trkpt><trkpt lat="44.0537733" lon="11.4349987"><ele>987.0</ele><time>2026-04-11T09:09:56.491Z</time></trkpt><trkpt lat="44.0537117" lon="11.4350767"><ele>987.0</ele><time>2026-04-11T09:09:57.49Z</time></trkpt><trkpt lat="44.053642" lon="11.4351402"><ele>987.0</ele><time>2026-04-11T09:09:58.489Z</time></trkpt><trkpt lat="44.0535837" lon="11.4352002"><ele>987.0</ele><time>2026-04-11T09:09:59.49Z</time></trkpt><trkpt lat="44.0535418" lon="11.435268"><ele>987.0</ele><time>2026-04-11T09:10:00.491Z</time></trkpt><trkpt lat="44.0535163" lon="11.4353573"><ele>985.75</ele><time>2026-04-11T09:10:01.49Z</time></trkpt><trkpt lat="44.0535195" lon="11.4354717"><ele>984.5</ele><time>2026-04-11T09:10:02.49Z</time></trkpt><trkpt lat="44.0535285" lon="11.4356058"><ele>983.25</ele><time>2026-04-11T09:10:03.491Z</time></trkpt><trkpt lat="44.0535367" lon="11.4357873"><ele>982.0</ele><time>2026-04-11T09:10:04.49Z</time></trkpt><trkpt lat="44.0535387" lon="11.4359855"><ele>982.0</ele><time>2026-04-11T09:10:05.491Z</time></trkpt><trkpt lat="44.0535518" lon="11.4361677"><ele>982.0</ele><time>2026-04-11T09:10:06.49Z</time></trkpt><trkpt lat="44.0535685" lon="11.4363243"><ele>982.0</ele><time>2026-04-11T09:10:07.49Z</time></trkpt><trkpt lat="44.0535738" lon="11.4364813"><ele>982.0</ele><time>2026-04-11T09:10:08.491Z</time></trkpt><trkpt lat="44.0535627" lon="11.436647"><ele>981.6</ele><time>2026-04-11T09:10:09.489Z</time></trkpt><trkpt lat="44.05355" lon="11.4368048"><ele>981.2</ele><time>2026-04-11T09:10:10.49Z</time></trkpt><trkpt lat="44.0535318" lon="11.4369312"><ele>980.8</ele><time>2026-04-11T09:10:11.49Z</time></trkpt><trkpt lat="44.0534935" lon="11.4370222"><ele>980.4</ele><time>2026-04-11T09:10:12.49Z</time></trkpt><trkpt lat="44.0533868" lon="11.4370798"><ele>980.0</ele><time>2026-04-11T09:10:14.491Z</time></trkpt><trkpt lat="44.0533167" lon="11.4370648"><ele>981.5000000000001</ele><time>2026-04-11T09:10:15.492Z</time></trkpt><trkpt lat="44.0532427" lon="11.4370442"><ele>983.0</ele><time>2026-04-11T09:10:16.489Z</time></trkpt><trkpt lat="44.0531622" lon="11.4370412"><ele>984.5</ele><time>2026-04-11T09:10:17.49Z</time></trkpt><trkpt lat="44.0530817" lon="11.4370507"><ele>986.0</ele><time>2026-04-11T09:10:18.489Z</time></trkpt><trkpt lat="44.0530123" lon="11.4370997"><ele>987.5000000000001</ele><time>2026-04-11T09:10:19.488Z</time></trkpt><trkpt lat="44.0529615" lon="11.4371783"><ele>989.0</ele><time>2026-04-11T09:10:20.489Z</time></trkpt><trkpt lat="44.0529225" lon="11.4372793"><ele>989.0</ele><time>2026-04-11T09:10:21.492Z</time></trkpt><trkpt lat="44.0528817" lon="11.4373827"><ele>989.0000000000001</ele><time>2026-04-11T09:10:22.49Z</time></trkpt><trkpt lat="44.0528318" lon="11.43747"><ele>989.0000000000001</ele><time>2026-04-11T09:10:23.493Z</time></trkpt><trkpt lat="44.0527507" lon="11.4375535"><ele>989.0</ele><time>2026-04-11T09:10:24.49Z</time></trkpt><trkpt lat="44.0526372" lon="11.4376413"><ele>989.0</ele><time>2026-04-11T09:10:25.491Z</time></trkpt><trkpt lat="44.0525193" lon="11.437711"><ele>991.6</ele><time>2026-04-11T09:10:26.491Z</time></trkpt><trkpt lat="44.0524045" lon="11.4377723"><ele>994.2</ele><time>2026-04-11T09:10:27.49Z</time></trkpt><trkpt lat="44.052292" lon="11.4378352"><ele>996.8000000000001</ele><time>2026-04-11T09:10:28.49Z</time></trkpt><trkpt lat="44.0521867" lon="11.4378822"><ele>999.4000000000001</ele><time>2026-04-11T09:10:29.493Z</time></trkpt><trkpt lat="44.052097" lon="11.4379025"><ele>1002.0</ele><time>2026-04-11T09:10:30.49Z</time></trkpt><trkpt lat="44.0520203" lon="11.4378832"><ele>1002.0</ele><time>2026-04-11T09:10:31.49Z</time></trkpt><trkpt lat="44.0519383" lon="11.4378418"><ele>1002.0</ele><time>2026-04-11T09:10:32.491Z</time></trkpt><trkpt lat="44.0518523" lon="11.437818"><ele>1002.0</ele><time>2026-04-11T09:10:33.49Z</time></trkpt><trkpt lat="44.051775" lon="11.4378102"><ele>1002.0</ele><time>2026-04-11T09:10:34.49Z</time></trkpt><trkpt lat="44.051689" lon="11.4378925"><ele>1002.0</ele><time>2026-04-11T09:10:36.489Z</time></trkpt><trkpt lat="44.0516558" lon="11.437996"><ele>1002.0</ele><time>2026-04-11T09:10:37.488Z</time></trkpt><trkpt lat="44.0516308" lon="11.4381125"><ele>998.8333333333334</ele><time>2026-04-11T09:10:38.489Z</time></trkpt><trkpt lat="44.0516418" lon="11.4382283"><ele>995.6666666666667</ele><time>2026-04-11T09:10:39.489Z</time></trkpt><trkpt lat="44.0516787" lon="11.4383415"><ele>992.5</ele><time>2026-04-11T09:10:40.489Z</time></trkpt><trkpt lat="44.0517297" lon="11.4384505"><ele>989.3333333333334</ele><time>2026-04-11T09:10:41.49Z</time></trkpt><trkpt lat="44.051773" lon="11.4385525"><ele>986.1666666666667</ele><time>2026-04-11T09:10:42.488Z</time></trkpt><trkpt lat="44.051794" lon="11.4386437"><ele>983.0</ele><time>2026-04-11T09:10:43.49Z</time></trkpt><trkpt lat="44.0518043" lon="11.4387358"><ele>985.0</ele><time>2026-04-11T09:10:44.488Z</time></trkpt><trkpt lat="44.051796" lon="11.438837"><ele>987.0</ele><time>2026-04-11T09:10:45.489Z</time></trkpt><trkpt lat="44.0517968" lon="11.4389255"><ele>989.0</ele><time>2026-04-11T09:10:46.49Z</time></trkpt><trkpt lat="44.0518135" lon="11.4390832"><ele>991.0</ele><time>2026-04-11T09:10:48.489Z</time></trkpt><trkpt lat="44.0518243" lon="11.4392455"><ele>993.0</ele><time>2026-04-11T09:10:50.491Z</time></trkpt><trkpt lat="44.051837" lon="11.4394108"><ele>993.0</ele><time>2026-04-11T09:10:52.489Z</time></trkpt><trkpt lat="44.0518337" lon="11.4395617"><ele>993.0</ele><time>2026-04-11T09:10:54.489Z</time></trkpt><trkpt lat="44.0518235" lon="11.4396537"><ele>993.0</ele><time>2026-04-11T09:10:55.489Z</time></trkpt><trkpt lat="44.0518067" lon="11.439749"><ele>993.0</ele><time>2026-04-11T09:10:56.49Z</time></trkpt><trkpt lat="44.051779" lon="11.439844"><ele>993.0</ele><time>2026-04-11T09:10:57.488Z</time></trkpt><trkpt lat="44.0517458" lon="11.4399375"><ele>993.0</ele><time>2026-04-11T09:10:58.488Z</time></trkpt><trkpt lat="44.0517042" lon="11.4400433"><ele>994.8</ele><time>2026-04-11T09:10:59.489Z</time></trkpt><trkpt lat="44.051673" lon="11.4401668"><ele>996.5999999999999</ele><time>2026-04-11T09:11:00.488Z</time></trkpt><trkpt lat="44.0516588" lon="11.4402968"><ele>998.4000000000001</ele><time>2026-04-11T09:11:01.49Z</time></trkpt><trkpt lat="44.0516532" lon="11.440423"><ele>1000.2</ele><time>2026-04-11T09:11:02.488Z</time></trkpt><trkpt lat="44.0516625" lon="11.4405522"><ele>1002.0</ele><time>2026-04-11T09:11:03.489Z</time></trkpt><trkpt lat="44.051668" lon="11.4406593"><ele>1002.6666666666666</ele><time>2026-04-11T09:11:04.49Z</time></trkpt><trkpt lat="44.0516538" lon="11.4407658"><ele>1003.3333333333333</ele><time>2026-04-11T09:11:05.488Z</time></trkpt><trkpt lat="44.0516372" lon="11.440881"><ele>1004.0</ele><time>2026-04-11T09:11:06.487Z</time></trkpt><trkpt lat="44.0516102" lon="11.4410037"><ele>1004.6666666666666</ele><time>2026-04-11T09:11:07.489Z</time></trkpt><trkpt lat="44.0515782" lon="11.4411233"><ele>1005.3333333333333</ele><time>2026-04-11T09:11:08.488Z</time></trkpt><trkpt lat="44.0515453" lon="11.441234"><ele>1006.0</ele><time>2026-04-11T09:11:09.488Z</time></trkpt><trkpt lat="44.0515017" lon="11.4413505"><ele>1010.4999999999999</ele><time>2026-04-11T09:11:10.49Z</time></trkpt><trkpt lat="44.0514573" lon="11.441463"><ele>1015.0</ele><time>2026-04-11T09:11:11.491Z</time></trkpt><trkpt lat="44.0514143" lon="11.4415665"><ele>1019.5</ele><time>2026-04-11T09:11:12.489Z</time></trkpt><trkpt lat="44.0513792" lon="11.4416573"><ele>1024.0</ele><time>2026-04-11T09:11:13.489Z</time></trkpt><trkpt lat="44.0513622" lon="11.4417692"><ele>1028.5</ele><time>2026-04-11T09:11:14.49Z</time></trkpt><trkpt lat="44.051355" lon="11.4418892"><ele>1033.0</ele><time>2026-04-11T09:11:15.489Z</time></trkpt><trkpt lat="44.05134" lon="11.4420203"><ele>1033.4</ele><time>2026-04-11T09:11:16.49Z</time></trkpt><trkpt lat="44.051322" lon="11.442147"><ele>1033.8</ele><time>2026-04-11T09:11:17.49Z</time></trkpt><trkpt lat="44.0513058" lon="11.442285"><ele>1034.2</ele><time>2026-04-11T09:11:18.491Z</time></trkpt><trkpt lat="44.0512768" lon="11.442422"><ele>1034.6</ele><time>2026-04-11T09:11:19.489Z</time></trkpt><trkpt lat="44.0512532" lon="11.4425678"><ele>1035.0</ele><time>2026-04-11T09:11:20.49Z</time></trkpt><trkpt lat="44.0512157" lon="11.4427033"><ele>1035.0</ele><time>2026-04-11T09:11:21.49Z</time></trkpt><trkpt lat="44.0511712" lon="11.4428397"><ele>1035.0</ele><time>2026-04-11T09:11:22.49Z</time></trkpt><trkpt lat="44.0511262" lon="11.4429818"><ele>1035.0</ele><time>2026-04-11T09:11:23.49Z</time></trkpt><trkpt lat="44.0510732" lon="11.4431248"><ele>1035.0</ele><time>2026-04-11T09:11:24.49Z</time></trkpt><trkpt lat="44.0510187" lon="11.443266"><ele>1034.2</ele><time>2026-04-11T09:11:25.49Z</time></trkpt><trkpt lat="44.0509622" lon="11.4434045"><ele>1033.4</ele><time>2026-04-11T09:11:26.49Z</time></trkpt><trkpt lat="44.0509015" lon="11.4435287"><ele>1032.6</ele><time>2026-04-11T09:11:27.491Z</time></trkpt><trkpt lat="44.050832" lon="11.4436415"><ele>1031.8</ele><time>2026-04-11T09:11:28.49Z</time></trkpt><trkpt lat="44.0507643" lon="11.4437695"><ele>1031.0</ele><time>2026-04-11T09:11:29.49Z</time></trkpt><trkpt lat="44.0507035" lon="11.4439287"><ele>1026.0</ele><time>2026-04-11T09:11:30.489Z</time></trkpt><trkpt lat="44.0506455" lon="11.4440957"><ele>1021.0</ele><time>2026-04-11T09:11:31.491Z</time></trkpt><trkpt lat="44.0505938" lon="11.4442822"><ele>1016.0</ele><time>2026-04-11T09:11:32.489Z</time></trkpt><trkpt lat="44.050544" lon="11.4444868"><ele>1011.0</ele><time>2026-04-11T09:11:33.49Z</time></trkpt><trkpt lat="44.0505008" lon="11.4446975"><ele>1010.6666666666667</ele><time>2026-04-11T09:11:34.493Z</time></trkpt><trkpt lat="44.05047" lon="11.4449093"><ele>1010.3333333333334</ele><time>2026-04-11T09:11:35.495Z</time></trkpt><trkpt lat="44.0504442" lon="11.4451173"><ele>1010.0</ele><time>2026-04-11T09:11:36.492Z</time></trkpt><trkpt lat="44.0504188" lon="11.4453242"><ele>1010.25</ele><time>2026-04-11T09:11:37.492Z</time></trkpt><trkpt lat="44.050394" lon="11.4455317"><ele>1010.5</ele><time>2026-04-11T09:11:38.493Z</time></trkpt><trkpt lat="44.0503672" lon="11.4457365"><ele>1010.75</ele><time>2026-04-11T09:11:39.493Z</time></trkpt><trkpt lat="44.0503415" lon="11.445937"><ele>1011.0</ele><time>2026-04-11T09:11:40.493Z</time></trkpt><trkpt lat="44.0503155" lon="11.446137"><ele>1012.0</ele><time>2026-04-11T09:11:41.493Z</time></trkpt><trkpt lat="44.0502893" lon="11.4463365"><ele>1013.0</ele><time>2026-04-11T09:11:42.493Z</time></trkpt><trkpt lat="44.0502637" lon="11.4465375"><ele>1014.0</ele><time>2026-04-11T09:11:43.491Z</time></trkpt><trkpt lat="44.0502393" lon="11.4467382"><ele>1015.0</ele><time>2026-04-11T09:11:44.491Z</time></trkpt><trkpt lat="44.0502145" lon="11.4469368"><ele>1016.75</ele><time>2026-04-11T09:11:45.49Z</time></trkpt><trkpt lat="44.0501903" lon="11.4471352"><ele>1018.5</ele><time>2026-04-11T09:11:46.489Z</time></trkpt><trkpt lat="44.0501647" lon="11.4473148"><ele>1020.25</ele><time>2026-04-11T09:11:47.492Z</time></trkpt><trkpt lat="44.0501452" lon="11.4474755"><ele>1022.0</ele><time>2026-04-11T09:11:48.49Z</time></trkpt><trkpt lat="44.0501335" lon="11.4475927"><ele>1022.0</ele><time>2026-04-11T09:11:49.49Z</time></trkpt><trkpt lat="44.0501258" lon="11.4476907"><ele>1022.0</ele><time>2026-04-11T09:11:50.49Z</time></trkpt><trkpt lat="44.0501177" lon="11.4478403"><ele>1022.0</ele><time>2026-04-11T09:11:52.491Z</time></trkpt><trkpt lat="44.050123" lon="11.4479797"><ele>1022.0</ele><time>2026-04-11T09:11:54.489Z</time></trkpt><trkpt lat="44.05014" lon="11.4481538"><ele>1022.0</ele><time>2026-04-11T09:11:56.489Z</time></trkpt><trkpt lat="44.050163" lon="11.4482537"><ele>1021.0000000000001</ele><time>2026-04-11T09:11:57.488Z</time></trkpt><trkpt lat="44.0501983" lon="11.4483575"><ele>1020.0</ele><time>2026-04-11T09:11:58.489Z</time></trkpt><trkpt lat="44.0502468" lon="11.448464"><ele>1019.0</ele><time>2026-04-11T09:11:59.49Z</time></trkpt><trkpt lat="44.0503093" lon="11.4485463"><ele>1018.0</ele><time>2026-04-11T09:12:00.489Z</time></trkpt><trkpt lat="44.050372" lon="11.4486058"><ele>1017.0000000000001</ele><time>2026-04-11T09:12:01.49Z</time></trkpt><trkpt lat="44.0504385" lon="11.4486685"><ele>1016.0</ele><time>2026-04-11T09:12:02.489Z</time></trkpt><trkpt lat="44.0504977" lon="11.4487368"><ele>1016.0000000000001</ele><time>2026-04-11T09:12:03.491Z</time></trkpt><trkpt lat="44.0505402" lon="11.448827"><ele>1016.0</ele><time>2026-04-11T09:12:04.488Z</time></trkpt><trkpt lat="44.0505747" lon="11.4489172"><ele>1016.0</ele><time>2026-04-11T09:12:05.491Z</time></trkpt><trkpt lat="44.0506017" lon="11.4490155"><ele>1016.0</ele><time>2026-04-11T09:12:06.489Z</time></trkpt><trkpt lat="44.050619" lon="11.4491233"><ele>1016.0000000000001</ele><time>2026-04-11T09:12:07.489Z</time></trkpt><trkpt lat="44.0506282" lon="11.4492285"><ele>1016.0</ele><time>2026-04-11T09:12:08.49Z</time></trkpt><trkpt lat="44.050639" lon="11.4493378"><ele>1016.0000000000001</ele><time>2026-04-11T09:12:09.489Z</time></trkpt><trkpt lat="44.0506507" lon="11.4494397"><ele>1016.0</ele><time>2026-04-11T09:12:10.49Z</time></trkpt><trkpt lat="44.0506413" lon="11.4495458"><ele>1016.0</ele><time>2026-04-11T09:12:11.492Z</time></trkpt><trkpt lat="44.0506115" lon="11.4496422"><ele>1016.0</ele><time>2026-04-11T09:12:12.49Z</time></trkpt><trkpt lat="44.050554" lon="11.4497218"><ele>1016.0000000000001</ele><time>2026-04-11T09:12:13.489Z</time></trkpt><trkpt lat="44.0504977" lon="11.4498117"><ele>1016.0</ele><time>2026-04-11T09:12:14.49Z</time></trkpt><trkpt lat="44.0504582" lon="11.4499187"><ele>1017.1999999999999</ele><time>2026-04-11T09:12:15.489Z</time></trkpt><trkpt lat="44.050435" lon="11.4500442"><ele>1018.3999999999999</ele><time>2026-04-11T09:12:16.489Z</time></trkpt><trkpt lat="44.0504273" lon="11.4501873"><ele>1019.6</ele><time>2026-04-11T09:12:17.489Z</time></trkpt><trkpt lat="44.0504307" lon="11.4503437"><ele>1020.8</ele><time>2026-04-11T09:12:18.488Z</time></trkpt><trkpt lat="44.0504455" lon="11.4505107"><ele>1022.0</ele><time>2026-04-11T09:12:19.487Z</time></trkpt><trkpt lat="44.0504635" lon="11.4506948"><ele>1023.0</ele><time>2026-04-11T09:12:20.487Z</time></trkpt><trkpt lat="44.0504845" lon="11.4508808"><ele>1024.0</ele><time>2026-04-11T09:12:21.487Z</time></trkpt><trkpt lat="44.0505068" lon="11.4510612"><ele>1025.0</ele><time>2026-04-11T09:12:22.487Z</time></trkpt><trkpt lat="44.050514" lon="11.4512312"><ele>1026.0</ele><time>2026-04-11T09:12:23.489Z</time></trkpt><trkpt lat="44.0505055" lon="11.4513872"><ele>1022.75</ele><time>2026-04-11T09:12:24.489Z</time></trkpt><trkpt lat="44.0505077" lon="11.4515453"><ele>1019.5</ele><time>2026-04-11T09:12:25.489Z</time></trkpt><trkpt lat="44.0505262" lon="11.4517125"><ele>1016.25</ele><time>2026-04-11T09:12:26.49Z</time></trkpt><trkpt lat="44.0505543" lon="11.4518805"><ele>1013.0</ele><time>2026-04-11T09:12:27.49Z</time></trkpt><trkpt lat="44.0505747" lon="11.4520298"><ele>1010.8</ele><time>2026-04-11T09:12:28.489Z</time></trkpt><trkpt lat="44.0505712" lon="11.4521732"><ele>1008.5999999999999</ele><time>2026-04-11T09:12:29.489Z</time></trkpt><trkpt lat="44.050551" lon="11.4523247"><ele>1006.4000000000001</ele><time>2026-04-11T09:12:30.489Z</time></trkpt><trkpt lat="44.0505312" lon="11.4524615"><ele>1004.2</ele><time>2026-04-11T09:12:31.489Z</time></trkpt><trkpt lat="44.0505468" lon="11.4525967"><ele>1002.0</ele><time>2026-04-11T09:12:32.49Z</time></trkpt><trkpt lat="44.0505808" lon="11.4527335"><ele>1002.0</ele><time>2026-04-11T09:12:33.489Z</time></trkpt><trkpt lat="44.0506295" lon="11.4528533"><ele>1002.0</ele><time>2026-04-11T09:12:34.49Z</time></trkpt><trkpt lat="44.0506753" lon="11.4529522"><ele>1002.0</ele><time>2026-04-11T09:12:35.49Z</time></trkpt><trkpt lat="44.0506993" lon="11.4530437"><ele>1002.0</ele><time>2026-04-11T09:12:36.487Z</time></trkpt><trkpt lat="44.0506967" lon="11.4531432"><ele>1002.0</ele><time>2026-04-11T09:12:37.488Z</time></trkpt><trkpt lat="44.0506715" lon="11.4532675"><ele>1002.0</ele><time>2026-04-11T09:12:38.489Z</time></trkpt><trkpt lat="44.0506445" lon="11.4534033"><ele>1001.5</ele><time>2026-04-11T09:12:39.49Z</time></trkpt><trkpt lat="44.0506123" lon="11.453547"><ele>1001.0</ele><time>2026-04-11T09:12:40.488Z</time></trkpt><trkpt lat="44.0505917" lon="11.4536743"><ele>1000.5</ele><time>2026-04-11T09:12:41.489Z</time></trkpt><trkpt lat="44.0505753" lon="11.4537893"><ele>1000.0</ele><time>2026-04-11T09:12:42.488Z</time></trkpt><trkpt lat="44.0505678" lon="11.4538802"><ele>999.5</ele><time>2026-04-11T09:12:43.488Z</time></trkpt><trkpt lat="44.0505657" lon="11.4539752"><ele>999.0</ele><time>2026-04-11T09:12:44.489Z</time></trkpt><trkpt lat="44.050575" lon="11.4541358"><ele>1001.0</ele><time>2026-04-11T09:12:46.489Z</time></trkpt><trkpt lat="44.050582" lon="11.4542798"><ele>1003.0000000000001</ele><time>2026-04-11T09:12:48.489Z</time></trkpt><trkpt lat="44.0505602" lon="11.454413"><ele>1005.0000000000001</ele><time>2026-04-11T09:12:50.489Z</time></trkpt><trkpt lat="44.0505413" lon="11.4545357"><ele>1007.0</ele><time>2026-04-11T09:12:52.489Z</time></trkpt><trkpt lat="44.0505172" lon="11.454651"><ele>1009.0</ele><time>2026-04-11T09:12:54.489Z</time></trkpt><trkpt lat="44.0505018" lon="11.4547948"><ele>1011.8333333333333</ele><time>2026-04-11T09:12:56.49Z</time></trkpt><trkpt lat="44.050512" lon="11.4549527"><ele>1014.6666666666666</ele><time>2026-04-11T09:12:58.49Z</time></trkpt><trkpt lat="44.0505373" lon="11.4551245"><ele>1017.5</ele><time>2026-04-11T09:13:00.49Z</time></trkpt><trkpt lat="44.050551" lon="11.455217"><ele>1020.3333333333333</ele><time>2026-04-11T09:13:01.49Z</time></trkpt><trkpt lat="44.0505657" lon="11.4553125"><ele>1023.1666666666666</ele><time>2026-04-11T09:13:02.491Z</time></trkpt><trkpt lat="44.0505843" lon="11.4554068"><ele>1026.0</ele><time>2026-04-11T09:13:03.49Z</time></trkpt><trkpt lat="44.0505985" lon="11.4555033"><ele>1027.5714285714287</ele><time>2026-04-11T09:13:04.49Z</time></trkpt><trkpt lat="44.0506103" lon="11.4556035"><ele>1029.142857142857</ele><time>2026-04-11T09:13:05.492Z</time></trkpt><trkpt lat="44.0506202" lon="11.455702"><ele>1030.7142857142858</ele><time>2026-04-11T09:13:06.49Z</time></trkpt><trkpt lat="44.0506247" lon="11.4558018"><ele>1032.2857142857142</ele><time>2026-04-11T09:13:07.49Z</time></trkpt><trkpt lat="44.050619" lon="11.4558938"><ele>1033.857142857143</ele><time>2026-04-11T09:13:08.489Z</time></trkpt><trkpt lat="44.050605" lon="11.455992"><ele>1035.4285714285716</ele><time>2026-04-11T09:13:09.49Z</time></trkpt><trkpt lat="44.0505842" lon="11.456089"><ele>1037.0</ele><time>2026-04-11T09:13:10.49Z</time></trkpt><trkpt lat="44.0505587" lon="11.4561893"><ele>1038.6</ele><time>2026-04-11T09:13:11.49Z</time></trkpt><trkpt lat="44.050528" lon="11.4562943"><ele>1040.2</ele><time>2026-04-11T09:13:12.491Z</time></trkpt><trkpt lat="44.050495" lon="11.4564058"><ele>1041.8</ele><time>2026-04-11T09:13:13.493Z</time></trkpt><trkpt lat="44.050454" lon="11.4565193"><ele>1043.4</ele><time>2026-04-11T09:13:14.492Z</time></trkpt><trkpt lat="44.050405" lon="11.4566353"><ele>1045.0</ele><time>2026-04-11T09:13:15.491Z</time></trkpt><trkpt lat="44.0503447" lon="11.4567543"><ele>1045.0</ele><time>2026-04-11T09:13:16.491Z</time></trkpt><trkpt lat="44.050279" lon="11.456878"><ele>1045.0</ele><time>2026-04-11T09:13:17.493Z</time></trkpt><trkpt lat="44.0502167" lon="11.457013"><ele>1045.0</ele><time>2026-04-11T09:13:18.492Z</time></trkpt><trkpt lat="44.0501627" lon="11.4571573"><ele>1045.0</ele><time>2026-04-11T09:13:19.492Z</time></trkpt><trkpt lat="44.0501113" lon="11.4573025"><ele>1046.4</ele><time>2026-04-11T09:13:20.491Z</time></trkpt><trkpt lat="44.0500592" lon="11.4574465"><ele>1047.8</ele><time>2026-04-11T09:13:21.49Z</time></trkpt><trkpt lat="44.0500072" lon="11.4575888"><ele>1049.2</ele><time>2026-04-11T09:13:22.491Z</time></trkpt><trkpt lat="44.049951" lon="11.4577123"><ele>1050.6</ele><time>2026-04-11T09:13:23.492Z</time></trkpt><trkpt lat="44.0498883" lon="11.457831"><ele>1052.0</ele><time>2026-04-11T09:13:24.491Z</time></trkpt><trkpt lat="44.0498193" lon="11.457945"><ele>1049.6</ele><time>2026-04-11T09:13:25.49Z</time></trkpt><trkpt lat="44.0497433" lon="11.4580575"><ele>1047.2</ele><time>2026-04-11T09:13:26.491Z</time></trkpt><trkpt lat="44.0496708" lon="11.4581712"><ele>1044.8</ele><time>2026-04-11T09:13:27.491Z</time></trkpt><trkpt lat="44.0495985" lon="11.4582832"><ele>1042.4</ele><time>2026-04-11T09:13:28.491Z</time></trkpt><trkpt lat="44.049531" lon="11.4584043"><ele>1040.0</ele><time>2026-04-11T09:13:29.491Z</time></trkpt><trkpt lat="44.0494783" lon="11.458539"><ele>1040.0</ele><time>2026-04-11T09:13:30.491Z</time></trkpt><trkpt lat="44.0494198" lon="11.458672"><ele>1040.0</ele><time>2026-04-11T09:13:31.491Z</time></trkpt><trkpt lat="44.049349" lon="11.458787"><ele>1040.0</ele><time>2026-04-11T09:13:32.49Z</time></trkpt><trkpt lat="44.049279" lon="11.4588978"><ele>1040.0</ele><time>2026-04-11T09:13:33.488Z</time></trkpt><trkpt lat="44.0492258" lon="11.4590103"><ele>1040.0</ele><time>2026-04-11T09:13:34.488Z</time></trkpt><trkpt lat="44.0491883" lon="11.4591333"><ele>1038.0</ele><time>2026-04-11T09:13:35.488Z</time></trkpt><trkpt lat="44.0491623" lon="11.4592742"><ele>1036.0</ele><time>2026-04-11T09:13:36.49Z</time></trkpt><trkpt lat="44.0491352" lon="11.4594167"><ele>1034.0</ele><time>2026-04-11T09:13:37.49Z</time></trkpt><trkpt lat="44.0491073" lon="11.459546"><ele>1032.0</ele><time>2026-04-11T09:13:38.491Z</time></trkpt><trkpt lat="44.0490912" lon="11.4596743"><ele>1030.0</ele><time>2026-04-11T09:13:39.491Z</time></trkpt><trkpt lat="44.0490653" lon="11.4597955"><ele>1030.0</ele><time>2026-04-11T09:13:40.489Z</time></trkpt><trkpt lat="44.0490302" lon="11.459909"><ele>1030.0</ele><time>2026-04-11T09:13:41.491Z</time></trkpt><trkpt lat="44.0489735" lon="11.4600093"><ele>1030.0</ele><time>2026-04-11T09:13:42.489Z</time></trkpt><trkpt lat="44.0488953" lon="11.4601108"><ele>1030.0</ele><time>2026-04-11T09:13:43.489Z</time></trkpt><trkpt lat="44.0488168" lon="11.4602242"><ele>1030.0</ele><time>2026-04-11T09:13:44.488Z</time></trkpt><trkpt lat="44.048729" lon="11.4603255"><ele>1030.0</ele><time>2026-04-11T09:13:45.49Z</time></trkpt><trkpt lat="44.0486433" lon="11.4604242"><ele>1030.0</ele><time>2026-04-11T09:13:46.487Z</time></trkpt><trkpt lat="44.0485718" lon="11.460539"><ele>1030.0</ele><time>2026-04-11T09:13:47.489Z</time></trkpt><trkpt lat="44.048498" lon="11.4606532"><ele>1030.0</ele><time>2026-04-11T09:13:48.49Z</time></trkpt><trkpt lat="44.0484232" lon="11.4607693"><ele>1030.0</ele><time>2026-04-11T09:13:49.489Z</time></trkpt><trkpt lat="44.048342" lon="11.4608925"><ele>1031.5</ele><time>2026-04-11T09:13:50.489Z</time></trkpt><trkpt lat="44.0482668" lon="11.4610348"><ele>1033.0</ele><time>2026-04-11T09:13:51.489Z</time></trkpt><trkpt lat="44.0481925" lon="11.4611913"><ele>1034.5</ele><time>2026-04-11T09:13:52.49Z</time></trkpt><trkpt lat="44.0481203" lon="11.4613523"><ele>1036.0</ele><time>2026-04-11T09:13:53.49Z</time></trkpt><trkpt lat="44.048052" lon="11.4615052"><ele>1036.0</ele><time>2026-04-11T09:13:54.489Z</time></trkpt><trkpt lat="44.0479883" lon="11.4616473"><ele>1036.0</ele><time>2026-04-11T09:13:55.489Z</time></trkpt><trkpt lat="44.0479312" lon="11.4617805"><ele>1036.0</ele><time>2026-04-11T09:13:56.489Z</time></trkpt><trkpt lat="44.0478853" lon="11.4619043"><ele>1036.0</ele><time>2026-04-11T09:13:57.488Z</time></trkpt><trkpt lat="44.0478428" lon="11.4620172"><ele>1036.0</ele><time>2026-04-11T09:13:58.487Z</time></trkpt><trkpt lat="44.0478105" lon="11.4621155"><ele>1038.0</ele><time>2026-04-11T09:13:59.488Z</time></trkpt><trkpt lat="44.0477797" lon="11.4622158"><ele>1040.0</ele><time>2026-04-11T09:14:00.488Z</time></trkpt><trkpt lat="44.0477547" lon="11.4623122"><ele>1042.0</ele><time>2026-04-11T09:14:01.491Z</time></trkpt><trkpt lat="44.0477253" lon="11.4624035"><ele>1044.0</ele><time>2026-04-11T09:14:02.49Z</time></trkpt><trkpt lat="44.0476848" lon="11.4624952"><ele>1046.0</ele><time>2026-04-11T09:14:03.491Z</time></trkpt><trkpt lat="44.0476262" lon="11.462585"><ele>1048.0</ele><time>2026-04-11T09:14:04.491Z</time></trkpt><trkpt lat="44.0475553" lon="11.4626717"><ele>1048.0</ele><time>2026-04-11T09:14:05.492Z</time></trkpt><trkpt lat="44.0474773" lon="11.4627558"><ele>1048.0</ele><time>2026-04-11T09:14:06.49Z</time></trkpt><trkpt lat="44.0474022" lon="11.462823"><ele>1048.0</ele><time>2026-04-11T09:14:07.49Z</time></trkpt><trkpt lat="44.0473333" lon="11.4628928"><ele>1048.0</ele><time>2026-04-11T09:14:08.49Z</time></trkpt><trkpt lat="44.0472768" lon="11.4629628"><ele>1048.0</ele><time>2026-04-11T09:14:09.49Z</time></trkpt><trkpt lat="44.0472167" lon="11.4630767"><ele>1043.2</ele><time>2026-04-11T09:14:11.492Z</time></trkpt><trkpt lat="44.0471753" lon="11.463212"><ele>1038.4</ele><time>2026-04-11T09:14:13.489Z</time></trkpt><trkpt lat="44.04716" lon="11.463398"><ele>1033.6000000000001</ele><time>2026-04-11T09:14:15.489Z</time></trkpt><trkpt lat="44.0471582" lon="11.4635063"><ele>1028.8</ele><time>2026-04-11T09:14:16.49Z</time></trkpt><trkpt lat="44.04716" lon="11.463607"><ele>1024.0</ele><time>2026-04-11T09:14:17.49Z</time></trkpt><trkpt lat="44.0471532" lon="11.4637087"><ele>1024.1666666666665</ele><time>2026-04-11T09:14:18.49Z</time></trkpt><trkpt lat="44.0471485" lon="11.4638237"><ele>1024.3333333333333</ele><time>2026-04-11T09:14:19.491Z</time></trkpt><trkpt lat="44.0471343" lon="11.463946"><ele>1024.5</ele><time>2026-04-11T09:14:20.491Z</time></trkpt><trkpt lat="44.04712" lon="11.4640615"><ele>1024.6666666666667</ele><time>2026-04-11T09:14:21.489Z</time></trkpt><trkpt lat="44.047098" lon="11.4641803"><ele>1024.8333333333335</ele><time>2026-04-11T09:14:22.488Z</time></trkpt><trkpt lat="44.0470723" lon="11.4643092"><ele>1025.0</ele><time>2026-04-11T09:14:23.488Z</time></trkpt><trkpt lat="44.0470385" lon="11.4644482"><ele>1025.0</ele><time>2026-04-11T09:14:24.488Z</time></trkpt><trkpt lat="44.0469965" lon="11.4645845"><ele>1025.0</ele><time>2026-04-11T09:14:25.488Z</time></trkpt><trkpt lat="44.0469453" lon="11.4647223"><ele>1025.0</ele><time>2026-04-11T09:14:26.49Z</time></trkpt><trkpt lat="44.0468907" lon="11.4648678"><ele>1025.0</ele><time>2026-04-11T09:14:27.49Z</time></trkpt><trkpt lat="44.0468347" lon="11.4650227"><ele>1026.75</ele><time>2026-04-11T09:14:28.492Z</time></trkpt><trkpt lat="44.0467708" lon="11.4651775"><ele>1028.5</ele><time>2026-04-11T09:14:29.49Z</time></trkpt><trkpt lat="44.0467158" lon="11.4653265"><ele>1030.25</ele><time>2026-04-11T09:14:30.491Z</time></trkpt><trkpt lat="44.0466728" lon="11.4654818"><ele>1032.0</ele><time>2026-04-11T09:14:31.49Z</time></trkpt><trkpt lat="44.046638" lon="11.4656465"><ele>1032.0</ele><time>2026-04-11T09:14:32.492Z</time></trkpt><trkpt lat="44.0466033" lon="11.465802"><ele>1032.0</ele><time>2026-04-11T09:14:33.491Z</time></trkpt><trkpt lat="44.0465612" lon="11.4659472"><ele>1032.0</ele><time>2026-04-11T09:14:34.493Z</time></trkpt><trkpt lat="44.0465175" lon="11.466082"><ele>1032.0</ele><time>2026-04-11T09:14:35.492Z</time></trkpt><trkpt lat="44.0464712" lon="11.4662125"><ele>1032.0</ele><time>2026-04-11T09:14:36.491Z</time></trkpt><trkpt lat="44.0464182" lon="11.4663287"><ele>1032.0</ele><time>2026-04-11T09:14:37.492Z</time></trkpt><trkpt lat="44.0463563" lon="11.4664477"><ele>1032.0</ele><time>2026-04-11T09:14:38.49Z</time></trkpt><trkpt lat="44.0462898" lon="11.466568"><ele>1032.0</ele><time>2026-04-11T09:14:39.49Z</time></trkpt><trkpt lat="44.0462303" lon="11.4666888"><ele>1032.0</ele><time>2026-04-11T09:14:40.49Z</time></trkpt><trkpt lat="44.0461702" lon="11.4668105"><ele>1032.0</ele><time>2026-04-11T09:14:41.492Z</time></trkpt><trkpt lat="44.0461177" lon="11.4669262"><ele>1032.0</ele><time>2026-04-11T09:14:42.49Z</time></trkpt><trkpt lat="44.0460535" lon="11.4670365"><ele>1032.0</ele><time>2026-04-11T09:14:43.49Z</time></trkpt><trkpt lat="44.0459812" lon="11.4671365"><ele>1032.0</ele><time>2026-04-11T09:14:44.49Z</time></trkpt><trkpt lat="44.0459057" lon="11.467232"><ele>1032.0</ele><time>2026-04-11T09:14:45.49Z</time></trkpt><trkpt lat="44.0458402" lon="11.4673245"><ele>1032.0</ele><time>2026-04-11T09:14:46.488Z</time></trkpt><trkpt lat="44.0457905" lon="11.4674392"><ele>1028.6</ele><time>2026-04-11T09:14:47.488Z</time></trkpt><trkpt lat="44.0457568" lon="11.4675727"><ele>1025.2</ele><time>2026-04-11T09:14:48.488Z</time></trkpt><trkpt lat="44.0457207" lon="11.4677035"><ele>1021.8</ele><time>2026-04-11T09:14:49.489Z</time></trkpt><trkpt lat="44.0456855" lon="11.4678398"><ele>1018.4</ele><time>2026-04-11T09:14:50.491Z</time></trkpt><trkpt lat="44.0456418" lon="11.4679718"><ele>1015.0</ele><time>2026-04-11T09:14:51.49Z</time></trkpt><trkpt lat="44.0456033" lon="11.4681102"><ele>1015.0</ele><time>2026-04-11T09:14:52.49Z</time></trkpt><trkpt lat="44.0455677" lon="11.468246"><ele>1015.0</ele><time>2026-04-11T09:14:53.491Z</time></trkpt><trkpt lat="44.0455405" lon="11.468374"><ele>1015.0</ele><time>2026-04-11T09:14:54.491Z</time></trkpt><trkpt lat="44.0455005" lon="11.4685127"><ele>1015.0</ele><time>2026-04-11T09:14:55.491Z</time></trkpt><trkpt lat="44.045455" lon="11.4686488"><ele>1015.0</ele><time>2026-04-11T09:14:56.491Z</time></trkpt><trkpt lat="44.0454073" lon="11.4687877"><ele>1016.2</ele><time>2026-04-11T09:14:57.49Z</time></trkpt><trkpt lat="44.0453518" lon="11.4689258"><ele>1017.4</ele><time>2026-04-11T09:14:58.492Z</time></trkpt><trkpt lat="44.0452998" lon="11.469063"><ele>1018.5999999999999</ele><time>2026-04-11T09:14:59.49Z</time></trkpt><trkpt lat="44.0452598" lon="11.4691838"><ele>1019.8</ele><time>2026-04-11T09:15:00.491Z</time></trkpt><trkpt lat="44.0452325" lon="11.4693052"><ele>1021.0</ele><time>2026-04-11T09:15:01.49Z</time></trkpt><trkpt lat="44.04522" lon="11.46943"><ele>1020.9999999999999</ele><time>2026-04-11T09:15:02.491Z</time></trkpt><trkpt lat="44.0452168" lon="11.4695463"><ele>1021.0</ele><time>2026-04-11T09:15:03.49Z</time></trkpt><trkpt lat="44.0452153" lon="11.4696683"><ele>1021.0</ele><time>2026-04-11T09:15:04.489Z</time></trkpt><trkpt lat="44.0452155" lon="11.469795"><ele>1021.0</ele><time>2026-04-11T09:15:05.489Z</time></trkpt><trkpt lat="44.0452152" lon="11.4699203"><ele>1020.9999999999999</ele><time>2026-04-11T09:15:06.489Z</time></trkpt><trkpt lat="44.0452178" lon="11.4700523"><ele>1021.0</ele><time>2026-04-11T09:15:07.49Z</time></trkpt><trkpt lat="44.0452198" lon="11.4701773"><ele>1022.1428571428571</ele><time>2026-04-11T09:15:08.491Z</time></trkpt><trkpt lat="44.045217" lon="11.4702865"><ele>1023.2857142857143</ele><time>2026-04-11T09:15:09.491Z</time></trkpt><trkpt lat="44.0452185" lon="11.4703798"><ele>1024.4285714285716</ele><time>2026-04-11T09:15:10.489Z</time></trkpt><trkpt lat="44.0452173" lon="11.4704815"><ele>1025.5714285714284</ele><time>2026-04-11T09:15:11.488Z</time></trkpt><trkpt lat="44.0452113" lon="11.4705925"><ele>1026.7142857142858</ele><time>2026-04-11T09:15:12.488Z</time></trkpt><trkpt lat="44.045197" lon="11.4706983"><ele>1027.857142857143</ele><time>2026-04-11T09:15:13.487Z</time></trkpt><trkpt lat="44.0451798" lon="11.470796"><ele>1029.0</ele><time>2026-04-11T09:15:14.49Z</time></trkpt><trkpt lat="44.045146" lon="11.4709418"><ele>1029.4</ele><time>2026-04-11T09:15:16.49Z</time></trkpt><trkpt lat="44.0450988" lon="11.4710372"><ele>1029.8000000000002</ele><time>2026-04-11T09:15:18.491Z</time></trkpt><trkpt lat="44.0450148" lon="11.4711393"><ele>1030.1999999999998</ele><time>2026-04-11T09:15:20.49Z</time></trkpt><trkpt lat="44.0449173" lon="11.4712563"><ele>1030.6</ele><time>2026-04-11T09:15:22.49Z</time></trkpt><trkpt lat="44.0448617" lon="11.4713042"><ele>1031.0</ele><time>2026-04-11T09:15:23.49Z</time></trkpt><trkpt lat="44.0447478" lon="11.4713275"><ele>1028.0</ele><time>2026-04-11T09:15:25.49Z</time></trkpt><trkpt lat="44.0446572" lon="11.471309"><ele>1025.0</ele><time>2026-04-11T09:15:27.492Z</time></trkpt><trkpt lat="44.0445575" lon="11.4713368"><ele>1022.0</ele><time>2026-04-11T09:15:30.491Z</time></trkpt><trkpt lat="44.0444762" lon="11.4714048"><ele>1019.0</ele><time>2026-04-11T09:15:32.493Z</time></trkpt><trkpt lat="44.0444268" lon="11.4714717"><ele>1016.0000000000001</ele><time>2026-04-11T09:15:33.491Z</time></trkpt><trkpt lat="44.0443672" lon="11.4715523"><ele>1013.0</ele><time>2026-04-11T09:15:34.49Z</time></trkpt><trkpt lat="44.0443048" lon="11.4716423"><ele>1013.0</ele><time>2026-04-11T09:15:35.49Z</time></trkpt><trkpt lat="44.0442373" lon="11.471737"><ele>1013.0</ele><time>2026-04-11T09:15:36.489Z</time></trkpt><trkpt lat="44.044171" lon="11.4718388"><ele>1013.0</ele><time>2026-04-11T09:15:37.488Z</time></trkpt><trkpt lat="44.0441112" lon="11.471948"><ele>1013.0</ele><time>2026-04-11T09:15:38.488Z</time></trkpt><trkpt lat="44.0440582" lon="11.4720523"><ele>1013.0</ele><time>2026-04-11T09:15:39.491Z</time></trkpt><trkpt lat="44.0440197" lon="11.4721695"><ele>1006.8</ele><time>2026-04-11T09:15:40.489Z</time></trkpt><trkpt lat="44.0439783" lon="11.4722923"><ele>1000.5999999999999</ele><time>2026-04-11T09:15:41.492Z</time></trkpt><trkpt lat="44.0439198" lon="11.472418"><ele>994.4000000000001</ele><time>2026-04-11T09:15:42.49Z</time></trkpt><trkpt lat="44.0438477" lon="11.4725378"><ele>988.2</ele><time>2026-04-11T09:15:43.49Z</time></trkpt><trkpt lat="44.043768" lon="11.4726498"><ele>982.0</ele><time>2026-04-11T09:15:44.491Z</time></trkpt><trkpt lat="44.0437015" lon="11.4727672"><ele>982.0</ele><time>2026-04-11T09:15:45.491Z</time></trkpt><trkpt lat="44.0436702" lon="11.4729022"><ele>982.0</ele><time>2026-04-11T09:15:46.489Z</time></trkpt><trkpt lat="44.0436772" lon="11.4730423"><ele>982.0</ele><time>2026-04-11T09:15:47.489Z</time></trkpt><trkpt lat="44.0437032" lon="11.473182"><ele>982.0</ele><time>2026-04-11T09:15:48.49Z</time></trkpt><trkpt lat="44.0437335" lon="11.4733147"><ele>982.0</ele><time>2026-04-11T09:15:49.489Z</time></trkpt><trkpt lat="44.0437582" lon="11.4734447"><ele>981.4000000000001</ele><time>2026-04-11T09:15:50.488Z</time></trkpt><trkpt lat="44.0437783" lon="11.4735667"><ele>980.8000000000001</ele><time>2026-04-11T09:15:51.488Z</time></trkpt><trkpt lat="44.043789" lon="11.4736908"><ele>980.2</ele><time>2026-04-11T09:15:52.489Z</time></trkpt><trkpt lat="44.04379" lon="11.4738315"><ele>979.6</ele><time>2026-04-11T09:15:53.488Z</time></trkpt><trkpt lat="44.0437785" lon="11.4739723"><ele>979.0</ele><time>2026-04-11T09:15:54.49Z</time></trkpt><trkpt lat="44.0437458" lon="11.4741037"><ele>979.0</ele><time>2026-04-11T09:15:55.491Z</time></trkpt><trkpt lat="44.043695" lon="11.4742213"><ele>979.0000000000001</ele><time>2026-04-11T09:15:56.49Z</time></trkpt><trkpt lat="44.0436353" lon="11.4743352"><ele>979.0000000000001</ele><time>2026-04-11T09:15:57.489Z</time></trkpt><trkpt lat="44.043579" lon="11.474465"><ele>979.0</ele><time>2026-04-11T09:15:58.489Z</time></trkpt><trkpt lat="44.043536" lon="11.474614"><ele>979.0</ele><time>2026-04-11T09:15:59.491Z</time></trkpt><trkpt lat="44.0435068" lon="11.4747767"><ele>981.25</ele><time>2026-04-11T09:16:00.489Z</time></trkpt><trkpt lat="44.0434907" lon="11.4749467"><ele>983.5</ele><time>2026-04-11T09:16:01.49Z</time></trkpt><trkpt lat="44.043486" lon="11.4751183"><ele>985.75</ele><time>2026-04-11T09:16:02.49Z</time></trkpt><trkpt lat="44.0434793" lon="11.4752865"><ele>988.0</ele><time>2026-04-11T09:16:03.492Z</time></trkpt><trkpt lat="44.0434598" lon="11.4754485"><ele>989.75</ele><time>2026-04-11T09:16:04.49Z</time></trkpt><trkpt lat="44.0434225" lon="11.4756015"><ele>991.5</ele><time>2026-04-11T09:16:05.491Z</time></trkpt><trkpt lat="44.0433647" lon="11.4757428"><ele>993.25</ele><time>2026-04-11T09:16:06.49Z</time></trkpt><trkpt lat="44.0432905" lon="11.4758788"><ele>995.0</ele><time>2026-04-11T09:16:07.49Z</time></trkpt><trkpt lat="44.0432092" lon="11.4760077"><ele>988.75</ele><time>2026-04-11T09:16:08.49Z</time></trkpt><trkpt lat="44.0431192" lon="11.4761198"><ele>982.5</ele><time>2026-04-11T09:16:09.489Z</time></trkpt><trkpt lat="44.0430193" lon="11.4762087"><ele>976.25</ele><time>2026-04-11T09:16:10.489Z</time></trkpt><trkpt lat="44.0429185" lon="11.4762785"><ele>970.0</ele><time>2026-04-11T09:16:11.49Z</time></trkpt><trkpt lat="44.0428297" lon="11.4763527"><ele>970.0</ele><time>2026-04-11T09:16:12.49Z</time></trkpt><trkpt lat="44.042769" lon="11.476451"><ele>970.0</ele><time>2026-04-11T09:16:13.491Z</time></trkpt><trkpt lat="44.0427492" lon="11.4765793"><ele>970.0</ele><time>2026-04-11T09:16:14.491Z</time></trkpt><trkpt lat="44.0427598" lon="11.4767238"><ele>970.0</ele><time>2026-04-11T09:16:15.49Z</time></trkpt><trkpt lat="44.0427797" lon="11.4768793"><ele>970.0</ele><time>2026-04-11T09:16:16.49Z</time></trkpt><trkpt lat="44.0427997" lon="11.4770477"><ele>968.25</ele><time>2026-04-11T09:16:17.49Z</time></trkpt><trkpt lat="44.0428208" lon="11.4772253"><ele>966.5</ele><time>2026-04-11T09:16:18.49Z</time></trkpt><trkpt lat="44.0428397" lon="11.4774055"><ele>964.75</ele><time>2026-04-11T09:16:19.49Z</time></trkpt><trkpt lat="44.0428532" lon="11.4775777"><ele>963.0</ele><time>2026-04-11T09:16:20.49Z</time></trkpt><trkpt lat="44.0428685" lon="11.4777488"><ele>963.0</ele><time>2026-04-11T09:16:21.489Z</time></trkpt><trkpt lat="44.0428692" lon="11.4779193"><ele>963.0</ele><time>2026-04-11T09:16:22.489Z</time></trkpt><trkpt lat="44.042843" lon="11.4780835"><ele>963.0</ele><time>2026-04-11T09:16:23.49Z</time></trkpt><trkpt lat="44.0428025" lon="11.4782448"><ele>963.0</ele><time>2026-04-11T09:16:24.486Z</time></trkpt><trkpt lat="44.0427578" lon="11.4783967"><ele>962.75</ele><time>2026-04-11T09:16:25.487Z</time></trkpt><trkpt lat="44.0427097" lon="11.4785413"><ele>962.5</ele><time>2026-04-11T09:16:26.487Z</time></trkpt><trkpt lat="44.0426547" lon="11.4786758"><ele>962.25</ele><time>2026-04-11T09:16:27.487Z</time></trkpt><trkpt lat="44.0425873" lon="11.4788038"><ele>962.0</ele><time>2026-04-11T09:16:28.488Z</time></trkpt><trkpt lat="44.0425107" lon="11.4789307"><ele>952.75</ele><time>2026-04-11T09:16:29.488Z</time></trkpt><trkpt lat="44.042431" lon="11.4790545"><ele>943.5</ele><time>2026-04-11T09:16:30.487Z</time></trkpt><trkpt lat="44.0423507" lon="11.4791743"><ele>934.25</ele><time>2026-04-11T09:16:31.488Z</time></trkpt><trkpt lat="44.042272" lon="11.4792897"><ele>925.0</ele><time>2026-04-11T09:16:32.489Z</time></trkpt><trkpt lat="44.0421963" lon="11.4794053"><ele>925.0</ele><time>2026-04-11T09:16:33.489Z</time></trkpt><trkpt lat="44.0421308" lon="11.4795262"><ele>925.0</ele><time>2026-04-11T09:16:34.489Z</time></trkpt><trkpt lat="44.0420793" lon="11.479669"><ele>925.0</ele><time>2026-04-11T09:16:35.49Z</time></trkpt><trkpt lat="44.0420348" lon="11.4798292"><ele>925.0</ele><time>2026-04-11T09:16:36.489Z</time></trkpt><trkpt lat="44.0419895" lon="11.4799967"><ele>927.75</ele><time>2026-04-11T09:16:37.489Z</time></trkpt><trkpt lat="44.0419422" lon="11.4801618"><ele>930.5</ele><time>2026-04-11T09:16:38.49Z</time></trkpt><trkpt lat="44.0418945" lon="11.4803257"><ele>933.25</ele><time>2026-04-11T09:16:39.49Z</time></trkpt><trkpt lat="44.041858" lon="11.480491"><ele>936.0</ele><time>2026-04-11T09:16:40.49Z</time></trkpt><trkpt lat="44.041833" lon="11.4806565"><ele>938.25</ele><time>2026-04-11T09:16:41.491Z</time></trkpt><trkpt lat="44.0418085" lon="11.48082"><ele>940.5</ele><time>2026-04-11T09:16:42.49Z</time></trkpt><trkpt lat="44.0417725" lon="11.480984"><ele>942.75</ele><time>2026-04-11T09:16:43.489Z</time></trkpt><trkpt lat="44.0417157" lon="11.4811407"><ele>945.0</ele><time>2026-04-11T09:16:44.49Z</time></trkpt><trkpt lat="44.0416463" lon="11.4812825"><ele>938.0</ele><time>2026-04-11T09:16:45.489Z</time></trkpt><trkpt lat="44.0415887" lon="11.4814288"><ele>931.0</ele><time>2026-04-11T09:16:46.49Z</time></trkpt><trkpt lat="44.0415292" lon="11.4815685"><ele>924.0</ele><time>2026-04-11T09:16:47.488Z</time></trkpt><trkpt lat="44.0414527" lon="11.4816832"><ele>917.0</ele><time>2026-04-11T09:16:48.489Z</time></trkpt><trkpt lat="44.041358" lon="11.4817667"><ele>917.0</ele><time>2026-04-11T09:16:49.487Z</time></trkpt><trkpt lat="44.0412422" lon="11.4818217"><ele>917.0</ele><time>2026-04-11T09:16:50.486Z</time></trkpt><trkpt lat="44.0411188" lon="11.4818682"><ele>917.0</ele><time>2026-04-11T09:16:51.486Z</time></trkpt><trkpt lat="44.0409967" lon="11.4819015"><ele>917.0</ele><time>2026-04-11T09:16:52.488Z</time></trkpt><trkpt lat="44.040876" lon="11.4819315"><ele>915.75</ele><time>2026-04-11T09:16:53.49Z</time></trkpt><trkpt lat="44.0407655" lon="11.4819905"><ele>914.5</ele><time>2026-04-11T09:16:54.488Z</time></trkpt><trkpt lat="44.040661" lon="11.4820788"><ele>913.25</ele><time>2026-04-11T09:16:55.488Z</time></trkpt><trkpt lat="44.0405647" lon="11.4821803"><ele>912.0</ele><time>2026-04-11T09:16:56.489Z</time></trkpt><trkpt lat="44.0404815" lon="11.4823022"><ele>912.0</ele><time>2026-04-11T09:16:57.488Z</time></trkpt><trkpt lat="44.040412" lon="11.4824472"><ele>912.0</ele><time>2026-04-11T09:16:58.489Z</time></trkpt><trkpt lat="44.0403547" lon="11.4826075"><ele>912.0</ele><time>2026-04-11T09:16:59.489Z</time></trkpt><trkpt lat="44.0403073" lon="11.4827695"><ele>912.0</ele><time>2026-04-11T09:17:00.492Z</time></trkpt><trkpt lat="44.040272" lon="11.4829318"><ele>916.0</ele><time>2026-04-11T09:17:01.489Z</time></trkpt><trkpt lat="44.040246" lon="11.4830898"><ele>920.0</ele><time>2026-04-11T09:17:02.488Z</time></trkpt><trkpt lat="44.0402162" lon="11.4832353"><ele>924.0</ele><time>2026-04-11T09:17:03.489Z</time></trkpt><trkpt lat="44.0401645" lon="11.4833493"><ele>928.0</ele><time>2026-04-11T09:17:04.488Z</time></trkpt><trkpt lat="44.0400892" lon="11.4834195"><ele>932.0</ele><time>2026-04-11T09:17:05.496Z</time></trkpt><trkpt lat="44.040007" lon="11.4834547"><ele>931.8</ele><time>2026-04-11T09:17:06.487Z</time></trkpt><trkpt lat="44.0399277" lon="11.4834993"><ele>931.6</ele><time>2026-04-11T09:17:07.488Z</time></trkpt><trkpt lat="44.0398585" lon="11.483587"><ele>931.3999999999999</ele><time>2026-04-11T09:17:08.489Z</time></trkpt><trkpt lat="44.0397858" lon="11.483692"><ele>931.1999999999999</ele><time>2026-04-11T09:17:09.486Z</time></trkpt><trkpt lat="44.0396965" lon="11.4837833"><ele>931.0</ele><time>2026-04-11T09:17:10.489Z</time></trkpt><trkpt lat="44.0395938" lon="11.4838493"><ele>931.0</ele><time>2026-04-11T09:17:11.49Z</time></trkpt><trkpt lat="44.039484" lon="11.4838933"><ele>931.0</ele><time>2026-04-11T09:17:12.489Z</time></trkpt><trkpt lat="44.0393675" lon="11.483915"><ele>931.0</ele><time>2026-04-11T09:17:13.488Z</time></trkpt><trkpt lat="44.0392498" lon="11.4839258"><ele>931.0</ele><time>2026-04-11T09:17:14.487Z</time></trkpt><trkpt lat="44.03913" lon="11.4839305"><ele>930.4</ele><time>2026-04-11T09:17:15.487Z</time></trkpt><trkpt lat="44.039016" lon="11.483925"><ele>929.8</ele><time>2026-04-11T09:17:16.487Z</time></trkpt><trkpt lat="44.0389232" lon="11.4839008"><ele>929.1999999999999</ele><time>2026-04-11T09:17:17.489Z</time></trkpt><trkpt lat="44.038854" lon="11.483867"><ele>928.5999999999999</ele><time>2026-04-11T09:17:18.489Z</time></trkpt><trkpt lat="44.0387567" lon="11.4838042"><ele>928.0</ele><time>2026-04-11T09:17:20.49Z</time></trkpt><trkpt lat="44.0386447" lon="11.4837412"><ele>927.8</ele><time>2026-04-11T09:17:22.489Z</time></trkpt><trkpt lat="44.0385813" lon="11.4837078"><ele>927.5999999999999</ele><time>2026-04-11T09:17:23.49Z</time></trkpt><trkpt lat="44.0384792" lon="11.4835935"><ele>927.4000000000001</ele><time>2026-04-11T09:17:25.49Z</time></trkpt><trkpt lat="44.0384238" lon="11.4835045"><ele>927.2</ele><time>2026-04-11T09:17:26.49Z</time></trkpt><trkpt lat="44.0383488" lon="11.4834358"><ele>927.0</ele><time>2026-04-11T09:17:27.489Z</time></trkpt><trkpt lat="44.038252" lon="11.483383"><ele>930.0</ele><time>2026-04-11T09:17:28.49Z</time></trkpt><trkpt lat="44.0381342" lon="11.4833402"><ele>933.0</ele><time>2026-04-11T09:17:29.49Z</time></trkpt><trkpt lat="44.038036" lon="11.4833258"><ele>936.0</ele><time>2026-04-11T09:17:30.489Z</time></trkpt><trkpt lat="44.0379483" lon="11.4833345"><ele>939.0</ele><time>2026-04-11T09:17:31.49Z</time></trkpt><trkpt lat="44.037874" lon="11.4833602"><ele>942.0</ele><time>2026-04-11T09:17:32.49Z</time></trkpt><trkpt lat="44.0378122" lon="11.4833937"><ele>942.0</ele><time>2026-04-11T09:17:33.489Z</time></trkpt><trkpt lat="44.0377452" lon="11.4834473"><ele>942.0</ele><time>2026-04-11T09:17:34.49Z</time></trkpt><trkpt lat="44.037673" lon="11.4835128"><ele>942.0</ele><time>2026-04-11T09:17:35.49Z</time></trkpt><trkpt lat="44.0375967" lon="11.483574"><ele>942.0</ele><time>2026-04-11T09:17:36.492Z</time></trkpt><trkpt lat="44.0375155" lon="11.4836152"><ele>942.0</ele><time>2026-04-11T09:17:37.49Z</time></trkpt><trkpt lat="44.0374435" lon="11.483627"><ele>942.0</ele><time>2026-04-11T09:17:38.488Z</time></trkpt><trkpt lat="44.0373598" lon="11.483627"><ele>942.6</ele><time>2026-04-11T09:17:39.488Z</time></trkpt><trkpt lat="44.037259" lon="11.4836213"><ele>943.2</ele><time>2026-04-11T09:17:40.489Z</time></trkpt><trkpt lat="44.0371568" lon="11.483612"><ele>943.8</ele><time>2026-04-11T09:17:41.489Z</time></trkpt><trkpt lat="44.0370517" lon="11.4836398"><ele>944.4</ele><time>2026-04-11T09:17:42.489Z</time></trkpt><trkpt lat="44.0369588" lon="11.4836977"><ele>945.0</ele><time>2026-04-11T09:17:43.49Z</time></trkpt><trkpt lat="44.0368853" lon="11.4837335"><ele>945.0</ele><time>2026-04-11T09:17:44.49Z</time></trkpt><trkpt lat="44.0368158" lon="11.4837533"><ele>945.0</ele><time>2026-04-11T09:17:45.489Z</time></trkpt><trkpt lat="44.0367308" lon="11.483765"><ele>945.0</ele><time>2026-04-11T09:17:46.49Z</time></trkpt><trkpt lat="44.0366448" lon="11.4837817"><ele>945.0</ele><time>2026-04-11T09:17:47.49Z</time></trkpt><trkpt lat="44.0365555" lon="11.4838035"><ele>945.0</ele><time>2026-04-11T09:17:48.489Z</time></trkpt><trkpt lat="44.0364783" lon="11.483818"><ele>945.0</ele><time>2026-04-11T09:17:49.489Z</time></trkpt><trkpt lat="44.0364102" lon="11.4838065"><ele>945.1666666666666</ele><time>2026-04-11T09:17:50.49Z</time></trkpt><trkpt lat="44.036346" lon="11.4837697"><ele>945.3333333333333</ele><time>2026-04-11T09:17:51.492Z</time></trkpt><trkpt lat="44.0362557" lon="11.4836958"><ele>945.5</ele><time>2026-04-11T09:17:53.491Z</time></trkpt><trkpt lat="44.0362015" lon="11.4836193"><ele>945.6666666666666</ele><time>2026-04-11T09:17:55.491Z</time></trkpt><trkpt lat="44.036149" lon="11.4835563"><ele>945.8333333333333</ele><time>2026-04-11T09:17:59.494Z</time></trkpt><trkpt lat="44.0360637" lon="11.4835758"><ele>946.0</ele><time>2026-04-11T09:18:06.491Z</time></trkpt><trkpt lat="44.0359873" lon="11.4835793"><ele>945.9999999999999</ele><time>2026-04-11T09:18:08.491Z</time></trkpt><trkpt lat="44.0359015" lon="11.4835987"><ele>946.0</ele><time>2026-04-11T09:18:10.492Z</time></trkpt><trkpt lat="44.0358037" lon="11.4836437"><ele>946.0</ele><time>2026-04-11T09:18:12.492Z</time></trkpt><trkpt lat="44.0357488" lon="11.4836907"><ele>946.0</ele><time>2026-04-11T09:18:13.491Z</time></trkpt><trkpt lat="44.0357018" lon="11.4837528"><ele>945.9999999999999</ele><time>2026-04-11T09:18:14.492Z</time></trkpt><trkpt lat="44.0356247" lon="11.483893"><ele>946.0</ele><time>2026-04-11T09:18:16.493Z</time></trkpt><trkpt lat="44.03559" lon="11.4839705"><ele>944.1666666666666</ele><time>2026-04-11T09:18:17.491Z</time></trkpt><trkpt lat="44.0355473" lon="11.4840367"><ele>942.3333333333333</ele><time>2026-04-11T09:18:18.493Z</time></trkpt><trkpt lat="44.0354918" lon="11.4840902"><ele>940.5</ele><time>2026-04-11T09:18:19.493Z</time></trkpt><trkpt lat="44.0354195" lon="11.4841305"><ele>938.6666666666667</ele><time>2026-04-11T09:18:20.493Z</time></trkpt><trkpt lat="44.0353302" lon="11.4841588"><ele>936.8333333333334</ele><time>2026-04-11T09:18:21.493Z</time></trkpt><trkpt lat="44.035241" lon="11.484178"><ele>935.0</ele><time>2026-04-11T09:18:22.491Z</time></trkpt><trkpt lat="44.0351575" lon="11.4842042"><ele>935.0000000000001</ele><time>2026-04-11T09:18:23.493Z</time></trkpt><trkpt lat="44.0350732" lon="11.4842388"><ele>935.0</ele><time>2026-04-11T09:18:24.493Z</time></trkpt><trkpt lat="44.0349923" lon="11.484266"><ele>935.0</ele><time>2026-04-11T09:18:25.492Z</time></trkpt><trkpt lat="44.0349188" lon="11.484282"><ele>935.0</ele><time>2026-04-11T09:18:26.491Z</time></trkpt><trkpt lat="44.0348472" lon="11.4842867"><ele>935.0000000000001</ele><time>2026-04-11T09:18:27.49Z</time></trkpt><trkpt lat="44.034779" lon="11.4842725"><ele>935.0</ele><time>2026-04-11T09:18:28.49Z</time></trkpt><trkpt lat="44.0347157" lon="11.4842398"><ele>935.8</ele><time>2026-04-11T09:18:29.492Z</time></trkpt><trkpt lat="44.0346572" lon="11.4841965"><ele>936.6</ele><time>2026-04-11T09:18:30.492Z</time></trkpt><trkpt lat="44.0345413" lon="11.4841785"><ele>937.4000000000001</ele><time>2026-04-11T09:18:32.492Z</time></trkpt><trkpt lat="44.0344443" lon="11.4842903"><ele>938.2</ele><time>2026-04-11T09:18:34.491Z</time></trkpt><trkpt lat="44.0343985" lon="11.48438"><ele>939.0</ele><time>2026-04-11T09:18:35.492Z</time></trkpt><trkpt lat="44.034362" lon="11.4844747"><ele>939.0</ele><time>2026-04-11T09:18:36.491Z</time></trkpt><trkpt lat="44.0343287" lon="11.4845837"><ele>939.0</ele><time>2026-04-11T09:18:37.491Z</time></trkpt><trkpt lat="44.0343075" lon="11.4846935"><ele>939.0</ele><time>2026-04-11T09:18:38.492Z</time></trkpt><trkpt lat="44.0342972" lon="11.4847972"><ele>939.0</ele><time>2026-04-11T09:18:39.491Z</time></trkpt><trkpt lat="44.0342853" lon="11.4849003"><ele>939.0</ele><time>2026-04-11T09:18:40.492Z</time></trkpt><trkpt lat="44.034273" lon="11.484994"><ele>939.0</ele><time>2026-04-11T09:18:41.492Z</time></trkpt><trkpt lat="44.0342533" lon="11.4850835"><ele>940.8000000000001</ele><time>2026-04-11T09:18:42.494Z</time></trkpt><trkpt lat="44.0341418" lon="11.4851725"><ele>942.6000000000001</ele><time>2026-04-11T09:18:44.492Z</time></trkpt><trkpt lat="44.0340682" lon="11.485211"><ele>944.4</ele><time>2026-04-11T09:18:45.492Z</time></trkpt><trkpt lat="44.034002" lon="11.48528"><ele>946.2</ele><time>2026-04-11T09:18:46.491Z</time></trkpt><trkpt lat="44.0339393" lon="11.4853732"><ele>948.0</ele><time>2026-04-11T09:18:47.492Z</time></trkpt><trkpt lat="44.0338853" lon="11.485476"><ele>943.5999999999999</ele><time>2026-04-11T09:18:48.49Z</time></trkpt><trkpt lat="44.0338328" lon="11.4855982"><ele>939.1999999999999</ele><time>2026-04-11T09:18:49.492Z</time></trkpt><trkpt lat="44.0337678" lon="11.4857337"><ele>934.8</ele><time>2026-04-11T09:18:50.492Z</time></trkpt><trkpt lat="44.0337033" lon="11.4858642"><ele>930.4</ele><time>2026-04-11T09:18:51.488Z</time></trkpt><trkpt lat="44.033654" lon="11.485999"><ele>926.0</ele><time>2026-04-11T09:18:52.488Z</time></trkpt><trkpt lat="44.0335983" lon="11.4861395"><ele>923.4</ele><time>2026-04-11T09:18:53.489Z</time></trkpt><trkpt lat="44.033545" lon="11.4863133"><ele>920.8</ele><time>2026-04-11T09:18:54.488Z</time></trkpt><trkpt lat="44.0335002" lon="11.4864617"><ele>918.1999999999999</ele><time>2026-04-11T09:18:55.49Z</time></trkpt><trkpt lat="44.0334698" lon="11.4866053"><ele>915.5999999999999</ele><time>2026-04-11T09:18:56.49Z</time></trkpt><trkpt lat="44.0334425" lon="11.4867127"><ele>913.0</ele><time>2026-04-11T09:18:57.49Z</time></trkpt><trkpt lat="44.0333662" lon="11.4868047"><ele>916.1666666666666</ele><time>2026-04-11T09:18:59.492Z</time></trkpt><trkpt lat="44.0333013" lon="11.4868055"><ele>919.3333333333333</ele><time>2026-04-11T09:19:00.491Z</time></trkpt><trkpt lat="44.0332285" lon="11.4868148"><ele>922.5</ele><time>2026-04-11T09:19:01.491Z</time></trkpt><trkpt lat="44.0331643" lon="11.4868488"><ele>925.6666666666667</ele><time>2026-04-11T09:19:02.491Z</time></trkpt><trkpt lat="44.0331117" lon="11.4870057"><ele>928.8333333333334</ele><time>2026-04-11T09:19:04.489Z</time></trkpt><trkpt lat="44.033105" lon="11.4871205"><ele>932.0</ele><time>2026-04-11T09:19:05.49Z</time></trkpt><trkpt lat="44.0330875" lon="11.4872358"><ele>932.0000000000001</ele><time>2026-04-11T09:19:06.49Z</time></trkpt><trkpt lat="44.0330867" lon="11.4873595"><ele>932.0</ele><time>2026-04-11T09:19:07.49Z</time></trkpt><trkpt lat="44.0330687" lon="11.4874733"><ele>932.0</ele><time>2026-04-11T09:19:08.491Z</time></trkpt><trkpt lat="44.0330355" lon="11.4875738"><ele>932.0</ele><time>2026-04-11T09:19:09.49Z</time></trkpt><trkpt lat="44.0329883" lon="11.4876697"><ele>932.0000000000001</ele><time>2026-04-11T09:19:10.49Z</time></trkpt><trkpt lat="44.0329297" lon="11.4877833"><ele>932.0</ele><time>2026-04-11T09:19:11.49Z</time></trkpt><trkpt lat="44.0328625" lon="11.4878857"><ele>928.2</ele><time>2026-04-11T09:19:12.489Z</time></trkpt><trkpt lat="44.0328092" lon="11.4879883"><ele>924.4000000000001</ele><time>2026-04-11T09:19:13.49Z</time></trkpt><trkpt lat="44.0327752" lon="11.488093"><ele>920.5999999999999</ele><time>2026-04-11T09:19:14.49Z</time></trkpt><trkpt lat="44.0327772" lon="11.4882207"><ele>916.8</ele><time>2026-04-11T09:19:15.488Z</time></trkpt><trkpt lat="44.0327698" lon="11.48836"><ele>913.0</ele><time>2026-04-11T09:19:16.487Z</time></trkpt><trkpt lat="44.0327497" lon="11.488502"><ele>913.0</ele><time>2026-04-11T09:19:17.488Z</time></trkpt><trkpt lat="44.0327233" lon="11.4886452"><ele>913.0</ele><time>2026-04-11T09:19:18.488Z</time></trkpt><trkpt lat="44.0326943" lon="11.4887747"><ele>913.0</ele><time>2026-04-11T09:19:19.489Z</time></trkpt><trkpt lat="44.0326495" lon="11.4888768"><ele>913.0</ele><time>2026-04-11T09:19:20.491Z</time></trkpt><trkpt lat="44.0325863" lon="11.4889617"><ele>913.0</ele><time>2026-04-11T09:19:21.491Z</time></trkpt><trkpt lat="44.0325102" lon="11.4890432"><ele>915.8</ele><time>2026-04-11T09:19:22.49Z</time></trkpt><trkpt lat="44.0324545" lon="11.489118"><ele>918.5999999999999</ele><time>2026-04-11T09:19:23.491Z</time></trkpt><trkpt lat="44.0324168" lon="11.4892298"><ele>921.4000000000001</ele><time>2026-04-11T09:19:24.491Z</time></trkpt><trkpt lat="44.03238" lon="11.4893845"><ele>924.2</ele><time>2026-04-11T09:19:25.489Z</time></trkpt><trkpt lat="44.0323423" lon="11.4895547"><ele>927.0</ele><time>2026-04-11T09:19:26.491Z</time></trkpt><trkpt lat="44.0322963" lon="11.4897357"><ele>927.0</ele><time>2026-04-11T09:19:27.491Z</time></trkpt><trkpt lat="44.0322483" lon="11.4899007"><ele>927.0</ele><time>2026-04-11T09:19:28.489Z</time></trkpt><trkpt lat="44.0321908" lon="11.4900625"><ele>927.0</ele><time>2026-04-11T09:19:29.491Z</time></trkpt><trkpt lat="44.0321342" lon="11.4902172"><ele>927.0</ele><time>2026-04-11T09:19:30.491Z</time></trkpt><trkpt lat="44.0320715" lon="11.4903672"><ele>925.6</ele><time>2026-04-11T09:19:31.491Z</time></trkpt><trkpt lat="44.0320157" lon="11.4905205"><ele>924.2</ele><time>2026-04-11T09:19:32.49Z</time></trkpt><trkpt lat="44.0319758" lon="11.4906565"><ele>922.8</ele><time>2026-04-11T09:19:33.491Z</time></trkpt><trkpt lat="44.0319525" lon="11.490776"><ele>921.4</ele><time>2026-04-11T09:19:34.49Z</time></trkpt><trkpt lat="44.0319433" lon="11.4909115"><ele>920.0</ele><time>2026-04-11T09:19:35.49Z</time></trkpt><trkpt lat="44.031935" lon="11.4910393"><ele>920.0000000000001</ele><time>2026-04-11T09:19:36.49Z</time></trkpt><trkpt lat="44.031919" lon="11.4911528"><ele>920.0</ele><time>2026-04-11T09:19:37.492Z</time></trkpt><trkpt lat="44.0319082" lon="11.4912395"><ele>920.0</ele><time>2026-04-11T09:19:38.491Z</time></trkpt><trkpt lat="44.0318997" lon="11.4913757"><ele>920.0</ele><time>2026-04-11T09:19:40.487Z</time></trkpt><trkpt lat="44.0319182" lon="11.4914637"><ele>920.0000000000001</ele><time>2026-04-11T09:19:41.487Z</time></trkpt><trkpt lat="44.0319658" lon="11.491629"><ele>920.0</ele><time>2026-04-11T09:19:43.488Z</time></trkpt><trkpt lat="44.0319917" lon="11.4917105"><ele>919.1666666666667</ele><time>2026-04-11T09:19:44.492Z</time></trkpt><trkpt lat="44.0320345" lon="11.4918122"><ele>918.3333333333334</ele><time>2026-04-11T09:19:46.49Z</time></trkpt><trkpt lat="44.0320387" lon="11.4919037"><ele>917.5</ele><time>2026-04-11T09:19:50.494Z</time></trkpt><trkpt lat="44.0320492" lon="11.4920167"><ele>916.6666666666667</ele><time>2026-04-11T09:19:54.489Z</time></trkpt><trkpt lat="44.0320607" lon="11.4921217"><ele>915.8333333333334</ele><time>2026-04-11T09:19:56.489Z</time></trkpt><trkpt lat="44.0320858" lon="11.4922225"><ele>915.0</ele><time>2026-04-11T09:19:58.491Z</time></trkpt><trkpt lat="44.0320915" lon="11.4923562"><ele>914.6</ele><time>2026-04-11T09:20:00.489Z</time></trkpt><trkpt lat="44.0320428" lon="11.492518"><ele>914.2</ele><time>2026-04-11T09:20:02.491Z</time></trkpt><trkpt lat="44.031994" lon="11.492601"><ele>913.8</ele><time>2026-04-11T09:20:03.49Z</time></trkpt><trkpt lat="44.0319288" lon="11.4926745"><ele>913.4</ele><time>2026-04-11T09:20:04.489Z</time></trkpt><trkpt lat="44.0318468" lon="11.4927405"><ele>913.0</ele><time>2026-04-11T09:20:05.489Z</time></trkpt><trkpt lat="44.0317668" lon="11.492819"><ele>912.9999999999999</ele><time>2026-04-11T09:20:06.488Z</time></trkpt><trkpt lat="44.0317048" lon="11.4929133"><ele>913.0</ele><time>2026-04-11T09:20:07.489Z</time></trkpt><trkpt lat="44.0316578" lon="11.492993"><ele>913.0</ele><time>2026-04-11T09:20:08.49Z</time></trkpt><trkpt lat="44.0316083" lon="11.4930765"><ele>913.0</ele><time>2026-04-11T09:20:10.489Z</time></trkpt><trkpt lat="44.0315077" lon="11.4931607"><ele>912.9999999999999</ele><time>2026-04-11T09:20:13.49Z</time></trkpt><trkpt lat="44.0314538" lon="11.4932193"><ele>913.0</ele><time>2026-04-11T09:20:14.491Z</time></trkpt><trkpt lat="44.0313908" lon="11.4932588"><ele>909.8</ele><time>2026-04-11T09:20:15.49Z</time></trkpt><trkpt lat="44.0313275" lon="11.4932913"><ele>906.5999999999999</ele><time>2026-04-11T09:20:16.49Z</time></trkpt><trkpt lat="44.0312223" lon="11.4933713"><ele>903.4000000000001</ele><time>2026-04-11T09:20:18.49Z</time></trkpt><trkpt lat="44.0311663" lon="11.4935008"><ele>900.2</ele><time>2026-04-11T09:20:20.491Z</time></trkpt><trkpt lat="44.0310915" lon="11.493639"><ele>897.0</ele><time>2026-04-11T09:20:22.489Z</time></trkpt><trkpt lat="44.0310387" lon="11.4937107"><ele>897.3333333333334</ele><time>2026-04-11T09:20:23.491Z</time></trkpt><trkpt lat="44.030988" lon="11.4937822"><ele>897.6666666666667</ele><time>2026-04-11T09:20:24.492Z</time></trkpt><trkpt lat="44.0309352" lon="11.4938622"><ele>898.0</ele><time>2026-04-11T09:20:25.49Z</time></trkpt><trkpt lat="44.0308825" lon="11.4939317"><ele>898.3333333333334</ele><time>2026-04-11T09:20:26.49Z</time></trkpt><trkpt lat="44.0308315" lon="11.494005"><ele>898.6666666666667</ele><time>2026-04-11T09:20:27.491Z</time></trkpt><trkpt lat="44.0307652" lon="11.4940833"><ele>899.0</ele><time>2026-04-11T09:20:28.49Z</time></trkpt><trkpt lat="44.030679" lon="11.4941798"><ele>897.25</ele><time>2026-04-11T09:20:29.488Z</time></trkpt><trkpt lat="44.0305823" lon="11.4942992"><ele>895.5</ele><time>2026-04-11T09:20:30.487Z</time></trkpt><trkpt lat="44.0304912" lon="11.4944333"><ele>893.75</ele><time>2026-04-11T09:20:31.488Z</time></trkpt><trkpt lat="44.0304118" lon="11.4945552"><ele>892.0</ele><time>2026-04-11T09:20:32.487Z</time></trkpt><trkpt lat="44.0303257" lon="11.494658"><ele>892.0</ele><time>2026-04-11T09:20:33.49Z</time></trkpt><trkpt lat="44.0302478" lon="11.4947667"><ele>892.0</ele><time>2026-04-11T09:20:34.489Z</time></trkpt><trkpt lat="44.0301668" lon="11.4948845"><ele>892.0</ele><time>2026-04-11T09:20:35.491Z</time></trkpt><trkpt lat="44.030097" lon="11.495003"><ele>892.0</ele><time>2026-04-11T09:20:36.49Z</time></trkpt><trkpt lat="44.0300343" lon="11.4951115"><ele>892.0</ele><time>2026-04-11T09:20:37.489Z</time></trkpt><trkpt lat="44.0299702" lon="11.4952112"><ele>888.2</ele><time>2026-04-11T09:20:38.49Z</time></trkpt><trkpt lat="44.0299158" lon="11.4953105"><ele>884.4000000000001</ele><time>2026-04-11T09:20:39.49Z</time></trkpt><trkpt lat="44.0298713" lon="11.4954292"><ele>880.5999999999999</ele><time>2026-04-11T09:20:40.49Z</time></trkpt><trkpt lat="44.0298312" lon="11.4955485"><ele>876.8</ele><time>2026-04-11T09:20:41.491Z</time></trkpt><trkpt lat="44.0297927" lon="11.4956648"><ele>873.0</ele><time>2026-04-11T09:20:42.491Z</time></trkpt><trkpt lat="44.0297685" lon="11.4957708"><ele>873.0</ele><time>2026-04-11T09:20:43.49Z</time></trkpt><trkpt lat="44.029763" lon="11.4958843"><ele>873.0</ele><time>2026-04-11T09:20:44.491Z</time></trkpt><trkpt lat="44.029779" lon="11.4960208"><ele>873.0</ele><time>2026-04-11T09:20:45.492Z</time></trkpt><trkpt lat="44.0297993" lon="11.4961733"><ele>873.0</ele><time>2026-04-11T09:20:46.491Z</time></trkpt><trkpt lat="44.0298203" lon="11.4963352"><ele>873.0</ele><time>2026-04-11T09:20:47.493Z</time></trkpt><trkpt lat="44.0298255" lon="11.4964843"><ele>875.8</ele><time>2026-04-11T09:20:48.492Z</time></trkpt><trkpt lat="44.0298135" lon="11.4966168"><ele>878.5999999999999</ele><time>2026-04-11T09:20:49.492Z</time></trkpt><trkpt lat="44.0297895" lon="11.4967387"><ele>881.4000000000001</ele><time>2026-04-11T09:20:50.493Z</time></trkpt><trkpt lat="44.029748" lon="11.4968723"><ele>884.2</ele><time>2026-04-11T09:20:51.493Z</time></trkpt><trkpt lat="44.029688" lon="11.4970042"><ele>887.0</ele><time>2026-04-11T09:20:52.495Z</time></trkpt><trkpt lat="44.0296088" lon="11.4971213"><ele>889.2</ele><time>2026-04-11T09:20:53.492Z</time></trkpt><trkpt lat="44.029526" lon="11.4972028"><ele>891.4000000000001</ele><time>2026-04-11T09:20:54.492Z</time></trkpt><trkpt lat="44.029441" lon="11.4972567"><ele>893.5999999999999</ele><time>2026-04-11T09:20:55.49Z</time></trkpt><trkpt lat="44.0293722" lon="11.4972822"><ele>895.8</ele><time>2026-04-11T09:20:56.49Z</time></trkpt><trkpt lat="44.0292718" lon="11.4973242"><ele>898.0</ele><time>2026-04-11T09:20:58.491Z</time></trkpt><trkpt lat="44.0291755" lon="11.4973788"><ele>900.1666666666666</ele><time>2026-04-11T09:21:00.491Z</time></trkpt><trkpt lat="44.0291245" lon="11.4974333"><ele>902.3333333333333</ele><time>2026-04-11T09:21:01.497Z</time></trkpt><trkpt lat="44.0290758" lon="11.497491"><ele>904.5</ele><time>2026-04-11T09:21:02.491Z</time></trkpt><trkpt lat="44.029018" lon="11.4976418"><ele>906.6666666666667</ele><time>2026-04-11T09:21:04.494Z</time></trkpt><trkpt lat="44.0289948" lon="11.497732"><ele>908.8333333333334</ele><time>2026-04-11T09:21:05.492Z</time></trkpt><trkpt lat="44.0289685" lon="11.4978208"><ele>911.0</ele><time>2026-04-11T09:21:06.491Z</time></trkpt><trkpt lat="44.0289315" lon="11.4979023"><ele>914.1666666666667</ele><time>2026-04-11T09:21:07.493Z</time></trkpt><trkpt lat="44.0288793" lon="11.4979768"><ele>917.3333333333334</ele><time>2026-04-11T09:21:08.492Z</time></trkpt><trkpt lat="44.028814" lon="11.4980508"><ele>920.5</ele><time>2026-04-11T09:21:09.49Z</time></trkpt><trkpt lat="44.0287435" lon="11.4981198"><ele>923.6666666666667</ele><time>2026-04-11T09:21:10.49Z</time></trkpt><trkpt lat="44.0286657" lon="11.4981758"><ele>926.8333333333334</ele><time>2026-04-11T09:21:11.491Z</time></trkpt><trkpt lat="44.0286017" lon="11.4982233"><ele>930.0</ele><time>2026-04-11T09:21:12.489Z</time></trkpt><trkpt lat="44.0284997" lon="11.4982873"><ele>930.0</ele><time>2026-04-11T09:21:14.49Z</time></trkpt><trkpt lat="44.0284225" lon="11.4982805"><ele>930.0</ele><time>2026-04-11T09:21:16.491Z</time></trkpt><trkpt lat="44.0283473" lon="11.4982857"><ele>930.0</ele><time>2026-04-11T09:21:18.491Z</time></trkpt><trkpt lat="44.0282273" lon="11.4982588"><ele>930.0</ele><time>2026-04-11T09:21:20.489Z</time></trkpt><trkpt lat="44.028151" lon="11.4981858"><ele>930.0</ele><time>2026-04-11T09:21:22.491Z</time></trkpt><trkpt lat="44.0280888" lon="11.4981337"><ele>930.0</ele><time>2026-04-11T09:21:24.492Z</time></trkpt><trkpt lat="44.0279812" lon="11.498127"><ele>932.2</ele><time>2026-04-11T09:21:26.49Z</time></trkpt><trkpt lat="44.027887" lon="11.4981473"><ele>934.4</ele><time>2026-04-11T09:21:28.491Z</time></trkpt><trkpt lat="44.0277947" lon="11.498233"><ele>936.5999999999999</ele><time>2026-04-11T09:21:30.489Z</time></trkpt><trkpt lat="44.0276908" lon="11.4983243"><ele>938.8</ele><time>2026-04-11T09:21:32.491Z</time></trkpt><trkpt lat="44.027578" lon="11.4983638"><ele>941.0</ele><time>2026-04-11T09:21:34.49Z</time></trkpt><trkpt lat="44.0275133" lon="11.4983648"><ele>937.8</ele><time>2026-04-11T09:21:35.492Z</time></trkpt><trkpt lat="44.027404" lon="11.4983753"><ele>934.5999999999999</ele><time>2026-04-11T09:21:37.491Z</time></trkpt><trkpt lat="44.0273178" lon="11.4984597"><ele>931.4</ele><time>2026-04-11T09:21:39.492Z</time></trkpt><trkpt lat="44.0272047" lon="11.4985097"><ele>928.2</ele><time>2026-04-11T09:21:41.491Z</time></trkpt><trkpt lat="44.0271285" lon="11.4985758"><ele>925.0</ele><time>2026-04-11T09:21:43.488Z</time></trkpt><trkpt lat="44.0271093" lon="11.498705"><ele>925.0</ele><time>2026-04-11T09:21:45.487Z</time></trkpt><trkpt lat="44.0271183" lon="11.4988655"><ele>925.0</ele><time>2026-04-11T09:21:47.49Z</time></trkpt><trkpt lat="44.02714" lon="11.499001"><ele>925.0</ele><time>2026-04-11T09:21:49.49Z</time></trkpt><trkpt lat="44.0271652" lon="11.4991187"><ele>925.0</ele><time>2026-04-11T09:21:51.49Z</time></trkpt><trkpt lat="44.0271682" lon="11.4992548"><ele>925.0</ele><time>2026-04-11T09:21:53.491Z</time></trkpt><trkpt lat="44.0271648" lon="11.4993615"><ele>924.9999999999999</ele><time>2026-04-11T09:21:55.489Z</time></trkpt><trkpt lat="44.0271418" lon="11.4994588"><ele>925.0</ele><time>2026-04-11T09:21:58.489Z</time></trkpt><trkpt lat="44.0271193" lon="11.4995507"><ele>925.0</ele><time>2026-04-11T09:22:00.488Z</time></trkpt><trkpt lat="44.0271022" lon="11.499662"><ele>925.0</ele><time>2026-04-11T09:22:02.491Z</time></trkpt><trkpt lat="44.0270698" lon="11.499812"><ele>924.9999999999999</ele><time>2026-04-11T09:22:04.488Z</time></trkpt><trkpt lat="44.0270347" lon="11.4999577"><ele>925.0</ele><time>2026-04-11T09:22:06.489Z</time></trkpt><trkpt lat="44.0269783" lon="11.5000902"><ele>925.4999999999999</ele><time>2026-04-11T09:22:08.487Z</time></trkpt><trkpt lat="44.0269452" lon="11.5002523"><ele>926.0</ele><time>2026-04-11T09:22:10.487Z</time></trkpt><trkpt lat="44.0269382" lon="11.5003423"><ele>926.5</ele><time>2026-04-11T09:22:11.489Z</time></trkpt><trkpt lat="44.0269155" lon="11.5004355"><ele>927.0</ele><time>2026-04-11T09:22:12.489Z</time></trkpt><trkpt lat="44.0268823" lon="11.5005478"><ele>927.4999999999999</ele><time>2026-04-11T09:22:13.491Z</time></trkpt><trkpt lat="44.0268367" lon="11.500655"><ele>928.0</ele><time>2026-04-11T09:22:14.492Z</time></trkpt><trkpt lat="44.0267752" lon="11.500744"><ele>927.8333333333333</ele><time>2026-04-11T09:22:15.491Z</time></trkpt><trkpt lat="44.0266932" lon="11.5008343"><ele>927.6666666666666</ele><time>2026-04-11T09:22:16.491Z</time></trkpt><trkpt lat="44.0266232" lon="11.5009215"><ele>927.5</ele><time>2026-04-11T09:22:17.493Z</time></trkpt><trkpt lat="44.026569" lon="11.5009815"><ele>927.3333333333333</ele><time>2026-04-11T09:22:18.49Z</time></trkpt><trkpt lat="44.0265033" lon="11.5010102"><ele>927.1666666666666</ele><time>2026-04-11T09:22:19.49Z</time></trkpt><trkpt lat="44.0264127" lon="11.5010338"><ele>927.0</ele><time>2026-04-11T09:22:20.889Z</time></trkpt><trkpt lat="44.0263505" lon="11.501098"><ele>927.0</ele><time>2026-04-11T09:22:22.491Z</time></trkpt><trkpt lat="44.0262972" lon="11.5011682"><ele>927.0</ele><time>2026-04-11T09:22:24.49Z</time></trkpt><trkpt lat="44.0262498" lon="11.5012785"><ele>927.0</ele><time>2026-04-11T09:22:26.49Z</time></trkpt><trkpt lat="44.0261922" lon="11.5013578"><ele>927.0</ele><time>2026-04-11T09:22:28.489Z</time></trkpt><trkpt lat="44.0261215" lon="11.5013877"><ele>927.0</ele><time>2026-04-11T09:22:30.49Z</time></trkpt><trkpt lat="44.0260605" lon="11.5014798"><ele>927.0</ele><time>2026-04-11T09:22:32.489Z</time></trkpt><trkpt lat="44.0260343" lon="11.5015663"><ele>931.4000000000001</ele><time>2026-04-11T09:22:34.489Z</time></trkpt><trkpt lat="44.0259895" lon="11.5016503"><ele>935.8000000000001</ele><time>2026-04-11T09:22:36.49Z</time></trkpt><trkpt lat="44.025923" lon="11.5017383"><ele>940.2</ele><time>2026-04-11T09:22:38.491Z</time></trkpt><trkpt lat="44.0258695" lon="11.5018733"><ele>944.6</ele><time>2026-04-11T09:22:40.49Z</time></trkpt><trkpt lat="44.0258462" lon="11.5020025"><ele>949.0</ele><time>2026-04-11T09:22:42.489Z</time></trkpt><trkpt lat="44.0257593" lon="11.5021157"><ele>950.6666666666666</ele><time>2026-04-11T09:22:44.49Z</time></trkpt><trkpt lat="44.025711" lon="11.5021782"><ele>952.3333333333333</ele><time>2026-04-11T09:22:45.489Z</time></trkpt><trkpt lat="44.0256525" lon="11.5022362"><ele>954.0</ele><time>2026-04-11T09:22:46.49Z</time></trkpt><trkpt lat="44.0255363" lon="11.5022487"><ele>955.6666666666667</ele><time>2026-04-11T09:22:48.49Z</time></trkpt><trkpt lat="44.0254735" lon="11.5022382"><ele>957.3333333333334</ele><time>2026-04-11T09:22:49.489Z</time></trkpt><trkpt lat="44.0253797" lon="11.5022658"><ele>959.0</ele><time>2026-04-11T09:22:51.49Z</time></trkpt><trkpt lat="44.0253058" lon="11.5023147"><ele>959.0000000000001</ele><time>2026-04-11T09:22:53.49Z</time></trkpt><trkpt lat="44.025214" lon="11.5023972"><ele>959.0</ele><time>2026-04-11T09:22:55.489Z</time></trkpt><trkpt lat="44.0251652" lon="11.5024625"><ele>959.0</ele><time>2026-04-11T09:22:56.488Z</time></trkpt><trkpt lat="44.025123" lon="11.502531"><ele>959.0</ele><time>2026-04-11T09:22:57.487Z</time></trkpt><trkpt lat="44.0250948" lon="11.5026265"><ele>959.0000000000001</ele><time>2026-04-11T09:22:58.488Z</time></trkpt><trkpt lat="44.0250582" lon="11.5027748"><ele>959.0</ele><time>2026-04-11T09:22:59.49Z</time></trkpt><trkpt lat="44.0250135" lon="11.5029328"><ele>958.25</ele><time>2026-04-11T09:23:00.491Z</time></trkpt><trkpt lat="44.0249773" lon="11.5030802"><ele>957.5</ele><time>2026-04-11T09:23:01.492Z</time></trkpt><trkpt lat="44.024936" lon="11.5032122"><ele>956.75</ele><time>2026-04-11T09:23:02.493Z</time></trkpt><trkpt lat="44.02488" lon="11.5033578"><ele>956.0</ele><time>2026-04-11T09:23:03.492Z</time></trkpt><trkpt lat="44.0248228" lon="11.5035167"><ele>956.0</ele><time>2026-04-11T09:23:04.493Z</time></trkpt><trkpt lat="44.0247837" lon="11.5036683"><ele>955.9999999999999</ele><time>2026-04-11T09:23:05.496Z</time></trkpt><trkpt lat="44.024752" lon="11.5038088"><ele>955.9999999999999</ele><time>2026-04-11T09:23:06.493Z</time></trkpt><trkpt lat="44.0247157" lon="11.5039313"><ele>956.0</ele><time>2026-04-11T09:23:07.493Z</time></trkpt><trkpt lat="44.0246855" lon="11.5040385"><ele>956.0</ele><time>2026-04-11T09:23:08.491Z</time></trkpt><trkpt lat="44.0246668" lon="11.5041318"><ele>956.8</ele><time>2026-04-11T09:23:09.491Z</time></trkpt><trkpt lat="44.0246295" lon="11.504276"><ele>957.5999999999999</ele><time>2026-04-11T09:23:11.491Z</time></trkpt><trkpt lat="44.0245855" lon="11.5044228"><ele>958.4</ele><time>2026-04-11T09:23:13.491Z</time></trkpt><trkpt lat="44.0245457" lon="11.5045433"><ele>959.2</ele><time>2026-04-11T09:23:15.491Z</time></trkpt><trkpt lat="44.0244953" lon="11.5046627"><ele>960.0</ele><time>2026-04-11T09:23:17.492Z</time></trkpt><trkpt lat="44.0244512" lon="11.5047633"><ele>962.5</ele><time>2026-04-11T09:23:19.49Z</time></trkpt><trkpt lat="44.024409" lon="11.504888"><ele>965.0</ele><time>2026-04-11T09:23:21.49Z</time></trkpt><trkpt lat="44.0243687" lon="11.5049835"><ele>967.5</ele><time>2026-04-11T09:23:23.49Z</time></trkpt><trkpt lat="44.0243317" lon="11.5050858"><ele>970.0</ele><time>2026-04-11T09:23:26.491Z</time></trkpt><trkpt lat="44.0243002" lon="11.505176"><ele>972.5</ele><time>2026-04-11T09:23:29.491Z</time></trkpt><trkpt lat="44.0242538" lon="11.5052782"><ele>975.0</ele><time>2026-04-11T09:23:31.492Z</time></trkpt><trkpt lat="44.0241925" lon="11.5053552"><ele>974.8</ele><time>2026-04-11T09:23:33.491Z</time></trkpt><trkpt lat="44.024128" lon="11.5054255"><ele>974.6</ele><time>2026-04-11T09:23:35.491Z</time></trkpt><trkpt lat="44.0240972" lon="11.5055045"><ele>974.4000000000001</ele><time>2026-04-11T09:23:37.49Z</time></trkpt><trkpt lat="44.0240242" lon="11.5055672"><ele>974.2</ele><time>2026-04-11T09:23:40.49Z</time></trkpt><trkpt lat="44.0239595" lon="11.505678"><ele>974.0</ele><time>2026-04-11T09:23:42.49Z</time></trkpt><trkpt lat="44.023901" lon="11.5058333"><ele>974.0</ele><time>2026-04-11T09:23:44.49Z</time></trkpt><trkpt lat="44.0238518" lon="11.5059758"><ele>974.0000000000001</ele><time>2026-04-11T09:23:46.487Z</time></trkpt><trkpt lat="44.023774" lon="11.5061018"><ele>974.0000000000001</ele><time>2026-04-11T09:23:48.488Z</time></trkpt><trkpt lat="44.0237327" lon="11.5061708"><ele>974.0</ele><time>2026-04-11T09:23:49.493Z</time></trkpt><trkpt lat="44.0236687" lon="11.506294"><ele>974.0</ele><time>2026-04-11T09:23:51.491Z</time></trkpt><trkpt lat="44.023594" lon="11.5064377"><ele>973.8333333333334</ele><time>2026-04-11T09:23:53.491Z</time></trkpt><trkpt lat="44.0235472" lon="11.506521"><ele>973.6666666666667</ele><time>2026-04-11T09:23:54.49Z</time></trkpt><trkpt lat="44.0235033" lon="11.506594"><ele>973.5</ele><time>2026-04-11T09:23:55.49Z</time></trkpt><trkpt lat="44.0234355" lon="11.5067207"><ele>973.3333333333333</ele><time>2026-04-11T09:23:57.489Z</time></trkpt><trkpt lat="44.0234008" lon="11.5068258"><ele>973.1666666666666</ele><time>2026-04-11T09:23:59.492Z</time></trkpt><trkpt lat="44.0233392" lon="11.5069472"><ele>973.0</ele><time>2026-04-11T09:24:01.491Z</time></trkpt><trkpt lat="44.023295" lon="11.5070297"><ele>975.3333333333333</ele><time>2026-04-11T09:24:02.491Z</time></trkpt><trkpt lat="44.0232455" lon="11.5071182"><ele>977.6666666666666</ele><time>2026-04-11T09:24:03.491Z</time></trkpt><trkpt lat="44.0232017" lon="11.5072067"><ele>980.0</ele><time>2026-04-11T09:24:04.49Z</time></trkpt><trkpt lat="44.0231588" lon="11.5073187"><ele>982.3333333333333</ele><time>2026-04-11T09:24:05.493Z</time></trkpt><trkpt lat="44.0231175" lon="11.5074252"><ele>984.6666666666666</ele><time>2026-04-11T09:24:06.491Z</time></trkpt><trkpt lat="44.0230633" lon="11.5075237"><ele>987.0</ele><time>2026-04-11T09:24:07.49Z</time></trkpt><trkpt lat="44.0230108" lon="11.507592"><ele>987.0</ele><time>2026-04-11T09:24:08.491Z</time></trkpt><trkpt lat="44.0229448" lon="11.5077178"><ele>987.0</ele><time>2026-04-11T09:24:10.488Z</time></trkpt><trkpt lat="44.0229187" lon="11.5078347"><ele>987.0</ele><time>2026-04-11T09:24:12.489Z</time></trkpt><trkpt lat="44.0229045" lon="11.5079365"><ele>987.0</ele><time>2026-04-11T09:24:14.492Z</time></trkpt><trkpt lat="44.0229038" lon="11.5080582"><ele>987.0</ele><time>2026-04-11T09:24:16.492Z</time></trkpt><trkpt lat="44.0229042" lon="11.5081705"><ele>987.0</ele><time>2026-04-11T09:24:18.492Z</time></trkpt><trkpt lat="44.0228833" lon="11.5082673"><ele>987.0</ele><time>2026-04-11T09:24:20.491Z</time></trkpt><trkpt lat="44.0228545" lon="11.5083785"><ele>987.0</ele><time>2026-04-11T09:24:22.491Z</time></trkpt><trkpt lat="44.0228508" lon="11.508483"><ele>987.0</ele><time>2026-04-11T09:24:25.491Z</time></trkpt><trkpt lat="44.0228308" lon="11.5085683"><ele>987.0</ele><time>2026-04-11T09:24:27.491Z</time></trkpt><trkpt lat="44.0227872" lon="11.5086917"><ele>987.0</ele><time>2026-04-11T09:24:29.492Z</time></trkpt><trkpt lat="44.0227658" lon="11.508787"><ele>987.0</ele><time>2026-04-11T09:24:31.491Z</time></trkpt><trkpt lat="44.0227753" lon="11.5088797"><ele>987.0</ele><time>2026-04-11T09:24:34.49Z</time></trkpt><trkpt lat="44.0227548" lon="11.5090065"><ele>987.0</ele><time>2026-04-11T09:24:36.488Z</time></trkpt><trkpt lat="44.0227517" lon="11.5091498"><ele>987.0</ele><time>2026-04-11T09:24:38.491Z</time></trkpt><trkpt lat="44.0227668" lon="11.5092572"><ele>987.0</ele><time>2026-04-11T09:24:40.491Z</time></trkpt><trkpt lat="44.0227487" lon="11.5093755"><ele>987.0</ele><time>2026-04-11T09:24:42.49Z</time></trkpt><trkpt lat="44.0227418" lon="11.5094675"><ele>987.0</ele><time>2026-04-11T09:24:44.49Z</time></trkpt><trkpt lat="44.0227345" lon="11.5095762"><ele>986.5</ele><time>2026-04-11T09:24:46.49Z</time></trkpt><trkpt lat="44.0227267" lon="11.5097217"><ele>986.0</ele><time>2026-04-11T09:24:48.49Z</time></trkpt><trkpt lat="44.0227105" lon="11.5098175"><ele>985.5</ele><time>2026-04-11T09:24:49.492Z</time></trkpt><trkpt lat="44.022701" lon="11.5099127"><ele>985.0</ele><time>2026-04-11T09:24:50.491Z</time></trkpt><trkpt lat="44.0227173" lon="11.5100635"><ele>984.5</ele><time>2026-04-11T09:24:52.491Z</time></trkpt><trkpt lat="44.0227085" lon="11.5101635"><ele>984.0</ele><time>2026-04-11T09:24:53.492Z</time></trkpt><trkpt lat="44.022694" lon="11.5102582"><ele>983.0</ele><time>2026-04-11T09:24:54.49Z</time></trkpt><trkpt lat="44.0227028" lon="11.510415"><ele>982.0000000000001</ele><time>2026-04-11T09:24:56.49Z</time></trkpt><trkpt lat="44.0227068" lon="11.5105665"><ele>981.0000000000001</ele><time>2026-04-11T09:24:58.487Z</time></trkpt><trkpt lat="44.022716" lon="11.5107282"><ele>980.0</ele><time>2026-04-11T09:25:00.488Z</time></trkpt><trkpt lat="44.0227247" lon="11.5108663"><ele>979.0</ele><time>2026-04-11T09:25:02.489Z</time></trkpt><trkpt lat="44.0227175" lon="11.5109723"><ele>978.9999999999999</ele><time>2026-04-11T09:25:04.489Z</time></trkpt><trkpt lat="44.0226887" lon="11.5110602"><ele>979.0</ele><time>2026-04-11T09:25:06.49Z</time></trkpt><trkpt lat="44.0226778" lon="11.511213"><ele>979.0</ele><time>2026-04-11T09:25:08.489Z</time></trkpt><trkpt lat="44.0226725" lon="11.5113032"><ele>979.0</ele><time>2026-04-11T09:25:09.489Z</time></trkpt><trkpt lat="44.0226473" lon="11.5114773"><ele>978.9999999999999</ele><time>2026-04-11T09:25:11.49Z</time></trkpt><trkpt lat="44.0226163" lon="11.5115602"><ele>979.0</ele><time>2026-04-11T09:25:12.491Z</time></trkpt><trkpt lat="44.02259" lon="11.5116853"><ele>978.8000000000001</ele><time>2026-04-11T09:25:14.49Z</time></trkpt><trkpt lat="44.022568" lon="11.511818"><ele>978.6000000000001</ele><time>2026-04-11T09:25:16.491Z</time></trkpt><trkpt lat="44.0225318" lon="11.5119717"><ele>978.4</ele><time>2026-04-11T09:25:18.49Z</time></trkpt><trkpt lat="44.02248" lon="11.5120547"><ele>978.2</ele><time>2026-04-11T09:25:20.49Z</time></trkpt><trkpt lat="44.0224073" lon="11.5121238"><ele>978.0</ele><time>2026-04-11T09:25:22.488Z</time></trkpt><trkpt lat="44.0223122" lon="11.5121937"><ele>977.25</ele><time>2026-04-11T09:25:24.488Z</time></trkpt><trkpt lat="44.022215" lon="11.5122608"><ele>976.5</ele><time>2026-04-11T09:25:26.488Z</time></trkpt><trkpt lat="44.022147" lon="11.5123778"><ele>975.75</ele><time>2026-04-11T09:25:28.49Z</time></trkpt><trkpt lat="44.0220978" lon="11.5125007"><ele>975.0</ele><time>2026-04-11T09:25:30.489Z</time></trkpt><trkpt lat="44.0220247" lon="11.5126608"><ele>975.0</ele><time>2026-04-11T09:25:32.49Z</time></trkpt><trkpt lat="44.0219535" lon="11.5127828"><ele>975.0</ele><time>2026-04-11T09:25:34.489Z</time></trkpt><trkpt lat="44.0218807" lon="11.5128905"><ele>975.0</ele><time>2026-04-11T09:25:36.491Z</time></trkpt><trkpt lat="44.0218333" lon="11.5129808"><ele>975.0</ele><time>2026-04-11T09:25:38.49Z</time></trkpt><trkpt lat="44.0218003" lon="11.5130617"><ele>975.0</ele><time>2026-04-11T09:25:43.491Z</time></trkpt><trkpt lat="44.0217503" lon="11.5131178"><ele>975.0</ele><time>2026-04-11T09:25:49.489Z</time></trkpt><trkpt lat="44.0217108" lon="11.5132148"><ele>975.8</ele><time>2026-04-11T09:25:53.492Z</time></trkpt><trkpt lat="44.0216757" lon="11.5133423"><ele>976.6</ele><time>2026-04-11T09:25:57.49Z</time></trkpt><trkpt lat="44.0216415" lon="11.5134787"><ele>977.4000000000001</ele><time>2026-04-11T09:25:59.489Z</time></trkpt><trkpt lat="44.0216188" lon="11.5136263"><ele>978.2</ele><time>2026-04-11T09:26:01.491Z</time></trkpt><trkpt lat="44.021609" lon="11.5137575"><ele>979.0</ele><time>2026-04-11T09:26:03.488Z</time></trkpt><trkpt lat="44.0215578" lon="11.5138675"><ele>981.4999999999999</ele><time>2026-04-11T09:26:05.492Z</time></trkpt><trkpt lat="44.0214788" lon="11.5139263"><ele>984.0</ele><time>2026-04-11T09:26:07.491Z</time></trkpt><trkpt lat="44.0213918" lon="11.5139102"><ele>986.5</ele><time>2026-04-11T09:26:09.49Z</time></trkpt><trkpt lat="44.0213172" lon="11.5138398"><ele>989.0</ele><time>2026-04-11T09:26:11.49Z</time></trkpt><trkpt lat="44.021255" lon="11.51386"><ele>991.4999999999999</ele><time>2026-04-11T09:26:13.488Z</time></trkpt><trkpt lat="44.0212025" lon="11.5139193"><ele>994.0</ele><time>2026-04-11T09:26:16.491Z</time></trkpt><trkpt lat="44.021161" lon="11.5139945"><ele>993.9999999999999</ele><time>2026-04-11T09:26:18.492Z</time></trkpt><trkpt lat="44.0211133" lon="11.514065"><ele>994.0</ele><time>2026-04-11T09:26:20.491Z</time></trkpt><trkpt lat="44.021074" lon="11.5141587"><ele>994.0</ele><time>2026-04-11T09:26:23.492Z</time></trkpt><trkpt lat="44.0210492" lon="11.5142632"><ele>994.0</ele><time>2026-04-11T09:26:25.492Z</time></trkpt><trkpt lat="44.0210135" lon="11.5143363"><ele>993.9999999999999</ele><time>2026-04-11T09:26:27.492Z</time></trkpt><trkpt lat="44.0209773" lon="11.5144468"><ele>994.0</ele><time>2026-04-11T09:26:31.491Z</time></trkpt><trkpt lat="44.0209497" lon="11.5145403"><ele>993.0</ele><time>2026-04-11T09:26:33.491Z</time></trkpt><trkpt lat="44.0209172" lon="11.5146297"><ele>992.0</ele><time>2026-04-11T09:26:35.492Z</time></trkpt><trkpt lat="44.0208828" lon="11.5147222"><ele>991.0</ele><time>2026-04-11T09:26:37.492Z</time></trkpt><trkpt lat="44.0208433" lon="11.5147957"><ele>990.0</ele><time>2026-04-11T09:26:39.489Z</time></trkpt><trkpt lat="44.0207995" lon="11.5148707"><ele>989.0</ele><time>2026-04-11T09:26:41.492Z</time></trkpt><trkpt lat="44.0207537" lon="11.5149638"><ele>988.0</ele><time>2026-04-11T09:26:44.491Z</time></trkpt><trkpt lat="44.0207093" lon="11.515054"><ele>987.0</ele><time>2026-04-11T09:26:47.493Z</time></trkpt><trkpt lat="44.0206763" lon="11.5151402"><ele>987.0</ele><time>2026-04-11T09:26:49.492Z</time></trkpt><trkpt lat="44.020664" lon="11.5152322"><ele>987.0</ele><time>2026-04-11T09:26:51.494Z</time></trkpt><trkpt lat="44.0206585" lon="11.5153347"><ele>987.0</ele><time>2026-04-11T09:26:53.492Z</time></trkpt><trkpt lat="44.0206537" lon="11.515434"><ele>987.0</ele><time>2026-04-11T09:27:40.494Z</time></trkpt><trkpt lat="44.020659" lon="11.5155447"><ele>987.0</ele><time>2026-04-11T09:27:42.494Z</time></trkpt><trkpt lat="44.0206788" lon="11.5156705"><ele>987.0</ele><time>2026-04-11T09:27:44.494Z</time></trkpt><trkpt lat="44.0207102" lon="11.5158008"><ele>988.0</ele><time>2026-04-11T09:27:46.495Z</time></trkpt><trkpt lat="44.0207097" lon="11.5159212"><ele>989.0</ele><time>2026-04-11T09:27:48.493Z</time></trkpt><trkpt lat="44.0207028" lon="11.5160603"><ele>990.0</ele><time>2026-04-11T09:27:51.494Z</time></trkpt><trkpt lat="44.020709" lon="11.5161598"><ele>991.0</ele><time>2026-04-11T09:27:54.495Z</time></trkpt><trkpt lat="44.0207008" lon="11.5162687"><ele>992.0</ele><time>2026-04-11T09:27:58.494Z</time></trkpt><trkpt lat="44.020675" lon="11.5163498"><ele>993.0</ele><time>2026-04-11T09:28:01.498Z</time></trkpt><trkpt lat="44.02064" lon="11.5164315"><ele>994.8571428571429</ele><time>2026-04-11T09:28:03.496Z</time></trkpt><trkpt lat="44.020594" lon="11.516503"><ele>996.7142857142858</ele><time>2026-04-11T09:28:05.494Z</time></trkpt><trkpt lat="44.0205742" lon="11.5165915"><ele>998.5714285714287</ele><time>2026-04-11T09:28:08.494Z</time></trkpt><trkpt lat="44.0206078" lon="11.516668"><ele>1000.4285714285714</ele><time>2026-04-11T09:28:10.493Z</time></trkpt><trkpt lat="44.020652" lon="11.5167455"><ele>1002.2857142857144</ele><time>2026-04-11T09:28:12.492Z</time></trkpt><trkpt lat="44.0206177" lon="11.5168508"><ele>1004.1428571428572</ele><time>2026-04-11T09:28:15.491Z</time></trkpt><trkpt lat="44.020596" lon="11.5169693"><ele>1006.0</ele><time>2026-04-11T09:28:18.492Z</time></trkpt><trkpt lat="44.0205758" lon="11.5170527"><ele>1005.5999999999999</ele><time>2026-04-11T09:28:20.494Z</time></trkpt><trkpt lat="44.0205492" lon="11.5171513"><ele>1005.1999999999999</ele><time>2026-04-11T09:28:22.493Z</time></trkpt><trkpt lat="44.0205145" lon="11.5172728"><ele>1004.8000000000001</ele><time>2026-04-11T09:28:24.495Z</time></trkpt><trkpt lat="44.0204775" lon="11.5174313"><ele>1004.4000000000001</ele><time>2026-04-11T09:28:26.494Z</time></trkpt><trkpt lat="44.0204567" lon="11.5175448"><ele>1004.0</ele><time>2026-04-11T09:28:27.496Z</time></trkpt><trkpt lat="44.0204298" lon="11.5176545"><ele>1004.0000000000001</ele><time>2026-04-11T09:28:28.499Z</time></trkpt><trkpt lat="44.0204073" lon="11.517755"><ele>1004.0</ele><time>2026-04-11T09:28:29.496Z</time></trkpt><trkpt lat="44.0203837" lon="11.5178747"><ele>1004.0</ele><time>2026-04-11T09:28:30.495Z</time></trkpt><trkpt lat="44.0203603" lon="11.5179895"><ele>1004.0</ele><time>2026-04-11T09:28:31.495Z</time></trkpt><trkpt lat="44.0203417" lon="11.518095"><ele>1004.0000000000001</ele><time>2026-04-11T09:28:32.494Z</time></trkpt><trkpt lat="44.0203337" lon="11.5181988"><ele>1004.0</ele><time>2026-04-11T09:28:33.494Z</time></trkpt><trkpt lat="44.0203305" lon="11.5183147"><ele>1003.8333333333334</ele><time>2026-04-11T09:28:34.494Z</time></trkpt><trkpt lat="44.0203155" lon="11.5184168"><ele>1003.6666666666667</ele><time>2026-04-11T09:28:35.494Z</time></trkpt><trkpt lat="44.0202915" lon="11.5185125"><ele>1003.5</ele><time>2026-04-11T09:28:36.494Z</time></trkpt><trkpt lat="44.0202658" lon="11.5186143"><ele>1003.3333333333333</ele><time>2026-04-11T09:28:37.494Z</time></trkpt><trkpt lat="44.0202415" lon="11.5187285"><ele>1003.1666666666666</ele><time>2026-04-11T09:28:38.494Z</time></trkpt><trkpt lat="44.0202245" lon="11.5188522"><ele>1003.0</ele><time>2026-04-11T09:28:39.491Z</time></trkpt><trkpt lat="44.0202142" lon="11.51897"><ele>1003.8333333333333</ele><time>2026-04-11T09:28:40.491Z</time></trkpt><trkpt lat="44.020208" lon="11.5190933"><ele>1004.6666666666666</ele><time>2026-04-11T09:28:41.493Z</time></trkpt><trkpt lat="44.0202023" lon="11.5192103"><ele>1005.5</ele><time>2026-04-11T09:28:42.492Z</time></trkpt><trkpt lat="44.0202045" lon="11.5193082"><ele>1006.3333333333333</ele><time>2026-04-11T09:28:43.495Z</time></trkpt><trkpt lat="44.0202055" lon="11.5193962"><ele>1007.1666666666666</ele><time>2026-04-11T09:28:44.495Z</time></trkpt><trkpt lat="44.0201723" lon="11.5195693"><ele>1008.0</ele><time>2026-04-11T09:28:46.496Z</time></trkpt><trkpt lat="44.0201413" lon="11.5196495"><ele>1010.0</ele><time>2026-04-11T09:28:47.494Z</time></trkpt><trkpt lat="44.0200908" lon="11.5197963"><ele>1012.0</ele><time>2026-04-11T09:28:49.494Z</time></trkpt><trkpt lat="44.020062" lon="11.5199408"><ele>1014.0</ele><time>2026-04-11T09:28:51.493Z</time></trkpt><trkpt lat="44.0200518" lon="11.520064"><ele>1016.0</ele><time>2026-04-11T09:28:53.495Z</time></trkpt><trkpt lat="44.020056" lon="11.5201643"><ele>1018.0</ele><time>2026-04-11T09:28:55.494Z</time></trkpt><trkpt lat="44.0200507" lon="11.5203018"><ele>1019.5999999999999</ele><time>2026-04-11T09:28:57.494Z</time></trkpt><trkpt lat="44.020016" lon="11.5204525"><ele>1021.1999999999999</ele><time>2026-04-11T09:28:59.494Z</time></trkpt><trkpt lat="44.0199737" lon="11.5205733"><ele>1022.8</ele><time>2026-04-11T09:29:01.493Z</time></trkpt><trkpt lat="44.0199375" lon="11.5206628"><ele>1024.3999999999999</ele><time>2026-04-11T09:29:03.49Z</time></trkpt><trkpt lat="44.0199053" lon="11.5207663"><ele>1026.0</ele><time>2026-04-11T09:29:07.492Z</time></trkpt><trkpt lat="44.0198688" lon="11.5208743"><ele>1027.3333333333333</ele><time>2026-04-11T09:29:11.494Z</time></trkpt><trkpt lat="44.019836" lon="11.5209563"><ele>1028.6666666666667</ele><time>2026-04-11T09:29:14.494Z</time></trkpt><trkpt lat="44.0198017" lon="11.5210413"><ele>1030.0</ele><time>2026-04-11T09:29:21.492Z</time></trkpt><trkpt lat="44.0197668" lon="11.5211242"><ele>1031.3333333333335</ele><time>2026-04-11T09:29:23.494Z</time></trkpt><trkpt lat="44.0197355" lon="11.5212373"><ele>1032.6666666666667</ele><time>2026-04-11T09:29:25.492Z</time></trkpt><trkpt lat="44.0196805" lon="11.5213518"><ele>1034.0</ele><time>2026-04-11T09:29:27.491Z</time></trkpt><trkpt lat="44.0196303" lon="11.5214383"><ele>1036.0</ele><time>2026-04-11T09:29:29.49Z</time></trkpt><trkpt lat="44.019578" lon="11.5215452"><ele>1038.0</ele><time>2026-04-11T09:29:31.491Z</time></trkpt><trkpt lat="44.0195148" lon="11.5216887"><ele>1040.0</ele><time>2026-04-11T09:29:33.492Z</time></trkpt><trkpt lat="44.0194627" lon="11.5218432"><ele>1042.0</ele><time>2026-04-11T09:29:35.493Z</time></trkpt><trkpt lat="44.0194022" lon="11.5219732"><ele>1044.0</ele><time>2026-04-11T09:29:37.494Z</time></trkpt><trkpt lat="44.0193097" lon="11.5220747"><ele>1044.0</ele><time>2026-04-11T09:29:39.493Z</time></trkpt><trkpt lat="44.0192193" lon="11.5221435"><ele>1044.0</ele><time>2026-04-11T09:29:41.492Z</time></trkpt><trkpt lat="44.0191742" lon="11.5222087"><ele>1044.0</ele><time>2026-04-11T09:29:43.49Z</time></trkpt><trkpt lat="44.0191512" lon="11.5223135"><ele>1044.0</ele><time>2026-04-11T09:30:52.49Z</time></trkpt><trkpt lat="44.0191007" lon="11.5223777"><ele>1044.0</ele><time>2026-04-11T09:30:55.49Z</time></trkpt><trkpt lat="44.019038" lon="11.5224338"><ele>1044.0</ele><time>2026-04-11T09:30:58.491Z</time></trkpt><trkpt lat="44.0189533" lon="11.5224905"><ele>1044.0</ele><time>2026-04-11T09:31:01.489Z</time></trkpt><trkpt lat="44.0188822" lon="11.5225437"><ele>1044.0</ele><time>2026-04-11T09:31:03.487Z</time></trkpt><trkpt lat="44.0188175" lon="11.5226187"><ele>1044.0</ele><time>2026-04-11T09:31:05.488Z</time></trkpt><trkpt lat="44.0187628" lon="11.5226838"><ele>1044.0</ele><time>2026-04-11T09:31:07.487Z</time></trkpt><trkpt lat="44.0187125" lon="11.5227787"><ele>1044.0</ele><time>2026-04-11T09:31:09.488Z</time></trkpt><trkpt lat="44.0186642" lon="11.5228747"><ele>1044.0</ele><time>2026-04-11T09:31:11.491Z</time></trkpt><trkpt lat="44.0185815" lon="11.5229833"><ele>1042.6000000000001</ele><time>2026-04-11T09:31:13.489Z</time></trkpt><trkpt lat="44.0184788" lon="11.5230508"><ele>1041.2</ele><time>2026-04-11T09:31:15.49Z</time></trkpt><trkpt lat="44.0183547" lon="11.5230647"><ele>1039.8000000000002</ele><time>2026-04-11T09:31:17.49Z</time></trkpt><trkpt lat="44.0182833" lon="11.5230652"><ele>1038.4</ele><time>2026-04-11T09:31:18.49Z</time></trkpt><trkpt lat="44.0181807" lon="11.5230262"><ele>1037.0</ele><time>2026-04-11T09:31:20.49Z</time></trkpt><trkpt lat="44.0181232" lon="11.5229855"><ele>1034.8333333333335</ele><time>2026-04-11T09:31:22.491Z</time></trkpt><trkpt lat="44.0180387" lon="11.5229992"><ele>1032.6666666666667</ele><time>2026-04-11T09:31:25.49Z</time></trkpt><trkpt lat="44.0179693" lon="11.523019"><ele>1030.5</ele><time>2026-04-11T09:31:27.491Z</time></trkpt><trkpt lat="44.017906" lon="11.5229943"><ele>1028.3333333333333</ele><time>2026-04-11T09:31:30.491Z</time></trkpt><trkpt lat="44.0178348" lon="11.5230272"><ele>1026.1666666666665</ele><time>2026-04-11T09:31:32.489Z</time></trkpt><trkpt lat="44.0177273" lon="11.5230955"><ele>1024.0</ele><time>2026-04-11T09:31:34.49Z</time></trkpt><trkpt lat="44.0176628" lon="11.5231268"><ele>1024.0</ele><time>2026-04-11T09:31:35.492Z</time></trkpt><trkpt lat="44.017594" lon="11.5231518"><ele>1023.9999999999999</ele><time>2026-04-11T09:31:36.491Z</time></trkpt><trkpt lat="44.0175245" lon="11.5231618"><ele>1024.0</ele><time>2026-04-11T09:31:37.491Z</time></trkpt><trkpt lat="44.0174565" lon="11.5231608"><ele>1024.0</ele><time>2026-04-11T09:31:38.492Z</time></trkpt><trkpt lat="44.0173813" lon="11.5231568"><ele>1023.9999999999999</ele><time>2026-04-11T09:31:39.492Z</time></trkpt><trkpt lat="44.0173025" lon="11.5231498"><ele>1024.0</ele><time>2026-04-11T09:31:40.492Z</time></trkpt><trkpt lat="44.0172295" lon="11.5231242"><ele>1024.0</ele><time>2026-04-11T09:31:41.492Z</time></trkpt><trkpt lat="44.0171163" lon="11.5231093"><ele>1023.3333333333333</ele><time>2026-04-11T09:31:43.49Z</time></trkpt><trkpt lat="44.0170087" lon="11.523147"><ele>1022.6666666666666</ele><time>2026-04-11T09:31:45.493Z</time></trkpt><trkpt lat="44.016943" lon="11.5231723"><ele>1022.0</ele><time>2026-04-11T09:31:46.491Z</time></trkpt><trkpt lat="44.01687" lon="11.5231853"><ele>1021.3333333333333</ele><time>2026-04-11T09:31:47.492Z</time></trkpt><trkpt lat="44.0167973" lon="11.5231833"><ele>1020.6666666666666</ele><time>2026-04-11T09:31:48.491Z</time></trkpt><trkpt lat="44.0167273" lon="11.5231852"><ele>1020.0</ele><time>2026-04-11T09:31:49.491Z</time></trkpt><trkpt lat="44.0166613" lon="11.5231978"><ele>1019.0</ele><time>2026-04-11T09:31:50.491Z</time></trkpt><trkpt lat="44.0165922" lon="11.5232235"><ele>1018.0</ele><time>2026-04-11T09:31:51.492Z</time></trkpt><trkpt lat="44.0165145" lon="11.5232583"><ele>1017.0</ele><time>2026-04-11T09:31:52.491Z</time></trkpt><trkpt lat="44.0164445" lon="11.523296"><ele>1016.0</ele><time>2026-04-11T09:31:53.492Z</time></trkpt><trkpt lat="44.0163757" lon="11.5233372"><ele>1015.0</ele><time>2026-04-11T09:31:54.49Z</time></trkpt><trkpt lat="44.0163018" lon="11.5233698"><ele>1014.0</ele><time>2026-04-11T09:31:55.488Z</time></trkpt><trkpt lat="44.0162283" lon="11.5233955"><ele>1014.0</ele><time>2026-04-11T09:31:56.488Z</time></trkpt><trkpt lat="44.0161562" lon="11.5234065"><ele>1014.0</ele><time>2026-04-11T09:31:57.49Z</time></trkpt><trkpt lat="44.0160933" lon="11.5234185"><ele>1014.0</ele><time>2026-04-11T09:31:58.488Z</time></trkpt><trkpt lat="44.0159932" lon="11.5234713"><ele>1014.0</ele><time>2026-04-11T09:32:00.491Z</time></trkpt><trkpt lat="44.0158952" lon="11.5235055"><ele>1014.0</ele><time>2026-04-11T09:32:02.491Z</time></trkpt><trkpt lat="44.015791" lon="11.523486"><ele>1014.0</ele><time>2026-04-11T09:32:04.492Z</time></trkpt><trkpt lat="44.0156882" lon="11.5234983"><ele>1014.5</ele><time>2026-04-11T09:32:06.491Z</time></trkpt><trkpt lat="44.0156233" lon="11.523531"><ele>1015.0</ele><time>2026-04-11T09:32:07.493Z</time></trkpt><trkpt lat="44.0155173" lon="11.5235853"><ele>1015.5</ele><time>2026-04-11T09:32:09.492Z</time></trkpt><trkpt lat="44.0154318" lon="11.5236317"><ele>1016.0</ele><time>2026-04-11T09:32:11.493Z</time></trkpt><trkpt lat="44.0153528" lon="11.523671"><ele>1016.5</ele><time>2026-04-11T09:32:13.491Z</time></trkpt><trkpt lat="44.0152707" lon="11.523702"><ele>1017.0</ele><time>2026-04-11T09:32:15.493Z</time></trkpt><trkpt lat="44.0151877" lon="11.5237603"><ele>1016.0</ele><time>2026-04-11T09:32:17.492Z</time></trkpt><trkpt lat="44.0150992" lon="11.5237865"><ele>1015.0</ele><time>2026-04-11T09:32:19.491Z</time></trkpt><trkpt lat="44.0150327" lon="11.5238318"><ele>1014.0</ele><time>2026-04-11T09:32:21.49Z</time></trkpt><trkpt lat="44.0149768" lon="11.5238943"><ele>1013.0</ele><time>2026-04-11T09:32:23.492Z</time></trkpt><trkpt lat="44.0149235" lon="11.5239433"><ele>1012.0</ele><time>2026-04-11T09:32:26.493Z</time></trkpt><trkpt lat="44.0148603" lon="11.523997"><ele>1011.0</ele><time>2026-04-11T09:32:31.491Z</time></trkpt><trkpt lat="44.0147843" lon="11.5240402"><ele>1011.0</ele><time>2026-04-11T09:32:34.491Z</time></trkpt><trkpt lat="44.0147355" lon="11.5241105"><ele>1011.0</ele><time>2026-04-11T09:32:36.49Z</time></trkpt><trkpt lat="44.014701" lon="11.5241965"><ele>1011.0</ele><time>2026-04-11T09:32:38.493Z</time></trkpt><trkpt lat="44.0146675" lon="11.5243067"><ele>1011.0</ele><time>2026-04-11T09:32:40.492Z</time></trkpt><trkpt lat="44.0146518" lon="11.5244075"><ele>1011.0</ele><time>2026-04-11T09:32:43.489Z</time></trkpt><trkpt lat="44.0146018" lon="11.5244853"><ele>1011.0</ele><time>2026-04-11T09:32:48.49Z</time></trkpt><trkpt lat="44.0145572" lon="11.5245688"><ele>1012.8571428571427</ele><time>2026-04-11T09:32:51.49Z</time></trkpt><trkpt lat="44.0145037" lon="11.524645"><ele>1014.7142857142857</ele><time>2026-04-11T09:33:15.49Z</time></trkpt><trkpt lat="44.014449" lon="11.5247243"><ele>1016.5714285714284</ele><time>2026-04-11T09:33:29.491Z</time></trkpt><trkpt lat="44.0143882" lon="11.5247532"><ele>1018.4285714285713</ele><time>2026-04-11T09:33:32.49Z</time></trkpt><trkpt lat="44.0143187" lon="11.5247835"><ele>1020.2857142857142</ele><time>2026-04-11T09:33:36.489Z</time></trkpt><trkpt lat="44.0142457" lon="11.524785"><ele>1022.1428571428571</ele><time>2026-04-11T09:33:38.491Z</time></trkpt><trkpt lat="44.0141807" lon="11.5247907"><ele>1024.0</ele><time>2026-04-11T09:33:40.491Z</time></trkpt><trkpt lat="44.014104" lon="11.524856"><ele>1023.9999999999999</ele><time>2026-04-11T09:33:44.492Z</time></trkpt><trkpt lat="44.0140327" lon="11.5248988"><ele>1024.0</ele><time>2026-04-11T09:33:46.49Z</time></trkpt><trkpt lat="44.013957" lon="11.5249175"><ele>1024.0</ele><time>2026-04-11T09:33:48.491Z</time></trkpt><trkpt lat="44.0138772" lon="11.5249467"><ele>1024.0</ele><time>2026-04-11T09:33:51.49Z</time></trkpt><trkpt lat="44.013803" lon="11.5249608"><ele>1023.9999999999999</ele><time>2026-04-11T09:33:53.491Z</time></trkpt><trkpt lat="44.0137392" lon="11.524967"><ele>1024.0</ele><time>2026-04-11T09:33:54.49Z</time></trkpt><trkpt lat="44.0136385" lon="11.5249912"><ele>1023.9999999999999</ele><time>2026-04-11T09:33:56.49Z</time></trkpt><trkpt lat="44.0135708" lon="11.5250655"><ele>1024.0</ele><time>2026-04-11T09:33:58.488Z</time></trkpt><trkpt lat="44.0134895" lon="11.5251687"><ele>1024.0</ele><time>2026-04-11T09:34:00.488Z</time></trkpt><trkpt lat="44.0134215" lon="11.5252202"><ele>1024.0</ele><time>2026-04-11T09:34:01.492Z</time></trkpt><trkpt lat="44.0133588" lon="11.5252615"><ele>1023.9999999999999</ele><time>2026-04-11T09:34:02.491Z</time></trkpt><trkpt lat="44.013283" lon="11.525337"><ele>1024.0</ele><time>2026-04-11T09:34:04.492Z</time></trkpt><trkpt lat="44.0132248" lon="11.5254457"><ele>1022.4000000000001</ele><time>2026-04-11T09:34:06.491Z</time></trkpt><trkpt lat="44.0131597" lon="11.5255843"><ele>1020.8000000000001</ele><time>2026-04-11T09:34:08.491Z</time></trkpt><trkpt lat="44.0131145" lon="11.5256555"><ele>1019.1999999999999</ele><time>2026-04-11T09:34:09.489Z</time></trkpt><trkpt lat="44.0130448" lon="11.5257672"><ele>1017.5999999999999</ele><time>2026-04-11T09:34:11.491Z</time></trkpt><trkpt lat="44.0129775" lon="11.525906"><ele>1016.0</ele><time>2026-04-11T09:34:13.49Z</time></trkpt><trkpt lat="44.012923" lon="11.5259695"><ele>1016.0000000000001</ele><time>2026-04-11T09:34:14.49Z</time></trkpt><trkpt lat="44.0128653" lon="11.5260293"><ele>1016.0</ele><time>2026-04-11T09:34:15.49Z</time></trkpt><trkpt lat="44.0127647" lon="11.5261197"><ele>1016.0</ele><time>2026-04-11T09:34:17.491Z</time></trkpt><trkpt lat="44.0127075" lon="11.526206"><ele>1016.0</ele><time>2026-04-11T09:34:19.49Z</time></trkpt><trkpt lat="44.012682" lon="11.5262903"><ele>1016.0000000000001</ele><time>2026-04-11T09:34:21.491Z</time></trkpt><trkpt lat="44.012654" lon="11.5263742"><ele>1016.0</ele><time>2026-04-11T09:34:23.488Z</time></trkpt><trkpt lat="44.012633" lon="11.5264867"><ele>1014.5999999999999</ele><time>2026-04-11T09:34:25.488Z</time></trkpt><trkpt lat="44.012606" lon="11.5266242"><ele>1013.1999999999999</ele><time>2026-04-11T09:34:27.49Z</time></trkpt><trkpt lat="44.012523" lon="11.5267345"><ele>1011.8000000000001</ele><time>2026-04-11T09:34:29.493Z</time></trkpt><trkpt lat="44.0124625" lon="11.5267692"><ele>1010.4000000000001</ele><time>2026-04-11T09:34:30.491Z</time></trkpt><trkpt lat="44.0123405" lon="11.5268105"><ele>1009.0</ele><time>2026-04-11T09:34:32.491Z</time></trkpt><trkpt lat="44.0122805" lon="11.5268418"><ele>1009.0</ele><time>2026-04-11T09:34:33.491Z</time></trkpt><trkpt lat="44.0121808" lon="11.5269048"><ele>1009.0000000000001</ele><time>2026-04-11T09:34:35.493Z</time></trkpt><trkpt lat="44.0121035" lon="11.526982"><ele>1009.0000000000001</ele><time>2026-04-11T09:34:37.491Z</time></trkpt><trkpt lat="44.012073" lon="11.5270708"><ele>1009.0</ele><time>2026-04-11T09:34:39.491Z</time></trkpt><trkpt lat="44.0120553" lon="11.5271647"><ele>1009.0</ele><time>2026-04-11T09:34:41.491Z</time></trkpt><trkpt lat="44.0119977" lon="11.5272858"><ele>1009.5</ele><time>2026-04-11T09:34:43.491Z</time></trkpt><trkpt lat="44.011894" lon="11.527375"><ele>1010.0</ele><time>2026-04-11T09:34:45.49Z</time></trkpt><trkpt lat="44.011784" lon="11.5274192"><ele>1010.5</ele><time>2026-04-11T09:34:47.49Z</time></trkpt><trkpt lat="44.0116835" lon="11.5274115"><ele>1011.0</ele><time>2026-04-11T09:34:49.489Z</time></trkpt><trkpt lat="44.0115637" lon="11.5273883"><ele>1011.0</ele><time>2026-04-11T09:34:51.493Z</time></trkpt><trkpt lat="44.0114647" lon="11.5273995"><ele>1010.9999999999999</ele><time>2026-04-11T09:34:53.491Z</time></trkpt><trkpt lat="44.011369" lon="11.52743"><ele>1010.9999999999999</ele><time>2026-04-11T09:34:55.492Z</time></trkpt><trkpt lat="44.011289" lon="11.5274732"><ele>1011.0</ele><time>2026-04-11T09:34:57.491Z</time></trkpt><trkpt lat="44.011208" lon="11.5275628"><ele>1011.0</ele><time>2026-04-11T09:34:59.491Z</time></trkpt><trkpt lat="44.0111597" lon="11.5276235"><ele>1011.0</ele><time>2026-04-11T09:35:00.492Z</time></trkpt><trkpt lat="44.0111023" lon="11.5276878"><ele>1011.0</ele><time>2026-04-11T09:35:01.493Z</time></trkpt><trkpt lat="44.0110337" lon="11.5277427"><ele>1011.0</ele><time>2026-04-11T09:35:02.491Z</time></trkpt><trkpt lat="44.0109638" lon="11.5277867"><ele>1011.0</ele><time>2026-04-11T09:35:03.491Z</time></trkpt><trkpt lat="44.0108925" lon="11.5278375"><ele>1011.0</ele><time>2026-04-11T09:35:04.491Z</time></trkpt><trkpt lat="44.0108125" lon="11.5278757"><ele>1011.0</ele><time>2026-04-11T09:35:05.491Z</time></trkpt><trkpt lat="44.0107447" lon="11.5278982"><ele>1010.0</ele><time>2026-04-11T09:35:06.49Z</time></trkpt><trkpt lat="44.010655" lon="11.5279288"><ele>1009.0</ele><time>2026-04-11T09:35:08.492Z</time></trkpt><trkpt lat="44.0105668" lon="11.5279368"><ele>1008.0</ele><time>2026-04-11T09:35:10.491Z</time></trkpt><trkpt lat="44.010447" lon="11.5279683"><ele>1007.0</ele><time>2026-04-11T09:35:12.489Z</time></trkpt><trkpt lat="44.0103738" lon="11.5279835"><ele>1006.0</ele><time>2026-04-11T09:35:13.49Z</time></trkpt><trkpt lat="44.0103043" lon="11.5280035"><ele>1005.0</ele><time>2026-04-11T09:35:14.489Z</time></trkpt><trkpt lat="44.0102175" lon="11.5280273"><ele>1005.0</ele><time>2026-04-11T09:35:15.491Z</time></trkpt><trkpt lat="44.010128" lon="11.528051"><ele>1005.0</ele><time>2026-04-11T09:35:16.491Z</time></trkpt><trkpt lat="44.0100268" lon="11.528072"><ele>1005.0</ele><time>2026-04-11T09:35:17.491Z</time></trkpt><trkpt lat="44.0099263" lon="11.528096"><ele>1005.0</ele><time>2026-04-11T09:35:18.491Z</time></trkpt><trkpt lat="44.0098307" lon="11.5281012"><ele>1005.0</ele><time>2026-04-11T09:35:19.491Z</time></trkpt><trkpt lat="44.0097345" lon="11.5280918"><ele>1007.8333333333334</ele><time>2026-04-11T09:35:20.49Z</time></trkpt><trkpt lat="44.0096685" lon="11.5280812"><ele>1010.6666666666667</ele><time>2026-04-11T09:35:21.491Z</time></trkpt><trkpt lat="44.009594" lon="11.5280808"><ele>1013.5</ele><time>2026-04-11T09:35:24.491Z</time></trkpt><trkpt lat="44.00952" lon="11.5280985"><ele>1016.3333333333334</ele><time>2026-04-11T09:35:28.49Z</time></trkpt><trkpt lat="44.0094172" lon="11.5281257"><ele>1019.1666666666667</ele><time>2026-04-11T09:35:31.491Z</time></trkpt><trkpt lat="44.0093013" lon="11.5281603"><ele>1022.0</ele><time>2026-04-11T09:35:33.491Z</time></trkpt><trkpt lat="44.009238" lon="11.52817"><ele>1020.2</ele><time>2026-04-11T09:35:34.492Z</time></trkpt><trkpt lat="44.009131" lon="11.5281962"><ele>1018.4000000000001</ele><time>2026-04-11T09:35:36.488Z</time></trkpt><trkpt lat="44.009068" lon="11.5282265"><ele>1016.5999999999999</ele><time>2026-04-11T09:35:37.488Z</time></trkpt><trkpt lat="44.0089507" lon="11.528283"><ele>1014.8</ele><time>2026-04-11T09:35:39.49Z</time></trkpt><trkpt lat="44.0088892" lon="11.5283053"><ele>1013.0</ele><time>2026-04-11T09:35:40.49Z</time></trkpt><trkpt lat="44.0087488" lon="11.5283722"><ele>1013.0000000000001</ele><time>2026-04-11T09:35:42.492Z</time></trkpt><trkpt lat="44.0086683" lon="11.5284152"><ele>1013.0</ele><time>2026-04-11T09:35:43.491Z</time></trkpt><trkpt lat="44.0085858" lon="11.5284668"><ele>1013.0</ele><time>2026-04-11T09:35:44.491Z</time></trkpt><trkpt lat="44.008497" lon="11.5285062"><ele>1013.0</ele><time>2026-04-11T09:35:45.491Z</time></trkpt><trkpt lat="44.008415" lon="11.5285525"><ele>1013.0000000000001</ele><time>2026-04-11T09:35:46.491Z</time></trkpt><trkpt lat="44.0083392" lon="11.5285922"><ele>1013.0</ele><time>2026-04-11T09:35:47.491Z</time></trkpt><trkpt lat="44.0082642" lon="11.5286433"><ele>1011.4</ele><time>2026-04-11T09:35:48.49Z</time></trkpt><trkpt lat="44.0081958" lon="11.528667"><ele>1009.8</ele><time>2026-04-11T09:35:49.49Z</time></trkpt><trkpt lat="44.0080875" lon="11.528692"><ele>1008.2</ele><time>2026-04-11T09:35:51.49Z</time></trkpt><trkpt lat="44.0079807" lon="11.5287063"><ele>1006.6</ele><time>2026-04-11T09:35:53.491Z</time></trkpt><trkpt lat="44.0078678" lon="11.5287577"><ele>1005.0</ele><time>2026-04-11T09:35:55.491Z</time></trkpt><trkpt lat="44.0078043" lon="11.528768"><ele>1004.3333333333334</ele><time>2026-04-11T09:35:56.492Z</time></trkpt><trkpt lat="44.0077258" lon="11.5287803"><ele>1003.6666666666667</ele><time>2026-04-11T09:35:57.49Z</time></trkpt><trkpt lat="44.007649" lon="11.5287997"><ele>1003.0</ele><time>2026-04-11T09:35:58.489Z</time></trkpt><trkpt lat="44.0075662" lon="11.5288048"><ele>1002.3333333333334</ele><time>2026-04-11T09:35:59.491Z</time></trkpt><trkpt lat="44.0074937" lon="11.5288073"><ele>1001.6666666666667</ele><time>2026-04-11T09:36:00.489Z</time></trkpt><trkpt lat="44.0074103" lon="11.5288135"><ele>1001.0</ele><time>2026-04-11T09:36:01.488Z</time></trkpt><trkpt lat="44.0073317" lon="11.528813"><ele>1001.0000000000001</ele><time>2026-04-11T09:36:02.488Z</time></trkpt><trkpt lat="44.007249" lon="11.528806"><ele>1001.0</ele><time>2026-04-11T09:36:03.488Z</time></trkpt><trkpt lat="44.0071695" lon="11.5287942"><ele>1001.0</ele><time>2026-04-11T09:36:04.489Z</time></trkpt><trkpt lat="44.0070872" lon="11.5287647"><ele>1001.0</ele><time>2026-04-11T09:36:05.491Z</time></trkpt><trkpt lat="44.0070323" lon="11.5287195"><ele>1001.0000000000001</ele><time>2026-04-11T09:36:06.489Z</time></trkpt><trkpt lat="44.006938" lon="11.5286765"><ele>1001.0</ele><time>2026-04-11T09:36:08.49Z</time></trkpt><trkpt lat="44.0068332" lon="11.5286708"><ele>1003.1666666666667</ele><time>2026-04-11T09:36:10.489Z</time></trkpt><trkpt lat="44.0067318" lon="11.5286205"><ele>1005.3333333333334</ele><time>2026-04-11T09:36:12.489Z</time></trkpt><trkpt lat="44.0066745" lon="11.5285373"><ele>1007.5</ele><time>2026-04-11T09:36:14.49Z</time></trkpt><trkpt lat="44.006636" lon="11.5284538"><ele>1009.6666666666667</ele><time>2026-04-11T09:36:15.492Z</time></trkpt><trkpt lat="44.0065955" lon="11.5283208"><ele>1011.8333333333334</ele><time>2026-04-11T09:36:17.49Z</time></trkpt><trkpt lat="44.0065773" lon="11.5282238"><ele>1014.0</ele><time>2026-04-11T09:36:20.488Z</time></trkpt><trkpt lat="44.0065598" lon="11.5281345"><ele>1017.6666666666666</ele><time>2026-04-11T09:36:23.491Z</time></trkpt><trkpt lat="44.006558" lon="11.5280412"><ele>1021.3333333333333</ele><time>2026-04-11T09:36:25.487Z</time></trkpt><trkpt lat="44.0065378" lon="11.5279197"><ele>1025.0</ele><time>2026-04-11T09:36:28.486Z</time></trkpt><trkpt lat="44.0065362" lon="11.5278285"><ele>1028.6666666666665</ele><time>2026-04-11T09:36:30.488Z</time></trkpt><trkpt lat="44.0065182" lon="11.527705"><ele>1032.3333333333333</ele><time>2026-04-11T09:36:32.488Z</time></trkpt><trkpt lat="44.0064887" lon="11.5275845"><ele>1036.0</ele><time>2026-04-11T09:36:34.487Z</time></trkpt><trkpt lat="44.0064642" lon="11.5274675"><ele>1038.8333333333333</ele><time>2026-04-11T09:36:36.488Z</time></trkpt><trkpt lat="44.006482" lon="11.5273325"><ele>1041.6666666666665</ele><time>2026-04-11T09:36:38.488Z</time></trkpt><trkpt lat="44.0064592" lon="11.5272178"><ele>1044.5</ele><time>2026-04-11T09:36:40.489Z</time></trkpt><trkpt lat="44.0064528" lon="11.5271277"><ele>1047.3333333333333</ele><time>2026-04-11T09:36:42.488Z</time></trkpt><trkpt lat="44.0064583" lon="11.5270035"><ele>1050.1666666666667</ele><time>2026-04-11T09:36:44.488Z</time></trkpt><trkpt lat="44.0064313" lon="11.5268858"><ele>1053.0</ele><time>2026-04-11T09:36:46.488Z</time></trkpt><trkpt lat="44.0064328" lon="11.5267928"><ele>1054.1666666666667</ele><time>2026-04-11T09:36:48.487Z</time></trkpt><trkpt lat="44.0064285" lon="11.5267008"><ele>1055.3333333333333</ele><time>2026-04-11T09:36:50.487Z</time></trkpt><trkpt lat="44.0064135" lon="11.5265782"><ele>1056.5</ele><time>2026-04-11T09:36:52.487Z</time></trkpt><trkpt lat="44.0063707" lon="11.5264868"><ele>1057.6666666666665</ele><time>2026-04-11T09:36:54.488Z</time></trkpt><trkpt lat="44.0063292" lon="11.5264005"><ele>1058.8333333333333</ele><time>2026-04-11T09:36:56.491Z</time></trkpt><trkpt lat="44.0062812" lon="11.5263238"><ele>1060.0</ele><time>2026-04-11T09:36:58.489Z</time></trkpt><trkpt lat="44.0062477" lon="11.5262172"><ele>1060.0</ele><time>2026-04-11T09:37:03.49Z</time></trkpt><trkpt lat="44.0062372" lon="11.5261297"><ele>1060.0</ele><time>2026-04-11T09:37:13.49Z</time></trkpt><trkpt lat="44.0062172" lon="11.5260353"><ele>1060.0</ele><time>2026-04-11T09:37:59.491Z</time></trkpt><trkpt lat="44.0061513" lon="11.5260812"><ele>1060.0</ele><time>2026-04-11T09:38:02.489Z</time></trkpt><trkpt lat="44.0061042" lon="11.5259973"><ele>1060.0</ele><time>2026-04-11T09:41:09.489Z</time></trkpt><trkpt lat="44.0060073" lon="11.5259785"><ele>1060.0</ele><time>2026-04-11T09:41:14.491Z</time></trkpt><trkpt lat="44.0059452" lon="11.5259192"><ele>1060.0</ele><time>2026-04-11T09:41:16.49Z</time></trkpt><trkpt lat="44.0059002" lon="11.5258042"><ele>1060.0</ele><time>2026-04-11T09:41:18.487Z</time></trkpt><trkpt lat="44.0058833" lon="11.5256755"><ele>1060.0</ele><time>2026-04-11T09:41:20.489Z</time></trkpt><trkpt lat="44.005864" lon="11.525568"><ele>1060.0</ele><time>2026-04-11T09:41:22.491Z</time></trkpt><trkpt lat="44.0058225" lon="11.5254722"><ele>1060.0</ele><time>2026-04-11T09:41:24.49Z</time></trkpt><trkpt lat="44.0057915" lon="11.5253498"><ele>1060.0</ele><time>2026-04-11T09:41:26.491Z</time></trkpt><trkpt lat="44.0057503" lon="11.5252043"><ele>1059.0</ele><time>2026-04-11T09:41:28.489Z</time></trkpt><trkpt lat="44.0057022" lon="11.5250822"><ele>1058.0</ele><time>2026-04-11T09:41:30.49Z</time></trkpt><trkpt lat="44.0056298" lon="11.5250643"><ele>1057.0</ele><time>2026-04-11T09:41:35.493Z</time></trkpt><trkpt lat="44.0055773" lon="11.525113"><ele>1056.0</ele><time>2026-04-11T09:41:37.494Z</time></trkpt><trkpt lat="44.0055168" lon="11.5251858"><ele>1055.0</ele><time>2026-04-11T09:41:39.495Z</time></trkpt><trkpt lat="44.0054418" lon="11.5252893"><ele>1054.0</ele><time>2026-04-11T09:41:41.494Z</time></trkpt><trkpt lat="44.0054028" lon="11.5253622"><ele>1056.4</ele><time>2026-04-11T09:41:42.493Z</time></trkpt><trkpt lat="44.005358" lon="11.5254513"><ele>1058.8000000000002</ele><time>2026-04-11T09:41:43.494Z</time></trkpt><trkpt lat="44.0053147" lon="11.525554"><ele>1061.1999999999998</ele><time>2026-04-11T09:41:44.491Z</time></trkpt><trkpt lat="44.0052682" lon="11.5256885"><ele>1063.6</ele><time>2026-04-11T09:41:45.491Z</time></trkpt><trkpt lat="44.0052243" lon="11.52583"><ele>1066.0</ele><time>2026-04-11T09:41:46.491Z</time></trkpt><trkpt lat="44.005187" lon="11.5259537"><ele>1066.0</ele><time>2026-04-11T09:41:47.492Z</time></trkpt><trkpt lat="44.005143" lon="11.5260617"><ele>1066.0</ele><time>2026-04-11T09:41:48.491Z</time></trkpt><trkpt lat="44.0050858" lon="11.526167"><ele>1066.0</ele><time>2026-04-11T09:41:49.493Z</time></trkpt><trkpt lat="44.0050305" lon="11.5262665"><ele>1066.0</ele><time>2026-04-11T09:41:50.493Z</time></trkpt><trkpt lat="44.0049893" lon="11.5263605"><ele>1066.0</ele><time>2026-04-11T09:41:51.493Z</time></trkpt><trkpt lat="44.0049668" lon="11.5264723"><ele>1066.0</ele><time>2026-04-11T09:41:52.491Z</time></trkpt><trkpt lat="44.0049617" lon="11.526601"><ele>1062.5</ele><time>2026-04-11T09:41:53.494Z</time></trkpt><trkpt lat="44.0049673" lon="11.526734"><ele>1059.0</ele><time>2026-04-11T09:41:54.493Z</time></trkpt><trkpt lat="44.0049718" lon="11.5268522"><ele>1055.5</ele><time>2026-04-11T09:41:55.493Z</time></trkpt><trkpt lat="44.0049698" lon="11.5269408"><ele>1052.0</ele><time>2026-04-11T09:41:56.493Z</time></trkpt><trkpt lat="44.0049238" lon="11.5270598"><ele>1048.5</ele><time>2026-04-11T09:41:58.491Z</time></trkpt><trkpt lat="44.004902" lon="11.5271805"><ele>1045.0</ele><time>2026-04-11T09:42:00.49Z</time></trkpt><trkpt lat="44.0048898" lon="11.5272888"><ele>1045.0</ele><time>2026-04-11T09:42:02.491Z</time></trkpt><trkpt lat="44.0048593" lon="11.5273785"><ele>1045.0</ele><time>2026-04-11T09:42:04.49Z</time></trkpt><trkpt lat="44.0048247" lon="11.5274633"><ele>1045.0</ele><time>2026-04-11T09:42:07.49Z</time></trkpt><trkpt lat="44.0048207" lon="11.5275702"><ele>1045.0</ele><time>2026-04-11T09:42:13.491Z</time></trkpt><trkpt lat="44.004814" lon="11.5277065"><ele>1045.0</ele><time>2026-04-11T09:42:16.496Z</time></trkpt><trkpt lat="44.0047835" lon="11.527839"><ele>1045.0</ele><time>2026-04-11T09:42:18.491Z</time></trkpt><trkpt lat="44.0047395" lon="11.5279622"><ele>1047.8333333333333</ele><time>2026-04-11T09:42:20.494Z</time></trkpt><trkpt lat="44.004684" lon="11.528063"><ele>1050.6666666666665</ele><time>2026-04-11T09:42:22.492Z</time></trkpt><trkpt lat="44.0046288" lon="11.5281333"><ele>1053.5</ele><time>2026-04-11T09:42:24.493Z</time></trkpt><trkpt lat="44.0045727" lon="11.5281848"><ele>1056.3333333333333</ele><time>2026-04-11T09:42:26.49Z</time></trkpt><trkpt lat="44.004507" lon="11.5282617"><ele>1059.1666666666667</ele><time>2026-04-11T09:42:28.489Z</time></trkpt><trkpt lat="44.0044333" lon="11.5283532"><ele>1062.0</ele><time>2026-04-11T09:42:30.49Z</time></trkpt><trkpt lat="44.0043302" lon="11.5284577"><ele>1062.0</ele><time>2026-04-11T09:42:32.49Z</time></trkpt><trkpt lat="44.0042452" lon="11.5285587"><ele>1062.0</ele><time>2026-04-11T09:42:34.489Z</time></trkpt><trkpt lat="44.0042002" lon="11.5286675"><ele>1062.0</ele><time>2026-04-11T09:42:36.492Z</time></trkpt><trkpt lat="44.0041642" lon="11.5287693"><ele>1062.0</ele><time>2026-04-11T09:42:40.492Z</time></trkpt><trkpt lat="44.0041005" lon="11.528865"><ele>1062.0</ele><time>2026-04-11T09:42:43.493Z</time></trkpt><trkpt lat="44.0040523" lon="11.5289248"><ele>1062.0</ele><time>2026-04-11T09:42:46.493Z</time></trkpt><trkpt lat="44.004005" lon="11.5289828"><ele>1062.1666666666667</ele><time>2026-04-11T09:42:56.492Z</time></trkpt><trkpt lat="44.0039382" lon="11.529031"><ele>1062.3333333333333</ele><time>2026-04-11T09:42:59.489Z</time></trkpt><trkpt lat="44.0038737" lon="11.5290942"><ele>1062.5</ele><time>2026-04-11T09:43:01.493Z</time></trkpt><trkpt lat="44.0038165" lon="11.5291683"><ele>1062.6666666666665</ele><time>2026-04-11T09:43:03.491Z</time></trkpt><trkpt lat="44.0037482" lon="11.5292318"><ele>1062.8333333333333</ele><time>2026-04-11T09:43:05.492Z</time></trkpt><trkpt lat="44.0036742" lon="11.5292808"><ele>1063.0</ele><time>2026-04-11T09:43:07.491Z</time></trkpt><trkpt lat="44.0035912" lon="11.5293168"><ele>1063.0</ele><time>2026-04-11T09:43:37.49Z</time></trkpt><trkpt lat="44.0035228" lon="11.5293568"><ele>1063.0</ele><time>2026-04-11T09:43:45.489Z</time></trkpt><trkpt lat="44.0034323" lon="11.5294455"><ele>1063.0</ele><time>2026-04-11T09:43:47.489Z</time></trkpt><trkpt lat="44.0033835" lon="11.529506"><ele>1063.0</ele><time>2026-04-11T09:43:48.489Z</time></trkpt><trkpt lat="44.0032758" lon="11.5295902"><ele>1063.0</ele><time>2026-04-11T09:43:50.492Z</time></trkpt><trkpt lat="44.0032133" lon="11.5296222"><ele>1063.0</ele><time>2026-04-11T09:43:51.493Z</time></trkpt><trkpt lat="44.0030953" lon="11.5297232"><ele>1063.3333333333333</ele><time>2026-04-11T09:43:53.49Z</time></trkpt><trkpt lat="44.0030398" lon="11.5297857"><ele>1063.6666666666665</ele><time>2026-04-11T09:43:54.491Z</time></trkpt><trkpt lat="44.0029848" lon="11.5298393"><ele>1064.0</ele><time>2026-04-11T09:43:55.491Z</time></trkpt><trkpt lat="44.0029193" lon="11.5298685"><ele>1064.3333333333333</ele><time>2026-04-11T09:43:56.492Z</time></trkpt><trkpt lat="44.0028447" lon="11.5298863"><ele>1064.6666666666667</ele><time>2026-04-11T09:43:57.492Z</time></trkpt><trkpt lat="44.0027567" lon="11.5299038"><ele>1065.0</ele><time>2026-04-11T09:43:58.492Z</time></trkpt><trkpt lat="44.0026682" lon="11.5299153"><ele>1065.0</ele><time>2026-04-11T09:43:59.493Z</time></trkpt><trkpt lat="44.0025937" lon="11.5299315"><ele>1065.0</ele><time>2026-04-11T09:44:00.492Z</time></trkpt><trkpt lat="44.0025315" lon="11.5299492"><ele>1065.0</ele><time>2026-04-11T09:44:01.491Z</time></trkpt><trkpt lat="44.0024247" lon="11.5300018"><ele>1065.0</ele><time>2026-04-11T09:44:03.493Z</time></trkpt><trkpt lat="44.0023588" lon="11.5300465"><ele>1065.0</ele><time>2026-04-11T09:44:05.49Z</time></trkpt><trkpt lat="44.0022953" lon="11.5301045"><ele>1065.0</ele><time>2026-04-11T09:44:07.49Z</time></trkpt><trkpt lat="44.0022023" lon="11.5301488"><ele>1067.4</ele><time>2026-04-11T09:44:09.493Z</time></trkpt><trkpt lat="44.0021082" lon="11.5302138"><ele>1069.8</ele><time>2026-04-11T09:44:11.489Z</time></trkpt><trkpt lat="44.0020073" lon="11.5302748"><ele>1072.2</ele><time>2026-04-11T09:44:13.49Z</time></trkpt><trkpt lat="44.0019107" lon="11.5303067"><ele>1074.6</ele><time>2026-04-11T09:44:15.492Z</time></trkpt><trkpt lat="44.0018162" lon="11.5302733"><ele>1077.0</ele><time>2026-04-11T09:44:17.492Z</time></trkpt><trkpt lat="44.001707" lon="11.5303212"><ele>1081.8</ele><time>2026-04-11T09:44:19.491Z</time></trkpt><trkpt lat="44.001623" lon="11.5304275"><ele>1086.6</ele><time>2026-04-11T09:44:21.492Z</time></trkpt><trkpt lat="44.0015828" lon="11.5305013"><ele>1091.3999999999999</ele><time>2026-04-11T09:44:22.492Z</time></trkpt><trkpt lat="44.0015107" lon="11.530641"><ele>1096.2</ele><time>2026-04-11T09:44:24.495Z</time></trkpt><trkpt lat="44.0014582" lon="11.5307652"><ele>1101.0</ele><time>2026-04-11T09:44:26.493Z</time></trkpt><trkpt lat="44.0014063" lon="11.5308405"><ele>1101.0</ele><time>2026-04-11T09:44:28.492Z</time></trkpt><trkpt lat="44.0013603" lon="11.53092"><ele>1101.0</ele><time>2026-04-11T09:44:30.492Z</time></trkpt><trkpt lat="44.0013273" lon="11.5310228"><ele>1101.0</ele><time>2026-04-11T09:44:32.492Z</time></trkpt><trkpt lat="44.0012797" lon="11.5310945"><ele>1101.0</ele><time>2026-04-11T09:44:34.489Z</time></trkpt><trkpt lat="44.0013118" lon="11.5312175"><ele>1101.0</ele><time>2026-04-11T09:44:37.489Z</time></trkpt><trkpt lat="44.001313" lon="11.531323"><ele>1101.0</ele><time>2026-04-11T09:44:39.491Z</time></trkpt><trkpt lat="44.0013077" lon="11.531425"><ele>1100.6</ele><time>2026-04-11T09:44:41.491Z</time></trkpt><trkpt lat="44.0012967" lon="11.5315425"><ele>1100.1999999999998</ele><time>2026-04-11T09:44:43.492Z</time></trkpt><trkpt lat="44.0012455" lon="11.5316323"><ele>1099.8000000000002</ele><time>2026-04-11T09:44:45.493Z</time></trkpt><trkpt lat="44.0011713" lon="11.531711"><ele>1099.4</ele><time>2026-04-11T09:44:47.491Z</time></trkpt><trkpt lat="44.0011163" lon="11.531811"><ele>1099.0</ele><time>2026-04-11T09:44:49.491Z</time></trkpt><trkpt lat="44.0010868" lon="11.5319632"><ele>1098.0</ele><time>2026-04-11T09:44:51.491Z</time></trkpt><trkpt lat="44.001082" lon="11.5321155"><ele>1097.0</ele><time>2026-04-11T09:44:53.492Z</time></trkpt><trkpt lat="44.001078" lon="11.532214"><ele>1096.0</ele><time>2026-04-11T09:44:54.49Z</time></trkpt><trkpt lat="44.0010772" lon="11.5323223"><ele>1095.0</ele><time>2026-04-11T09:44:55.491Z</time></trkpt><trkpt lat="44.001073" lon="11.5324217"><ele>1094.0</ele><time>2026-04-11T09:44:56.491Z</time></trkpt><trkpt lat="44.0010663" lon="11.532515"><ele>1093.0</ele><time>2026-04-11T09:44:57.491Z</time></trkpt><trkpt lat="44.0010622" lon="11.5326562"><ele>1093.0</ele><time>2026-04-11T09:44:59.489Z</time></trkpt><trkpt lat="44.0010965" lon="11.5328108"><ele>1093.0</ele><time>2026-04-11T09:45:01.49Z</time></trkpt><trkpt lat="44.0011202" lon="11.5329767"><ele>1093.0</ele><time>2026-04-11T09:45:03.495Z</time></trkpt><trkpt lat="44.001101" lon="11.53309"><ele>1093.0</ele><time>2026-04-11T09:45:05.493Z</time></trkpt><trkpt lat="44.001059" lon="11.5332075"><ele>1093.0</ele><time>2026-04-11T09:45:08.494Z</time></trkpt><trkpt lat="44.00103" lon="11.5333033"><ele>1092.6666666666665</ele><time>2026-04-11T09:45:10.495Z</time></trkpt><trkpt lat="44.0010017" lon="11.5333937"><ele>1092.3333333333333</ele><time>2026-04-11T09:45:12.494Z</time></trkpt><trkpt lat="44.0009697" lon="11.5334897"><ele>1092.0</ele><time>2026-04-11T09:45:14.493Z</time></trkpt><trkpt lat="44.000948" lon="11.533579"><ele>1091.6666666666667</ele><time>2026-04-11T09:45:16.494Z</time></trkpt><trkpt lat="44.0009048" lon="11.533649"><ele>1091.3333333333335</ele><time>2026-04-11T09:45:18.491Z</time></trkpt><trkpt lat="44.0008578" lon="11.5337618"><ele>1091.0</ele><time>2026-04-11T09:45:21.493Z</time></trkpt><trkpt lat="44.000813" lon="11.533861"><ele>1086.3999999999999</ele><time>2026-04-11T09:45:24.49Z</time></trkpt><trkpt lat="44.0007643" lon="11.5339397"><ele>1081.8</ele><time>2026-04-11T09:45:26.49Z</time></trkpt><trkpt lat="44.0007095" lon="11.5340702"><ele>1077.1999999999998</ele><time>2026-04-11T09:45:28.49Z</time></trkpt><trkpt lat="44.0006472" lon="11.5342077"><ele>1072.6</ele><time>2026-04-11T09:45:30.492Z</time></trkpt><trkpt lat="44.0005763" lon="11.5343348"><ele>1068.0</ele><time>2026-04-11T09:45:32.491Z</time></trkpt><trkpt lat="44.000518" lon="11.5344457"><ele>1068.0</ele><time>2026-04-11T09:45:34.491Z</time></trkpt><trkpt lat="44.0004835" lon="11.5345507"><ele>1068.0</ele><time>2026-04-11T09:45:37.489Z</time></trkpt><trkpt lat="44.0004833" lon="11.5346908"><ele>1068.0</ele><time>2026-04-11T09:45:40.49Z</time></trkpt><trkpt lat="44.0004645" lon="11.5348127"><ele>1068.0</ele><time>2026-04-11T09:45:42.49Z</time></trkpt><trkpt lat="44.0004173" lon="11.5348957"><ele>1068.0</ele><time>2026-04-11T09:45:44.49Z</time></trkpt><trkpt lat="44.0003698" lon="11.5350088"><ele>1068.0</ele><time>2026-04-11T09:45:47.492Z</time></trkpt><trkpt lat="44.0003215" lon="11.5351135"><ele>1069.6666666666667</ele><time>2026-04-11T09:45:49.488Z</time></trkpt><trkpt lat="44.0002697" lon="11.535183"><ele>1071.3333333333333</ele><time>2026-04-11T09:45:51.492Z</time></trkpt><trkpt lat="44.0002345" lon="11.5352647"><ele>1073.0</ele><time>2026-04-11T09:45:53.491Z</time></trkpt><trkpt lat="44.0002232" lon="11.5353703"><ele>1074.6666666666665</ele><time>2026-04-11T09:45:55.492Z</time></trkpt><trkpt lat="44.0001942" lon="11.535484"><ele>1076.3333333333333</ele><time>2026-04-11T09:45:57.491Z</time></trkpt><trkpt lat="44.0001588" lon="11.5356068"><ele>1078.0</ele><time>2026-04-11T09:45:59.492Z</time></trkpt><trkpt lat="44.0001165" lon="11.5357613"><ele>1078.0</ele><time>2026-04-11T09:46:01.491Z</time></trkpt><trkpt lat="44.0001013" lon="11.5358475"><ele>1078.0</ele><time>2026-04-11T09:46:02.49Z</time></trkpt><trkpt lat="44.0000748" lon="11.5359502"><ele>1078.0</ele><time>2026-04-11T09:46:03.492Z</time></trkpt><trkpt lat="44.0000492" lon="11.5360322"><ele>1078.0</ele><time>2026-04-11T09:46:04.492Z</time></trkpt><trkpt lat="44.0000307" lon="11.5361188"><ele>1078.0</ele><time>2026-04-11T09:46:05.493Z</time></trkpt><trkpt lat="43.999999" lon="11.5362025"><ele>1078.0</ele><time>2026-04-11T09:46:06.493Z</time></trkpt><trkpt lat="43.9999375" lon="11.5363163"><ele>1078.0</ele><time>2026-04-11T09:46:08.492Z</time></trkpt><trkpt lat="43.9998823" lon="11.5363972"><ele>1076.6666666666665</ele><time>2026-04-11T09:46:10.492Z</time></trkpt><trkpt lat="43.9998245" lon="11.536497"><ele>1075.3333333333333</ele><time>2026-04-11T09:46:12.489Z</time></trkpt><trkpt lat="43.999771" lon="11.536611"><ele>1074.0</ele><time>2026-04-11T09:46:14.492Z</time></trkpt><trkpt lat="43.9997345" lon="11.53671"><ele>1072.6666666666667</ele><time>2026-04-11T09:46:16.492Z</time></trkpt><trkpt lat="43.9996978" lon="11.5368075"><ele>1071.3333333333335</ele><time>2026-04-11T09:46:18.492Z</time></trkpt><trkpt lat="43.9996608" lon="11.5369043"><ele>1070.0</ele><time>2026-04-11T09:46:20.492Z</time></trkpt><trkpt lat="43.9996008" lon="11.5369747"><ele>1070.0</ele><time>2026-04-11T09:46:23.492Z</time></trkpt><trkpt lat="43.9995585" lon="11.5370422"><ele>1070.0</ele><time>2026-04-11T09:46:25.494Z</time></trkpt><trkpt lat="43.9995085" lon="11.5371362"><ele>1070.0</ele><time>2026-04-11T09:46:27.492Z</time></trkpt><trkpt lat="43.9994787" lon="11.5372572"><ele>1070.0</ele><time>2026-04-11T09:46:29.492Z</time></trkpt><trkpt lat="43.9994323" lon="11.537389"><ele>1070.0</ele><time>2026-04-11T09:46:31.491Z</time></trkpt><trkpt lat="43.9993812" lon="11.5375177"><ele>1067.2</ele><time>2026-04-11T09:46:33.493Z</time></trkpt><trkpt lat="43.9993353" lon="11.5376518"><ele>1064.4</ele><time>2026-04-11T09:46:35.494Z</time></trkpt><trkpt lat="43.9993113" lon="11.5377933"><ele>1061.6</ele><time>2026-04-11T09:46:37.49Z</time></trkpt><trkpt lat="43.999302" lon="11.5379272"><ele>1058.8</ele><time>2026-04-11T09:46:39.491Z</time></trkpt><trkpt lat="43.999277" lon="11.5380273"><ele>1056.0</ele><time>2026-04-11T09:46:41.493Z</time></trkpt><trkpt lat="43.9992345" lon="11.5381202"><ele>1058.8</ele><time>2026-04-11T09:46:43.492Z</time></trkpt><trkpt lat="43.9992037" lon="11.5382555"><ele>1061.6</ele><time>2026-04-11T09:46:45.491Z</time></trkpt><trkpt lat="43.9991733" lon="11.5383787"><ele>1064.4</ele><time>2026-04-11T09:46:47.493Z</time></trkpt><trkpt lat="43.999125" lon="11.5385033"><ele>1067.2</ele><time>2026-04-11T09:46:49.493Z</time></trkpt><trkpt lat="43.9990748" lon="11.5386167"><ele>1070.0</ele><time>2026-04-11T09:46:51.491Z</time></trkpt><trkpt lat="43.9990318" lon="11.5387163"><ele>1068.3333333333335</ele><time>2026-04-11T09:46:53.491Z</time></trkpt><trkpt lat="43.9989937" lon="11.5388228"><ele>1066.6666666666667</ele><time>2026-04-11T09:46:55.492Z</time></trkpt><trkpt lat="43.9989848" lon="11.5389112"><ele>1065.0</ele><time>2026-04-11T09:46:57.491Z</time></trkpt><trkpt lat="43.9989667" lon="11.5390137"><ele>1063.3333333333333</ele><time>2026-04-11T09:47:00.491Z</time></trkpt><trkpt lat="43.9989215" lon="11.539086"><ele>1061.6666666666665</ele><time>2026-04-11T09:47:02.489Z</time></trkpt><trkpt lat="43.9988948" lon="11.5391933"><ele>1060.0</ele><time>2026-04-11T09:47:04.489Z</time></trkpt><trkpt lat="43.9988593" lon="11.5393642"><ele>1060.0</ele><time>2026-04-11T09:47:06.492Z</time></trkpt><trkpt lat="43.9988332" lon="11.539522"><ele>1060.0</ele><time>2026-04-11T09:47:08.494Z</time></trkpt><trkpt lat="43.998831" lon="11.5396255"><ele>1060.0</ele><time>2026-04-11T09:47:10.493Z</time></trkpt><trkpt lat="43.9988385" lon="11.5397358"><ele>1060.0</ele><time>2026-04-11T09:47:12.492Z</time></trkpt><trkpt lat="43.998842" lon="11.5398513"><ele>1060.0</ele><time>2026-04-11T09:47:14.492Z</time></trkpt><trkpt lat="43.9988363" lon="11.5400037"><ele>1059.6</ele><time>2026-04-11T09:47:16.497Z</time></trkpt><trkpt lat="43.998829" lon="11.5401597"><ele>1059.2</ele><time>2026-04-11T09:47:18.493Z</time></trkpt><trkpt lat="43.9988248" lon="11.5402615"><ele>1058.8</ele><time>2026-04-11T09:47:20.493Z</time></trkpt><trkpt lat="43.9988257" lon="11.540413"><ele>1058.4</ele><time>2026-04-11T09:47:22.495Z</time></trkpt><trkpt lat="43.9988052" lon="11.5405295"><ele>1058.0</ele><time>2026-04-11T09:47:23.493Z</time></trkpt><trkpt lat="43.9987802" lon="11.5406383"><ele>1058.0</ele><time>2026-04-11T09:47:24.496Z</time></trkpt><trkpt lat="43.9987565" lon="11.5407355"><ele>1058.0</ele><time>2026-04-11T09:47:25.491Z</time></trkpt><trkpt lat="43.9987462" lon="11.5408912"><ele>1058.0</ele><time>2026-04-11T09:47:27.491Z</time></trkpt><trkpt lat="43.9987475" lon="11.5410093"><ele>1058.0</ele><time>2026-04-11T09:47:29.491Z</time></trkpt><trkpt lat="43.9987147" lon="11.5411238"><ele>1058.0</ele><time>2026-04-11T09:47:31.492Z</time></trkpt><trkpt lat="43.9986735" lon="11.541232"><ele>1058.0</ele><time>2026-04-11T09:47:33.493Z</time></trkpt><trkpt lat="43.9986577" lon="11.5413212"><ele>1058.1666666666667</ele><time>2026-04-11T09:47:36.491Z</time></trkpt><trkpt lat="43.9986022" lon="11.5413937"><ele>1058.3333333333335</ele><time>2026-04-11T09:47:39.492Z</time></trkpt><trkpt lat="43.998577" lon="11.5414972"><ele>1058.5</ele><time>2026-04-11T09:47:42.494Z</time></trkpt><trkpt lat="43.9985782" lon="11.541608"><ele>1058.6666666666667</ele><time>2026-04-11T09:47:46.491Z</time></trkpt><trkpt lat="43.9985882" lon="11.541711"><ele>1058.8333333333333</ele><time>2026-04-11T09:47:49.492Z</time></trkpt><trkpt lat="43.9985938" lon="11.5418162"><ele>1059.0</ele><time>2026-04-11T09:47:52.49Z</time></trkpt><trkpt lat="43.9985605" lon="11.5419107"><ele>1059.0</ele><time>2026-04-11T09:47:56.492Z</time></trkpt><trkpt lat="43.9985265" lon="11.5419927"><ele>1059.0</ele><time>2026-04-11T09:47:58.491Z</time></trkpt><trkpt lat="43.9984862" lon="11.5421055"><ele>1059.0</ele><time>2026-04-11T09:48:00.493Z</time></trkpt><trkpt lat="43.9984397" lon="11.5422218"><ele>1059.0</ele><time>2026-04-11T09:48:02.493Z</time></trkpt><trkpt lat="43.9983935" lon="11.5423237"><ele>1059.0</ele><time>2026-04-11T09:48:04.493Z</time></trkpt><trkpt lat="43.9983538" lon="11.542392"><ele>1059.0</ele><time>2026-04-11T09:48:06.493Z</time></trkpt><trkpt lat="43.9983118" lon="11.5424653"><ele>1061.8</ele><time>2026-04-11T09:48:08.494Z</time></trkpt><trkpt lat="43.9982707" lon="11.5425643"><ele>1064.6000000000001</ele><time>2026-04-11T09:48:11.494Z</time></trkpt><trkpt lat="43.9982173" lon="11.542669"><ele>1067.4</ele><time>2026-04-11T09:48:13.494Z</time></trkpt><trkpt lat="43.998146" lon="11.5427653"><ele>1070.2</ele><time>2026-04-11T09:48:15.491Z</time></trkpt><trkpt lat="43.9980642" lon="11.5428573"><ele>1073.0</ele><time>2026-04-11T09:48:17.491Z</time></trkpt><trkpt lat="43.9979787" lon="11.5429472"><ele>1073.0</ele><time>2026-04-11T09:48:19.492Z</time></trkpt><trkpt lat="43.9978872" lon="11.543035"><ele>1073.0</ele><time>2026-04-11T09:48:21.492Z</time></trkpt><trkpt lat="43.9978498" lon="11.543133"><ele>1073.0</ele><time>2026-04-11T09:48:23.491Z</time></trkpt><trkpt lat="43.9978022" lon="11.5432377"><ele>1073.0</ele><time>2026-04-11T09:48:26.489Z</time></trkpt><trkpt lat="43.9977807" lon="11.5433337"><ele>1073.0</ele><time>2026-04-11T09:48:28.493Z</time></trkpt><trkpt lat="43.9977617" lon="11.543443"><ele>1073.0</ele><time>2026-04-11T09:48:30.492Z</time></trkpt><trkpt lat="43.9977455" lon="11.5435365"><ele>1073.0</ele><time>2026-04-11T09:48:32.491Z</time></trkpt><trkpt lat="43.9977072" lon="11.5436432"><ele>1073.0</ele><time>2026-04-11T09:48:34.492Z</time></trkpt><trkpt lat="43.997694" lon="11.54374"><ele>1073.0</ele><time>2026-04-11T09:48:36.491Z</time></trkpt><trkpt lat="43.9977013" lon="11.5438522"><ele>1073.0</ele><time>2026-04-11T09:48:38.492Z</time></trkpt><trkpt lat="43.9976972" lon="11.5439713"><ele>1073.0</ele><time>2026-04-11T09:48:40.49Z</time></trkpt><trkpt lat="43.9976695" lon="11.5440665"><ele>1073.0</ele><time>2026-04-11T09:48:43.492Z</time></trkpt><trkpt lat="43.9976382" lon="11.5441502"><ele>1073.3333333333335</ele><time>2026-04-11T09:48:45.491Z</time></trkpt><trkpt lat="43.9976128" lon="11.54424"><ele>1073.6666666666667</ele><time>2026-04-11T09:48:47.493Z</time></trkpt><trkpt lat="43.9975708" lon="11.5443393"><ele>1074.0</ele><time>2026-04-11T09:48:49.492Z</time></trkpt><trkpt lat="43.997535" lon="11.5444478"><ele>1074.3333333333333</ele><time>2026-04-11T09:48:51.493Z</time></trkpt><trkpt lat="43.9975058" lon="11.5445875"><ele>1074.6666666666665</ele><time>2026-04-11T09:48:53.493Z</time></trkpt><trkpt lat="43.9974825" lon="11.5446793"><ele>1075.0</ele><time>2026-04-11T09:48:54.492Z</time></trkpt><trkpt lat="43.9974475" lon="11.5447857"><ele>1075.0</ele><time>2026-04-11T09:48:55.495Z</time></trkpt><trkpt lat="43.997423" lon="11.544897"><ele>1075.0</ele><time>2026-04-11T09:48:56.493Z</time></trkpt><trkpt lat="43.9974035" lon="11.5450198"><ele>1075.0</ele><time>2026-04-11T09:48:57.492Z</time></trkpt><trkpt lat="43.9973805" lon="11.545134"><ele>1075.0</ele><time>2026-04-11T09:48:58.493Z</time></trkpt><trkpt lat="43.9973563" lon="11.545238"><ele>1075.0</ele><time>2026-04-11T09:48:59.494Z</time></trkpt><trkpt lat="43.997334" lon="11.5453323"><ele>1075.0</ele><time>2026-04-11T09:49:00.492Z</time></trkpt><trkpt lat="43.997307" lon="11.545417"><ele>1074.6</ele><time>2026-04-11T09:49:01.492Z</time></trkpt><trkpt lat="43.9972555" lon="11.5455513"><ele>1074.2</ele><time>2026-04-11T09:49:03.491Z</time></trkpt><trkpt lat="43.9972208" lon="11.5456517"><ele>1073.8</ele><time>2026-04-11T09:49:12.491Z</time></trkpt><trkpt lat="43.9971867" lon="11.5457453"><ele>1073.4</ele><time>2026-04-11T09:49:14.492Z</time></trkpt><trkpt lat="43.997148" lon="11.5458863"><ele>1073.0</ele><time>2026-04-11T09:49:16.491Z</time></trkpt><trkpt lat="43.997113" lon="11.5460207"><ele>1073.0</ele><time>2026-04-11T09:49:18.493Z</time></trkpt><trkpt lat="43.9970707" lon="11.5461603"><ele>1073.0</ele><time>2026-04-11T09:49:20.493Z</time></trkpt><trkpt lat="43.9970328" lon="11.5463028"><ele>1073.0</ele><time>2026-04-11T09:49:22.493Z</time></trkpt><trkpt lat="43.997007" lon="11.5463845"><ele>1073.0</ele><time>2026-04-11T09:49:23.494Z</time></trkpt><trkpt lat="43.9969785" lon="11.546467"><ele>1073.0</ele><time>2026-04-11T09:49:24.494Z</time></trkpt><trkpt lat="43.99695" lon="11.54655"><ele>1073.0</ele><time>2026-04-11T09:49:25.496Z</time></trkpt><trkpt lat="43.9969212" lon="11.5466402"><ele>1073.0</ele><time>2026-04-11T09:49:26.495Z</time></trkpt><trkpt lat="43.9968942" lon="11.5467298"><ele>1073.0</ele><time>2026-04-11T09:49:27.495Z</time></trkpt><trkpt lat="43.9968712" lon="11.5468173"><ele>1073.0</ele><time>2026-04-11T09:49:28.491Z</time></trkpt><trkpt lat="43.9968537" lon="11.5469077"><ele>1073.0</ele><time>2026-04-11T09:49:29.492Z</time></trkpt><trkpt lat="43.9968367" lon="11.5469923"><ele>1073.0</ele><time>2026-04-11T09:49:30.491Z</time></trkpt><trkpt lat="43.9967827" lon="11.547117"><ele>1073.0</ele><time>2026-04-11T09:49:32.49Z</time></trkpt><trkpt lat="43.9966958" lon="11.5472235"><ele>1076.0</ele><time>2026-04-11T09:49:34.491Z</time></trkpt><trkpt lat="43.9966503" lon="11.5472892"><ele>1079.0</ele><time>2026-04-11T09:49:35.493Z</time></trkpt><trkpt lat="43.9966055" lon="11.5473565"><ele>1082.0</ele><time>2026-04-11T09:49:36.492Z</time></trkpt><trkpt lat="43.9965638" lon="11.5474548"><ele>1085.0</ele><time>2026-04-11T09:49:38.493Z</time></trkpt><trkpt lat="43.9965388" lon="11.5475527"><ele>1088.0</ele><time>2026-04-11T09:49:42.491Z</time></trkpt><trkpt lat="43.9964882" lon="11.5476467"><ele>1091.0</ele><time>2026-04-11T09:49:46.491Z</time></trkpt><trkpt lat="43.9964192" lon="11.5477193"><ele>1091.0</ele><time>2026-04-11T09:49:49.492Z</time></trkpt><trkpt lat="43.9963642" lon="11.54779"><ele>1091.0</ele><time>2026-04-11T09:49:51.492Z</time></trkpt><trkpt lat="43.9963067" lon="11.5478985"><ele>1091.0</ele><time>2026-04-11T09:49:54.489Z</time></trkpt><trkpt lat="43.9962668" lon="11.5479808"><ele>1091.0</ele><time>2026-04-11T09:49:56.49Z</time></trkpt><trkpt lat="43.9962145" lon="11.548071"><ele>1091.0</ele><time>2026-04-11T09:49:58.491Z</time></trkpt><trkpt lat="43.9961592" lon="11.5481457"><ele>1091.0</ele><time>2026-04-11T09:50:00.491Z</time></trkpt><trkpt lat="43.9961022" lon="11.5481885"><ele>1089.7142857142858</ele><time>2026-04-11T09:50:02.49Z</time></trkpt><trkpt lat="43.9960507" lon="11.5482427"><ele>1088.4285714285716</ele><time>2026-04-11T09:50:04.49Z</time></trkpt><trkpt lat="43.9959845" lon="11.5483187"><ele>1087.1428571428573</ele><time>2026-04-11T09:50:07.492Z</time></trkpt><trkpt lat="43.9959355" lon="11.5483793"><ele>1085.857142857143</ele><time>2026-04-11T09:50:09.491Z</time></trkpt><trkpt lat="43.9958758" lon="11.5484558"><ele>1084.5714285714287</ele><time>2026-04-11T09:50:12.493Z</time></trkpt><trkpt lat="43.9958282" lon="11.548523"><ele>1083.2857142857144</ele><time>2026-04-11T09:50:16.492Z</time></trkpt><trkpt lat="43.9957778" lon="11.5485955"><ele>1082.0</ele><time>2026-04-11T09:50:20.489Z</time></trkpt><trkpt lat="43.9957422" lon="11.5487138"><ele>1081.0</ele><time>2026-04-11T09:50:23.492Z</time></trkpt><trkpt lat="43.9957115" lon="11.548826"><ele>1080.0</ele><time>2026-04-11T09:50:26.492Z</time></trkpt><trkpt lat="43.9956618" lon="11.5489362"><ele>1079.0</ele><time>2026-04-11T09:50:46.494Z</time></trkpt><trkpt lat="43.9956558" lon="11.549038"><ele>1078.0</ele><time>2026-04-11T09:50:49.491Z</time></trkpt><trkpt lat="43.9956645" lon="11.549146"><ele>1077.0</ele><time>2026-04-11T09:50:51.491Z</time></trkpt><trkpt lat="43.9956615" lon="11.5492367"><ele>1076.0</ele><time>2026-04-11T09:50:53.49Z</time></trkpt><trkpt lat="43.9956212" lon="11.5494217"><ele>1073.3999999999999</ele><time>2026-04-11T09:50:58.49Z</time></trkpt><trkpt lat="43.9956065" lon="11.5495895"><ele>1070.8</ele><time>2026-04-11T09:51:03.492Z</time></trkpt><trkpt lat="43.9956032" lon="11.5497492"><ele>1068.1999999999998</ele><time>2026-04-11T09:51:07.49Z</time></trkpt><trkpt lat="43.9955317" lon="11.549856"><ele>1065.6</ele><time>2026-04-11T09:51:12.491Z</time></trkpt><trkpt lat="43.9954772" lon="11.549934"><ele>1063.0</ele><time>2026-04-11T09:51:15.49Z</time></trkpt><trkpt lat="43.9954238" lon="11.549995"><ele>1063.0</ele><time>2026-04-11T09:51:18.492Z</time></trkpt><trkpt lat="43.995364" lon="11.5500913"><ele>1063.0</ele><time>2026-04-11T09:51:22.49Z</time></trkpt><trkpt lat="43.9953202" lon="11.5501792"><ele>1063.0</ele><time>2026-04-11T09:52:16.492Z</time></trkpt><trkpt lat="43.9952758" lon="11.5503152"><ele>1063.0</ele><time>2026-04-11T09:53:53.489Z</time></trkpt><trkpt lat="43.9951945" lon="11.550378"><ele>1063.0</ele><time>2026-04-11T09:54:28.489Z</time></trkpt><trkpt lat="43.9952398" lon="11.5504563"><ele>1063.0</ele><time>2026-04-11T09:54:36.49Z</time></trkpt><trkpt lat="43.9952688" lon="11.5505378"><ele>1061.0</ele><time>2026-04-11T09:54:40.496Z</time></trkpt><trkpt lat="43.9952683" lon="11.5506275"><ele>1059.0</ele><time>2026-04-11T09:54:43.489Z</time></trkpt><trkpt lat="43.995306" lon="11.5507137"><ele>1057.0</ele><time>2026-04-11T09:54:46.488Z</time></trkpt><trkpt lat="43.995354" lon="11.5508188"><ele>1055.0</ele><time>2026-04-11T09:54:51.49Z</time></trkpt><trkpt lat="43.9953975" lon="11.5508983"><ele>1053.0</ele><time>2026-04-11T09:54:57.491Z</time></trkpt><trkpt lat="43.9954293" lon="11.5509793"><ele>1051.0</ele><time>2026-04-11T09:55:20.488Z</time></trkpt><trkpt lat="43.9954557" lon="11.5510688"><ele>1049.0</ele><time>2026-04-11T09:55:24.49Z</time></trkpt><trkpt lat="43.9955015" lon="11.5511327"><ele>1047.3333333333335</ele><time>2026-04-11T09:55:27.49Z</time></trkpt><trkpt lat="43.9955427" lon="11.5512437"><ele>1045.6666666666667</ele><time>2026-04-11T09:55:30.49Z</time></trkpt><trkpt lat="43.9956255" lon="11.5513188"><ele>1044.0</ele><time>2026-04-11T09:55:35.49Z</time></trkpt><trkpt lat="43.9956468" lon="11.551423"><ele>1042.3333333333333</ele><time>2026-04-11T09:55:38.488Z</time></trkpt><trkpt lat="43.9956752" lon="11.5515122"><ele>1040.6666666666665</ele><time>2026-04-11T09:55:41.492Z</time></trkpt><trkpt lat="43.9956235" lon="11.5515992"><ele>1039.0</ele><time>2026-04-11T09:55:44.49Z</time></trkpt><trkpt lat="43.9955637" lon="11.5516507"><ele>1039.0</ele><time>2026-04-11T09:55:46.491Z</time></trkpt><trkpt lat="43.9955145" lon="11.5518158"><ele>1039.0</ele><time>2026-04-11T09:55:49.49Z</time></trkpt><trkpt lat="43.9954918" lon="11.5519478"><ele>1039.0</ele><time>2026-04-11T09:55:51.49Z</time></trkpt><trkpt lat="43.995449" lon="11.552061"><ele>1039.0</ele><time>2026-04-11T09:55:54.491Z</time></trkpt><trkpt lat="43.9954395" lon="11.5521827"><ele>1039.0</ele><time>2026-04-11T09:55:57.49Z</time></trkpt><trkpt lat="43.9954103" lon="11.5522728"><ele>1038.4</ele><time>2026-04-11T09:56:02.487Z</time></trkpt><trkpt lat="43.9953155" lon="11.5523217"><ele>1037.8000000000002</ele><time>2026-04-11T09:56:08.491Z</time></trkpt><trkpt lat="43.995253" lon="11.5523325"><ele>1037.1999999999998</ele><time>2026-04-11T09:56:10.491Z</time></trkpt><trkpt lat="43.9951822" lon="11.5524008"><ele>1036.6</ele><time>2026-04-11T09:56:13.488Z</time></trkpt><trkpt lat="43.9950708" lon="11.5524912"><ele>1036.0</ele><time>2026-04-11T09:56:16.488Z</time></trkpt><trkpt lat="43.9950137" lon="11.5526413"><ele>1036.8</ele><time>2026-04-11T09:56:20.491Z</time></trkpt><trkpt lat="43.994923" lon="11.5526837"><ele>1037.6</ele><time>2026-04-11T09:56:23.491Z</time></trkpt><trkpt lat="43.9948522" lon="11.5527995"><ele>1038.4</ele><time>2026-04-11T09:56:26.487Z</time></trkpt><trkpt lat="43.9948073" lon="11.5529233"><ele>1039.2</ele><time>2026-04-11T09:56:29.489Z</time></trkpt><trkpt lat="43.9947683" lon="11.5530222"><ele>1040.0</ele><time>2026-04-11T09:56:31.488Z</time></trkpt><trkpt lat="43.9947323" lon="11.5531178"><ele>1040.0</ele><time>2026-04-11T09:56:33.489Z</time></trkpt><trkpt lat="43.9946878" lon="11.5532943"><ele>1040.0</ele><time>2026-04-11T09:56:36.488Z</time></trkpt><trkpt lat="43.9946555" lon="11.5534247"><ele>1040.0</ele><time>2026-04-11T09:56:38.49Z</time></trkpt><trkpt lat="43.9946045" lon="11.553598"><ele>1040.0</ele><time>2026-04-11T09:56:41.491Z</time></trkpt><trkpt lat="43.9945087" lon="11.5537285"><ele>1038.0</ele><time>2026-04-11T09:56:45.489Z</time></trkpt><trkpt lat="43.994456" lon="11.5538423"><ele>1036.0</ele><time>2026-04-11T09:56:48.49Z</time></trkpt><trkpt lat="43.9944015" lon="11.5539447"><ele>1034.0</ele><time>2026-04-11T09:56:51.489Z</time></trkpt><trkpt lat="43.994345" lon="11.5540288"><ele>1032.0</ele><time>2026-04-11T09:56:54.491Z</time></trkpt><trkpt lat="43.9942723" lon="11.5542195"><ele>1030.0</ele><time>2026-04-11T09:56:58.49Z</time></trkpt><trkpt lat="43.9942315" lon="11.5542903"><ele>1025.8</ele><time>2026-04-11T09:57:01.491Z</time></trkpt><trkpt lat="43.9941488" lon="11.5543673"><ele>1021.6</ele><time>2026-04-11T09:57:06.49Z</time></trkpt><trkpt lat="43.9941193" lon="11.5544865"><ele>1017.4000000000001</ele><time>2026-04-11T09:57:09.489Z</time></trkpt><trkpt lat="43.9940988" lon="11.554585"><ele>1013.2</ele><time>2026-04-11T09:57:11.49Z</time></trkpt><trkpt lat="43.9940593" lon="11.554697"><ele>1009.0</ele><time>2026-04-11T09:57:14.487Z</time></trkpt><trkpt lat="43.9939978" lon="11.5548108"><ele>1007.0</ele><time>2026-04-11T09:57:17.489Z</time></trkpt><trkpt lat="43.993945" lon="11.5549137"><ele>1005.0</ele><time>2026-04-11T09:57:19.49Z</time></trkpt><trkpt lat="43.9937998" lon="11.555094"><ele>1003.0</ele><time>2026-04-11T09:57:23.49Z</time></trkpt><trkpt lat="43.9937168" lon="11.5551358"><ele>1001.0</ele><time>2026-04-11T09:57:25.49Z</time></trkpt><trkpt lat="43.9936295" lon="11.5552148"><ele>1001.0</ele><time>2026-04-11T09:57:28.491Z</time></trkpt><trkpt lat="43.993533" lon="11.555296"><ele>1000.9999999999999</ele><time>2026-04-11T09:57:32.491Z</time></trkpt><trkpt lat="43.9934358" lon="11.5553307"><ele>1000.9999999999999</ele><time>2026-04-11T09:57:37.491Z</time></trkpt><trkpt lat="43.9933312" lon="11.5553577"><ele>1001.0</ele><time>2026-04-11T09:57:43.49Z</time></trkpt><trkpt lat="43.9932708" lon="11.5554173"><ele>1001.0</ele><time>2026-04-11T09:57:46.491Z</time></trkpt><trkpt lat="43.9932073" lon="11.5555087"><ele>1000.8333333333334</ele><time>2026-04-11T09:57:49.491Z</time></trkpt><trkpt lat="43.9931595" lon="11.5555808"><ele>1000.6666666666667</ele><time>2026-04-11T09:57:52.49Z</time></trkpt><trkpt lat="43.993102" lon="11.5556243"><ele>1000.5</ele><time>2026-04-11T09:57:55.49Z</time></trkpt><trkpt lat="43.9930225" lon="11.5556755"><ele>1000.3333333333333</ele><time>2026-04-11T09:57:58.491Z</time></trkpt><trkpt lat="43.9929505" lon="11.5557602"><ele>1000.1666666666666</ele><time>2026-04-11T09:58:01.488Z</time></trkpt><trkpt lat="43.9928743" lon="11.5558033"><ele>1000.0</ele><time>2026-04-11T09:58:03.487Z</time></trkpt><trkpt lat="43.9928157" lon="11.5558508"><ele>1000.0</ele><time>2026-04-11T09:58:05.489Z</time></trkpt><trkpt lat="43.9927683" lon="11.5559165"><ele>1000.0</ele><time>2026-04-11T09:58:07.49Z</time></trkpt><trkpt lat="43.9927027" lon="11.556027"><ele>1000.0</ele><time>2026-04-11T09:58:10.49Z</time></trkpt><trkpt lat="43.9926453" lon="11.5561108"><ele>1000.0</ele><time>2026-04-11T09:58:12.489Z</time></trkpt><trkpt lat="43.9925508" lon="11.556174"><ele>1000.0</ele><time>2026-04-11T09:58:15.488Z</time></trkpt><trkpt lat="43.9924488" lon="11.5562338"><ele>998.9999999999999</ele><time>2026-04-11T09:58:18.49Z</time></trkpt><trkpt lat="43.9923777" lon="11.5563207"><ele>998.0</ele><time>2026-04-11T09:58:21.491Z</time></trkpt><trkpt lat="43.9923428" lon="11.5564463"><ele>997.0</ele><time>2026-04-11T09:58:24.49Z</time></trkpt><trkpt lat="43.9923222" lon="11.5565602"><ele>996.0</ele><time>2026-04-11T09:58:28.489Z</time></trkpt><trkpt lat="43.9923173" lon="11.556649"><ele>994.9999999999999</ele><time>2026-04-11T09:58:32.491Z</time></trkpt><trkpt lat="43.9922903" lon="11.556742"><ele>994.0</ele><time>2026-04-11T09:58:45.491Z</time></trkpt><trkpt lat="43.99223" lon="11.5568252"><ele>994.0</ele><time>2026-04-11T09:59:02.493Z</time></trkpt><trkpt lat="43.9922168" lon="11.5569763"><ele>994.0000000000001</ele><time>2026-04-11T09:59:07.491Z</time></trkpt><trkpt lat="43.9922052" lon="11.5570818"><ele>994.0000000000001</ele><time>2026-04-11T09:59:10.492Z</time></trkpt><trkpt lat="43.9921912" lon="11.5571715"><ele>994.0</ele><time>2026-04-11T09:59:13.491Z</time></trkpt><trkpt lat="43.992178" lon="11.5572803"><ele>994.0</ele><time>2026-04-11T09:59:16.491Z</time></trkpt><trkpt lat="43.9921242" lon="11.5574397"><ele>991.6</ele><time>2026-04-11T09:59:20.492Z</time></trkpt><trkpt lat="43.9920573" lon="11.5576518"><ele>989.2</ele><time>2026-04-11T09:59:23.493Z</time></trkpt><trkpt lat="43.9919632" lon="11.5577955"><ele>986.8000000000001</ele><time>2026-04-11T09:59:26.493Z</time></trkpt><trkpt lat="43.9919062" lon="11.5578567"><ele>984.4000000000001</ele><time>2026-04-11T09:59:29.493Z</time></trkpt><trkpt lat="43.9918598" lon="11.5579175"><ele>982.0</ele><time>2026-04-11T09:59:31.492Z</time></trkpt><trkpt lat="43.9917678" lon="11.5580615"><ele>985.75</ele><time>2026-04-11T09:59:34.49Z</time></trkpt><trkpt lat="43.9917185" lon="11.558155"><ele>989.5</ele><time>2026-04-11T09:59:36.491Z</time></trkpt><trkpt lat="43.9916117" lon="11.55835"><ele>993.25</ele><time>2026-04-11T09:59:40.49Z</time></trkpt><trkpt lat="43.9915323" lon="11.558468"><ele>997.0</ele><time>2026-04-11T09:59:43.488Z</time></trkpt><trkpt lat="43.9914107" lon="11.5586348"><ele>996.8</ele><time>2026-04-11T09:59:47.491Z</time></trkpt><trkpt lat="43.991266" lon="11.5587148"><ele>996.6</ele><time>2026-04-11T09:59:50.49Z</time></trkpt><trkpt lat="43.9912057" lon="11.5587593"><ele>996.3999999999999</ele><time>2026-04-11T09:59:52.491Z</time></trkpt><trkpt lat="43.9911452" lon="11.5587992"><ele>996.1999999999999</ele><time>2026-04-11T09:59:55.49Z</time></trkpt><trkpt lat="43.9910828" lon="11.5588943"><ele>996.0</ele><time>2026-04-11T09:59:58.489Z</time></trkpt><trkpt lat="43.9910205" lon="11.5589977"><ele>996.0</ele><time>2026-04-11T10:00:01.491Z</time></trkpt><trkpt lat="43.9909842" lon="11.5591455"><ele>996.0</ele><time>2026-04-11T10:00:04.49Z</time></trkpt><trkpt lat="43.9909398" lon="11.5593668"><ele>996.0</ele><time>2026-04-11T10:00:07.49Z</time></trkpt><trkpt lat="43.9908842" lon="11.5595575"><ele>996.0</ele><time>2026-04-11T10:00:09.491Z</time></trkpt><trkpt lat="43.9908433" lon="11.5596538"><ele>999.6666666666667</ele><time>2026-04-11T10:00:10.494Z</time></trkpt><trkpt lat="43.9907537" lon="11.5598458"><ele>1003.3333333333334</ele><time>2026-04-11T10:00:12.492Z</time></trkpt><trkpt lat="43.9906233" lon="11.5601273"><ele>1007.0</ele><time>2026-04-11T10:00:15.491Z</time></trkpt><trkpt lat="43.9905397" lon="11.5603637"><ele>1007.25</ele><time>2026-04-11T10:00:18.492Z</time></trkpt><trkpt lat="43.9904842" lon="11.5605265"><ele>1007.5</ele><time>2026-04-11T10:00:20.494Z</time></trkpt><trkpt lat="43.9903725" lon="11.5606248"><ele>1007.75</ele><time>2026-04-11T10:00:23.493Z</time></trkpt><trkpt lat="43.9902685" lon="11.5608102"><ele>1008.0</ele><time>2026-04-11T10:00:26.492Z</time></trkpt><trkpt lat="43.9902168" lon="11.5609267"><ele>1008.0</ele><time>2026-04-11T10:00:28.491Z</time></trkpt><trkpt lat="43.9901987" lon="11.5611512"><ele>1008.0</ele><time>2026-04-11T10:00:31.496Z</time></trkpt><trkpt lat="43.9902055" lon="11.561254"><ele>1008.0</ele><time>2026-04-11T10:00:32.49Z</time></trkpt><trkpt lat="43.9901763" lon="11.5614263"><ele>1008.0</ele><time>2026-04-11T10:00:34.492Z</time></trkpt><trkpt lat="43.9901428" lon="11.5615025"><ele>1008.0</ele><time>2026-04-11T10:00:35.492Z</time></trkpt><trkpt lat="43.990064" lon="11.5616637"><ele>1008.2</ele><time>2026-04-11T10:00:37.498Z</time></trkpt><trkpt lat="43.9900192" lon="11.561734"><ele>1008.4</ele><time>2026-04-11T10:00:38.496Z</time></trkpt><trkpt lat="43.9899335" lon="11.5619165"><ele>1008.6000000000001</ele><time>2026-04-11T10:00:41.497Z</time></trkpt><trkpt lat="43.9899007" lon="11.5620742"><ele>1008.8000000000001</ele><time>2026-04-11T10:00:43.493Z</time></trkpt><trkpt lat="43.9898897" lon="11.5621638"><ele>1009.0</ele><time>2026-04-11T10:00:44.493Z</time></trkpt><trkpt lat="43.9898783" lon="11.5623263"><ele>1008.0</ele><time>2026-04-11T10:00:46.492Z</time></trkpt><trkpt lat="43.9898635" lon="11.5624503"><ele>1007.0000000000001</ele><time>2026-04-11T10:00:49.493Z</time></trkpt><trkpt lat="43.9898242" lon="11.5625338"><ele>1006.0000000000001</ele><time>2026-04-11T10:00:51.492Z</time></trkpt><trkpt lat="43.9897445" lon="11.5626355"><ele>1005.0</ele><time>2026-04-11T10:00:53.493Z</time></trkpt><trkpt lat="43.9896403" lon="11.5627387"><ele>1004.0</ele><time>2026-04-11T10:00:55.49Z</time></trkpt><trkpt lat="43.9895848" lon="11.5627837"><ele>1004.0</ele><time>2026-04-11T10:00:56.491Z</time></trkpt><trkpt lat="43.989468" lon="11.5628528"><ele>1004.0</ele><time>2026-04-11T10:00:58.491Z</time></trkpt><trkpt lat="43.9892592" lon="11.5629618"><ele>1004.0</ele><time>2026-04-11T10:01:01.494Z</time></trkpt><trkpt lat="43.9891812" lon="11.5630062"><ele>1004.0</ele><time>2026-04-11T10:01:02.493Z</time></trkpt><trkpt lat="43.9890485" lon="11.5631153"><ele>999.5</ele><time>2026-04-11T10:01:04.498Z</time></trkpt><trkpt lat="43.988999" lon="11.563183"><ele>995.0</ele><time>2026-04-11T10:01:05.494Z</time></trkpt><trkpt lat="43.9889275" lon="11.5633325"><ele>990.5</ele><time>2026-04-11T10:01:07.493Z</time></trkpt><trkpt lat="43.9889022" lon="11.5634213"><ele>986.0</ele><time>2026-04-11T10:01:08.493Z</time></trkpt><trkpt lat="43.9888383" lon="11.563717"><ele>984.0</ele><time>2026-04-11T10:01:11.494Z</time></trkpt><trkpt lat="43.988756" lon="11.5638923"><ele>982.0</ele><time>2026-04-11T10:01:13.494Z</time></trkpt><trkpt lat="43.9886362" lon="11.5640293"><ele>980.0</ele><time>2026-04-11T10:01:16.493Z</time></trkpt><trkpt lat="43.9884495" lon="11.5643322"><ele>983.0</ele><time>2026-04-11T10:01:20.492Z</time></trkpt><trkpt lat="43.9883052" lon="11.5644662"><ele>986.0</ele><time>2026-04-11T10:01:22.49Z</time></trkpt><trkpt lat="43.9882145" lon="11.5645283"><ele>989.0</ele><time>2026-04-11T10:01:23.491Z</time></trkpt><trkpt lat="43.9880332" lon="11.5646402"><ele>989.0</ele><time>2026-04-11T10:01:25.494Z</time></trkpt><trkpt lat="43.9879417" lon="11.5646655"><ele>989.0</ele><time>2026-04-11T10:01:26.493Z</time></trkpt><trkpt lat="43.9877365" lon="11.564702"><ele>989.0</ele><time>2026-04-11T10:01:29.492Z</time></trkpt><trkpt lat="43.9875255" lon="11.5647633"><ele>992.0</ele><time>2026-04-11T10:01:32.492Z</time></trkpt><trkpt lat="43.9873063" lon="11.5647932"><ele>995.0</ele><time>2026-04-11T10:01:34.492Z</time></trkpt><trkpt lat="43.9871928" lon="11.5647822"><ele>998.0</ele><time>2026-04-11T10:01:35.492Z</time></trkpt><trkpt lat="43.9870833" lon="11.5647673"><ele>1001.0</ele><time>2026-04-11T10:01:36.492Z</time></trkpt><trkpt lat="43.9869868" lon="11.5647702"><ele>1001.0</ele><time>2026-04-11T10:01:37.492Z</time></trkpt><trkpt lat="43.9867505" lon="11.5648527"><ele>1001.0</ele><time>2026-04-11T10:01:40.492Z</time></trkpt><trkpt lat="43.9865297" lon="11.5649343"><ele>1000.6666666666667</ele><time>2026-04-11T10:01:43.491Z</time></trkpt><trkpt lat="43.986385" lon="11.5649763"><ele>1000.3333333333333</ele><time>2026-04-11T10:01:45.493Z</time></trkpt><trkpt lat="43.9861515" lon="11.5649422"><ele>1000.0</ele><time>2026-04-11T10:01:48.491Z</time></trkpt><trkpt lat="43.9860862" lon="11.5649087"><ele>1000.0</ele><time>2026-04-11T10:01:49.49Z</time></trkpt><trkpt lat="43.9859567" lon="11.5648947"><ele>1000.0</ele><time>2026-04-11T10:01:51.49Z</time></trkpt><trkpt lat="43.9857942" lon="11.5649247"><ele>1000.0</ele><time>2026-04-11T10:01:53.492Z</time></trkpt><trkpt lat="43.9857142" lon="11.5649235"><ele>1000.0</ele><time>2026-04-11T10:01:54.491Z</time></trkpt><trkpt lat="43.9856365" lon="11.5649102"><ele>1004.5</ele><time>2026-04-11T10:01:55.492Z</time></trkpt><trkpt lat="43.9855698" lon="11.5648892"><ele>1009.0</ele><time>2026-04-11T10:01:56.491Z</time></trkpt><trkpt lat="43.9854065" lon="11.5647703"><ele>1013.5</ele><time>2026-04-11T10:01:59.491Z</time></trkpt><trkpt lat="43.985232" lon="11.5647718"><ele>1018.0</ele><time>2026-04-11T10:02:02.491Z</time></trkpt><trkpt lat="43.98513" lon="11.564839"><ele>1018.0</ele><time>2026-04-11T10:02:04.491Z</time></trkpt><trkpt lat="43.9850455" lon="11.5649717"><ele>1018.0</ele><time>2026-04-11T10:02:06.491Z</time></trkpt><trkpt lat="43.9849977" lon="11.5650375"><ele>1018.0</ele><time>2026-04-11T10:02:07.491Z</time></trkpt><trkpt lat="43.9848693" lon="11.5651188"><ele>1018.0</ele><time>2026-04-11T10:02:09.489Z</time></trkpt><trkpt lat="43.9847062" lon="11.565153"><ele>1020.25</ele><time>2026-04-11T10:02:11.49Z</time></trkpt><trkpt lat="43.984642" lon="11.5651707"><ele>1022.5</ele><time>2026-04-11T10:02:12.491Z</time></trkpt><trkpt lat="43.9845755" lon="11.565197"><ele>1024.75</ele><time>2026-04-11T10:02:13.491Z</time></trkpt><trkpt lat="43.9843997" lon="11.5653065"><ele>1027.0</ele><time>2026-04-11T10:02:16.492Z</time></trkpt><trkpt lat="43.9842618" lon="11.5655713"><ele>1028.5</ele><time>2026-04-11T10:02:19.49Z</time></trkpt><trkpt lat="43.9841803" lon="11.5657407"><ele>1030.0</ele><time>2026-04-11T10:02:21.49Z</time></trkpt><trkpt lat="43.984134" lon="11.565813"><ele>1031.5</ele><time>2026-04-11T10:02:22.491Z</time></trkpt><trkpt lat="43.984048" lon="11.5660612"><ele>1033.0</ele><time>2026-04-11T10:02:25.491Z</time></trkpt><trkpt lat="43.9839353" lon="11.5662388"><ele>1034.0</ele><time>2026-04-11T10:02:28.491Z</time></trkpt><trkpt lat="43.983854" lon="11.5663712"><ele>1035.0</ele><time>2026-04-11T10:02:30.49Z</time></trkpt><trkpt lat="43.983797" lon="11.5664337"><ele>1036.0</ele><time>2026-04-11T10:02:31.489Z</time></trkpt><trkpt lat="43.9836472" lon="11.5665568"><ele>1037.0</ele><time>2026-04-11T10:02:33.49Z</time></trkpt><trkpt lat="43.9835653" lon="11.5666493"><ele>1037.0</ele><time>2026-04-11T10:02:34.489Z</time></trkpt><trkpt lat="43.9834495" lon="11.5668545"><ele>1037.0</ele><time>2026-04-11T10:02:36.492Z</time></trkpt><trkpt lat="43.983402" lon="11.5669507"><ele>1037.0</ele><time>2026-04-11T10:02:37.492Z</time></trkpt><trkpt lat="43.983244" lon="11.567187"><ele>1038.0</ele><time>2026-04-11T10:02:40.492Z</time></trkpt><trkpt lat="43.9830978" lon="11.567295"><ele>1039.0</ele><time>2026-04-11T10:02:43.492Z</time></trkpt><trkpt lat="43.9830317" lon="11.5674185"><ele>1040.0</ele><time>2026-04-11T10:02:45.492Z</time></trkpt><trkpt lat="43.98299" lon="11.5676272"><ele>1041.0</ele><time>2026-04-11T10:02:47.493Z</time></trkpt><trkpt lat="43.9829785" lon="11.5677485"><ele>1041.6666666666667</ele><time>2026-04-11T10:02:48.491Z</time></trkpt><trkpt lat="43.9829205" lon="11.5679938"><ele>1042.3333333333335</ele><time>2026-04-11T10:02:50.49Z</time></trkpt><trkpt lat="43.9828988" lon="11.5681095"><ele>1043.0</ele><time>2026-04-11T10:02:51.49Z</time></trkpt><trkpt lat="43.9828292" lon="11.568404"><ele>1043.0</ele><time>2026-04-11T10:02:54.491Z</time></trkpt><trkpt lat="43.982746" lon="11.5685023"><ele>1043.0</ele><time>2026-04-11T10:02:56.492Z</time></trkpt><trkpt lat="43.9825523" lon="11.5685293"><ele>1043.0</ele><time>2026-04-11T10:02:59.491Z</time></trkpt><trkpt lat="43.9824848" lon="11.56854"><ele>1043.0</ele><time>2026-04-11T10:03:00.491Z</time></trkpt><trkpt lat="43.982321" lon="11.5686683"><ele>1045.5</ele><time>2026-04-11T10:03:03.492Z</time></trkpt><trkpt lat="43.9822612" lon="11.568977"><ele>1048.0</ele><time>2026-04-11T10:03:06.492Z</time></trkpt><trkpt lat="43.9821757" lon="11.5692612"><ele>1048.0</ele><time>2026-04-11T10:03:09.491Z</time></trkpt><trkpt lat="43.9821087" lon="11.5693355"><ele>1048.0</ele><time>2026-04-11T10:03:10.49Z</time></trkpt><trkpt lat="43.9820295" lon="11.5694112"><ele>1048.0</ele><time>2026-04-11T10:03:11.491Z</time></trkpt><trkpt lat="43.981946" lon="11.5694722"><ele>1048.0</ele><time>2026-04-11T10:03:12.49Z</time></trkpt><trkpt lat="43.9817127" lon="11.5696197"><ele>1048.75</ele><time>2026-04-11T10:03:15.489Z</time></trkpt><trkpt lat="43.9815183" lon="11.569636"><ele>1049.5</ele><time>2026-04-11T10:03:18.489Z</time></trkpt><trkpt lat="43.9814485" lon="11.5696168"><ele>1050.25</ele><time>2026-04-11T10:03:19.49Z</time></trkpt><trkpt lat="43.9812762" lon="11.5696533"><ele>1051.0</ele><time>2026-04-11T10:03:22.487Z</time></trkpt><trkpt lat="43.9812248" lon="11.5698598"><ele>1051.0</ele><time>2026-04-11T10:03:25.493Z</time></trkpt><trkpt lat="43.981254" lon="11.5701932"><ele>1051.0</ele><time>2026-04-11T10:03:28.489Z</time></trkpt><trkpt lat="43.9813068" lon="11.5705543"><ele>1050.25</ele><time>2026-04-11T10:03:31.488Z</time></trkpt><trkpt lat="43.9813192" lon="11.5706613"><ele>1049.5</ele><time>2026-04-11T10:03:32.488Z</time></trkpt><trkpt lat="43.981331" lon="11.5707685"><ele>1048.75</ele><time>2026-04-11T10:03:33.49Z</time></trkpt><trkpt lat="43.9813417" lon="11.5708805"><ele>1048.0</ele><time>2026-04-11T10:03:34.49Z</time></trkpt><trkpt lat="43.981418" lon="11.5712595"><ele>1048.0</ele><time>2026-04-11T10:03:37.489Z</time></trkpt><trkpt lat="43.9814788" lon="11.5717565"><ele>1048.0</ele><time>2026-04-11T10:03:40.489Z</time></trkpt><trkpt lat="43.9814442" lon="11.5721297"><ele>1048.0</ele><time>2026-04-11T10:03:43.489Z</time></trkpt><trkpt lat="43.9814082" lon="11.5722288"><ele>1048.0</ele><time>2026-04-11T10:03:44.488Z</time></trkpt><trkpt lat="43.981374" lon="11.5723267"><ele>1048.0</ele><time>2026-04-11T10:03:45.489Z</time></trkpt><trkpt lat="43.9812915" lon="11.5725932"><ele>1048.0</ele><time>2026-04-11T10:03:48.486Z</time></trkpt><trkpt lat="43.9812742" lon="11.5726792"><ele>1048.0</ele><time>2026-04-11T10:03:49.488Z</time></trkpt><trkpt lat="43.9812035" lon="11.5728555"><ele>1048.5</ele><time>2026-04-11T10:03:51.489Z</time></trkpt><trkpt lat="43.9809793" lon="11.5732113"><ele>1049.0</ele><time>2026-04-11T10:03:54.494Z</time></trkpt><trkpt lat="43.9808867" lon="11.573351"><ele>1041.5</ele><time>2026-04-11T10:03:55.491Z</time></trkpt><trkpt lat="43.9806608" lon="11.5737008"><ele>1034.0</ele><time>2026-04-11T10:03:58.492Z</time></trkpt><trkpt lat="43.9804965" lon="11.5739968"><ele>1034.0</ele><time>2026-04-11T10:04:01.49Z</time></trkpt><trkpt lat="43.9804107" lon="11.5743355"><ele>1034.0</ele><time>2026-04-11T10:04:04.49Z</time></trkpt><trkpt lat="43.9803222" lon="11.574612"><ele>1037.5</ele><time>2026-04-11T10:04:07.491Z</time></trkpt><trkpt lat="43.980139" lon="11.5748937"><ele>1041.0</ele><time>2026-04-11T10:04:10.489Z</time></trkpt><trkpt lat="43.9799012" lon="11.5751828"><ele>1036.3333333333333</ele><time>2026-04-11T10:04:13.489Z</time></trkpt><trkpt lat="43.9796848" lon="11.575464"><ele>1031.6666666666665</ele><time>2026-04-11T10:04:16.492Z</time></trkpt><trkpt lat="43.979614" lon="11.5755482"><ele>1027.0</ele><time>2026-04-11T10:04:17.493Z</time></trkpt><trkpt lat="43.9794667" lon="11.5757022"><ele>1027.0</ele><time>2026-04-11T10:04:19.493Z</time></trkpt><trkpt lat="43.97938" lon="11.575789"><ele>1027.0</ele><time>2026-04-11T10:04:20.493Z</time></trkpt><trkpt lat="43.9792188" lon="11.5759492"><ele>1027.0</ele><time>2026-04-11T10:04:22.491Z</time></trkpt><trkpt lat="43.9790722" lon="11.576213"><ele>1021.0</ele><time>2026-04-11T10:04:25.494Z</time></trkpt><trkpt lat="43.9789947" lon="11.5764602"><ele>1015.0</ele><time>2026-04-11T10:04:28.493Z</time></trkpt><trkpt lat="43.9789865" lon="11.57658"><ele>1009.0</ele><time>2026-04-11T10:04:32.495Z</time></trkpt><trkpt lat="43.979008" lon="11.5766912"><ele>1003.0</ele><time>2026-04-11T10:04:35.491Z</time></trkpt><trkpt lat="43.9790515" lon="11.5769845"><ele>1000.25</ele><time>2026-04-11T10:04:38.49Z</time></trkpt><trkpt lat="43.9790815" lon="11.5770743"><ele>997.5</ele><time>2026-04-11T10:04:39.493Z</time></trkpt><trkpt lat="43.9791738" lon="11.5772152"><ele>994.75</ele><time>2026-04-11T10:04:41.493Z</time></trkpt><trkpt lat="43.979325" lon="11.5773802"><ele>992.0</ele><time>2026-04-11T10:04:45.49Z</time></trkpt><trkpt lat="43.9794482" lon="11.5776243"><ele>1005.6666666666667</ele><time>2026-04-11T10:04:48.492Z</time></trkpt><trkpt lat="43.9794388" lon="11.5779342"><ele>1019.3333333333333</ele><time>2026-04-11T10:04:51.489Z</time></trkpt><trkpt lat="43.9793938" lon="11.5782242"><ele>1033.0</ele><time>2026-04-11T10:04:54.49Z</time></trkpt><trkpt lat="43.9794005" lon="11.5783363"><ele>1033.0</ele><time>2026-04-11T10:04:55.49Z</time></trkpt><trkpt lat="43.9794207" lon="11.578572"><ele>1033.0</ele><time>2026-04-11T10:04:57.491Z</time></trkpt><trkpt lat="43.9794378" lon="11.5786948"><ele>1033.0</ele><time>2026-04-11T10:04:58.491Z</time></trkpt><trkpt lat="43.9795027" lon="11.5791222"><ele>1030.0</ele><time>2026-04-11T10:05:01.489Z</time></trkpt><trkpt lat="43.9795152" lon="11.5795403"><ele>1027.0</ele><time>2026-04-11T10:05:04.491Z</time></trkpt><trkpt lat="43.9794805" lon="11.5796593"><ele>1024.0</ele><time>2026-04-11T10:05:05.491Z</time></trkpt><trkpt lat="43.9793518" lon="11.5798778"><ele>1024.0</ele><time>2026-04-11T10:05:07.49Z</time></trkpt><trkpt lat="43.97928" lon="11.5799842"><ele>1024.0</ele><time>2026-04-11T10:05:08.49Z</time></trkpt><trkpt lat="43.979149" lon="11.5802052"><ele>1024.0</ele><time>2026-04-11T10:05:10.492Z</time></trkpt><trkpt lat="43.9791" lon="11.5803193"><ele>1024.0</ele><time>2026-04-11T10:05:11.492Z</time></trkpt><trkpt lat="43.9790795" lon="11.58054"><ele>1019.5</ele><time>2026-04-11T10:05:13.492Z</time></trkpt><trkpt lat="43.9790958" lon="11.5806383"><ele>1015.0</ele><time>2026-04-11T10:05:14.491Z</time></trkpt><trkpt lat="43.9791382" lon="11.5808657"><ele>1010.5</ele><time>2026-04-11T10:05:16.489Z</time></trkpt><trkpt lat="43.9791542" lon="11.5809697"><ele>1006.0</ele><time>2026-04-11T10:05:17.491Z</time></trkpt><trkpt lat="43.9791677" lon="11.5813118"><ele>1002.5</ele><time>2026-04-11T10:05:20.49Z</time></trkpt><trkpt lat="43.9792072" lon="11.5816665"><ele>999.0</ele><time>2026-04-11T10:05:23.491Z</time></trkpt><trkpt lat="43.9792143" lon="11.58199"><ele>997.25</ele><time>2026-04-11T10:05:26.488Z</time></trkpt><trkpt lat="43.9791977" lon="11.5821158"><ele>995.5</ele><time>2026-04-11T10:05:27.489Z</time></trkpt><trkpt lat="43.9791493" lon="11.5824155"><ele>993.75</ele><time>2026-04-11T10:05:29.491Z</time></trkpt><trkpt lat="43.979124" lon="11.5825972"><ele>992.0</ele><time>2026-04-11T10:05:30.492Z</time></trkpt><trkpt lat="43.9789953" lon="11.5830165"><ele>990.3333333333334</ele><time>2026-04-11T10:05:33.492Z</time></trkpt><trkpt lat="43.9789343" lon="11.583284"><ele>988.6666666666667</ele><time>2026-04-11T10:05:35.492Z</time></trkpt><trkpt lat="43.978924" lon="11.5834503"><ele>987.0</ele><time>2026-04-11T10:05:36.492Z</time></trkpt><trkpt lat="43.9789043" lon="11.5836302"><ele>987.5</ele><time>2026-04-11T10:05:37.491Z</time></trkpt><trkpt lat="43.9787727" lon="11.5841018"><ele>988.0</ele><time>2026-04-11T10:05:40.489Z</time></trkpt><trkpt lat="43.9786447" lon="11.5845873"><ele>984.5</ele><time>2026-04-11T10:05:43.491Z</time></trkpt><trkpt lat="43.978496" lon="11.5850632"><ele>981.0</ele><time>2026-04-11T10:05:46.491Z</time></trkpt><trkpt lat="43.9782962" lon="11.5854445"><ele>981.0</ele><time>2026-04-11T10:05:49.491Z</time></trkpt><trkpt lat="43.9780552" lon="11.585723"><ele>981.0</ele><time>2026-04-11T10:05:52.491Z</time></trkpt><trkpt lat="43.977771" lon="11.5859193"><ele>981.0</ele><time>2026-04-11T10:05:55.492Z</time></trkpt><trkpt lat="43.9776903" lon="11.5859842"><ele>981.0</ele><time>2026-04-11T10:05:56.494Z</time></trkpt><trkpt lat="43.9775385" lon="11.586119"><ele>981.0</ele><time>2026-04-11T10:05:58.491Z</time></trkpt><trkpt lat="43.9774552" lon="11.5862067"><ele>981.0</ele><time>2026-04-11T10:05:59.491Z</time></trkpt><trkpt lat="43.9772757" lon="11.5864185"><ele>983.6666666666667</ele><time>2026-04-11T10:06:01.494Z</time></trkpt><trkpt lat="43.9771862" lon="11.5865248"><ele>986.3333333333334</ele><time>2026-04-11T10:06:02.491Z</time></trkpt><trkpt lat="43.9769115" lon="11.5867628"><ele>989.0</ele><time>2026-04-11T10:06:05.489Z</time></trkpt><trkpt lat="43.9767203" lon="11.5870478"><ele>988.3333333333334</ele><time>2026-04-11T10:06:08.489Z</time></trkpt><trkpt lat="43.9766633" lon="11.587134"><ele>987.6666666666667</ele><time>2026-04-11T10:06:09.489Z</time></trkpt><trkpt lat="43.9764388" lon="11.587356"><ele>987.0</ele><time>2026-04-11T10:06:12.489Z</time></trkpt><trkpt lat="43.9762647" lon="11.5876012"><ele>987.0</ele><time>2026-04-11T10:06:15.488Z</time></trkpt><trkpt lat="43.9761707" lon="11.5877518"><ele>987.0</ele><time>2026-04-11T10:06:17.49Z</time></trkpt><trkpt lat="43.9760618" lon="11.5879317"><ele>987.0</ele><time>2026-04-11T10:06:20.49Z</time></trkpt><trkpt lat="43.9759987" lon="11.587987"><ele>987.0</ele><time>2026-04-11T10:06:23.49Z</time></trkpt><trkpt lat="43.9759398" lon="11.5877818"><ele>987.0</ele><time>2026-04-11T10:06:27.489Z</time></trkpt><trkpt lat="43.9759172" lon="11.5876943"><ele>987.0</ele><time>2026-04-11T10:06:28.488Z</time></trkpt><trkpt lat="43.9758885" lon="11.5876005"><ele>987.0</ele><time>2026-04-11T10:06:29.489Z</time></trkpt><trkpt lat="43.9758693" lon="11.5875063"><ele>987.0</ele><time>2026-04-11T10:06:30.488Z</time></trkpt><trkpt lat="43.9758538" lon="11.5871752"><ele>987.0</ele><time>2026-04-11T10:06:33.49Z</time></trkpt><trkpt lat="43.9757982" lon="11.5867638"><ele>982.3333333333333</ele><time>2026-04-11T10:06:36.488Z</time></trkpt><trkpt lat="43.9757003" lon="11.5864455"><ele>977.6666666666666</ele><time>2026-04-11T10:06:39.488Z</time></trkpt><trkpt lat="43.9756392" lon="11.5863707"><ele>973.0</ele><time>2026-04-11T10:06:40.488Z</time></trkpt><trkpt lat="43.9754893" lon="11.5862962"><ele>973.0</ele><time>2026-04-11T10:06:42.489Z</time></trkpt><trkpt lat="43.9754112" lon="11.5863042"><ele>973.0</ele><time>2026-04-11T10:06:43.489Z</time></trkpt><trkpt lat="43.9752363" lon="11.5863668"><ele>973.0</ele><time>2026-04-11T10:06:45.489Z</time></trkpt><trkpt lat="43.9751557" lon="11.586412"><ele>973.0</ele><time>2026-04-11T10:06:46.488Z</time></trkpt><trkpt lat="43.9749603" lon="11.5864992"><ele>974.0</ele><time>2026-04-11T10:06:49.489Z</time></trkpt><trkpt lat="43.9747518" lon="11.586364"><ele>975.0</ele><time>2026-04-11T10:06:52.488Z</time></trkpt><trkpt lat="43.9745017" lon="11.58603"><ele>975.0</ele><time>2026-04-11T10:06:55.488Z</time></trkpt><trkpt lat="43.9744392" lon="11.5859095"><ele>975.0</ele><time>2026-04-11T10:06:56.488Z</time></trkpt><trkpt lat="43.9743867" lon="11.5857868"><ele>975.0</ele><time>2026-04-11T10:06:57.489Z</time></trkpt><trkpt lat="43.9743128" lon="11.5855265"><ele>975.0</ele><time>2026-04-11T10:06:59.488Z</time></trkpt><trkpt lat="43.9742848" lon="11.585406"><ele>985.0</ele><time>2026-04-11T10:07:00.488Z</time></trkpt><trkpt lat="43.974149" lon="11.5851527"><ele>995.0</ele><time>2026-04-11T10:07:03.488Z</time></trkpt><trkpt lat="43.9739352" lon="11.5848955"><ele>995.0</ele><time>2026-04-11T10:07:06.488Z</time></trkpt><trkpt lat="43.973878" lon="11.58481"><ele>995.0</ele><time>2026-04-11T10:07:07.488Z</time></trkpt><trkpt lat="43.9737793" lon="11.5846335"><ele>995.0</ele><time>2026-04-11T10:07:09.488Z</time></trkpt><trkpt lat="43.9737165" lon="11.5845325"><ele>995.0</ele><time>2026-04-11T10:07:10.488Z</time></trkpt><trkpt lat="43.9735148" lon="11.5842372"><ele>991.25</ele><time>2026-04-11T10:07:13.49Z</time></trkpt><trkpt lat="43.9733618" lon="11.5842245"><ele>987.5</ele><time>2026-04-11T10:07:16.49Z</time></trkpt><trkpt lat="43.973327" lon="11.5843123"><ele>983.75</ele><time>2026-04-11T10:07:19.491Z</time></trkpt><trkpt lat="43.9732953" lon="11.5844272"><ele>980.0</ele><time>2026-04-11T10:08:13.49Z</time></trkpt><trkpt lat="43.973336" lon="11.5847327"><ele>985.0</ele><time>2026-04-11T10:08:16.488Z</time></trkpt><trkpt lat="43.9733605" lon="11.5849748"><ele>990.0</ele><time>2026-04-11T10:08:18.487Z</time></trkpt><trkpt lat="43.9733707" lon="11.585098"><ele>995.0</ele><time>2026-04-11T10:08:19.49Z</time></trkpt><trkpt lat="43.9734185" lon="11.5853515"><ele>1004.5</ele><time>2026-04-11T10:08:21.489Z</time></trkpt><trkpt lat="43.9735023" lon="11.5857808"><ele>1014.0</ele><time>2026-04-11T10:08:24.488Z</time></trkpt><trkpt lat="43.9734843" lon="11.586029"><ele>1014.0</ele><time>2026-04-11T10:08:26.488Z</time></trkpt><trkpt lat="43.973454" lon="11.5861685"><ele>1014.0</ele><time>2026-04-11T10:08:27.488Z</time></trkpt><trkpt lat="43.9734338" lon="11.5864748"><ele>1014.0</ele><time>2026-04-11T10:08:29.49Z</time></trkpt><trkpt lat="43.9735028" lon="11.5869773"><ele>1033.5</ele><time>2026-04-11T10:08:32.49Z</time></trkpt><trkpt lat="43.9735382" lon="11.5873515"><ele>1053.0</ele><time>2026-04-11T10:08:34.49Z</time></trkpt><trkpt lat="43.973597" lon="11.5876615"><ele>1053.0</ele><time>2026-04-11T10:08:36.489Z</time></trkpt><trkpt lat="43.9736278" lon="11.5877862"><ele>1053.0</ele><time>2026-04-11T10:08:37.489Z</time></trkpt><trkpt lat="43.9737295" lon="11.5879735"><ele>1053.0</ele><time>2026-04-11T10:08:39.492Z</time></trkpt><trkpt lat="43.9737808" lon="11.588062"><ele>1053.0</ele><time>2026-04-11T10:08:40.488Z</time></trkpt><trkpt lat="43.9738657" lon="11.5882423"><ele>1056.0</ele><time>2026-04-11T10:08:42.489Z</time></trkpt><trkpt lat="43.9739048" lon="11.5883363"><ele>1059.0</ele><time>2026-04-11T10:08:43.49Z</time></trkpt><trkpt lat="43.9739697" lon="11.5885353"><ele>1062.0</ele><time>2026-04-11T10:08:45.492Z</time></trkpt><trkpt lat="43.9739978" lon="11.5886353"><ele>1065.0</ele><time>2026-04-11T10:08:46.492Z</time></trkpt><trkpt lat="43.9740517" lon="11.588863"><ele>1064.6666666666667</ele><time>2026-04-11T10:08:48.492Z</time></trkpt><trkpt lat="43.9740742" lon="11.5889935"><ele>1064.3333333333335</ele><time>2026-04-11T10:08:49.49Z</time></trkpt><trkpt lat="43.9741682" lon="11.5894017"><ele>1064.0</ele><time>2026-04-11T10:08:52.491Z</time></trkpt><trkpt lat="43.9742408" lon="11.589693"><ele>1064.0</ele><time>2026-04-11T10:08:54.49Z</time></trkpt><trkpt lat="43.9742703" lon="11.589843"><ele>1064.0</ele><time>2026-04-11T10:08:55.489Z</time></trkpt><trkpt lat="43.9743438" lon="11.590159"><ele>1064.0</ele><time>2026-04-11T10:08:57.491Z</time></trkpt><trkpt lat="43.9744992" lon="11.5906337"><ele>1070.6666666666667</ele><time>2026-04-11T10:09:00.493Z</time></trkpt><trkpt lat="43.9746158" lon="11.5909383"><ele>1077.3333333333333</ele><time>2026-04-11T10:09:02.491Z</time></trkpt><trkpt lat="43.9746625" lon="11.5910968"><ele>1084.0</ele><time>2026-04-11T10:09:03.491Z</time></trkpt><trkpt lat="43.97472" lon="11.5914197"><ele>1085.6666666666665</ele><time>2026-04-11T10:09:05.488Z</time></trkpt><trkpt lat="43.9747355" lon="11.5917862"><ele>1087.3333333333333</ele><time>2026-04-11T10:09:07.492Z</time></trkpt><trkpt lat="43.9747337" lon="11.5919757"><ele>1089.0</ele><time>2026-04-11T10:09:08.49Z</time></trkpt><trkpt lat="43.9747365" lon="11.5923485"><ele>1091.5</ele><time>2026-04-11T10:09:10.49Z</time></trkpt><trkpt lat="43.9747383" lon="11.5925603"><ele>1094.0</ele><time>2026-04-11T10:09:11.491Z</time></trkpt><trkpt lat="43.9747448" lon="11.593004"><ele>1106.0</ele><time>2026-04-11T10:09:13.49Z</time></trkpt><trkpt lat="43.9746975" lon="11.5936322"><ele>1109.6666666666667</ele><time>2026-04-11T10:09:16.49Z</time></trkpt><trkpt lat="43.9746372" lon="11.5939857"><ele>1113.3333333333333</ele><time>2026-04-11T10:09:18.49Z</time></trkpt><trkpt lat="43.9746138" lon="11.5941228"><ele>1117.0</ele><time>2026-04-11T10:09:19.489Z</time></trkpt><trkpt lat="43.9746167" lon="11.5944182"><ele>1115.75</ele><time>2026-04-11T10:09:21.49Z</time></trkpt><trkpt lat="43.9746452" lon="11.5945822"><ele>1114.5</ele><time>2026-04-11T10:09:22.49Z</time></trkpt><trkpt lat="43.9746702" lon="11.5947343"><ele>1113.25</ele><time>2026-04-11T10:09:23.49Z</time></trkpt><trkpt lat="43.9746568" lon="11.595009"><ele>1112.0</ele><time>2026-04-11T10:09:25.491Z</time></trkpt><trkpt lat="43.974463" lon="11.5953733"><ele>1112.0</ele><time>2026-04-11T10:09:28.491Z</time></trkpt><trkpt lat="43.974297" lon="11.5955862"><ele>1112.0</ele><time>2026-04-11T10:09:30.489Z</time></trkpt><trkpt lat="43.9742188" lon="11.5956743"><ele>1112.0</ele><time>2026-04-11T10:09:31.488Z</time></trkpt><trkpt lat="43.9740865" lon="11.5958243"><ele>1116.3333333333335</ele><time>2026-04-11T10:09:33.49Z</time></trkpt><trkpt lat="43.9740057" lon="11.5959402"><ele>1120.6666666666667</ele><time>2026-04-11T10:09:35.492Z</time></trkpt><trkpt lat="43.9739252" lon="11.5962662"><ele>1125.0</ele><time>2026-04-11T10:09:44.494Z</time></trkpt><trkpt lat="43.9739045" lon="11.5965597"><ele>1125.0</ele><time>2026-04-11T10:09:46.488Z</time></trkpt><trkpt lat="43.9739122" lon="11.5967105"><ele>1125.0</ele><time>2026-04-11T10:09:47.488Z</time></trkpt><trkpt lat="43.9739733" lon="11.5969992"><ele>1125.0</ele><time>2026-04-11T10:09:49.488Z</time></trkpt><trkpt lat="43.9740553" lon="11.59728"><ele>1126.2</ele><time>2026-04-11T10:09:51.492Z</time></trkpt><trkpt lat="43.9740845" lon="11.5974033"><ele>1127.4</ele><time>2026-04-11T10:09:52.491Z</time></trkpt><trkpt lat="43.9741132" lon="11.597603"><ele>1128.6</ele><time>2026-04-11T10:09:54.488Z</time></trkpt><trkpt lat="43.9741407" lon="11.5977673"><ele>1129.8</ele><time>2026-04-11T10:09:57.492Z</time></trkpt><trkpt lat="43.9741978" lon="11.5978553"><ele>1131.0</ele><time>2026-04-11T10:09:59.493Z</time></trkpt><trkpt lat="43.9742233" lon="11.5979587"><ele>1130.3999999999999</ele><time>2026-04-11T10:10:02.495Z</time></trkpt><trkpt lat="43.9741825" lon="11.5980332"><ele>1129.8</ele><time>2026-04-11T10:10:10.492Z</time></trkpt><trkpt lat="43.9742378" lon="11.5980835"><ele>1129.1999999999998</ele><time>2026-04-11T10:10:13.492Z</time></trkpt><trkpt lat="43.9743797" lon="11.598109"><ele>1128.6</ele><time>2026-04-11T10:10:16.491Z</time></trkpt><trkpt lat="43.9745107" lon="11.5981563"><ele>1128.0</ele><time>2026-04-11T10:10:19.49Z</time></trkpt><trkpt lat="43.9746225" lon="11.5981925"><ele>1122.75</ele><time>2026-04-11T10:10:22.493Z</time></trkpt><trkpt lat="43.9747347" lon="11.598256"><ele>1117.5</ele><time>2026-04-11T10:10:25.493Z</time></trkpt><trkpt lat="43.9748202" lon="11.598284"><ele>1112.25</ele><time>2026-04-11T10:10:27.493Z</time></trkpt><trkpt lat="43.9749713" lon="11.5983483"><ele>1107.0</ele><time>2026-04-11T10:10:30.492Z</time></trkpt><trkpt lat="43.9750642" lon="11.5983865"><ele>1102.6</ele><time>2026-04-11T10:10:32.493Z</time></trkpt><trkpt lat="43.9752115" lon="11.598418"><ele>1098.2</ele><time>2026-04-11T10:10:36.492Z</time></trkpt><trkpt lat="43.9752978" lon="11.5984115"><ele>1093.8</ele><time>2026-04-11T10:10:39.492Z</time></trkpt><trkpt lat="43.9754173" lon="11.5984178"><ele>1089.4</ele><time>2026-04-11T10:10:43.49Z</time></trkpt><trkpt lat="43.9754853" lon="11.5984415"><ele>1085.0</ele><time>2026-04-11T10:10:46.492Z</time></trkpt><trkpt lat="43.9755638" lon="11.5984932"><ele>1085.0</ele><time>2026-04-11T10:10:50.492Z</time></trkpt><trkpt lat="43.9756615" lon="11.5985675"><ele>1085.0</ele><time>2026-04-11T10:10:54.492Z</time></trkpt><trkpt lat="43.9757502" lon="11.5986253"><ele>1085.0</ele><time>2026-04-11T10:10:56.493Z</time></trkpt><trkpt lat="43.9758778" lon="11.5987083"><ele>1085.0</ele><time>2026-04-11T10:10:59.493Z</time></trkpt><trkpt lat="43.9759847" lon="11.5987743"><ele>1080.75</ele><time>2026-04-11T10:11:01.495Z</time></trkpt><trkpt lat="43.976158" lon="11.5988708"><ele>1076.5</ele><time>2026-04-11T10:11:04.493Z</time></trkpt><trkpt lat="43.9762853" lon="11.5989288"><ele>1072.25</ele><time>2026-04-11T10:11:06.49Z</time></trkpt><trkpt lat="43.976348" lon="11.5989532"><ele>1068.0</ele><time>2026-04-11T10:11:07.49Z</time></trkpt><trkpt lat="43.9764743" lon="11.5989932"><ele>1068.0</ele><time>2026-04-11T10:11:09.488Z</time></trkpt><trkpt lat="43.9765365" lon="11.5990222"><ele>1068.0</ele><time>2026-04-11T10:11:10.491Z</time></trkpt><trkpt lat="43.9766717" lon="11.5991238"><ele>1068.0</ele><time>2026-04-11T10:11:12.492Z</time></trkpt><trkpt lat="43.976744" lon="11.5991957"><ele>1068.0</ele><time>2026-04-11T10:11:13.492Z</time></trkpt><trkpt lat="43.9768977" lon="11.5993607"><ele>1067.3333333333333</ele><time>2026-04-11T10:11:15.492Z</time></trkpt><trkpt lat="43.9771003" lon="11.5995558"><ele>1066.6666666666665</ele><time>2026-04-11T10:11:18.493Z</time></trkpt><trkpt lat="43.9771615" lon="11.5996253"><ele>1066.0</ele><time>2026-04-11T10:11:19.493Z</time></trkpt><trkpt lat="43.9772702" lon="11.5997672"><ele>1066.0</ele><time>2026-04-11T10:11:21.491Z</time></trkpt><trkpt lat="43.9773648" lon="11.5998495"><ele>1066.0</ele><time>2026-04-11T10:11:23.491Z</time></trkpt><trkpt lat="43.9774177" lon="11.5999762"><ele>1066.0</ele><time>2026-04-11T10:11:38.493Z</time></trkpt><trkpt lat="43.9774897" lon="11.599981"><ele>1066.0</ele><time>2026-04-11T10:11:41.492Z</time></trkpt><trkpt lat="43.9775853" lon="11.6000017"><ele>1066.0</ele><time>2026-04-11T10:11:44.492Z</time></trkpt><trkpt lat="43.9777047" lon="11.6000503"><ele>1060.2</ele><time>2026-04-11T10:11:47.492Z</time></trkpt><trkpt lat="43.9777665" lon="11.6000965"><ele>1054.3999999999999</ele><time>2026-04-11T10:11:49.492Z</time></trkpt><trkpt lat="43.9778403" lon="11.6001993"><ele>1048.6</ele><time>2026-04-11T10:11:53.492Z</time></trkpt><trkpt lat="43.9778798" lon="11.6002837"><ele>1042.8</ele><time>2026-04-11T10:11:55.491Z</time></trkpt><trkpt lat="43.9779868" lon="11.6003858"><ele>1037.0</ele><time>2026-04-11T10:11:58.49Z</time></trkpt><trkpt lat="43.9780838" lon="11.6004677"><ele>1037.0</ele><time>2026-04-11T10:12:00.493Z</time></trkpt><trkpt lat="43.978228" lon="11.6005885"><ele>1037.0</ele><time>2026-04-11T10:12:03.493Z</time></trkpt><trkpt lat="43.9783463" lon="11.6007063"><ele>1037.0</ele><time>2026-04-11T10:12:06.493Z</time></trkpt><trkpt lat="43.9783895" lon="11.600772"><ele>1037.0</ele><time>2026-04-11T10:12:12.493Z</time></trkpt><trkpt lat="43.9784498" lon="11.6008323"><ele>1032.2</ele><time>2026-04-11T10:12:23.491Z</time></trkpt><trkpt lat="43.9785142" lon="11.6009367"><ele>1027.4</ele><time>2026-04-11T10:12:29.494Z</time></trkpt><trkpt lat="43.978546" lon="11.6010593"><ele>1022.5999999999999</ele><time>2026-04-11T10:12:32.496Z</time></trkpt><trkpt lat="43.9785767" lon="11.6011493"><ele>1017.8</ele><time>2026-04-11T10:12:34.493Z</time></trkpt><trkpt lat="43.9786172" lon="11.6012357"><ele>1013.0</ele><time>2026-04-11T10:12:36.493Z</time></trkpt><trkpt lat="43.9786752" lon="11.6013955"><ele>1013.0</ele><time>2026-04-11T10:12:39.494Z</time></trkpt><trkpt lat="43.9787807" lon="11.601546"><ele>1013.0</ele><time>2026-04-11T10:12:43.493Z</time></trkpt><trkpt lat="43.9789043" lon="11.6017428"><ele>1013.0</ele><time>2026-04-11T10:12:46.49Z</time></trkpt><trkpt lat="43.979015" lon="11.6018242"><ele>1013.5</ele><time>2026-04-11T10:12:48.491Z</time></trkpt><trkpt lat="43.9792402" lon="11.6019587"><ele>1014.0</ele><time>2026-04-11T10:12:51.493Z</time></trkpt><trkpt lat="43.9794735" lon="11.6020697"><ele>1014.0</ele><time>2026-04-11T10:12:54.492Z</time></trkpt><trkpt lat="43.9796203" lon="11.602081"><ele>1014.0</ele><time>2026-04-11T10:12:56.492Z</time></trkpt><trkpt lat="43.9796855" lon="11.6020778"><ele>1014.0</ele><time>2026-04-11T10:12:57.492Z</time></trkpt><trkpt lat="43.979803" lon="11.6020823"><ele>1014.0</ele><time>2026-04-11T10:12:59.496Z</time></trkpt><trkpt lat="43.9799443" lon="11.6020643"><ele>1009.0</ele><time>2026-04-11T10:13:02.494Z</time></trkpt><trkpt lat="43.980081" lon="11.601975"><ele>1004.0</ele><time>2026-04-11T10:13:05.494Z</time></trkpt><trkpt lat="43.9802292" lon="11.6019005"><ele>999.0</ele><time>2026-04-11T10:13:08.494Z</time></trkpt><trkpt lat="43.9803615" lon="11.6018842"><ele>994.0</ele><time>2026-04-11T10:13:10.494Z</time></trkpt><trkpt lat="43.9804265" lon="11.6018812"><ele>994.0</ele><time>2026-04-11T10:13:11.492Z</time></trkpt><trkpt lat="43.9805565" lon="11.6018788"><ele>994.0000000000001</ele><time>2026-04-11T10:13:13.494Z</time></trkpt><trkpt lat="43.9806263" lon="11.6018805"><ele>994.0000000000001</ele><time>2026-04-11T10:13:14.493Z</time></trkpt><trkpt lat="43.9807643" lon="11.6018953"><ele>994.0</ele><time>2026-04-11T10:13:16.492Z</time></trkpt><trkpt lat="43.9808312" lon="11.6018952"><ele>994.0</ele><time>2026-04-11T10:13:17.493Z</time></trkpt><trkpt lat="43.9810022" lon="11.601881"><ele>994.25</ele><time>2026-04-11T10:13:19.495Z</time></trkpt><trkpt lat="43.9811008" lon="11.6018658"><ele>994.5</ele><time>2026-04-11T10:13:20.494Z</time></trkpt><trkpt lat="43.9811883" lon="11.601847"><ele>994.75</ele><time>2026-04-11T10:13:21.494Z</time></trkpt><trkpt lat="43.9814215" lon="11.6018577"><ele>995.0</ele><time>2026-04-11T10:13:24.494Z</time></trkpt><trkpt lat="43.9815042" lon="11.6018808"><ele>995.0</ele><time>2026-04-11T10:13:25.493Z</time></trkpt><trkpt lat="43.9815898" lon="11.6018945"><ele>995.0</ele><time>2026-04-11T10:13:26.495Z</time></trkpt><trkpt lat="43.9817442" lon="11.6019037"><ele>995.0</ele><time>2026-04-11T10:13:28.493Z</time></trkpt><trkpt lat="43.9818143" lon="11.6018957"><ele>995.0</ele><time>2026-04-11T10:13:29.495Z</time></trkpt><trkpt lat="43.9819413" lon="11.601842"><ele>995.0</ele><time>2026-04-11T10:13:31.493Z</time></trkpt><trkpt lat="43.9820023" lon="11.601812"><ele>992.0</ele><time>2026-04-11T10:13:32.493Z</time></trkpt><trkpt lat="43.9821273" lon="11.601761"><ele>989.0</ele><time>2026-04-11T10:13:34.49Z</time></trkpt><trkpt lat="43.9822635" lon="11.6017443"><ele>986.0</ele><time>2026-04-11T10:13:36.491Z</time></trkpt><trkpt lat="43.9823353" lon="11.6017378"><ele>983.0</ele><time>2026-04-11T10:13:37.49Z</time></trkpt><trkpt lat="43.9824753" lon="11.6017505"><ele>980.8</ele><time>2026-04-11T10:13:39.492Z</time></trkpt><trkpt lat="43.9825422" lon="11.6017603"><ele>978.5999999999999</ele><time>2026-04-11T10:13:40.493Z</time></trkpt><trkpt lat="43.9826657" lon="11.6017762"><ele>976.4000000000001</ele><time>2026-04-11T10:13:42.494Z</time></trkpt><trkpt lat="43.9827973" lon="11.6018052"><ele>974.2</ele><time>2026-04-11T10:13:44.493Z</time></trkpt><trkpt lat="43.9828675" lon="11.6018305"><ele>972.0</ele><time>2026-04-11T10:13:45.494Z</time></trkpt><trkpt lat="43.9830148" lon="11.6019"><ele>972.0</ele><time>2026-04-11T10:13:47.494Z</time></trkpt><trkpt lat="43.9831547" lon="11.6019543"><ele>972.0</ele><time>2026-04-11T10:13:49.493Z</time></trkpt><trkpt lat="43.9832237" lon="11.6019715"><ele>972.0</ele><time>2026-04-11T10:13:50.493Z</time></trkpt><trkpt lat="43.9833545" lon="11.6020023"><ele>972.0</ele><time>2026-04-11T10:13:52.494Z</time></trkpt><trkpt lat="43.9835013" lon="11.6020938"><ele>969.0</ele><time>2026-04-11T10:13:55.493Z</time></trkpt><trkpt lat="43.9836582" lon="11.6022253"><ele>966.0</ele><time>2026-04-11T10:13:58.492Z</time></trkpt><trkpt lat="43.9837602" lon="11.6023942"><ele>963.0</ele><time>2026-04-11T10:14:01.491Z</time></trkpt><trkpt lat="43.9838045" lon="11.6025938"><ele>963.0</ele><time>2026-04-11T10:14:04.493Z</time></trkpt><trkpt lat="43.9838263" lon="11.6027643"><ele>963.0</ele><time>2026-04-11T10:14:06.495Z</time></trkpt><trkpt lat="43.9839022" lon="11.6030293"><ele>963.0</ele><time>2026-04-11T10:14:09.492Z</time></trkpt><trkpt lat="43.9839693" lon="11.6032183"><ele>964.25</ele><time>2026-04-11T10:14:11.495Z</time></trkpt><trkpt lat="43.9840882" lon="11.6033285"><ele>965.5</ele><time>2026-04-11T10:14:14.491Z</time></trkpt><trkpt lat="43.9842072" lon="11.603396"><ele>966.75</ele><time>2026-04-11T10:14:17.494Z</time></trkpt><trkpt lat="43.984319" lon="11.6034503"><ele>968.0</ele><time>2026-04-11T10:14:19.494Z</time></trkpt><trkpt lat="43.9844388" lon="11.6034615"><ele>964.75</ele><time>2026-04-11T10:14:21.495Z</time></trkpt><trkpt lat="43.9845923" lon="11.6034523"><ele>961.5</ele><time>2026-04-11T10:14:24.492Z</time></trkpt><trkpt lat="43.9847052" lon="11.6035068"><ele>958.25</ele><time>2026-04-11T10:14:27.492Z</time></trkpt><trkpt lat="43.9848288" lon="11.6036225"><ele>955.0</ele><time>2026-04-11T10:14:30.492Z</time></trkpt><trkpt lat="43.9849105" lon="11.6037258"><ele>950.5</ele><time>2026-04-11T10:14:32.494Z</time></trkpt><trkpt lat="43.9850792" lon="11.6040785"><ele>946.0</ele><time>2026-04-11T10:14:36.494Z</time></trkpt><trkpt lat="43.9851693" lon="11.6042442"><ele>946.0</ele><time>2026-04-11T10:14:38.493Z</time></trkpt><trkpt lat="43.9852697" lon="11.6043602"><ele>946.0</ele><time>2026-04-11T10:14:40.494Z</time></trkpt><trkpt lat="43.985433" lon="11.6044672"><ele>946.0</ele><time>2026-04-11T10:14:43.493Z</time></trkpt><trkpt lat="43.9855415" lon="11.6045638"><ele>946.0</ele><time>2026-04-11T10:14:45.494Z</time></trkpt><trkpt lat="43.9856113" lon="11.604698"><ele>948.5</ele><time>2026-04-11T10:14:47.493Z</time></trkpt><trkpt lat="43.9856548" lon="11.6048547"><ele>951.0</ele><time>2026-04-11T10:14:49.493Z</time></trkpt><trkpt lat="43.9857168" lon="11.6050088"><ele>953.5</ele><time>2026-04-11T10:14:51.493Z</time></trkpt><trkpt lat="43.9857908" lon="11.6051335"><ele>956.0</ele><time>2026-04-11T10:14:53.493Z</time></trkpt><trkpt lat="43.9859472" lon="11.6051898"><ele>956.0</ele><time>2026-04-11T10:14:56.493Z</time></trkpt><trkpt lat="43.986117" lon="11.6052237"><ele>956.0</ele><time>2026-04-11T10:14:59.495Z</time></trkpt><trkpt lat="43.9862232" lon="11.6052148"><ele>956.0</ele><time>2026-04-11T10:15:01.496Z</time></trkpt><trkpt lat="43.9863728" lon="11.6052273"><ele>956.0</ele><time>2026-04-11T10:15:03.495Z</time></trkpt><trkpt lat="43.986526" lon="11.6052565"><ele>955.5</ele><time>2026-04-11T10:15:05.493Z</time></trkpt><trkpt lat="43.9867137" lon="11.6053255"><ele>955.0</ele><time>2026-04-11T10:15:08.493Z</time></trkpt><trkpt lat="43.9868302" lon="11.6053858"><ele>954.5</ele><time>2026-04-11T10:15:10.495Z</time></trkpt><trkpt lat="43.9869425" lon="11.6054332"><ele>954.0</ele><time>2026-04-11T10:15:12.493Z</time></trkpt><trkpt lat="43.9870472" lon="11.6054642"><ele>955.6666666666666</ele><time>2026-04-11T10:15:14.491Z</time></trkpt><trkpt lat="43.987155" lon="11.6054805"><ele>957.3333333333333</ele><time>2026-04-11T10:15:16.495Z</time></trkpt><trkpt lat="43.9872462" lon="11.6055017"><ele>959.0</ele><time>2026-04-11T10:15:19.493Z</time></trkpt><trkpt lat="43.9873285" lon="11.6055408"><ele>960.6666666666666</ele><time>2026-04-11T10:15:27.495Z</time></trkpt><trkpt lat="43.9874032" lon="11.6055813"><ele>962.3333333333333</ele><time>2026-04-11T10:15:30.493Z</time></trkpt><trkpt lat="43.9874768" lon="11.6056233"><ele>964.0</ele><time>2026-04-11T10:15:32.493Z</time></trkpt><trkpt lat="43.987575" lon="11.6056973"><ele>965.3333333333333</ele><time>2026-04-11T10:15:34.493Z</time></trkpt><trkpt lat="43.9877112" lon="11.6057733"><ele>966.6666666666667</ele><time>2026-04-11T10:15:36.492Z</time></trkpt><trkpt lat="43.9879288" lon="11.6058638"><ele>968.0</ele><time>2026-04-11T10:15:39.491Z</time></trkpt><trkpt lat="43.9880955" lon="11.60592"><ele>968.0</ele><time>2026-04-11T10:15:42.493Z</time></trkpt><trkpt lat="43.9881925" lon="11.6059352"><ele>968.0</ele><time>2026-04-11T10:15:44.492Z</time></trkpt><trkpt lat="43.9883262" lon="11.6059772"><ele>968.0</ele><time>2026-04-11T10:15:47.491Z</time></trkpt><trkpt lat="43.9884277" lon="11.6060238"><ele>968.0</ele><time>2026-04-11T10:15:50.492Z</time></trkpt><trkpt lat="43.9885495" lon="11.6060577"><ele>970.5999999999999</ele><time>2026-04-11T10:15:53.494Z</time></trkpt><trkpt lat="43.9886407" lon="11.606087"><ele>973.1999999999999</ele><time>2026-04-11T10:15:55.493Z</time></trkpt><trkpt lat="43.9887772" lon="11.6061348"><ele>975.8</ele><time>2026-04-11T10:15:58.493Z</time></trkpt><trkpt lat="43.9888938" lon="11.6061785"><ele>978.4</ele><time>2026-04-11T10:16:00.492Z</time></trkpt><trkpt lat="43.9889578" lon="11.6062103"><ele>981.0</ele><time>2026-04-11T10:16:01.491Z</time></trkpt><trkpt lat="43.9890705" lon="11.6062887"><ele>984.4</ele><time>2026-04-11T10:16:03.49Z</time></trkpt><trkpt lat="43.9892125" lon="11.6063438"><ele>987.8</ele><time>2026-04-11T10:16:06.492Z</time></trkpt><trkpt lat="43.989323" lon="11.6063457"><ele>991.1999999999999</ele><time>2026-04-11T10:16:08.493Z</time></trkpt><trkpt lat="43.9894437" lon="11.6063303"><ele>994.5999999999999</ele><time>2026-04-11T10:16:10.494Z</time></trkpt><trkpt lat="43.9895098" lon="11.6063243"><ele>998.0</ele><time>2026-04-11T10:16:11.493Z</time></trkpt><trkpt lat="43.9896462" lon="11.6063173"><ele>998.0</ele><time>2026-04-11T10:16:13.494Z</time></trkpt><trkpt lat="43.9897788" lon="11.6063302"><ele>998.0</ele><time>2026-04-11T10:16:15.493Z</time></trkpt><trkpt lat="43.9898557" lon="11.6063277"><ele>998.0</ele><time>2026-04-11T10:16:16.493Z</time></trkpt><trkpt lat="43.9900307" lon="11.6063137"><ele>998.0</ele><time>2026-04-11T10:16:18.493Z</time></trkpt><trkpt lat="43.9901115" lon="11.606302"><ele>997.0</ele><time>2026-04-11T10:16:19.493Z</time></trkpt><trkpt lat="43.9902377" lon="11.6062635"><ele>996.0</ele><time>2026-04-11T10:16:21.493Z</time></trkpt><trkpt lat="43.9904182" lon="11.6061107"><ele>995.0</ele><time>2026-04-11T10:16:24.495Z</time></trkpt><trkpt lat="43.990565" lon="11.6059892"><ele>995.0</ele><time>2026-04-11T10:16:26.496Z</time></trkpt><trkpt lat="43.9906373" lon="11.605921"><ele>995.0</ele><time>2026-04-11T10:16:27.493Z</time></trkpt><trkpt lat="43.9907708" lon="11.6057847"><ele>995.0</ele><time>2026-04-11T10:16:29.495Z</time></trkpt><trkpt lat="43.9908445" lon="11.6057192"><ele>995.0</ele><time>2026-04-11T10:16:30.494Z</time></trkpt><trkpt lat="43.990996" lon="11.6056135"><ele>994.75</ele><time>2026-04-11T10:16:32.493Z</time></trkpt><trkpt lat="43.9911175" lon="11.6055322"><ele>994.5</ele><time>2026-04-11T10:16:34.493Z</time></trkpt><trkpt lat="43.9911848" lon="11.6054903"><ele>994.25</ele><time>2026-04-11T10:16:35.493Z</time></trkpt><trkpt lat="43.9913257" lon="11.6053823"><ele>994.0</ele><time>2026-04-11T10:16:37.493Z</time></trkpt><trkpt lat="43.9914728" lon="11.6053097"><ele>994.75</ele><time>2026-04-11T10:16:39.493Z</time></trkpt><trkpt lat="43.9915575" lon="11.6052775"><ele>995.5</ele><time>2026-04-11T10:16:40.493Z</time></trkpt><trkpt lat="43.9917367" lon="11.6052607"><ele>996.25</ele><time>2026-04-11T10:16:42.493Z</time></trkpt><trkpt lat="43.9918282" lon="11.6052598"><ele>997.0</ele><time>2026-04-11T10:16:43.493Z</time></trkpt><trkpt lat="43.9919952" lon="11.6052742"><ele>998.6</ele><time>2026-04-11T10:16:45.494Z</time></trkpt><trkpt lat="43.9920603" lon="11.6052953"><ele>1000.2</ele><time>2026-04-11T10:16:46.494Z</time></trkpt><trkpt lat="43.9921725" lon="11.6053902"><ele>1001.8</ele><time>2026-04-11T10:16:48.493Z</time></trkpt><trkpt lat="43.9922335" lon="11.6054458"><ele>1003.4</ele><time>2026-04-11T10:16:49.495Z</time></trkpt><trkpt lat="43.9923405" lon="11.6055793"><ele>1005.0</ele><time>2026-04-11T10:16:51.494Z</time></trkpt><trkpt lat="43.9923857" lon="11.6056605"><ele>1008.0</ele><time>2026-04-11T10:16:52.492Z</time></trkpt><trkpt lat="43.992423" lon="11.6057347"><ele>1011.0</ele><time>2026-04-11T10:16:53.491Z</time></trkpt><trkpt lat="43.992488" lon="11.6058503"><ele>1014.0</ele><time>2026-04-11T10:16:55.493Z</time></trkpt><trkpt lat="43.9926032" lon="11.6059858"><ele>1017.0</ele><time>2026-04-11T10:16:58.491Z</time></trkpt><trkpt lat="43.9927202" lon="11.6061243"><ele>1022.0</ele><time>2026-04-11T10:17:01.491Z</time></trkpt><trkpt lat="43.992819" lon="11.6062382"><ele>1027.0</ele><time>2026-04-11T10:17:04.492Z</time></trkpt><trkpt lat="43.9929162" lon="11.6062928"><ele>1032.0</ele><time>2026-04-11T10:17:17.49Z</time></trkpt><trkpt lat="43.9929807" lon="11.6063555"><ele>1037.0</ele><time>2026-04-11T10:17:20.492Z</time></trkpt><trkpt lat="43.9930282" lon="11.60646"><ele>1042.0</ele><time>2026-04-11T10:18:35.496Z</time></trkpt><trkpt lat="43.9930995" lon="11.606559"><ele>1042.0</ele><time>2026-04-11T10:18:37.493Z</time></trkpt><trkpt lat="43.9931487" lon="11.6066183"><ele>1042.0</ele><time>2026-04-11T10:18:38.493Z</time></trkpt><trkpt lat="43.9932082" lon="11.6066882"><ele>1042.0</ele><time>2026-04-11T10:18:39.496Z</time></trkpt><trkpt lat="43.9932647" lon="11.6067578"><ele>1042.0</ele><time>2026-04-11T10:18:40.492Z</time></trkpt><trkpt lat="43.9933113" lon="11.6068235"><ele>1042.0</ele><time>2026-04-11T10:18:41.493Z</time></trkpt><trkpt lat="43.9933715" lon="11.6069185"><ele>1042.0</ele><time>2026-04-11T10:18:43.491Z</time></trkpt><trkpt lat="43.9934117" lon="11.6070032"><ele>1042.0</ele><time>2026-04-11T10:18:45.491Z</time></trkpt><trkpt lat="43.9934522" lon="11.6070883"><ele>1046.3333333333333</ele><time>2026-04-11T10:18:47.494Z</time></trkpt><trkpt lat="43.9934885" lon="11.6071937"><ele>1050.6666666666665</ele><time>2026-04-11T10:18:49.493Z</time></trkpt><trkpt lat="43.9935363" lon="11.6072907"><ele>1055.0</ele><time>2026-04-11T10:18:51.491Z</time></trkpt><trkpt lat="43.993575" lon="11.6073938"><ele>1059.3333333333333</ele><time>2026-04-11T10:18:53.492Z</time></trkpt><trkpt lat="43.9935978" lon="11.607492"><ele>1063.6666666666667</ele><time>2026-04-11T10:18:55.49Z</time></trkpt><trkpt lat="43.9936448" lon="11.6075817"><ele>1068.0</ele><time>2026-04-11T10:18:57.491Z</time></trkpt><trkpt lat="43.9937172" lon="11.6076658"><ele>1068.0</ele><time>2026-04-11T10:18:59.493Z</time></trkpt><trkpt lat="43.9938033" lon="11.6077395"><ele>1068.0</ele><time>2026-04-11T10:19:01.493Z</time></trkpt><trkpt lat="43.9938707" lon="11.6078117"><ele>1068.0</ele><time>2026-04-11T10:19:03.49Z</time></trkpt><trkpt lat="43.9939288" lon="11.607882"><ele>1068.0</ele><time>2026-04-11T10:19:06.491Z</time></trkpt><trkpt lat="43.9939863" lon="11.607933"><ele>1068.0</ele><time>2026-04-11T10:19:09.492Z</time></trkpt><trkpt lat="43.9940412" lon="11.6079967"><ele>1068.0</ele><time>2026-04-11T10:19:48.493Z</time></trkpt><trkpt lat="43.9941062" lon="11.6080482"><ele>1070.0</ele><time>2026-04-11T10:19:53.495Z</time></trkpt><trkpt lat="43.9941605" lon="11.6080963"><ele>1072.0</ele><time>2026-04-11T10:19:57.493Z</time></trkpt><trkpt lat="43.9942318" lon="11.60815"><ele>1074.0</ele><time>2026-04-11T10:20:01.495Z</time></trkpt><trkpt lat="43.9943367" lon="11.6081505"><ele>1076.0</ele><time>2026-04-11T10:20:05.494Z</time></trkpt><trkpt lat="43.9944423" lon="11.6081405"><ele>1078.0</ele><time>2026-04-11T10:21:33.495Z</time></trkpt><trkpt lat="43.9945348" lon="11.6081058"><ele>1078.8333333333333</ele><time>2026-04-11T10:21:35.493Z</time></trkpt><trkpt lat="43.9946088" lon="11.6081015"><ele>1079.6666666666665</ele><time>2026-04-11T10:21:37.495Z</time></trkpt><trkpt lat="43.994675" lon="11.6081002"><ele>1080.5</ele><time>2026-04-11T10:21:39.495Z</time></trkpt><trkpt lat="43.9947718" lon="11.6080907"><ele>1081.3333333333333</ele><time>2026-04-11T10:21:41.494Z</time></trkpt><trkpt lat="43.9949078" lon="11.6080962"><ele>1082.1666666666667</ele><time>2026-04-11T10:21:43.495Z</time></trkpt><trkpt lat="43.994983" lon="11.608103"><ele>1083.0</ele><time>2026-04-11T10:21:44.492Z</time></trkpt><trkpt lat="43.9950553" lon="11.6081182"><ele>1087.0</ele><time>2026-04-11T10:21:45.491Z</time></trkpt><trkpt lat="43.995127" lon="11.6081408"><ele>1091.0</ele><time>2026-04-11T10:21:46.491Z</time></trkpt><trkpt lat="43.995194" lon="11.6081638"><ele>1095.0</ele><time>2026-04-11T10:21:47.494Z</time></trkpt><trkpt lat="43.995308" lon="11.6082047"><ele>1099.0</ele><time>2026-04-11T10:21:49.493Z</time></trkpt><trkpt lat="43.9954017" lon="11.6082345"><ele>1103.0</ele><time>2026-04-11T10:21:51.492Z</time></trkpt><trkpt lat="43.9954833" lon="11.6082725"><ele>1107.0</ele><time>2026-04-11T10:21:53.492Z</time></trkpt><trkpt lat="43.995552" lon="11.6083162"><ele>1107.0</ele><time>2026-04-11T10:21:55.493Z</time></trkpt><trkpt lat="43.995613" lon="11.6083532"><ele>1107.0</ele><time>2026-04-11T10:21:57.492Z</time></trkpt><trkpt lat="43.9956707" lon="11.6083955"><ele>1107.0</ele><time>2026-04-11T10:22:01.494Z</time></trkpt><trkpt lat="43.995731" lon="11.6084563"><ele>1107.0</ele><time>2026-04-11T10:22:04.492Z</time></trkpt><trkpt lat="43.9957963" lon="11.6085182"><ele>1107.0</ele><time>2026-04-11T10:22:07.493Z</time></trkpt><trkpt lat="43.995848" lon="11.6085768"><ele>1107.0</ele><time>2026-04-11T10:22:11.49Z</time></trkpt><trkpt lat="43.9959177" lon="11.608638"><ele>1107.0</ele><time>2026-04-11T10:22:14.492Z</time></trkpt><trkpt lat="43.9959525" lon="11.608713"><ele>1103.6666666666667</ele><time>2026-04-11T10:22:16.494Z</time></trkpt><trkpt lat="43.9959652" lon="11.608802"><ele>1100.3333333333335</ele><time>2026-04-11T10:22:18.491Z</time></trkpt><trkpt lat="43.9959848" lon="11.6090227"><ele>1097.0</ele><time>2026-04-11T10:25:59.493Z</time></trkpt><trkpt lat="43.9960058" lon="11.609379"><ele>1097.0</ele><time>2026-04-11T10:26:03.496Z</time></trkpt><trkpt lat="43.9960152" lon="11.6094775"><ele>1097.0</ele><time>2026-04-11T10:26:04.491Z</time></trkpt><trkpt lat="43.9960337" lon="11.6097417"><ele>1097.0</ele><time>2026-04-11T10:26:07.493Z</time></trkpt><trkpt lat="43.9960558" lon="11.6100467"><ele>1099.0</ele><time>2026-04-11T10:26:11.492Z</time></trkpt><trkpt lat="43.9960342" lon="11.6104232"><ele>1101.0</ele><time>2026-04-11T10:26:15.49Z</time></trkpt><trkpt lat="43.9960282" lon="11.6105163"><ele>1103.0</ele><time>2026-04-11T10:26:16.491Z</time></trkpt><trkpt lat="43.9960092" lon="11.610812"><ele>1109.5</ele><time>2026-04-11T10:26:20.491Z</time></trkpt><trkpt lat="43.9960452" lon="11.6112113"><ele>1116.0</ele><time>2026-04-11T10:26:25.49Z</time></trkpt><trkpt lat="43.9961062" lon="11.6115822"><ele>1116.0</ele><time>2026-04-11T10:26:29.496Z</time></trkpt><trkpt lat="43.9961497" lon="11.6119143"><ele>1116.0</ele><time>2026-04-11T10:26:33.492Z</time></trkpt><trkpt lat="43.9961608" lon="11.612004"><ele>1116.0</ele><time>2026-04-11T10:26:34.492Z</time></trkpt><trkpt lat="43.9962373" lon="11.6124438"><ele>1117.75</ele><time>2026-04-11T10:26:39.49Z</time></trkpt><trkpt lat="43.9963013" lon="11.6125392"><ele>1119.5</ele><time>2026-04-11T10:26:43.494Z</time></trkpt><trkpt lat="43.9963548" lon="11.6125928"><ele>1121.25</ele><time>2026-04-11T10:28:19.491Z</time></trkpt><trkpt lat="43.9965667" lon="11.6127545"><ele>1123.0</ele><time>2026-04-11T10:28:23.493Z</time></trkpt><trkpt lat="43.9968747" lon="11.6129253"><ele>1125.4</ele><time>2026-04-11T10:28:27.494Z</time></trkpt><trkpt lat="43.9969535" lon="11.6129645"><ele>1127.8</ele><time>2026-04-11T10:28:28.49Z</time></trkpt><trkpt lat="43.9970322" lon="11.6130062"><ele>1130.2</ele><time>2026-04-11T10:28:29.491Z</time></trkpt><trkpt lat="43.9971153" lon="11.6130448"><ele>1132.6</ele><time>2026-04-11T10:28:30.491Z</time></trkpt><trkpt lat="43.997294" lon="11.6131467"><ele>1135.0</ele><time>2026-04-11T10:28:33.493Z</time></trkpt><trkpt lat="43.9973658" lon="11.613179"><ele>1135.0</ele><time>2026-04-11T10:28:35.492Z</time></trkpt><trkpt lat="43.9974412" lon="11.6132212"><ele>1135.0</ele><time>2026-04-11T10:28:38.491Z</time></trkpt><trkpt lat="43.9975228" lon="11.613319"><ele>1135.0</ele><time>2026-04-11T10:28:43.489Z</time></trkpt><trkpt lat="43.9975918" lon="11.6133727"><ele>1135.0</ele><time>2026-04-11T10:28:46.492Z</time></trkpt><trkpt lat="43.9976588" lon="11.6134023"><ele>1135.0</ele><time>2026-04-11T10:28:50.492Z</time></trkpt><trkpt lat="43.9977238" lon="11.6134712"><ele>1135.0</ele><time>2026-04-11T10:29:00.492Z</time></trkpt><trkpt lat="43.9977978" lon="11.6134788"><ele>1139.6666666666665</ele><time>2026-04-11T10:29:04.49Z</time></trkpt><trkpt lat="43.9979103" lon="11.6134847"><ele>1144.3333333333333</ele><time>2026-04-11T10:29:09.491Z</time></trkpt><trkpt lat="43.9979662" lon="11.6135403"><ele>1149.0</ele><time>2026-04-11T10:29:14.494Z</time></trkpt><trkpt lat="43.998015" lon="11.61361"><ele>1153.6666666666667</ele><time>2026-04-11T10:29:19.495Z</time></trkpt><trkpt lat="43.9980747" lon="11.6136428"><ele>1158.3333333333335</ele><time>2026-04-11T10:29:44.493Z</time></trkpt><trkpt lat="43.9981658" lon="11.613747"><ele>1163.0</ele><time>2026-04-11T10:29:53.493Z</time></trkpt><trkpt lat="43.9982068" lon="11.6138448"><ele>1166.0</ele><time>2026-04-11T10:30:17.498Z</time></trkpt><trkpt lat="43.998254" lon="11.6139053"><ele>1169.0</ele><time>2026-04-11T10:30:55.493Z</time></trkpt><trkpt lat="43.9983182" lon="11.613921"><ele>1172.0</ele><time>2026-04-11T10:30:59.497Z</time></trkpt><trkpt lat="43.9984088" lon="11.6139613"><ele>1175.0</ele><time>2026-04-11T10:31:26.496Z</time></trkpt><trkpt lat="43.9984927" lon="11.6140123"><ele>1178.0</ele><time>2026-04-11T10:31:30.493Z</time></trkpt><trkpt lat="43.9986065" lon="11.6140838"><ele>1181.0</ele><time>2026-04-11T10:31:34.491Z</time></trkpt><trkpt lat="43.9986905" lon="11.6141073"><ele>1183.3333333333335</ele><time>2026-04-11T10:44:55.493Z</time></trkpt><trkpt lat="43.9987992" lon="11.6141812"><ele>1185.6666666666667</ele><time>2026-04-11T10:44:57.494Z</time></trkpt><trkpt lat="43.9988617" lon="11.6142313"><ele>1188.0</ele><time>2026-04-11T10:44:58.495Z</time></trkpt><trkpt lat="43.9989255" lon="11.614277"><ele>1190.3333333333333</ele><time>2026-04-11T10:44:59.494Z</time></trkpt><trkpt lat="43.9989887" lon="11.6143165"><ele>1192.6666666666665</ele><time>2026-04-11T10:45:00.492Z</time></trkpt><trkpt lat="43.9990555" lon="11.6143543"><ele>1195.0</ele><time>2026-04-11T10:45:01.492Z</time></trkpt><trkpt lat="43.999121" lon="11.6144005"><ele>1194.857142857143</ele><time>2026-04-11T10:45:02.492Z</time></trkpt><trkpt lat="43.9991815" lon="11.6144572"><ele>1194.7142857142858</ele><time>2026-04-11T10:45:03.491Z</time></trkpt><trkpt lat="43.9992428" lon="11.6145152"><ele>1194.5714285714287</ele><time>2026-04-11T10:45:04.491Z</time></trkpt><trkpt lat="43.9993067" lon="11.6145628"><ele>1194.4285714285716</ele><time>2026-04-11T10:45:05.494Z</time></trkpt><trkpt lat="43.9993607" lon="11.6146132"><ele>1194.2857142857142</ele><time>2026-04-11T10:45:06.495Z</time></trkpt><trkpt lat="43.9994033" lon="11.6146798"><ele>1194.1428571428573</ele><time>2026-04-11T10:45:07.498Z</time></trkpt><trkpt lat="43.9994363" lon="11.6147643"><ele>1194.0</ele><time>2026-04-11T10:45:08.496Z</time></trkpt><trkpt lat="43.9994603" lon="11.6148633"><ele>1194.0</ele><time>2026-04-11T10:45:09.496Z</time></trkpt><trkpt lat="43.9994705" lon="11.6149722"><ele>1194.0</ele><time>2026-04-11T10:45:10.494Z</time></trkpt><trkpt lat="43.9994673" lon="11.6150942"><ele>1194.0</ele><time>2026-04-11T10:45:11.495Z</time></trkpt><trkpt lat="43.999463" lon="11.6152188"><ele>1194.0</ele><time>2026-04-11T10:45:12.494Z</time></trkpt><trkpt lat="43.9994672" lon="11.615341"><ele>1194.0</ele><time>2026-04-11T10:45:13.493Z</time></trkpt><trkpt lat="43.999484" lon="11.6154555"><ele>1194.0</ele><time>2026-04-11T10:45:14.495Z</time></trkpt><trkpt lat="43.999513" lon="11.6155762"><ele>1192.2</ele><time>2026-04-11T10:45:15.498Z</time></trkpt><trkpt lat="43.9995512" lon="11.6157018"><ele>1190.4</ele><time>2026-04-11T10:45:16.495Z</time></trkpt><trkpt lat="43.999594" lon="11.6158258"><ele>1188.6</ele><time>2026-04-11T10:45:17.498Z</time></trkpt><trkpt lat="43.9996432" lon="11.6159478"><ele>1186.8</ele><time>2026-04-11T10:45:18.496Z</time></trkpt><trkpt lat="43.9997028" lon="11.616061"><ele>1185.0</ele><time>2026-04-11T10:45:19.494Z</time></trkpt><trkpt lat="43.9997733" lon="11.6161465"><ele>1185.0</ele><time>2026-04-11T10:45:20.494Z</time></trkpt><trkpt lat="43.9998497" lon="11.6162042"><ele>1185.0</ele><time>2026-04-11T10:45:21.495Z</time></trkpt><trkpt lat="43.9999353" lon="11.6162558"><ele>1185.0</ele><time>2026-04-11T10:45:22.494Z</time></trkpt><trkpt lat="44.0000198" lon="11.6163215"><ele>1185.0</ele><time>2026-04-11T10:45:23.495Z</time></trkpt><trkpt lat="44.0001037" lon="11.6164045"><ele>1185.0</ele><time>2026-04-11T10:45:24.494Z</time></trkpt><trkpt lat="44.0001863" lon="11.6164965"><ele>1185.0</ele><time>2026-04-11T10:45:25.492Z</time></trkpt><trkpt lat="44.0002713" lon="11.6165945"><ele>1185.0</ele><time>2026-04-11T10:45:26.492Z</time></trkpt><trkpt lat="44.0003642" lon="11.6166962"><ele>1185.0</ele><time>2026-04-11T10:45:27.492Z</time></trkpt><trkpt lat="44.0004697" lon="11.6167935"><ele>1185.0</ele><time>2026-04-11T10:45:28.492Z</time></trkpt><trkpt lat="44.000579" lon="11.6168832"><ele>1185.0</ele><time>2026-04-11T10:45:29.493Z</time></trkpt><trkpt lat="44.0006923" lon="11.6169747"><ele>1185.0</ele><time>2026-04-11T10:45:30.493Z</time></trkpt><trkpt lat="44.0007992" lon="11.6170668"><ele>1185.0</ele><time>2026-04-11T10:45:31.493Z</time></trkpt><trkpt lat="44.0009007" lon="11.6171617"><ele>1185.0</ele><time>2026-04-11T10:45:32.497Z</time></trkpt><trkpt lat="44.0009897" lon="11.6172595"><ele>1183.0</ele><time>2026-04-11T10:45:33.493Z</time></trkpt><trkpt lat="44.0010773" lon="11.6173653"><ele>1181.0</ele><time>2026-04-11T10:45:34.493Z</time></trkpt><trkpt lat="44.001161" lon="11.6174747"><ele>1179.0</ele><time>2026-04-11T10:45:35.495Z</time></trkpt><trkpt lat="44.0012322" lon="11.6175855"><ele>1177.0</ele><time>2026-04-11T10:45:36.493Z</time></trkpt><trkpt lat="44.00129" lon="11.6176987"><ele>1175.0</ele><time>2026-04-11T10:45:37.494Z</time></trkpt><trkpt lat="44.001336" lon="11.6178168"><ele>1176.6</ele><time>2026-04-11T10:45:38.494Z</time></trkpt><trkpt lat="44.0013797" lon="11.6179338"><ele>1178.2</ele><time>2026-04-11T10:45:39.494Z</time></trkpt><trkpt lat="44.0014317" lon="11.6180367"><ele>1179.8</ele><time>2026-04-11T10:45:40.492Z</time></trkpt><trkpt lat="44.0014968" lon="11.6181202"><ele>1181.4</ele><time>2026-04-11T10:45:41.493Z</time></trkpt><trkpt lat="44.0015753" lon="11.6181865"><ele>1183.0</ele><time>2026-04-11T10:45:42.493Z</time></trkpt><trkpt lat="44.0016678" lon="11.6182348"><ele>1179.0</ele><time>2026-04-11T10:45:43.493Z</time></trkpt><trkpt lat="44.0017692" lon="11.6182605"><ele>1175.0</ele><time>2026-04-11T10:45:44.492Z</time></trkpt><trkpt lat="44.0018792" lon="11.6182635"><ele>1171.0</ele><time>2026-04-11T10:45:45.492Z</time></trkpt><trkpt lat="44.0020025" lon="11.6182552"><ele>1167.0</ele><time>2026-04-11T10:45:46.493Z</time></trkpt><trkpt lat="44.0021202" lon="11.6182373"><ele>1167.0</ele><time>2026-04-11T10:45:47.493Z</time></trkpt><trkpt lat="44.00223" lon="11.6182222"><ele>1167.0</ele><time>2026-04-11T10:45:48.493Z</time></trkpt><trkpt lat="44.0023375" lon="11.618205"><ele>1167.0</ele><time>2026-04-11T10:45:49.492Z</time></trkpt><trkpt lat="44.002446" lon="11.6181888"><ele>1167.0</ele><time>2026-04-11T10:45:50.491Z</time></trkpt><trkpt lat="44.0025485" lon="11.6181823"><ele>1167.0</ele><time>2026-04-11T10:45:51.49Z</time></trkpt><trkpt lat="44.0026462" lon="11.6181877"><ele>1166.2</ele><time>2026-04-11T10:45:52.489Z</time></trkpt><trkpt lat="44.0027397" lon="11.6182072"><ele>1165.4</ele><time>2026-04-11T10:45:53.496Z</time></trkpt><trkpt lat="44.0028283" lon="11.6182435"><ele>1164.6</ele><time>2026-04-11T10:45:54.494Z</time></trkpt><trkpt lat="44.0029208" lon="11.6182962"><ele>1163.8</ele><time>2026-04-11T10:45:55.493Z</time></trkpt><trkpt lat="44.0030128" lon="11.6183617"><ele>1163.0</ele><time>2026-04-11T10:45:56.492Z</time></trkpt><trkpt lat="44.0031142" lon="11.6184368"><ele>1163.0</ele><time>2026-04-11T10:45:57.493Z</time></trkpt><trkpt lat="44.003216" lon="11.6185252"><ele>1163.0</ele><time>2026-04-11T10:45:58.491Z</time></trkpt><trkpt lat="44.0033112" lon="11.6186168"><ele>1163.0</ele><time>2026-04-11T10:45:59.491Z</time></trkpt><trkpt lat="44.0034013" lon="11.6187047"><ele>1163.0</ele><time>2026-04-11T10:46:00.495Z</time></trkpt><trkpt lat="44.003497" lon="11.6187792"><ele>1162.75</ele><time>2026-04-11T10:46:01.491Z</time></trkpt><trkpt lat="44.0036118" lon="11.618835"><ele>1162.5</ele><time>2026-04-11T10:46:02.493Z</time></trkpt><trkpt lat="44.0037485" lon="11.6188587"><ele>1162.25</ele><time>2026-04-11T10:46:03.491Z</time></trkpt><trkpt lat="44.0038935" lon="11.6188688"><ele>1162.0</ele><time>2026-04-11T10:46:04.491Z</time></trkpt><trkpt lat="44.0040325" lon="11.6188755"><ele>1161.25</ele><time>2026-04-11T10:46:05.49Z</time></trkpt><trkpt lat="44.0041673" lon="11.6188825"><ele>1160.5</ele><time>2026-04-11T10:46:06.491Z</time></trkpt><trkpt lat="44.0043057" lon="11.618893"><ele>1159.75</ele><time>2026-04-11T10:46:07.491Z</time></trkpt><trkpt lat="44.004449" lon="11.618906"><ele>1159.0</ele><time>2026-04-11T10:46:08.491Z</time></trkpt><trkpt lat="44.0045883" lon="11.6189132"><ele>1159.0</ele><time>2026-04-11T10:46:09.491Z</time></trkpt><trkpt lat="44.0047195" lon="11.6189128"><ele>1159.0</ele><time>2026-04-11T10:46:10.488Z</time></trkpt><trkpt lat="44.0048517" lon="11.6189067"><ele>1159.0</ele><time>2026-04-11T10:46:11.491Z</time></trkpt><trkpt lat="44.0049805" lon="11.6188985"><ele>1159.0</ele><time>2026-04-11T10:46:12.49Z</time></trkpt><trkpt lat="44.0051038" lon="11.6188947"><ele>1156.5</ele><time>2026-04-11T10:46:13.49Z</time></trkpt><trkpt lat="44.0052242" lon="11.6188967"><ele>1154.0</ele><time>2026-04-11T10:46:14.489Z</time></trkpt><trkpt lat="44.0053413" lon="11.6189092"><ele>1151.5</ele><time>2026-04-11T10:46:15.488Z</time></trkpt><trkpt lat="44.0054547" lon="11.6189335"><ele>1149.0</ele><time>2026-04-11T10:46:16.49Z</time></trkpt><trkpt lat="44.0055665" lon="11.6189727"><ele>1149.0</ele><time>2026-04-11T10:46:17.492Z</time></trkpt><trkpt lat="44.0056795" lon="11.6190245"><ele>1149.0</ele><time>2026-04-11T10:46:18.492Z</time></trkpt><trkpt lat="44.0057877" lon="11.6190773"><ele>1149.0</ele><time>2026-04-11T10:46:19.492Z</time></trkpt><trkpt lat="44.0058868" lon="11.6191335"><ele>1149.0</ele><time>2026-04-11T10:46:20.492Z</time></trkpt><trkpt lat="44.0059858" lon="11.6191818"><ele>1149.0</ele><time>2026-04-11T10:46:21.494Z</time></trkpt><trkpt lat="44.006087" lon="11.6192128"><ele>1147.0</ele><time>2026-04-11T10:46:22.491Z</time></trkpt><trkpt lat="44.0061887" lon="11.619223"><ele>1145.0</ele><time>2026-04-11T10:46:23.492Z</time></trkpt><trkpt lat="44.0062918" lon="11.6192223"><ele>1143.0</ele><time>2026-04-11T10:46:24.493Z</time></trkpt><trkpt lat="44.0064038" lon="11.6192117"><ele>1141.0</ele><time>2026-04-11T10:46:25.493Z</time></trkpt><trkpt lat="44.0065188" lon="11.61919"><ele>1139.0</ele><time>2026-04-11T10:46:26.493Z</time></trkpt><trkpt lat="44.0066413" lon="11.6191502"><ele>1136.5</ele><time>2026-04-11T10:46:27.494Z</time></trkpt><trkpt lat="44.006772" lon="11.6190973"><ele>1134.0</ele><time>2026-04-11T10:46:28.491Z</time></trkpt><trkpt lat="44.0069052" lon="11.6190448"><ele>1131.5</ele><time>2026-04-11T10:46:29.497Z</time></trkpt><trkpt lat="44.0070332" lon="11.6190017"><ele>1129.0</ele><time>2026-04-11T10:46:30.491Z</time></trkpt><trkpt lat="44.0071538" lon="11.618973"><ele>1129.0</ele><time>2026-04-11T10:46:31.491Z</time></trkpt><trkpt lat="44.0072688" lon="11.6189563"><ele>1129.0</ele><time>2026-04-11T10:46:32.491Z</time></trkpt><trkpt lat="44.0073782" lon="11.6189452"><ele>1129.0</ele><time>2026-04-11T10:46:33.49Z</time></trkpt><trkpt lat="44.0074822" lon="11.6189362"><ele>1129.0</ele><time>2026-04-11T10:46:34.488Z</time></trkpt><trkpt lat="44.0075768" lon="11.6189297"><ele>1129.0</ele><time>2026-04-11T10:46:35.491Z</time></trkpt><trkpt lat="44.0076583" lon="11.6189187"><ele>1127.6666666666665</ele><time>2026-04-11T10:46:36.49Z</time></trkpt><trkpt lat="44.0077288" lon="11.618891"><ele>1126.3333333333333</ele><time>2026-04-11T10:46:37.49Z</time></trkpt><trkpt lat="44.0077922" lon="11.6188408"><ele>1125.0</ele><time>2026-04-11T10:46:38.491Z</time></trkpt><trkpt lat="44.0078563" lon="11.6187658"><ele>1123.6666666666667</ele><time>2026-04-11T10:46:39.49Z</time></trkpt><trkpt lat="44.0079323" lon="11.6186808"><ele>1122.3333333333335</ele><time>2026-04-11T10:46:40.489Z</time></trkpt><trkpt lat="44.0080215" lon="11.6185988"><ele>1121.0</ele><time>2026-04-11T10:46:41.49Z</time></trkpt><trkpt lat="44.0081137" lon="11.6185267"><ele>1120.3999999999999</ele><time>2026-04-11T10:46:42.491Z</time></trkpt><trkpt lat="44.0082005" lon="11.6184603"><ele>1119.8</ele><time>2026-04-11T10:46:43.492Z</time></trkpt><trkpt lat="44.0082905" lon="11.618393"><ele>1119.1999999999998</ele><time>2026-04-11T10:46:44.49Z</time></trkpt><trkpt lat="44.00839" lon="11.6183225"><ele>1118.6</ele><time>2026-04-11T10:46:45.49Z</time></trkpt><trkpt lat="44.0084923" lon="11.6182488"><ele>1118.0</ele><time>2026-04-11T10:46:46.49Z</time></trkpt><trkpt lat="44.0085883" lon="11.6181812"><ele>1116.4</ele><time>2026-04-11T10:46:47.495Z</time></trkpt><trkpt lat="44.008685" lon="11.6181262"><ele>1114.8</ele><time>2026-04-11T10:46:48.491Z</time></trkpt><trkpt lat="44.0087847" lon="11.6180823"><ele>1113.2</ele><time>2026-04-11T10:46:49.49Z</time></trkpt><trkpt lat="44.0088823" lon="11.6180412"><ele>1111.6</ele><time>2026-04-11T10:46:50.493Z</time></trkpt><trkpt lat="44.0089678" lon="11.618003"><ele>1110.0</ele><time>2026-04-11T10:46:51.49Z</time></trkpt><trkpt lat="44.0090527" lon="11.6179555"><ele>1110.0</ele><time>2026-04-11T10:46:52.491Z</time></trkpt><trkpt lat="44.0091477" lon="11.6179002"><ele>1110.0</ele><time>2026-04-11T10:46:53.491Z</time></trkpt><trkpt lat="44.0092555" lon="11.6178478"><ele>1110.0</ele><time>2026-04-11T10:46:54.49Z</time></trkpt><trkpt lat="44.0093765" lon="11.6178025"><ele>1110.0</ele><time>2026-04-11T10:46:55.488Z</time></trkpt><trkpt lat="44.0094967" lon="11.6177652"><ele>1106.5</ele><time>2026-04-11T10:46:56.488Z</time></trkpt><trkpt lat="44.00962" lon="11.6177273"><ele>1103.0</ele><time>2026-04-11T10:46:57.49Z</time></trkpt><trkpt lat="44.0097365" lon="11.617691"><ele>1099.5</ele><time>2026-04-11T10:46:58.49Z</time></trkpt><trkpt lat="44.0098537" lon="11.6176557"><ele>1096.0</ele><time>2026-04-11T10:46:59.491Z</time></trkpt><trkpt lat="44.009974" lon="11.617614"><ele>1094.0</ele><time>2026-04-11T10:47:00.49Z</time></trkpt><trkpt lat="44.0100973" lon="11.6175712"><ele>1092.0</ele><time>2026-04-11T10:47:01.491Z</time></trkpt><trkpt lat="44.0102255" lon="11.6175293"><ele>1090.0</ele><time>2026-04-11T10:47:02.49Z</time></trkpt><trkpt lat="44.0103552" lon="11.6174885"><ele>1088.0</ele><time>2026-04-11T10:47:03.488Z</time></trkpt><trkpt lat="44.0104842" lon="11.6174475"><ele>1088.0</ele><time>2026-04-11T10:47:04.488Z</time></trkpt><trkpt lat="44.0106083" lon="11.6174073"><ele>1088.0</ele><time>2026-04-11T10:47:05.489Z</time></trkpt><trkpt lat="44.0107293" lon="11.6173675"><ele>1088.0</ele><time>2026-04-11T10:47:06.487Z</time></trkpt><trkpt lat="44.010846" lon="11.6173388"><ele>1088.0</ele><time>2026-04-11T10:47:07.491Z</time></trkpt><trkpt lat="44.010958" lon="11.6173257"><ele>1086.0</ele><time>2026-04-11T10:47:08.491Z</time></trkpt><trkpt lat="44.0110723" lon="11.6173375"><ele>1084.0</ele><time>2026-04-11T10:47:09.493Z</time></trkpt><trkpt lat="44.0111883" lon="11.6173577"><ele>1082.0</ele><time>2026-04-11T10:47:10.492Z</time></trkpt><trkpt lat="44.0113072" lon="11.6173853"><ele>1080.0</ele><time>2026-04-11T10:47:11.491Z</time></trkpt><trkpt lat="44.0114277" lon="11.6174213"><ele>1080.0</ele><time>2026-04-11T10:47:12.49Z</time></trkpt><trkpt lat="44.0115435" lon="11.6174618"><ele>1080.0</ele><time>2026-04-11T10:47:13.491Z</time></trkpt><trkpt lat="44.0116523" lon="11.6175052"><ele>1080.0</ele><time>2026-04-11T10:47:14.49Z</time></trkpt><trkpt lat="44.0117578" lon="11.617541"><ele>1080.0</ele><time>2026-04-11T10:47:15.488Z</time></trkpt><trkpt lat="44.0118565" lon="11.617559"><ele>1080.0</ele><time>2026-04-11T10:47:16.489Z</time></trkpt><trkpt lat="44.011951" lon="11.6175598"><ele>1077.75</ele><time>2026-04-11T10:47:17.49Z</time></trkpt><trkpt lat="44.0120612" lon="11.617546"><ele>1075.5</ele><time>2026-04-11T10:47:18.49Z</time></trkpt><trkpt lat="44.0121887" lon="11.6175305"><ele>1073.25</ele><time>2026-04-11T10:47:19.488Z</time></trkpt><trkpt lat="44.0123265" lon="11.6175192"><ele>1071.0</ele><time>2026-04-11T10:47:20.489Z</time></trkpt><trkpt lat="44.0124582" lon="11.6175133"><ele>1069.0</ele><time>2026-04-11T10:47:21.49Z</time></trkpt><trkpt lat="44.012583" lon="11.6175117"><ele>1067.0</ele><time>2026-04-11T10:47:22.489Z</time></trkpt><trkpt lat="44.0126983" lon="11.6175192"><ele>1065.0</ele><time>2026-04-11T10:47:23.491Z</time></trkpt><trkpt lat="44.0128102" lon="11.6175463"><ele>1063.0</ele><time>2026-04-11T10:47:24.491Z</time></trkpt><trkpt lat="44.0129352" lon="11.6175892"><ele>1063.0</ele><time>2026-04-11T10:47:25.492Z</time></trkpt><trkpt lat="44.0130583" lon="11.6176363"><ele>1063.0</ele><time>2026-04-11T10:47:26.492Z</time></trkpt><trkpt lat="44.0131698" lon="11.6176785"><ele>1063.0</ele><time>2026-04-11T10:47:27.491Z</time></trkpt><trkpt lat="44.0132943" lon="11.6177207"><ele>1063.0</ele><time>2026-04-11T10:47:28.49Z</time></trkpt><trkpt lat="44.013423" lon="11.617762"><ele>1063.0</ele><time>2026-04-11T10:47:29.49Z</time></trkpt><trkpt lat="44.0135462" lon="11.617807"><ele>1063.0</ele><time>2026-04-11T10:47:30.49Z</time></trkpt><trkpt lat="44.0136622" lon="11.6178613"><ele>1063.0</ele><time>2026-04-11T10:47:31.493Z</time></trkpt><trkpt lat="44.0137745" lon="11.6179312"><ele>1063.0</ele><time>2026-04-11T10:47:32.491Z</time></trkpt><trkpt lat="44.0138855" lon="11.6180197"><ele>1063.0</ele><time>2026-04-11T10:47:33.492Z</time></trkpt><trkpt lat="44.013992" lon="11.6181092"><ele>1063.0</ele><time>2026-04-11T10:47:34.491Z</time></trkpt><trkpt lat="44.0140947" lon="11.6181902"><ele>1063.0</ele><time>2026-04-11T10:47:35.491Z</time></trkpt><trkpt lat="44.0141957" lon="11.6182728"><ele>1063.0</ele><time>2026-04-11T10:47:36.491Z</time></trkpt><trkpt lat="44.0142937" lon="11.6183548"><ele>1062.25</ele><time>2026-04-11T10:47:37.493Z</time></trkpt><trkpt lat="44.0143857" lon="11.6184388"><ele>1061.5</ele><time>2026-04-11T10:47:38.491Z</time></trkpt><trkpt lat="44.0144768" lon="11.618531"><ele>1060.75</ele><time>2026-04-11T10:47:39.492Z</time></trkpt><trkpt lat="44.014561" lon="11.6186413"><ele>1060.0</ele><time>2026-04-11T10:47:40.491Z</time></trkpt><trkpt lat="44.014645" lon="11.6187632"><ele>1060.0</ele><time>2026-04-11T10:47:41.496Z</time></trkpt><trkpt lat="44.0147268" lon="11.6188862"><ele>1060.0</ele><time>2026-04-11T10:47:42.491Z</time></trkpt><trkpt lat="44.0148148" lon="11.6190208"><ele>1060.0</ele><time>2026-04-11T10:47:43.491Z</time></trkpt><trkpt lat="44.0149007" lon="11.6191492"><ele>1060.0</ele><time>2026-04-11T10:47:44.492Z</time></trkpt><trkpt lat="44.0149872" lon="11.6192732"><ele>1053.75</ele><time>2026-04-11T10:47:45.493Z</time></trkpt><trkpt lat="44.0150745" lon="11.6193913"><ele>1047.5</ele><time>2026-04-11T10:47:46.489Z</time></trkpt><trkpt lat="44.0151637" lon="11.6195007"><ele>1041.25</ele><time>2026-04-11T10:47:47.492Z</time></trkpt><trkpt lat="44.0152525" lon="11.6196045"><ele>1035.0</ele><time>2026-04-11T10:47:48.49Z</time></trkpt><trkpt lat="44.0153498" lon="11.6197078"><ele>1035.0</ele><time>2026-04-11T10:47:49.489Z</time></trkpt><trkpt lat="44.0154458" lon="11.6197992"><ele>1035.0</ele><time>2026-04-11T10:47:50.491Z</time></trkpt><trkpt lat="44.0155402" lon="11.6198805"><ele>1035.0</ele><time>2026-04-11T10:47:51.488Z</time></trkpt><trkpt lat="44.0156372" lon="11.6199428"><ele>1035.0</ele><time>2026-04-11T10:47:52.488Z</time></trkpt><trkpt lat="44.0157343" lon="11.619978"><ele>1035.0</ele><time>2026-04-11T10:47:53.49Z</time></trkpt><trkpt lat="44.0158347" lon="11.6199948"><ele>1032.2</ele><time>2026-04-11T10:47:54.493Z</time></trkpt><trkpt lat="44.0159333" lon="11.6200272"><ele>1029.4</ele><time>2026-04-11T10:47:55.493Z</time></trkpt><trkpt lat="44.0160307" lon="11.6200855"><ele>1026.6</ele><time>2026-04-11T10:47:56.493Z</time></trkpt><trkpt lat="44.0161258" lon="11.6201688"><ele>1023.8</ele><time>2026-04-11T10:47:57.492Z</time></trkpt><trkpt lat="44.016201" lon="11.6202607"><ele>1021.0</ele><time>2026-04-11T10:47:58.494Z</time></trkpt><trkpt lat="44.0162548" lon="11.6203525"><ele>1020.9999999999999</ele><time>2026-04-11T10:47:59.494Z</time></trkpt><trkpt lat="44.0162937" lon="11.6204513"><ele>1021.0</ele><time>2026-04-11T10:48:00.494Z</time></trkpt><trkpt lat="44.0163178" lon="11.6205595"><ele>1021.0</ele><time>2026-04-11T10:48:01.493Z</time></trkpt><trkpt lat="44.0163337" lon="11.6206782"><ele>1021.0</ele><time>2026-04-11T10:48:02.494Z</time></trkpt><trkpt lat="44.0163567" lon="11.6208002"><ele>1020.9999999999999</ele><time>2026-04-11T10:48:03.494Z</time></trkpt><trkpt lat="44.0163955" lon="11.6209258"><ele>1021.0</ele><time>2026-04-11T10:48:04.493Z</time></trkpt><trkpt lat="44.0164483" lon="11.6210503"><ele>1019.5999999999999</ele><time>2026-04-11T10:48:05.493Z</time></trkpt><trkpt lat="44.016513" lon="11.6211718"><ele>1018.1999999999999</ele><time>2026-04-11T10:48:06.491Z</time></trkpt><trkpt lat="44.0165907" lon="11.621283"><ele>1016.8000000000001</ele><time>2026-04-11T10:48:07.492Z</time></trkpt><trkpt lat="44.0166778" lon="11.6213815"><ele>1015.4000000000001</ele><time>2026-04-11T10:48:08.493Z</time></trkpt><trkpt lat="44.0167667" lon="11.6214727"><ele>1014.0</ele><time>2026-04-11T10:48:09.495Z</time></trkpt><trkpt lat="44.0168502" lon="11.6215632"><ele>1014.0</ele><time>2026-04-11T10:48:10.494Z</time></trkpt><trkpt lat="44.0169275" lon="11.6216587"><ele>1014.0000000000001</ele><time>2026-04-11T10:48:11.495Z</time></trkpt><trkpt lat="44.0169932" lon="11.621765"><ele>1014.0000000000001</ele><time>2026-04-11T10:48:12.496Z</time></trkpt><trkpt lat="44.01704" lon="11.6218792"><ele>1014.0</ele><time>2026-04-11T10:48:13.494Z</time></trkpt><trkpt lat="44.017071" lon="11.622005"><ele>1014.0</ele><time>2026-04-11T10:48:14.494Z</time></trkpt><trkpt lat="44.0170903" lon="11.6221373"><ele>1014.2</ele><time>2026-04-11T10:48:15.497Z</time></trkpt><trkpt lat="44.0171063" lon="11.6222713"><ele>1014.4000000000001</ele><time>2026-04-11T10:48:16.503Z</time></trkpt><trkpt lat="44.0171213" lon="11.6224057"><ele>1014.6</ele><time>2026-04-11T10:48:17.492Z</time></trkpt><trkpt lat="44.0171335" lon="11.6225405"><ele>1014.8</ele><time>2026-04-11T10:48:18.491Z</time></trkpt><trkpt lat="44.0171433" lon="11.6226745"><ele>1015.0</ele><time>2026-04-11T10:48:19.492Z</time></trkpt><trkpt lat="44.017151" lon="11.6228147"><ele>1014.2</ele><time>2026-04-11T10:48:20.494Z</time></trkpt><trkpt lat="44.0171522" lon="11.6229593"><ele>1013.4</ele><time>2026-04-11T10:48:21.495Z</time></trkpt><trkpt lat="44.0171485" lon="11.623105"><ele>1012.5999999999999</ele><time>2026-04-11T10:48:22.494Z</time></trkpt><trkpt lat="44.0171385" lon="11.6232348"><ele>1011.8</ele><time>2026-04-11T10:48:23.494Z</time></trkpt><trkpt lat="44.0171235" lon="11.62335"><ele>1011.0</ele><time>2026-04-11T10:48:24.493Z</time></trkpt><trkpt lat="44.017098" lon="11.623461"><ele>1011.0</ele><time>2026-04-11T10:48:25.494Z</time></trkpt><trkpt lat="44.0170563" lon="11.6235662"><ele>1011.0</ele><time>2026-04-11T10:48:26.494Z</time></trkpt><trkpt lat="44.0170072" lon="11.6236757"><ele>1011.0</ele><time>2026-04-11T10:48:27.491Z</time></trkpt><trkpt lat="44.0169665" lon="11.623787"><ele>1011.0</ele><time>2026-04-11T10:48:28.491Z</time></trkpt><trkpt lat="44.0169462" lon="11.623898"><ele>1011.0</ele><time>2026-04-11T10:48:29.493Z</time></trkpt><trkpt lat="44.0169537" lon="11.6240028"><ele>1011.0</ele><time>2026-04-11T10:48:30.493Z</time></trkpt><trkpt lat="44.016987" lon="11.6241123"><ele>1009.75</ele><time>2026-04-11T10:48:31.494Z</time></trkpt><trkpt lat="44.0170328" lon="11.6242325"><ele>1008.5</ele><time>2026-04-11T10:48:32.494Z</time></trkpt><trkpt lat="44.0170793" lon="11.6243748"><ele>1007.25</ele><time>2026-04-11T10:48:33.492Z</time></trkpt><trkpt lat="44.0171257" lon="11.6245325"><ele>1006.0</ele><time>2026-04-11T10:48:34.493Z</time></trkpt><trkpt lat="44.0171678" lon="11.6247043"><ele>1005.25</ele><time>2026-04-11T10:48:35.494Z</time></trkpt><trkpt lat="44.0172067" lon="11.6248732"><ele>1004.5</ele><time>2026-04-11T10:48:36.493Z</time></trkpt><trkpt lat="44.0172408" lon="11.6250353"><ele>1003.75</ele><time>2026-04-11T10:48:37.495Z</time></trkpt><trkpt lat="44.017267" lon="11.6251958"><ele>1003.0</ele><time>2026-04-11T10:48:38.495Z</time></trkpt><trkpt lat="44.0173003" lon="11.625361"><ele>1001.25</ele><time>2026-04-11T10:48:39.496Z</time></trkpt><trkpt lat="44.0173313" lon="11.6255422"><ele>999.5</ele><time>2026-04-11T10:48:40.495Z</time></trkpt><trkpt lat="44.0173545" lon="11.6257333"><ele>997.75</ele><time>2026-04-11T10:48:41.493Z</time></trkpt><trkpt lat="44.0173705" lon="11.6259252"><ele>996.0</ele><time>2026-04-11T10:48:42.495Z</time></trkpt><trkpt lat="44.0173757" lon="11.6261168"><ele>995.75</ele><time>2026-04-11T10:48:43.494Z</time></trkpt><trkpt lat="44.0173685" lon="11.6263087"><ele>995.5</ele><time>2026-04-11T10:48:44.493Z</time></trkpt><trkpt lat="44.0173568" lon="11.6265"><ele>995.25</ele><time>2026-04-11T10:48:45.495Z</time></trkpt><trkpt lat="44.017347" lon="11.6266733"><ele>995.0</ele><time>2026-04-11T10:48:46.494Z</time></trkpt><trkpt lat="44.0173413" lon="11.6268323"><ele>995.0</ele><time>2026-04-11T10:48:47.497Z</time></trkpt><trkpt lat="44.0173437" lon="11.626976"><ele>995.0</ele><time>2026-04-11T10:48:48.495Z</time></trkpt><trkpt lat="44.0173605" lon="11.6271148"><ele>995.0</ele><time>2026-04-11T10:48:49.494Z</time></trkpt><trkpt lat="44.017391" lon="11.6272437"><ele>995.0</ele><time>2026-04-11T10:48:50.495Z</time></trkpt><trkpt lat="44.0174405" lon="11.6273705"><ele>995.0</ele><time>2026-04-11T10:48:51.492Z</time></trkpt><trkpt lat="44.017504" lon="11.6274872"><ele>993.4</ele><time>2026-04-11T10:48:52.494Z</time></trkpt><trkpt lat="44.0175737" lon="11.6275963"><ele>991.8</ele><time>2026-04-11T10:48:53.496Z</time></trkpt><trkpt lat="44.0176518" lon="11.6276955"><ele>990.2</ele><time>2026-04-11T10:48:54.497Z</time></trkpt><trkpt lat="44.0177317" lon="11.6277942"><ele>988.6</ele><time>2026-04-11T10:48:55.493Z</time></trkpt><trkpt lat="44.0178102" lon="11.6278973"><ele>987.0</ele><time>2026-04-11T10:48:56.495Z</time></trkpt><trkpt lat="44.017881" lon="11.6279957"><ele>986.2</ele><time>2026-04-11T10:48:57.497Z</time></trkpt><trkpt lat="44.0179355" lon="11.628099"><ele>985.4000000000001</ele><time>2026-04-11T10:48:58.497Z</time></trkpt><trkpt lat="44.0179715" lon="11.6282178"><ele>984.5999999999999</ele><time>2026-04-11T10:48:59.496Z</time></trkpt><trkpt lat="44.017991" lon="11.6283495"><ele>983.8</ele><time>2026-04-11T10:49:00.496Z</time></trkpt><trkpt lat="44.0180008" lon="11.6284902"><ele>983.0</ele><time>2026-04-11T10:49:01.497Z</time></trkpt><trkpt lat="44.01801" lon="11.6286342"><ele>982.4</ele><time>2026-04-11T10:49:02.496Z</time></trkpt><trkpt lat="44.0180197" lon="11.6287792"><ele>981.8</ele><time>2026-04-11T10:49:03.496Z</time></trkpt><trkpt lat="44.0180345" lon="11.6289265"><ele>981.2</ele><time>2026-04-11T10:49:04.494Z</time></trkpt><trkpt lat="44.0180568" lon="11.6290735"><ele>980.6</ele><time>2026-04-11T10:49:05.494Z</time></trkpt><trkpt lat="44.0180847" lon="11.6292208"><ele>980.0</ele><time>2026-04-11T10:49:06.491Z</time></trkpt><trkpt lat="44.0181195" lon="11.629366"><ele>979.4</ele><time>2026-04-11T10:49:07.492Z</time></trkpt><trkpt lat="44.0181615" lon="11.629508"><ele>978.8</ele><time>2026-04-11T10:49:08.492Z</time></trkpt><trkpt lat="44.0182092" lon="11.629649"><ele>978.2</ele><time>2026-04-11T10:49:09.493Z</time></trkpt><trkpt lat="44.01826" lon="11.629789"><ele>977.6</ele><time>2026-04-11T10:49:10.495Z</time></trkpt><trkpt lat="44.0183123" lon="11.629926"><ele>977.0</ele><time>2026-04-11T10:49:11.495Z</time></trkpt><trkpt lat="44.0183623" lon="11.6300562"><ele>977.3333333333334</ele><time>2026-04-11T10:49:12.494Z</time></trkpt><trkpt lat="44.0184082" lon="11.6301803"><ele>977.6666666666667</ele><time>2026-04-11T10:49:13.494Z</time></trkpt><trkpt lat="44.0184408" lon="11.6303035"><ele>978.0</ele><time>2026-04-11T10:49:14.495Z</time></trkpt><trkpt lat="44.0184502" lon="11.6304177"><ele>978.3333333333333</ele><time>2026-04-11T10:49:15.497Z</time></trkpt><trkpt lat="44.0184383" lon="11.6305317"><ele>978.6666666666666</ele><time>2026-04-11T10:49:16.494Z</time></trkpt><trkpt lat="44.0184112" lon="11.6306417"><ele>979.0</ele><time>2026-04-11T10:49:17.496Z</time></trkpt><trkpt lat="44.0183812" lon="11.6307535"><ele>978.9999999999999</ele><time>2026-04-11T10:49:18.497Z</time></trkpt><trkpt lat="44.0183525" lon="11.6308678"><ele>979.0</ele><time>2026-04-11T10:49:19.497Z</time></trkpt><trkpt lat="44.0183345" lon="11.630986"><ele>979.0</ele><time>2026-04-11T10:49:20.496Z</time></trkpt><trkpt lat="44.0183353" lon="11.6311003"><ele>979.0</ele><time>2026-04-11T10:49:21.495Z</time></trkpt><trkpt lat="44.0183425" lon="11.6312208"><ele>978.9999999999999</ele><time>2026-04-11T10:49:22.495Z</time></trkpt><trkpt lat="44.0183412" lon="11.6313478"><ele>979.0</ele><time>2026-04-11T10:49:23.497Z</time></trkpt><trkpt lat="44.0183422" lon="11.6314688"><ele>981.3333333333333</ele><time>2026-04-11T10:49:24.495Z</time></trkpt><trkpt lat="44.0183595" lon="11.6315892"><ele>983.6666666666666</ele><time>2026-04-11T10:49:25.495Z</time></trkpt><trkpt lat="44.0183908" lon="11.6317047"><ele>986.0</ele><time>2026-04-11T10:49:26.497Z</time></trkpt><trkpt lat="44.018439" lon="11.631807"><ele>988.3333333333333</ele><time>2026-04-11T10:49:27.496Z</time></trkpt><trkpt lat="44.0184947" lon="11.6319038"><ele>990.6666666666666</ele><time>2026-04-11T10:49:28.494Z</time></trkpt><trkpt lat="44.018553" lon="11.6320013"><ele>993.0</ele><time>2026-04-11T10:49:29.495Z</time></trkpt><trkpt lat="44.0186092" lon="11.6320987"><ele>996.5999999999999</ele><time>2026-04-11T10:49:30.491Z</time></trkpt><trkpt lat="44.0186638" lon="11.632213"><ele>1000.1999999999999</ele><time>2026-04-11T10:49:31.693Z</time></trkpt><trkpt lat="44.0187002" lon="11.6323892"><ele>1003.8</ele><time>2026-04-11T10:49:33.494Z</time></trkpt><trkpt lat="44.0186575" lon="11.6325345"><ele>1007.4</ele><time>2026-04-11T10:49:35.494Z</time></trkpt><trkpt lat="44.0186123" lon="11.6326"><ele>1011.0</ele><time>2026-04-11T10:49:36.495Z</time></trkpt><trkpt lat="44.0185693" lon="11.63267"><ele>1011.0</ele><time>2026-04-11T10:49:37.494Z</time></trkpt><trkpt lat="44.0185408" lon="11.6327572"><ele>1011.0</ele><time>2026-04-11T10:49:38.493Z</time></trkpt><trkpt lat="44.0185238" lon="11.6328607"><ele>1011.0</ele><time>2026-04-11T10:49:39.498Z</time></trkpt><trkpt lat="44.0185113" lon="11.6329798"><ele>1011.0</ele><time>2026-04-11T10:49:40.495Z</time></trkpt><trkpt lat="44.018501" lon="11.6331088"><ele>1011.0</ele><time>2026-04-11T10:49:41.494Z</time></trkpt><trkpt lat="44.0184958" lon="11.6332377"><ele>1011.0</ele><time>2026-04-11T10:49:42.492Z</time></trkpt><trkpt lat="44.0184943" lon="11.6333645"><ele>1013.0</ele><time>2026-04-11T10:49:43.492Z</time></trkpt><trkpt lat="44.0184912" lon="11.633487"><ele>1014.9999999999999</ele><time>2026-04-11T10:49:44.493Z</time></trkpt><trkpt lat="44.0184867" lon="11.6336137"><ele>1016.9999999999999</ele><time>2026-04-11T10:49:45.493Z</time></trkpt><trkpt lat="44.0184835" lon="11.6337443"><ele>1019.0</ele><time>2026-04-11T10:49:46.495Z</time></trkpt><trkpt lat="44.0184857" lon="11.6338812"><ele>1021.0</ele><time>2026-04-11T10:49:47.496Z</time></trkpt><trkpt lat="44.018493" lon="11.634019"><ele>1021.1666666666666</ele><time>2026-04-11T10:49:48.494Z</time></trkpt><trkpt lat="44.0184978" lon="11.634154"><ele>1021.3333333333333</ele><time>2026-04-11T10:49:49.494Z</time></trkpt><trkpt lat="44.0184953" lon="11.6342813"><ele>1021.5</ele><time>2026-04-11T10:49:50.495Z</time></trkpt><trkpt lat="44.0184875" lon="11.6344003"><ele>1021.6666666666667</ele><time>2026-04-11T10:49:51.494Z</time></trkpt><trkpt lat="44.0184747" lon="11.6345125"><ele>1021.8333333333334</ele><time>2026-04-11T10:49:52.493Z</time></trkpt><trkpt lat="44.0184555" lon="11.6346193"><ele>1022.0</ele><time>2026-04-11T10:49:53.494Z</time></trkpt><trkpt lat="44.0184345" lon="11.6347278"><ele>1021.0</ele><time>2026-04-11T10:49:54.491Z</time></trkpt><trkpt lat="44.018416" lon="11.6348453"><ele>1020.0</ele><time>2026-04-11T10:49:55.493Z</time></trkpt><trkpt lat="44.018397" lon="11.6349637"><ele>1019.0</ele><time>2026-04-11T10:49:56.492Z</time></trkpt><trkpt lat="44.0183837" lon="11.6350833"><ele>1018.0</ele><time>2026-04-11T10:49:57.492Z</time></trkpt><trkpt lat="44.018373" lon="11.6352162"><ele>1017.0</ele><time>2026-04-11T10:49:58.492Z</time></trkpt><trkpt lat="44.0183633" lon="11.6353455"><ele>1016.4000000000001</ele><time>2026-04-11T10:49:59.494Z</time></trkpt><trkpt lat="44.0183555" lon="11.6354832"><ele>1015.8000000000001</ele><time>2026-04-11T10:50:00.494Z</time></trkpt><trkpt lat="44.0183525" lon="11.635626"><ele>1015.2</ele><time>2026-04-11T10:50:01.496Z</time></trkpt><trkpt lat="44.018359" lon="11.6357573"><ele>1014.6</ele><time>2026-04-11T10:50:02.494Z</time></trkpt><trkpt lat="44.0183685" lon="11.6358753"><ele>1014.0</ele><time>2026-04-11T10:50:03.495Z</time></trkpt><trkpt lat="44.018376" lon="11.635982"><ele>1014.0</ele><time>2026-04-11T10:50:04.494Z</time></trkpt><trkpt lat="44.0183785" lon="11.6360797"><ele>1014.0</ele><time>2026-04-11T10:50:05.496Z</time></trkpt><trkpt lat="44.0183682" lon="11.6361765"><ele>1014.0</ele><time>2026-04-11T10:50:06.493Z</time></trkpt><trkpt lat="44.018352" lon="11.6362735"><ele>1014.0</ele><time>2026-04-11T10:50:07.493Z</time></trkpt><trkpt lat="44.0183407" lon="11.6363767"><ele>1014.0</ele><time>2026-04-11T10:50:08.493Z</time></trkpt><trkpt lat="44.0183332" lon="11.6364922"><ele>1014.0</ele><time>2026-04-11T10:50:09.494Z</time></trkpt><trkpt lat="44.0183183" lon="11.6366113"><ele>1009.8000000000001</ele><time>2026-04-11T10:50:10.494Z</time></trkpt><trkpt lat="44.0183053" lon="11.6367373"><ele>1005.6000000000001</ele><time>2026-04-11T10:50:11.498Z</time></trkpt><trkpt lat="44.0182885" lon="11.6368808"><ele>1001.4</ele><time>2026-04-11T10:50:12.493Z</time></trkpt><trkpt lat="44.0182658" lon="11.6370238"><ele>997.2</ele><time>2026-04-11T10:50:13.496Z</time></trkpt><trkpt lat="44.0182413" lon="11.637159"><ele>993.0</ele><time>2026-04-11T10:50:14.495Z</time></trkpt><trkpt lat="44.0182112" lon="11.6372945"><ele>993.0</ele><time>2026-04-11T10:50:15.494Z</time></trkpt><trkpt lat="44.018172" lon="11.6374213"><ele>993.0</ele><time>2026-04-11T10:50:16.495Z</time></trkpt><trkpt lat="44.0181223" lon="11.6375462"><ele>993.0</ele><time>2026-04-11T10:50:17.494Z</time></trkpt><trkpt lat="44.0180598" lon="11.637669"><ele>993.0</ele><time>2026-04-11T10:50:18.493Z</time></trkpt><trkpt lat="44.0179938" lon="11.6377897"><ele>993.0</ele><time>2026-04-11T10:50:19.494Z</time></trkpt><trkpt lat="44.0179305" lon="11.6378967"><ele>993.8333333333334</ele><time>2026-04-11T10:50:20.492Z</time></trkpt><trkpt lat="44.0178727" lon="11.6379953"><ele>994.6666666666667</ele><time>2026-04-11T10:50:21.491Z</time></trkpt><trkpt lat="44.0178228" lon="11.6381028"><ele>995.5</ele><time>2026-04-11T10:50:22.492Z</time></trkpt><trkpt lat="44.0177813" lon="11.6382072"><ele>996.3333333333334</ele><time>2026-04-11T10:50:23.494Z</time></trkpt><trkpt lat="44.0177432" lon="11.6383067"><ele>997.1666666666667</ele><time>2026-04-11T10:50:24.495Z</time></trkpt><trkpt lat="44.0177047" lon="11.6384027"><ele>998.0</ele><time>2026-04-11T10:50:25.495Z</time></trkpt><trkpt lat="44.0176652" lon="11.6384927"><ele>998.0000000000001</ele><time>2026-04-11T10:50:26.494Z</time></trkpt><trkpt lat="44.0176275" lon="11.6385812"><ele>998.0</ele><time>2026-04-11T10:50:27.494Z</time></trkpt><trkpt lat="44.0176083" lon="11.638687"><ele>998.0000000000001</ele><time>2026-04-11T10:50:29.495Z</time></trkpt><trkpt lat="44.017639" lon="11.6387722"><ele>998.0000000000001</ele><time>2026-04-11T10:51:22.495Z</time></trkpt><trkpt lat="44.0176552" lon="11.6388897"><ele>998.0</ele><time>2026-04-11T10:51:25.494Z</time></trkpt><trkpt lat="44.0176748" lon="11.6389737"><ele>998.0000000000001</ele><time>2026-04-11T10:51:27.494Z</time></trkpt><trkpt lat="44.0176917" lon="11.6390658"><ele>998.0000000000001</ele><time>2026-04-11T10:52:07.492Z</time></trkpt><trkpt lat="44.0177087" lon="11.6391932"><ele>998.2857142857144</ele><time>2026-04-11T10:52:10.492Z</time></trkpt><trkpt lat="44.017701" lon="11.6392875"><ele>998.5714285714287</ele><time>2026-04-11T10:52:12.493Z</time></trkpt><trkpt lat="44.0176988" lon="11.6393983"><ele>998.8571428571429</ele><time>2026-04-11T10:52:16.492Z</time></trkpt><trkpt lat="44.0177097" lon="11.6394925"><ele>999.1428571428572</ele><time>2026-04-11T10:52:19.491Z</time></trkpt><trkpt lat="44.0176562" lon="11.639589"><ele>999.4285714285716</ele><time>2026-04-11T10:52:22.49Z</time></trkpt><trkpt lat="44.0176348" lon="11.6396832"><ele>999.7142857142857</ele><time>2026-04-11T10:52:25.491Z</time></trkpt><trkpt lat="44.0176335" lon="11.639781"><ele>1000.0</ele><time>2026-04-11T10:52:29.492Z</time></trkpt><trkpt lat="44.017675" lon="11.6398608"><ele>1000.7142857142857</ele><time>2026-04-11T10:52:32.492Z</time></trkpt><trkpt lat="44.0176927" lon="11.6399568"><ele>1001.4285714285716</ele><time>2026-04-11T10:52:37.491Z</time></trkpt><trkpt lat="44.0177122" lon="11.6400405"><ele>1002.1428571428572</ele><time>2026-04-11T10:52:41.491Z</time></trkpt><trkpt lat="44.017757" lon="11.6401052"><ele>1002.8571428571429</ele><time>2026-04-11T10:52:46.489Z</time></trkpt><trkpt lat="44.0177945" lon="11.6402152"><ele>1003.5714285714287</ele><time>2026-04-11T10:52:49.488Z</time></trkpt><trkpt lat="44.01784" lon="11.6403072"><ele>1004.2857142857144</ele><time>2026-04-11T10:52:52.491Z</time></trkpt><trkpt lat="44.0178952" lon="11.6403915"><ele>1005.0000000000001</ele><time>2026-04-11T10:52:54.491Z</time></trkpt><trkpt lat="44.0179155" lon="11.6404893"><ele>1007.1666666666666</ele><time>2026-04-11T10:52:56.49Z</time></trkpt><trkpt lat="44.0179658" lon="11.6405717"><ele>1009.3333333333333</ele><time>2026-04-11T10:52:58.49Z</time></trkpt><trkpt lat="44.0179758" lon="11.6406805"><ele>1011.5</ele><time>2026-04-11T10:53:00.491Z</time></trkpt><trkpt lat="44.0179617" lon="11.640792"><ele>1013.6666666666666</ele><time>2026-04-11T10:53:02.491Z</time></trkpt><trkpt lat="44.0179672" lon="11.6409008"><ele>1015.8333333333333</ele><time>2026-04-11T10:53:04.491Z</time></trkpt><trkpt lat="44.0179828" lon="11.6410313"><ele>1018.0</ele><time>2026-04-11T10:53:06.491Z</time></trkpt><trkpt lat="44.0179843" lon="11.641156"><ele>1019.5999999999999</ele><time>2026-04-11T10:53:08.491Z</time></trkpt><trkpt lat="44.0180365" lon="11.6412292"><ele>1021.1999999999999</ele><time>2026-04-11T10:53:10.49Z</time></trkpt><trkpt lat="44.0181588" lon="11.6412973"><ele>1022.8</ele><time>2026-04-11T10:53:12.487Z</time></trkpt><trkpt lat="44.018219" lon="11.6413335"><ele>1024.3999999999999</ele><time>2026-04-11T10:53:13.488Z</time></trkpt><trkpt lat="44.0183278" lon="11.6413247"><ele>1026.0</ele><time>2026-04-11T10:53:15.488Z</time></trkpt><trkpt lat="44.01844" lon="11.6413547"><ele>1018.1999999999999</ele><time>2026-04-11T10:53:17.488Z</time></trkpt><trkpt lat="44.01851" lon="11.6414083"><ele>1010.3999999999999</ele><time>2026-04-11T10:53:20.489Z</time></trkpt><trkpt lat="44.0185942" lon="11.6414237"><ele>1002.6</ele><time>2026-04-11T10:53:22.488Z</time></trkpt><trkpt lat="44.0186982" lon="11.6414597"><ele>994.8</ele><time>2026-04-11T10:53:24.489Z</time></trkpt><trkpt lat="44.018802" lon="11.6414907"><ele>987.0</ele><time>2026-04-11T10:53:26.489Z</time></trkpt><trkpt lat="44.0188927" lon="11.6415628"><ele>987.0</ele><time>2026-04-11T10:53:28.487Z</time></trkpt><trkpt lat="44.0189412" lon="11.6416403"><ele>987.0</ele><time>2026-04-11T10:53:30.49Z</time></trkpt><trkpt lat="44.018943" lon="11.6417535"><ele>987.0</ele><time>2026-04-11T10:53:33.49Z</time></trkpt><trkpt lat="44.018918" lon="11.641834"><ele>987.0</ele><time>2026-04-11T10:53:35.489Z</time></trkpt><trkpt lat="44.018873" lon="11.641943"><ele>987.0</ele><time>2026-04-11T10:53:37.488Z</time></trkpt><trkpt lat="44.0188095" lon="11.6420352"><ele>987.0</ele><time>2026-04-11T10:53:39.492Z</time></trkpt><trkpt lat="44.0187468" lon="11.6421242"><ele>988.3333333333334</ele><time>2026-04-11T10:53:41.492Z</time></trkpt><trkpt lat="44.0186988" lon="11.6421878"><ele>989.6666666666667</ele><time>2026-04-11T10:53:43.493Z</time></trkpt><trkpt lat="44.0186297" lon="11.6422313"><ele>991.0</ele><time>2026-04-11T10:53:46.492Z</time></trkpt><trkpt lat="44.0185668" lon="11.6422743"><ele>992.3333333333334</ele><time>2026-04-11T10:53:49.49Z</time></trkpt><trkpt lat="44.018511" lon="11.6423777"><ele>993.6666666666667</ele><time>2026-04-11T10:53:54.49Z</time></trkpt><trkpt lat="44.0184643" lon="11.6424853"><ele>995.0</ele><time>2026-04-11T10:53:56.49Z</time></trkpt><trkpt lat="44.018453" lon="11.642598"><ele>995.0000000000001</ele><time>2026-04-11T10:53:58.49Z</time></trkpt><trkpt lat="44.0184792" lon="11.6426873"><ele>995.0</ele><time>2026-04-11T10:54:00.489Z</time></trkpt><trkpt lat="44.0185022" lon="11.642777"><ele>995.0</ele><time>2026-04-11T10:54:02.488Z</time></trkpt><trkpt lat="44.0185202" lon="11.6428847"><ele>995.0</ele><time>2026-04-11T10:54:04.489Z</time></trkpt><trkpt lat="44.0185667" lon="11.6429827"><ele>995.0000000000001</ele><time>2026-04-11T10:54:07.49Z</time></trkpt><trkpt lat="44.0185957" lon="11.643083"><ele>995.0</ele><time>2026-04-11T10:54:09.491Z</time></trkpt><trkpt lat="44.0186547" lon="11.6432307"><ele>995.3333333333334</ele><time>2026-04-11T10:54:11.492Z</time></trkpt><trkpt lat="44.0186965" lon="11.6433088"><ele>995.6666666666667</ele><time>2026-04-11T10:54:12.489Z</time></trkpt><trkpt lat="44.0187473" lon="11.6434173"><ele>996.0</ele><time>2026-04-11T10:54:14.491Z</time></trkpt><trkpt lat="44.0187772" lon="11.6435278"><ele>996.3333333333333</ele><time>2026-04-11T10:54:17.488Z</time></trkpt><trkpt lat="44.0187835" lon="11.6436335"><ele>996.6666666666666</ele><time>2026-04-11T10:54:19.49Z</time></trkpt><trkpt lat="44.0187983" lon="11.6437247"><ele>997.0</ele><time>2026-04-11T10:54:21.49Z</time></trkpt><trkpt lat="44.018837" lon="11.6438553"><ele>995.4999999999999</ele><time>2026-04-11T10:54:23.488Z</time></trkpt><trkpt lat="44.0188978" lon="11.6439652"><ele>994.0</ele><time>2026-04-11T10:54:25.488Z</time></trkpt><trkpt lat="44.0189753" lon="11.6440212"><ele>992.5</ele><time>2026-04-11T10:54:27.49Z</time></trkpt><trkpt lat="44.0190447" lon="11.6440745"><ele>991.0</ele><time>2026-04-11T10:54:29.491Z</time></trkpt><trkpt lat="44.019109" lon="11.644142"><ele>989.4999999999999</ele><time>2026-04-11T10:54:31.491Z</time></trkpt><trkpt lat="44.0191828" lon="11.6442155"><ele>988.0</ele><time>2026-04-11T10:54:33.493Z</time></trkpt><trkpt lat="44.0192935" lon="11.644274"><ele>982.9999999999999</ele><time>2026-04-11T10:54:35.49Z</time></trkpt><trkpt lat="44.019358" lon="11.644304"><ele>978.0</ele><time>2026-04-11T10:54:36.491Z</time></trkpt><trkpt lat="44.0194277" lon="11.6443253"><ele>973.0</ele><time>2026-04-11T10:54:37.49Z</time></trkpt><trkpt lat="44.0194957" lon="11.6443392"><ele>968.0</ele><time>2026-04-11T10:54:38.492Z</time></trkpt><trkpt lat="44.0196012" lon="11.6443492"><ele>962.9999999999999</ele><time>2026-04-11T10:54:40.491Z</time></trkpt><trkpt lat="44.0197297" lon="11.6443368"><ele>958.0</ele><time>2026-04-11T10:54:42.491Z</time></trkpt><trkpt lat="44.0198052" lon="11.6443233"><ele>957.9999999999999</ele><time>2026-04-11T10:54:43.49Z</time></trkpt><trkpt lat="44.0198915" lon="11.6443037"><ele>958.0</ele><time>2026-04-11T10:54:44.49Z</time></trkpt><trkpt lat="44.019958" lon="11.6442897"><ele>958.0</ele><time>2026-04-11T10:54:45.493Z</time></trkpt><trkpt lat="44.0200528" lon="11.6442898"><ele>958.0</ele><time>2026-04-11T10:54:47.491Z</time></trkpt><trkpt lat="44.0201137" lon="11.644347"><ele>957.9999999999999</ele><time>2026-04-11T10:54:49.488Z</time></trkpt><trkpt lat="44.0202078" lon="11.644423"><ele>958.0</ele><time>2026-04-11T10:54:51.49Z</time></trkpt><trkpt lat="44.020285" lon="11.6444558"><ele>955.4999999999999</ele><time>2026-04-11T10:54:52.492Z</time></trkpt><trkpt lat="44.0203548" lon="11.6444795"><ele>953.0</ele><time>2026-04-11T10:54:53.492Z</time></trkpt><trkpt lat="44.020423" lon="11.6444897"><ele>950.5</ele><time>2026-04-11T10:54:54.492Z</time></trkpt><trkpt lat="44.0205105" lon="11.6445107"><ele>948.0</ele><time>2026-04-11T10:54:55.493Z</time></trkpt><trkpt lat="44.0205865" lon="11.644533"><ele>945.4999999999999</ele><time>2026-04-11T10:54:56.494Z</time></trkpt><trkpt lat="44.020657" lon="11.6445543"><ele>943.0</ele><time>2026-04-11T10:54:57.493Z</time></trkpt><trkpt lat="44.0207675" lon="11.6445953"><ele>942.8</ele><time>2026-04-11T10:54:59.493Z</time></trkpt><trkpt lat="44.0209012" lon="11.6445697"><ele>942.5999999999999</ele><time>2026-04-11T10:55:01.492Z</time></trkpt><trkpt lat="44.0210038" lon="11.6445373"><ele>942.4000000000001</ele><time>2026-04-11T10:55:03.494Z</time></trkpt><trkpt lat="44.0210852" lon="11.6445233"><ele>942.2</ele><time>2026-04-11T10:55:05.492Z</time></trkpt><trkpt lat="44.0211615" lon="11.6445212"><ele>942.0</ele><time>2026-04-11T10:55:08.492Z</time></trkpt><trkpt lat="44.0212377" lon="11.6445135"><ele>942.0</ele><time>2026-04-11T10:55:10.493Z</time></trkpt><trkpt lat="44.0213365" lon="11.6445633"><ele>942.0</ele><time>2026-04-11T10:55:12.491Z</time></trkpt><trkpt lat="44.0214413" lon="11.6445627"><ele>942.0</ele><time>2026-04-11T10:55:14.49Z</time></trkpt><trkpt lat="44.0215318" lon="11.6445398"><ele>942.0</ele><time>2026-04-11T10:55:16.491Z</time></trkpt><trkpt lat="44.0216142" lon="11.6445585"><ele>942.0</ele><time>2026-04-11T10:55:19.492Z</time></trkpt><trkpt lat="44.0216545" lon="11.6446363"><ele>943.5</ele><time>2026-04-11T10:55:22.492Z</time></trkpt><trkpt lat="44.0217227" lon="11.6447282"><ele>945.0</ele><time>2026-04-11T10:55:25.492Z</time></trkpt><trkpt lat="44.021787" lon="11.6448082"><ele>946.5</ele><time>2026-04-11T10:55:27.493Z</time></trkpt><trkpt lat="44.021861" lon="11.6448553"><ele>948.0</ele><time>2026-04-11T10:55:30.492Z</time></trkpt><trkpt lat="44.0219358" lon="11.6448642"><ele>949.5</ele><time>2026-04-11T10:55:33.491Z</time></trkpt><trkpt lat="44.0220083" lon="11.6449165"><ele>951.0</ele><time>2026-04-11T10:55:35.491Z</time></trkpt><trkpt lat="44.0220782" lon="11.644957"><ele>951.0</ele><time>2026-04-11T10:55:37.489Z</time></trkpt><trkpt lat="44.0221462" lon="11.6449995"><ele>951.0</ele><time>2026-04-11T10:55:40.488Z</time></trkpt><trkpt lat="44.0222123" lon="11.6449922"><ele>951.0</ele><time>2026-04-11T10:55:42.493Z</time></trkpt><trkpt lat="44.0222828" lon="11.6449737"><ele>951.0</ele><time>2026-04-11T10:55:44.492Z</time></trkpt><trkpt lat="44.0223705" lon="11.6449448"><ele>951.0</ele><time>2026-04-11T10:55:46.491Z</time></trkpt><trkpt lat="44.0224408" lon="11.6449612"><ele>951.0</ele><time>2026-04-11T10:55:48.492Z</time></trkpt><trkpt lat="44.022504" lon="11.6449815"><ele>951.0</ele><time>2026-04-11T10:55:54.494Z</time></trkpt><trkpt lat="44.0225913" lon="11.644973"><ele>948.6666666666666</ele><time>2026-04-11T10:55:59.494Z</time></trkpt><trkpt lat="44.0226618" lon="11.644979"><ele>946.3333333333333</ele><time>2026-04-11T10:56:01.493Z</time></trkpt><trkpt lat="44.022749" lon="11.6449952"><ele>944.0</ele><time>2026-04-11T10:56:03.492Z</time></trkpt><trkpt lat="44.0228277" lon="11.6449827"><ele>941.6666666666666</ele><time>2026-04-11T10:56:05.492Z</time></trkpt><trkpt lat="44.0228937" lon="11.6449488"><ele>939.3333333333333</ele><time>2026-04-11T10:56:07.495Z</time></trkpt><trkpt lat="44.0229722" lon="11.644914"><ele>937.0</ele><time>2026-04-11T10:56:13.495Z</time></trkpt><trkpt lat="44.023056" lon="11.6448475"><ele>936.9999999999999</ele><time>2026-04-11T10:56:15.495Z</time></trkpt><trkpt lat="44.0231103" lon="11.6447828"><ele>937.0</ele><time>2026-04-11T10:56:17.494Z</time></trkpt><trkpt lat="44.0231537" lon="11.6447132"><ele>937.0</ele><time>2026-04-11T10:56:19.495Z</time></trkpt><trkpt lat="44.0232303" lon="11.6446868"><ele>937.0</ele><time>2026-04-11T10:56:21.497Z</time></trkpt><trkpt lat="44.023297" lon="11.6446812"><ele>936.9999999999999</ele><time>2026-04-11T10:56:27.493Z</time></trkpt><trkpt lat="44.0233953" lon="11.6446735"><ele>937.0</ele><time>2026-04-11T10:56:30.495Z</time></trkpt><trkpt lat="44.023502" lon="11.6446877"><ele>934.1666666666666</ele><time>2026-04-11T10:56:32.497Z</time></trkpt><trkpt lat="44.0235897" lon="11.6446655"><ele>931.3333333333333</ele><time>2026-04-11T10:56:34.494Z</time></trkpt><trkpt lat="44.0236548" lon="11.6446297"><ele>928.5</ele><time>2026-04-11T10:56:36.496Z</time></trkpt><trkpt lat="44.0237182" lon="11.6445687"><ele>925.6666666666667</ele><time>2026-04-11T10:56:38.496Z</time></trkpt><trkpt lat="44.0238162" lon="11.6445642"><ele>922.8333333333334</ele><time>2026-04-11T10:56:41.495Z</time></trkpt><trkpt lat="44.0238828" lon="11.6445878"><ele>920.0</ele><time>2026-04-11T10:56:43.495Z</time></trkpt><trkpt lat="44.023978" lon="11.6445627"><ele>920.0</ele><time>2026-04-11T10:56:46.495Z</time></trkpt><trkpt lat="44.0240765" lon="11.6445737"><ele>920.0</ele><time>2026-04-11T10:56:48.496Z</time></trkpt><trkpt lat="44.0241995" lon="11.64456"><ele>920.0</ele><time>2026-04-11T10:56:50.496Z</time></trkpt><trkpt lat="44.024288" lon="11.6445217"><ele>920.0</ele><time>2026-04-11T10:56:52.494Z</time></trkpt><trkpt lat="44.0243373" lon="11.6444597"><ele>920.0</ele><time>2026-04-11T10:56:54.494Z</time></trkpt><trkpt lat="44.0243783" lon="11.6443777"><ele>920.3333333333334</ele><time>2026-04-11T10:56:56.497Z</time></trkpt><trkpt lat="44.02441" lon="11.6442858"><ele>920.6666666666667</ele><time>2026-04-11T10:56:58.495Z</time></trkpt><trkpt lat="44.0244435" lon="11.6441905"><ele>921.0</ele><time>2026-04-11T10:57:00.495Z</time></trkpt><trkpt lat="44.0244945" lon="11.6441303"><ele>921.3333333333333</ele><time>2026-04-11T10:57:03.496Z</time></trkpt><trkpt lat="44.0245667" lon="11.644086"><ele>921.6666666666666</ele><time>2026-04-11T10:57:06.496Z</time></trkpt><trkpt lat="44.0246523" lon="11.6441353"><ele>922.0</ele><time>2026-04-11T10:57:09.496Z</time></trkpt><trkpt lat="44.024712" lon="11.6442358"><ele>922.0</ele><time>2026-04-11T10:57:11.494Z</time></trkpt><trkpt lat="44.0247573" lon="11.644315"><ele>922.0</ele><time>2026-04-11T10:57:13.493Z</time></trkpt><trkpt lat="44.0248235" lon="11.6443963"><ele>922.0</ele><time>2026-04-11T10:57:15.493Z</time></trkpt><trkpt lat="44.0249075" lon="11.644474"><ele>922.0</ele><time>2026-04-11T10:57:17.492Z</time></trkpt><trkpt lat="44.0249825" lon="11.6445552"><ele>922.0</ele><time>2026-04-11T10:57:19.492Z</time></trkpt><trkpt lat="44.0250568" lon="11.6446322"><ele>923.2</ele><time>2026-04-11T10:57:21.492Z</time></trkpt><trkpt lat="44.0251402" lon="11.6446788"><ele>924.4000000000001</ele><time>2026-04-11T10:57:23.493Z</time></trkpt><trkpt lat="44.0252067" lon="11.6447567"><ele>925.5999999999999</ele><time>2026-04-11T10:57:25.49Z</time></trkpt><trkpt lat="44.025277" lon="11.6448477"><ele>926.8</ele><time>2026-04-11T10:57:27.489Z</time></trkpt><trkpt lat="44.0253617" lon="11.6449195"><ele>928.0</ele><time>2026-04-11T10:57:29.493Z</time></trkpt><trkpt lat="44.0254357" lon="11.645014"><ele>927.9999999999999</ele><time>2026-04-11T10:57:31.491Z</time></trkpt><trkpt lat="44.0254927" lon="11.6450612"><ele>928.0</ele><time>2026-04-11T10:57:34.492Z</time></trkpt><trkpt lat="44.025567" lon="11.6450035"><ele>928.0</ele><time>2026-04-11T10:57:37.49Z</time></trkpt><trkpt lat="44.0256572" lon="11.645016"><ele>928.0</ele><time>2026-04-11T10:57:40.491Z</time></trkpt><trkpt lat="44.025736" lon="11.6450292"><ele>927.9999999999999</ele><time>2026-04-11T10:57:42.492Z</time></trkpt><trkpt lat="44.0258265" lon="11.6450523"><ele>928.0</ele><time>2026-04-11T10:57:44.495Z</time></trkpt><trkpt lat="44.025943" lon="11.6450568"><ele>926.4999999999999</ele><time>2026-04-11T10:57:46.493Z</time></trkpt><trkpt lat="44.0260182" lon="11.6450432"><ele>925.0</ele><time>2026-04-11T10:57:47.494Z</time></trkpt><trkpt lat="44.0260812" lon="11.6450163"><ele>923.5</ele><time>2026-04-11T10:57:48.494Z</time></trkpt><trkpt lat="44.0261763" lon="11.645005"><ele>922.0</ele><time>2026-04-11T10:57:50.495Z</time></trkpt><trkpt lat="44.02625" lon="11.6450282"><ele>920.4999999999999</ele><time>2026-04-11T10:57:52.495Z</time></trkpt><trkpt lat="44.0263345" lon="11.6450453"><ele>919.0</ele><time>2026-04-11T10:57:55.495Z</time></trkpt><trkpt lat="44.0264035" lon="11.6450695"><ele>918.9999999999999</ele><time>2026-04-11T10:57:58.492Z</time></trkpt><trkpt lat="44.0264593" lon="11.6449852"><ele>919.0</ele><time>2026-04-11T10:58:02.494Z</time></trkpt><trkpt lat="44.02651" lon="11.6448663"><ele>919.0</ele><time>2026-04-11T10:58:05.493Z</time></trkpt><trkpt lat="44.0265547" lon="11.6447802"><ele>919.0</ele><time>2026-04-11T10:58:07.493Z</time></trkpt><trkpt lat="44.0266242" lon="11.6447598"><ele>918.9999999999999</ele><time>2026-04-11T10:58:09.492Z</time></trkpt><trkpt lat="44.0266845" lon="11.6448022"><ele>919.0</ele><time>2026-04-11T10:58:13.495Z</time></trkpt><trkpt lat="44.0266432" lon="11.6449128"><ele>919.0</ele><time>2026-04-11T10:58:26.495Z</time></trkpt><trkpt lat="44.0265917" lon="11.6450805"><ele>919.0000000000001</ele><time>2026-04-11T10:58:28.491Z</time></trkpt><trkpt lat="44.0265548" lon="11.645187"><ele>919.0000000000001</ele><time>2026-04-11T10:58:29.491Z</time></trkpt><trkpt lat="44.0265035" lon="11.6452883"><ele>919.0</ele><time>2026-04-11T10:58:30.491Z</time></trkpt><trkpt lat="44.0264337" lon="11.6453707"><ele>919.0</ele><time>2026-04-11T10:58:31.491Z</time></trkpt><trkpt lat="44.0263525" lon="11.6454333"><ele>917.6666666666666</ele><time>2026-04-11T10:58:32.492Z</time></trkpt><trkpt lat="44.026279" lon="11.6455025"><ele>916.3333333333333</ele><time>2026-04-11T10:58:33.494Z</time></trkpt><trkpt lat="44.0262282" lon="11.6455958"><ele>915.0</ele><time>2026-04-11T10:58:34.492Z</time></trkpt><trkpt lat="44.0261932" lon="11.6457107"><ele>913.6666666666667</ele><time>2026-04-11T10:58:35.493Z</time></trkpt><trkpt lat="44.0261592" lon="11.6458345"><ele>912.3333333333334</ele><time>2026-04-11T10:58:36.492Z</time></trkpt><trkpt lat="44.026115" lon="11.6459438"><ele>911.0</ele><time>2026-04-11T10:58:37.494Z</time></trkpt><trkpt lat="44.0260575" lon="11.6460228"><ele>911.0</ele><time>2026-04-11T10:58:38.493Z</time></trkpt><trkpt lat="44.025985" lon="11.6460575"><ele>910.9999999999999</ele><time>2026-04-11T10:58:39.492Z</time></trkpt><trkpt lat="44.0258978" lon="11.6460518"><ele>910.9999999999999</ele><time>2026-04-11T10:58:40.492Z</time></trkpt><trkpt lat="44.0257953" lon="11.6460278"><ele>911.0</ele><time>2026-04-11T10:58:41.496Z</time></trkpt><trkpt lat="44.0256845" lon="11.646004"><ele>911.0</ele><time>2026-04-11T10:58:42.494Z</time></trkpt><trkpt lat="44.025576" lon="11.6460058"><ele>912.8</ele><time>2026-04-11T10:58:43.494Z</time></trkpt><trkpt lat="44.0254782" lon="11.6460482"><ele>914.5999999999999</ele><time>2026-04-11T10:58:44.493Z</time></trkpt><trkpt lat="44.0253935" lon="11.646139"><ele>916.4</ele><time>2026-04-11T10:58:45.494Z</time></trkpt><trkpt lat="44.0253068" lon="11.6462442"><ele>918.2</ele><time>2026-04-11T10:58:46.493Z</time></trkpt><trkpt lat="44.0252067" lon="11.646348"><ele>920.0</ele><time>2026-04-11T10:58:47.496Z</time></trkpt><trkpt lat="44.0251022" lon="11.6464572"><ele>913.25</ele><time>2026-04-11T10:58:48.493Z</time></trkpt><trkpt lat="44.0250035" lon="11.646582"><ele>906.5</ele><time>2026-04-11T10:58:49.493Z</time></trkpt><trkpt lat="44.0249163" lon="11.6467088"><ele>899.75</ele><time>2026-04-11T10:58:50.494Z</time></trkpt><trkpt lat="44.0248302" lon="11.646823"><ele>893.0</ele><time>2026-04-11T10:58:51.495Z</time></trkpt><trkpt lat="44.0247462" lon="11.6468998"><ele>888.5999999999999</ele><time>2026-04-11T10:58:52.493Z</time></trkpt><trkpt lat="44.0246612" lon="11.6469165"><ele>884.1999999999999</ele><time>2026-04-11T10:58:53.491Z</time></trkpt><trkpt lat="44.0245873" lon="11.6468758"><ele>879.8</ele><time>2026-04-11T10:58:54.49Z</time></trkpt><trkpt lat="44.024535" lon="11.6467928"><ele>875.4</ele><time>2026-04-11T10:58:55.494Z</time></trkpt><trkpt lat="44.0244893" lon="11.646677"><ele>871.0</ele><time>2026-04-11T10:58:56.491Z</time></trkpt><trkpt lat="44.0244367" lon="11.6465343"><ele>871.0</ele><time>2026-04-11T10:58:57.494Z</time></trkpt><trkpt lat="44.0243845" lon="11.6463713"><ele>871.0</ele><time>2026-04-11T10:58:58.493Z</time></trkpt><trkpt lat="44.0243425" lon="11.6461993"><ele>871.0</ele><time>2026-04-11T10:58:59.493Z</time></trkpt><trkpt lat="44.0243135" lon="11.6460275"><ele>871.0</ele><time>2026-04-11T10:59:00.492Z</time></trkpt><trkpt lat="44.0242903" lon="11.6458598"><ele>873.8</ele><time>2026-04-11T10:59:01.493Z</time></trkpt><trkpt lat="44.0242618" lon="11.6456975"><ele>876.5999999999999</ele><time>2026-04-11T10:59:02.492Z</time></trkpt><trkpt lat="44.0242138" lon="11.6455585"><ele>879.4</ele><time>2026-04-11T10:59:03.49Z</time></trkpt><trkpt lat="44.0241377" lon="11.6454592"><ele>882.2</ele><time>2026-04-11T10:59:04.492Z</time></trkpt><trkpt lat="44.024038" lon="11.6454163"><ele>885.0</ele><time>2026-04-11T10:59:05.494Z</time></trkpt><trkpt lat="44.023925" lon="11.6454257"><ele>885.0</ele><time>2026-04-11T10:59:06.492Z</time></trkpt><trkpt lat="44.0238075" lon="11.6454753"><ele>885.0</ele><time>2026-04-11T10:59:07.492Z</time></trkpt><trkpt lat="44.0236867" lon="11.6455383"><ele>885.0</ele><time>2026-04-11T10:59:08.496Z</time></trkpt><trkpt lat="44.0235648" lon="11.6456003"><ele>885.0</ele><time>2026-04-11T10:59:09.493Z</time></trkpt><trkpt lat="44.0234473" lon="11.6456602"><ele>885.0</ele><time>2026-04-11T10:59:10.493Z</time></trkpt><trkpt lat="44.0233407" lon="11.6457367"><ele>885.0</ele><time>2026-04-11T10:59:11.495Z</time></trkpt><trkpt lat="44.0232552" lon="11.645847"><ele>885.0</ele><time>2026-04-11T10:59:12.496Z</time></trkpt><trkpt lat="44.023198" lon="11.6459832"><ele>885.0</ele><time>2026-04-11T10:59:13.494Z</time></trkpt><trkpt lat="44.0231618" lon="11.6461375"><ele>883.75</ele><time>2026-04-11T10:59:14.493Z</time></trkpt><trkpt lat="44.0231205" lon="11.6462892"><ele>882.5</ele><time>2026-04-11T10:59:15.492Z</time></trkpt><trkpt lat="44.0230635" lon="11.6464262"><ele>881.25</ele><time>2026-04-11T10:59:16.494Z</time></trkpt><trkpt lat="44.0229938" lon="11.6465488"><ele>880.0</ele><time>2026-04-11T10:59:17.492Z</time></trkpt><trkpt lat="44.0229063" lon="11.6466425"><ele>880.0</ele><time>2026-04-11T10:59:18.492Z</time></trkpt><trkpt lat="44.0228058" lon="11.646701"><ele>880.0</ele><time>2026-04-11T10:59:19.49Z</time></trkpt><trkpt lat="44.0227053" lon="11.6467653"><ele>880.0</ele><time>2026-04-11T10:59:20.491Z</time></trkpt><trkpt lat="44.0226185" lon="11.6468582"><ele>880.0</ele><time>2026-04-11T10:59:21.493Z</time></trkpt><trkpt lat="44.0225285" lon="11.6469452"><ele>880.0</ele><time>2026-04-11T10:59:22.491Z</time></trkpt><trkpt lat="44.0224258" lon="11.6470045"><ele>872.0</ele><time>2026-04-11T10:59:23.493Z</time></trkpt><trkpt lat="44.022311" lon="11.6470372"><ele>864.0</ele><time>2026-04-11T10:59:24.492Z</time></trkpt><trkpt lat="44.0221868" lon="11.6470563"><ele>856.0</ele><time>2026-04-11T10:59:25.492Z</time></trkpt><trkpt lat="44.0220643" lon="11.6470727"><ele>848.0</ele><time>2026-04-11T10:59:26.49Z</time></trkpt><trkpt lat="44.0219425" lon="11.6470803"><ele>848.0</ele><time>2026-04-11T10:59:27.492Z</time></trkpt><trkpt lat="44.021825" lon="11.6470642"><ele>848.0</ele><time>2026-04-11T10:59:28.492Z</time></trkpt><trkpt lat="44.0217167" lon="11.647028"><ele>848.0</ele><time>2026-04-11T10:59:29.496Z</time></trkpt><trkpt lat="44.021613" lon="11.6470177"><ele>848.0</ele><time>2026-04-11T10:59:30.492Z</time></trkpt><trkpt lat="44.0215188" lon="11.6470643"><ele>848.0</ele><time>2026-04-11T10:59:31.492Z</time></trkpt><trkpt lat="44.0214508" lon="11.6471552"><ele>845.8</ele><time>2026-04-11T10:59:32.493Z</time></trkpt><trkpt lat="44.021406" lon="11.6472668"><ele>843.5999999999999</ele><time>2026-04-11T10:59:33.497Z</time></trkpt><trkpt lat="44.0213605" lon="11.6473737"><ele>841.4000000000001</ele><time>2026-04-11T10:59:34.493Z</time></trkpt><trkpt lat="44.0212922" lon="11.6474457"><ele>839.2</ele><time>2026-04-11T10:59:35.493Z</time></trkpt><trkpt lat="44.0212065" lon="11.6474582"><ele>837.0</ele><time>2026-04-11T10:59:36.495Z</time></trkpt><trkpt lat="44.0211122" lon="11.6474242"><ele>837.0</ele><time>2026-04-11T10:59:37.493Z</time></trkpt><trkpt lat="44.0210097" lon="11.647369"><ele>837.0</ele><time>2026-04-11T10:59:38.495Z</time></trkpt><trkpt lat="44.0208992" lon="11.6473073"><ele>837.0</ele><time>2026-04-11T10:59:39.494Z</time></trkpt><trkpt lat="44.0207828" lon="11.6472433"><ele>837.0</ele><time>2026-04-11T10:59:40.494Z</time></trkpt><trkpt lat="44.0206662" lon="11.6471817"><ele>839.0</ele><time>2026-04-11T10:59:41.495Z</time></trkpt><trkpt lat="44.0205493" lon="11.6471323"><ele>841.0</ele><time>2026-04-11T10:59:42.492Z</time></trkpt><trkpt lat="44.0204327" lon="11.6471163"><ele>843.0</ele><time>2026-04-11T10:59:43.49Z</time></trkpt><trkpt lat="44.020322" lon="11.6471445"><ele>845.0</ele><time>2026-04-11T10:59:44.491Z</time></trkpt><trkpt lat="44.0202123" lon="11.6472007"><ele>845.0</ele><time>2026-04-11T10:59:45.496Z</time></trkpt><trkpt lat="44.0201032" lon="11.6472653"><ele>845.0</ele><time>2026-04-11T10:59:46.491Z</time></trkpt><trkpt lat="44.0200012" lon="11.6473402"><ele>845.0</ele><time>2026-04-11T10:59:47.492Z</time></trkpt><trkpt lat="44.0199187" lon="11.6474397"><ele>845.0</ele><time>2026-04-11T10:59:48.491Z</time></trkpt><trkpt lat="44.0198698" lon="11.6475667"><ele>845.0</ele><time>2026-04-11T10:59:49.491Z</time></trkpt><trkpt lat="44.0198612" lon="11.647708"><ele>846.0</ele><time>2026-04-11T10:59:50.492Z</time></trkpt><trkpt lat="44.0198928" lon="11.647839"><ele>847.0</ele><time>2026-04-11T10:59:51.492Z</time></trkpt><trkpt lat="44.0199542" lon="11.6479452"><ele>848.0</ele><time>2026-04-11T10:59:52.491Z</time></trkpt><trkpt lat="44.020023" lon="11.6480387"><ele>849.0</ele><time>2026-04-11T10:59:53.493Z</time></trkpt><trkpt lat="44.020087" lon="11.6481223"><ele>850.0</ele><time>2026-04-11T10:59:54.492Z</time></trkpt><trkpt lat="44.0201463" lon="11.6481867"><ele>849.9999999999999</ele><time>2026-04-11T10:59:55.491Z</time></trkpt><trkpt lat="44.020237" lon="11.648213"><ele>850.0</ele><time>2026-04-11T10:59:57.493Z</time></trkpt><trkpt lat="44.0202453" lon="11.6481033"><ele>850.0</ele><time>2026-04-11T11:00:00.492Z</time></trkpt><trkpt lat="44.0202108" lon="11.6480278"><ele>850.0</ele><time>2026-04-11T11:00:02.493Z</time></trkpt><trkpt lat="44.0201845" lon="11.6479373"><ele>849.9999999999999</ele><time>2026-04-11T11:00:10.489Z</time></trkpt><trkpt lat="44.020159" lon="11.6478498"><ele>850.0</ele><time>2026-04-11T11:00:18.492Z</time></trkpt><trkpt lat="44.0201227" lon="11.6477347"><ele>849.1666666666666</ele><time>2026-04-11T11:00:20.494Z</time></trkpt><trkpt lat="44.0201363" lon="11.6476195"><ele>848.3333333333333</ele><time>2026-04-11T11:00:22.493Z</time></trkpt><trkpt lat="44.0202242" lon="11.647578"><ele>847.5</ele><time>2026-04-11T11:00:24.494Z</time></trkpt><trkpt lat="44.0202938" lon="11.6475895"><ele>846.6666666666667</ele><time>2026-04-11T11:00:25.494Z</time></trkpt><trkpt lat="44.020377" lon="11.647616"><ele>845.8333333333334</ele><time>2026-04-11T11:00:26.493Z</time></trkpt><trkpt lat="44.0204637" lon="11.6476425"><ele>845.0</ele><time>2026-04-11T11:00:27.493Z</time></trkpt><trkpt lat="44.0205487" lon="11.6476737"><ele>845.0</ele><time>2026-04-11T11:00:28.493Z</time></trkpt><trkpt lat="44.0206275" lon="11.6477173"><ele>845.0</ele><time>2026-04-11T11:00:29.492Z</time></trkpt><trkpt lat="44.020705" lon="11.6477878"><ele>845.0</ele><time>2026-04-11T11:00:30.492Z</time></trkpt><trkpt lat="44.0207805" lon="11.6478892"><ele>845.0</ele><time>2026-04-11T11:00:31.49Z</time></trkpt><trkpt lat="44.020858" lon="11.6480222"><ele>845.0</ele><time>2026-04-11T11:00:32.491Z</time></trkpt><trkpt lat="44.0209253" lon="11.6481593"><ele>840.6</ele><time>2026-04-11T11:00:33.491Z</time></trkpt><trkpt lat="44.0209887" lon="11.6482872"><ele>836.2</ele><time>2026-04-11T11:00:34.49Z</time></trkpt><trkpt lat="44.0210522" lon="11.6484047"><ele>831.8</ele><time>2026-04-11T11:00:35.492Z</time></trkpt><trkpt lat="44.0211182" lon="11.6485078"><ele>827.4</ele><time>2026-04-11T11:00:36.492Z</time></trkpt><trkpt lat="44.0211937" lon="11.6485818"><ele>823.0</ele><time>2026-04-11T11:00:37.492Z</time></trkpt><trkpt lat="44.021283" lon="11.6486163"><ele>823.0</ele><time>2026-04-11T11:00:38.492Z</time></trkpt><trkpt lat="44.0213893" lon="11.6486202"><ele>823.0</ele><time>2026-04-11T11:00:39.491Z</time></trkpt><trkpt lat="44.021493" lon="11.6486322"><ele>823.0</ele><time>2026-04-11T11:00:40.493Z</time></trkpt><trkpt lat="44.0215907" lon="11.6486695"><ele>823.0</ele><time>2026-04-11T11:00:41.492Z</time></trkpt><trkpt lat="44.021691" lon="11.6487213"><ele>823.0</ele><time>2026-04-11T11:00:42.492Z</time></trkpt><trkpt lat="44.0217892" lon="11.6487792"><ele>819.0</ele><time>2026-04-11T11:00:43.492Z</time></trkpt><trkpt lat="44.0218892" lon="11.6488402"><ele>815.0</ele><time>2026-04-11T11:00:44.492Z</time></trkpt><trkpt lat="44.0219902" lon="11.6488942"><ele>811.0</ele><time>2026-04-11T11:00:45.491Z</time></trkpt><trkpt lat="44.0220922" lon="11.648951"><ele>807.0</ele><time>2026-04-11T11:00:46.491Z</time></trkpt><trkpt lat="44.0221872" lon="11.6490208"><ele>803.0</ele><time>2026-04-11T11:00:47.494Z</time></trkpt><trkpt lat="44.022272" lon="11.6491068"><ele>803.0000000000001</ele><time>2026-04-11T11:00:48.492Z</time></trkpt><trkpt lat="44.0223393" lon="11.6492038"><ele>803.0</ele><time>2026-04-11T11:00:49.492Z</time></trkpt><trkpt lat="44.0223812" lon="11.6493177"><ele>803.0</ele><time>2026-04-11T11:00:50.493Z</time></trkpt><trkpt lat="44.0224087" lon="11.6494392"><ele>803.0</ele><time>2026-04-11T11:00:51.492Z</time></trkpt><trkpt lat="44.0224405" lon="11.6495513"><ele>803.0000000000001</ele><time>2026-04-11T11:00:52.492Z</time></trkpt><trkpt lat="44.0224718" lon="11.64965"><ele>803.0</ele><time>2026-04-11T11:00:53.492Z</time></trkpt><trkpt lat="44.022521" lon="11.6497337"><ele>800.5999999999999</ele><time>2026-04-11T11:00:54.49Z</time></trkpt><trkpt lat="44.022592" lon="11.6498187"><ele>798.1999999999999</ele><time>2026-04-11T11:00:55.49Z</time></trkpt><trkpt lat="44.0226628" lon="11.6499203"><ele>795.8</ele><time>2026-04-11T11:00:56.489Z</time></trkpt><trkpt lat="44.0227225" lon="11.6500293"><ele>793.4</ele><time>2026-04-11T11:00:57.489Z</time></trkpt><trkpt lat="44.02279" lon="11.6501335"><ele>791.0</ele><time>2026-04-11T11:00:58.489Z</time></trkpt><trkpt lat="44.0228662" lon="11.650213"><ele>791.0</ele><time>2026-04-11T11:00:59.49Z</time></trkpt><trkpt lat="44.0229558" lon="11.650266"><ele>791.0</ele><time>2026-04-11T11:01:00.49Z</time></trkpt><trkpt lat="44.0230645" lon="11.6502928"><ele>791.0</ele><time>2026-04-11T11:01:01.49Z</time></trkpt><trkpt lat="44.0232818" lon="11.650342"><ele>791.0</ele><time>2026-04-11T11:01:03.492Z</time></trkpt><trkpt lat="44.023388" lon="11.650383"><ele>788.5000000000001</ele><time>2026-04-11T11:01:04.491Z</time></trkpt><trkpt lat="44.0234902" lon="11.6504235"><ele>786.0</ele><time>2026-04-11T11:01:05.493Z</time></trkpt><trkpt lat="44.0235872" lon="11.6504602"><ele>783.5</ele><time>2026-04-11T11:01:06.492Z</time></trkpt><trkpt lat="44.0236638" lon="11.6504997"><ele>781.0</ele><time>2026-04-11T11:01:07.491Z</time></trkpt><trkpt lat="44.0237253" lon="11.6505577"><ele>778.5000000000001</ele><time>2026-04-11T11:01:08.492Z</time></trkpt><trkpt lat="44.0237727" lon="11.6506297"><ele>776.0</ele><time>2026-04-11T11:01:09.493Z</time></trkpt><trkpt lat="44.0238225" lon="11.6507248"><ele>776.0</ele><time>2026-04-11T11:01:10.492Z</time></trkpt><trkpt lat="44.0238718" lon="11.6508382"><ele>776.0</ele><time>2026-04-11T11:01:11.492Z</time></trkpt><trkpt lat="44.0239202" lon="11.6509607"><ele>776.0</ele><time>2026-04-11T11:01:12.492Z</time></trkpt><trkpt lat="44.0239643" lon="11.6510758"><ele>776.0</ele><time>2026-04-11T11:01:13.492Z</time></trkpt><trkpt lat="44.0240152" lon="11.651177"><ele>776.0</ele><time>2026-04-11T11:01:14.494Z</time></trkpt><trkpt lat="44.0240747" lon="11.6512718"><ele>774.5999999999999</ele><time>2026-04-11T11:01:15.492Z</time></trkpt><trkpt lat="44.0241438" lon="11.6513557"><ele>773.2</ele><time>2026-04-11T11:01:16.493Z</time></trkpt><trkpt lat="44.0242118" lon="11.6514402"><ele>771.8</ele><time>2026-04-11T11:01:17.493Z</time></trkpt><trkpt lat="44.0242648" lon="11.651544"><ele>770.4000000000001</ele><time>2026-04-11T11:01:18.492Z</time></trkpt><trkpt lat="44.0242977" lon="11.651669"><ele>769.0</ele><time>2026-04-11T11:01:19.493Z</time></trkpt><trkpt lat="44.0243217" lon="11.651805"><ele>769.0</ele><time>2026-04-11T11:01:20.49Z</time></trkpt><trkpt lat="44.0243567" lon="11.6519395"><ele>769.0</ele><time>2026-04-11T11:01:21.49Z</time></trkpt><trkpt lat="44.0244073" lon="11.652052"><ele>769.0</ele><time>2026-04-11T11:01:22.49Z</time></trkpt><trkpt lat="44.0244753" lon="11.6521328"><ele>769.0</ele><time>2026-04-11T11:01:23.49Z</time></trkpt><trkpt lat="44.0245688" lon="11.6522063"><ele>769.0</ele><time>2026-04-11T11:01:24.49Z</time></trkpt><trkpt lat="44.0246713" lon="11.6522975"><ele>769.75</ele><time>2026-04-11T11:01:25.491Z</time></trkpt><trkpt lat="44.024766" lon="11.6524065"><ele>770.5</ele><time>2026-04-11T11:01:26.493Z</time></trkpt><trkpt lat="44.0248565" lon="11.6525122"><ele>771.25</ele><time>2026-04-11T11:01:27.49Z</time></trkpt><trkpt lat="44.0249502" lon="11.6525927"><ele>772.0</ele><time>2026-04-11T11:01:28.49Z</time></trkpt><trkpt lat="44.0250435" lon="11.6526372"><ele>770.0</ele><time>2026-04-11T11:01:29.492Z</time></trkpt><trkpt lat="44.0251438" lon="11.6526602"><ele>768.0</ele><time>2026-04-11T11:01:30.49Z</time></trkpt><trkpt lat="44.0252492" lon="11.6526758"><ele>766.0</ele><time>2026-04-11T11:01:31.492Z</time></trkpt><trkpt lat="44.0253498" lon="11.652711"><ele>764.0</ele><time>2026-04-11T11:01:32.494Z</time></trkpt><trkpt lat="44.0254482" lon="11.6527457"><ele>762.0</ele><time>2026-04-11T11:01:33.492Z</time></trkpt><trkpt lat="44.0255442" lon="11.6527503"><ele>762.0</ele><time>2026-04-11T11:01:34.491Z</time></trkpt><trkpt lat="44.0256385" lon="11.652748"><ele>762.0</ele><time>2026-04-11T11:01:35.492Z</time></trkpt><trkpt lat="44.0257238" lon="11.6527642"><ele>762.0</ele><time>2026-04-11T11:01:36.491Z</time></trkpt><trkpt lat="44.0258023" lon="11.652804"><ele>762.0</ele><time>2026-04-11T11:01:37.492Z</time></trkpt><trkpt lat="44.0258853" lon="11.652868"><ele>762.0</ele><time>2026-04-11T11:01:38.49Z</time></trkpt><trkpt lat="44.0259643" lon="11.652945"><ele>757.2</ele><time>2026-04-11T11:01:39.489Z</time></trkpt><trkpt lat="44.0260398" lon="11.6530275"><ele>752.4000000000001</ele><time>2026-04-11T11:01:40.49Z</time></trkpt><trkpt lat="44.0261195" lon="11.6531043"><ele>747.5999999999999</ele><time>2026-04-11T11:01:41.492Z</time></trkpt><trkpt lat="44.0262023" lon="11.6531728"><ele>742.8</ele><time>2026-04-11T11:01:42.494Z</time></trkpt><trkpt lat="44.0262827" lon="11.6532398"><ele>738.0</ele><time>2026-04-11T11:01:43.492Z</time></trkpt><trkpt lat="44.0263578" lon="11.6533165"><ele>738.0</ele><time>2026-04-11T11:01:44.492Z</time></trkpt><trkpt lat="44.026439" lon="11.6533887"><ele>738.0</ele><time>2026-04-11T11:01:45.489Z</time></trkpt><trkpt lat="44.0265267" lon="11.6534447"><ele>738.0</ele><time>2026-04-11T11:01:46.489Z</time></trkpt><trkpt lat="44.0266155" lon="11.653493"><ele>738.0</ele><time>2026-04-11T11:01:47.489Z</time></trkpt><trkpt lat="44.0266985" lon="11.6535525"><ele>738.0</ele><time>2026-04-11T11:01:48.491Z</time></trkpt><trkpt lat="44.0267672" lon="11.6536292"><ele>735.1428571428571</ele><time>2026-04-11T11:01:49.491Z</time></trkpt><trkpt lat="44.0268203" lon="11.6537148"><ele>732.2857142857142</ele><time>2026-04-11T11:01:50.492Z</time></trkpt><trkpt lat="44.0268643" lon="11.6538035"><ele>729.4285714285714</ele><time>2026-04-11T11:01:51.491Z</time></trkpt><trkpt lat="44.026882" lon="11.6538898"><ele>726.5714285714286</ele><time>2026-04-11T11:01:52.49Z</time></trkpt><trkpt lat="44.026872" lon="11.6539795"><ele>723.7142857142858</ele><time>2026-04-11T11:01:53.493Z</time></trkpt><trkpt lat="44.0268503" lon="11.6540785"><ele>720.8571428571429</ele><time>2026-04-11T11:01:54.491Z</time></trkpt><trkpt lat="44.0268305" lon="11.6541803"><ele>718.0</ele><time>2026-04-11T11:01:55.488Z</time></trkpt><trkpt lat="44.02683" lon="11.6542752"><ele>718.0</ele><time>2026-04-11T11:01:56.491Z</time></trkpt><trkpt lat="44.0268887" lon="11.6543618"><ele>718.0</ele><time>2026-04-11T11:01:58.492Z</time></trkpt><trkpt lat="44.0270023" lon="11.6543363"><ele>718.0</ele><time>2026-04-11T11:02:00.492Z</time></trkpt><trkpt lat="44.0270733" lon="11.6543122"><ele>718.0</ele><time>2026-04-11T11:02:01.491Z</time></trkpt><trkpt lat="44.0271487" lon="11.654295"><ele>718.0</ele><time>2026-04-11T11:02:02.492Z</time></trkpt><trkpt lat="44.0272308" lon="11.6542898"><ele>718.0</ele><time>2026-04-11T11:02:03.492Z</time></trkpt><trkpt lat="44.0273155" lon="11.6543037"><ele>718.0</ele><time>2026-04-11T11:02:04.491Z</time></trkpt><trkpt lat="44.027397" lon="11.6543425"><ele>718.0</ele><time>2026-04-11T11:02:05.491Z</time></trkpt><trkpt lat="44.0274687" lon="11.6544058"><ele>718.0</ele><time>2026-04-11T11:02:06.49Z</time></trkpt><trkpt lat="44.0275303" lon="11.654484"><ele>718.0</ele><time>2026-04-11T11:02:07.49Z</time></trkpt><trkpt lat="44.0275855" lon="11.6545733"><ele>718.0</ele><time>2026-04-11T11:02:08.492Z</time></trkpt><trkpt lat="44.0276353" lon="11.654672"><ele>718.0</ele><time>2026-04-11T11:02:09.489Z</time></trkpt><trkpt lat="44.0276795" lon="11.6547708"><ele>717.8333333333334</ele><time>2026-04-11T11:02:10.489Z</time></trkpt><trkpt lat="44.0277123" lon="11.6548593"><ele>717.6666666666667</ele><time>2026-04-11T11:02:11.49Z</time></trkpt><trkpt lat="44.0277322" lon="11.6549762"><ele>717.5</ele><time>2026-04-11T11:02:13.491Z</time></trkpt><trkpt lat="44.0277488" lon="11.6551292"><ele>717.3333333333334</ele><time>2026-04-11T11:02:15.492Z</time></trkpt><trkpt lat="44.027779" lon="11.6552065"><ele>717.1666666666666</ele><time>2026-04-11T11:02:16.489Z</time></trkpt><trkpt lat="44.0278588" lon="11.6552707"><ele>717.0</ele><time>2026-04-11T11:02:18.491Z</time></trkpt><trkpt lat="44.0279312" lon="11.6553022"><ele>717.0</ele><time>2026-04-11T11:02:20.491Z</time></trkpt><trkpt lat="44.0279983" lon="11.6553223"><ele>717.0</ele><time>2026-04-11T11:02:22.49Z</time></trkpt><trkpt lat="44.0280647" lon="11.6553322"><ele>717.0</ele><time>2026-04-11T11:03:08.491Z</time></trkpt><trkpt lat="44.0282092" lon="11.6553982"><ele>717.0</ele><time>2026-04-11T11:04:11.492Z</time></trkpt><trkpt lat="44.0283182" lon="11.655433"><ele>717.0</ele><time>2026-04-11T11:04:13.489Z</time></trkpt><trkpt lat="44.0284273" lon="11.655481"><ele>713.0</ele><time>2026-04-11T11:04:15.489Z</time></trkpt><trkpt lat="44.0285252" lon="11.6555208"><ele>709.0</ele><time>2026-04-11T11:04:17.492Z</time></trkpt><trkpt lat="44.02861" lon="11.6555667"><ele>705.0</ele><time>2026-04-11T11:04:19.49Z</time></trkpt><trkpt lat="44.0287007" lon="11.65562"><ele>701.0</ele><time>2026-04-11T11:04:21.491Z</time></trkpt><trkpt lat="44.0287582" lon="11.6556882"><ele>697.0</ele><time>2026-04-11T11:04:23.492Z</time></trkpt><trkpt lat="44.028799" lon="11.6557815"><ele>693.0</ele><time>2026-04-11T11:04:25.491Z</time></trkpt><trkpt lat="44.0288503" lon="11.6558997"><ele>693.0</ele><time>2026-04-11T11:04:27.491Z</time></trkpt><trkpt lat="44.028903" lon="11.6560545"><ele>693.0</ele><time>2026-04-11T11:04:29.493Z</time></trkpt><trkpt lat="44.028966" lon="11.6561975"><ele>693.0</ele><time>2026-04-11T11:04:31.492Z</time></trkpt><trkpt lat="44.0290373" lon="11.6563315"><ele>693.0</ele><time>2026-04-11T11:04:33.49Z</time></trkpt><trkpt lat="44.0290878" lon="11.6564262"><ele>693.0</ele><time>2026-04-11T11:04:35.49Z</time></trkpt><trkpt lat="44.0291513" lon="11.6564957"><ele>689.5999999999999</ele><time>2026-04-11T11:04:37.489Z</time></trkpt><trkpt lat="44.0292505" lon="11.6565365"><ele>686.1999999999999</ele><time>2026-04-11T11:04:39.489Z</time></trkpt><trkpt lat="44.0293707" lon="11.6565735"><ele>682.8</ele><time>2026-04-11T11:04:41.49Z</time></trkpt><trkpt lat="44.02945" lon="11.656568"><ele>679.4</ele><time>2026-04-11T11:04:42.492Z</time></trkpt><trkpt lat="44.0295348" lon="11.6565523"><ele>676.0</ele><time>2026-04-11T11:04:43.491Z</time></trkpt><trkpt lat="44.0296143" lon="11.656544"><ele>676.0</ele><time>2026-04-11T11:04:44.491Z</time></trkpt><trkpt lat="44.0296895" lon="11.6565327"><ele>676.0</ele><time>2026-04-11T11:04:45.491Z</time></trkpt><trkpt lat="44.029778" lon="11.656496"><ele>676.0</ele><time>2026-04-11T11:04:46.492Z</time></trkpt><trkpt lat="44.0298718" lon="11.656448"><ele>676.0</ele><time>2026-04-11T11:04:47.492Z</time></trkpt><trkpt lat="44.0299778" lon="11.6563893"><ele>676.0</ele><time>2026-04-11T11:04:48.491Z</time></trkpt><trkpt lat="44.0300828" lon="11.6563435"><ele>677.0</ele><time>2026-04-11T11:04:49.491Z</time></trkpt><trkpt lat="44.0301808" lon="11.6562995"><ele>678.0</ele><time>2026-04-11T11:04:50.49Z</time></trkpt><trkpt lat="44.0302705" lon="11.6562475"><ele>679.0</ele><time>2026-04-11T11:04:51.491Z</time></trkpt><trkpt lat="44.0303548" lon="11.6561983"><ele>680.0</ele><time>2026-04-11T11:04:52.49Z</time></trkpt><trkpt lat="44.0304377" lon="11.6561693"><ele>681.0</ele><time>2026-04-11T11:04:53.493Z</time></trkpt><trkpt lat="44.0305123" lon="11.6561775"><ele>681.0</ele><time>2026-04-11T11:04:54.491Z</time></trkpt><trkpt lat="44.0305925" lon="11.6562083"><ele>681.0</ele><time>2026-04-11T11:04:55.49Z</time></trkpt><trkpt lat="44.0306825" lon="11.6562605"><ele>681.0</ele><time>2026-04-11T11:04:56.49Z</time></trkpt><trkpt lat="44.0307752" lon="11.6563282"><ele>681.0</ele><time>2026-04-11T11:04:57.492Z</time></trkpt><trkpt lat="44.0308653" lon="11.6564087"><ele>681.0</ele><time>2026-04-11T11:04:58.491Z</time></trkpt><trkpt lat="44.0309427" lon="11.6564985"><ele>681.4</ele><time>2026-04-11T11:04:59.492Z</time></trkpt><trkpt lat="44.031008" lon="11.6566002"><ele>681.8</ele><time>2026-04-11T11:05:00.49Z</time></trkpt><trkpt lat="44.0310593" lon="11.6567093"><ele>682.1999999999999</ele><time>2026-04-11T11:05:01.491Z</time></trkpt><trkpt lat="44.0310948" lon="11.6568328"><ele>682.5999999999999</ele><time>2026-04-11T11:05:02.49Z</time></trkpt><trkpt lat="44.0311208" lon="11.6569547"><ele>683.0</ele><time>2026-04-11T11:05:03.488Z</time></trkpt><trkpt lat="44.0311472" lon="11.6570635"><ele>683.0</ele><time>2026-04-11T11:05:04.489Z</time></trkpt><trkpt lat="44.0311688" lon="11.6571717"><ele>683.0</ele><time>2026-04-11T11:05:05.491Z</time></trkpt><trkpt lat="44.0311975" lon="11.6572858"><ele>683.0</ele><time>2026-04-11T11:05:06.49Z</time></trkpt><trkpt lat="44.0312312" lon="11.657393"><ele>683.0</ele><time>2026-04-11T11:05:07.489Z</time></trkpt><trkpt lat="44.0312752" lon="11.6574895"><ele>683.0</ele><time>2026-04-11T11:05:08.489Z</time></trkpt><trkpt lat="44.03133" lon="11.6575823"><ele>683.0</ele><time>2026-04-11T11:05:09.489Z</time></trkpt><trkpt lat="44.0313923" lon="11.6576748"><ele>683.0</ele><time>2026-04-11T11:05:10.493Z</time></trkpt><trkpt lat="44.0314632" lon="11.6577612"><ele>683.0</ele><time>2026-04-11T11:05:11.49Z</time></trkpt><trkpt lat="44.0315268" lon="11.6578487"><ele>683.0</ele><time>2026-04-11T11:05:12.489Z</time></trkpt><trkpt lat="44.0315878" lon="11.657927"><ele>683.0</ele><time>2026-04-11T11:05:13.489Z</time></trkpt><trkpt lat="44.0316523" lon="11.6579983"><ele>683.0</ele><time>2026-04-11T11:05:14.49Z</time></trkpt><trkpt lat="44.0317183" lon="11.6580673"><ele>683.0</ele><time>2026-04-11T11:05:15.488Z</time></trkpt><trkpt lat="44.0317823" lon="11.658122"><ele>680.8571428571429</ele><time>2026-04-11T11:05:16.49Z</time></trkpt><trkpt lat="44.0318448" lon="11.658178"><ele>678.7142857142857</ele><time>2026-04-11T11:05:17.49Z</time></trkpt><trkpt lat="44.0319062" lon="11.6582262"><ele>676.5714285714286</ele><time>2026-04-11T11:05:18.488Z</time></trkpt><trkpt lat="44.03197" lon="11.658256"><ele>674.4285714285714</ele><time>2026-04-11T11:05:19.488Z</time></trkpt><trkpt lat="44.0320323" lon="11.6582955"><ele>672.2857142857143</ele><time>2026-04-11T11:05:20.489Z</time></trkpt><trkpt lat="44.032092" lon="11.6583297"><ele>670.1428571428571</ele><time>2026-04-11T11:05:21.489Z</time></trkpt><trkpt lat="44.032164" lon="11.6583488"><ele>668.0</ele><time>2026-04-11T11:05:22.491Z</time></trkpt><trkpt lat="44.0322417" lon="11.6583715"><ele>668.0</ele><time>2026-04-11T11:05:23.49Z</time></trkpt><trkpt lat="44.0323072" lon="11.6583935"><ele>668.0</ele><time>2026-04-11T11:05:24.489Z</time></trkpt><trkpt lat="44.0324007" lon="11.658401"><ele>668.0</ele><time>2026-04-11T11:05:26.487Z</time></trkpt><trkpt lat="44.0324662" lon="11.6584438"><ele>668.0</ele><time>2026-04-11T11:05:28.486Z</time></trkpt><trkpt lat="44.03254" lon="11.6584558"><ele>668.0</ele><time>2026-04-11T11:05:30.487Z</time></trkpt><trkpt lat="44.0326362" lon="11.6584455"><ele>668.0</ele><time>2026-04-11T11:05:32.49Z</time></trkpt><trkpt lat="44.0327477" lon="11.6583998"><ele>664.4</ele><time>2026-04-11T11:05:34.487Z</time></trkpt><trkpt lat="44.032824" lon="11.6583462"><ele>660.8</ele><time>2026-04-11T11:05:35.49Z</time></trkpt><trkpt lat="44.032907" lon="11.6582808"><ele>657.2</ele><time>2026-04-11T11:05:36.49Z</time></trkpt><trkpt lat="44.0329877" lon="11.658209"><ele>653.6</ele><time>2026-04-11T11:05:37.49Z</time></trkpt><trkpt lat="44.0330697" lon="11.6581332"><ele>650.0</ele><time>2026-04-11T11:05:38.488Z</time></trkpt><trkpt lat="44.0331517" lon="11.6580643"><ele>650.0</ele><time>2026-04-11T11:05:39.488Z</time></trkpt><trkpt lat="44.0332365" lon="11.6580085"><ele>650.0</ele><time>2026-04-11T11:05:40.489Z</time></trkpt><trkpt lat="44.0333193" lon="11.657973"><ele>650.0</ele><time>2026-04-11T11:05:41.488Z</time></trkpt><trkpt lat="44.0334005" lon="11.6579482"><ele>650.0</ele><time>2026-04-11T11:05:42.49Z</time></trkpt><trkpt lat="44.033463" lon="11.6579105"><ele>650.0</ele><time>2026-04-11T11:05:43.488Z</time></trkpt><trkpt lat="44.033554" lon="11.6578982"><ele>650.0</ele><time>2026-04-11T11:05:45.489Z</time></trkpt><trkpt lat="44.0336147" lon="11.6579247"><ele>649.1666666666666</ele><time>2026-04-11T11:05:46.488Z</time></trkpt><trkpt lat="44.0336938" lon="11.6579398"><ele>648.3333333333333</ele><time>2026-04-11T11:05:47.488Z</time></trkpt><trkpt lat="44.0337707" lon="11.657954"><ele>647.5</ele><time>2026-04-11T11:05:48.488Z</time></trkpt><trkpt lat="44.0338407" lon="11.6579747"><ele>646.6666666666666</ele><time>2026-04-11T11:05:49.49Z</time></trkpt><trkpt lat="44.0339042" lon="11.6580172"><ele>645.8333333333334</ele><time>2026-04-11T11:05:50.487Z</time></trkpt><trkpt lat="44.0339635" lon="11.6580855"><ele>645.0</ele><time>2026-04-11T11:05:51.487Z</time></trkpt><trkpt lat="44.0340217" lon="11.6581877"><ele>645.0</ele><time>2026-04-11T11:05:52.487Z</time></trkpt><trkpt lat="44.0340713" lon="11.6583122"><ele>645.0</ele><time>2026-04-11T11:05:53.487Z</time></trkpt><trkpt lat="44.0341148" lon="11.6584383"><ele>645.0</ele><time>2026-04-11T11:05:54.49Z</time></trkpt><trkpt lat="44.034151" lon="11.6585598"><ele>645.0</ele><time>2026-04-11T11:05:55.49Z</time></trkpt><trkpt lat="44.0341822" lon="11.6586753"><ele>645.0</ele><time>2026-04-11T11:05:56.492Z</time></trkpt><trkpt lat="44.0342052" lon="11.658765"><ele>643.5</ele><time>2026-04-11T11:05:57.49Z</time></trkpt><trkpt lat="44.0342455" lon="11.6588395"><ele>642.0</ele><time>2026-04-11T11:06:27.492Z</time></trkpt><trkpt lat="44.0343145" lon="11.6588897"><ele>640.5</ele><time>2026-04-11T11:06:43.491Z</time></trkpt><trkpt lat="44.0343772" lon="11.6589288"><ele>639.0</ele><time>2026-04-11T11:06:47.49Z</time></trkpt><trkpt lat="44.0344407" lon="11.65897"><ele>637.5</ele><time>2026-04-11T11:06:50.495Z</time></trkpt><trkpt lat="44.0345242" lon="11.6590493"><ele>636.0</ele><time>2026-04-11T11:06:52.491Z</time></trkpt><trkpt lat="44.0346053" lon="11.6590985"><ele>636.0</ele><time>2026-04-11T11:06:54.493Z</time></trkpt><trkpt lat="44.0346895" lon="11.6590868"><ele>636.0</ele><time>2026-04-11T11:07:00.492Z</time></trkpt><trkpt lat="44.0347565" lon="11.6590615"><ele>636.0</ele><time>2026-04-11T11:07:02.492Z</time></trkpt><trkpt lat="44.0348305" lon="11.6590225"><ele>636.0</ele><time>2026-04-11T11:07:04.489Z</time></trkpt><trkpt lat="44.0349067" lon="11.6589688"><ele>636.0</ele><time>2026-04-11T11:07:06.491Z</time></trkpt><trkpt lat="44.0349638" lon="11.6589125"><ele>636.0</ele><time>2026-04-11T11:07:08.493Z</time></trkpt><trkpt lat="44.0350472" lon="11.6588668"><ele>633.5</ele><time>2026-04-11T11:07:10.492Z</time></trkpt><trkpt lat="44.0351172" lon="11.6588552"><ele>631.0</ele><time>2026-04-11T11:07:12.491Z</time></trkpt><trkpt lat="44.0352047" lon="11.6588283"><ele>628.5</ele><time>2026-04-11T11:07:14.493Z</time></trkpt><trkpt lat="44.0352895" lon="11.6588082"><ele>626.0</ele><time>2026-04-11T11:07:16.492Z</time></trkpt><trkpt lat="44.0353587" lon="11.6587965"><ele>623.5</ele><time>2026-04-11T11:07:18.492Z</time></trkpt><trkpt lat="44.0354247" lon="11.6587783"><ele>621.0</ele><time>2026-04-11T11:07:20.494Z</time></trkpt><trkpt lat="44.0355038" lon="11.6587583"><ele>620.9999999999999</ele><time>2026-04-11T11:07:22.492Z</time></trkpt><trkpt lat="44.0355957" lon="11.6587742"><ele>621.0</ele><time>2026-04-11T11:07:24.493Z</time></trkpt><trkpt lat="44.0356822" lon="11.6588257"><ele>621.0</ele><time>2026-04-11T11:07:26.493Z</time></trkpt><trkpt lat="44.035746" lon="11.6588468"><ele>621.0</ele><time>2026-04-11T11:07:28.489Z</time></trkpt><trkpt lat="44.0358107" lon="11.6588465"><ele>621.0</ele><time>2026-04-11T11:07:31.49Z</time></trkpt><trkpt lat="44.0358785" lon="11.6588428"><ele>620.9999999999999</ele><time>2026-04-11T11:07:38.49Z</time></trkpt><trkpt lat="44.0359078" lon="11.6589225"><ele>621.0</ele><time>2026-04-11T11:07:42.49Z</time></trkpt><trkpt lat="44.0359235" lon="11.6590335"><ele>619.8333333333334</ele><time>2026-04-11T11:07:46.493Z</time></trkpt><trkpt lat="44.0359585" lon="11.6591142"><ele>618.6666666666666</ele><time>2026-04-11T11:07:48.491Z</time></trkpt><trkpt lat="44.036007" lon="11.6592213"><ele>617.5</ele><time>2026-04-11T11:07:50.492Z</time></trkpt><trkpt lat="44.0360952" lon="11.659314"><ele>616.3333333333333</ele><time>2026-04-11T11:07:52.488Z</time></trkpt><trkpt lat="44.0361537" lon="11.6593525"><ele>615.1666666666666</ele><time>2026-04-11T11:07:53.489Z</time></trkpt><trkpt lat="44.0362187" lon="11.6593987"><ele>614.0</ele><time>2026-04-11T11:07:54.487Z</time></trkpt><trkpt lat="44.036279" lon="11.6594475"><ele>614.2</ele><time>2026-04-11T11:07:55.488Z</time></trkpt><trkpt lat="44.0363388" lon="11.6595073"><ele>614.4</ele><time>2026-04-11T11:07:56.49Z</time></trkpt><trkpt lat="44.036402" lon="11.6595877"><ele>614.6</ele><time>2026-04-11T11:07:57.491Z</time></trkpt><trkpt lat="44.0364712" lon="11.659699"><ele>614.8</ele><time>2026-04-11T11:07:58.491Z</time></trkpt><trkpt lat="44.0365478" lon="11.6598493"><ele>615.0</ele><time>2026-04-11T11:07:59.491Z</time></trkpt><trkpt lat="44.0366258" lon="11.660024"><ele>614.75</ele><time>2026-04-11T11:08:00.49Z</time></trkpt><trkpt lat="44.0366917" lon="11.66019"><ele>614.5</ele><time>2026-04-11T11:08:01.492Z</time></trkpt><trkpt lat="44.0367517" lon="11.6603445"><ele>614.25</ele><time>2026-04-11T11:08:02.491Z</time></trkpt><trkpt lat="44.0368087" lon="11.6604807"><ele>614.0</ele><time>2026-04-11T11:08:03.491Z</time></trkpt><trkpt lat="44.0368632" lon="11.6605988"><ele>612.0</ele><time>2026-04-11T11:08:04.49Z</time></trkpt><trkpt lat="44.0369185" lon="11.6607023"><ele>610.0</ele><time>2026-04-11T11:08:05.491Z</time></trkpt><trkpt lat="44.0369807" lon="11.6607915"><ele>608.0</ele><time>2026-04-11T11:08:06.491Z</time></trkpt><trkpt lat="44.037053" lon="11.6608742"><ele>606.0</ele><time>2026-04-11T11:08:07.491Z</time></trkpt><trkpt lat="44.0371333" lon="11.6609463"><ele>604.0</ele><time>2026-04-11T11:08:08.492Z</time></trkpt><trkpt lat="44.0372123" lon="11.661006"><ele>604.0</ele><time>2026-04-11T11:08:09.491Z</time></trkpt><trkpt lat="44.0372918" lon="11.6610628"><ele>604.0</ele><time>2026-04-11T11:08:10.492Z</time></trkpt><trkpt lat="44.0373737" lon="11.66112"><ele>604.0</ele><time>2026-04-11T11:08:11.49Z</time></trkpt><trkpt lat="44.037454" lon="11.661184"><ele>604.0</ele><time>2026-04-11T11:08:12.49Z</time></trkpt><trkpt lat="44.03753" lon="11.6612542"><ele>604.0</ele><time>2026-04-11T11:08:13.49Z</time></trkpt><trkpt lat="44.0376075" lon="11.6613328"><ele>603.6</ele><time>2026-04-11T11:08:14.49Z</time></trkpt><trkpt lat="44.0376838" lon="11.6614148"><ele>603.2</ele><time>2026-04-11T11:08:15.492Z</time></trkpt><trkpt lat="44.0377565" lon="11.6614998"><ele>602.8000000000001</ele><time>2026-04-11T11:08:16.491Z</time></trkpt><trkpt lat="44.037822" lon="11.661589"><ele>602.4</ele><time>2026-04-11T11:08:17.489Z</time></trkpt><trkpt lat="44.03788" lon="11.661684"><ele>602.0</ele><time>2026-04-11T11:08:18.489Z</time></trkpt><trkpt lat="44.0379272" lon="11.6617815"><ele>602.0</ele><time>2026-04-11T11:08:19.488Z</time></trkpt><trkpt lat="44.0379657" lon="11.6618832"><ele>602.0</ele><time>2026-04-11T11:08:20.49Z</time></trkpt><trkpt lat="44.0380045" lon="11.66199"><ele>602.0</ele><time>2026-04-11T11:08:21.491Z</time></trkpt><trkpt lat="44.0380412" lon="11.662101"><ele>602.0</ele><time>2026-04-11T11:08:22.492Z</time></trkpt><trkpt lat="44.0380742" lon="11.6622163"><ele>602.0</ele><time>2026-04-11T11:08:23.492Z</time></trkpt><trkpt lat="44.0381025" lon="11.6623297"><ele>602.0</ele><time>2026-04-11T11:08:24.492Z</time></trkpt><trkpt lat="44.0381362" lon="11.6624307"><ele>600.6666666666666</ele><time>2026-04-11T11:08:25.492Z</time></trkpt><trkpt lat="44.0381823" lon="11.6625148"><ele>599.3333333333333</ele><time>2026-04-11T11:08:26.492Z</time></trkpt><trkpt lat="44.0382418" lon="11.6625745"><ele>598.0</ele><time>2026-04-11T11:08:27.491Z</time></trkpt><trkpt lat="44.0383097" lon="11.6626135"><ele>596.6666666666666</ele><time>2026-04-11T11:08:28.49Z</time></trkpt><trkpt lat="44.0383923" lon="11.6626312"><ele>595.3333333333334</ele><time>2026-04-11T11:08:29.493Z</time></trkpt><trkpt lat="44.0384828" lon="11.6626472"><ele>594.0</ele><time>2026-04-11T11:08:30.49Z</time></trkpt><trkpt lat="44.0385707" lon="11.6626677"><ele>594.0</ele><time>2026-04-11T11:08:31.491Z</time></trkpt><trkpt lat="44.0386545" lon="11.6626862"><ele>594.0</ele><time>2026-04-11T11:08:32.49Z</time></trkpt><trkpt lat="44.0387332" lon="11.6627057"><ele>594.0</ele><time>2026-04-11T11:08:33.491Z</time></trkpt><trkpt lat="44.0388062" lon="11.6627335"><ele>594.0</ele><time>2026-04-11T11:08:34.491Z</time></trkpt><trkpt lat="44.0388668" lon="11.6627798"><ele>594.0</ele><time>2026-04-11T11:08:35.492Z</time></trkpt><trkpt lat="44.0389162" lon="11.6628393"><ele>594.0</ele><time>2026-04-11T11:08:36.491Z</time></trkpt><trkpt lat="44.0389773" lon="11.6629382"><ele>594.0</ele><time>2026-04-11T11:08:38.478Z</time></trkpt><trkpt lat="44.0390348" lon="11.6630115"><ele>594.0</ele><time>2026-04-11T11:08:54.49Z</time></trkpt><trkpt lat="44.039025" lon="11.662889"><ele>594.0</ele><time>2026-04-11T11:09:02.491Z</time></trkpt><trkpt lat="44.038964" lon="11.6627737"><ele>594.0</ele><time>2026-04-11T11:09:04.489Z</time></trkpt><trkpt lat="44.0389255" lon="11.6626313"><ele>594.0</ele><time>2026-04-11T11:09:06.488Z</time></trkpt><trkpt lat="44.0389372" lon="11.6624998"><ele>594.0</ele><time>2026-04-11T11:09:08.489Z</time></trkpt><trkpt lat="44.0389917" lon="11.6624137"><ele>594.0</ele><time>2026-04-11T11:09:10.489Z</time></trkpt><trkpt lat="44.0390642" lon="11.6623082"><ele>594.0</ele><time>2026-04-11T11:09:12.489Z</time></trkpt><trkpt lat="44.03914" lon="11.6622262"><ele>594.0</ele><time>2026-04-11T11:09:14.489Z</time></trkpt><trkpt lat="44.0392367" lon="11.6621538"><ele>594.0</ele><time>2026-04-11T11:09:16.49Z</time></trkpt><trkpt lat="44.0393375" lon="11.662068"><ele>598.0</ele><time>2026-04-11T11:09:18.489Z</time></trkpt><trkpt lat="44.0393877" lon="11.6620118"><ele>602.0</ele><time>2026-04-11T11:09:19.489Z</time></trkpt><trkpt lat="44.0394845" lon="11.6619077"><ele>606.0</ele><time>2026-04-11T11:09:21.488Z</time></trkpt><trkpt lat="44.0395877" lon="11.6618227"><ele>610.0</ele><time>2026-04-11T11:09:23.489Z</time></trkpt><trkpt lat="44.0396887" lon="11.661746"><ele>614.0</ele><time>2026-04-11T11:09:25.489Z</time></trkpt><trkpt lat="44.0397852" lon="11.6616617"><ele>614.0</ele><time>2026-04-11T11:09:27.488Z</time></trkpt><trkpt lat="44.0398635" lon="11.6616012"><ele>614.0</ele><time>2026-04-11T11:09:29.49Z</time></trkpt><trkpt lat="44.0399507" lon="11.6615785"><ele>614.0</ele><time>2026-04-11T11:09:31.486Z</time></trkpt><trkpt lat="44.0400158" lon="11.6615707"><ele>614.0</ele><time>2026-04-11T11:09:32.486Z</time></trkpt><trkpt lat="44.0400882" lon="11.661558"><ele>614.0</ele><time>2026-04-11T11:09:33.488Z</time></trkpt><trkpt lat="44.0402105" lon="11.6615043"><ele>614.0</ele><time>2026-04-11T11:09:35.488Z</time></trkpt><trkpt lat="44.040273" lon="11.6614745"><ele>618.0</ele><time>2026-04-11T11:09:36.491Z</time></trkpt><trkpt lat="44.040334" lon="11.661443"><ele>622.0</ele><time>2026-04-11T11:09:37.488Z</time></trkpt><trkpt lat="44.040434" lon="11.6613665"><ele>626.0</ele><time>2026-04-11T11:09:39.488Z</time></trkpt><trkpt lat="44.0405267" lon="11.6612923"><ele>630.0</ele><time>2026-04-11T11:09:41.488Z</time></trkpt><trkpt lat="44.040618" lon="11.6613048"><ele>634.0</ele><time>2026-04-11T11:09:43.487Z</time></trkpt><trkpt lat="44.0407317" lon="11.661369"><ele>635.3333333333334</ele><time>2026-04-11T11:09:45.489Z</time></trkpt><trkpt lat="44.0408037" lon="11.6613905"><ele>636.6666666666667</ele><time>2026-04-11T11:09:46.488Z</time></trkpt><trkpt lat="44.0408933" lon="11.6613922"><ele>638.0</ele><time>2026-04-11T11:09:47.488Z</time></trkpt><trkpt lat="44.0409837" lon="11.6613965"><ele>639.3333333333334</ele><time>2026-04-11T11:09:48.488Z</time></trkpt><trkpt lat="44.0410577" lon="11.661401"><ele>640.6666666666666</ele><time>2026-04-11T11:09:49.487Z</time></trkpt><trkpt lat="44.0411387" lon="11.6614057"><ele>642.0</ele><time>2026-04-11T11:09:50.487Z</time></trkpt><trkpt lat="44.041219" lon="11.6613825"><ele>642.0</ele><time>2026-04-11T11:09:51.488Z</time></trkpt><trkpt lat="44.0412973" lon="11.6613378"><ele>642.0</ele><time>2026-04-11T11:09:52.487Z</time></trkpt><trkpt lat="44.041363" lon="11.6612872"><ele>642.0</ele><time>2026-04-11T11:09:53.488Z</time></trkpt><trkpt lat="44.0414247" lon="11.6612332"><ele>642.0</ele><time>2026-04-11T11:09:54.488Z</time></trkpt><trkpt lat="44.0414953" lon="11.6611713"><ele>642.0</ele><time>2026-04-11T11:09:55.487Z</time></trkpt><trkpt lat="44.0415717" lon="11.6611117"><ele>642.0</ele><time>2026-04-11T11:09:56.488Z</time></trkpt><trkpt lat="44.0416387" lon="11.6610412"><ele>642.6666666666666</ele><time>2026-04-11T11:09:57.486Z</time></trkpt><trkpt lat="44.0417013" lon="11.6609495"><ele>643.3333333333334</ele><time>2026-04-11T11:09:58.488Z</time></trkpt><trkpt lat="44.0417623" lon="11.660859"><ele>644.0</ele><time>2026-04-11T11:09:59.489Z</time></trkpt><trkpt lat="44.0418225" lon="11.660784"><ele>644.6666666666667</ele><time>2026-04-11T11:10:00.49Z</time></trkpt><trkpt lat="44.041882" lon="11.6607247"><ele>645.3333333333334</ele><time>2026-04-11T11:10:01.488Z</time></trkpt><trkpt lat="44.0419858" lon="11.6606967"><ele>646.0</ele><time>2026-04-11T11:10:03.49Z</time></trkpt><trkpt lat="44.0420562" lon="11.6606922"><ele>646.0</ele><time>2026-04-11T11:10:05.489Z</time></trkpt><trkpt lat="44.0420783" lon="11.660593"><ele>646.0</ele><time>2026-04-11T11:10:08.49Z</time></trkpt><trkpt lat="44.0420957" lon="11.6604927"><ele>646.0</ele><time>2026-04-11T11:10:26.489Z</time></trkpt><trkpt lat="44.042159" lon="11.6604167"><ele>646.0</ele><time>2026-04-11T11:12:04.491Z</time></trkpt><trkpt lat="44.0422155" lon="11.6603065"><ele>646.0</ele><time>2026-04-11T11:12:07.489Z</time></trkpt><trkpt lat="44.0422358" lon="11.6602082"><ele>646.0</ele><time>2026-04-11T11:12:09.492Z</time></trkpt><trkpt lat="44.0422546" lon="11.6601157"><ele>647.4285714285714</ele><time>2026-04-11T11:12:11.489Z</time></trkpt><trkpt lat="44.0422832" lon="11.6600092"><ele>648.8571428571429</ele><time>2026-04-11T11:12:13.496Z</time></trkpt><trkpt lat="44.0423122" lon="11.6599133"><ele>650.2857142857142</ele><time>2026-04-11T11:12:15.491Z</time></trkpt><trkpt lat="44.0423347" lon="11.6598293"><ele>651.7142857142858</ele><time>2026-04-11T11:12:17.489Z</time></trkpt><trkpt lat="44.0423683" lon="11.6597408"><ele>653.1428571428571</ele><time>2026-04-11T11:12:19.488Z</time></trkpt><trkpt lat="44.0424196" lon="11.6596642"><ele>654.5714285714286</ele><time>2026-04-11T11:12:21.489Z</time></trkpt><trkpt lat="44.0424751" lon="11.6596188"><ele>656.0</ele><time>2026-04-11T11:12:23.488Z</time></trkpt><trkpt lat="44.0425289" lon="11.6595677"><ele>658.6666666666666</ele><time>2026-04-11T11:12:27.489Z</time></trkpt><trkpt lat="44.0425156" lon="11.6594486"><ele>661.3333333333333</ele><time>2026-04-11T11:12:32.49Z</time></trkpt><trkpt lat="44.0424612" lon="11.6593752"><ele>664.0</ele><time>2026-04-11T11:12:34.489Z</time></trkpt><trkpt lat="44.04246" lon="11.6592718"><ele>666.6666666666666</ele><time>2026-04-11T11:12:36.491Z</time></trkpt><trkpt lat="44.0425227" lon="11.6591887"><ele>669.3333333333334</ele><time>2026-04-11T11:12:38.491Z</time></trkpt><trkpt lat="44.0425977" lon="11.659088"><ele>672.0</ele><time>2026-04-11T11:12:40.491Z</time></trkpt><trkpt lat="44.0426367" lon="11.6589602"><ele>672.1666666666666</ele><time>2026-04-11T11:12:42.49Z</time></trkpt><trkpt lat="44.042685" lon="11.6588408"><ele>672.3333333333334</ele><time>2026-04-11T11:12:44.49Z</time></trkpt><trkpt lat="44.0427172" lon="11.6587378"><ele>672.5</ele><time>2026-04-11T11:12:46.487Z</time></trkpt><trkpt lat="44.0427188" lon="11.6586228"><ele>672.6666666666667</ele><time>2026-04-11T11:12:48.489Z</time></trkpt><trkpt lat="44.0427205" lon="11.6585248"><ele>672.8333333333334</ele><time>2026-04-11T11:12:50.489Z</time></trkpt><trkpt lat="44.0427055" lon="11.6584133"><ele>673.0</ele><time>2026-04-11T11:12:55.491Z</time></trkpt><trkpt lat="44.0427292" lon="11.658315"><ele>674.6666666666667</ele><time>2026-04-11T11:12:58.49Z</time></trkpt><trkpt lat="44.0427875" lon="11.6582625"><ele>676.3333333333334</ele><time>2026-04-11T11:13:05.489Z</time></trkpt><trkpt lat="44.0428472" lon="11.6581697"><ele>678.0</ele><time>2026-04-11T11:13:08.49Z</time></trkpt><trkpt lat="44.0428902" lon="11.658092"><ele>679.6666666666666</ele><time>2026-04-11T11:13:13.49Z</time></trkpt><trkpt lat="44.042893" lon="11.6579958"><ele>681.3333333333333</ele><time>2026-04-11T11:13:17.49Z</time></trkpt><trkpt lat="44.0428072" lon="11.6579693"><ele>683.0</ele><time>2026-04-11T11:13:20.49Z</time></trkpt><trkpt lat="44.042729" lon="11.6579073"><ele>683.0</ele><time>2026-04-11T11:13:28.491Z</time></trkpt><trkpt lat="44.0426392" lon="11.6578253"><ele>683.0</ele><time>2026-04-11T11:13:30.493Z</time></trkpt><trkpt lat="44.0425652" lon="11.657766"><ele>683.0</ele><time>2026-04-11T11:13:32.49Z</time></trkpt><trkpt lat="44.0424945" lon="11.6577005"><ele>683.0</ele><time>2026-04-11T11:13:34.489Z</time></trkpt><trkpt lat="44.0424242" lon="11.6576308"><ele>683.0</ele><time>2026-04-11T11:13:36.488Z</time></trkpt><trkpt lat="44.0423817" lon="11.6575297"><ele>683.0</ele><time>2026-04-11T11:13:38.493Z</time></trkpt><trkpt lat="44.0423848" lon="11.657419"><ele>689.8333333333333</ele><time>2026-04-11T11:13:40.492Z</time></trkpt><trkpt lat="44.0423893" lon="11.657327"><ele>696.6666666666666</ele><time>2026-04-11T11:13:42.492Z</time></trkpt><trkpt lat="44.042399" lon="11.6572348"><ele>703.5</ele><time>2026-04-11T11:13:44.49Z</time></trkpt><trkpt lat="44.042383" lon="11.6571153"><ele>710.3333333333334</ele><time>2026-04-11T11:13:46.489Z</time></trkpt><trkpt lat="44.042319" lon="11.6570178"><ele>717.1666666666667</ele><time>2026-04-11T11:13:48.49Z</time></trkpt><trkpt lat="44.0422413" lon="11.6569345"><ele>724.0</ele><time>2026-04-11T11:13:50.489Z</time></trkpt><trkpt lat="44.0421837" lon="11.6568378"><ele>726.1666666666667</ele><time>2026-04-11T11:13:52.488Z</time></trkpt><trkpt lat="44.0421235" lon="11.6567598"><ele>728.3333333333334</ele><time>2026-04-11T11:13:54.49Z</time></trkpt><trkpt lat="44.0421125" lon="11.6566617"><ele>730.5</ele><time>2026-04-11T11:13:56.491Z</time></trkpt><trkpt lat="44.0421572" lon="11.6565493"><ele>732.6666666666666</ele><time>2026-04-11T11:13:58.49Z</time></trkpt><trkpt lat="44.0421903" lon="11.6564342"><ele>734.8333333333333</ele><time>2026-04-11T11:14:00.488Z</time></trkpt><trkpt lat="44.0422387" lon="11.6563285"><ele>737.0</ele><time>2026-04-11T11:14:02.49Z</time></trkpt><trkpt lat="44.042249" lon="11.656233"><ele>737.0</ele><time>2026-04-11T11:14:04.489Z</time></trkpt><trkpt lat="44.0421795" lon="11.6561315"><ele>737.0</ele><time>2026-04-11T11:14:06.489Z</time></trkpt><trkpt lat="44.0421343" lon="11.6559952"><ele>737.0</ele><time>2026-04-11T11:14:08.49Z</time></trkpt><trkpt lat="44.0421008" lon="11.655836"><ele>737.0</ele><time>2026-04-11T11:14:10.491Z</time></trkpt><trkpt lat="44.0420835" lon="11.6557018"><ele>737.0</ele><time>2026-04-11T11:14:12.49Z</time></trkpt><trkpt lat="44.0420592" lon="11.655584"><ele>737.8</ele><time>2026-04-11T11:14:14.489Z</time></trkpt><trkpt lat="44.0419955" lon="11.655484"><ele>738.6</ele><time>2026-04-11T11:14:16.49Z</time></trkpt><trkpt lat="44.0419212" lon="11.655411"><ele>739.4</ele><time>2026-04-11T11:14:18.491Z</time></trkpt><trkpt lat="44.0418415" lon="11.6554188"><ele>740.1999999999999</ele><time>2026-04-11T11:14:20.49Z</time></trkpt><trkpt lat="44.0417473" lon="11.6553985"><ele>741.0</ele><time>2026-04-11T11:14:22.493Z</time></trkpt><trkpt lat="44.0416637" lon="11.6552947"><ele>747.3333333333334</ele><time>2026-04-11T11:14:24.491Z</time></trkpt><trkpt lat="44.0416147" lon="11.655236"><ele>753.6666666666667</ele><time>2026-04-11T11:14:25.488Z</time></trkpt><trkpt lat="44.0415048" lon="11.6551957"><ele>760.0</ele><time>2026-04-11T11:14:27.488Z</time></trkpt><trkpt lat="44.0414172" lon="11.6551878"><ele>766.3333333333334</ele><time>2026-04-11T11:14:29.495Z</time></trkpt><trkpt lat="44.0413402" lon="11.655171"><ele>772.6666666666667</ele><time>2026-04-11T11:14:31.49Z</time></trkpt><trkpt lat="44.0412667" lon="11.6551118"><ele>779.0</ele><time>2026-04-11T11:14:33.489Z</time></trkpt><trkpt lat="44.0412248" lon="11.655021"><ele>779.0</ele><time>2026-04-11T11:14:35.492Z</time></trkpt><trkpt lat="44.041246" lon="11.6549032"><ele>779.0</ele><time>2026-04-11T11:14:37.49Z</time></trkpt><trkpt lat="44.0412793" lon="11.6547858"><ele>779.0</ele><time>2026-04-11T11:14:39.492Z</time></trkpt><trkpt lat="44.04131" lon="11.654679"><ele>779.0</ele><time>2026-04-11T11:14:41.491Z</time></trkpt><trkpt lat="44.0413605" lon="11.6545503"><ele>779.0</ele><time>2026-04-11T11:14:43.489Z</time></trkpt><trkpt lat="44.0414185" lon="11.6544035"><ele>779.0</ele><time>2026-04-11T11:14:45.49Z</time></trkpt><trkpt lat="44.0414957" lon="11.6542823"><ele>779.0</ele><time>2026-04-11T11:14:47.49Z</time></trkpt><trkpt lat="44.04153" lon="11.6541532"><ele>779.0</ele><time>2026-04-11T11:14:49.487Z</time></trkpt><trkpt lat="44.0415547" lon="11.6540667"><ele>779.0</ele><time>2026-04-11T11:14:51.487Z</time></trkpt><trkpt lat="44.0415747" lon="11.653954"><ele>779.0</ele><time>2026-04-11T11:14:53.489Z</time></trkpt><trkpt lat="44.0416085" lon="11.6538033"><ele>778.8333333333334</ele><time>2026-04-11T11:14:55.49Z</time></trkpt><trkpt lat="44.0416523" lon="11.6536528"><ele>778.6666666666667</ele><time>2026-04-11T11:14:57.491Z</time></trkpt><trkpt lat="44.0416885" lon="11.6535735"><ele>778.5</ele><time>2026-04-11T11:14:58.489Z</time></trkpt><trkpt lat="44.0417357" lon="11.6534868"><ele>778.3333333333333</ele><time>2026-04-11T11:14:59.489Z</time></trkpt><trkpt lat="44.0417762" lon="11.6533913"><ele>778.1666666666666</ele><time>2026-04-11T11:15:00.489Z</time></trkpt><trkpt lat="44.0418092" lon="11.6532993"><ele>778.0</ele><time>2026-04-11T11:15:01.489Z</time></trkpt><trkpt lat="44.0418267" lon="11.6531977"><ele>778.2857142857143</ele><time>2026-04-11T11:15:02.489Z</time></trkpt><trkpt lat="44.0418418" lon="11.6531012"><ele>778.5714285714286</ele><time>2026-04-11T11:15:03.489Z</time></trkpt><trkpt lat="44.0418515" lon="11.6530092"><ele>778.8571428571429</ele><time>2026-04-11T11:15:04.488Z</time></trkpt><trkpt lat="44.0418577" lon="11.6528885"><ele>779.1428571428571</ele><time>2026-04-11T11:15:06.488Z</time></trkpt><trkpt lat="44.0418648" lon="11.6527885"><ele>779.4285714285713</ele><time>2026-04-11T11:15:20.489Z</time></trkpt><trkpt lat="44.0418935" lon="11.6526978"><ele>779.7142857142857</ele><time>2026-04-11T11:15:23.488Z</time></trkpt><trkpt lat="44.0419268" lon="11.6525958"><ele>780.0</ele><time>2026-04-11T11:15:25.489Z</time></trkpt><trkpt lat="44.0419788" lon="11.6524782"><ele>782.1666666666666</ele><time>2026-04-11T11:15:27.489Z</time></trkpt><trkpt lat="44.0420283" lon="11.6523817"><ele>784.3333333333333</ele><time>2026-04-11T11:15:29.488Z</time></trkpt><trkpt lat="44.0420595" lon="11.652259"><ele>786.5</ele><time>2026-04-11T11:15:31.49Z</time></trkpt><trkpt lat="44.0421097" lon="11.6521313"><ele>788.6666666666666</ele><time>2026-04-11T11:15:33.488Z</time></trkpt><trkpt lat="44.0421702" lon="11.6520683"><ele>790.8333333333333</ele><time>2026-04-11T11:15:35.489Z</time></trkpt><trkpt lat="44.0422555" lon="11.6520818"><ele>793.0</ele><time>2026-04-11T11:15:45.493Z</time></trkpt><trkpt lat="44.0423223" lon="11.6521663"><ele>792.9999999999999</ele><time>2026-04-11T11:15:47.489Z</time></trkpt><trkpt lat="44.0424343" lon="11.652259"><ele>793.0</ele><time>2026-04-11T11:15:49.489Z</time></trkpt><trkpt lat="44.0424998" lon="11.6523022"><ele>793.0</ele><time>2026-04-11T11:15:50.488Z</time></trkpt><trkpt lat="44.0425698" lon="11.6523498"><ele>793.0</ele><time>2026-04-11T11:15:51.489Z</time></trkpt><trkpt lat="44.0426408" lon="11.652397"><ele>792.9999999999999</ele><time>2026-04-11T11:15:52.489Z</time></trkpt><trkpt lat="44.0427113" lon="11.6524395"><ele>793.0</ele><time>2026-04-11T11:15:53.488Z</time></trkpt><trkpt lat="44.042786" lon="11.6524725"><ele>793.8333333333333</ele><time>2026-04-11T11:15:54.488Z</time></trkpt><trkpt lat="44.0428603" lon="11.6525042"><ele>794.6666666666666</ele><time>2026-04-11T11:15:55.488Z</time></trkpt><trkpt lat="44.0429183" lon="11.6525442"><ele>795.5</ele><time>2026-04-11T11:15:56.489Z</time></trkpt><trkpt lat="44.0429618" lon="11.6526382"><ele>796.3333333333333</ele><time>2026-04-11T11:15:58.489Z</time></trkpt><trkpt lat="44.042939" lon="11.6527983"><ele>797.1666666666666</ele><time>2026-04-11T11:16:00.49Z</time></trkpt><trkpt lat="44.0429078" lon="11.6528887"><ele>798.0</ele><time>2026-04-11T11:16:01.49Z</time></trkpt><trkpt lat="44.0428668" lon="11.6529658"><ele>799.4</ele><time>2026-04-11T11:16:02.489Z</time></trkpt><trkpt lat="44.0427652" lon="11.6530292"><ele>800.8</ele><time>2026-04-11T11:16:04.487Z</time></trkpt><trkpt lat="44.0426583" lon="11.6530698"><ele>802.2</ele><time>2026-04-11T11:16:06.49Z</time></trkpt><trkpt lat="44.0426168" lon="11.6531527"><ele>803.6</ele><time>2026-04-11T11:16:08.491Z</time></trkpt><trkpt lat="44.0426085" lon="11.6532897"><ele>805.0</ele><time>2026-04-11T11:16:29.49Z</time></trkpt><trkpt lat="44.0426633" lon="11.6534135"><ele>804.9999999999999</ele><time>2026-04-11T11:16:31.49Z</time></trkpt><trkpt lat="44.0427707" lon="11.653426"><ele>805.0</ele><time>2026-04-11T11:16:33.492Z</time></trkpt><trkpt lat="44.0428385" lon="11.6533988"><ele>805.0</ele><time>2026-04-11T11:16:34.492Z</time></trkpt><trkpt lat="44.0429153" lon="11.653364"><ele>805.0</ele><time>2026-04-11T11:16:35.494Z</time></trkpt><trkpt lat="44.0429983" lon="11.6533383"><ele>804.9999999999999</ele><time>2026-04-11T11:16:36.494Z</time></trkpt><trkpt lat="44.0430785" lon="11.6533245"><ele>805.0</ele><time>2026-04-11T11:16:37.492Z</time></trkpt><trkpt lat="44.0431482" lon="11.6532983"><ele>804.9999999999999</ele><time>2026-04-11T11:16:38.493Z</time></trkpt><trkpt lat="44.043207" lon="11.6532493"><ele>805.0</ele><time>2026-04-11T11:16:39.494Z</time></trkpt><trkpt lat="44.0432615" lon="11.6531775"><ele>805.0</ele><time>2026-04-11T11:16:40.492Z</time></trkpt><trkpt lat="44.0433183" lon="11.653097"><ele>805.0</ele><time>2026-04-11T11:16:41.493Z</time></trkpt><trkpt lat="44.0433818" lon="11.6530188"><ele>804.9999999999999</ele><time>2026-04-11T11:16:42.491Z</time></trkpt><trkpt lat="44.0434497" lon="11.6529383"><ele>805.0</ele><time>2026-04-11T11:16:43.489Z</time></trkpt><trkpt lat="44.0435167" lon="11.6528512"><ele>808.3333333333333</ele><time>2026-04-11T11:16:44.491Z</time></trkpt><trkpt lat="44.0435802" lon="11.6527553"><ele>811.6666666666666</ele><time>2026-04-11T11:16:45.49Z</time></trkpt><trkpt lat="44.0436315" lon="11.6526635"><ele>815.0</ele><time>2026-04-11T11:16:46.489Z</time></trkpt><trkpt lat="44.0436697" lon="11.6525907"><ele>818.3333333333333</ele><time>2026-04-11T11:16:47.49Z</time></trkpt><trkpt lat="44.0437402" lon="11.6524542"><ele>821.6666666666666</ele><time>2026-04-11T11:16:49.491Z</time></trkpt><trkpt lat="44.0437795" lon="11.652379"><ele>825.0</ele><time>2026-04-11T11:16:50.492Z</time></trkpt><trkpt lat="44.0438313" lon="11.6523137"><ele>825.0</ele><time>2026-04-11T11:16:51.49Z</time></trkpt><trkpt lat="44.0439027" lon="11.6522623"><ele>825.0</ele><time>2026-04-11T11:16:52.489Z</time></trkpt><trkpt lat="44.0439923" lon="11.6522182"><ele>825.0</ele><time>2026-04-11T11:16:53.489Z</time></trkpt><trkpt lat="44.0440925" lon="11.6521687"><ele>825.0</ele><time>2026-04-11T11:16:54.488Z</time></trkpt><trkpt lat="44.044194" lon="11.6521298"><ele>825.0</ele><time>2026-04-11T11:16:55.489Z</time></trkpt><trkpt lat="44.0442862" lon="11.6521135"><ele>825.8333333333334</ele><time>2026-04-11T11:16:56.491Z</time></trkpt><trkpt lat="44.0443587" lon="11.6520912"><ele>826.6666666666667</ele><time>2026-04-11T11:16:57.489Z</time></trkpt><trkpt lat="44.0444325" lon="11.651987"><ele>827.5</ele><time>2026-04-11T11:16:59.491Z</time></trkpt><trkpt lat="44.044455" lon="11.6518923"><ele>828.3333333333334</ele><time>2026-04-11T11:17:00.49Z</time></trkpt><trkpt lat="44.0444922" lon="11.6517925"><ele>829.1666666666667</ele><time>2026-04-11T11:17:01.491Z</time></trkpt><trkpt lat="44.0445455" lon="11.6517147"><ele>830.0</ele><time>2026-04-11T11:17:02.49Z</time></trkpt><trkpt lat="44.0446125" lon="11.6516545"><ele>830.0</ele><time>2026-04-11T11:17:03.489Z</time></trkpt><trkpt lat="44.0446885" lon="11.6515898"><ele>830.0</ele><time>2026-04-11T11:17:04.49Z</time></trkpt><trkpt lat="44.044764" lon="11.651508"><ele>830.0</ele><time>2026-04-11T11:17:05.491Z</time></trkpt><trkpt lat="44.0448472" lon="11.6514203"><ele>830.0</ele><time>2026-04-11T11:17:06.49Z</time></trkpt><trkpt lat="44.044925" lon="11.6513352"><ele>830.0</ele><time>2026-04-11T11:17:07.49Z</time></trkpt><trkpt lat="44.045006" lon="11.651264"><ele>830.0</ele><time>2026-04-11T11:17:08.49Z</time></trkpt><trkpt lat="44.0451008" lon="11.651207"><ele>830.0</ele><time>2026-04-11T11:17:09.491Z</time></trkpt><trkpt lat="44.0452067" lon="11.6511435"><ele>830.0</ele><time>2026-04-11T11:17:10.489Z</time></trkpt><trkpt lat="44.0453105" lon="11.651081"><ele>830.0</ele><time>2026-04-11T11:17:11.49Z</time></trkpt><trkpt lat="44.0454098" lon="11.6510338"><ele>830.0</ele><time>2026-04-11T11:17:12.49Z</time></trkpt><trkpt lat="44.0454973" lon="11.6510178"><ele>831.8333333333334</ele><time>2026-04-11T11:17:13.49Z</time></trkpt><trkpt lat="44.0455842" lon="11.651027"><ele>833.6666666666667</ele><time>2026-04-11T11:17:14.491Z</time></trkpt><trkpt lat="44.0456682" lon="11.6510598"><ele>835.5</ele><time>2026-04-11T11:17:15.49Z</time></trkpt><trkpt lat="44.0457475" lon="11.6510848"><ele>837.3333333333333</ele><time>2026-04-11T11:17:16.488Z</time></trkpt><trkpt lat="44.0458543" lon="11.65107"><ele>839.1666666666666</ele><time>2026-04-11T11:17:18.489Z</time></trkpt><trkpt lat="44.0459045" lon="11.651012"><ele>841.0</ele><time>2026-04-11T11:17:19.491Z</time></trkpt><trkpt lat="44.0459648" lon="11.6509537"><ele>840.9999999999999</ele><time>2026-04-11T11:17:20.491Z</time></trkpt><trkpt lat="44.0460363" lon="11.6509158"><ele>841.0</ele><time>2026-04-11T11:17:21.489Z</time></trkpt><trkpt lat="44.0461143" lon="11.6509017"><ele>841.0</ele><time>2026-04-11T11:17:22.491Z</time></trkpt><trkpt lat="44.0461947" lon="11.6509147"><ele>841.0</ele><time>2026-04-11T11:17:23.493Z</time></trkpt><trkpt lat="44.04627" lon="11.6509643"><ele>840.9999999999999</ele><time>2026-04-11T11:17:24.491Z</time></trkpt><trkpt lat="44.0463408" lon="11.6510382"><ele>841.0</ele><time>2026-04-11T11:17:25.491Z</time></trkpt><trkpt lat="44.0464088" lon="11.6511125"><ele>835.8333333333333</ele><time>2026-04-11T11:17:26.492Z</time></trkpt><trkpt lat="44.0464713" lon="11.6511737"><ele>830.6666666666666</ele><time>2026-04-11T11:17:27.493Z</time></trkpt><trkpt lat="44.0465313" lon="11.6512078"><ele>825.5</ele><time>2026-04-11T11:17:28.491Z</time></trkpt><trkpt lat="44.0465973" lon="11.6512057"><ele>820.3333333333333</ele><time>2026-04-11T11:17:29.492Z</time></trkpt><trkpt lat="44.0466833" lon="11.6511852"><ele>815.1666666666666</ele><time>2026-04-11T11:17:30.493Z</time></trkpt><trkpt lat="44.0467712" lon="11.6511848"><ele>810.0</ele><time>2026-04-11T11:17:31.493Z</time></trkpt><trkpt lat="44.0468613" lon="11.6512165"><ele>809.0</ele><time>2026-04-11T11:17:32.493Z</time></trkpt><trkpt lat="44.0469487" lon="11.651275"><ele>808.0</ele><time>2026-04-11T11:17:33.493Z</time></trkpt><trkpt lat="44.0470205" lon="11.6513487"><ele>807.0</ele><time>2026-04-11T11:17:34.493Z</time></trkpt><trkpt lat="44.0470755" lon="11.6514388"><ele>806.0</ele><time>2026-04-11T11:17:35.494Z</time></trkpt><trkpt lat="44.0471253" lon="11.6515437"><ele>805.0</ele><time>2026-04-11T11:17:36.492Z</time></trkpt><trkpt lat="44.0471817" lon="11.6516413"><ele>805.0</ele><time>2026-04-11T11:17:37.493Z</time></trkpt><trkpt lat="44.0472538" lon="11.6517217"><ele>805.0</ele><time>2026-04-11T11:17:38.491Z</time></trkpt><trkpt lat="44.0473372" lon="11.6517703"><ele>805.0</ele><time>2026-04-11T11:17:39.493Z</time></trkpt><trkpt lat="44.0474147" lon="11.6518127"><ele>805.0</ele><time>2026-04-11T11:17:40.49Z</time></trkpt><trkpt lat="44.0474707" lon="11.6518662"><ele>805.0</ele><time>2026-04-11T11:17:41.491Z</time></trkpt><trkpt lat="44.0475342" lon="11.6520308"><ele>805.2</ele><time>2026-04-11T11:17:43.492Z</time></trkpt><trkpt lat="44.0475688" lon="11.6521533"><ele>805.4</ele><time>2026-04-11T11:17:44.493Z</time></trkpt><trkpt lat="44.0476108" lon="11.6522915"><ele>805.5999999999999</ele><time>2026-04-11T11:17:45.494Z</time></trkpt><trkpt lat="44.047646" lon="11.6524227"><ele>805.8</ele><time>2026-04-11T11:17:46.492Z</time></trkpt><trkpt lat="44.0476858" lon="11.6525357"><ele>806.0</ele><time>2026-04-11T11:17:47.493Z</time></trkpt><trkpt lat="44.047744" lon="11.6526103"><ele>806.0</ele><time>2026-04-11T11:17:48.492Z</time></trkpt><trkpt lat="44.0478242" lon="11.6526702"><ele>806.0</ele><time>2026-04-11T11:17:49.491Z</time></trkpt><trkpt lat="44.0479173" lon="11.6527393"><ele>806.0</ele><time>2026-04-11T11:17:50.495Z</time></trkpt><trkpt lat="44.0480183" lon="11.6528178"><ele>806.0</ele><time>2026-04-11T11:17:51.493Z</time></trkpt><trkpt lat="44.0481213" lon="11.6528913"><ele>806.0</ele><time>2026-04-11T11:17:52.494Z</time></trkpt><trkpt lat="44.0482055" lon="11.6529577"><ele>807.6666666666667</ele><time>2026-04-11T11:17:53.494Z</time></trkpt><trkpt lat="44.0482667" lon="11.6530283"><ele>809.3333333333334</ele><time>2026-04-11T11:17:54.494Z</time></trkpt><trkpt lat="44.0483093" lon="11.6531095"><ele>811.0</ele><time>2026-04-11T11:17:55.494Z</time></trkpt><trkpt lat="44.0483445" lon="11.6532108"><ele>812.6666666666667</ele><time>2026-04-11T11:17:56.493Z</time></trkpt><trkpt lat="44.0483722" lon="11.6533167"><ele>814.3333333333334</ele><time>2026-04-11T11:17:57.494Z</time></trkpt><trkpt lat="44.048397" lon="11.6533992"><ele>816.0</ele><time>2026-04-11T11:17:58.495Z</time></trkpt><trkpt lat="44.0484787" lon="11.6534638"><ele>816.0</ele><time>2026-04-11T11:18:00.494Z</time></trkpt><trkpt lat="44.0486052" lon="11.6533688"><ele>816.0</ele><time>2026-04-11T11:18:02.494Z</time></trkpt><trkpt lat="44.0486907" lon="11.6532928"><ele>816.0</ele><time>2026-04-11T11:18:03.493Z</time></trkpt><trkpt lat="44.0487795" lon="11.6532163"><ele>816.0</ele><time>2026-04-11T11:18:04.493Z</time></trkpt><trkpt lat="44.0488628" lon="11.653148"><ele>816.0</ele><time>2026-04-11T11:18:05.491Z</time></trkpt><trkpt lat="44.0489435" lon="11.6531048"><ele>816.0</ele><time>2026-04-11T11:18:06.493Z</time></trkpt><trkpt lat="44.0490258" lon="11.6530925"><ele>816.0</ele><time>2026-04-11T11:18:07.492Z</time></trkpt><trkpt lat="44.0491025" lon="11.6530815"><ele>816.0</ele><time>2026-04-11T11:18:08.492Z</time></trkpt><trkpt lat="44.0491682" lon="11.6530542"><ele>816.0</ele><time>2026-04-11T11:18:09.492Z</time></trkpt><trkpt lat="44.0492445" lon="11.6529202"><ele>816.0</ele><time>2026-04-11T11:18:11.492Z</time></trkpt><trkpt lat="44.0492763" lon="11.6528083"><ele>816.0</ele><time>2026-04-11T11:18:12.493Z</time></trkpt><trkpt lat="44.049311" lon="11.6527023"><ele>817.3333333333334</ele><time>2026-04-11T11:18:13.491Z</time></trkpt><trkpt lat="44.0493585" lon="11.6526085"><ele>818.6666666666667</ele><time>2026-04-11T11:18:14.492Z</time></trkpt><trkpt lat="44.0494185" lon="11.6525352"><ele>820.0</ele><time>2026-04-11T11:18:15.49Z</time></trkpt><trkpt lat="44.0494887" lon="11.6524875"><ele>821.3333333333334</ele><time>2026-04-11T11:18:16.49Z</time></trkpt><trkpt lat="44.0495663" lon="11.6524735"><ele>822.6666666666667</ele><time>2026-04-11T11:18:17.491Z</time></trkpt><trkpt lat="44.0496458" lon="11.6524863"><ele>824.0</ele><time>2026-04-11T11:18:18.504Z</time></trkpt><trkpt lat="44.0497342" lon="11.6525187"><ele>824.0</ele><time>2026-04-11T11:18:19.493Z</time></trkpt><trkpt lat="44.0498298" lon="11.6525488"><ele>824.0</ele><time>2026-04-11T11:18:20.495Z</time></trkpt><trkpt lat="44.0499248" lon="11.6525713"><ele>824.0</ele><time>2026-04-11T11:18:21.492Z</time></trkpt><trkpt lat="44.0500163" lon="11.652569"><ele>824.0</ele><time>2026-04-11T11:18:22.492Z</time></trkpt><trkpt lat="44.0501023" lon="11.6525283"><ele>824.0</ele><time>2026-04-11T11:18:23.499Z</time></trkpt><trkpt lat="44.0502018" lon="11.6524643"><ele>820.4000000000001</ele><time>2026-04-11T11:18:24.493Z</time></trkpt><trkpt lat="44.050308" lon="11.6523988"><ele>816.8</ele><time>2026-04-11T11:18:25.493Z</time></trkpt><trkpt lat="44.0504072" lon="11.6523537"><ele>813.2</ele><time>2026-04-11T11:18:26.493Z</time></trkpt><trkpt lat="44.0504998" lon="11.6523277"><ele>809.5999999999999</ele><time>2026-04-11T11:18:27.492Z</time></trkpt><trkpt lat="44.0505808" lon="11.6523275"><ele>806.0</ele><time>2026-04-11T11:18:28.493Z</time></trkpt><trkpt lat="44.0506545" lon="11.6523632"><ele>806.0000000000001</ele><time>2026-04-11T11:18:29.493Z</time></trkpt><trkpt lat="44.0507213" lon="11.6524373"><ele>806.0</ele><time>2026-04-11T11:18:30.491Z</time></trkpt><trkpt lat="44.0507747" lon="11.6525295"><ele>806.0</ele><time>2026-04-11T11:18:31.49Z</time></trkpt><trkpt lat="44.0508112" lon="11.6526402"><ele>806.0</ele><time>2026-04-11T11:18:32.49Z</time></trkpt><trkpt lat="44.0508475" lon="11.6527425"><ele>806.0000000000001</ele><time>2026-04-11T11:18:33.492Z</time></trkpt><trkpt lat="44.0509032" lon="11.652829"><ele>806.0</ele><time>2026-04-11T11:18:34.494Z</time></trkpt><trkpt lat="44.0509802" lon="11.6529057"><ele>806.1666666666667</ele><time>2026-04-11T11:18:35.494Z</time></trkpt><trkpt lat="44.0510503" lon="11.6529727"><ele>806.3333333333334</ele><time>2026-04-11T11:18:36.492Z</time></trkpt><trkpt lat="44.0511118" lon="11.6530105"><ele>806.5</ele><time>2026-04-11T11:18:37.492Z</time></trkpt><trkpt lat="44.0511978" lon="11.6529613"><ele>806.6666666666667</ele><time>2026-04-11T11:18:39.492Z</time></trkpt><trkpt lat="44.0512438" lon="11.652877"><ele>806.8333333333334</ele><time>2026-04-11T11:18:40.492Z</time></trkpt><trkpt lat="44.0512948" lon="11.6527642"><ele>807.0</ele><time>2026-04-11T11:18:41.492Z</time></trkpt><trkpt lat="44.0513432" lon="11.6526515"><ele>807.0</ele><time>2026-04-11T11:18:42.493Z</time></trkpt><trkpt lat="44.0513877" lon="11.6525403"><ele>807.0</ele><time>2026-04-11T11:18:43.493Z</time></trkpt><trkpt lat="44.0514332" lon="11.652446"><ele>807.0</ele><time>2026-04-11T11:18:44.494Z</time></trkpt><trkpt lat="44.0514873" lon="11.6523855"><ele>807.0</ele><time>2026-04-11T11:18:45.491Z</time></trkpt><trkpt lat="44.0515545" lon="11.6523592"><ele>807.0</ele><time>2026-04-11T11:18:46.493Z</time></trkpt><trkpt lat="44.0516382" lon="11.6523437"><ele>807.0</ele><time>2026-04-11T11:18:47.492Z</time></trkpt><trkpt lat="44.0517238" lon="11.6523183"><ele>806.0000000000001</ele><time>2026-04-11T11:18:48.491Z</time></trkpt><trkpt lat="44.0518057" lon="11.6522935"><ele>805.0</ele><time>2026-04-11T11:18:49.491Z</time></trkpt><trkpt lat="44.0518827" lon="11.6522955"><ele>804.0</ele><time>2026-04-11T11:18:50.492Z</time></trkpt><trkpt lat="44.0519433" lon="11.6523325"><ele>803.0</ele><time>2026-04-11T11:18:51.492Z</time></trkpt><trkpt lat="44.0519948" lon="11.6524052"><ele>802.0</ele><time>2026-04-11T11:18:52.491Z</time></trkpt><trkpt lat="44.0520458" lon="11.6524733"><ele>801.0000000000001</ele><time>2026-04-11T11:18:53.491Z</time></trkpt><trkpt lat="44.0521037" lon="11.6525108"><ele>800.0</ele><time>2026-04-11T11:18:54.489Z</time></trkpt><trkpt lat="44.0522372" lon="11.652473"><ele>800.0</ele><time>2026-04-11T11:18:56.49Z</time></trkpt><trkpt lat="44.0523295" lon="11.6524353"><ele>800.0</ele><time>2026-04-11T11:18:57.49Z</time></trkpt><trkpt lat="44.0524405" lon="11.6524115"><ele>800.0</ele><time>2026-04-11T11:18:58.496Z</time></trkpt><trkpt lat="44.0525595" lon="11.6524035"><ele>800.0</ele><time>2026-04-11T11:18:59.492Z</time></trkpt><trkpt lat="44.0526718" lon="11.6524173"><ele>800.0</ele><time>2026-04-11T11:19:00.493Z</time></trkpt><trkpt lat="44.052774" lon="11.652453"><ele>799.2</ele><time>2026-04-11T11:19:01.491Z</time></trkpt><trkpt lat="44.0528705" lon="11.6525145"><ele>798.4</ele><time>2026-04-11T11:19:02.494Z</time></trkpt><trkpt lat="44.0529572" lon="11.6525803"><ele>797.5999999999999</ele><time>2026-04-11T11:19:03.491Z</time></trkpt><trkpt lat="44.0530232" lon="11.6526708"><ele>796.8</ele><time>2026-04-11T11:19:04.493Z</time></trkpt><trkpt lat="44.0530762" lon="11.6527763"><ele>796.0</ele><time>2026-04-11T11:19:05.491Z</time></trkpt><trkpt lat="44.0531057" lon="11.6528777"><ele>794.9999999999999</ele><time>2026-04-11T11:19:06.492Z</time></trkpt><trkpt lat="44.0531205" lon="11.6529743"><ele>794.0</ele><time>2026-04-11T11:19:07.496Z</time></trkpt><trkpt lat="44.0531527" lon="11.6530543"><ele>793.0</ele><time>2026-04-11T11:19:08.493Z</time></trkpt><trkpt lat="44.0532153" lon="11.653126"><ele>792.0</ele><time>2026-04-11T11:19:09.493Z</time></trkpt><trkpt lat="44.053295" lon="11.6532087"><ele>790.9999999999999</ele><time>2026-04-11T11:19:10.492Z</time></trkpt><trkpt lat="44.0533585" lon="11.653311"><ele>790.0</ele><time>2026-04-11T11:19:11.493Z</time></trkpt><trkpt lat="44.0534013" lon="11.6534242"><ele>789.9999999999999</ele><time>2026-04-11T11:19:12.492Z</time></trkpt><trkpt lat="44.0534198" lon="11.6535352"><ele>790.0</ele><time>2026-04-11T11:19:13.491Z</time></trkpt><trkpt lat="44.053417" lon="11.6536598"><ele>790.0</ele><time>2026-04-11T11:19:14.494Z</time></trkpt><trkpt lat="44.053402" lon="11.6537875"><ele>790.0</ele><time>2026-04-11T11:19:15.493Z</time></trkpt><trkpt lat="44.0533893" lon="11.6539012"><ele>789.9999999999999</ele><time>2026-04-11T11:19:16.492Z</time></trkpt><trkpt lat="44.053389" lon="11.6539947"><ele>790.0</ele><time>2026-04-11T11:19:17.493Z</time></trkpt><trkpt lat="44.0534425" lon="11.6540932"><ele>787.2</ele><time>2026-04-11T11:19:19.492Z</time></trkpt><trkpt lat="44.053529" lon="11.6540227"><ele>784.4</ele><time>2026-04-11T11:19:21.491Z</time></trkpt><trkpt lat="44.0535867" lon="11.6539273"><ele>781.5999999999999</ele><time>2026-04-11T11:19:22.492Z</time></trkpt><trkpt lat="44.0536595" lon="11.653843"><ele>778.8</ele><time>2026-04-11T11:19:23.492Z</time></trkpt><trkpt lat="44.0537522" lon="11.6537757"><ele>776.0</ele><time>2026-04-11T11:19:24.492Z</time></trkpt><trkpt lat="44.0538513" lon="11.6537248"><ele>776.0</ele><time>2026-04-11T11:19:25.491Z</time></trkpt><trkpt lat="44.0539642" lon="11.65369"><ele>776.0</ele><time>2026-04-11T11:19:26.492Z</time></trkpt><trkpt lat="44.0540865" lon="11.6536733"><ele>776.0</ele><time>2026-04-11T11:19:27.494Z</time></trkpt><trkpt lat="44.054227" lon="11.6536782"><ele>776.0</ele><time>2026-04-11T11:19:28.491Z</time></trkpt><trkpt lat="44.0543795" lon="11.6536915"><ele>773.75</ele><time>2026-04-11T11:19:29.493Z</time></trkpt><trkpt lat="44.054526" lon="11.6537098"><ele>771.5</ele><time>2026-04-11T11:19:30.492Z</time></trkpt><trkpt lat="44.0546563" lon="11.653737"><ele>769.25</ele><time>2026-04-11T11:19:31.493Z</time></trkpt><trkpt lat="44.0547622" lon="11.653777"><ele>767.0</ele><time>2026-04-11T11:19:32.495Z</time></trkpt><trkpt lat="44.0548442" lon="11.6538262"><ele>767.0</ele><time>2026-04-11T11:19:33.494Z</time></trkpt><trkpt lat="44.0549025" lon="11.6538875"><ele>767.0</ele><time>2026-04-11T11:19:34.492Z</time></trkpt><trkpt lat="44.0549435" lon="11.6539695"><ele>767.0</ele><time>2026-04-11T11:19:35.492Z</time></trkpt><trkpt lat="44.0549785" lon="11.6540873"><ele>767.0</ele><time>2026-04-11T11:19:36.491Z</time></trkpt><trkpt lat="44.0550135" lon="11.6542343"><ele>767.0</ele><time>2026-04-11T11:19:37.494Z</time></trkpt><trkpt lat="44.0550438" lon="11.6543753"><ele>763.8</ele><time>2026-04-11T11:19:38.494Z</time></trkpt><trkpt lat="44.055071" lon="11.6545"><ele>760.6</ele><time>2026-04-11T11:19:39.493Z</time></trkpt><trkpt lat="44.0550993" lon="11.6545988"><ele>757.4</ele><time>2026-04-11T11:19:40.492Z</time></trkpt><trkpt lat="44.0551945" lon="11.6546855"><ele>754.1999999999999</ele><time>2026-04-11T11:19:42.491Z</time></trkpt><trkpt lat="44.0552797" lon="11.6546882"><ele>751.0</ele><time>2026-04-11T11:19:43.49Z</time></trkpt><trkpt lat="44.055374" lon="11.6547092"><ele>751.0</ele><time>2026-04-11T11:19:44.491Z</time></trkpt><trkpt lat="44.0554605" lon="11.6547642"><ele>751.0</ele><time>2026-04-11T11:19:45.49Z</time></trkpt><trkpt lat="44.0555313" lon="11.654845"><ele>751.0</ele><time>2026-04-11T11:19:46.491Z</time></trkpt><trkpt lat="44.0556018" lon="11.654923"><ele>751.0</ele><time>2026-04-11T11:19:47.492Z</time></trkpt><trkpt lat="44.0556867" lon="11.6549863"><ele>751.0</ele><time>2026-04-11T11:19:48.492Z</time></trkpt><trkpt lat="44.0557713" lon="11.6550495"><ele>749.6666666666667</ele><time>2026-04-11T11:19:49.492Z</time></trkpt><trkpt lat="44.0558412" lon="11.6551258"><ele>748.3333333333334</ele><time>2026-04-11T11:19:50.494Z</time></trkpt><trkpt lat="44.0558877" lon="11.6552035"><ele>747.0</ele><time>2026-04-11T11:19:51.493Z</time></trkpt><trkpt lat="44.055908" lon="11.6553775"><ele>745.6666666666666</ele><time>2026-04-11T11:19:53.492Z</time></trkpt><trkpt lat="44.0558913" lon="11.6554852"><ele>744.3333333333333</ele><time>2026-04-11T11:19:54.493Z</time></trkpt><trkpt lat="44.0558777" lon="11.6555932"><ele>743.0</ele><time>2026-04-11T11:19:55.494Z</time></trkpt><trkpt lat="44.0558887" lon="11.6556802"><ele>743.0</ele><time>2026-04-11T11:19:56.492Z</time></trkpt><trkpt lat="44.0559985" lon="11.6557988"><ele>743.0</ele><time>2026-04-11T11:19:58.491Z</time></trkpt><trkpt lat="44.0560775" lon="11.6558712"><ele>743.0</ele><time>2026-04-11T11:19:59.495Z</time></trkpt><trkpt lat="44.0561482" lon="11.6559617"><ele>743.0</ele><time>2026-04-11T11:20:00.493Z</time></trkpt><trkpt lat="44.0561977" lon="11.6560617"><ele>743.0</ele><time>2026-04-11T11:20:01.493Z</time></trkpt><trkpt lat="44.0562232" lon="11.656153"><ele>740.6666666666666</ele><time>2026-04-11T11:20:02.493Z</time></trkpt><trkpt lat="44.0562285" lon="11.6562868"><ele>738.3333333333333</ele><time>2026-04-11T11:20:04.495Z</time></trkpt><trkpt lat="44.0562773" lon="11.6563555"><ele>736.0</ele><time>2026-04-11T11:20:07.49Z</time></trkpt><trkpt lat="44.0563395" lon="11.6563173"><ele>733.6666666666666</ele><time>2026-04-11T11:20:09.49Z</time></trkpt><trkpt lat="44.056418" lon="11.656255"><ele>731.3333333333334</ele><time>2026-04-11T11:20:11.493Z</time></trkpt><trkpt lat="44.0564975" lon="11.6561833"><ele>729.0</ele><time>2026-04-11T11:20:13.492Z</time></trkpt><trkpt lat="44.0565923" lon="11.6561248"><ele>734.2</ele><time>2026-04-11T11:20:15.492Z</time></trkpt><trkpt lat="44.0566947" lon="11.6560923"><ele>739.4000000000001</ele><time>2026-04-11T11:20:17.492Z</time></trkpt><trkpt lat="44.0568072" lon="11.6560525"><ele>744.6</ele><time>2026-04-11T11:20:19.491Z</time></trkpt><trkpt lat="44.0568992" lon="11.6560072"><ele>749.8</ele><time>2026-04-11T11:20:21.492Z</time></trkpt><trkpt lat="44.0570178" lon="11.6559442"><ele>755.0</ele><time>2026-04-11T11:20:23.492Z</time></trkpt><trkpt lat="44.0571033" lon="11.6558988"><ele>755.0</ele><time>2026-04-11T11:20:24.491Z</time></trkpt><trkpt lat="44.0571857" lon="11.6558662"><ele>755.0</ele><time>2026-04-11T11:20:25.493Z</time></trkpt><trkpt lat="44.0572615" lon="11.6558665"><ele>755.0</ele><time>2026-04-11T11:20:26.492Z</time></trkpt><trkpt lat="44.0573415" lon="11.6558972"><ele>755.0</ele><time>2026-04-11T11:20:27.493Z</time></trkpt><trkpt lat="44.0574157" lon="11.6559423"><ele>755.0</ele><time>2026-04-11T11:20:28.492Z</time></trkpt><trkpt lat="44.057477" lon="11.6559708"><ele>755.0</ele><time>2026-04-11T11:20:29.492Z</time></trkpt><trkpt lat="44.0575847" lon="11.655924"><ele>754.0</ele><time>2026-04-11T11:20:31.49Z</time></trkpt><trkpt lat="44.0576337" lon="11.655866"><ele>753.0</ele><time>2026-04-11T11:20:32.49Z</time></trkpt><trkpt lat="44.0576877" lon="11.655781"><ele>752.0</ele><time>2026-04-11T11:20:33.49Z</time></trkpt><trkpt lat="44.0577423" lon="11.6556775"><ele>751.0</ele><time>2026-04-11T11:20:34.49Z</time></trkpt><trkpt lat="44.0577867" lon="11.6555812"><ele>750.0</ele><time>2026-04-11T11:20:35.494Z</time></trkpt><trkpt lat="44.0578297" lon="11.6555008"><ele>749.0</ele><time>2026-04-11T11:20:36.492Z</time></trkpt><trkpt lat="44.057916" lon="11.6554015"><ele>749.0</ele><time>2026-04-11T11:20:38.493Z</time></trkpt><trkpt lat="44.0580113" lon="11.6553502"><ele>749.0</ele><time>2026-04-11T11:20:40.491Z</time></trkpt><trkpt lat="44.0581235" lon="11.6553002"><ele>749.0</ele><time>2026-04-11T11:20:42.492Z</time></trkpt><trkpt lat="44.0582345" lon="11.655254"><ele>749.0</ele><time>2026-04-11T11:20:44.494Z</time></trkpt><trkpt lat="44.0583445" lon="11.6552428"><ele>749.0</ele><time>2026-04-11T11:20:46.491Z</time></trkpt><trkpt lat="44.05841" lon="11.6552392"><ele>746.6</ele><time>2026-04-11T11:20:47.492Z</time></trkpt><trkpt lat="44.0585312" lon="11.6552302"><ele>744.2</ele><time>2026-04-11T11:20:49.492Z</time></trkpt><trkpt lat="44.058647" lon="11.6551755"><ele>741.8000000000001</ele><time>2026-04-11T11:20:51.491Z</time></trkpt><trkpt lat="44.0587597" lon="11.6551233"><ele>739.4000000000001</ele><time>2026-04-11T11:20:53.492Z</time></trkpt><trkpt lat="44.0588198" lon="11.6550638"><ele>737.0</ele><time>2026-04-11T11:20:55.49Z</time></trkpt><trkpt lat="44.058848" lon="11.654968"><ele>737.0</ele><time>2026-04-11T11:20:57.488Z</time></trkpt><trkpt lat="44.0588915" lon="11.6548633"><ele>737.0</ele><time>2026-04-11T11:20:59.49Z</time></trkpt><trkpt lat="44.0589682" lon="11.6548045"><ele>737.0</ele><time>2026-04-11T11:21:01.49Z</time></trkpt><trkpt lat="44.0590387" lon="11.6548095"><ele>737.0</ele><time>2026-04-11T11:21:03.493Z</time></trkpt><trkpt lat="44.0591275" lon="11.6547707"><ele>737.0</ele><time>2026-04-11T11:21:05.491Z</time></trkpt><trkpt lat="44.059209" lon="11.6546722"><ele>737.0</ele><time>2026-04-11T11:21:07.49Z</time></trkpt><trkpt lat="44.0592887" lon="11.6545547"><ele>738.8333333333333</ele><time>2026-04-11T11:21:09.492Z</time></trkpt><trkpt lat="44.059373" lon="11.654522"><ele>740.6666666666666</ele><time>2026-04-11T11:21:11.493Z</time></trkpt><trkpt lat="44.0594517" lon="11.6544997"><ele>742.5</ele><time>2026-04-11T11:21:13.493Z</time></trkpt><trkpt lat="44.0595132" lon="11.6544168"><ele>744.3333333333334</ele><time>2026-04-11T11:21:15.494Z</time></trkpt><trkpt lat="44.0595875" lon="11.6543223"><ele>746.1666666666667</ele><time>2026-04-11T11:21:17.494Z</time></trkpt><trkpt lat="44.0596627" lon="11.6542552"><ele>748.0</ele><time>2026-04-11T11:21:19.493Z</time></trkpt><trkpt lat="44.0597552" lon="11.6542177"><ele>743.2</ele><time>2026-04-11T11:21:21.491Z</time></trkpt><trkpt lat="44.0598488" lon="11.6541273"><ele>738.4</ele><time>2026-04-11T11:21:23.492Z</time></trkpt><trkpt lat="44.059928" lon="11.6540163"><ele>733.6</ele><time>2026-04-11T11:21:25.493Z</time></trkpt><trkpt lat="44.0599398" lon="11.6539077"><ele>728.8000000000001</ele><time>2026-04-11T11:21:27.491Z</time></trkpt><trkpt lat="44.0599088" lon="11.6537772"><ele>724.0</ele><time>2026-04-11T11:21:29.493Z</time></trkpt><trkpt lat="44.059913" lon="11.6536627"><ele>722.0</ele><time>2026-04-11T11:21:31.492Z</time></trkpt><trkpt lat="44.0599377" lon="11.6535528"><ele>720.0</ele><time>2026-04-11T11:21:33.494Z</time></trkpt><trkpt lat="44.0599757" lon="11.6534403"><ele>718.0</ele><time>2026-04-11T11:21:35.493Z</time></trkpt><trkpt lat="44.0600223" lon="11.65332"><ele>716.0</ele><time>2026-04-11T11:21:37.493Z</time></trkpt><trkpt lat="44.0600803" lon="11.6532042"><ele>714.0</ele><time>2026-04-11T11:21:39.492Z</time></trkpt><trkpt lat="44.0601295" lon="11.6531023"><ele>714.0</ele><time>2026-04-11T11:21:41.493Z</time></trkpt><trkpt lat="44.0601912" lon="11.6529957"><ele>714.0</ele><time>2026-04-11T11:21:43.492Z</time></trkpt><trkpt lat="44.060264" lon="11.6529053"><ele>714.0</ele><time>2026-04-11T11:21:45.491Z</time></trkpt><trkpt lat="44.0603478" lon="11.6528073"><ele>714.0</ele><time>2026-04-11T11:21:47.49Z</time></trkpt><trkpt lat="44.0604318" lon="11.6527217"><ele>714.0</ele><time>2026-04-11T11:21:49.491Z</time></trkpt><trkpt lat="44.0605282" lon="11.6526347"><ele>709.4000000000001</ele><time>2026-04-11T11:21:51.494Z</time></trkpt><trkpt lat="44.060633" lon="11.6525577"><ele>704.8</ele><time>2026-04-11T11:21:53.493Z</time></trkpt><trkpt lat="44.0607257" lon="11.6525155"><ele>700.2</ele><time>2026-04-11T11:21:55.49Z</time></trkpt><trkpt lat="44.0608197" lon="11.6524867"><ele>695.5999999999999</ele><time>2026-04-11T11:21:57.493Z</time></trkpt><trkpt lat="44.0609103" lon="11.6524415"><ele>691.0</ele><time>2026-04-11T11:21:59.493Z</time></trkpt><trkpt lat="44.061011" lon="11.6523737"><ele>690.5999999999999</ele><time>2026-04-11T11:22:01.492Z</time></trkpt><trkpt lat="44.0611242" lon="11.6523402"><ele>690.2</ele><time>2026-04-11T11:22:03.494Z</time></trkpt><trkpt lat="44.0612172" lon="11.6522775"><ele>689.8</ele><time>2026-04-11T11:22:05.493Z</time></trkpt><trkpt lat="44.061298" lon="11.65221"><ele>689.4000000000001</ele><time>2026-04-11T11:22:07.496Z</time></trkpt><trkpt lat="44.0613758" lon="11.6521675"><ele>689.0</ele><time>2026-04-11T11:22:09.495Z</time></trkpt><trkpt lat="44.0614612" lon="11.6521212"><ele>689.0</ele><time>2026-04-11T11:22:11.49Z</time></trkpt><trkpt lat="44.0615475" lon="11.652084"><ele>689.0</ele><time>2026-04-11T11:22:13.491Z</time></trkpt><trkpt lat="44.0616342" lon="11.6520373"><ele>689.0</ele><time>2026-04-11T11:22:15.495Z</time></trkpt><trkpt lat="44.0617285" lon="11.6519717"><ele>689.0</ele><time>2026-04-11T11:22:17.492Z</time></trkpt><trkpt lat="44.0618325" lon="11.6518838"><ele>689.0</ele><time>2026-04-11T11:22:19.491Z</time></trkpt><trkpt lat="44.061892" lon="11.6518373"><ele>685.5</ele><time>2026-04-11T11:22:20.493Z</time></trkpt><trkpt lat="44.0619487" lon="11.651781"><ele>682.0</ele><time>2026-04-11T11:22:21.492Z</time></trkpt><trkpt lat="44.0620062" lon="11.651722"><ele>678.5</ele><time>2026-04-11T11:22:22.494Z</time></trkpt><trkpt lat="44.0620623" lon="11.6516753"><ele>675.0</ele><time>2026-04-11T11:22:23.493Z</time></trkpt><trkpt lat="44.0621762" lon="11.6516023"><ele>671.5</ele><time>2026-04-11T11:22:25.492Z</time></trkpt><trkpt lat="44.0622477" lon="11.6515657"><ele>668.0</ele><time>2026-04-11T11:22:26.494Z</time></trkpt><trkpt lat="44.0623158" lon="11.6515423"><ele>668.0</ele><time>2026-04-11T11:22:27.495Z</time></trkpt><trkpt lat="44.0624295" lon="11.6515438"><ele>668.0</ele><time>2026-04-11T11:22:29.491Z</time></trkpt><trkpt lat="44.0625097" lon="11.65152"><ele>668.0</ele><time>2026-04-11T11:22:31.493Z</time></trkpt><trkpt lat="44.062544" lon="11.651409"><ele>668.0</ele><time>2026-04-11T11:22:33.491Z</time></trkpt><trkpt lat="44.0625627" lon="11.6513043"><ele>668.0</ele><time>2026-04-11T11:22:34.491Z</time></trkpt><trkpt lat="44.0625927" lon="11.6511655"><ele>668.3333333333333</ele><time>2026-04-11T11:22:35.491Z</time></trkpt><trkpt lat="44.0626237" lon="11.651023"><ele>668.6666666666666</ele><time>2026-04-11T11:22:36.49Z</time></trkpt><trkpt lat="44.0626515" lon="11.6508997"><ele>669.0</ele><time>2026-04-11T11:22:37.49Z</time></trkpt><trkpt lat="44.0626768" lon="11.6507937"><ele>669.3333333333334</ele><time>2026-04-11T11:22:38.492Z</time></trkpt><trkpt lat="44.0627097" lon="11.6507047"><ele>669.6666666666667</ele><time>2026-04-11T11:22:39.494Z</time></trkpt><trkpt lat="44.0627497" lon="11.6506307"><ele>670.0</ele><time>2026-04-11T11:22:40.491Z</time></trkpt><trkpt lat="44.0627928" lon="11.6505615"><ele>670.0</ele><time>2026-04-11T11:22:41.493Z</time></trkpt><trkpt lat="44.0628497" lon="11.6504917"><ele>670.0</ele><time>2026-04-11T11:22:42.493Z</time></trkpt><trkpt lat="44.0629193" lon="11.6504387"><ele>670.0</ele><time>2026-04-11T11:22:43.493Z</time></trkpt><trkpt lat="44.0629947" lon="11.6504055"><ele>670.0</ele><time>2026-04-11T11:22:44.494Z</time></trkpt><trkpt lat="44.0630768" lon="11.6504003"><ele>670.0</ele><time>2026-04-11T11:22:45.492Z</time></trkpt><trkpt lat="44.0631662" lon="11.6504062"><ele>670.0</ele><time>2026-04-11T11:22:46.491Z</time></trkpt><trkpt lat="44.0632497" lon="11.6504158"><ele>669.1666666666667</ele><time>2026-04-11T11:22:47.492Z</time></trkpt><trkpt lat="44.0633218" lon="11.6504037"><ele>668.3333333333334</ele><time>2026-04-11T11:22:48.491Z</time></trkpt><trkpt lat="44.0633962" lon="11.6503978"><ele>667.5</ele><time>2026-04-11T11:22:49.492Z</time></trkpt><trkpt lat="44.0634617" lon="11.650385"><ele>666.6666666666666</ele><time>2026-04-11T11:22:50.492Z</time></trkpt><trkpt lat="44.0635667" lon="11.6503058"><ele>665.8333333333333</ele><time>2026-04-11T11:22:52.491Z</time></trkpt><trkpt lat="44.0636172" lon="11.6502435"><ele>665.0</ele><time>2026-04-11T11:22:53.492Z</time></trkpt><trkpt lat="44.0636743" lon="11.6501838"><ele>665.0</ele><time>2026-04-11T11:22:54.491Z</time></trkpt><trkpt lat="44.0637413" lon="11.650119"><ele>665.0</ele><time>2026-04-11T11:22:55.495Z</time></trkpt><trkpt lat="44.0638138" lon="11.6500773"><ele>665.0</ele><time>2026-04-11T11:22:56.491Z</time></trkpt><trkpt lat="44.0638927" lon="11.6500653"><ele>665.0</ele><time>2026-04-11T11:22:57.492Z</time></trkpt><trkpt lat="44.0639732" lon="11.6500717"><ele>665.0</ele><time>2026-04-11T11:22:58.491Z</time></trkpt><trkpt lat="44.0640357" lon="11.6500948"><ele>665.0</ele><time>2026-04-11T11:22:59.493Z</time></trkpt><trkpt lat="44.0641315" lon="11.6501403"><ele>663.6</ele><time>2026-04-11T11:23:01.49Z</time></trkpt><trkpt lat="44.064235" lon="11.6502597"><ele>662.2</ele><time>2026-04-11T11:23:03.493Z</time></trkpt><trkpt lat="44.064285" lon="11.6503275"><ele>660.8</ele><time>2026-04-11T11:23:04.492Z</time></trkpt><trkpt lat="44.0643352" lon="11.6503818"><ele>659.4</ele><time>2026-04-11T11:23:05.492Z</time></trkpt><trkpt lat="44.0644258" lon="11.6503902"><ele>658.0</ele><time>2026-04-11T11:23:07.492Z</time></trkpt><trkpt lat="44.0644763" lon="11.6502808"><ele>662.2</ele><time>2026-04-11T11:23:09.492Z</time></trkpt><trkpt lat="44.064501" lon="11.6501235"><ele>666.4</ele><time>2026-04-11T11:23:11.494Z</time></trkpt><trkpt lat="44.064589" lon="11.6499793"><ele>670.6</ele><time>2026-04-11T11:23:13.493Z</time></trkpt><trkpt lat="44.0646448" lon="11.649902"><ele>674.8000000000001</ele><time>2026-04-11T11:23:14.494Z</time></trkpt><trkpt lat="44.0646995" lon="11.6498315"><ele>679.0</ele><time>2026-04-11T11:23:15.493Z</time></trkpt><trkpt lat="44.0647543" lon="11.649776"><ele>679.0</ele><time>2026-04-11T11:23:16.492Z</time></trkpt><trkpt lat="44.0648148" lon="11.6497388"><ele>679.0</ele><time>2026-04-11T11:23:17.492Z</time></trkpt><trkpt lat="44.0648783" lon="11.649716"><ele>679.0</ele><time>2026-04-11T11:23:18.491Z</time></trkpt><trkpt lat="44.064993" lon="11.6496657"><ele>679.0</ele><time>2026-04-11T11:23:20.494Z</time></trkpt><trkpt lat="44.0650592" lon="11.6496195"><ele>679.0</ele><time>2026-04-11T11:23:21.492Z</time></trkpt><trkpt lat="44.065131" lon="11.6495698"><ele>679.0</ele><time>2026-04-11T11:23:22.492Z</time></trkpt><trkpt lat="44.0652027" lon="11.6495298"><ele>677.8333333333334</ele><time>2026-04-11T11:23:23.491Z</time></trkpt><trkpt lat="44.0652798" lon="11.6495213"><ele>676.6666666666667</ele><time>2026-04-11T11:23:24.489Z</time></trkpt><trkpt lat="44.06536" lon="11.649524"><ele>675.5</ele><time>2026-04-11T11:23:25.494Z</time></trkpt><trkpt lat="44.0654327" lon="11.6495407"><ele>674.3333333333334</ele><time>2026-04-11T11:23:26.49Z</time></trkpt><trkpt lat="44.065521" lon="11.6496055"><ele>673.1666666666666</ele><time>2026-04-11T11:23:28.492Z</time></trkpt><trkpt lat="44.0656072" lon="11.6497033"><ele>672.0</ele><time>2026-04-11T11:23:30.493Z</time></trkpt><trkpt lat="44.0657008" lon="11.649777"><ele>668.0</ele><time>2026-04-11T11:23:32.492Z</time></trkpt><trkpt lat="44.0657882" lon="11.6498065"><ele>664.0</ele><time>2026-04-11T11:23:34.492Z</time></trkpt><trkpt lat="44.0658752" lon="11.6498385"><ele>660.0</ele><time>2026-04-11T11:23:36.492Z</time></trkpt><trkpt lat="44.065967" lon="11.6498828"><ele>656.0</ele><time>2026-04-11T11:23:38.492Z</time></trkpt><trkpt lat="44.0660643" lon="11.6499312"><ele>652.0</ele><time>2026-04-11T11:23:40.492Z</time></trkpt><trkpt lat="44.0661653" lon="11.6499612"><ele>652.0</ele><time>2026-04-11T11:23:42.493Z</time></trkpt><trkpt lat="44.066243" lon="11.6498908"><ele>652.0</ele><time>2026-04-11T11:23:44.493Z</time></trkpt><trkpt lat="44.0662993" lon="11.6497645"><ele>652.0</ele><time>2026-04-11T11:23:46.492Z</time></trkpt><trkpt lat="44.0663478" lon="11.6496417"><ele>652.0</ele><time>2026-04-11T11:23:48.491Z</time></trkpt><trkpt lat="44.066404" lon="11.6495432"><ele>652.0</ele><time>2026-04-11T11:23:50.491Z</time></trkpt><trkpt lat="44.0664452" lon="11.6494312"><ele>650.0</ele><time>2026-04-11T11:23:52.492Z</time></trkpt><trkpt lat="44.0664635" lon="11.6493007"><ele>648.0</ele><time>2026-04-11T11:23:54.491Z</time></trkpt><trkpt lat="44.0665135" lon="11.6492028"><ele>646.0</ele><time>2026-04-11T11:23:56.493Z</time></trkpt><trkpt lat="44.0665758" lon="11.6491508"><ele>644.0</ele><time>2026-04-11T11:23:58.491Z</time></trkpt><trkpt lat="44.0666473" lon="11.6490887"><ele>642.0</ele><time>2026-04-11T11:24:03.494Z</time></trkpt><trkpt lat="44.0667222" lon="11.64904"><ele>640.0</ele><time>2026-04-11T11:24:05.494Z</time></trkpt><trkpt lat="44.0668162" lon="11.6489875"><ele>640.0</ele><time>2026-04-11T11:24:07.494Z</time></trkpt><trkpt lat="44.0669065" lon="11.6489142"><ele>640.0</ele><time>2026-04-11T11:24:09.494Z</time></trkpt><trkpt lat="44.0670153" lon="11.6488715"><ele>640.0</ele><time>2026-04-11T11:24:11.494Z</time></trkpt><trkpt lat="44.0670812" lon="11.6488555"><ele>640.0</ele><time>2026-04-11T11:24:12.49Z</time></trkpt><trkpt lat="44.0671442" lon="11.6488335"><ele>640.0</ele><time>2026-04-11T11:24:13.491Z</time></trkpt><trkpt lat="44.067254" lon="11.6488272"><ele>640.0</ele><time>2026-04-11T11:24:15.491Z</time></trkpt><trkpt lat="44.0673255" lon="11.6488757"><ele>640.0</ele><time>2026-04-11T11:24:17.494Z</time></trkpt><trkpt lat="44.0674162" lon="11.6489528"><ele>640.0</ele><time>2026-04-11T11:24:19.491Z</time></trkpt><trkpt lat="44.0675212" lon="11.6489857"><ele>640.0</ele><time>2026-04-11T11:24:21.491Z</time></trkpt><trkpt lat="44.0676107" lon="11.6490138"><ele>640.0</ele><time>2026-04-11T11:24:23.492Z</time></trkpt><trkpt lat="44.0677118" lon="11.6490753"><ele>635.0</ele><time>2026-04-11T11:24:25.492Z</time></trkpt><trkpt lat="44.067821" lon="11.6491737"><ele>630.0</ele><time>2026-04-11T11:24:27.492Z</time></trkpt><trkpt lat="44.067877" lon="11.649226"><ele>625.0</ele><time>2026-04-11T11:24:28.491Z</time></trkpt><trkpt lat="44.0679753" lon="11.6493065"><ele>620.0</ele><time>2026-04-11T11:24:30.491Z</time></trkpt><trkpt lat="44.0680305" lon="11.6494043"><ele>615.0</ele><time>2026-04-11T11:24:32.492Z</time></trkpt><trkpt lat="44.068078" lon="11.6495333"><ele>612.2</ele><time>2026-04-11T11:24:34.491Z</time></trkpt><trkpt lat="44.068155" lon="11.6495968"><ele>609.4</ele><time>2026-04-11T11:24:36.491Z</time></trkpt><trkpt lat="44.0682455" lon="11.6495743"><ele>606.6</ele><time>2026-04-11T11:24:38.49Z</time></trkpt><trkpt lat="44.068372" lon="11.6495722"><ele>603.8</ele><time>2026-04-11T11:24:40.49Z</time></trkpt><trkpt lat="44.0684348" lon="11.6495583"><ele>601.0</ele><time>2026-04-11T11:24:41.493Z</time></trkpt><trkpt lat="44.0685483" lon="11.6495678"><ele>601.0</ele><time>2026-04-11T11:24:43.493Z</time></trkpt><trkpt lat="44.0686687" lon="11.6496158"><ele>601.0</ele><time>2026-04-11T11:24:45.493Z</time></trkpt><trkpt lat="44.0687685" lon="11.649664"><ele>601.0</ele><time>2026-04-11T11:24:47.492Z</time></trkpt><trkpt lat="44.0688283" lon="11.649592"><ele>601.0</ele><time>2026-04-11T11:24:49.493Z</time></trkpt><trkpt lat="44.0688963" lon="11.6494928"><ele>601.0</ele><time>2026-04-11T11:24:51.492Z</time></trkpt><trkpt lat="44.0689832" lon="11.6494392"><ele>604.3333333333334</ele><time>2026-04-11T11:24:53.494Z</time></trkpt><trkpt lat="44.0690802" lon="11.6494275"><ele>607.6666666666667</ele><time>2026-04-11T11:24:55.493Z</time></trkpt><trkpt lat="44.0691882" lon="11.6494015"><ele>611.0</ele><time>2026-04-11T11:24:57.492Z</time></trkpt><trkpt lat="44.0692855" lon="11.6493855"><ele>614.3333333333334</ele><time>2026-04-11T11:24:59.492Z</time></trkpt><trkpt lat="44.0693507" lon="11.6493975"><ele>617.6666666666666</ele><time>2026-04-11T11:25:01.49Z</time></trkpt><trkpt lat="44.0694282" lon="11.6493825"><ele>621.0</ele><time>2026-04-11T11:25:03.491Z</time></trkpt><trkpt lat="44.0695125" lon="11.649349"><ele>621.0</ele><time>2026-04-11T11:25:05.493Z</time></trkpt><trkpt lat="44.0696308" lon="11.6494152"><ele>621.0</ele><time>2026-04-11T11:25:07.492Z</time></trkpt><trkpt lat="44.0696785" lon="11.6494883"><ele>621.0</ele><time>2026-04-11T11:25:08.491Z</time></trkpt><trkpt lat="44.0697232" lon="11.6495997"><ele>621.0</ele><time>2026-04-11T11:25:10.492Z</time></trkpt><trkpt lat="44.0697568" lon="11.6496828"><ele>621.0</ele><time>2026-04-11T11:25:12.49Z</time></trkpt><trkpt lat="44.0697955" lon="11.6497777"><ele>621.0</ele><time>2026-04-11T11:25:14.491Z</time></trkpt><trkpt lat="44.0698673" lon="11.6497367"><ele>617.8</ele><time>2026-04-11T11:25:17.492Z</time></trkpt><trkpt lat="44.0699245" lon="11.6496738"><ele>614.6</ele><time>2026-04-11T11:25:21.492Z</time></trkpt><trkpt lat="44.0700033" lon="11.6496132"><ele>611.4</ele><time>2026-04-11T11:25:23.492Z</time></trkpt><trkpt lat="44.0700897" lon="11.6495883"><ele>608.2</ele><time>2026-04-11T11:25:25.492Z</time></trkpt><trkpt lat="44.0701973" lon="11.649551"><ele>605.0</ele><time>2026-04-11T11:25:27.49Z</time></trkpt><trkpt lat="44.0702932" lon="11.6495022"><ele>608.3333333333333</ele><time>2026-04-11T11:25:29.49Z</time></trkpt><trkpt lat="44.070344" lon="11.6494377"><ele>611.6666666666666</ele><time>2026-04-11T11:25:32.492Z</time></trkpt><trkpt lat="44.0704137" lon="11.6494043"><ele>615.0</ele><time>2026-04-11T11:25:35.493Z</time></trkpt><trkpt lat="44.0704968" lon="11.6493817"><ele>618.3333333333334</ele><time>2026-04-11T11:25:38.493Z</time></trkpt><trkpt lat="44.0705962" lon="11.6493602"><ele>621.6666666666667</ele><time>2026-04-11T11:25:41.493Z</time></trkpt><trkpt lat="44.0706967" lon="11.6493718"><ele>625.0</ele><time>2026-04-11T11:25:43.491Z</time></trkpt><trkpt lat="44.0707955" lon="11.6493855"><ele>625.0</ele><time>2026-04-11T11:25:45.493Z</time></trkpt><trkpt lat="44.0708733" lon="11.6493755"><ele>625.0</ele><time>2026-04-11T11:25:47.491Z</time></trkpt><trkpt lat="44.0709455" lon="11.6493767"><ele>625.0</ele><time>2026-04-11T11:25:49.494Z</time></trkpt><trkpt lat="44.0710133" lon="11.649291"><ele>625.0</ele><time>2026-04-11T11:25:52.489Z</time></trkpt><trkpt lat="44.0710557" lon="11.6491672"><ele>625.0</ele><time>2026-04-11T11:25:54.492Z</time></trkpt><trkpt lat="44.0711217" lon="11.6490598"><ele>625.0</ele><time>2026-04-11T11:25:56.49Z</time></trkpt><trkpt lat="44.0711782" lon="11.6489537"><ele>625.0</ele><time>2026-04-11T11:25:58.491Z</time></trkpt><trkpt lat="44.0712435" lon="11.648887"><ele>625.0</ele><time>2026-04-11T11:26:00.491Z</time></trkpt><trkpt lat="44.0713025" lon="11.6487835"><ele>625.0</ele><time>2026-04-11T11:26:02.491Z</time></trkpt><trkpt lat="44.0713292" lon="11.6486565"><ele>625.0</ele><time>2026-04-11T11:26:04.49Z</time></trkpt><trkpt lat="44.0713382" lon="11.6485623"><ele>625.0</ele><time>2026-04-11T11:26:06.492Z</time></trkpt><trkpt lat="44.0713002" lon="11.6484453"><ele>625.0</ele><time>2026-04-11T11:26:08.489Z</time></trkpt><trkpt lat="44.0712348" lon="11.6483067"><ele>626.0</ele><time>2026-04-11T11:26:10.489Z</time></trkpt><trkpt lat="44.0711838" lon="11.6481878"><ele>627.0</ele><time>2026-04-11T11:26:12.491Z</time></trkpt><trkpt lat="44.0710988" lon="11.6480667"><ele>628.0</ele><time>2026-04-11T11:26:14.49Z</time></trkpt><trkpt lat="44.071026" lon="11.6479888"><ele>629.0</ele><time>2026-04-11T11:26:15.491Z</time></trkpt><trkpt lat="44.0709555" lon="11.6479235"><ele>630.0</ele><time>2026-04-11T11:26:16.489Z</time></trkpt><trkpt lat="44.0709053" lon="11.647864"><ele>627.25</ele><time>2026-04-11T11:26:17.489Z</time></trkpt><trkpt lat="44.0708323" lon="11.6477342"><ele>624.5</ele><time>2026-04-11T11:26:19.491Z</time></trkpt><trkpt lat="44.0707607" lon="11.6475838"><ele>621.75</ele><time>2026-04-11T11:26:21.492Z</time></trkpt><trkpt lat="44.0707303" lon="11.6474262"><ele>619.0</ele><time>2026-04-11T11:26:23.492Z</time></trkpt><trkpt lat="44.0707345" lon="11.6472797"><ele>617.0</ele><time>2026-04-11T11:26:25.494Z</time></trkpt><trkpt lat="44.0707752" lon="11.6471267"><ele>615.0</ele><time>2026-04-11T11:26:27.49Z</time></trkpt><trkpt lat="44.0707972" lon="11.6470445"><ele>613.0</ele><time>2026-04-11T11:26:28.492Z</time></trkpt><trkpt lat="44.0708197" lon="11.6469623"><ele>611.0</ele><time>2026-04-11T11:26:29.491Z</time></trkpt><trkpt lat="44.0708458" lon="11.6468812"><ele>609.0</ele><time>2026-04-11T11:26:30.49Z</time></trkpt><trkpt lat="44.0709017" lon="11.646729"><ele>607.0</ele><time>2026-04-11T11:26:32.492Z</time></trkpt><trkpt lat="44.0709767" lon="11.6466305"><ele>604.5</ele><time>2026-04-11T11:26:34.491Z</time></trkpt><trkpt lat="44.071067" lon="11.6465218"><ele>602.0</ele><time>2026-04-11T11:26:36.492Z</time></trkpt><trkpt lat="44.071104" lon="11.6464482"><ele>599.5</ele><time>2026-04-11T11:26:37.491Z</time></trkpt><trkpt lat="44.07114" lon="11.6462973"><ele>597.0</ele><time>2026-04-11T11:26:39.489Z</time></trkpt><trkpt lat="44.0711663" lon="11.6462077"><ele>594.5</ele><time>2026-04-11T11:26:40.489Z</time></trkpt><trkpt lat="44.071204" lon="11.6461068"><ele>592.0</ele><time>2026-04-11T11:26:41.489Z</time></trkpt><trkpt lat="44.0712367" lon="11.6460237"><ele>589.4</ele><time>2026-04-11T11:26:42.489Z</time></trkpt><trkpt lat="44.0713048" lon="11.6458998"><ele>586.8000000000001</ele><time>2026-04-11T11:26:44.492Z</time></trkpt><trkpt lat="44.0714128" lon="11.645792"><ele>584.2</ele><time>2026-04-11T11:26:46.491Z</time></trkpt><trkpt lat="44.0714828" lon="11.6457302"><ele>581.6</ele><time>2026-04-11T11:26:47.491Z</time></trkpt><trkpt lat="44.0715407" lon="11.645664"><ele>579.0</ele><time>2026-04-11T11:26:48.491Z</time></trkpt><trkpt lat="44.0715872" lon="11.6456038"><ele>580.0</ele><time>2026-04-11T11:26:49.491Z</time></trkpt><trkpt lat="44.0716465" lon="11.6455072"><ele>581.0</ele><time>2026-04-11T11:26:51.492Z</time></trkpt><trkpt lat="44.0717092" lon="11.6453745"><ele>582.0</ele><time>2026-04-11T11:26:53.493Z</time></trkpt><trkpt lat="44.0718022" lon="11.6453212"><ele>583.0</ele><time>2026-04-11T11:26:55.491Z</time></trkpt><trkpt lat="44.0718843" lon="11.6452278"><ele>584.0</ele><time>2026-04-11T11:26:57.492Z</time></trkpt><trkpt lat="44.0719402" lon="11.6451493"><ele>584.0</ele><time>2026-04-11T11:26:59.492Z</time></trkpt><trkpt lat="44.0720118" lon="11.645089"><ele>584.0</ele><time>2026-04-11T11:27:01.491Z</time></trkpt><trkpt lat="44.0721073" lon="11.6450233"><ele>584.0</ele><time>2026-04-11T11:27:03.49Z</time></trkpt><trkpt lat="44.072202" lon="11.644926"><ele>584.0</ele><time>2026-04-11T11:27:05.489Z</time></trkpt><trkpt lat="44.0723158" lon="11.644836"><ele>584.0</ele><time>2026-04-11T11:27:07.489Z</time></trkpt><trkpt lat="44.0723897" lon="11.6447905"><ele>582.6666666666666</ele><time>2026-04-11T11:27:08.491Z</time></trkpt><trkpt lat="44.0724657" lon="11.644733"><ele>581.3333333333333</ele><time>2026-04-11T11:27:09.49Z</time></trkpt><trkpt lat="44.072532" lon="11.6446705"><ele>580.0</ele><time>2026-04-11T11:27:10.49Z</time></trkpt><trkpt lat="44.0725927" lon="11.6445858"><ele>578.6666666666666</ele><time>2026-04-11T11:27:11.491Z</time></trkpt><trkpt lat="44.0726507" lon="11.6444898"><ele>577.3333333333334</ele><time>2026-04-11T11:27:12.491Z</time></trkpt><trkpt lat="44.0727055" lon="11.6444102"><ele>576.0</ele><time>2026-04-11T11:27:13.492Z</time></trkpt><trkpt lat="44.072757" lon="11.6443533"><ele>576.0</ele><time>2026-04-11T11:27:14.491Z</time></trkpt><trkpt lat="44.0728758" lon="11.6443008"><ele>576.0</ele><time>2026-04-11T11:27:16.49Z</time></trkpt><trkpt lat="44.072939" lon="11.6442635"><ele>576.0</ele><time>2026-04-11T11:27:17.49Z</time></trkpt><trkpt lat="44.0729975" lon="11.6442153"><ele>576.0</ele><time>2026-04-11T11:27:18.491Z</time></trkpt><trkpt lat="44.073044" lon="11.6441512"><ele>576.0</ele><time>2026-04-11T11:27:19.491Z</time></trkpt><trkpt lat="44.0730988" lon="11.6440847"><ele>576.0</ele><time>2026-04-11T11:27:20.49Z</time></trkpt><trkpt lat="44.0731725" lon="11.6440183"><ele>576.0</ele><time>2026-04-11T11:27:21.49Z</time></trkpt><trkpt lat="44.0732553" lon="11.6439567"><ele>576.0</ele><time>2026-04-11T11:27:22.491Z</time></trkpt><trkpt lat="44.0733307" lon="11.643897"><ele>576.0</ele><time>2026-04-11T11:27:23.496Z</time></trkpt><trkpt lat="44.0733973" lon="11.6438445"><ele>576.0</ele><time>2026-04-11T11:27:24.494Z</time></trkpt><trkpt lat="44.0734577" lon="11.6437902"><ele>576.0</ele><time>2026-04-11T11:27:25.491Z</time></trkpt><trkpt lat="44.0735615" lon="11.6437445"><ele>576.0</ele><time>2026-04-11T11:27:27.493Z</time></trkpt><trkpt lat="44.073649" lon="11.6436743"><ele>576.0</ele><time>2026-04-11T11:27:29.491Z</time></trkpt><trkpt lat="44.0737598" lon="11.6435723"><ele>576.0</ele><time>2026-04-11T11:27:31.489Z</time></trkpt><trkpt lat="44.0738205" lon="11.6435207"><ele>576.0</ele><time>2026-04-11T11:27:32.492Z</time></trkpt><trkpt lat="44.073881" lon="11.6434732"><ele>576.0</ele><time>2026-04-11T11:27:33.493Z</time></trkpt><trkpt lat="44.073954" lon="11.643444"><ele>576.0</ele><time>2026-04-11T11:27:34.492Z</time></trkpt><trkpt lat="44.0740348" lon="11.6434302"><ele>576.0</ele><time>2026-04-11T11:27:35.492Z</time></trkpt><trkpt lat="44.0741245" lon="11.6434058"><ele>578.2</ele><time>2026-04-11T11:27:36.493Z</time></trkpt><trkpt lat="44.074209" lon="11.6433583"><ele>580.4000000000001</ele><time>2026-04-11T11:27:37.494Z</time></trkpt><trkpt lat="44.074294" lon="11.6433172"><ele>582.6</ele><time>2026-04-11T11:27:38.494Z</time></trkpt><trkpt lat="44.0743803" lon="11.6432988"><ele>584.8000000000001</ele><time>2026-04-11T11:27:39.494Z</time></trkpt><trkpt lat="44.0744555" lon="11.6433022"><ele>587.0</ele><time>2026-04-11T11:27:40.49Z</time></trkpt><trkpt lat="44.0745627" lon="11.6432525"><ele>587.0</ele><time>2026-04-11T11:27:42.49Z</time></trkpt><trkpt lat="44.0746707" lon="11.6431863"><ele>587.0</ele><time>2026-04-11T11:27:44.492Z</time></trkpt><trkpt lat="44.0747402" lon="11.6431635"><ele>587.0</ele><time>2026-04-11T11:27:45.491Z</time></trkpt><trkpt lat="44.0748062" lon="11.6431408"><ele>587.0</ele><time>2026-04-11T11:27:46.49Z</time></trkpt><trkpt lat="44.0748772" lon="11.6431028"><ele>587.0</ele><time>2026-04-11T11:27:47.491Z</time></trkpt><trkpt lat="44.0749503" lon="11.6430558"><ele>587.0</ele><time>2026-04-11T11:27:48.49Z</time></trkpt><trkpt lat="44.0750145" lon="11.64301"><ele>588.4</ele><time>2026-04-11T11:27:49.489Z</time></trkpt><trkpt lat="44.0751228" lon="11.6429177"><ele>589.8000000000001</ele><time>2026-04-11T11:27:51.491Z</time></trkpt><trkpt lat="44.0751882" lon="11.6428625"><ele>591.2</ele><time>2026-04-11T11:27:52.49Z</time></trkpt><trkpt lat="44.0752595" lon="11.6428107"><ele>592.6</ele><time>2026-04-11T11:27:53.49Z</time></trkpt><trkpt lat="44.075328" lon="11.6427523"><ele>594.0</ele><time>2026-04-11T11:27:54.49Z</time></trkpt><trkpt lat="44.0753962" lon="11.6426742"><ele>591.6666666666666</ele><time>2026-04-11T11:27:55.49Z</time></trkpt><trkpt lat="44.075462" lon="11.6425877"><ele>589.3333333333334</ele><time>2026-04-11T11:27:56.492Z</time></trkpt><trkpt lat="44.0755265" lon="11.642505"><ele>587.0</ele><time>2026-04-11T11:27:57.492Z</time></trkpt><trkpt lat="44.0755868" lon="11.6424315"><ele>584.6666666666667</ele><time>2026-04-11T11:27:58.492Z</time></trkpt><trkpt lat="44.0756452" lon="11.64236"><ele>582.3333333333334</ele><time>2026-04-11T11:27:59.493Z</time></trkpt><trkpt lat="44.0757062" lon="11.6423005"><ele>580.0</ele><time>2026-04-11T11:28:00.493Z</time></trkpt><trkpt lat="44.0757698" lon="11.6422537"><ele>580.5714285714286</ele><time>2026-04-11T11:28:01.492Z</time></trkpt><trkpt lat="44.0758347" lon="11.6421932"><ele>581.1428571428572</ele><time>2026-04-11T11:28:02.492Z</time></trkpt><trkpt lat="44.0759002" lon="11.6421342"><ele>581.7142857142858</ele><time>2026-04-11T11:28:03.495Z</time></trkpt><trkpt lat="44.0759647" lon="11.642103"><ele>582.2857142857143</ele><time>2026-04-11T11:28:04.491Z</time></trkpt><trkpt lat="44.0760317" lon="11.6420802"><ele>582.8571428571429</ele><time>2026-04-11T11:28:05.493Z</time></trkpt><trkpt lat="44.0760938" lon="11.642048"><ele>583.4285714285714</ele><time>2026-04-11T11:28:06.494Z</time></trkpt><trkpt lat="44.0761547" lon="11.6420088"><ele>584.0</ele><time>2026-04-11T11:28:07.491Z</time></trkpt><trkpt lat="44.0762565" lon="11.6419103"><ele>584.0</ele><time>2026-04-11T11:28:09.492Z</time></trkpt><trkpt lat="44.0763152" lon="11.6418537"><ele>584.0</ele><time>2026-04-11T11:28:10.492Z</time></trkpt><trkpt lat="44.0763795" lon="11.6418077"><ele>584.0</ele><time>2026-04-11T11:28:11.491Z</time></trkpt><trkpt lat="44.0764477" lon="11.6417583"><ele>584.0</ele><time>2026-04-11T11:28:12.492Z</time></trkpt><trkpt lat="44.076517" lon="11.6417042"><ele>584.0</ele><time>2026-04-11T11:28:13.492Z</time></trkpt><trkpt lat="44.0765872" lon="11.6416553"><ele>584.0</ele><time>2026-04-11T11:28:14.491Z</time></trkpt><trkpt lat="44.0766537" lon="11.6416247"><ele>584.0</ele><time>2026-04-11T11:28:15.495Z</time></trkpt><trkpt lat="44.0767258" lon="11.6416162"><ele>587.6666666666666</ele><time>2026-04-11T11:28:16.493Z</time></trkpt><trkpt lat="44.0768032" lon="11.6416293"><ele>591.3333333333333</ele><time>2026-04-11T11:28:17.491Z</time></trkpt><trkpt lat="44.0768812" lon="11.6416623"><ele>595.0</ele><time>2026-04-11T11:28:18.492Z</time></trkpt><trkpt lat="44.076957" lon="11.6416938"><ele>598.6666666666666</ele><time>2026-04-11T11:28:19.49Z</time></trkpt><trkpt lat="44.0770303" lon="11.6417005"><ele>602.3333333333334</ele><time>2026-04-11T11:28:20.492Z</time></trkpt><trkpt lat="44.0771015" lon="11.6416815"><ele>606.0</ele><time>2026-04-11T11:28:21.491Z</time></trkpt><trkpt lat="44.0771692" lon="11.6416382"><ele>606.0</ele><time>2026-04-11T11:28:22.491Z</time></trkpt><trkpt lat="44.0772342" lon="11.6415692"><ele>606.0</ele><time>2026-04-11T11:28:23.492Z</time></trkpt><trkpt lat="44.0772975" lon="11.6414853"><ele>606.0</ele><time>2026-04-11T11:28:24.492Z</time></trkpt><trkpt lat="44.0773595" lon="11.6413958"><ele>606.0</ele><time>2026-04-11T11:28:25.491Z</time></trkpt><trkpt lat="44.0774233" lon="11.641302"><ele>606.0</ele><time>2026-04-11T11:28:26.491Z</time></trkpt><trkpt lat="44.0774817" lon="11.641213"><ele>606.0</ele><time>2026-04-11T11:28:27.492Z</time></trkpt><trkpt lat="44.0775323" lon="11.6411278"><ele>607.4285714285714</ele><time>2026-04-11T11:28:28.492Z</time></trkpt><trkpt lat="44.0775687" lon="11.6410462"><ele>608.8571428571429</ele><time>2026-04-11T11:28:29.492Z</time></trkpt><trkpt lat="44.0775985" lon="11.6409622"><ele>610.2857142857142</ele><time>2026-04-11T11:28:30.493Z</time></trkpt><trkpt lat="44.0776283" lon="11.6408715"><ele>611.7142857142858</ele><time>2026-04-11T11:28:31.492Z</time></trkpt><trkpt lat="44.0776605" lon="11.6407795"><ele>613.1428571428571</ele><time>2026-04-11T11:28:32.491Z</time></trkpt><trkpt lat="44.0777012" lon="11.640686"><ele>614.5714285714286</ele><time>2026-04-11T11:28:33.491Z</time></trkpt><trkpt lat="44.0777318" lon="11.6405873"><ele>616.0</ele><time>2026-04-11T11:28:34.491Z</time></trkpt><trkpt lat="44.07776" lon="11.6404803"><ele>616.0</ele><time>2026-04-11T11:28:35.492Z</time></trkpt><trkpt lat="44.0777838" lon="11.6403688"><ele>616.0</ele><time>2026-04-11T11:28:36.491Z</time></trkpt><trkpt lat="44.0778218" lon="11.6402597"><ele>616.0</ele><time>2026-04-11T11:28:37.491Z</time></trkpt><trkpt lat="44.0778737" lon="11.640168"><ele>616.0</ele><time>2026-04-11T11:28:38.494Z</time></trkpt><trkpt lat="44.0779372" lon="11.6400828"><ele>616.0</ele><time>2026-04-11T11:28:39.493Z</time></trkpt><trkpt lat="44.0780108" lon="11.6399972"><ele>616.0</ele><time>2026-04-11T11:28:40.493Z</time></trkpt><trkpt lat="44.0780865" lon="11.6399243"><ele>614.1666666666667</ele><time>2026-04-11T11:28:41.491Z</time></trkpt><trkpt lat="44.0781668" lon="11.6398567"><ele>612.3333333333334</ele><time>2026-04-11T11:28:42.49Z</time></trkpt><trkpt lat="44.0782428" lon="11.6397982"><ele>610.5</ele><time>2026-04-11T11:28:43.49Z</time></trkpt><trkpt lat="44.0783152" lon="11.639744"><ele>608.6666666666666</ele><time>2026-04-11T11:28:44.489Z</time></trkpt><trkpt lat="44.0783843" lon="11.6396872"><ele>606.8333333333333</ele><time>2026-04-11T11:28:45.491Z</time></trkpt><trkpt lat="44.0784517" lon="11.639622"><ele>605.0</ele><time>2026-04-11T11:28:46.492Z</time></trkpt><trkpt lat="44.0785243" lon="11.6395502"><ele>603.0</ele><time>2026-04-11T11:28:47.492Z</time></trkpt><trkpt lat="44.078604" lon="11.639489"><ele>601.0</ele><time>2026-04-11T11:28:48.494Z</time></trkpt><trkpt lat="44.0786865" lon="11.6394488"><ele>599.0</ele><time>2026-04-11T11:28:49.49Z</time></trkpt><trkpt lat="44.0787597" lon="11.6394222"><ele>597.0</ele><time>2026-04-11T11:28:50.49Z</time></trkpt><trkpt lat="44.0788273" lon="11.639398"><ele>595.0</ele><time>2026-04-11T11:28:51.491Z</time></trkpt><trkpt lat="44.0788972" lon="11.6393738"><ele>593.0</ele><time>2026-04-11T11:28:52.491Z</time></trkpt><trkpt lat="44.0789738" lon="11.6393755"><ele>592.0</ele><time>2026-04-11T11:28:53.492Z</time></trkpt><trkpt lat="44.0790623" lon="11.639379"><ele>591.0</ele><time>2026-04-11T11:28:54.491Z</time></trkpt><trkpt lat="44.0791463" lon="11.6393797"><ele>590.0</ele><time>2026-04-11T11:28:55.491Z</time></trkpt><trkpt lat="44.0792255" lon="11.6393743"><ele>589.0</ele><time>2026-04-11T11:28:56.492Z</time></trkpt><trkpt lat="44.0792998" lon="11.6393688"><ele>588.0</ele><time>2026-04-11T11:28:57.491Z</time></trkpt><trkpt lat="44.079408" lon="11.639389"><ele>587.0</ele><time>2026-04-11T11:28:59.491Z</time></trkpt><trkpt lat="44.079477" lon="11.6394105"><ele>587.0</ele><time>2026-04-11T11:29:01.49Z</time></trkpt><trkpt lat="44.0795502" lon="11.6394307"><ele>587.0</ele><time>2026-04-11T11:29:03.49Z</time></trkpt><trkpt lat="44.0796177" lon="11.639446"><ele>587.0</ele><time>2026-04-11T11:29:10.488Z</time></trkpt><trkpt lat="44.079727" lon="11.6394853"><ele>587.0</ele><time>2026-04-11T11:29:12.489Z</time></trkpt><trkpt lat="44.0797985" lon="11.6395025"><ele>587.0</ele><time>2026-04-11T11:29:13.487Z</time></trkpt><trkpt lat="44.0798728" lon="11.6395242"><ele>587.0</ele><time>2026-04-11T11:29:14.49Z</time></trkpt><trkpt lat="44.0799597" lon="11.6395367"><ele>585.1666666666666</ele><time>2026-04-11T11:29:15.488Z</time></trkpt><trkpt lat="44.0800487" lon="11.6395558"><ele>583.3333333333333</ele><time>2026-04-11T11:29:16.49Z</time></trkpt><trkpt lat="44.0801325" lon="11.6395708"><ele>581.5</ele><time>2026-04-11T11:29:17.489Z</time></trkpt><trkpt lat="44.0802175" lon="11.6395745"><ele>579.6666666666666</ele><time>2026-04-11T11:29:18.49Z</time></trkpt><trkpt lat="44.080305" lon="11.6396015"><ele>577.8333333333334</ele><time>2026-04-11T11:29:19.49Z</time></trkpt><trkpt lat="44.080382" lon="11.6396453"><ele>576.0</ele><time>2026-04-11T11:29:20.489Z</time></trkpt><trkpt lat="44.080446" lon="11.639697"><ele>576.0</ele><time>2026-04-11T11:29:21.489Z</time></trkpt><trkpt lat="44.0805088" lon="11.63975"><ele>576.0</ele><time>2026-04-11T11:29:22.491Z</time></trkpt><trkpt lat="44.0805878" lon="11.639816"><ele>576.0</ele><time>2026-04-11T11:29:23.49Z</time></trkpt><trkpt lat="44.0806623" lon="11.6399067"><ele>576.0</ele><time>2026-04-11T11:29:24.489Z</time></trkpt><trkpt lat="44.0807263" lon="11.640003"><ele>576.0</ele><time>2026-04-11T11:29:25.49Z</time></trkpt><trkpt lat="44.0807757" lon="11.6401068"><ele>576.0</ele><time>2026-04-11T11:29:26.49Z</time></trkpt><trkpt lat="44.0808143" lon="11.6402115"><ele>575.6</ele><time>2026-04-11T11:29:27.49Z</time></trkpt><trkpt lat="44.0808633" lon="11.6403158"><ele>575.2</ele><time>2026-04-11T11:29:28.489Z</time></trkpt><trkpt lat="44.0809113" lon="11.6403992"><ele>574.8</ele><time>2026-04-11T11:29:29.49Z</time></trkpt><trkpt lat="44.0809873" lon="11.640384"><ele>574.4</ele><time>2026-04-11T11:29:32.489Z</time></trkpt><trkpt lat="44.0810517" lon="11.6402438"><ele>574.0</ele><time>2026-04-11T11:29:34.488Z</time></trkpt><trkpt lat="44.081144" lon="11.64027"><ele>574.0</ele><time>2026-04-11T11:29:36.492Z</time></trkpt><trkpt lat="44.0811703" lon="11.6404385"><ele>574.0</ele><time>2026-04-11T11:29:38.49Z</time></trkpt><trkpt lat="44.0811725" lon="11.6405478"><ele>574.0</ele><time>2026-04-11T11:29:39.489Z</time></trkpt><trkpt lat="44.081177" lon="11.6406675"><ele>574.0</ele><time>2026-04-11T11:29:40.489Z</time></trkpt><trkpt lat="44.0811843" lon="11.6407967"><ele>574.0</ele><time>2026-04-11T11:29:41.489Z</time></trkpt><trkpt lat="44.0811908" lon="11.6409277"><ele>574.0</ele><time>2026-04-11T11:29:42.488Z</time></trkpt><trkpt lat="44.0811955" lon="11.6410593"><ele>574.0</ele><time>2026-04-11T11:29:43.489Z</time></trkpt><trkpt lat="44.0811947" lon="11.6411888"><ele>574.0</ele><time>2026-04-11T11:29:44.491Z</time></trkpt><trkpt lat="44.0811883" lon="11.6412897"><ele>574.0</ele><time>2026-04-11T11:29:45.489Z</time></trkpt><trkpt lat="44.0811925" lon="11.6414083"><ele>574.0</ele><time>2026-04-11T11:29:47.49Z</time></trkpt><trkpt lat="44.0812473" lon="11.6413218"><ele>574.0</ele><time>2026-04-11T11:29:50.49Z</time></trkpt><trkpt lat="44.0813183" lon="11.6411698"><ele>574.0</ele><time>2026-04-11T11:29:52.492Z</time></trkpt><trkpt lat="44.0813483" lon="11.6410803"><ele>574.0</ele><time>2026-04-11T11:29:53.49Z</time></trkpt><trkpt lat="44.0813775" lon="11.640985"><ele>574.0</ele><time>2026-04-11T11:29:54.49Z</time></trkpt><trkpt lat="44.0814138" lon="11.6409052"><ele>574.0</ele><time>2026-04-11T11:29:55.489Z</time></trkpt><trkpt lat="44.0814572" lon="11.6408295"><ele>574.0</ele><time>2026-04-11T11:29:56.489Z</time></trkpt><trkpt lat="44.0815032" lon="11.6407518"><ele>574.0</ele><time>2026-04-11T11:29:57.489Z</time></trkpt><trkpt lat="44.081554" lon="11.6406818"><ele>574.0</ele><time>2026-04-11T11:29:58.487Z</time></trkpt><trkpt lat="44.0816502" lon="11.64059"><ele>570.3333333333334</ele><time>2026-04-11T11:30:00.489Z</time></trkpt><trkpt lat="44.0817675" lon="11.640551"><ele>566.6666666666667</ele><time>2026-04-11T11:30:02.49Z</time></trkpt><trkpt lat="44.0818327" lon="11.6405403"><ele>563.0</ele><time>2026-04-11T11:30:03.489Z</time></trkpt><trkpt lat="44.0819075" lon="11.640523"><ele>559.3333333333334</ele><time>2026-04-11T11:30:04.49Z</time></trkpt><trkpt lat="44.0819892" lon="11.6405002"><ele>555.6666666666666</ele><time>2026-04-11T11:30:05.491Z</time></trkpt><trkpt lat="44.082073" lon="11.6404882"><ele>552.0</ele><time>2026-04-11T11:30:06.491Z</time></trkpt><trkpt lat="44.0821478" lon="11.6404902"><ele>552.0</ele><time>2026-04-11T11:30:07.492Z</time></trkpt><trkpt lat="44.0822228" lon="11.6405032"><ele>552.0</ele><time>2026-04-11T11:30:08.491Z</time></trkpt><trkpt lat="44.0823008" lon="11.6405232"><ele>552.0</ele><time>2026-04-11T11:30:09.491Z</time></trkpt><trkpt lat="44.0823758" lon="11.6405487"><ele>552.0</ele><time>2026-04-11T11:30:10.491Z</time></trkpt><trkpt lat="44.0824557" lon="11.6405748"><ele>552.0</ele><time>2026-04-11T11:30:11.493Z</time></trkpt><trkpt lat="44.0825192" lon="11.640618"><ele>552.0</ele><time>2026-04-11T11:30:12.494Z</time></trkpt><trkpt lat="44.0825848" lon="11.6407617"><ele>546.5</ele><time>2026-04-11T11:30:14.492Z</time></trkpt><trkpt lat="44.0826103" lon="11.6408587"><ele>541.0</ele><time>2026-04-11T11:30:15.492Z</time></trkpt><trkpt lat="44.0826402" lon="11.6409638"><ele>535.5</ele><time>2026-04-11T11:30:16.491Z</time></trkpt><trkpt lat="44.0826755" lon="11.6410753"><ele>530.0</ele><time>2026-04-11T11:30:17.492Z</time></trkpt><trkpt lat="44.082717" lon="11.641183"><ele>524.5</ele><time>2026-04-11T11:30:18.491Z</time></trkpt><trkpt lat="44.0827637" lon="11.6412902"><ele>519.0</ele><time>2026-04-11T11:30:19.49Z</time></trkpt><trkpt lat="44.0828052" lon="11.6414055"><ele>517.4</ele><time>2026-04-11T11:30:20.49Z</time></trkpt><trkpt lat="44.0828425" lon="11.641521"><ele>515.8</ele><time>2026-04-11T11:30:21.488Z</time></trkpt><trkpt lat="44.0828817" lon="11.6416412"><ele>514.2</ele><time>2026-04-11T11:30:22.488Z</time></trkpt><trkpt lat="44.0829188" lon="11.6417615"><ele>512.6</ele><time>2026-04-11T11:30:23.489Z</time></trkpt><trkpt lat="44.082959" lon="11.6418808"><ele>511.0</ele><time>2026-04-11T11:30:24.49Z</time></trkpt><trkpt lat="44.082993" lon="11.642"><ele>509.20000000000005</ele><time>2026-04-11T11:30:25.489Z</time></trkpt><trkpt lat="44.0830265" lon="11.6421233"><ele>507.40000000000003</ele><time>2026-04-11T11:30:26.491Z</time></trkpt><trkpt lat="44.0830582" lon="11.6422502"><ele>505.6</ele><time>2026-04-11T11:30:27.49Z</time></trkpt><trkpt lat="44.083096" lon="11.6423687"><ele>503.8</ele><time>2026-04-11T11:30:28.49Z</time></trkpt><trkpt lat="44.0831267" lon="11.6424737"><ele>502.0</ele><time>2026-04-11T11:30:29.49Z</time></trkpt><trkpt lat="44.083148" lon="11.6426102"><ele>502.0</ele><time>2026-04-11T11:30:31.489Z</time></trkpt><trkpt lat="44.0831077" lon="11.6427057"><ele>502.00000000000006</ele><time>2026-04-11T11:30:33.489Z</time></trkpt><trkpt lat="44.083106" lon="11.642833"><ele>502.00000000000006</ele><time>2026-04-11T11:30:36.489Z</time></trkpt><trkpt lat="44.083165" lon="11.6429317"><ele>502.0</ele><time>2026-04-11T11:30:38.492Z</time></trkpt><trkpt lat="44.0832478" lon="11.6430155"><ele>502.0</ele><time>2026-04-11T11:30:40.491Z</time></trkpt><trkpt lat="44.0833295" lon="11.6430843"><ele>499.8571428571428</ele><time>2026-04-11T11:30:42.49Z</time></trkpt><trkpt lat="44.0833575" lon="11.643174"><ele>497.71428571428567</ele><time>2026-04-11T11:30:44.488Z</time></trkpt><trkpt lat="44.083414" lon="11.643273"><ele>495.57142857142856</ele><time>2026-04-11T11:30:46.488Z</time></trkpt><trkpt lat="44.0834583" lon="11.643345"><ele>493.4285714285714</ele><time>2026-04-11T11:30:47.489Z</time></trkpt><trkpt lat="44.083499" lon="11.6434242"><ele>491.2857142857142</ele><time>2026-04-11T11:30:48.491Z</time></trkpt><trkpt lat="44.0835418" lon="11.643494"><ele>489.14285714285717</ele><time>2026-04-11T11:30:49.489Z</time></trkpt><trkpt lat="44.083589" lon="11.6435728"><ele>487.0</ele><time>2026-04-11T11:30:50.49Z</time></trkpt><trkpt lat="44.0836387" lon="11.6436573"><ele>484.33333333333337</ele><time>2026-04-11T11:30:51.489Z</time></trkpt><trkpt lat="44.0836853" lon="11.6437457"><ele>481.6666666666667</ele><time>2026-04-11T11:30:52.49Z</time></trkpt><trkpt lat="44.0837412" lon="11.6438235"><ele>479.0</ele><time>2026-04-11T11:30:53.491Z</time></trkpt><trkpt lat="44.0838002" lon="11.6438963"><ele>476.33333333333337</ele><time>2026-04-11T11:30:54.492Z</time></trkpt><trkpt lat="44.0838613" lon="11.643956"><ele>473.6666666666667</ele><time>2026-04-11T11:30:55.491Z</time></trkpt><trkpt lat="44.0839207" lon="11.6440013"><ele>471.0</ele><time>2026-04-11T11:30:56.49Z</time></trkpt><trkpt lat="44.0840317" lon="11.6440007"><ele>471.4</ele><time>2026-04-11T11:30:58.491Z</time></trkpt><trkpt lat="44.0841512" lon="11.6440257"><ele>471.8</ele><time>2026-04-11T11:31:00.49Z</time></trkpt><trkpt lat="44.0842283" lon="11.6441257"><ele>472.19999999999993</ele><time>2026-04-11T11:31:02.489Z</time></trkpt><trkpt lat="44.0843033" lon="11.6441713"><ele>472.59999999999997</ele><time>2026-04-11T11:31:04.493Z</time></trkpt><trkpt lat="44.0843872" lon="11.6441423"><ele>473.0</ele><time>2026-04-11T11:31:06.489Z</time></trkpt><trkpt lat="44.0844962" lon="11.6440635"><ele>472.99999999999994</ele><time>2026-04-11T11:31:08.49Z</time></trkpt><trkpt lat="44.0845507" lon="11.6440098"><ele>473.0</ele><time>2026-04-11T11:31:09.488Z</time></trkpt><trkpt lat="44.0846142" lon="11.6439475"><ele>473.0</ele><time>2026-04-11T11:31:10.488Z</time></trkpt><trkpt lat="44.0846742" lon="11.6438978"><ele>473.0</ele><time>2026-04-11T11:31:11.49Z</time></trkpt><trkpt lat="44.0847977" lon="11.6438648"><ele>472.99999999999994</ele><time>2026-04-11T11:31:13.489Z</time></trkpt><trkpt lat="44.0848678" lon="11.6438433"><ele>473.0</ele><time>2026-04-11T11:31:14.491Z</time></trkpt><trkpt lat="44.0849362" lon="11.6438153"><ele>470.8571428571429</ele><time>2026-04-11T11:31:15.489Z</time></trkpt><trkpt lat="44.0850003" lon="11.64381"><ele>468.71428571428567</ele><time>2026-04-11T11:31:16.488Z</time></trkpt><trkpt lat="44.0850628" lon="11.6438302"><ele>466.57142857142856</ele><time>2026-04-11T11:31:17.489Z</time></trkpt><trkpt lat="44.0851358" lon="11.6438572"><ele>464.42857142857144</ele><time>2026-04-11T11:31:18.49Z</time></trkpt><trkpt lat="44.0852072" lon="11.6438773"><ele>462.28571428571433</ele><time>2026-04-11T11:31:19.489Z</time></trkpt><trkpt lat="44.085274" lon="11.6439165"><ele>460.1428571428571</ele><time>2026-04-11T11:31:20.489Z</time></trkpt><trkpt lat="44.085328" lon="11.6439707"><ele>458.0</ele><time>2026-04-11T11:31:21.491Z</time></trkpt><trkpt lat="44.08542" lon="11.6440605"><ele>457.99999999999994</ele><time>2026-04-11T11:31:23.49Z</time></trkpt><trkpt lat="44.0855123" lon="11.6440708"><ele>458.0</ele><time>2026-04-11T11:31:25.491Z</time></trkpt><trkpt lat="44.0856122" lon="11.6439852"><ele>458.0</ele><time>2026-04-11T11:31:27.491Z</time></trkpt><trkpt lat="44.0856627" lon="11.6439133"><ele>458.0</ele><time>2026-04-11T11:31:28.494Z</time></trkpt><trkpt lat="44.085714" lon="11.64384"><ele>457.99999999999994</ele><time>2026-04-11T11:31:29.491Z</time></trkpt><trkpt lat="44.0857683" lon="11.643782"><ele>458.0</ele><time>2026-04-11T11:31:30.491Z</time></trkpt><trkpt lat="44.0858265" lon="11.6437393"><ele>455.79999999999995</ele><time>2026-04-11T11:31:31.49Z</time></trkpt><trkpt lat="44.0858847" lon="11.6436987"><ele>453.59999999999997</ele><time>2026-04-11T11:31:32.49Z</time></trkpt><trkpt lat="44.0859857" lon="11.6436663"><ele>451.40000000000003</ele><time>2026-04-11T11:31:34.488Z</time></trkpt><trkpt lat="44.0861012" lon="11.6436707"><ele>449.20000000000005</ele><time>2026-04-11T11:31:36.489Z</time></trkpt><trkpt lat="44.086217" lon="11.6436928"><ele>447.0</ele><time>2026-04-11T11:31:38.492Z</time></trkpt><trkpt lat="44.0863297" lon="11.6437483"><ele>447.0</ele><time>2026-04-11T11:31:40.49Z</time></trkpt><trkpt lat="44.0864438" lon="11.6437772"><ele>447.00000000000006</ele><time>2026-04-11T11:31:42.494Z</time></trkpt><trkpt lat="44.086553" lon="11.6437213"><ele>447.00000000000006</ele><time>2026-04-11T11:31:44.491Z</time></trkpt><trkpt lat="44.0866592" lon="11.6436325"><ele>447.0</ele><time>2026-04-11T11:31:46.491Z</time></trkpt><trkpt lat="44.086714" lon="11.6435877"><ele>447.0</ele><time>2026-04-11T11:31:47.492Z</time></trkpt><trkpt lat="44.0867733" lon="11.6435525"><ele>445.4285714285714</ele><time>2026-04-11T11:31:48.491Z</time></trkpt><trkpt lat="44.086839" lon="11.6435318"><ele>443.85714285714283</ele><time>2026-04-11T11:31:49.491Z</time></trkpt><trkpt lat="44.0869097" lon="11.6435265"><ele>442.2857142857143</ele><time>2026-04-11T11:31:50.491Z</time></trkpt><trkpt lat="44.0869782" lon="11.6435243"><ele>440.71428571428567</ele><time>2026-04-11T11:31:51.491Z</time></trkpt><trkpt lat="44.087054" lon="11.6435337"><ele>439.14285714285717</ele><time>2026-04-11T11:31:52.492Z</time></trkpt><trkpt lat="44.0871298" lon="11.6435497"><ele>437.57142857142856</ele><time>2026-04-11T11:31:53.491Z</time></trkpt><trkpt lat="44.0872028" lon="11.6435525"><ele>436.0</ele><time>2026-04-11T11:31:54.491Z</time></trkpt><trkpt lat="44.0872765" lon="11.6435443"><ele>436.00000000000006</ele><time>2026-04-11T11:31:55.495Z</time></trkpt><trkpt lat="44.0873493" lon="11.6435335"><ele>436.0</ele><time>2026-04-11T11:31:56.491Z</time></trkpt><trkpt lat="44.0874265" lon="11.6435237"><ele>436.0</ele><time>2026-04-11T11:31:57.491Z</time></trkpt><trkpt lat="44.0875087" lon="11.643514"><ele>436.0</ele><time>2026-04-11T11:31:58.49Z</time></trkpt><trkpt lat="44.087588" lon="11.6435065"><ele>436.00000000000006</ele><time>2026-04-11T11:31:59.491Z</time></trkpt><trkpt lat="44.0876637" lon="11.6434837"><ele>436.0</ele><time>2026-04-11T11:32:00.49Z</time></trkpt><trkpt lat="44.087732" lon="11.6434383"><ele>433.83333333333337</ele><time>2026-04-11T11:32:01.49Z</time></trkpt><trkpt lat="44.087793" lon="11.6433882"><ele>431.6666666666667</ele><time>2026-04-11T11:32:02.492Z</time></trkpt><trkpt lat="44.0878875" lon="11.6433275"><ele>429.5</ele><time>2026-04-11T11:32:04.491Z</time></trkpt><trkpt lat="44.0879428" lon="11.643277"><ele>427.33333333333337</ele><time>2026-04-11T11:32:07.492Z</time></trkpt><trkpt lat="44.0879972" lon="11.6432005"><ele>425.1666666666667</ele><time>2026-04-11T11:32:13.492Z</time></trkpt><trkpt lat="44.088082" lon="11.6431893"><ele>423.0</ele><time>2026-04-11T11:32:17.491Z</time></trkpt><trkpt lat="44.0881583" lon="11.643216"><ele>423.0</ele><time>2026-04-11T11:32:20.491Z</time></trkpt><trkpt lat="44.0882457" lon="11.6432433"><ele>423.0</ele><time>2026-04-11T11:32:22.489Z</time></trkpt><trkpt lat="44.0883132" lon="11.6432565"><ele>423.0</ele><time>2026-04-11T11:32:26.49Z</time></trkpt><trkpt lat="44.08839" lon="11.6432745"><ele>423.0</ele><time>2026-04-11T11:32:29.493Z</time></trkpt><trkpt lat="44.0884693" lon="11.643285"><ele>423.0</ele><time>2026-04-11T11:32:31.492Z</time></trkpt><trkpt lat="44.0885443" lon="11.6432918"><ele>423.0</ele><time>2026-04-11T11:32:33.492Z</time></trkpt><trkpt lat="44.0886078" lon="11.6432935"><ele>423.1428571428571</ele><time>2026-04-11T11:32:35.492Z</time></trkpt><trkpt lat="44.0886725" lon="11.6432763"><ele>423.28571428571433</ele><time>2026-04-11T11:32:37.491Z</time></trkpt><trkpt lat="44.0887393" lon="11.6432455"><ele>423.42857142857144</ele><time>2026-04-11T11:32:39.49Z</time></trkpt><trkpt lat="44.0888025" lon="11.6432088"><ele>423.57142857142856</ele><time>2026-04-11T11:32:41.493Z</time></trkpt><trkpt lat="44.0888697" lon="11.6431672"><ele>423.71428571428567</ele><time>2026-04-11T11:32:43.491Z</time></trkpt><trkpt lat="44.0889265" lon="11.643129"><ele>423.8571428571429</ele><time>2026-04-11T11:32:45.492Z</time></trkpt><trkpt lat="44.0889855" lon="11.6430937"><ele>424.0</ele><time>2026-04-11T11:32:47.49Z</time></trkpt><trkpt lat="44.0890558" lon="11.6430702"><ele>421.33333333333337</ele><time>2026-04-11T11:32:49.49Z</time></trkpt><trkpt lat="44.0891195" lon="11.6431173"><ele>418.6666666666667</ele><time>2026-04-11T11:32:51.491Z</time></trkpt><trkpt lat="44.0891882" lon="11.6431712"><ele>416.0</ele><time>2026-04-11T11:32:54.491Z</time></trkpt><trkpt lat="44.0892625" lon="11.6431525"><ele>413.33333333333337</ele><time>2026-04-11T11:32:56.492Z</time></trkpt><trkpt lat="44.0893428" lon="11.6431178"><ele>410.6666666666667</ele><time>2026-04-11T11:32:58.49Z</time></trkpt><trkpt lat="44.0894373" lon="11.6430868"><ele>408.0</ele><time>2026-04-11T11:33:00.493Z</time></trkpt><trkpt lat="44.0895477" lon="11.6430577"><ele>408.0</ele><time>2026-04-11T11:33:02.493Z</time></trkpt><trkpt lat="44.0896235" lon="11.6430425"><ele>408.0</ele><time>2026-04-11T11:33:04.492Z</time></trkpt><trkpt lat="44.0896862" lon="11.6430912"><ele>408.0</ele><time>2026-04-11T11:33:06.491Z</time></trkpt><trkpt lat="44.0897488" lon="11.6431175"><ele>408.0</ele><time>2026-04-11T11:33:08.491Z</time></trkpt><trkpt lat="44.0898117" lon="11.6430973"><ele>408.0</ele><time>2026-04-11T11:33:10.491Z</time></trkpt><trkpt lat="44.0899005" lon="11.6430475"><ele>408.0</ele><time>2026-04-11T11:33:13.491Z</time></trkpt><trkpt lat="44.0899663" lon="11.6430645"><ele>408.0</ele><time>2026-04-11T11:33:15.492Z</time></trkpt><trkpt lat="44.0900327" lon="11.6430575"><ele>402.6666666666667</ele><time>2026-04-11T11:33:17.492Z</time></trkpt><trkpt lat="44.090074" lon="11.6429798"><ele>397.3333333333333</ele><time>2026-04-11T11:33:19.492Z</time></trkpt><trkpt lat="44.0900792" lon="11.6428923"><ele>392.0</ele><time>2026-04-11T11:33:21.491Z</time></trkpt><trkpt lat="44.0900538" lon="11.6427608"><ele>386.66666666666663</ele><time>2026-04-11T11:33:24.491Z</time></trkpt><trkpt lat="44.090025" lon="11.6426597"><ele>381.3333333333333</ele><time>2026-04-11T11:33:26.492Z</time></trkpt><trkpt lat="44.0899915" lon="11.6425507"><ele>376.0</ele><time>2026-04-11T11:33:29.491Z</time></trkpt><trkpt lat="44.0899998" lon="11.6424425"><ele>376.0</ele><time>2026-04-11T11:33:32.492Z</time></trkpt><trkpt lat="44.0900122" lon="11.6423453"><ele>376.0</ele><time>2026-04-11T11:33:47.491Z</time></trkpt><trkpt lat="44.090012" lon="11.6422505"><ele>376.0</ele><time>2026-04-11T11:33:50.492Z</time></trkpt><trkpt lat="44.0899878" lon="11.6421497"><ele>376.0</ele><time>2026-04-11T11:33:52.491Z</time></trkpt><trkpt lat="44.089952" lon="11.6420508"><ele>376.0</ele><time>2026-04-11T11:33:54.492Z</time></trkpt><trkpt lat="44.0898765" lon="11.64199"><ele>376.0</ele><time>2026-04-11T11:33:56.492Z</time></trkpt><trkpt lat="44.0897607" lon="11.6419495"><ele>373.5</ele><time>2026-04-11T11:33:58.491Z</time></trkpt><trkpt lat="44.089698" lon="11.641909"><ele>371.0</ele><time>2026-04-11T11:33:59.492Z</time></trkpt><trkpt lat="44.0896363" lon="11.6418603"><ele>368.5</ele><time>2026-04-11T11:34:00.489Z</time></trkpt><trkpt lat="44.0895362" lon="11.6417702"><ele>366.0</ele><time>2026-04-11T11:34:02.49Z</time></trkpt><trkpt lat="44.0894737" lon="11.6416787"><ele>363.5</ele><time>2026-04-11T11:34:04.49Z</time></trkpt><trkpt lat="44.089392" lon="11.641602"><ele>361.0</ele><time>2026-04-11T11:34:06.491Z</time></trkpt><trkpt lat="44.0893305" lon="11.6415562"><ele>361.0</ele><time>2026-04-11T11:34:08.494Z</time></trkpt><trkpt lat="44.0893745" lon="11.6414927"><ele>361.0</ele><time>2026-04-11T11:34:18.492Z</time></trkpt><trkpt lat="44.0893443" lon="11.641413"><ele>361.0</ele><time>2026-04-11T11:36:03.492Z</time></trkpt><trkpt lat="44.0892795" lon="11.6414258"><ele>361.0</ele><time>2026-04-11T11:36:14.494Z</time></trkpt><trkpt lat="44.0891942" lon="11.6414563"><ele>361.0</ele><time>2026-04-11T11:36:17.496Z</time></trkpt><trkpt lat="44.0891213" lon="11.6415003"><ele>361.0</ele><time>2026-04-11T11:36:19.492Z</time></trkpt><trkpt lat="44.0890425" lon="11.641543"><ele>361.0</ele><time>2026-04-11T11:36:21.495Z</time></trkpt><trkpt lat="44.088978" lon="11.6416123"><ele>361.0</ele><time>2026-04-11T11:36:23.493Z</time></trkpt><trkpt lat="44.0889352" lon="11.6416872"><ele>361.0</ele><time>2026-04-11T11:36:25.493Z</time></trkpt><trkpt lat="44.0889905" lon="11.6416047"><ele>361.0</ele><time>2026-04-11T11:39:18.492Z</time></trkpt><trkpt lat="44.0890707" lon="11.6415338"><ele>361.0</ele><time>2026-04-11T11:39:21.49Z</time></trkpt><trkpt lat="44.0891302" lon="11.6414958"><ele>361.0</ele><time>2026-04-11T11:39:23.494Z</time></trkpt><trkpt lat="44.089196" lon="11.6414658"><ele>361.0</ele><time>2026-04-11T11:39:25.492Z</time></trkpt><trkpt lat="44.0892725" lon="11.6414427"><ele>361.0</ele><time>2026-04-11T11:39:27.493Z</time></trkpt><trkpt lat="44.0893658" lon="11.6414508"><ele>361.0</ele><time>2026-04-11T11:39:29.494Z</time></trkpt><trkpt lat="44.0894607" lon="11.6414855"><ele>361.0</ele><time>2026-04-11T11:39:31.493Z</time></trkpt><trkpt lat="44.0895425" lon="11.6415287"><ele>361.0</ele><time>2026-04-11T11:39:33.493Z</time></trkpt><trkpt lat="44.0896128" lon="11.6415518"><ele>361.0</ele><time>2026-04-11T11:39:35.492Z</time></trkpt><trkpt lat="44.0896968" lon="11.6415427"><ele>361.0</ele><time>2026-04-11T11:39:37.493Z</time></trkpt><trkpt lat="44.0897865" lon="11.641527"><ele>361.0</ele><time>2026-04-11T11:39:39.493Z</time></trkpt><trkpt lat="44.0898755" lon="11.641529"><ele>361.0</ele><time>2026-04-11T11:39:41.496Z</time></trkpt><trkpt lat="44.0899698" lon="11.6415318"><ele>361.0</ele><time>2026-04-11T11:39:43.491Z</time></trkpt><trkpt lat="44.0900642" lon="11.6415553"><ele>361.0</ele><time>2026-04-11T11:39:45.491Z</time></trkpt><trkpt lat="44.0901738" lon="11.6415743"><ele>361.0</ele><time>2026-04-11T11:39:47.493Z</time></trkpt><trkpt lat="44.0902668" lon="11.6415918"><ele>358.5</ele><time>2026-04-11T11:39:49.493Z</time></trkpt><trkpt lat="44.0903277" lon="11.6416208"><ele>356.0</ele><time>2026-04-11T11:39:51.492Z</time></trkpt><trkpt lat="44.0903902" lon="11.6416403"><ele>353.5</ele><time>2026-04-11T11:39:53.493Z</time></trkpt><trkpt lat="44.090475" lon="11.6416442"><ele>351.0</ele><time>2026-04-11T11:39:55.492Z</time></trkpt><trkpt lat="44.0905773" lon="11.6416227"><ele>348.5</ele><time>2026-04-11T11:39:57.493Z</time></trkpt><trkpt lat="44.0906602" lon="11.6416193"><ele>346.0</ele><time>2026-04-11T11:39:59.493Z</time></trkpt><trkpt lat="44.0907582" lon="11.6416237"><ele>341.6</ele><time>2026-04-11T11:40:01.493Z</time></trkpt><trkpt lat="44.0908925" lon="11.6416255"><ele>337.20000000000005</ele><time>2026-04-11T11:40:03.493Z</time></trkpt><trkpt lat="44.0909615" lon="11.6416223"><ele>332.79999999999995</ele><time>2026-04-11T11:40:04.492Z</time></trkpt><trkpt lat="44.0910298" lon="11.641617"><ele>328.4</ele><time>2026-04-11T11:40:05.492Z</time></trkpt><trkpt lat="44.0911483" lon="11.6416118"><ele>324.0</ele><time>2026-04-11T11:40:07.491Z</time></trkpt><trkpt lat="44.0912572" lon="11.6416223"><ele>324.0</ele><time>2026-04-11T11:40:09.492Z</time></trkpt><trkpt lat="44.0913637" lon="11.6416778"><ele>324.0</ele><time>2026-04-11T11:40:11.493Z</time></trkpt><trkpt lat="44.0914213" lon="11.6417208"><ele>324.0</ele><time>2026-04-11T11:40:12.493Z</time></trkpt><trkpt lat="44.0914963" lon="11.6417693"><ele>324.0</ele><time>2026-04-11T11:40:14.492Z</time></trkpt><trkpt lat="44.0915705" lon="11.6417208"><ele>324.0</ele><time>2026-04-11T11:40:17.492Z</time></trkpt><trkpt lat="44.0916479" lon="11.6416655"><ele>324.0</ele><time>2026-04-11T11:40:19.493Z</time></trkpt><trkpt lat="44.0917237" lon="11.641627"><ele>322.57142857142856</ele><time>2026-04-11T11:40:21.494Z</time></trkpt><trkpt lat="44.0917925" lon="11.6416589"><ele>321.1428571428571</ele><time>2026-04-11T11:40:23.495Z</time></trkpt><trkpt lat="44.0918492" lon="11.6417135"><ele>319.71428571428567</ele><time>2026-04-11T11:40:33.491Z</time></trkpt><trkpt lat="44.0919006" lon="11.6417761"><ele>318.2857142857143</ele><time>2026-04-11T11:40:37.492Z</time></trkpt><trkpt lat="44.0919493" lon="11.6418393"><ele>316.85714285714283</ele><time>2026-04-11T11:40:41.492Z</time></trkpt><trkpt lat="44.0920155" lon="11.6418958"><ele>315.4285714285714</ele><time>2026-04-11T11:40:46.49Z</time></trkpt><trkpt lat="44.09209" lon="11.6418847"><ele>314.0</ele><time>2026-04-11T11:40:49.492Z</time></trkpt><trkpt lat="44.0921358" lon="11.6419652"><ele>314.0</ele><time>2026-04-11T11:40:52.492Z</time></trkpt><trkpt lat="44.0921608" lon="11.6420585"><ele>314.0</ele><time>2026-04-11T11:40:54.491Z</time></trkpt><trkpt lat="44.0921783" lon="11.6421663"><ele>314.0</ele><time>2026-04-11T11:40:56.491Z</time></trkpt><trkpt lat="44.0921858" lon="11.6422788"><ele>314.0</ele><time>2026-04-11T11:40:58.491Z</time></trkpt><trkpt lat="44.0922477" lon="11.6423375"><ele>314.0</ele><time>2026-04-11T11:41:01.491Z</time></trkpt><trkpt lat="44.0923292" lon="11.6422705"><ele>314.0</ele><time>2026-04-11T11:41:04.491Z</time></trkpt><trkpt lat="44.0923843" lon="11.6422148"><ele>310.83333333333337</ele><time>2026-04-11T11:41:06.491Z</time></trkpt><trkpt lat="44.092445" lon="11.6421573"><ele>307.6666666666667</ele><time>2026-04-11T11:41:08.492Z</time></trkpt><trkpt lat="44.0925202" lon="11.6420775"><ele>304.5</ele><time>2026-04-11T11:41:10.493Z</time></trkpt><trkpt lat="44.092577" lon="11.6420242"><ele>301.3333333333333</ele><time>2026-04-11T11:41:11.492Z</time></trkpt><trkpt lat="44.0926358" lon="11.6419683"><ele>298.16666666666663</ele><time>2026-04-11T11:41:12.492Z</time></trkpt><trkpt lat="44.0926898" lon="11.6419187"><ele>295.0</ele><time>2026-04-11T11:41:13.492Z</time></trkpt><trkpt lat="44.0927785" lon="11.6418377"><ele>295.0</ele><time>2026-04-11T11:41:15.492Z</time></trkpt><trkpt lat="44.0928445" lon="11.6417993"><ele>295.0</ele><time>2026-04-11T11:41:18.492Z</time></trkpt><trkpt lat="44.0929307" lon="11.6418297"><ele>295.0</ele><time>2026-04-11T11:42:59.492Z</time></trkpt><trkpt lat="44.092986" lon="11.6419508"><ele>295.0</ele><time>2026-04-11T11:43:01.497Z</time></trkpt><trkpt lat="44.0930465" lon="11.6420885"><ele>295.0</ele><time>2026-04-11T11:43:03.495Z</time></trkpt><trkpt lat="44.0930795" lon="11.6421632"><ele>295.0</ele><time>2026-04-11T11:43:04.493Z</time></trkpt><trkpt lat="44.0931128" lon="11.6422418"><ele>295.0</ele><time>2026-04-11T11:43:05.523Z</time></trkpt><trkpt lat="44.0931467" lon="11.6423225"><ele>295.0</ele><time>2026-04-11T11:43:06.492Z</time></trkpt><trkpt lat="44.0931775" lon="11.6424033"><ele>295.0</ele><time>2026-04-11T11:43:07.493Z</time></trkpt><trkpt lat="44.0932077" lon="11.6424855"><ele>295.0</ele><time>2026-04-11T11:43:08.495Z</time></trkpt><trkpt lat="44.0932382" lon="11.6425648"><ele>295.0</ele><time>2026-04-11T11:43:09.495Z</time></trkpt><trkpt lat="44.0933232" lon="11.6426532"><ele>295.0</ele><time>2026-04-11T11:43:11.495Z</time></trkpt><trkpt lat="44.0934267" lon="11.6425757"><ele>294.16666666666663</ele><time>2026-04-11T11:43:13.494Z</time></trkpt><trkpt lat="44.0934713" lon="11.6424952"><ele>293.3333333333333</ele><time>2026-04-11T11:43:14.494Z</time></trkpt><trkpt lat="44.0935137" lon="11.6424043"><ele>292.5</ele><time>2026-04-11T11:43:15.494Z</time></trkpt><trkpt lat="44.0935597" lon="11.6423135"><ele>291.6666666666667</ele><time>2026-04-11T11:43:16.494Z</time></trkpt><trkpt lat="44.093608" lon="11.642213"><ele>290.83333333333337</ele><time>2026-04-11T11:43:17.494Z</time></trkpt><trkpt lat="44.0936528" lon="11.6421087"><ele>290.0</ele><time>2026-04-11T11:43:18.497Z</time></trkpt><trkpt lat="44.0936975" lon="11.6420062"><ele>289.5</ele><time>2026-04-11T11:43:19.495Z</time></trkpt><trkpt lat="44.0937407" lon="11.6419055"><ele>289.0</ele><time>2026-04-11T11:43:20.494Z</time></trkpt><trkpt lat="44.0937827" lon="11.6418058"><ele>288.5</ele><time>2026-04-11T11:43:21.494Z</time></trkpt><trkpt lat="44.0938303" lon="11.6417123"><ele>288.0</ele><time>2026-04-11T11:43:22.493Z</time></trkpt><trkpt lat="44.0938828" lon="11.6416203"><ele>287.5</ele><time>2026-04-11T11:43:23.492Z</time></trkpt><trkpt lat="44.0939407" lon="11.6415293"><ele>287.0</ele><time>2026-04-11T11:43:24.492Z</time></trkpt><trkpt lat="44.0940012" lon="11.641437"><ele>287.0</ele><time>2026-04-11T11:43:25.491Z</time></trkpt><trkpt lat="44.0940632" lon="11.6413438"><ele>287.0</ele><time>2026-04-11T11:43:26.492Z</time></trkpt><trkpt lat="44.0941255" lon="11.6412497"><ele>287.0</ele><time>2026-04-11T11:43:27.493Z</time></trkpt><trkpt lat="44.0941845" lon="11.6411562"><ele>287.0</ele><time>2026-04-11T11:43:28.498Z</time></trkpt><trkpt lat="44.094243" lon="11.6410635"><ele>287.0</ele><time>2026-04-11T11:43:29.497Z</time></trkpt><trkpt lat="44.0943037" lon="11.6409677"><ele>286.1666666666667</ele><time>2026-04-11T11:43:30.499Z</time></trkpt><trkpt lat="44.094366" lon="11.6408712"><ele>285.33333333333337</ele><time>2026-04-11T11:43:31.497Z</time></trkpt><trkpt lat="44.0944278" lon="11.6407822"><ele>284.5</ele><time>2026-04-11T11:43:32.495Z</time></trkpt><trkpt lat="44.0944885" lon="11.6406957"><ele>283.6666666666667</ele><time>2026-04-11T11:43:33.494Z</time></trkpt><trkpt lat="44.0945467" lon="11.6406105"><ele>282.8333333333333</ele><time>2026-04-11T11:43:34.494Z</time></trkpt><trkpt lat="44.0945992" lon="11.640527"><ele>282.0</ele><time>2026-04-11T11:43:35.497Z</time></trkpt><trkpt lat="44.094649" lon="11.6404507"><ele>282.0</ele><time>2026-04-11T11:43:36.494Z</time></trkpt><trkpt lat="44.0946958" lon="11.6403832"><ele>282.0</ele><time>2026-04-11T11:43:37.493Z</time></trkpt><trkpt lat="44.0947595" lon="11.6402848"><ele>280.0</ele><time>2026-04-11T11:43:39.494Z</time></trkpt><trkpt lat="44.094786" lon="11.6401815"><ele>280.0</ele><time>2026-04-11T11:43:46.493Z</time></trkpt><trkpt lat="44.0948222" lon="11.6400892"><ele>280.0</ele><time>2026-04-11T11:43:48.491Z</time></trkpt></trkseg><trkseg><trkpt lat="44.0947547" lon="11.640007"><ele>280.0</ele><time>2026-04-11T13:02:04.496Z</time></trkpt><trkpt lat="44.0947012" lon="11.6398598"><ele>280.0</ele><time>2026-04-11T13:02:06.496Z</time></trkpt><trkpt lat="44.0946712" lon="11.6397678"><ele>280.0</ele><time>2026-04-11T13:02:07.495Z</time></trkpt><trkpt lat="44.0945758" lon="11.6394597"><ele>280.0</ele><time>2026-04-11T13:02:10.495Z</time></trkpt><trkpt lat="44.0945385" lon="11.6393435"><ele>278.6</ele><time>2026-04-11T13:02:11.495Z</time></trkpt><trkpt lat="44.0945003" lon="11.6392227"><ele>277.2</ele><time>2026-04-11T13:02:12.492Z</time></trkpt><trkpt lat="44.0944623" lon="11.6391008"><ele>275.8</ele><time>2026-04-11T13:02:13.493Z</time></trkpt><trkpt lat="44.0944258" lon="11.6389797"><ele>274.4</ele><time>2026-04-11T13:02:14.495Z</time></trkpt><trkpt lat="44.0943888" lon="11.6388588"><ele>273.0</ele><time>2026-04-11T13:02:15.495Z</time></trkpt><trkpt lat="44.094351" lon="11.6387387"><ele>273.4</ele><time>2026-04-11T13:02:16.497Z</time></trkpt><trkpt lat="44.0943095" lon="11.6386218"><ele>273.8</ele><time>2026-04-11T13:02:17.496Z</time></trkpt><trkpt lat="44.0942585" lon="11.6385125"><ele>274.2</ele><time>2026-04-11T13:02:18.496Z</time></trkpt><trkpt lat="44.0941953" lon="11.6384155"><ele>274.6</ele><time>2026-04-11T13:02:19.494Z</time></trkpt><trkpt lat="44.0941205" lon="11.638334"><ele>275.0</ele><time>2026-04-11T13:02:20.496Z</time></trkpt><trkpt lat="44.0940353" lon="11.6382708"><ele>275.0</ele><time>2026-04-11T13:02:21.498Z</time></trkpt><trkpt lat="44.0939428" lon="11.638223"><ele>275.0</ele><time>2026-04-11T13:02:22.496Z</time></trkpt><trkpt lat="44.0938475" lon="11.6381802"><ele>275.0</ele><time>2026-04-11T13:02:23.498Z</time></trkpt><trkpt lat="44.093753" lon="11.63813"><ele>275.0</ele><time>2026-04-11T13:02:24.497Z</time></trkpt><trkpt lat="44.0936602" lon="11.6380737"><ele>275.0</ele><time>2026-04-11T13:02:25.495Z</time></trkpt><trkpt lat="44.0935672" lon="11.6380162"><ele>275.0</ele><time>2026-04-11T13:02:26.497Z</time></trkpt><trkpt lat="44.093472" lon="11.6379547"><ele>275.0</ele><time>2026-04-11T13:02:27.495Z</time></trkpt><trkpt lat="44.0933773" lon="11.6378835"><ele>275.0</ele><time>2026-04-11T13:02:28.496Z</time></trkpt><trkpt lat="44.0932823" lon="11.6378073"><ele>275.0</ele><time>2026-04-11T13:02:29.497Z</time></trkpt><trkpt lat="44.093186" lon="11.6377278"><ele>275.0</ele><time>2026-04-11T13:02:30.496Z</time></trkpt><trkpt lat="44.0930895" lon="11.637643"><ele>276.25</ele><time>2026-04-11T13:02:31.497Z</time></trkpt><trkpt lat="44.0929945" lon="11.6375515"><ele>277.5</ele><time>2026-04-11T13:02:32.497Z</time></trkpt><trkpt lat="44.0929023" lon="11.6374533"><ele>278.75</ele><time>2026-04-11T13:02:33.498Z</time></trkpt><trkpt lat="44.0928125" lon="11.6373502"><ele>280.0</ele><time>2026-04-11T13:02:34.5Z</time></trkpt><trkpt lat="44.0927235" lon="11.6372457"><ele>280.0</ele><time>2026-04-11T13:02:35.498Z</time></trkpt><trkpt lat="44.0926353" lon="11.6371408"><ele>280.0</ele><time>2026-04-11T13:02:36.497Z</time></trkpt><trkpt lat="44.092549" lon="11.6370333"><ele>280.0</ele><time>2026-04-11T13:02:37.495Z</time></trkpt><trkpt lat="44.0924637" lon="11.6369247"><ele>280.0</ele><time>2026-04-11T13:02:38.497Z</time></trkpt><trkpt lat="44.0923773" lon="11.6368158"><ele>282.5</ele><time>2026-04-11T13:02:39.494Z</time></trkpt><trkpt lat="44.0922898" lon="11.6367068"><ele>285.0</ele><time>2026-04-11T13:02:40.497Z</time></trkpt><trkpt lat="44.0920267" lon="11.6363812"><ele>285.0</ele><time>2026-04-11T13:02:43.498Z</time></trkpt><trkpt lat="44.0919405" lon="11.6362747"><ele>285.0</ele><time>2026-04-11T13:02:44.5Z</time></trkpt><trkpt lat="44.0918508" lon="11.6361747"><ele>285.0</ele><time>2026-04-11T13:02:45.497Z</time></trkpt><trkpt lat="44.0917562" lon="11.6360828"><ele>285.0</ele><time>2026-04-11T13:02:46.498Z</time></trkpt><trkpt lat="44.091657" lon="11.6359953"><ele>285.5</ele><time>2026-04-11T13:02:47.498Z</time></trkpt><trkpt lat="44.0915552" lon="11.6359102"><ele>286.0</ele><time>2026-04-11T13:02:48.498Z</time></trkpt><trkpt lat="44.0914515" lon="11.6358252"><ele>286.5</ele><time>2026-04-11T13:02:49.497Z</time></trkpt><trkpt lat="44.0913472" lon="11.6357395"><ele>287.0</ele><time>2026-04-11T13:02:50.497Z</time></trkpt><trkpt lat="44.0912413" lon="11.635654"><ele>287.0</ele><time>2026-04-11T13:02:51.497Z</time></trkpt><trkpt lat="44.0911345" lon="11.6355692"><ele>287.0</ele><time>2026-04-11T13:02:52.498Z</time></trkpt><trkpt lat="44.0910275" lon="11.6354845"><ele>287.0</ele><time>2026-04-11T13:02:53.499Z</time></trkpt><trkpt lat="44.0909205" lon="11.6353995"><ele>287.0</ele><time>2026-04-11T13:02:54.498Z</time></trkpt><trkpt lat="44.0908132" lon="11.6353145"><ele>287.0</ele><time>2026-04-11T13:02:55.497Z</time></trkpt><trkpt lat="44.0907055" lon="11.63523"><ele>287.0</ele><time>2026-04-11T13:02:56.498Z</time></trkpt><trkpt lat="44.0905978" lon="11.635146"><ele>287.0</ele><time>2026-04-11T13:02:57.498Z</time></trkpt><trkpt lat="44.0904915" lon="11.6350615"><ele>287.0</ele><time>2026-04-11T13:02:58.498Z</time></trkpt><trkpt lat="44.0903868" lon="11.6349773"><ele>287.0</ele><time>2026-04-11T13:02:59.499Z</time></trkpt><trkpt lat="44.0902835" lon="11.6348928"><ele>287.0</ele><time>2026-04-11T13:03:00.498Z</time></trkpt><trkpt lat="44.0901808" lon="11.6348087"><ele>287.0</ele><time>2026-04-11T13:03:01.494Z</time></trkpt><trkpt lat="44.0900783" lon="11.634726"><ele>287.0</ele><time>2026-04-11T13:03:02.499Z</time></trkpt><trkpt lat="44.0899748" lon="11.6346458"><ele>286.75</ele><time>2026-04-11T13:03:03.494Z</time></trkpt><trkpt lat="44.089876" lon="11.6345562"><ele>286.5</ele><time>2026-04-11T13:03:04.492Z</time></trkpt><trkpt lat="44.0897792" lon="11.6344622"><ele>286.25</ele><time>2026-04-11T13:03:05.496Z</time></trkpt><trkpt lat="44.0896838" lon="11.6343688"><ele>286.0</ele><time>2026-04-11T13:03:06.496Z</time></trkpt><trkpt lat="44.0895913" lon="11.6342692"><ele>286.75</ele><time>2026-04-11T13:03:07.496Z</time></trkpt><trkpt lat="44.0894995" lon="11.6341693"><ele>287.5</ele><time>2026-04-11T13:03:08.496Z</time></trkpt><trkpt lat="44.0894118" lon="11.634064"><ele>288.25</ele><time>2026-04-11T13:03:09.496Z</time></trkpt><trkpt lat="44.0893315" lon="11.6339483"><ele>289.0</ele><time>2026-04-11T13:03:10.494Z</time></trkpt><trkpt lat="44.0892592" lon="11.6338242"><ele>289.0</ele><time>2026-04-11T13:03:11.496Z</time></trkpt><trkpt lat="44.0891942" lon="11.6336905"><ele>289.0</ele><time>2026-04-11T13:03:12.496Z</time></trkpt><trkpt lat="44.0891345" lon="11.6335528"><ele>289.0</ele><time>2026-04-11T13:03:13.496Z</time></trkpt><trkpt lat="44.0889683" lon="11.6331357"><ele>289.0</ele><time>2026-04-11T13:03:16.498Z</time></trkpt><trkpt lat="44.088917" lon="11.6329963"><ele>289.0</ele><time>2026-04-11T13:03:17.496Z</time></trkpt><trkpt lat="44.0888633" lon="11.6328558"><ele>289.0</ele><time>2026-04-11T13:03:18.495Z</time></trkpt><trkpt lat="44.088808" lon="11.632719"><ele>289.0</ele><time>2026-04-11T13:03:19.495Z</time></trkpt><trkpt lat="44.0887537" lon="11.6325788"><ele>289.0</ele><time>2026-04-11T13:03:20.496Z</time></trkpt><trkpt lat="44.0886988" lon="11.6324352"><ele>289.0</ele><time>2026-04-11T13:03:21.494Z</time></trkpt><trkpt lat="44.0886433" lon="11.6322915"><ele>289.0</ele><time>2026-04-11T13:03:22.496Z</time></trkpt><trkpt lat="44.0885873" lon="11.6321475"><ele>289.0</ele><time>2026-04-11T13:03:23.494Z</time></trkpt><trkpt lat="44.0885348" lon="11.6320055"><ele>289.0</ele><time>2026-04-11T13:03:24.498Z</time></trkpt><trkpt lat="44.0884938" lon="11.6318585"><ele>289.0</ele><time>2026-04-11T13:03:25.492Z</time></trkpt><trkpt lat="44.088465" lon="11.6317075"><ele>289.0</ele><time>2026-04-11T13:03:26.492Z</time></trkpt><trkpt lat="44.0884468" lon="11.6315545"><ele>289.0</ele><time>2026-04-11T13:03:27.491Z</time></trkpt><trkpt lat="44.0884417" lon="11.6314003"><ele>289.0</ele><time>2026-04-11T13:03:28.49Z</time></trkpt><trkpt lat="44.088454" lon="11.6312478"><ele>289.4</ele><time>2026-04-11T13:03:29.491Z</time></trkpt><trkpt lat="44.0884752" lon="11.6310973"><ele>289.79999999999995</ele><time>2026-04-11T13:03:30.492Z</time></trkpt><trkpt lat="44.088497" lon="11.6309465"><ele>290.20000000000005</ele><time>2026-04-11T13:03:31.493Z</time></trkpt><trkpt lat="44.0885192" lon="11.6307953"><ele>290.6</ele><time>2026-04-11T13:03:32.494Z</time></trkpt><trkpt lat="44.0885385" lon="11.6306442"><ele>291.0</ele><time>2026-04-11T13:03:33.492Z</time></trkpt><trkpt lat="44.0885543" lon="11.6304912"><ele>291.0</ele><time>2026-04-11T13:03:34.495Z</time></trkpt><trkpt lat="44.0885648" lon="11.6303363"><ele>291.0</ele><time>2026-04-11T13:03:35.492Z</time></trkpt><trkpt lat="44.0885657" lon="11.6301802"><ele>291.0</ele><time>2026-04-11T13:03:36.493Z</time></trkpt><trkpt lat="44.088559" lon="11.6300238"><ele>291.0</ele><time>2026-04-11T13:03:37.492Z</time></trkpt><trkpt lat="44.0885418" lon="11.6298685"><ele>291.0</ele><time>2026-04-11T13:03:38.492Z</time></trkpt><trkpt lat="44.088512" lon="11.6297155"><ele>291.75</ele><time>2026-04-11T13:03:39.492Z</time></trkpt><trkpt lat="44.0884648" lon="11.6295693"><ele>292.5</ele><time>2026-04-11T13:03:40.492Z</time></trkpt><trkpt lat="44.0884005" lon="11.6294373"><ele>293.25</ele><time>2026-04-11T13:03:41.493Z</time></trkpt><trkpt lat="44.0883245" lon="11.6293148"><ele>294.0</ele><time>2026-04-11T13:03:42.495Z</time></trkpt><trkpt lat="44.0882527" lon="11.6291865"><ele>292.5</ele><time>2026-04-11T13:03:43.497Z</time></trkpt><trkpt lat="44.0881908" lon="11.6290495"><ele>291.0</ele><time>2026-04-11T13:03:44.497Z</time></trkpt><trkpt lat="44.0881352" lon="11.628908"><ele>289.5</ele><time>2026-04-11T13:03:45.495Z</time></trkpt><trkpt lat="44.0880797" lon="11.628766"><ele>288.0</ele><time>2026-04-11T13:03:46.495Z</time></trkpt><trkpt lat="44.0879073" lon="11.628346"><ele>291.75</ele><time>2026-04-11T13:03:49.494Z</time></trkpt><trkpt lat="44.0878482" lon="11.6282085"><ele>295.5</ele><time>2026-04-11T13:03:50.493Z</time></trkpt><trkpt lat="44.0877835" lon="11.6280762"><ele>299.25</ele><time>2026-04-11T13:03:51.492Z</time></trkpt><trkpt lat="44.0877095" lon="11.627952"><ele>303.0</ele><time>2026-04-11T13:03:52.493Z</time></trkpt><trkpt lat="44.0876275" lon="11.627835"><ele>302.75</ele><time>2026-04-11T13:03:53.493Z</time></trkpt><trkpt lat="44.0875437" lon="11.627721"><ele>302.5</ele><time>2026-04-11T13:03:54.494Z</time></trkpt><trkpt lat="44.0874578" lon="11.6276077"><ele>302.25</ele><time>2026-04-11T13:03:55.494Z</time></trkpt><trkpt lat="44.0873687" lon="11.6274995"><ele>302.0</ele><time>2026-04-11T13:03:56.493Z</time></trkpt><trkpt lat="44.0872775" lon="11.6273965"><ele>302.0</ele><time>2026-04-11T13:03:57.496Z</time></trkpt><trkpt lat="44.087184" lon="11.6272983"><ele>302.0</ele><time>2026-04-11T13:03:58.494Z</time></trkpt><trkpt lat="44.0870883" lon="11.6272063"><ele>302.0</ele><time>2026-04-11T13:03:59.496Z</time></trkpt><trkpt lat="44.0869887" lon="11.6271257"><ele>302.0</ele><time>2026-04-11T13:04:00.496Z</time></trkpt><trkpt lat="44.0868863" lon="11.6270517"><ele>302.0</ele><time>2026-04-11T13:04:01.495Z</time></trkpt><trkpt lat="44.0867847" lon="11.6269777"><ele>302.0</ele><time>2026-04-11T13:04:02.495Z</time></trkpt><trkpt lat="44.0866833" lon="11.626903"><ele>302.0</ele><time>2026-04-11T13:04:03.493Z</time></trkpt><trkpt lat="44.086582" lon="11.6268283"><ele>302.0</ele><time>2026-04-11T13:04:04.494Z</time></trkpt><trkpt lat="44.0864812" lon="11.6267562"><ele>303.2</ele><time>2026-04-11T13:04:05.496Z</time></trkpt><trkpt lat="44.086381" lon="11.626685"><ele>304.4</ele><time>2026-04-11T13:04:06.496Z</time></trkpt><trkpt lat="44.0862903" lon="11.6266175"><ele>305.6</ele><time>2026-04-11T13:04:07.494Z</time></trkpt><trkpt lat="44.0862095" lon="11.6265567"><ele>306.8</ele><time>2026-04-11T13:04:08.491Z</time></trkpt><trkpt lat="44.0861365" lon="11.6265055"><ele>308.0</ele><time>2026-04-11T13:04:09.497Z</time></trkpt><trkpt lat="44.0860707" lon="11.626461"><ele>308.0</ele><time>2026-04-11T13:04:10.497Z</time></trkpt><trkpt lat="44.0860088" lon="11.6264267"><ele>308.0</ele><time>2026-04-11T13:04:11.496Z</time></trkpt><trkpt lat="44.0858935" lon="11.6264212"><ele>308.0</ele><time>2026-04-11T13:04:13.495Z</time></trkpt><trkpt lat="44.085803" lon="11.6264488"><ele>308.0</ele><time>2026-04-11T13:04:15.495Z</time></trkpt><trkpt lat="44.0857377" lon="11.6264523"><ele>308.0</ele><time>2026-04-11T13:04:17.492Z</time></trkpt><trkpt lat="44.085614" lon="11.6263962"><ele>308.0</ele><time>2026-04-11T13:12:22.493Z</time></trkpt><trkpt lat="44.08564" lon="11.6264803"><ele>308.0</ele><time>2026-04-11T13:12:35.491Z</time></trkpt><trkpt lat="44.0858223" lon="11.6264605"><ele>308.0</ele><time>2026-04-11T13:12:40.496Z</time></trkpt><trkpt lat="44.0859195" lon="11.6264297"><ele>308.0</ele><time>2026-04-11T13:12:42.497Z</time></trkpt><trkpt lat="44.0860305" lon="11.626476"><ele>308.0</ele><time>2026-04-11T13:12:44.496Z</time></trkpt><trkpt lat="44.0860883" lon="11.6265187"><ele>308.0</ele><time>2026-04-11T13:12:45.496Z</time></trkpt><trkpt lat="44.0861492" lon="11.6265652"><ele>308.0</ele><time>2026-04-11T13:12:46.495Z</time></trkpt><trkpt lat="44.0862152" lon="11.6266125"><ele>308.0</ele><time>2026-04-11T13:12:47.496Z</time></trkpt><trkpt lat="44.0862865" lon="11.6266617"><ele>308.0</ele><time>2026-04-11T13:12:48.496Z</time></trkpt><trkpt lat="44.0863612" lon="11.6267132"><ele>308.0</ele><time>2026-04-11T13:12:49.492Z</time></trkpt><trkpt lat="44.0864383" lon="11.6267682"><ele>308.0</ele><time>2026-04-11T13:12:50.494Z</time></trkpt><trkpt lat="44.0865185" lon="11.6268262"><ele>308.0</ele><time>2026-04-11T13:12:51.495Z</time></trkpt><trkpt lat="44.0866007" lon="11.6268837"><ele>308.0</ele><time>2026-04-11T13:12:52.492Z</time></trkpt><trkpt lat="44.0866843" lon="11.6269442"><ele>308.0</ele><time>2026-04-11T13:12:53.494Z</time></trkpt><trkpt lat="44.0867693" lon="11.627005"><ele>308.0</ele><time>2026-04-11T13:12:54.492Z</time></trkpt><trkpt lat="44.0868578" lon="11.6270673"><ele>306.8</ele><time>2026-04-11T13:12:55.493Z</time></trkpt><trkpt lat="44.0869487" lon="11.6271313"><ele>305.6</ele><time>2026-04-11T13:12:56.496Z</time></trkpt><trkpt lat="44.0870392" lon="11.6272022"><ele>304.4</ele><time>2026-04-11T13:12:57.494Z</time></trkpt><trkpt lat="44.0871278" lon="11.6272823"><ele>303.2</ele><time>2026-04-11T13:12:58.496Z</time></trkpt><trkpt lat="44.0872178" lon="11.6273713"><ele>302.0</ele><time>2026-04-11T13:12:59.498Z</time></trkpt><trkpt lat="44.0873033" lon="11.6274685"><ele>302.0</ele><time>2026-04-11T13:13:00.495Z</time></trkpt><trkpt lat="44.0873895" lon="11.6275702"><ele>302.0</ele><time>2026-04-11T13:13:01.495Z</time></trkpt><trkpt lat="44.0874738" lon="11.6276763"><ele>302.0</ele><time>2026-04-11T13:13:02.494Z</time></trkpt><trkpt lat="44.0875568" lon="11.6277845"><ele>302.0</ele><time>2026-04-11T13:13:03.494Z</time></trkpt><trkpt lat="44.0876378" lon="11.6278947"><ele>302.25</ele><time>2026-04-11T13:13:04.492Z</time></trkpt><trkpt lat="44.087714" lon="11.6280088"><ele>302.5</ele><time>2026-04-11T13:13:05.495Z</time></trkpt><trkpt lat="44.087785" lon="11.6281302"><ele>302.75</ele><time>2026-04-11T13:13:06.494Z</time></trkpt><trkpt lat="44.0878513" lon="11.6282613"><ele>303.0</ele><time>2026-04-11T13:13:07.496Z</time></trkpt><trkpt lat="44.0879112" lon="11.6283987"><ele>303.0</ele><time>2026-04-11T13:13:08.495Z</time></trkpt><trkpt lat="44.0879688" lon="11.6285393"><ele>303.0</ele><time>2026-04-11T13:13:09.495Z</time></trkpt><trkpt lat="44.0880278" lon="11.6286822"><ele>303.0</ele><time>2026-04-11T13:13:10.495Z</time></trkpt><trkpt lat="44.0881488" lon="11.6289727"><ele>303.0</ele><time>2026-04-11T13:13:12.497Z</time></trkpt><trkpt lat="44.0882128" lon="11.6291165"><ele>303.0</ele><time>2026-04-11T13:13:13.493Z</time></trkpt><trkpt lat="44.088284" lon="11.6292537"><ele>303.0</ele><time>2026-04-11T13:13:14.493Z</time></trkpt><trkpt lat="44.0883633" lon="11.6293835"><ele>303.0</ele><time>2026-04-11T13:13:15.494Z</time></trkpt><trkpt lat="44.0884347" lon="11.6295177"><ele>300.75</ele><time>2026-04-11T13:13:16.492Z</time></trkpt><trkpt lat="44.0884845" lon="11.6296663"><ele>298.5</ele><time>2026-04-11T13:13:17.493Z</time></trkpt><trkpt lat="44.0885155" lon="11.6298267"><ele>296.25</ele><time>2026-04-11T13:13:18.493Z</time></trkpt><trkpt lat="44.0885347" lon="11.6299922"><ele>294.0</ele><time>2026-04-11T13:13:19.493Z</time></trkpt><trkpt lat="44.0885412" lon="11.6301632"><ele>293.25</ele><time>2026-04-11T13:13:20.493Z</time></trkpt><trkpt lat="44.0885367" lon="11.630337"><ele>292.5</ele><time>2026-04-11T13:13:21.493Z</time></trkpt><trkpt lat="44.0885232" lon="11.6305117"><ele>291.75</ele><time>2026-04-11T13:13:22.493Z</time></trkpt><trkpt lat="44.0885035" lon="11.6306843"><ele>291.0</ele><time>2026-04-11T13:13:23.493Z</time></trkpt><trkpt lat="44.0884818" lon="11.6308553"><ele>291.0</ele><time>2026-04-11T13:13:24.494Z</time></trkpt><trkpt lat="44.0884602" lon="11.631026"><ele>291.0</ele><time>2026-04-11T13:13:25.494Z</time></trkpt><trkpt lat="44.08844" lon="11.631197"><ele>291.0</ele><time>2026-04-11T13:13:26.493Z</time></trkpt><trkpt lat="44.0884257" lon="11.6313687"><ele>291.0</ele><time>2026-04-11T13:13:27.493Z</time></trkpt><trkpt lat="44.0884277" lon="11.6315408"><ele>290.5</ele><time>2026-04-11T13:13:28.496Z</time></trkpt><trkpt lat="44.0884485" lon="11.631711"><ele>290.0</ele><time>2026-04-11T13:13:29.495Z</time></trkpt><trkpt lat="44.088486" lon="11.6318762"><ele>289.5</ele><time>2026-04-11T13:13:30.495Z</time></trkpt><trkpt lat="44.0885358" lon="11.6320367"><ele>289.0</ele><time>2026-04-11T13:13:31.497Z</time></trkpt><trkpt lat="44.0885903" lon="11.6321947"><ele>289.0</ele><time>2026-04-11T13:13:32.496Z</time></trkpt><trkpt lat="44.0886485" lon="11.6323503"><ele>289.0</ele><time>2026-04-11T13:13:33.495Z</time></trkpt><trkpt lat="44.0887077" lon="11.6325037"><ele>289.0</ele><time>2026-04-11T13:13:34.495Z</time></trkpt><trkpt lat="44.0887672" lon="11.6326565"><ele>289.0</ele><time>2026-04-11T13:13:35.495Z</time></trkpt><trkpt lat="44.0888258" lon="11.6328112"><ele>288.25</ele><time>2026-04-11T13:13:36.495Z</time></trkpt><trkpt lat="44.0888867" lon="11.6329673"><ele>287.5</ele><time>2026-04-11T13:13:37.493Z</time></trkpt><trkpt lat="44.0889468" lon="11.6331237"><ele>286.75</ele><time>2026-04-11T13:13:38.491Z</time></trkpt><trkpt lat="44.0890072" lon="11.6332808"><ele>286.0</ele><time>2026-04-11T13:13:39.493Z</time></trkpt><trkpt lat="44.0890682" lon="11.6334397"><ele>286.75</ele><time>2026-04-11T13:13:40.492Z</time></trkpt><trkpt lat="44.089133" lon="11.6335963"><ele>287.5</ele><time>2026-04-11T13:13:41.493Z</time></trkpt><trkpt lat="44.0892013" lon="11.633749"><ele>288.25</ele><time>2026-04-11T13:13:42.495Z</time></trkpt><trkpt lat="44.089276" lon="11.6338928"><ele>289.0</ele><time>2026-04-11T13:13:43.494Z</time></trkpt><trkpt lat="44.0895515" lon="11.634255"><ele>289.0</ele><time>2026-04-11T13:13:46.496Z</time></trkpt><trkpt lat="44.0896548" lon="11.6343613"><ele>289.0</ele><time>2026-04-11T13:13:47.494Z</time></trkpt><trkpt lat="44.0897587" lon="11.6344638"><ele>289.0</ele><time>2026-04-11T13:13:48.494Z</time></trkpt><trkpt lat="44.0898642" lon="11.6345652"><ele>289.0</ele><time>2026-04-11T13:13:49.492Z</time></trkpt><trkpt lat="44.0899717" lon="11.6346643"><ele>288.5</ele><time>2026-04-11T13:13:50.493Z</time></trkpt><trkpt lat="44.090082" lon="11.6347565"><ele>288.0</ele><time>2026-04-11T13:13:51.493Z</time></trkpt><trkpt lat="44.0901938" lon="11.6348453"><ele>287.5</ele><time>2026-04-11T13:13:52.492Z</time></trkpt><trkpt lat="44.0903068" lon="11.6349343"><ele>287.0</ele><time>2026-04-11T13:13:53.494Z</time></trkpt><trkpt lat="44.0904183" lon="11.6350233"><ele>287.0</ele><time>2026-04-11T13:13:54.496Z</time></trkpt><trkpt lat="44.0905288" lon="11.6351127"><ele>287.0</ele><time>2026-04-11T13:13:55.494Z</time></trkpt><trkpt lat="44.0906397" lon="11.6352018"><ele>287.0</ele><time>2026-04-11T13:13:56.495Z</time></trkpt><trkpt lat="44.09075" lon="11.6352895"><ele>287.0</ele><time>2026-04-11T13:13:57.495Z</time></trkpt><trkpt lat="44.0908605" lon="11.6353773"><ele>287.0</ele><time>2026-04-11T13:13:58.494Z</time></trkpt><trkpt lat="44.090973" lon="11.6354637"><ele>287.0</ele><time>2026-04-11T13:13:59.494Z</time></trkpt><trkpt lat="44.0910825" lon="11.6355507"><ele>287.0</ele><time>2026-04-11T13:14:00.496Z</time></trkpt><trkpt lat="44.091193" lon="11.6356388"><ele>287.0</ele><time>2026-04-11T13:14:01.496Z</time></trkpt><trkpt lat="44.091303" lon="11.635728"><ele>287.0</ele><time>2026-04-11T13:14:02.493Z</time></trkpt><trkpt lat="44.0914142" lon="11.635817"><ele>287.0</ele><time>2026-04-11T13:14:03.491Z</time></trkpt><trkpt lat="44.0915243" lon="11.6359077"><ele>287.0</ele><time>2026-04-11T13:14:04.494Z</time></trkpt><trkpt lat="44.0916332" lon="11.6360008"><ele>287.0</ele><time>2026-04-11T13:14:05.493Z</time></trkpt><trkpt lat="44.0917413" lon="11.6360958"><ele>286.5</ele><time>2026-04-11T13:14:06.494Z</time></trkpt><trkpt lat="44.0918477" lon="11.6361968"><ele>286.0</ele><time>2026-04-11T13:14:07.495Z</time></trkpt><trkpt lat="44.091948" lon="11.6363117"><ele>285.5</ele><time>2026-04-11T13:14:08.497Z</time></trkpt><trkpt lat="44.0920453" lon="11.6364347"><ele>285.0</ele><time>2026-04-11T13:14:09.495Z</time></trkpt><trkpt lat="44.0921428" lon="11.6365587"><ele>285.0</ele><time>2026-04-11T13:14:10.496Z</time></trkpt><trkpt lat="44.092242" lon="11.6366795"><ele>285.0</ele><time>2026-04-11T13:14:11.496Z</time></trkpt><trkpt lat="44.092339" lon="11.6367993"><ele>285.0</ele><time>2026-04-11T13:14:12.496Z</time></trkpt><trkpt lat="44.092435" lon="11.6369173"><ele>285.0</ele><time>2026-04-11T13:14:13.494Z</time></trkpt><trkpt lat="44.0925285" lon="11.6370328"><ele>283.3333333333333</ele><time>2026-04-11T13:14:14.495Z</time></trkpt><trkpt lat="44.0926197" lon="11.6371507"><ele>281.66666666666663</ele><time>2026-04-11T13:14:15.495Z</time></trkpt><trkpt lat="44.0927108" lon="11.6372688"><ele>280.0</ele><time>2026-04-11T13:14:16.496Z</time></trkpt><trkpt lat="44.0929042" lon="11.6374915"><ele>280.0</ele><time>2026-04-11T13:14:18.497Z</time></trkpt><trkpt lat="44.0930075" lon="11.6375907"><ele>280.0</ele><time>2026-04-11T13:14:19.496Z</time></trkpt><trkpt lat="44.0931152" lon="11.6376843"><ele>280.0</ele><time>2026-04-11T13:14:20.497Z</time></trkpt><trkpt lat="44.0932235" lon="11.6377733"><ele>280.0</ele><time>2026-04-11T13:14:21.494Z</time></trkpt><trkpt lat="44.0933315" lon="11.6378563"><ele>278.75</ele><time>2026-04-11T13:14:22.495Z</time></trkpt><trkpt lat="44.0934385" lon="11.6379353"><ele>277.5</ele><time>2026-04-11T13:14:23.495Z</time></trkpt><trkpt lat="44.0935418" lon="11.63801"><ele>276.25</ele><time>2026-04-11T13:14:24.493Z</time></trkpt><trkpt lat="44.093643" lon="11.638074"><ele>275.0</ele><time>2026-04-11T13:14:25.494Z</time></trkpt><trkpt lat="44.093741" lon="11.6381312"><ele>275.0</ele><time>2026-04-11T13:14:26.496Z</time></trkpt><trkpt lat="44.0938395" lon="11.6381827"><ele>275.0</ele><time>2026-04-11T13:14:27.493Z</time></trkpt><trkpt lat="44.0939387" lon="11.6382335"><ele>275.0</ele><time>2026-04-11T13:14:28.494Z</time></trkpt><trkpt lat="44.0940398" lon="11.6382833"><ele>275.0</ele><time>2026-04-11T13:14:29.494Z</time></trkpt><trkpt lat="44.0941408" lon="11.6383318"><ele>275.0</ele><time>2026-04-11T13:14:30.495Z</time></trkpt><trkpt lat="44.0942325" lon="11.6383797"><ele>275.33333333333337</ele><time>2026-04-11T13:14:31.496Z</time></trkpt><trkpt lat="44.094316" lon="11.638427"><ele>275.6666666666667</ele><time>2026-04-11T13:14:32.497Z</time></trkpt><trkpt lat="44.0943905" lon="11.6384732"><ele>276.0</ele><time>2026-04-11T13:14:33.495Z</time></trkpt><trkpt lat="44.0944537" lon="11.6385165"><ele>276.3333333333333</ele><time>2026-04-11T13:14:34.494Z</time></trkpt><trkpt lat="44.0945618" lon="11.6385595"><ele>276.66666666666663</ele><time>2026-04-11T13:14:36.493Z</time></trkpt><trkpt lat="44.0946258" lon="11.6385133"><ele>277.0</ele><time>2026-04-11T13:14:38.494Z</time></trkpt><trkpt lat="44.0946642" lon="11.6384253"><ele>277.0</ele><time>2026-04-11T13:14:40.494Z</time></trkpt><trkpt lat="44.0946998" lon="11.6382997"><ele>277.0</ele><time>2026-04-11T13:14:42.493Z</time></trkpt><trkpt lat="44.0947863" lon="11.6382813"><ele>277.0</ele><time>2026-04-11T13:14:45.493Z</time></trkpt><trkpt lat="44.0948868" lon="11.6383238"><ele>277.0</ele><time>2026-04-11T13:14:47.491Z</time></trkpt><trkpt lat="44.0949495" lon="11.6383427"><ele>277.0</ele><time>2026-04-11T13:14:48.491Z</time></trkpt><trkpt lat="44.0950142" lon="11.6383622"><ele>277.0</ele><time>2026-04-11T13:14:49.492Z</time></trkpt><trkpt lat="44.0952117" lon="11.638417"><ele>278.42857142857144</ele><time>2026-04-11T13:14:52.491Z</time></trkpt><trkpt lat="44.0952758" lon="11.6384507"><ele>279.85714285714283</ele><time>2026-04-11T13:14:53.491Z</time></trkpt><trkpt lat="44.0953408" lon="11.6384868"><ele>281.2857142857143</ele><time>2026-04-11T13:14:54.491Z</time></trkpt><trkpt lat="44.095407" lon="11.6385175"><ele>282.7142857142857</ele><time>2026-04-11T13:14:55.49Z</time></trkpt><trkpt lat="44.095474" lon="11.6385472"><ele>284.1428571428571</ele><time>2026-04-11T13:14:56.492Z</time></trkpt><trkpt lat="44.0955375" lon="11.6385713"><ele>285.57142857142856</ele><time>2026-04-11T13:14:57.492Z</time></trkpt><trkpt lat="44.0956017" lon="11.6385937"><ele>287.0</ele><time>2026-04-11T13:14:58.493Z</time></trkpt><trkpt lat="44.0956683" lon="11.6386102"><ele>287.0</ele><time>2026-04-11T13:14:59.492Z</time></trkpt><trkpt lat="44.0957353" lon="11.638625"><ele>287.0</ele><time>2026-04-11T13:15:00.494Z</time></trkpt><trkpt lat="44.0958008" lon="11.6386378"><ele>287.0</ele><time>2026-04-11T13:15:01.493Z</time></trkpt><trkpt lat="44.0958677" lon="11.6386502"><ele>287.0</ele><time>2026-04-11T13:15:02.493Z</time></trkpt><trkpt lat="44.095934" lon="11.6386637"><ele>287.0</ele><time>2026-04-11T13:15:03.494Z</time></trkpt><trkpt lat="44.0959988" lon="11.6386765"><ele>287.0</ele><time>2026-04-11T13:15:04.492Z</time></trkpt><trkpt lat="44.0961148" lon="11.6387187"><ele>285.6</ele><time>2026-04-11T13:15:06.492Z</time></trkpt><trkpt lat="44.0962197" lon="11.6387778"><ele>284.2</ele><time>2026-04-11T13:15:08.492Z</time></trkpt><trkpt lat="44.096309" lon="11.6388205"><ele>282.8</ele><time>2026-04-11T13:15:10.494Z</time></trkpt><trkpt lat="44.0964053" lon="11.6388307"><ele>281.4</ele><time>2026-04-11T13:15:12.492Z</time></trkpt><trkpt lat="44.096519" lon="11.6388283"><ele>280.0</ele><time>2026-04-11T13:15:14.493Z</time></trkpt><trkpt lat="44.0966358" lon="11.6387995"><ele>280.0</ele><time>2026-04-11T13:15:16.492Z</time></trkpt><trkpt lat="44.096711" lon="11.6387225"><ele>280.0</ele><time>2026-04-11T13:15:18.49Z</time></trkpt><trkpt lat="44.096757" lon="11.6386077"><ele>280.0</ele><time>2026-04-11T13:15:20.493Z</time></trkpt><trkpt lat="44.096782" lon="11.6384918"><ele>280.0</ele><time>2026-04-11T13:15:22.492Z</time></trkpt><trkpt lat="44.0968313" lon="11.638316"><ele>280.0</ele><time>2026-04-11T13:15:25.494Z</time></trkpt><trkpt lat="44.096853" lon="11.6381917"><ele>284.2</ele><time>2026-04-11T13:15:27.492Z</time></trkpt><trkpt lat="44.0968845" lon="11.6380843"><ele>288.4</ele><time>2026-04-11T13:15:29.492Z</time></trkpt><trkpt lat="44.0969117" lon="11.6379668"><ele>292.6</ele><time>2026-04-11T13:15:31.491Z</time></trkpt><trkpt lat="44.096932" lon="11.6378322"><ele>296.8</ele><time>2026-04-11T13:15:33.49Z</time></trkpt><trkpt lat="44.0969397" lon="11.63768"><ele>301.0</ele><time>2026-04-11T13:15:35.49Z</time></trkpt><trkpt lat="44.0969687" lon="11.6375153"><ele>307.20000000000005</ele><time>2026-04-11T13:15:37.489Z</time></trkpt><trkpt lat="44.0969945" lon="11.6373662"><ele>313.40000000000003</ele><time>2026-04-11T13:15:39.491Z</time></trkpt><trkpt lat="44.0970195" lon="11.6372848"><ele>319.6</ele><time>2026-04-11T13:15:40.489Z</time></trkpt><trkpt lat="44.0970752" lon="11.6371288"><ele>325.8</ele><time>2026-04-11T13:15:42.49Z</time></trkpt><trkpt lat="44.097106" lon="11.6370513"><ele>332.0</ele><time>2026-04-11T13:15:43.489Z</time></trkpt><trkpt lat="44.0971688" lon="11.6368998"><ele>338.40000000000003</ele><time>2026-04-11T13:15:45.49Z</time></trkpt><trkpt lat="44.0972235" lon="11.6367447"><ele>344.8</ele><time>2026-04-11T13:15:47.491Z</time></trkpt><trkpt lat="44.0972822" lon="11.6366072"><ele>351.2</ele><time>2026-04-11T13:15:49.491Z</time></trkpt><trkpt lat="44.0973078" lon="11.6364608"><ele>357.6</ele><time>2026-04-11T13:15:51.49Z</time></trkpt><trkpt lat="44.097306" lon="11.6363232"><ele>364.0</ele><time>2026-04-11T13:15:53.49Z</time></trkpt><trkpt lat="44.0972898" lon="11.6361722"><ele>369.25</ele><time>2026-04-11T13:15:55.489Z</time></trkpt><trkpt lat="44.097244" lon="11.6359455"><ele>374.5</ele><time>2026-04-11T13:15:58.489Z</time></trkpt><trkpt lat="44.0971878" lon="11.6358105"><ele>379.75</ele><time>2026-04-11T13:16:00.489Z</time></trkpt><trkpt lat="44.0971513" lon="11.6356723"><ele>385.0</ele><time>2026-04-11T13:16:02.49Z</time></trkpt><trkpt lat="44.0971103" lon="11.6355505"><ele>385.0</ele><time>2026-04-11T13:16:04.49Z</time></trkpt><trkpt lat="44.0970688" lon="11.6354193"><ele>385.0</ele><time>2026-04-11T13:16:06.486Z</time></trkpt><trkpt lat="44.0970312" lon="11.6352578"><ele>385.0</ele><time>2026-04-11T13:16:08.487Z</time></trkpt><trkpt lat="44.0969962" lon="11.6350927"><ele>385.0</ele><time>2026-04-11T13:16:10.489Z</time></trkpt><trkpt lat="44.096992" lon="11.6349212"><ele>385.6</ele><time>2026-04-11T13:16:12.49Z</time></trkpt><trkpt lat="44.0969897" lon="11.6347602"><ele>386.2</ele><time>2026-04-11T13:16:14.489Z</time></trkpt><trkpt lat="44.0969707" lon="11.6346407"><ele>386.79999999999995</ele><time>2026-04-11T13:16:16.488Z</time></trkpt><trkpt lat="44.0969458" lon="11.6345548"><ele>387.4</ele><time>2026-04-11T13:16:20.488Z</time></trkpt><trkpt lat="44.0969342" lon="11.6344318"><ele>388.0</ele><time>2026-04-11T13:16:26.491Z</time></trkpt><trkpt lat="44.096909" lon="11.6343025"><ele>389.0</ele><time>2026-04-11T13:16:28.489Z</time></trkpt><trkpt lat="44.096883" lon="11.6341552"><ele>390.0</ele><time>2026-04-11T13:16:30.487Z</time></trkpt><trkpt lat="44.0968918" lon="11.6339987"><ele>391.0</ele><time>2026-04-11T13:16:32.488Z</time></trkpt><trkpt lat="44.0969283" lon="11.6339177"><ele>392.0</ele><time>2026-04-11T13:16:33.489Z</time></trkpt><trkpt lat="44.096975" lon="11.6337852"><ele>393.0</ele><time>2026-04-11T13:16:35.488Z</time></trkpt><trkpt lat="44.0969568" lon="11.6336295"><ele>393.6666666666667</ele><time>2026-04-11T13:16:37.489Z</time></trkpt><trkpt lat="44.0969537" lon="11.6335402"><ele>394.33333333333337</ele><time>2026-04-11T13:16:38.491Z</time></trkpt><trkpt lat="44.096972" lon="11.633453"><ele>395.0</ele><time>2026-04-11T13:16:39.489Z</time></trkpt><trkpt lat="44.0970333" lon="11.63333"><ele>395.6666666666667</ele><time>2026-04-11T13:16:41.49Z</time></trkpt><trkpt lat="44.0970953" lon="11.6332227"><ele>396.33333333333337</ele><time>2026-04-11T13:16:43.487Z</time></trkpt><trkpt lat="44.0971332" lon="11.6331507"><ele>397.0</ele><time>2026-04-11T13:16:44.489Z</time></trkpt><trkpt lat="44.097224" lon="11.6330577"><ele>397.00000000000006</ele><time>2026-04-11T13:16:46.489Z</time></trkpt><trkpt lat="44.0973062" lon="11.6329708"><ele>397.0</ele><time>2026-04-11T13:16:48.492Z</time></trkpt><trkpt lat="44.0973938" lon="11.632914"><ele>397.0</ele><time>2026-04-11T13:16:50.491Z</time></trkpt><trkpt lat="44.0974723" lon="11.6328553"><ele>397.0</ele><time>2026-04-11T13:16:52.49Z</time></trkpt><trkpt lat="44.0975327" lon="11.6327623"><ele>397.00000000000006</ele><time>2026-04-11T13:16:54.488Z</time></trkpt><trkpt lat="44.0975568" lon="11.6326737"><ele>397.0</ele><time>2026-04-11T13:16:57.488Z</time></trkpt><trkpt lat="44.0976" lon="11.6326008"><ele>395.7142857142857</ele><time>2026-04-11T13:17:10.493Z</time></trkpt><trkpt lat="44.0976317" lon="11.6325155"><ele>394.42857142857144</ele><time>2026-04-11T13:17:18.489Z</time></trkpt><trkpt lat="44.097706" lon="11.632521"><ele>393.1428571428571</ele><time>2026-04-11T13:17:24.495Z</time></trkpt><trkpt lat="44.0977782" lon="11.6324987"><ele>391.8571428571429</ele><time>2026-04-11T13:17:38.491Z</time></trkpt><trkpt lat="44.0978437" lon="11.6324855"><ele>390.5714285714286</ele><time>2026-04-11T13:17:43.488Z</time></trkpt><trkpt lat="44.0978818" lon="11.632572"><ele>389.2857142857143</ele><time>2026-04-11T13:17:48.492Z</time></trkpt><trkpt lat="44.0978783" lon="11.6326963"><ele>388.0</ele><time>2026-04-11T13:17:51.494Z</time></trkpt><trkpt lat="44.0978985" lon="11.6328028"><ele>385.6666666666667</ele><time>2026-04-11T13:17:53.489Z</time></trkpt><trkpt lat="44.0979268" lon="11.632902"><ele>383.33333333333337</ele><time>2026-04-11T13:17:55.491Z</time></trkpt><trkpt lat="44.0979488" lon="11.6329947"><ele>381.0</ele><time>2026-04-11T13:17:57.489Z</time></trkpt><trkpt lat="44.097939" lon="11.6331173"><ele>378.6666666666667</ele><time>2026-04-11T13:18:00.49Z</time></trkpt><trkpt lat="44.0979892" lon="11.6332522"><ele>376.33333333333337</ele><time>2026-04-11T13:18:10.493Z</time></trkpt><trkpt lat="44.0980237" lon="11.6333543"><ele>374.0</ele><time>2026-04-11T13:18:29.491Z</time></trkpt><trkpt lat="44.0980112" lon="11.6334458"><ele>374.0</ele><time>2026-04-11T13:18:33.489Z</time></trkpt><trkpt lat="44.0980123" lon="11.6335338"><ele>374.0</ele><time>2026-04-11T13:18:36.492Z</time></trkpt><trkpt lat="44.0980378" lon="11.6336267"><ele>374.0</ele><time>2026-04-11T13:18:39.491Z</time></trkpt><trkpt lat="44.0981063" lon="11.6337023"><ele>374.0</ele><time>2026-04-11T13:18:43.493Z</time></trkpt><trkpt lat="44.0981382" lon="11.6337888"><ele>374.0</ele><time>2026-04-11T13:18:45.492Z</time></trkpt><trkpt lat="44.0981588" lon="11.6339097"><ele>374.0</ele><time>2026-04-11T13:18:47.493Z</time></trkpt><trkpt lat="44.0981922" lon="11.6340297"><ele>372.57142857142856</ele><time>2026-04-11T13:18:49.492Z</time></trkpt><trkpt lat="44.0982238" lon="11.6341168"><ele>371.14285714285717</ele><time>2026-04-11T13:18:51.492Z</time></trkpt><trkpt lat="44.0982768" lon="11.6341735"><ele>369.7142857142857</ele><time>2026-04-11T13:18:54.493Z</time></trkpt><trkpt lat="44.0983495" lon="11.6341715"><ele>368.2857142857143</ele><time>2026-04-11T13:18:58.492Z</time></trkpt><trkpt lat="44.0984082" lon="11.634123"><ele>366.8571428571429</ele><time>2026-04-11T13:19:02.494Z</time></trkpt><trkpt lat="44.0984225" lon="11.6340092"><ele>365.42857142857144</ele><time>2026-04-11T13:19:07.495Z</time></trkpt><trkpt lat="44.0984138" lon="11.6339212"><ele>364.0</ele><time>2026-04-11T13:19:09.494Z</time></trkpt><trkpt lat="44.0983882" lon="11.6338187"><ele>370.2</ele><time>2026-04-11T13:19:12.495Z</time></trkpt><trkpt lat="44.098393" lon="11.6336898"><ele>376.4</ele><time>2026-04-11T13:19:16.496Z</time></trkpt><trkpt lat="44.0984022" lon="11.6335825"><ele>382.6</ele><time>2026-04-11T13:19:18.494Z</time></trkpt><trkpt lat="44.0984213" lon="11.633481"><ele>388.8</ele><time>2026-04-11T13:19:20.495Z</time></trkpt><trkpt lat="44.0984568" lon="11.6333435"><ele>395.0</ele><time>2026-04-11T13:19:22.493Z</time></trkpt><trkpt lat="44.0984958" lon="11.6332112"><ele>396.8333333333333</ele><time>2026-04-11T13:19:24.491Z</time></trkpt><trkpt lat="44.0985127" lon="11.6330938"><ele>398.66666666666663</ele><time>2026-04-11T13:19:26.492Z</time></trkpt><trkpt lat="44.0985448" lon="11.6330038"><ele>400.5</ele><time>2026-04-11T13:19:28.493Z</time></trkpt><trkpt lat="44.0985825" lon="11.6329058"><ele>402.33333333333337</ele><time>2026-04-11T13:19:30.494Z</time></trkpt><trkpt lat="44.0986155" lon="11.6328133"><ele>404.1666666666667</ele><time>2026-04-11T13:19:32.494Z</time></trkpt><trkpt lat="44.0986772" lon="11.6327462"><ele>406.0</ele><time>2026-04-11T13:19:35.493Z</time></trkpt><trkpt lat="44.0987557" lon="11.632694"><ele>406.83333333333337</ele><time>2026-04-11T13:19:37.493Z</time></trkpt><trkpt lat="44.0988263" lon="11.6326413"><ele>407.6666666666667</ele><time>2026-04-11T13:19:39.493Z</time></trkpt><trkpt lat="44.0988868" lon="11.6326023"><ele>408.5</ele><time>2026-04-11T13:19:41.493Z</time></trkpt><trkpt lat="44.0989688" lon="11.6325532"><ele>409.33333333333337</ele><time>2026-04-11T13:19:43.493Z</time></trkpt><trkpt lat="44.099055" lon="11.632511"><ele>410.1666666666667</ele><time>2026-04-11T13:19:45.493Z</time></trkpt><trkpt lat="44.0991503" lon="11.632447"><ele>411.0</ele><time>2026-04-11T13:19:49.489Z</time></trkpt><trkpt lat="44.0992092" lon="11.632506"><ele>411.3333333333333</ele><time>2026-04-11T13:19:52.492Z</time></trkpt><trkpt lat="44.099271" lon="11.6325592"><ele>411.66666666666663</ele><time>2026-04-11T13:19:54.492Z</time></trkpt><trkpt lat="44.0993382" lon="11.632635"><ele>412.0</ele><time>2026-04-11T13:19:57.49Z</time></trkpt><trkpt lat="44.099404" lon="11.6326763"><ele>412.3333333333333</ele><time>2026-04-11T13:19:59.493Z</time></trkpt><trkpt lat="44.0994847" lon="11.6327483"><ele>412.66666666666663</ele><time>2026-04-11T13:20:01.491Z</time></trkpt><trkpt lat="44.0995588" lon="11.6328177"><ele>413.0</ele><time>2026-04-11T13:20:03.491Z</time></trkpt><trkpt lat="44.0996165" lon="11.6328563"><ele>412.99999999999994</ele><time>2026-04-11T13:20:05.491Z</time></trkpt><trkpt lat="44.0996927" lon="11.6328315"><ele>413.0</ele><time>2026-04-11T13:20:07.491Z</time></trkpt><trkpt lat="44.0997627" lon="11.632791"><ele>413.0</ele><time>2026-04-11T13:20:09.492Z</time></trkpt><trkpt lat="44.0998345" lon="11.6327483"><ele>413.0</ele><time>2026-04-11T13:20:11.491Z</time></trkpt><trkpt lat="44.0999005" lon="11.6326865"><ele>412.99999999999994</ele><time>2026-04-11T13:20:13.49Z</time></trkpt><trkpt lat="44.0999647" lon="11.6325828"><ele>413.0</ele><time>2026-04-11T13:20:15.492Z</time></trkpt><trkpt lat="44.100006" lon="11.632514"><ele>421.8333333333333</ele><time>2026-04-11T13:20:17.492Z</time></trkpt><trkpt lat="44.100059" lon="11.6324425"><ele>430.66666666666663</ele><time>2026-04-11T13:20:21.494Z</time></trkpt><trkpt lat="44.1001147" lon="11.63236"><ele>439.5</ele><time>2026-04-11T13:20:23.494Z</time></trkpt><trkpt lat="44.1001625" lon="11.6322605"><ele>448.33333333333337</ele><time>2026-04-11T13:20:25.494Z</time></trkpt><trkpt lat="44.1002323" lon="11.6321812"><ele>457.1666666666667</ele><time>2026-04-11T13:20:27.494Z</time></trkpt><trkpt lat="44.1003048" lon="11.6320907"><ele>466.0</ele><time>2026-04-11T13:20:29.494Z</time></trkpt><trkpt lat="44.1004012" lon="11.6319752"><ele>472.00000000000006</ele><time>2026-04-11T13:20:31.494Z</time></trkpt><trkpt lat="44.100458" lon="11.6319108"><ele>478.0</ele><time>2026-04-11T13:20:32.495Z</time></trkpt><trkpt lat="44.1005055" lon="11.6318397"><ele>484.0</ele><time>2026-04-11T13:20:33.492Z</time></trkpt><trkpt lat="44.100574" lon="11.6317313"><ele>490.0</ele><time>2026-04-11T13:20:35.492Z</time></trkpt><trkpt lat="44.10059" lon="11.6316457"><ele>496.00000000000006</ele><time>2026-04-11T13:20:37.49Z</time></trkpt><trkpt lat="44.1006165" lon="11.6315262"><ele>502.0</ele><time>2026-04-11T13:20:40.494Z</time></trkpt><trkpt lat="44.1006103" lon="11.6314182"><ele>502.00000000000006</ele><time>2026-04-11T13:20:43.492Z</time></trkpt><trkpt lat="44.1006237" lon="11.6313257"><ele>502.0</ele><time>2026-04-11T13:20:45.495Z</time></trkpt><trkpt lat="44.1006718" lon="11.6312123"><ele>502.0</ele><time>2026-04-11T13:20:47.494Z</time></trkpt><trkpt lat="44.1007295" lon="11.6311242"><ele>502.0</ele><time>2026-04-11T13:20:49.493Z</time></trkpt><trkpt lat="44.1007665" lon="11.6310357"><ele>502.00000000000006</ele><time>2026-04-11T13:20:52.494Z</time></trkpt><trkpt lat="44.1007695" lon="11.6309422"><ele>502.0</ele><time>2026-04-11T13:20:55.494Z</time></trkpt><trkpt lat="44.1006802" lon="11.630965"><ele>506.6</ele><time>2026-04-11T13:21:02.493Z</time></trkpt><trkpt lat="44.1006058" lon="11.6309592"><ele>511.20000000000005</ele><time>2026-04-11T13:21:04.496Z</time></trkpt><trkpt lat="44.1005593" lon="11.630886"><ele>515.8</ele><time>2026-04-11T13:21:06.494Z</time></trkpt><trkpt lat="44.1005855" lon="11.6307193"><ele>520.4</ele><time>2026-04-11T13:21:41.492Z</time></trkpt><trkpt lat="44.1006062" lon="11.6306023"><ele>525.0</ele><time>2026-04-11T13:21:43.492Z</time></trkpt><trkpt lat="44.1006273" lon="11.6304682"><ele>525.0</ele><time>2026-04-11T13:21:45.493Z</time></trkpt><trkpt lat="44.10065" lon="11.6303385"><ele>525.0</ele><time>2026-04-11T13:21:47.492Z</time></trkpt><trkpt lat="44.100673" lon="11.630217"><ele>525.0</ele><time>2026-04-11T13:21:49.49Z</time></trkpt><trkpt lat="44.100704" lon="11.6300702"><ele>525.0</ele><time>2026-04-11T13:21:51.491Z</time></trkpt><trkpt lat="44.1007375" lon="11.6299335"><ele>525.0</ele><time>2026-04-11T13:21:53.493Z</time></trkpt><trkpt lat="44.1007695" lon="11.6298268"><ele>523.2</ele><time>2026-04-11T13:21:55.492Z</time></trkpt><trkpt lat="44.1008292" lon="11.629743"><ele>521.4</ele><time>2026-04-11T13:21:57.493Z</time></trkpt><trkpt lat="44.1008877" lon="11.6296768"><ele>519.6</ele><time>2026-04-11T13:22:12.493Z</time></trkpt><trkpt lat="44.1009588" lon="11.6295835"><ele>517.8</ele><time>2026-04-11T13:22:15.489Z</time></trkpt><trkpt lat="44.1010102" lon="11.6294508"><ele>516.0</ele><time>2026-04-11T13:22:17.493Z</time></trkpt><trkpt lat="44.101083" lon="11.6293202"><ele>521.75</ele><time>2026-04-11T13:22:19.491Z</time></trkpt><trkpt lat="44.1011778" lon="11.6292308"><ele>527.5</ele><time>2026-04-11T13:22:21.494Z</time></trkpt><trkpt lat="44.1012902" lon="11.6291775"><ele>533.25</ele><time>2026-04-11T13:22:23.494Z</time></trkpt><trkpt lat="44.1013983" lon="11.629087"><ele>539.0</ele><time>2026-04-11T13:22:25.492Z</time></trkpt><trkpt lat="44.1014787" lon="11.6289525"><ele>539.0</ele><time>2026-04-11T13:22:27.494Z</time></trkpt><trkpt lat="44.101516" lon="11.6288772"><ele>539.0</ele><time>2026-04-11T13:22:28.493Z</time></trkpt><trkpt lat="44.101554" lon="11.6287963"><ele>539.0</ele><time>2026-04-11T13:22:29.493Z</time></trkpt><trkpt lat="44.1015883" lon="11.6286948"><ele>539.0</ele><time>2026-04-11T13:22:30.493Z</time></trkpt><trkpt lat="44.1016202" lon="11.6285883"><ele>539.0</ele><time>2026-04-11T13:22:31.493Z</time></trkpt><trkpt lat="44.1016453" lon="11.6284833"><ele>539.0</ele><time>2026-04-11T13:22:32.492Z</time></trkpt><trkpt lat="44.1016722" lon="11.628377"><ele>540.2</ele><time>2026-04-11T13:22:33.493Z</time></trkpt><trkpt lat="44.1017073" lon="11.6282788"><ele>541.4</ele><time>2026-04-11T13:22:34.494Z</time></trkpt><trkpt lat="44.101745" lon="11.6281855"><ele>542.6</ele><time>2026-04-11T13:22:35.492Z</time></trkpt><trkpt lat="44.1017827" lon="11.628107"><ele>543.8</ele><time>2026-04-11T13:22:36.492Z</time></trkpt><trkpt lat="44.1018577" lon="11.6279668"><ele>545.0</ele><time>2026-04-11T13:22:38.491Z</time></trkpt><trkpt lat="44.1019305" lon="11.6278485"><ele>545.0</ele><time>2026-04-11T13:22:40.491Z</time></trkpt><trkpt lat="44.1019893" lon="11.6278042"><ele>545.0</ele><time>2026-04-11T13:22:42.492Z</time></trkpt><trkpt lat="44.1020167" lon="11.6278955"><ele>545.0</ele><time>2026-04-11T13:22:45.494Z</time></trkpt><trkpt lat="44.1021032" lon="11.6281733"><ele>545.0</ele><time>2026-04-11T13:22:48.492Z</time></trkpt><trkpt lat="44.1021443" lon="11.6282707"><ele>545.0</ele><time>2026-04-11T13:22:49.492Z</time></trkpt><trkpt lat="44.1021883" lon="11.6283677"><ele>545.0</ele><time>2026-04-11T13:22:50.493Z</time></trkpt><trkpt lat="44.1022267" lon="11.6284602"><ele>545.0</ele><time>2026-04-11T13:22:51.493Z</time></trkpt><trkpt lat="44.1022717" lon="11.6285427"><ele>545.0</ele><time>2026-04-11T13:22:52.493Z</time></trkpt><trkpt lat="44.1023213" lon="11.6286002"><ele>545.0</ele><time>2026-04-11T13:22:53.493Z</time></trkpt><trkpt lat="44.102432" lon="11.6286213"><ele>545.0</ele><time>2026-04-11T13:22:55.495Z</time></trkpt><trkpt lat="44.1025585" lon="11.6286167"><ele>545.2857142857143</ele><time>2026-04-11T13:22:57.492Z</time></trkpt><trkpt lat="44.1026263" lon="11.6286112"><ele>545.5714285714287</ele><time>2026-04-11T13:22:58.494Z</time></trkpt><trkpt lat="44.1026928" lon="11.6286108"><ele>545.8571428571429</ele><time>2026-04-11T13:22:59.494Z</time></trkpt><trkpt lat="44.102763" lon="11.6286105"><ele>546.1428571428571</ele><time>2026-04-11T13:23:00.494Z</time></trkpt><trkpt lat="44.1028285" lon="11.6286162"><ele>546.4285714285713</ele><time>2026-04-11T13:23:01.492Z</time></trkpt><trkpt lat="44.1028932" lon="11.6286348"><ele>546.7142857142857</ele><time>2026-04-11T13:23:02.494Z</time></trkpt><trkpt lat="44.102956" lon="11.6286565"><ele>547.0</ele><time>2026-04-11T13:23:03.492Z</time></trkpt><trkpt lat="44.1030615" lon="11.6287398"><ele>547.8000000000001</ele><time>2026-04-11T13:23:05.494Z</time></trkpt><trkpt lat="44.1031078" lon="11.6288023"><ele>548.6</ele><time>2026-04-11T13:23:06.494Z</time></trkpt><trkpt lat="44.1031802" lon="11.6289293"><ele>549.4000000000001</ele><time>2026-04-11T13:23:08.497Z</time></trkpt><trkpt lat="44.1032247" lon="11.6290818"><ele>550.2</ele><time>2026-04-11T13:23:10.493Z</time></trkpt><trkpt lat="44.1032535" lon="11.6292385"><ele>551.0</ele><time>2026-04-11T13:23:12.494Z</time></trkpt><trkpt lat="44.1033072" lon="11.6293393"><ele>551.0</ele><time>2026-04-11T13:23:14.494Z</time></trkpt><trkpt lat="44.1033603" lon="11.6294412"><ele>551.0</ele><time>2026-04-11T13:23:16.493Z</time></trkpt><trkpt lat="44.1033407" lon="11.6295617"><ele>551.0</ele><time>2026-04-11T13:23:18.494Z</time></trkpt><trkpt lat="44.1032232" lon="11.6296505"><ele>551.0</ele><time>2026-04-11T13:23:22.492Z</time></trkpt><trkpt lat="44.103286" lon="11.6296883"><ele>551.0</ele><time>2026-04-11T13:23:26.495Z</time></trkpt><trkpt lat="44.1033875" lon="11.6296477"><ele>551.0</ele><time>2026-04-11T13:23:28.494Z</time></trkpt><trkpt lat="44.1034983" lon="11.6295637"><ele>551.0</ele><time>2026-04-11T13:23:30.496Z</time></trkpt><trkpt lat="44.1035445" lon="11.6295003"><ele>551.0</ele><time>2026-04-11T13:23:31.493Z</time></trkpt><trkpt lat="44.1036123" lon="11.6293505"><ele>551.0</ele><time>2026-04-11T13:23:33.493Z</time></trkpt><trkpt lat="44.1036353" lon="11.6292667"><ele>551.0</ele><time>2026-04-11T13:23:34.495Z</time></trkpt><trkpt lat="44.10365" lon="11.6291733"><ele>551.0</ele><time>2026-04-11T13:23:35.494Z</time></trkpt><trkpt lat="44.1036675" lon="11.6290843"><ele>551.0</ele><time>2026-04-11T13:23:36.494Z</time></trkpt><trkpt lat="44.1036863" lon="11.6289895"><ele>551.0</ele><time>2026-04-11T13:23:37.494Z</time></trkpt><trkpt lat="44.103704" lon="11.6288815"><ele>551.0</ele><time>2026-04-11T13:23:38.494Z</time></trkpt><trkpt lat="44.103719" lon="11.6287707"><ele>551.0</ele><time>2026-04-11T13:23:39.492Z</time></trkpt><trkpt lat="44.1037263" lon="11.6286577"><ele>551.0</ele><time>2026-04-11T13:23:40.494Z</time></trkpt><trkpt lat="44.1037307" lon="11.6285452"><ele>553.1666666666666</ele><time>2026-04-11T13:23:41.493Z</time></trkpt><trkpt lat="44.1037293" lon="11.6284273"><ele>555.3333333333333</ele><time>2026-04-11T13:23:42.494Z</time></trkpt><trkpt lat="44.1037143" lon="11.628318"><ele>557.5</ele><time>2026-04-11T13:23:43.492Z</time></trkpt><trkpt lat="44.103674" lon="11.6282198"><ele>559.6666666666666</ele><time>2026-04-11T13:23:44.492Z</time></trkpt><trkpt lat="44.1036195" lon="11.6281318"><ele>561.8333333333334</ele><time>2026-04-11T13:23:45.493Z</time></trkpt><trkpt lat="44.1035553" lon="11.6280547"><ele>564.0</ele><time>2026-04-11T13:23:46.496Z</time></trkpt><trkpt lat="44.1034803" lon="11.6279925"><ele>564.0</ele><time>2026-04-11T13:23:47.494Z</time></trkpt><trkpt lat="44.1034045" lon="11.6279367"><ele>564.0</ele><time>2026-04-11T13:23:48.495Z</time></trkpt><trkpt lat="44.1033288" lon="11.627894"><ele>564.0</ele><time>2026-04-11T13:23:49.493Z</time></trkpt><trkpt lat="44.1032505" lon="11.627866"><ele>564.0</ele><time>2026-04-11T13:23:50.492Z</time></trkpt><trkpt lat="44.1031673" lon="11.6278477"><ele>564.0</ele><time>2026-04-11T13:23:51.491Z</time></trkpt><trkpt lat="44.1030825" lon="11.627832"><ele>564.0</ele><time>2026-04-11T13:23:52.492Z</time></trkpt><trkpt lat="44.1029288" lon="11.6277737"><ele>564.0</ele><time>2026-04-11T13:23:54.494Z</time></trkpt><trkpt lat="44.1028727" lon="11.6276412"><ele>564.0</ele><time>2026-04-11T13:23:56.496Z</time></trkpt><trkpt lat="44.1028838" lon="11.6275492"><ele>564.0</ele><time>2026-04-11T13:23:57.497Z</time></trkpt><trkpt lat="44.1029085" lon="11.627445"><ele>564.0</ele><time>2026-04-11T13:23:58.497Z</time></trkpt><trkpt lat="44.1029313" lon="11.627341"><ele>564.0</ele><time>2026-04-11T13:23:59.495Z</time></trkpt><trkpt lat="44.1029553" lon="11.6272403"><ele>564.0</ele><time>2026-04-11T13:24:00.495Z</time></trkpt><trkpt lat="44.1029712" lon="11.6271428"><ele>564.0</ele><time>2026-04-11T13:24:01.495Z</time></trkpt><trkpt lat="44.1029765" lon="11.6270417"><ele>564.0</ele><time>2026-04-11T13:24:02.495Z</time></trkpt><trkpt lat="44.1029757" lon="11.6269328"><ele>564.0</ele><time>2026-04-11T13:24:03.494Z</time></trkpt><trkpt lat="44.1029662" lon="11.6268283"><ele>564.0</ele><time>2026-04-11T13:24:04.494Z</time></trkpt><trkpt lat="44.1029592" lon="11.6267312"><ele>564.0</ele><time>2026-04-11T13:24:05.494Z</time></trkpt><trkpt lat="44.1029543" lon="11.6266268"><ele>564.0</ele><time>2026-04-11T13:24:06.495Z</time></trkpt><trkpt lat="44.1029548" lon="11.6265215"><ele>564.0</ele><time>2026-04-11T13:24:07.494Z</time></trkpt><trkpt lat="44.102968" lon="11.6264183"><ele>566.1666666666666</ele><time>2026-04-11T13:24:08.496Z</time></trkpt><trkpt lat="44.1029953" lon="11.6263288"><ele>568.3333333333334</ele><time>2026-04-11T13:24:09.494Z</time></trkpt><trkpt lat="44.1029983" lon="11.6261665"><ele>570.5</ele><time>2026-04-11T13:24:11.494Z</time></trkpt><trkpt lat="44.102958" lon="11.626081"><ele>572.6666666666667</ele><time>2026-04-11T13:24:12.493Z</time></trkpt><trkpt lat="44.1029003" lon="11.6259917"><ele>574.8333333333334</ele><time>2026-04-11T13:24:13.493Z</time></trkpt><trkpt lat="44.102838" lon="11.625898"><ele>577.0</ele><time>2026-04-11T13:24:14.495Z</time></trkpt><trkpt lat="44.1027757" lon="11.6258112"><ele>580.1428571428571</ele><time>2026-04-11T13:24:15.493Z</time></trkpt><trkpt lat="44.10271" lon="11.625749"><ele>583.2857142857143</ele><time>2026-04-11T13:24:16.493Z</time></trkpt><trkpt lat="44.1026387" lon="11.6256995"><ele>586.4285714285714</ele><time>2026-04-11T13:24:17.494Z</time></trkpt><trkpt lat="44.1025682" lon="11.6256672"><ele>589.5714285714286</ele><time>2026-04-11T13:24:18.493Z</time></trkpt><trkpt lat="44.1025032" lon="11.6256575"><ele>592.7142857142857</ele><time>2026-04-11T13:24:19.493Z</time></trkpt><trkpt lat="44.1024352" lon="11.6256668"><ele>595.8571428571429</ele><time>2026-04-11T13:24:20.494Z</time></trkpt><trkpt lat="44.1023703" lon="11.6256695"><ele>599.0</ele><time>2026-04-11T13:24:21.494Z</time></trkpt><trkpt lat="44.1022633" lon="11.6256918"><ele>600.5</ele><time>2026-04-11T13:24:23.493Z</time></trkpt><trkpt lat="44.1021758" lon="11.6256965"><ele>602.0</ele><time>2026-04-11T13:24:25.492Z</time></trkpt><trkpt lat="44.1020825" lon="11.6256877"><ele>603.5</ele><time>2026-04-11T13:24:28.493Z</time></trkpt><trkpt lat="44.1020165" lon="11.6256617"><ele>605.0</ele><time>2026-04-11T13:24:30.493Z</time></trkpt><trkpt lat="44.101942" lon="11.6256342"><ele>606.5</ele><time>2026-04-11T13:24:32.497Z</time></trkpt><trkpt lat="44.1019162" lon="11.6255295"><ele>608.0</ele><time>2026-04-11T13:24:35.5Z</time></trkpt><trkpt lat="44.1019793" lon="11.6254285"><ele>608.0</ele><time>2026-04-11T13:24:37.497Z</time></trkpt><trkpt lat="44.102054" lon="11.6253232"><ele>608.0</ele><time>2026-04-11T13:24:39.493Z</time></trkpt><trkpt lat="44.1021413" lon="11.6252415"><ele>608.0</ele><time>2026-04-11T13:24:41.495Z</time></trkpt><trkpt lat="44.1022238" lon="11.6251555"><ele>608.0</ele><time>2026-04-11T13:24:43.494Z</time></trkpt><trkpt lat="44.1022645" lon="11.6250502"><ele>608.0</ele><time>2026-04-11T13:24:45.498Z</time></trkpt><trkpt lat="44.1022955" lon="11.6249545"><ele>606.6666666666666</ele><time>2026-04-11T13:24:47.498Z</time></trkpt><trkpt lat="44.1023222" lon="11.6248358"><ele>605.3333333333333</ele><time>2026-04-11T13:24:50.496Z</time></trkpt><trkpt lat="44.1023452" lon="11.6247167"><ele>604.0</ele><time>2026-04-11T13:24:53.496Z</time></trkpt><trkpt lat="44.1023637" lon="11.6246143"><ele>602.6666666666666</ele><time>2026-04-11T13:24:55.497Z</time></trkpt><trkpt lat="44.102383" lon="11.6245043"><ele>601.3333333333334</ele><time>2026-04-11T13:24:57.497Z</time></trkpt><trkpt lat="44.102437" lon="11.6243678"><ele>600.0</ele><time>2026-04-11T13:25:01.305Z</time></trkpt><trkpt lat="44.1024947" lon="11.6242858"><ele>603.1428571428571</ele><time>2026-04-11T13:25:04.305Z</time></trkpt><trkpt lat="44.1025557" lon="11.6242565"><ele>606.2857142857142</ele><time>2026-04-11T13:25:07.305Z</time></trkpt><trkpt lat="44.1026225" lon="11.6242698"><ele>609.4285714285713</ele><time>2026-04-11T13:25:09.306Z</time></trkpt><trkpt lat="44.1026977" lon="11.624277"><ele>612.5714285714286</ele><time>2026-04-11T13:25:12.305Z</time></trkpt><trkpt lat="44.1027622" lon="11.6242378"><ele>615.7142857142858</ele><time>2026-04-11T13:25:15.302Z</time></trkpt><trkpt lat="44.102817" lon="11.6241913"><ele>618.8571428571428</ele><time>2026-04-11T13:25:17.302Z</time></trkpt><trkpt lat="44.102854" lon="11.6240937"><ele>622.0</ele><time>2026-04-11T13:25:21.304Z</time></trkpt><trkpt lat="44.1028832" lon="11.623962"><ele>622.0</ele><time>2026-04-11T13:25:38.303Z</time></trkpt><trkpt lat="44.102909" lon="11.6238678"><ele>622.0</ele><time>2026-04-11T13:25:40.301Z</time></trkpt><trkpt lat="44.1029237" lon="11.6237398"><ele>622.0</ele><time>2026-04-11T13:25:43.304Z</time></trkpt><trkpt lat="44.1029193" lon="11.6236222"><ele>622.0</ele><time>2026-04-11T13:25:46.303Z</time></trkpt><trkpt lat="44.1029356" lon="11.6235269"><ele>622.0</ele><time>2026-04-11T13:25:56.496Z</time></trkpt><trkpt lat="44.1029582" lon="11.6234399"><ele>622.0</ele><time>2026-04-11T13:25:59.497Z</time></trkpt><trkpt lat="44.1029887" lon="11.6233299"><ele>622.8333333333334</ele><time>2026-04-11T13:26:02.498Z</time></trkpt><trkpt lat="44.1029976" lon="11.6232272"><ele>623.6666666666667</ele><time>2026-04-11T13:26:05.497Z</time></trkpt><trkpt lat="44.1030088" lon="11.6231313"><ele>624.5</ele><time>2026-04-11T13:26:07.497Z</time></trkpt><trkpt lat="44.10305" lon="11.6229537"><ele>625.3333333333334</ele><time>2026-04-11T13:26:10.498Z</time></trkpt><trkpt lat="44.1030508" lon="11.6228335"><ele>626.1666666666666</ele><time>2026-04-11T13:26:12.494Z</time></trkpt><trkpt lat="44.1030752" lon="11.6227495"><ele>627.0</ele><time>2026-04-11T13:26:15.495Z</time></trkpt><trkpt lat="44.103116" lon="11.6226743"><ele>628.3333333333334</ele><time>2026-04-11T13:26:18.495Z</time></trkpt><trkpt lat="44.103127" lon="11.6225592"><ele>629.6666666666666</ele><time>2026-04-11T13:26:22.496Z</time></trkpt><trkpt lat="44.1031467" lon="11.6224657"><ele>631.0</ele><time>2026-04-11T13:26:24.498Z</time></trkpt><trkpt lat="44.1031662" lon="11.6223717"><ele>632.3333333333333</ele><time>2026-04-11T13:26:26.497Z</time></trkpt><trkpt lat="44.1031822" lon="11.6222837"><ele>633.6666666666666</ele><time>2026-04-11T13:26:28.497Z</time></trkpt><trkpt lat="44.1031917" lon="11.6220623"><ele>635.0</ele><time>2026-04-11T13:27:06.496Z</time></trkpt><trkpt lat="44.1031935" lon="11.6219402"><ele>636.6666666666666</ele><time>2026-04-11T13:27:08.494Z</time></trkpt><trkpt lat="44.1032192" lon="11.6218388"><ele>638.3333333333333</ele><time>2026-04-11T13:27:10.496Z</time></trkpt><trkpt lat="44.1032488" lon="11.6217263"><ele>640.0</ele><time>2026-04-11T13:27:12.494Z</time></trkpt><trkpt lat="44.1032867" lon="11.621605"><ele>641.6666666666666</ele><time>2026-04-11T13:27:14.494Z</time></trkpt><trkpt lat="44.1033143" lon="11.6214663"><ele>643.3333333333334</ele><time>2026-04-11T13:27:16.496Z</time></trkpt><trkpt lat="44.1033608" lon="11.62138"><ele>645.0</ele><time>2026-04-11T13:27:18.493Z</time></trkpt><trkpt lat="44.1034257" lon="11.6213007"><ele>646.3333333333334</ele><time>2026-04-11T13:27:20.494Z</time></trkpt><trkpt lat="44.1034702" lon="11.6212072"><ele>647.6666666666666</ele><time>2026-04-11T13:27:22.493Z</time></trkpt><trkpt lat="44.1035205" lon="11.621123"><ele>649.0</ele><time>2026-04-11T13:27:24.494Z</time></trkpt><trkpt lat="44.103586" lon="11.6210445"><ele>650.3333333333333</ele><time>2026-04-11T13:27:26.497Z</time></trkpt><trkpt lat="44.1036163" lon="11.6209358"><ele>651.6666666666666</ele><time>2026-04-11T13:27:28.494Z</time></trkpt><trkpt lat="44.1036293" lon="11.6207945"><ele>653.0</ele><time>2026-04-11T13:27:30.496Z</time></trkpt><trkpt lat="44.1036367" lon="11.6206165"><ele>654.8</ele><time>2026-04-11T13:27:32.493Z</time></trkpt><trkpt lat="44.1036338" lon="11.6205277"><ele>656.5999999999999</ele><time>2026-04-11T13:27:33.492Z</time></trkpt><trkpt lat="44.103646" lon="11.6203645"><ele>658.4000000000001</ele><time>2026-04-11T13:27:35.494Z</time></trkpt><trkpt lat="44.1037093" lon="11.6202258"><ele>660.2</ele><time>2026-04-11T13:27:37.494Z</time></trkpt><trkpt lat="44.1037335" lon="11.6200232"><ele>662.0</ele><time>2026-04-11T13:27:40.498Z</time></trkpt><trkpt lat="44.1037338" lon="11.619899"><ele>662.4000000000001</ele><time>2026-04-11T13:27:42.496Z</time></trkpt><trkpt lat="44.103713" lon="11.6197765"><ele>662.8000000000001</ele><time>2026-04-11T13:27:44.493Z</time></trkpt><trkpt lat="44.1037162" lon="11.6196565"><ele>663.2</ele><time>2026-04-11T13:27:46.494Z</time></trkpt><trkpt lat="44.1037193" lon="11.6195372"><ele>663.6</ele><time>2026-04-11T13:27:48.494Z</time></trkpt><trkpt lat="44.1037535" lon="11.619446"><ele>664.0</ele><time>2026-04-11T13:27:50.494Z</time></trkpt><trkpt lat="44.10384" lon="11.619341"><ele>664.0</ele><time>2026-04-11T13:27:52.493Z</time></trkpt><trkpt lat="44.1039408" lon="11.6192298"><ele>664.0</ele><time>2026-04-11T13:27:54.495Z</time></trkpt><trkpt lat="44.1039815" lon="11.6191585"><ele>664.0</ele><time>2026-04-11T13:27:55.491Z</time></trkpt><trkpt lat="44.1040193" lon="11.619081"><ele>664.0</ele><time>2026-04-11T13:27:56.492Z</time></trkpt><trkpt lat="44.1040623" lon="11.618996"><ele>664.0</ele><time>2026-04-11T13:27:57.493Z</time></trkpt><trkpt lat="44.1041153" lon="11.6189055"><ele>664.0</ele><time>2026-04-11T13:27:58.493Z</time></trkpt><trkpt lat="44.1041732" lon="11.61882"><ele>655.2</ele><time>2026-04-11T13:27:59.496Z</time></trkpt><trkpt lat="44.1042442" lon="11.6187412"><ele>646.4000000000001</ele><time>2026-04-11T13:28:00.497Z</time></trkpt><trkpt lat="44.1043225" lon="11.618674"><ele>637.6</ele><time>2026-04-11T13:28:01.494Z</time></trkpt><trkpt lat="44.1044012" lon="11.6186195"><ele>628.8</ele><time>2026-04-11T13:28:02.496Z</time></trkpt><trkpt lat="44.1044903" lon="11.6185832"><ele>620.0</ele><time>2026-04-11T13:28:03.498Z</time></trkpt><trkpt lat="44.1045758" lon="11.6185635"><ele>620.0</ele><time>2026-04-11T13:28:04.496Z</time></trkpt><trkpt lat="44.1046522" lon="11.6185452"><ele>620.0</ele><time>2026-04-11T13:28:05.498Z</time></trkpt><trkpt lat="44.1047245" lon="11.6185142"><ele>620.0</ele><time>2026-04-11T13:28:06.497Z</time></trkpt><trkpt lat="44.1048002" lon="11.6184698"><ele>620.0</ele><time>2026-04-11T13:28:07.496Z</time></trkpt><trkpt lat="44.1048787" lon="11.6184245"><ele>620.0</ele><time>2026-04-11T13:28:08.498Z</time></trkpt><trkpt lat="44.104955" lon="11.6183843"><ele>620.0</ele><time>2026-04-11T13:28:09.499Z</time></trkpt><trkpt lat="44.1050287" lon="11.6183495"><ele>620.8</ele><time>2026-04-11T13:28:10.497Z</time></trkpt><trkpt lat="44.1051988" lon="11.6182422"><ele>621.6</ele><time>2026-04-11T13:28:13.496Z</time></trkpt><trkpt lat="44.1052628" lon="11.6181982"><ele>622.4</ele><time>2026-04-11T13:28:14.497Z</time></trkpt><trkpt lat="44.1053295" lon="11.6181488"><ele>623.2</ele><time>2026-04-11T13:28:15.496Z</time></trkpt><trkpt lat="44.1054005" lon="11.6181127"><ele>624.0</ele><time>2026-04-11T13:28:16.497Z</time></trkpt><trkpt lat="44.1054688" lon="11.6180793"><ele>624.0</ele><time>2026-04-11T13:28:17.499Z</time></trkpt><trkpt lat="44.1055313" lon="11.618047"><ele>624.0</ele><time>2026-04-11T13:28:18.499Z</time></trkpt><trkpt lat="44.1056492" lon="11.6180155"><ele>624.0</ele><time>2026-04-11T13:28:20.495Z</time></trkpt><trkpt lat="44.1057155" lon="11.6180083"><ele>624.0</ele><time>2026-04-11T13:28:21.495Z</time></trkpt><trkpt lat="44.1057858" lon="11.6179847"><ele>624.0</ele><time>2026-04-11T13:28:22.497Z</time></trkpt><trkpt lat="44.1058513" lon="11.6179343"><ele>624.0</ele><time>2026-04-11T13:28:23.496Z</time></trkpt><trkpt lat="44.1059078" lon="11.61786"><ele>625.1666666666666</ele><time>2026-04-11T13:28:24.496Z</time></trkpt><trkpt lat="44.105956" lon="11.6177723"><ele>626.3333333333334</ele><time>2026-04-11T13:28:25.498Z</time></trkpt><trkpt lat="44.1059992" lon="11.6176838"><ele>627.5</ele><time>2026-04-11T13:28:26.497Z</time></trkpt><trkpt lat="44.1060462" lon="11.6175847"><ele>628.6666666666667</ele><time>2026-04-11T13:28:27.497Z</time></trkpt><trkpt lat="44.1060978" lon="11.6174913"><ele>629.8333333333334</ele><time>2026-04-11T13:28:28.498Z</time></trkpt><trkpt lat="44.106151" lon="11.6174132"><ele>631.0</ele><time>2026-04-11T13:28:29.498Z</time></trkpt><trkpt lat="44.1062053" lon="11.6173563"><ele>631.0</ele><time>2026-04-11T13:28:30.497Z</time></trkpt><trkpt lat="44.106311" lon="11.6172733"><ele>631.0</ele><time>2026-04-11T13:28:32.499Z</time></trkpt><trkpt lat="44.1063717" lon="11.6172167"><ele>631.0</ele><time>2026-04-11T13:28:33.499Z</time></trkpt><trkpt lat="44.1064395" lon="11.6171628"><ele>631.0</ele><time>2026-04-11T13:28:34.497Z</time></trkpt><trkpt lat="44.1065003" lon="11.6171172"><ele>631.0</ele><time>2026-04-11T13:28:35.497Z</time></trkpt><trkpt lat="44.1066062" lon="11.6170987"><ele>631.0</ele><time>2026-04-11T13:28:37.498Z</time></trkpt><trkpt lat="44.106673" lon="11.6171055"><ele>630.8333333333334</ele><time>2026-04-11T13:28:38.498Z</time></trkpt><trkpt lat="44.1067512" lon="11.6170947"><ele>630.6666666666667</ele><time>2026-04-11T13:28:39.498Z</time></trkpt><trkpt lat="44.1068378" lon="11.6170748"><ele>630.5</ele><time>2026-04-11T13:28:40.498Z</time></trkpt><trkpt lat="44.1069252" lon="11.6170523"><ele>630.3333333333334</ele><time>2026-04-11T13:28:41.499Z</time></trkpt><trkpt lat="44.1070078" lon="11.6170277"><ele>630.1666666666666</ele><time>2026-04-11T13:28:42.499Z</time></trkpt><trkpt lat="44.1070893" lon="11.6170115"><ele>630.0</ele><time>2026-04-11T13:28:43.497Z</time></trkpt><trkpt lat="44.1072167" lon="11.6169992"><ele>631.5</ele><time>2026-04-11T13:28:45.493Z</time></trkpt><trkpt lat="44.1072565" lon="11.6169295"><ele>633.0</ele><time>2026-04-11T13:28:47.495Z</time></trkpt><trkpt lat="44.107302" lon="11.6168568"><ele>634.5</ele><time>2026-04-11T13:28:50.499Z</time></trkpt><trkpt lat="44.1073373" lon="11.6167742"><ele>636.0</ele><time>2026-04-11T13:28:52.496Z</time></trkpt><trkpt lat="44.1073723" lon="11.6166742"><ele>637.5</ele><time>2026-04-11T13:28:54.496Z</time></trkpt><trkpt lat="44.1074245" lon="11.616564"><ele>639.0</ele><time>2026-04-11T13:28:56.497Z</time></trkpt><trkpt lat="44.1074858" lon="11.616454"><ele>640.6666666666666</ele><time>2026-04-11T13:28:58.497Z</time></trkpt><trkpt lat="44.1075402" lon="11.6163762"><ele>642.3333333333334</ele><time>2026-04-11T13:29:00.496Z</time></trkpt><trkpt lat="44.1076077" lon="11.6162935"><ele>644.0</ele><time>2026-04-11T13:29:02.498Z</time></trkpt><trkpt lat="44.1076588" lon="11.6162157"><ele>645.6666666666667</ele><time>2026-04-11T13:29:04.498Z</time></trkpt><trkpt lat="44.1077248" lon="11.6161475"><ele>647.3333333333334</ele><time>2026-04-11T13:29:07.496Z</time></trkpt><trkpt lat="44.1077872" lon="11.6161068"><ele>649.0</ele><time>2026-04-11T13:29:09.494Z</time></trkpt><trkpt lat="44.1078927" lon="11.6160505"><ele>649.0</ele><time>2026-04-11T13:29:11.495Z</time></trkpt><trkpt lat="44.1080137" lon="11.6159955"><ele>649.0</ele><time>2026-04-11T13:29:13.497Z</time></trkpt><trkpt lat="44.1080767" lon="11.6159703"><ele>649.0</ele><time>2026-04-11T13:29:14.498Z</time></trkpt><trkpt lat="44.1081697" lon="11.6159407"><ele>649.0</ele><time>2026-04-11T13:29:16.497Z</time></trkpt><trkpt lat="44.108217" lon="11.615866"><ele>649.0</ele><time>2026-04-11T13:29:18.496Z</time></trkpt><trkpt lat="44.108249" lon="11.6156875"><ele>649.5</ele><time>2026-04-11T13:29:20.497Z</time></trkpt><trkpt lat="44.1082792" lon="11.6155765"><ele>650.0</ele><time>2026-04-11T13:29:21.497Z</time></trkpt><trkpt lat="44.1083253" lon="11.6154877"><ele>650.5</ele><time>2026-04-11T13:29:22.497Z</time></trkpt><trkpt lat="44.1083902" lon="11.6154173"><ele>651.0</ele><time>2026-04-11T13:29:23.5Z</time></trkpt><trkpt lat="44.1084715" lon="11.6153555"><ele>651.5</ele><time>2026-04-11T13:29:24.499Z</time></trkpt><trkpt lat="44.1085623" lon="11.6152813"><ele>652.0</ele><time>2026-04-11T13:29:25.497Z</time></trkpt><trkpt lat="44.1086565" lon="11.6151873"><ele>652.6666666666667</ele><time>2026-04-11T13:29:26.498Z</time></trkpt><trkpt lat="44.1087452" lon="11.6150973"><ele>653.3333333333334</ele><time>2026-04-11T13:29:27.496Z</time></trkpt><trkpt lat="44.1088217" lon="11.615032"><ele>654.0</ele><time>2026-04-11T13:29:28.499Z</time></trkpt><trkpt lat="44.1088962" lon="11.6149857"><ele>654.6666666666666</ele><time>2026-04-11T13:29:29.495Z</time></trkpt><trkpt lat="44.1089617" lon="11.614937"><ele>655.3333333333333</ele><time>2026-04-11T13:29:30.497Z</time></trkpt><trkpt lat="44.1090038" lon="11.6148412"><ele>656.0</ele><time>2026-04-11T13:29:32.496Z</time></trkpt><trkpt lat="44.1089553" lon="11.6147462"><ele>656.0</ele><time>2026-04-11T13:29:34.494Z</time></trkpt><trkpt lat="44.1089113" lon="11.6146342"><ele>656.0</ele><time>2026-04-11T13:29:36.495Z</time></trkpt><trkpt lat="44.108829" lon="11.6145412"><ele>656.0</ele><time>2026-04-11T13:29:38.496Z</time></trkpt><trkpt lat="44.108734" lon="11.6144527"><ele>656.0</ele><time>2026-04-11T13:29:40.496Z</time></trkpt><trkpt lat="44.1086577" lon="11.6143482"><ele>656.0</ele><time>2026-04-11T13:29:42.502Z</time></trkpt><trkpt lat="44.1086098" lon="11.6141948"><ele>657.5</ele><time>2026-04-11T13:29:44.497Z</time></trkpt><trkpt lat="44.1085427" lon="11.6140605"><ele>659.0</ele><time>2026-04-11T13:29:46.497Z</time></trkpt><trkpt lat="44.1084797" lon="11.6139122"><ele>660.5</ele><time>2026-04-11T13:29:48.496Z</time></trkpt><trkpt lat="44.1084475" lon="11.6138293"><ele>662.0</ele><time>2026-04-11T13:29:49.496Z</time></trkpt><trkpt lat="44.1083903" lon="11.613626"><ele>662.1666666666666</ele><time>2026-04-11T13:29:51.496Z</time></trkpt><trkpt lat="44.1083697" lon="11.6135163"><ele>662.3333333333333</ele><time>2026-04-11T13:29:52.498Z</time></trkpt><trkpt lat="44.1083627" lon="11.6134082"><ele>662.5</ele><time>2026-04-11T13:29:53.498Z</time></trkpt><trkpt lat="44.1083713" lon="11.6133135"><ele>662.6666666666666</ele><time>2026-04-11T13:29:54.498Z</time></trkpt><trkpt lat="44.1084145" lon="11.6131663"><ele>662.8333333333334</ele><time>2026-04-11T13:29:56.497Z</time></trkpt><trkpt lat="44.108464" lon="11.6130412"><ele>663.0</ele><time>2026-04-11T13:29:58.494Z</time></trkpt><trkpt lat="44.1084823" lon="11.6129213"><ele>665.0</ele><time>2026-04-11T13:30:00.493Z</time></trkpt><trkpt lat="44.1084812" lon="11.612789"><ele>667.0</ele><time>2026-04-11T13:30:02.496Z</time></trkpt><trkpt lat="44.1084933" lon="11.6126202"><ele>669.0</ele><time>2026-04-11T13:30:04.494Z</time></trkpt><trkpt lat="44.108515" lon="11.6124768"><ele>671.0</ele><time>2026-04-11T13:30:06.496Z</time></trkpt><trkpt lat="44.1085393" lon="11.6123803"><ele>673.0</ele><time>2026-04-11T13:30:08.497Z</time></trkpt><trkpt lat="44.1085705" lon="11.6122632"><ele>673.0</ele><time>2026-04-11T13:30:11.496Z</time></trkpt><trkpt lat="44.1085602" lon="11.612147"><ele>673.0</ele><time>2026-04-11T13:30:14.5Z</time></trkpt><trkpt lat="44.1086358" lon="11.6120477"><ele>673.0</ele><time>2026-04-11T13:30:17.497Z</time></trkpt><trkpt lat="44.1087117" lon="11.6119518"><ele>673.0</ele><time>2026-04-11T13:30:19.494Z</time></trkpt><trkpt lat="44.1087955" lon="11.6118547"><ele>673.0</ele><time>2026-04-11T13:30:21.495Z</time></trkpt><trkpt lat="44.1089595" lon="11.6115945"><ele>673.8333333333334</ele><time>2026-04-11T13:30:25.495Z</time></trkpt><trkpt lat="44.1089982" lon="11.6115103"><ele>674.6666666666667</ele><time>2026-04-11T13:30:26.497Z</time></trkpt><trkpt lat="44.109032" lon="11.611412"><ele>675.5</ele><time>2026-04-11T13:30:27.499Z</time></trkpt><trkpt lat="44.1090565" lon="11.6112982"><ele>676.3333333333334</ele><time>2026-04-11T13:30:28.498Z</time></trkpt><trkpt lat="44.1090722" lon="11.6111692"><ele>677.1666666666666</ele><time>2026-04-11T13:30:29.497Z</time></trkpt><trkpt lat="44.1090823" lon="11.6110482"><ele>678.0</ele><time>2026-04-11T13:30:30.497Z</time></trkpt><trkpt lat="44.109095" lon="11.6109333"><ele>677.6666666666666</ele><time>2026-04-11T13:30:31.496Z</time></trkpt><trkpt lat="44.1090993" lon="11.6108355"><ele>677.3333333333334</ele><time>2026-04-11T13:30:32.495Z</time></trkpt><trkpt lat="44.109089" lon="11.610746"><ele>677.0</ele><time>2026-04-11T13:30:33.502Z</time></trkpt><trkpt lat="44.1090677" lon="11.610663"><ele>676.6666666666667</ele><time>2026-04-11T13:30:34.495Z</time></trkpt><trkpt lat="44.109049" lon="11.6105013"><ele>676.3333333333334</ele><time>2026-04-11T13:30:36.498Z</time></trkpt><trkpt lat="44.1090595" lon="11.6104098"><ele>676.0</ele><time>2026-04-11T13:30:37.497Z</time></trkpt><trkpt lat="44.1090877" lon="11.6103095"><ele>677.0</ele><time>2026-04-11T13:30:38.498Z</time></trkpt><trkpt lat="44.109125" lon="11.6102063"><ele>678.0</ele><time>2026-04-11T13:30:39.496Z</time></trkpt><trkpt lat="44.109157" lon="11.610103"><ele>679.0</ele><time>2026-04-11T13:30:40.496Z</time></trkpt><trkpt lat="44.1091793" lon="11.6099907"><ele>680.0</ele><time>2026-04-11T13:30:41.497Z</time></trkpt><trkpt lat="44.1091992" lon="11.6098792"><ele>681.0</ele><time>2026-04-11T13:30:42.495Z</time></trkpt><trkpt lat="44.1092193" lon="11.6097713"><ele>682.0</ele><time>2026-04-11T13:30:43.495Z</time></trkpt><trkpt lat="44.109243" lon="11.6096673"><ele>682.0</ele><time>2026-04-11T13:30:44.496Z</time></trkpt><trkpt lat="44.109279" lon="11.6095702"><ele>682.0</ele><time>2026-04-11T13:30:45.496Z</time></trkpt><trkpt lat="44.1093288" lon="11.6094743"><ele>682.0</ele><time>2026-04-11T13:30:46.496Z</time></trkpt><trkpt lat="44.1093828" lon="11.6093708"><ele>682.0</ele><time>2026-04-11T13:30:47.495Z</time></trkpt><trkpt lat="44.1094367" lon="11.6092577"><ele>682.0</ele><time>2026-04-11T13:30:48.496Z</time></trkpt><trkpt lat="44.1094892" lon="11.6091362"><ele>682.6</ele><time>2026-04-11T13:30:49.495Z</time></trkpt><trkpt lat="44.109541" lon="11.6090065"><ele>683.2</ele><time>2026-04-11T13:30:50.496Z</time></trkpt><trkpt lat="44.1095912" lon="11.6088827"><ele>683.8</ele><time>2026-04-11T13:30:51.496Z</time></trkpt><trkpt lat="44.1096368" lon="11.6087703"><ele>684.4</ele><time>2026-04-11T13:30:52.495Z</time></trkpt><trkpt lat="44.1096772" lon="11.6086635"><ele>685.0</ele><time>2026-04-11T13:30:53.498Z</time></trkpt><trkpt lat="44.1097102" lon="11.6085598"><ele>683.5</ele><time>2026-04-11T13:30:54.496Z</time></trkpt><trkpt lat="44.1097342" lon="11.608455"><ele>682.0</ele><time>2026-04-11T13:30:55.495Z</time></trkpt><trkpt lat="44.1097533" lon="11.608139"><ele>680.5</ele><time>2026-04-11T13:30:58.496Z</time></trkpt><trkpt lat="44.1097467" lon="11.6080367"><ele>679.0</ele><time>2026-04-11T13:30:59.498Z</time></trkpt><trkpt lat="44.1097443" lon="11.6079358"><ele>679.0</ele><time>2026-04-11T13:31:00.498Z</time></trkpt><trkpt lat="44.1097553" lon="11.607836"><ele>679.0</ele><time>2026-04-11T13:31:01.498Z</time></trkpt><trkpt lat="44.1097815" lon="11.6077342"><ele>679.0</ele><time>2026-04-11T13:31:02.495Z</time></trkpt><trkpt lat="44.1098067" lon="11.6076355"><ele>679.0</ele><time>2026-04-11T13:31:03.498Z</time></trkpt><trkpt lat="44.1098255" lon="11.6075378"><ele>679.0</ele><time>2026-04-11T13:31:04.496Z</time></trkpt><trkpt lat="44.1098425" lon="11.6074415"><ele>679.0</ele><time>2026-04-11T13:31:05.496Z</time></trkpt><trkpt lat="44.1098598" lon="11.6073467"><ele>679.0</ele><time>2026-04-11T13:31:06.496Z</time></trkpt><trkpt lat="44.1098838" lon="11.6072472"><ele>678.5714285714286</ele><time>2026-04-11T13:31:07.496Z</time></trkpt><trkpt lat="44.1099092" lon="11.6071513"><ele>678.1428571428571</ele><time>2026-04-11T13:31:08.498Z</time></trkpt><trkpt lat="44.1099317" lon="11.6070612"><ele>677.7142857142858</ele><time>2026-04-11T13:31:09.497Z</time></trkpt><trkpt lat="44.1099545" lon="11.6069708"><ele>677.2857142857142</ele><time>2026-04-11T13:31:10.497Z</time></trkpt><trkpt lat="44.1099808" lon="11.6068843"><ele>676.8571428571429</ele><time>2026-04-11T13:31:11.495Z</time></trkpt><trkpt lat="44.1100078" lon="11.6067985"><ele>676.4285714285714</ele><time>2026-04-11T13:31:12.495Z</time></trkpt><trkpt lat="44.1100342" lon="11.606713"><ele>676.0</ele><time>2026-04-11T13:31:13.493Z</time></trkpt><trkpt lat="44.1100837" lon="11.6065625"><ele>675.0</ele><time>2026-04-11T13:31:15.496Z</time></trkpt><trkpt lat="44.1101183" lon="11.6064205"><ele>674.0</ele><time>2026-04-11T13:31:17.496Z</time></trkpt><trkpt lat="44.1101525" lon="11.606331"><ele>673.0</ele><time>2026-04-11T13:31:19.496Z</time></trkpt><trkpt lat="44.110236" lon="11.6064"><ele>672.0</ele><time>2026-04-11T13:31:23.496Z</time></trkpt><trkpt lat="44.1102923" lon="11.6065112"><ele>671.0</ele><time>2026-04-11T13:31:25.493Z</time></trkpt><trkpt lat="44.1104057" lon="11.6065928"><ele>671.0</ele><time>2026-04-11T13:31:27.496Z</time></trkpt><trkpt lat="44.1104825" lon="11.6066162"><ele>671.0</ele><time>2026-04-11T13:31:28.5Z</time></trkpt><trkpt lat="44.1107035" lon="11.6066822"><ele>671.0</ele><time>2026-04-11T13:31:31.496Z</time></trkpt><trkpt lat="44.110768" lon="11.606705"><ele>671.0</ele><time>2026-04-11T13:31:32.495Z</time></trkpt><trkpt lat="44.1108307" lon="11.6067258"><ele>671.0</ele><time>2026-04-11T13:31:33.497Z</time></trkpt><trkpt lat="44.1109562" lon="11.6067483"><ele>672.1666666666666</ele><time>2026-04-11T13:31:35.495Z</time></trkpt><trkpt lat="44.1110205" lon="11.6067347"><ele>673.3333333333333</ele><time>2026-04-11T13:31:36.492Z</time></trkpt><trkpt lat="44.1110908" lon="11.6067058"><ele>674.5</ele><time>2026-04-11T13:31:37.493Z</time></trkpt><trkpt lat="44.11117" lon="11.6066735"><ele>675.6666666666666</ele><time>2026-04-11T13:31:38.492Z</time></trkpt><trkpt lat="44.1112567" lon="11.6066507"><ele>676.8333333333334</ele><time>2026-04-11T13:31:39.494Z</time></trkpt><trkpt lat="44.111337" lon="11.6066527"><ele>678.0</ele><time>2026-04-11T13:31:40.494Z</time></trkpt><trkpt lat="44.1114042" lon="11.6066887"><ele>678.0</ele><time>2026-04-11T13:31:41.497Z</time></trkpt><trkpt lat="44.111455" lon="11.6067575"><ele>678.0</ele><time>2026-04-11T13:31:42.497Z</time></trkpt><trkpt lat="44.1115035" lon="11.6068552"><ele>678.0</ele><time>2026-04-11T13:31:43.496Z</time></trkpt><trkpt lat="44.1115515" lon="11.6069482"><ele>678.0</ele><time>2026-04-11T13:31:44.495Z</time></trkpt><trkpt lat="44.111607" lon="11.6070068"><ele>678.0</ele><time>2026-04-11T13:31:45.492Z</time></trkpt><trkpt lat="44.111724" lon="11.6069837"><ele>678.0</ele><time>2026-04-11T13:31:47.494Z</time></trkpt><trkpt lat="44.1117747" lon="11.6069132"><ele>680.0</ele><time>2026-04-11T13:31:48.494Z</time></trkpt><trkpt lat="44.1118273" lon="11.6068327"><ele>682.0</ele><time>2026-04-11T13:31:49.492Z</time></trkpt><trkpt lat="44.1118957" lon="11.6067722"><ele>684.0</ele><time>2026-04-11T13:31:50.495Z</time></trkpt><trkpt lat="44.1119792" lon="11.6067285"><ele>686.0</ele><time>2026-04-11T13:31:51.493Z</time></trkpt><trkpt lat="44.112073" lon="11.6066897"><ele>688.0</ele><time>2026-04-11T13:31:52.495Z</time></trkpt><trkpt lat="44.112168" lon="11.6066495"><ele>690.0</ele><time>2026-04-11T13:31:53.496Z</time></trkpt><trkpt lat="44.1122493" lon="11.606603"><ele>690.0</ele><time>2026-04-11T13:31:54.494Z</time></trkpt><trkpt lat="44.1123162" lon="11.6065407"><ele>690.0</ele><time>2026-04-11T13:31:55.495Z</time></trkpt><trkpt lat="44.1123675" lon="11.6064857"><ele>690.0</ele><time>2026-04-11T13:31:56.493Z</time></trkpt><trkpt lat="44.1124542" lon="11.6064718"><ele>690.0</ele><time>2026-04-11T13:31:58.492Z</time></trkpt><trkpt lat="44.1125118" lon="11.6065855"><ele>690.0</ele><time>2026-04-11T13:32:00.491Z</time></trkpt><trkpt lat="44.1125328" lon="11.606676"><ele>690.0</ele><time>2026-04-11T13:32:01.489Z</time></trkpt><trkpt lat="44.1126288" lon="11.6068512"><ele>688.8</ele><time>2026-04-11T13:32:04.491Z</time></trkpt><trkpt lat="44.1126927" lon="11.6069658"><ele>687.6</ele><time>2026-04-11T13:32:06.492Z</time></trkpt><trkpt lat="44.1127808" lon="11.6070255"><ele>686.4000000000001</ele><time>2026-04-11T13:32:08.493Z</time></trkpt><trkpt lat="44.112888" lon="11.607068"><ele>685.2</ele><time>2026-04-11T13:32:10.492Z</time></trkpt><trkpt lat="44.1129918" lon="11.6070972"><ele>684.0</ele><time>2026-04-11T13:32:12.496Z</time></trkpt><trkpt lat="44.1130943" lon="11.6071252"><ele>684.0</ele><time>2026-04-11T13:32:14.492Z</time></trkpt><trkpt lat="44.1131857" lon="11.6071377"><ele>684.0</ele><time>2026-04-11T13:32:16.494Z</time></trkpt><trkpt lat="44.1133023" lon="11.6071147"><ele>684.0</ele><time>2026-04-11T13:32:18.492Z</time></trkpt><trkpt lat="44.1133658" lon="11.6071053"><ele>684.0</ele><time>2026-04-11T13:32:19.491Z</time></trkpt><trkpt lat="44.1134832" lon="11.6070728"><ele>684.0</ele><time>2026-04-11T13:32:21.491Z</time></trkpt><trkpt lat="44.1135497" lon="11.607062"><ele>689.6</ele><time>2026-04-11T13:32:22.489Z</time></trkpt><trkpt lat="44.1136663" lon="11.607144"><ele>695.2</ele><time>2026-04-11T13:32:24.492Z</time></trkpt><trkpt lat="44.1137198" lon="11.6072122"><ele>700.8000000000001</ele><time>2026-04-11T13:32:25.487Z</time></trkpt><trkpt lat="44.1137807" lon="11.6072713"><ele>706.4000000000001</ele><time>2026-04-11T13:32:26.487Z</time></trkpt><trkpt lat="44.1138733" lon="11.6073878"><ele>712.0</ele><time>2026-04-11T13:32:28.487Z</time></trkpt><trkpt lat="44.1139067" lon="11.6074685"><ele>712.0</ele><time>2026-04-11T13:32:29.488Z</time></trkpt><trkpt lat="44.1139272" lon="11.6075678"><ele>712.0</ele><time>2026-04-11T13:32:30.489Z</time></trkpt><trkpt lat="44.1139412" lon="11.6076755"><ele>712.0</ele><time>2026-04-11T13:32:31.489Z</time></trkpt><trkpt lat="44.113961" lon="11.607791"><ele>712.0</ele><time>2026-04-11T13:32:32.492Z</time></trkpt><trkpt lat="44.1139838" lon="11.6079105"><ele>712.0</ele><time>2026-04-11T13:32:33.489Z</time></trkpt><trkpt lat="44.1140403" lon="11.6082417"><ele>717.2</ele><time>2026-04-11T13:32:36.49Z</time></trkpt><trkpt lat="44.1141162" lon="11.6083622"><ele>722.4000000000001</ele><time>2026-04-11T13:32:38.49Z</time></trkpt><trkpt lat="44.1141837" lon="11.6084673"><ele>727.5999999999999</ele><time>2026-04-11T13:32:40.493Z</time></trkpt><trkpt lat="44.1142202" lon="11.6086353"><ele>732.8</ele><time>2026-04-11T13:32:42.493Z</time></trkpt><trkpt lat="44.1142375" lon="11.6087353"><ele>738.0</ele><time>2026-04-11T13:32:43.494Z</time></trkpt><trkpt lat="44.1142608" lon="11.6088303"><ele>738.0</ele><time>2026-04-11T13:32:44.492Z</time></trkpt><trkpt lat="44.1143017" lon="11.6088973"><ele>738.0</ele><time>2026-04-11T13:32:45.494Z</time></trkpt><trkpt lat="44.114377" lon="11.6088873"><ele>738.0</ele><time>2026-04-11T13:32:47.496Z</time></trkpt><trkpt lat="44.114416" lon="11.6087465"><ele>738.0</ele><time>2026-04-11T13:32:49.492Z</time></trkpt><trkpt lat="44.1144308" lon="11.6086503"><ele>738.0</ele><time>2026-04-11T13:32:50.493Z</time></trkpt><trkpt lat="44.1144282" lon="11.6085025"><ele>738.0</ele><time>2026-04-11T13:32:52.492Z</time></trkpt><trkpt lat="44.1144107" lon="11.6083727"><ele>738.1666666666666</ele><time>2026-04-11T13:32:54.495Z</time></trkpt><trkpt lat="44.1144282" lon="11.6082627"><ele>738.3333333333334</ele><time>2026-04-11T13:32:56.494Z</time></trkpt><trkpt lat="44.1144763" lon="11.6081562"><ele>738.5</ele><time>2026-04-11T13:32:58.494Z</time></trkpt><trkpt lat="44.1145285" lon="11.6080462"><ele>738.6666666666667</ele><time>2026-04-11T13:33:00.494Z</time></trkpt><trkpt lat="44.1145918" lon="11.6079603"><ele>738.8333333333334</ele><time>2026-04-11T13:33:02.494Z</time></trkpt><trkpt lat="44.1146185" lon="11.6078748"><ele>739.0</ele><time>2026-04-11T13:33:05.493Z</time></trkpt><trkpt lat="44.1146157" lon="11.6077605"><ele>740.5</ele><time>2026-04-11T13:33:10.492Z</time></trkpt><trkpt lat="44.114631" lon="11.6076642"><ele>742.0</ele><time>2026-04-11T13:33:14.493Z</time></trkpt><trkpt lat="44.1146227" lon="11.6075652"><ele>743.5</ele><time>2026-04-11T13:33:16.492Z</time></trkpt><trkpt lat="44.1146158" lon="11.6074228"><ele>745.0</ele><time>2026-04-11T13:33:19.492Z</time></trkpt><trkpt lat="44.1146357" lon="11.6073042"><ele>746.5</ele><time>2026-04-11T13:33:21.493Z</time></trkpt><trkpt lat="44.1146238" lon="11.6071877"><ele>748.0</ele><time>2026-04-11T13:33:24.494Z</time></trkpt><trkpt lat="44.1146058" lon="11.6070765"><ele>750.5714285714286</ele><time>2026-04-11T13:33:26.493Z</time></trkpt><trkpt lat="44.114555" lon="11.6069928"><ele>753.1428571428572</ele><time>2026-04-11T13:33:28.492Z</time></trkpt><trkpt lat="44.1145032" lon="11.6069295"><ele>755.7142857142858</ele><time>2026-04-11T13:33:30.494Z</time></trkpt><trkpt lat="44.1144693" lon="11.6068353"><ele>758.2857142857142</ele><time>2026-04-11T13:33:32.493Z</time></trkpt><trkpt lat="44.1144592" lon="11.6067347"><ele>760.8571428571429</ele><time>2026-04-11T13:33:34.493Z</time></trkpt><trkpt lat="44.114441" lon="11.6066497"><ele>763.4285714285714</ele><time>2026-04-11T13:33:36.492Z</time></trkpt><trkpt lat="44.1143948" lon="11.6065705"><ele>766.0</ele><time>2026-04-11T13:33:38.492Z</time></trkpt><trkpt lat="44.1143685" lon="11.6064788"><ele>766.0</ele><time>2026-04-11T13:33:40.491Z</time></trkpt><trkpt lat="44.1143532" lon="11.606385"><ele>766.0</ele><time>2026-04-11T13:33:44.495Z</time></trkpt><trkpt lat="44.1143053" lon="11.6062788"><ele>766.0</ele><time>2026-04-11T13:33:48.492Z</time></trkpt><trkpt lat="44.1142383" lon="11.6062325"><ele>766.0</ele><time>2026-04-11T13:33:50.494Z</time></trkpt><trkpt lat="44.1141947" lon="11.6061273"><ele>766.0</ele><time>2026-04-11T13:33:53.493Z</time></trkpt><trkpt lat="44.114183" lon="11.6060215"><ele>766.0</ele><time>2026-04-11T13:33:55.492Z</time></trkpt><trkpt lat="44.114204" lon="11.6059185"><ele>768.3333333333334</ele><time>2026-04-11T13:33:57.493Z</time></trkpt><trkpt lat="44.114156" lon="11.605809"><ele>770.6666666666667</ele><time>2026-04-11T13:34:00.493Z</time></trkpt><trkpt lat="44.1141047" lon="11.6057303"><ele>773.0</ele><time>2026-04-11T13:34:02.492Z</time></trkpt><trkpt lat="44.1140457" lon="11.6056415"><ele>775.3333333333334</ele><time>2026-04-11T13:34:05.489Z</time></trkpt><trkpt lat="44.1139848" lon="11.6055487"><ele>777.6666666666666</ele><time>2026-04-11T13:34:07.491Z</time></trkpt><trkpt lat="44.1139238" lon="11.6054543"><ele>780.0</ele><time>2026-04-11T13:34:09.494Z</time></trkpt><trkpt lat="44.1138687" lon="11.6053677"><ele>778.5</ele><time>2026-04-11T13:34:11.493Z</time></trkpt><trkpt lat="44.1138335" lon="11.6052858"><ele>777.0</ele><time>2026-04-11T13:34:13.492Z</time></trkpt><trkpt lat="44.1138035" lon="11.6051182"><ele>775.5</ele><time>2026-04-11T13:34:16.493Z</time></trkpt><trkpt lat="44.1137598" lon="11.6050245"><ele>774.0</ele><time>2026-04-11T13:34:18.492Z</time></trkpt><trkpt lat="44.1137052" lon="11.6049178"><ele>772.5</ele><time>2026-04-11T13:34:21.492Z</time></trkpt><trkpt lat="44.1136555" lon="11.6048318"><ele>771.0</ele><time>2026-04-11T13:34:24.493Z</time></trkpt><trkpt lat="44.1136063" lon="11.6047278"><ele>771.0</ele><time>2026-04-11T13:34:27.49Z</time></trkpt><trkpt lat="44.1135575" lon="11.6046617"><ele>771.0</ele><time>2026-04-11T13:34:29.491Z</time></trkpt><trkpt lat="44.1134967" lon="11.604598"><ele>771.0</ele><time>2026-04-11T13:34:32.492Z</time></trkpt><trkpt lat="44.1134553" lon="11.6045228"><ele>771.0</ele><time>2026-04-11T13:34:35.492Z</time></trkpt><trkpt lat="44.113378" lon="11.6044552"><ele>771.0</ele><time>2026-04-11T13:34:38.491Z</time></trkpt><trkpt lat="44.113297" lon="11.6043822"><ele>771.0</ele><time>2026-04-11T13:34:40.492Z</time></trkpt><trkpt lat="44.1132033" lon="11.6042903"><ele>774.1666666666666</ele><time>2026-04-11T13:34:42.492Z</time></trkpt><trkpt lat="44.1131397" lon="11.6041788"><ele>777.3333333333333</ele><time>2026-04-11T13:34:44.493Z</time></trkpt><trkpt lat="44.1130955" lon="11.6040948"><ele>780.5</ele><time>2026-04-11T13:34:46.492Z</time></trkpt><trkpt lat="44.1130257" lon="11.60406"><ele>783.6666666666666</ele><time>2026-04-11T13:34:48.492Z</time></trkpt><trkpt lat="44.1129555" lon="11.6040315"><ele>786.8333333333333</ele><time>2026-04-11T13:34:50.493Z</time></trkpt><trkpt lat="44.1128982" lon="11.6039903"><ele>790.0</ele><time>2026-04-11T13:34:52.49Z</time></trkpt><trkpt lat="44.1128335" lon="11.603932"><ele>789.9999999999999</ele><time>2026-04-11T13:34:55.493Z</time></trkpt><trkpt lat="44.1127602" lon="11.6038903"><ele>790.0</ele><time>2026-04-11T13:34:58.492Z</time></trkpt><trkpt lat="44.1127123" lon="11.6038172"><ele>790.0</ele><time>2026-04-11T13:35:01.494Z</time></trkpt><trkpt lat="44.1126428" lon="11.6037103"><ele>790.0</ele><time>2026-04-11T13:35:04.492Z</time></trkpt><trkpt lat="44.1125975" lon="11.6036283"><ele>789.9999999999999</ele><time>2026-04-11T13:35:06.492Z</time></trkpt><trkpt lat="44.1125488" lon="11.6035437"><ele>790.0</ele><time>2026-04-11T13:35:08.492Z</time></trkpt><trkpt lat="44.1124903" lon="11.6034292"><ele>789.4999999999999</ele><time>2026-04-11T13:35:10.491Z</time></trkpt><trkpt lat="44.1124125" lon="11.6033467"><ele>789.0</ele><time>2026-04-11T13:35:12.492Z</time></trkpt><trkpt lat="44.112336" lon="11.6033072"><ele>788.5</ele><time>2026-04-11T13:35:15.492Z</time></trkpt><trkpt lat="44.1122683" lon="11.603255"><ele>788.0</ele><time>2026-04-11T13:35:18.491Z</time></trkpt><trkpt lat="44.1122172" lon="11.6031942"><ele>787.4999999999999</ele><time>2026-04-11T13:35:26.496Z</time></trkpt><trkpt lat="44.1121677" lon="11.6031253"><ele>787.0</ele><time>2026-04-11T13:35:35.494Z</time></trkpt><trkpt lat="44.1121172" lon="11.6030448"><ele>786.9999999999999</ele><time>2026-04-11T13:35:39.493Z</time></trkpt><trkpt lat="44.112077" lon="11.6029647"><ele>787.0</ele><time>2026-04-11T13:35:42.497Z</time></trkpt><trkpt lat="44.1120307" lon="11.6028742"><ele>787.0</ele><time>2026-04-11T13:35:45.493Z</time></trkpt><trkpt lat="44.1119935" lon="11.602791"><ele>787.0</ele><time>2026-04-11T13:35:47.495Z</time></trkpt><trkpt lat="44.1119847" lon="11.6027023"><ele>786.9999999999999</ele><time>2026-04-11T13:35:50.495Z</time></trkpt><trkpt lat="44.1119762" lon="11.6025618"><ele>787.0</ele><time>2026-04-11T13:35:54.496Z</time></trkpt><trkpt lat="44.1119288" lon="11.602463"><ele>788.4999999999999</ele><time>2026-04-11T13:35:57.493Z</time></trkpt><trkpt lat="44.1118842" lon="11.6023638"><ele>790.0</ele><time>2026-04-11T13:35:59.494Z</time></trkpt><trkpt lat="44.1118275" lon="11.6022797"><ele>791.5</ele><time>2026-04-11T13:36:01.493Z</time></trkpt><trkpt lat="44.111771" lon="11.6021998"><ele>793.0</ele><time>2026-04-11T13:36:03.5Z</time></trkpt><trkpt lat="44.1117212" lon="11.602119"><ele>794.4999999999999</ele><time>2026-04-11T13:36:05.492Z</time></trkpt><trkpt lat="44.1116728" lon="11.6020155"><ele>796.0</ele><time>2026-04-11T13:36:07.489Z</time></trkpt><trkpt lat="44.1116017" lon="11.6019108"><ele>790.4999999999999</ele><time>2026-04-11T13:36:09.491Z</time></trkpt><trkpt lat="44.1115373" lon="11.6018148"><ele>785.0</ele><time>2026-04-11T13:36:11.49Z</time></trkpt><trkpt lat="44.1115177" lon="11.6017217"><ele>779.5</ele><time>2026-04-11T13:36:13.491Z</time></trkpt><trkpt lat="44.1114793" lon="11.6016162"><ele>774.0</ele><time>2026-04-11T13:36:15.493Z</time></trkpt><trkpt lat="44.111442" lon="11.6015122"><ele>768.5</ele><time>2026-04-11T13:36:17.492Z</time></trkpt><trkpt lat="44.1113853" lon="11.601404"><ele>763.0</ele><time>2026-04-11T13:36:19.49Z</time></trkpt><trkpt lat="44.1113247" lon="11.6013007"><ele>763.0</ele><time>2026-04-11T13:36:21.492Z</time></trkpt><trkpt lat="44.1112867" lon="11.6011735"><ele>763.0</ele><time>2026-04-11T13:36:23.492Z</time></trkpt><trkpt lat="44.1112442" lon="11.6010385"><ele>763.0</ele><time>2026-04-11T13:36:25.492Z</time></trkpt><trkpt lat="44.1111815" lon="11.600847"><ele>763.0</ele><time>2026-04-11T13:36:27.493Z</time></trkpt><trkpt lat="44.1111382" lon="11.600749"><ele>763.0</ele><time>2026-04-11T13:36:28.491Z</time></trkpt><trkpt lat="44.111093" lon="11.6006568"><ele>764.8571428571429</ele><time>2026-04-11T13:36:29.492Z</time></trkpt><trkpt lat="44.1110477" lon="11.600573"><ele>766.7142857142858</ele><time>2026-04-11T13:36:30.492Z</time></trkpt><trkpt lat="44.1110032" lon="11.6004907"><ele>768.5714285714286</ele><time>2026-04-11T13:36:31.492Z</time></trkpt><trkpt lat="44.1109658" lon="11.6004065"><ele>770.4285714285714</ele><time>2026-04-11T13:36:32.492Z</time></trkpt><trkpt lat="44.1109268" lon="11.6003117"><ele>772.2857142857143</ele><time>2026-04-11T13:36:33.492Z</time></trkpt><trkpt lat="44.1108813" lon="11.6002277"><ele>774.1428571428571</ele><time>2026-04-11T13:36:34.494Z</time></trkpt><trkpt lat="44.1108322" lon="11.600158"><ele>776.0</ele><time>2026-04-11T13:36:35.495Z</time></trkpt><trkpt lat="44.110783" lon="11.6000883"><ele>773.0000000000001</ele><time>2026-04-11T13:36:36.496Z</time></trkpt><trkpt lat="44.110729" lon="11.6000113"><ele>770.0</ele><time>2026-04-11T13:36:37.494Z</time></trkpt><trkpt lat="44.1106797" lon="11.5999325"><ele>767.0</ele><time>2026-04-11T13:36:38.495Z</time></trkpt><trkpt lat="44.1106287" lon="11.5998283"><ele>764.0</ele><time>2026-04-11T13:36:40.495Z</time></trkpt><trkpt lat="44.1106137" lon="11.5997362"><ele>761.0</ele><time>2026-04-11T13:36:44.495Z</time></trkpt><trkpt lat="44.1106173" lon="11.5996153"><ele>758.0</ele><time>2026-04-11T13:36:48.495Z</time></trkpt><trkpt lat="44.110576" lon="11.5994872"><ele>758.0</ele><time>2026-04-11T13:36:50.494Z</time></trkpt><trkpt lat="44.1105567" lon="11.5993647"><ele>758.0</ele><time>2026-04-11T13:36:52.496Z</time></trkpt><trkpt lat="44.110542" lon="11.5992248"><ele>758.0</ele><time>2026-04-11T13:36:54.494Z</time></trkpt><trkpt lat="44.110538" lon="11.5991142"><ele>758.0</ele><time>2026-04-11T13:36:56.494Z</time></trkpt><trkpt lat="44.1105495" lon="11.5990265"><ele>758.0</ele><time>2026-04-11T13:36:58.494Z</time></trkpt><trkpt lat="44.1105742" lon="11.5989328"><ele>758.0</ele><time>2026-04-11T13:37:00.495Z</time></trkpt><trkpt lat="44.1105903" lon="11.5988303"><ele>758.0</ele><time>2026-04-11T13:37:02.496Z</time></trkpt><trkpt lat="44.1105893" lon="11.5986997"><ele>758.0</ele><time>2026-04-11T13:37:05.493Z</time></trkpt><trkpt lat="44.110595" lon="11.5986002"><ele>758.0</ele><time>2026-04-11T13:37:08.494Z</time></trkpt><trkpt lat="44.1105922" lon="11.5984933"><ele>758.0</ele><time>2026-04-11T13:37:11.495Z</time></trkpt><trkpt lat="44.1105657" lon="11.5983815"><ele>758.0</ele><time>2026-04-11T13:37:13.496Z</time></trkpt><trkpt lat="44.1105342" lon="11.5982447"><ele>758.0</ele><time>2026-04-11T13:37:15.494Z</time></trkpt><trkpt lat="44.1105023" lon="11.5981245"><ele>758.3333333333333</ele><time>2026-04-11T13:37:17.496Z</time></trkpt><trkpt lat="44.1104602" lon="11.5980305"><ele>758.6666666666666</ele><time>2026-04-11T13:37:20.494Z</time></trkpt><trkpt lat="44.1104147" lon="11.597941"><ele>759.0</ele><time>2026-04-11T13:37:24.495Z</time></trkpt><trkpt lat="44.1103687" lon="11.5978535"><ele>759.3333333333334</ele><time>2026-04-11T13:37:29.496Z</time></trkpt><trkpt lat="44.1103055" lon="11.5977447"><ele>759.6666666666667</ele><time>2026-04-11T13:37:33.495Z</time></trkpt><trkpt lat="44.1102758" lon="11.5976667"><ele>760.0</ele><time>2026-04-11T13:37:36.495Z</time></trkpt><trkpt lat="44.1102365" lon="11.5975833"><ele>759.0</ele><time>2026-04-11T13:37:39.494Z</time></trkpt><trkpt lat="44.1101937" lon="11.5975152"><ele>758.0</ele><time>2026-04-11T13:37:46.491Z</time></trkpt><trkpt lat="44.1101342" lon="11.5974475"><ele>757.0</ele><time>2026-04-11T13:37:49.494Z</time></trkpt><trkpt lat="44.1100838" lon="11.5973728"><ele>756.0</ele><time>2026-04-11T13:37:51.496Z</time></trkpt><trkpt lat="44.1100313" lon="11.5972907"><ele>755.0</ele><time>2026-04-11T13:37:53.497Z</time></trkpt><trkpt lat="44.1099578" lon="11.5972047"><ele>754.0</ele><time>2026-04-11T13:37:55.493Z</time></trkpt><trkpt lat="44.1099077" lon="11.5971277"><ele>754.0</ele><time>2026-04-11T13:37:57.496Z</time></trkpt><trkpt lat="44.1098792" lon="11.5970403"><ele>754.0</ele><time>2026-04-11T13:38:00.496Z</time></trkpt><trkpt lat="44.1098623" lon="11.5969385"><ele>754.0</ele><time>2026-04-11T13:38:02.496Z</time></trkpt><trkpt lat="44.1098713" lon="11.5967072"><ele>754.0</ele><time>2026-04-11T13:38:06.496Z</time></trkpt><trkpt lat="44.1099297" lon="11.5966423"><ele>754.0</ele><time>2026-04-11T13:38:08.492Z</time></trkpt><trkpt lat="44.1100042" lon="11.5966133"><ele>756.6666666666667</ele><time>2026-04-11T13:38:10.493Z</time></trkpt><trkpt lat="44.1101055" lon="11.5965913"><ele>759.3333333333334</ele><time>2026-04-11T13:38:12.496Z</time></trkpt><trkpt lat="44.1101723" lon="11.5965595"><ele>762.0</ele><time>2026-04-11T13:38:13.493Z</time></trkpt><trkpt lat="44.1102425" lon="11.5965247"><ele>764.6666666666667</ele><time>2026-04-11T13:38:14.493Z</time></trkpt><trkpt lat="44.110314" lon="11.5964933"><ele>767.3333333333334</ele><time>2026-04-11T13:38:15.492Z</time></trkpt><trkpt lat="44.1103813" lon="11.5964673"><ele>770.0</ele><time>2026-04-11T13:38:16.493Z</time></trkpt><trkpt lat="44.1104432" lon="11.596441"><ele>770.0</ele><time>2026-04-11T13:38:17.494Z</time></trkpt><trkpt lat="44.1105042" lon="11.5964127"><ele>770.0</ele><time>2026-04-11T13:38:18.495Z</time></trkpt><trkpt lat="44.1106083" lon="11.5963542"><ele>770.0</ele><time>2026-04-11T13:38:20.495Z</time></trkpt><trkpt lat="44.1107148" lon="11.5963088"><ele>770.0</ele><time>2026-04-11T13:38:22.496Z</time></trkpt><trkpt lat="44.110797" lon="11.5962403"><ele>770.0</ele><time>2026-04-11T13:38:24.496Z</time></trkpt><trkpt lat="44.1108777" lon="11.5961593"><ele>770.8</ele><time>2026-04-11T13:38:26.495Z</time></trkpt><trkpt lat="44.1109508" lon="11.596111"><ele>771.6</ele><time>2026-04-11T13:38:28.494Z</time></trkpt><trkpt lat="44.111029" lon="11.5961073"><ele>772.4000000000001</ele><time>2026-04-11T13:38:33.492Z</time></trkpt><trkpt lat="44.1110905" lon="11.5960208"><ele>773.2</ele><time>2026-04-11T13:38:36.495Z</time></trkpt><trkpt lat="44.1111562" lon="11.5958125"><ele>774.0</ele><time>2026-04-11T13:38:40.493Z</time></trkpt><trkpt lat="44.1111943" lon="11.595663"><ele>774.0</ele><time>2026-04-11T13:38:42.495Z</time></trkpt><trkpt lat="44.111179" lon="11.5955655"><ele>774.0</ele><time>2026-04-11T13:38:44.495Z</time></trkpt><trkpt lat="44.1112465" lon="11.5955388"><ele>774.0</ele><time>2026-04-11T13:38:48.495Z</time></trkpt><trkpt lat="44.1113185" lon="11.5955517"><ele>774.0</ele><time>2026-04-11T13:39:00.493Z</time></trkpt><trkpt lat="44.1113788" lon="11.5954897"><ele>774.0</ele><time>2026-04-11T13:39:02.495Z</time></trkpt><trkpt lat="44.1114162" lon="11.5953603"><ele>774.0</ele><time>2026-04-11T13:39:04.494Z</time></trkpt><trkpt lat="44.1114643" lon="11.5952238"><ele>776.6</ele><time>2026-04-11T13:39:06.493Z</time></trkpt><trkpt lat="44.1115203" lon="11.59507"><ele>779.2</ele><time>2026-04-11T13:39:08.494Z</time></trkpt><trkpt lat="44.1115745" lon="11.594939"><ele>781.8000000000001</ele><time>2026-04-11T13:39:10.491Z</time></trkpt><trkpt lat="44.1116105" lon="11.5948192"><ele>784.4000000000001</ele><time>2026-04-11T13:39:12.491Z</time></trkpt><trkpt lat="44.11162" lon="11.594672"><ele>787.0</ele><time>2026-04-11T13:39:14.491Z</time></trkpt><trkpt lat="44.111652" lon="11.5945658"><ele>787.8</ele><time>2026-04-11T13:39:16.491Z</time></trkpt><trkpt lat="44.1117468" lon="11.5945072"><ele>788.6</ele><time>2026-04-11T13:39:18.49Z</time></trkpt><trkpt lat="44.1118083" lon="11.5944882"><ele>789.4</ele><time>2026-04-11T13:39:19.488Z</time></trkpt><trkpt lat="44.1119133" lon="11.5944522"><ele>790.1999999999999</ele><time>2026-04-11T13:39:21.489Z</time></trkpt><trkpt lat="44.1119927" lon="11.594386"><ele>791.0</ele><time>2026-04-11T13:39:23.489Z</time></trkpt><trkpt lat="44.1121005" lon="11.5943327"><ele>794.3333333333334</ele><time>2026-04-11T13:39:25.489Z</time></trkpt><trkpt lat="44.112164" lon="11.594325"><ele>797.6666666666667</ele><time>2026-04-11T13:39:26.49Z</time></trkpt><trkpt lat="44.11223" lon="11.5942963"><ele>801.0</ele><time>2026-04-11T13:39:27.492Z</time></trkpt><trkpt lat="44.1123123" lon="11.594194"><ele>804.3333333333333</ele><time>2026-04-11T13:39:29.491Z</time></trkpt><trkpt lat="44.1123332" lon="11.5940417"><ele>807.6666666666666</ele><time>2026-04-11T13:39:31.492Z</time></trkpt><trkpt lat="44.1123153" lon="11.5939143"><ele>811.0</ele><time>2026-04-11T13:39:33.493Z</time></trkpt><trkpt lat="44.112276" lon="11.5938098"><ele>811.0</ele><time>2026-04-11T13:39:36.492Z</time></trkpt><trkpt lat="44.1122477" lon="11.5937037"><ele>811.0</ele><time>2026-04-11T13:39:39.492Z</time></trkpt><trkpt lat="44.1122092" lon="11.5936005"><ele>811.0</ele><time>2026-04-11T13:39:41.493Z</time></trkpt><trkpt lat="44.1121143" lon="11.593486"><ele>811.0</ele><time>2026-04-11T13:39:43.491Z</time></trkpt><trkpt lat="44.1120253" lon="11.5934222"><ele>811.0</ele><time>2026-04-11T13:39:45.493Z</time></trkpt><trkpt lat="44.1119717" lon="11.5933698"><ele>811.4</ele><time>2026-04-11T13:39:47.693Z</time></trkpt><trkpt lat="44.1119335" lon="11.5932587"><ele>811.8</ele><time>2026-04-11T13:39:49.3Z</time></trkpt><trkpt lat="44.1119252" lon="11.5931412"><ele>812.1999999999999</ele><time>2026-04-11T13:39:51.301Z</time></trkpt><trkpt lat="44.111953" lon="11.5930035"><ele>812.5999999999999</ele><time>2026-04-11T13:39:54.303Z</time></trkpt><trkpt lat="44.1120113" lon="11.592854"><ele>813.0</ele><time>2026-04-11T13:39:56.492Z</time></trkpt><trkpt lat="44.1120182" lon="11.5927168"><ele>813.0</ele><time>2026-04-11T13:39:58.493Z</time></trkpt><trkpt lat="44.1119863" lon="11.5925568"><ele>813.0</ele><time>2026-04-11T13:40:00.494Z</time></trkpt><trkpt lat="44.1119632" lon="11.5924603"><ele>813.0</ele><time>2026-04-11T13:40:01.492Z</time></trkpt><trkpt lat="44.1119343" lon="11.592369"><ele>813.0</ele><time>2026-04-11T13:40:02.493Z</time></trkpt><trkpt lat="44.1118978" lon="11.5922867"><ele>813.0</ele><time>2026-04-11T13:40:03.495Z</time></trkpt><trkpt lat="44.1118603" lon="11.5922088"><ele>813.0</ele><time>2026-04-11T13:40:04.492Z</time></trkpt><trkpt lat="44.111821" lon="11.5921223"><ele>813.0</ele><time>2026-04-11T13:40:05.493Z</time></trkpt><trkpt lat="44.1117842" lon="11.5920277"><ele>813.0</ele><time>2026-04-11T13:40:06.491Z</time></trkpt><trkpt lat="44.1117383" lon="11.5919547"><ele>813.0</ele><time>2026-04-11T13:40:07.493Z</time></trkpt><trkpt lat="44.1116858" lon="11.5918883"><ele>813.0</ele><time>2026-04-11T13:40:08.491Z</time></trkpt><trkpt lat="44.1116308" lon="11.5918373"><ele>813.0</ele><time>2026-04-11T13:40:09.49Z</time></trkpt><trkpt lat="44.1115693" lon="11.591792"><ele>813.0</ele><time>2026-04-11T13:40:10.492Z</time></trkpt><trkpt lat="44.111517" lon="11.5917422"><ele>813.0</ele><time>2026-04-11T13:40:11.489Z</time></trkpt><trkpt lat="44.1114663" lon="11.5916832"><ele>813.0</ele><time>2026-04-11T13:40:12.489Z</time></trkpt><trkpt lat="44.1113953" lon="11.5916002"><ele>813.0</ele><time>2026-04-11T13:40:14.493Z</time></trkpt><trkpt lat="44.1112838" lon="11.5915447"><ele>813.0</ele><time>2026-04-11T13:40:18.493Z</time></trkpt><trkpt lat="44.1111732" lon="11.5914588"><ele>813.0</ele><time>2026-04-11T13:40:20.489Z</time></trkpt><trkpt lat="44.1110623" lon="11.5914165"><ele>813.0</ele><time>2026-04-11T13:40:22.492Z</time></trkpt><trkpt lat="44.1109763" lon="11.5913758"><ele>813.0</ele><time>2026-04-11T13:40:24.492Z</time></trkpt><trkpt lat="44.1108915" lon="11.5912978"><ele>813.0</ele><time>2026-04-11T13:40:26.493Z</time></trkpt><trkpt lat="44.1108147" lon="11.5911873"><ele>813.0</ele><time>2026-04-11T13:40:28.492Z</time></trkpt><trkpt lat="44.1107537" lon="11.5910282"><ele>813.0</ele><time>2026-04-11T13:40:30.492Z</time></trkpt><trkpt lat="44.110732" lon="11.5909025"><ele>812.5999999999999</ele><time>2026-04-11T13:40:32.494Z</time></trkpt><trkpt lat="44.1107848" lon="11.590825"><ele>812.1999999999999</ele><time>2026-04-11T13:40:34.495Z</time></trkpt><trkpt lat="44.1108955" lon="11.5907102"><ele>811.8</ele><time>2026-04-11T13:40:36.491Z</time></trkpt><trkpt lat="44.1109595" lon="11.5906218"><ele>811.4</ele><time>2026-04-11T13:40:37.49Z</time></trkpt><trkpt lat="44.1110188" lon="11.5905308"><ele>811.0</ele><time>2026-04-11T13:40:38.492Z</time></trkpt><trkpt lat="44.1110632" lon="11.5904378"><ele>811.0</ele><time>2026-04-11T13:40:39.494Z</time></trkpt><trkpt lat="44.111086" lon="11.5903468"><ele>811.0</ele><time>2026-04-11T13:40:40.491Z</time></trkpt><trkpt lat="44.1110698" lon="11.5901693"><ele>811.0</ele><time>2026-04-11T13:40:42.493Z</time></trkpt><trkpt lat="44.1110333" lon="11.5900573"><ele>811.0</ele><time>2026-04-11T13:40:43.495Z</time></trkpt><trkpt lat="44.1109973" lon="11.5899445"><ele>811.0</ele><time>2026-04-11T13:40:44.493Z</time></trkpt><trkpt lat="44.1109698" lon="11.5898453"><ele>810.4</ele><time>2026-04-11T13:40:45.496Z</time></trkpt><trkpt lat="44.1109465" lon="11.5897452"><ele>809.8</ele><time>2026-04-11T13:40:46.494Z</time></trkpt><trkpt lat="44.1109173" lon="11.589656"><ele>809.1999999999999</ele><time>2026-04-11T13:40:47.494Z</time></trkpt><trkpt lat="44.1108777" lon="11.589579"><ele>808.5999999999999</ele><time>2026-04-11T13:40:48.492Z</time></trkpt><trkpt lat="44.1107132" lon="11.5895082"><ele>808.0</ele><time>2026-04-11T13:40:51.492Z</time></trkpt><trkpt lat="44.1106422" lon="11.5894998"><ele>807.9999999999999</ele><time>2026-04-11T13:40:52.494Z</time></trkpt><trkpt lat="44.1105732" lon="11.5894718"><ele>808.0</ele><time>2026-04-11T13:40:53.494Z</time></trkpt><trkpt lat="44.1105138" lon="11.5894248"><ele>808.0</ele><time>2026-04-11T13:40:54.494Z</time></trkpt><trkpt lat="44.110461" lon="11.589364"><ele>808.0</ele><time>2026-04-11T13:40:55.493Z</time></trkpt><trkpt lat="44.110406" lon="11.5893135"><ele>807.9999999999999</ele><time>2026-04-11T13:40:56.497Z</time></trkpt><trkpt lat="44.1103102" lon="11.5892352"><ele>808.0</ele><time>2026-04-11T13:40:58.494Z</time></trkpt><trkpt lat="44.1102127" lon="11.5891343"><ele>807.9999999999999</ele><time>2026-04-11T13:41:00.495Z</time></trkpt><trkpt lat="44.1101668" lon="11.5890688"><ele>808.0</ele><time>2026-04-11T13:41:01.493Z</time></trkpt><trkpt lat="44.1101355" lon="11.5889875"><ele>808.0</ele><time>2026-04-11T13:41:02.494Z</time></trkpt><trkpt lat="44.1101032" lon="11.5888913"><ele>808.0</ele><time>2026-04-11T13:41:03.494Z</time></trkpt><trkpt lat="44.1100712" lon="11.5887867"><ele>807.9999999999999</ele><time>2026-04-11T13:41:04.496Z</time></trkpt><trkpt lat="44.1100457" lon="11.5886758"><ele>808.0</ele><time>2026-04-11T13:41:05.496Z</time></trkpt><trkpt lat="44.1100318" lon="11.5885652"><ele>809.2857142857142</ele><time>2026-04-11T13:41:06.496Z</time></trkpt><trkpt lat="44.110039" lon="11.588471"><ele>810.5714285714286</ele><time>2026-04-11T13:41:07.495Z</time></trkpt><trkpt lat="44.110057" lon="11.588379"><ele>811.8571428571429</ele><time>2026-04-11T13:41:08.494Z</time></trkpt><trkpt lat="44.1100882" lon="11.5882863"><ele>813.1428571428571</ele><time>2026-04-11T13:41:09.492Z</time></trkpt><trkpt lat="44.1101165" lon="11.5881908"><ele>814.4285714285714</ele><time>2026-04-11T13:41:10.493Z</time></trkpt><trkpt lat="44.1101388" lon="11.5880978"><ele>815.7142857142857</ele><time>2026-04-11T13:41:11.493Z</time></trkpt><trkpt lat="44.1101607" lon="11.5880075"><ele>817.0</ele><time>2026-04-11T13:41:12.495Z</time></trkpt><trkpt lat="44.1101867" lon="11.587921"><ele>820.1666666666666</ele><time>2026-04-11T13:41:13.493Z</time></trkpt><trkpt lat="44.1102168" lon="11.5878197"><ele>823.3333333333333</ele><time>2026-04-11T13:41:14.493Z</time></trkpt><trkpt lat="44.110233" lon="11.5877342"><ele>826.5</ele><time>2026-04-11T13:41:15.492Z</time></trkpt><trkpt lat="44.1102538" lon="11.5875613"><ele>829.6666666666667</ele><time>2026-04-11T13:41:17.493Z</time></trkpt><trkpt lat="44.1102202" lon="11.5874232"><ele>832.8333333333334</ele><time>2026-04-11T13:41:19.494Z</time></trkpt><trkpt lat="44.1101745" lon="11.587342"><ele>836.0</ele><time>2026-04-11T13:41:20.494Z</time></trkpt><trkpt lat="44.1101052" lon="11.5872105"><ele>836.0000000000001</ele><time>2026-04-11T13:41:22.493Z</time></trkpt><trkpt lat="44.1100762" lon="11.587107"><ele>836.0</ele><time>2026-04-11T13:41:24.491Z</time></trkpt><trkpt lat="44.1100398" lon="11.5870315"><ele>836.0</ele><time>2026-04-11T13:41:26.492Z</time></trkpt><trkpt lat="44.1099735" lon="11.5869635"><ele>836.0</ele><time>2026-04-11T13:41:29.492Z</time></trkpt><trkpt lat="44.109878" lon="11.586901"><ele>836.0000000000001</ele><time>2026-04-11T13:41:32.492Z</time></trkpt><trkpt lat="44.1098197" lon="11.5867888"><ele>836.0</ele><time>2026-04-11T13:41:34.491Z</time></trkpt><trkpt lat="44.1097417" lon="11.5866772"><ele>836.4</ele><time>2026-04-11T13:41:36.492Z</time></trkpt><trkpt lat="44.1096953" lon="11.5866123"><ele>836.8</ele><time>2026-04-11T13:41:37.492Z</time></trkpt><trkpt lat="44.1096065" lon="11.5865112"><ele>837.1999999999999</ele><time>2026-04-11T13:41:39.493Z</time></trkpt><trkpt lat="44.1095405" lon="11.5863802"><ele>837.5999999999999</ele><time>2026-04-11T13:41:41.491Z</time></trkpt><trkpt lat="44.1094647" lon="11.586234"><ele>838.0</ele><time>2026-04-11T13:41:43.492Z</time></trkpt><trkpt lat="44.1094147" lon="11.5861418"><ele>837.9999999999999</ele><time>2026-04-11T13:41:44.491Z</time></trkpt><trkpt lat="44.1093658" lon="11.5860668"><ele>838.0</ele><time>2026-04-11T13:41:45.499Z</time></trkpt><trkpt lat="44.1093157" lon="11.585998"><ele>838.0</ele><time>2026-04-11T13:41:46.494Z</time></trkpt><trkpt lat="44.1092597" lon="11.585936"><ele>838.0</ele><time>2026-04-11T13:41:47.492Z</time></trkpt><trkpt lat="44.1092243" lon="11.5858617"><ele>838.0</ele><time>2026-04-11T13:41:48.491Z</time></trkpt><trkpt lat="44.1091892" lon="11.5857747"><ele>837.9999999999999</ele><time>2026-04-11T13:41:49.491Z</time></trkpt><trkpt lat="44.1091622" lon="11.585694"><ele>838.0</ele><time>2026-04-11T13:41:50.491Z</time></trkpt><trkpt lat="44.1091055" lon="11.5855442"><ele>839.0</ele><time>2026-04-11T13:41:52.491Z</time></trkpt><trkpt lat="44.1090635" lon="11.5854397"><ele>840.0</ele><time>2026-04-11T13:41:53.491Z</time></trkpt><trkpt lat="44.1090095" lon="11.5853297"><ele>841.0</ele><time>2026-04-11T13:41:54.49Z</time></trkpt><trkpt lat="44.1089468" lon="11.5852342"><ele>842.0</ele><time>2026-04-11T13:41:55.491Z</time></trkpt><trkpt lat="44.1087915" lon="11.5850425"><ele>842.5</ele><time>2026-04-11T13:41:58.492Z</time></trkpt><trkpt lat="44.1086997" lon="11.5849053"><ele>843.0</ele><time>2026-04-11T13:42:00.491Z</time></trkpt><trkpt lat="44.1086197" lon="11.5847923"><ele>843.5</ele><time>2026-04-11T13:42:02.491Z</time></trkpt><trkpt lat="44.1085508" lon="11.5846988"><ele>844.0</ele><time>2026-04-11T13:42:04.49Z</time></trkpt><trkpt lat="44.1084597" lon="11.5845937"><ele>842.6</ele><time>2026-04-11T13:42:06.494Z</time></trkpt><trkpt lat="44.1083948" lon="11.5844495"><ele>841.2</ele><time>2026-04-11T13:42:08.495Z</time></trkpt><trkpt lat="44.108364" lon="11.5843153"><ele>839.8000000000001</ele><time>2026-04-11T13:42:10.495Z</time></trkpt><trkpt lat="44.1082628" lon="11.5842657"><ele>838.4000000000001</ele><time>2026-04-11T13:42:12.493Z</time></trkpt><trkpt lat="44.1081853" lon="11.584204"><ele>837.0</ele><time>2026-04-11T13:42:14.492Z</time></trkpt><trkpt lat="44.1081708" lon="11.5841165"><ele>837.0</ele><time>2026-04-11T13:42:18.497Z</time></trkpt><trkpt lat="44.1082043" lon="11.584023"><ele>837.0</ele><time>2026-04-11T13:42:25.497Z</time></trkpt><trkpt lat="44.1082942" lon="11.5839318"><ele>837.0</ele><time>2026-04-11T13:42:27.494Z</time></trkpt><trkpt lat="44.1084363" lon="11.5837497"><ele>837.0</ele><time>2026-04-11T13:42:30.496Z</time></trkpt><trkpt lat="44.1084813" lon="11.5836722"><ele>834.6</ele><time>2026-04-11T13:42:31.494Z</time></trkpt><trkpt lat="44.1085242" lon="11.5835863"><ele>832.2</ele><time>2026-04-11T13:42:32.495Z</time></trkpt><trkpt lat="44.1085635" lon="11.583501"><ele>829.8</ele><time>2026-04-11T13:42:33.494Z</time></trkpt><trkpt lat="44.1086325" lon="11.58337"><ele>827.4</ele><time>2026-04-11T13:42:35.495Z</time></trkpt><trkpt lat="44.1087192" lon="11.5832555"><ele>825.0</ele><time>2026-04-11T13:42:37.493Z</time></trkpt><trkpt lat="44.1087838" lon="11.5832003"><ele>825.0</ele><time>2026-04-11T13:42:38.494Z</time></trkpt><trkpt lat="44.1088513" lon="11.583129"><ele>825.0</ele><time>2026-04-11T13:42:39.494Z</time></trkpt><trkpt lat="44.1089" lon="11.5830473"><ele>825.0</ele><time>2026-04-11T13:42:40.493Z</time></trkpt><trkpt lat="44.1089408" lon="11.5828847"><ele>825.0</ele><time>2026-04-11T13:42:42.493Z</time></trkpt><trkpt lat="44.108951" lon="11.5827113"><ele>825.0</ele><time>2026-04-11T13:42:44.495Z</time></trkpt><trkpt lat="44.1089677" lon="11.5826185"><ele>825.1428571428571</ele><time>2026-04-11T13:42:45.494Z</time></trkpt><trkpt lat="44.1089973" lon="11.5825347"><ele>825.2857142857143</ele><time>2026-04-11T13:42:46.494Z</time></trkpt><trkpt lat="44.1090388" lon="11.582463"><ele>825.4285714285714</ele><time>2026-04-11T13:42:47.495Z</time></trkpt><trkpt lat="44.1090957" lon="11.5823943"><ele>825.5714285714286</ele><time>2026-04-11T13:42:48.496Z</time></trkpt><trkpt lat="44.1091613" lon="11.5823275"><ele>825.7142857142858</ele><time>2026-04-11T13:42:49.497Z</time></trkpt><trkpt lat="44.1092203" lon="11.5822585"><ele>825.8571428571429</ele><time>2026-04-11T13:42:50.496Z</time></trkpt><trkpt lat="44.109268" lon="11.5821782"><ele>826.0</ele><time>2026-04-11T13:42:51.495Z</time></trkpt><trkpt lat="44.1093098" lon="11.5820908"><ele>822.4999999999999</ele><time>2026-04-11T13:42:52.498Z</time></trkpt><trkpt lat="44.109341" lon="11.5819907"><ele>819.0</ele><time>2026-04-11T13:42:53.495Z</time></trkpt><trkpt lat="44.1093522" lon="11.5818825"><ele>815.5</ele><time>2026-04-11T13:42:54.495Z</time></trkpt><trkpt lat="44.1093508" lon="11.5817705"><ele>812.0</ele><time>2026-04-11T13:42:55.496Z</time></trkpt><trkpt lat="44.1093538" lon="11.5816487"><ele>808.4999999999999</ele><time>2026-04-11T13:42:56.495Z</time></trkpt><trkpt lat="44.1093722" lon="11.5815173"><ele>805.0</ele><time>2026-04-11T13:42:57.496Z</time></trkpt><trkpt lat="44.1094047" lon="11.5813708"><ele>805.0</ele><time>2026-04-11T13:42:58.495Z</time></trkpt><trkpt lat="44.1094435" lon="11.58122"><ele>805.0</ele><time>2026-04-11T13:42:59.496Z</time></trkpt><trkpt lat="44.1094762" lon="11.581076"><ele>805.0</ele><time>2026-04-11T13:43:00.497Z</time></trkpt><trkpt lat="44.1094847" lon="11.5809377"><ele>805.0</ele><time>2026-04-11T13:43:01.495Z</time></trkpt><trkpt lat="44.1094882" lon="11.5806543"><ele>802.4999999999999</ele><time>2026-04-11T13:43:03.493Z</time></trkpt><trkpt lat="44.1094945" lon="11.580522"><ele>800.0</ele><time>2026-04-11T13:43:04.493Z</time></trkpt><trkpt lat="44.1094797" lon="11.5804"><ele>797.5</ele><time>2026-04-11T13:43:05.493Z</time></trkpt><trkpt lat="44.1094425" lon="11.580291"><ele>795.0</ele><time>2026-04-11T13:43:06.495Z</time></trkpt><trkpt lat="44.1093992" lon="11.5801963"><ele>792.4999999999999</ele><time>2026-04-11T13:43:07.494Z</time></trkpt><trkpt lat="44.1093667" lon="11.580099"><ele>790.0</ele><time>2026-04-11T13:43:08.498Z</time></trkpt><trkpt lat="44.109357" lon="11.5799945"><ele>789.9999999999999</ele><time>2026-04-11T13:43:09.496Z</time></trkpt><trkpt lat="44.109368" lon="11.5798863"><ele>790.0</ele><time>2026-04-11T13:43:10.496Z</time></trkpt><trkpt lat="44.1093983" lon="11.5797718"><ele>790.0</ele><time>2026-04-11T13:43:11.496Z</time></trkpt><trkpt lat="44.1094422" lon="11.5796562"><ele>790.0</ele><time>2026-04-11T13:43:12.495Z</time></trkpt><trkpt lat="44.1094962" lon="11.5795612"><ele>789.9999999999999</ele><time>2026-04-11T13:43:13.494Z</time></trkpt><trkpt lat="44.1095675" lon="11.5794865"><ele>790.0</ele><time>2026-04-11T13:43:14.494Z</time></trkpt><trkpt lat="44.1096543" lon="11.5794347"><ele>788.8</ele><time>2026-04-11T13:43:15.494Z</time></trkpt><trkpt lat="44.1097563" lon="11.5793998"><ele>787.6</ele><time>2026-04-11T13:43:16.494Z</time></trkpt><trkpt lat="44.10986" lon="11.5793597"><ele>786.4000000000001</ele><time>2026-04-11T13:43:17.496Z</time></trkpt><trkpt lat="44.1099497" lon="11.5793007"><ele>785.2</ele><time>2026-04-11T13:43:18.495Z</time></trkpt><trkpt lat="44.1100303" lon="11.5792243"><ele>784.0</ele><time>2026-04-11T13:43:19.494Z</time></trkpt><trkpt lat="44.110096" lon="11.5791322"><ele>784.6</ele><time>2026-04-11T13:43:20.494Z</time></trkpt><trkpt lat="44.1101447" lon="11.579019"><ele>785.2</ele><time>2026-04-11T13:43:21.495Z</time></trkpt><trkpt lat="44.1101757" lon="11.5788845"><ele>785.8000000000001</ele><time>2026-04-11T13:43:22.496Z</time></trkpt><trkpt lat="44.1101962" lon="11.5787303"><ele>786.4000000000001</ele><time>2026-04-11T13:43:23.496Z</time></trkpt><trkpt lat="44.1102198" lon="11.5785645"><ele>787.0</ele><time>2026-04-11T13:43:24.496Z</time></trkpt><trkpt lat="44.1102552" lon="11.5783977"><ele>787.0</ele><time>2026-04-11T13:43:25.497Z</time></trkpt><trkpt lat="44.1103027" lon="11.5782258"><ele>787.0</ele><time>2026-04-11T13:43:26.495Z</time></trkpt><trkpt lat="44.1103588" lon="11.5780482"><ele>787.0</ele><time>2026-04-11T13:43:27.494Z</time></trkpt><trkpt lat="44.1104135" lon="11.5778727"><ele>787.0</ele><time>2026-04-11T13:43:28.495Z</time></trkpt><trkpt lat="44.1104655" lon="11.5777117"><ele>782.25</ele><time>2026-04-11T13:43:29.495Z</time></trkpt><trkpt lat="44.1105072" lon="11.5775548"><ele>777.5</ele><time>2026-04-11T13:43:30.498Z</time></trkpt><trkpt lat="44.1105432" lon="11.5773918"><ele>772.75</ele><time>2026-04-11T13:43:31.497Z</time></trkpt><trkpt lat="44.110581" lon="11.5772307"><ele>768.0</ele><time>2026-04-11T13:43:32.496Z</time></trkpt><trkpt lat="44.1106228" lon="11.5770745"><ele>777.0</ele><time>2026-04-11T13:43:33.496Z</time></trkpt><trkpt lat="44.1107837" lon="11.576658"><ele>786.0</ele><time>2026-04-11T13:43:36.496Z</time></trkpt><trkpt lat="44.1108405" lon="11.5765165"><ele>786.0</ele><time>2026-04-11T13:43:37.494Z</time></trkpt><trkpt lat="44.1108957" lon="11.5763687"><ele>786.0</ele><time>2026-04-11T13:43:38.496Z</time></trkpt><trkpt lat="44.110956" lon="11.5762188"><ele>786.0</ele><time>2026-04-11T13:43:39.496Z</time></trkpt><trkpt lat="44.1110258" lon="11.5760763"><ele>786.0</ele><time>2026-04-11T13:43:40.497Z</time></trkpt><trkpt lat="44.1111048" lon="11.5759482"><ele>786.8</ele><time>2026-04-11T13:43:41.496Z</time></trkpt><trkpt lat="44.1111743" lon="11.5758173"><ele>787.5999999999999</ele><time>2026-04-11T13:43:42.5Z</time></trkpt><trkpt lat="44.1112247" lon="11.5756913"><ele>788.4</ele><time>2026-04-11T13:43:43.496Z</time></trkpt><trkpt lat="44.1112683" lon="11.5755855"><ele>789.2</ele><time>2026-04-11T13:43:44.496Z</time></trkpt><trkpt lat="44.1113225" lon="11.5755097"><ele>790.0</ele><time>2026-04-11T13:43:45.496Z</time></trkpt><trkpt lat="44.1113893" lon="11.5754607"><ele>790.0</ele><time>2026-04-11T13:43:46.497Z</time></trkpt><trkpt lat="44.1114682" lon="11.5754198"><ele>790.0</ele><time>2026-04-11T13:43:47.496Z</time></trkpt><trkpt lat="44.1115537" lon="11.5753882"><ele>790.0</ele><time>2026-04-11T13:43:48.499Z</time></trkpt><trkpt lat="44.111655" lon="11.575367"><ele>790.0</ele><time>2026-04-11T13:43:49.496Z</time></trkpt><trkpt lat="44.111771" lon="11.5753485"><ele>790.0</ele><time>2026-04-11T13:43:50.496Z</time></trkpt><trkpt lat="44.1118985" lon="11.575324"><ele>789.25</ele><time>2026-04-11T13:43:51.493Z</time></trkpt><trkpt lat="44.1120358" lon="11.5752953"><ele>788.5</ele><time>2026-04-11T13:43:52.494Z</time></trkpt><trkpt lat="44.1121687" lon="11.575266"><ele>787.75</ele><time>2026-04-11T13:43:53.494Z</time></trkpt><trkpt lat="44.1122992" lon="11.5752332"><ele>787.0</ele><time>2026-04-11T13:43:54.495Z</time></trkpt><trkpt lat="44.1124302" lon="11.5751963"><ele>784.75</ele><time>2026-04-11T13:43:55.495Z</time></trkpt><trkpt lat="44.1125637" lon="11.575149"><ele>782.5</ele><time>2026-04-11T13:43:56.496Z</time></trkpt><trkpt lat="44.1126997" lon="11.5750935"><ele>780.25</ele><time>2026-04-11T13:43:57.497Z</time></trkpt><trkpt lat="44.112826" lon="11.5750335"><ele>778.0</ele><time>2026-04-11T13:43:58.496Z</time></trkpt><trkpt lat="44.112938" lon="11.5749652"><ele>778.0</ele><time>2026-04-11T13:43:59.497Z</time></trkpt><trkpt lat="44.1130357" lon="11.5748903"><ele>778.0</ele><time>2026-04-11T13:44:00.497Z</time></trkpt><trkpt lat="44.1131223" lon="11.5748132"><ele>778.0</ele><time>2026-04-11T13:44:01.497Z</time></trkpt><trkpt lat="44.1131962" lon="11.5747308"><ele>778.0</ele><time>2026-04-11T13:44:02.498Z</time></trkpt><trkpt lat="44.1132537" lon="11.5746447"><ele>778.0</ele><time>2026-04-11T13:44:03.496Z</time></trkpt><trkpt lat="44.1132912" lon="11.5745582"><ele>776.1666666666666</ele><time>2026-04-11T13:44:04.495Z</time></trkpt><trkpt lat="44.1133218" lon="11.5744693"><ele>774.3333333333333</ele><time>2026-04-11T13:44:05.495Z</time></trkpt><trkpt lat="44.1133515" lon="11.574378"><ele>772.5</ele><time>2026-04-11T13:44:06.496Z</time></trkpt><trkpt lat="44.113408" lon="11.5741783"><ele>770.6666666666666</ele><time>2026-04-11T13:44:08.497Z</time></trkpt><trkpt lat="44.1134435" lon="11.5740882"><ele>768.8333333333333</ele><time>2026-04-11T13:44:09.497Z</time></trkpt><trkpt lat="44.1134872" lon="11.5740115"><ele>767.0</ele><time>2026-04-11T13:44:10.497Z</time></trkpt><trkpt lat="44.1135353" lon="11.5739335"><ele>767.0</ele><time>2026-04-11T13:44:11.497Z</time></trkpt><trkpt lat="44.113594" lon="11.573858"><ele>767.0</ele><time>2026-04-11T13:44:12.497Z</time></trkpt><trkpt lat="44.1136643" lon="11.5737742"><ele>767.0</ele><time>2026-04-11T13:44:13.495Z</time></trkpt><trkpt lat="44.1137528" lon="11.5736727"><ele>767.0</ele><time>2026-04-11T13:44:14.496Z</time></trkpt><trkpt lat="44.1138573" lon="11.5735528"><ele>767.0</ele><time>2026-04-11T13:44:15.494Z</time></trkpt><trkpt lat="44.1139777" lon="11.5734128"><ele>765.25</ele><time>2026-04-11T13:44:16.493Z</time></trkpt><trkpt lat="44.114096" lon="11.5732747"><ele>763.5</ele><time>2026-04-11T13:44:17.494Z</time></trkpt><trkpt lat="44.1141995" lon="11.5731578"><ele>761.75</ele><time>2026-04-11T13:44:18.493Z</time></trkpt><trkpt lat="44.1142987" lon="11.5730542"><ele>760.0</ele><time>2026-04-11T13:44:19.494Z</time></trkpt><trkpt lat="44.114404" lon="11.5729565"><ele>760.0</ele><time>2026-04-11T13:44:20.496Z</time></trkpt><trkpt lat="44.114514" lon="11.5728605"><ele>760.0</ele><time>2026-04-11T13:44:21.496Z</time></trkpt><trkpt lat="44.1146218" lon="11.572773"><ele>760.0</ele><time>2026-04-11T13:44:22.496Z</time></trkpt><trkpt lat="44.1147237" lon="11.5726942"><ele>760.0</ele><time>2026-04-11T13:44:23.496Z</time></trkpt><trkpt lat="44.1148162" lon="11.5726162"><ele>760.6</ele><time>2026-04-11T13:44:24.497Z</time></trkpt><trkpt lat="44.1149028" lon="11.572535"><ele>761.2</ele><time>2026-04-11T13:44:25.494Z</time></trkpt><trkpt lat="44.1149763" lon="11.5724668"><ele>761.8</ele><time>2026-04-11T13:44:26.495Z</time></trkpt><trkpt lat="44.1150357" lon="11.5724027"><ele>762.4</ele><time>2026-04-11T13:44:27.495Z</time></trkpt><trkpt lat="44.1150883" lon="11.5723467"><ele>763.0</ele><time>2026-04-11T13:44:28.495Z</time></trkpt><trkpt lat="44.1151937" lon="11.5722757"><ele>763.3333333333334</ele><time>2026-04-11T13:44:30.493Z</time></trkpt><trkpt lat="44.1152995" lon="11.5722173"><ele>763.6666666666667</ele><time>2026-04-11T13:44:32.493Z</time></trkpt><trkpt lat="44.1153587" lon="11.5721813"><ele>764.0</ele><time>2026-04-11T13:44:33.492Z</time></trkpt><trkpt lat="44.1154225" lon="11.5721545"><ele>764.3333333333334</ele><time>2026-04-11T13:44:34.494Z</time></trkpt><trkpt lat="44.1154928" lon="11.5721272"><ele>764.6666666666666</ele><time>2026-04-11T13:44:35.494Z</time></trkpt><trkpt lat="44.1155592" lon="11.5721053"><ele>765.0</ele><time>2026-04-11T13:44:36.496Z</time></trkpt><trkpt lat="44.1156658" lon="11.5720778"><ele>765.0</ele><time>2026-04-11T13:44:38.494Z</time></trkpt><trkpt lat="44.1158092" lon="11.572044"><ele>765.0</ele><time>2026-04-11T13:44:41.492Z</time></trkpt><trkpt lat="44.1159052" lon="11.5720378"><ele>765.0</ele><time>2026-04-11T13:44:43.493Z</time></trkpt><trkpt lat="44.1160192" lon="11.5720627"><ele>765.0</ele><time>2026-04-11T13:44:45.497Z</time></trkpt><trkpt lat="44.1161363" lon="11.5719973"><ele>765.0</ele><time>2026-04-11T13:44:47.496Z</time></trkpt><trkpt lat="44.1161907" lon="11.5719195"><ele>765.0</ele><time>2026-04-11T13:44:48.494Z</time></trkpt><trkpt lat="44.1162468" lon="11.571827"><ele>765.0</ele><time>2026-04-11T13:44:49.495Z</time></trkpt><trkpt lat="44.1163002" lon="11.571728"><ele>765.0</ele><time>2026-04-11T13:44:50.495Z</time></trkpt><trkpt lat="44.116346" lon="11.571632"><ele>765.0</ele><time>2026-04-11T13:44:51.495Z</time></trkpt><trkpt lat="44.116396" lon="11.5715327"><ele>765.0</ele><time>2026-04-11T13:44:52.496Z</time></trkpt><trkpt lat="44.1164493" lon="11.5714312"><ele>765.0</ele><time>2026-04-11T13:44:53.497Z</time></trkpt><trkpt lat="44.1164987" lon="11.5713273"><ele>765.0</ele><time>2026-04-11T13:44:54.496Z</time></trkpt><trkpt lat="44.1165378" lon="11.571229"><ele>765.0</ele><time>2026-04-11T13:44:55.496Z</time></trkpt><trkpt lat="44.1165738" lon="11.5711433"><ele>765.0</ele><time>2026-04-11T13:44:56.494Z</time></trkpt><trkpt lat="44.1166113" lon="11.5710618"><ele>765.0</ele><time>2026-04-11T13:44:57.495Z</time></trkpt><trkpt lat="44.1166532" lon="11.5709762"><ele>765.0</ele><time>2026-04-11T13:44:58.495Z</time></trkpt><trkpt lat="44.1166965" lon="11.5709028"><ele>764.8</ele><time>2026-04-11T13:44:59.495Z</time></trkpt><trkpt lat="44.1167893" lon="11.5707957"><ele>764.6</ele><time>2026-04-11T13:45:01.495Z</time></trkpt><trkpt lat="44.1168577" lon="11.5706748"><ele>764.4000000000001</ele><time>2026-04-11T13:45:03.494Z</time></trkpt><trkpt lat="44.1169187" lon="11.5705878"><ele>764.2</ele><time>2026-04-11T13:45:05.493Z</time></trkpt><trkpt lat="44.1169782" lon="11.570553"><ele>764.0</ele><time>2026-04-11T13:45:08.493Z</time></trkpt><trkpt lat="44.1170525" lon="11.5704897"><ele>764.0</ele><time>2026-04-11T13:45:11.494Z</time></trkpt><trkpt lat="44.1171402" lon="11.5704082"><ele>764.0</ele><time>2026-04-11T13:45:14.495Z</time></trkpt><trkpt lat="44.1172045" lon="11.5703812"><ele>764.0</ele><time>2026-04-11T13:45:16.493Z</time></trkpt><trkpt lat="44.117267" lon="11.5703403"><ele>764.0</ele><time>2026-04-11T13:45:18.495Z</time></trkpt><trkpt lat="44.117331" lon="11.5702643"><ele>764.0</ele><time>2026-04-11T13:45:21.495Z</time></trkpt><trkpt lat="44.1174052" lon="11.5702963"><ele>764.0</ele><time>2026-04-11T13:45:23.498Z</time></trkpt><trkpt lat="44.1174773" lon="11.5703087"><ele>762.3333333333333</ele><time>2026-04-11T13:45:25.494Z</time></trkpt><trkpt lat="44.1175498" lon="11.5703582"><ele>760.6666666666666</ele><time>2026-04-11T13:45:27.494Z</time></trkpt><trkpt lat="44.1176237" lon="11.5703842"><ele>759.0</ele><time>2026-04-11T13:45:30.494Z</time></trkpt><trkpt lat="44.1177192" lon="11.5703883"><ele>757.3333333333334</ele><time>2026-04-11T13:45:34.494Z</time></trkpt><trkpt lat="44.1178413" lon="11.5703972"><ele>755.6666666666667</ele><time>2026-04-11T13:45:36.495Z</time></trkpt><trkpt lat="44.1179053" lon="11.5704232"><ele>754.0</ele><time>2026-04-11T13:45:37.496Z</time></trkpt><trkpt lat="44.1179635" lon="11.5704568"><ele>754.0</ele><time>2026-04-11T13:45:38.497Z</time></trkpt><trkpt lat="44.1180725" lon="11.570527"><ele>754.0</ele><time>2026-04-11T13:45:40.494Z</time></trkpt><trkpt lat="44.1181548" lon="11.5705522"><ele>754.0</ele><time>2026-04-11T13:45:42.494Z</time></trkpt><trkpt lat="44.1182373" lon="11.5705295"><ele>754.0</ele><time>2026-04-11T13:45:45.494Z</time></trkpt><trkpt lat="44.1183223" lon="11.5704667"><ele>754.0</ele><time>2026-04-11T13:45:47.495Z</time></trkpt><trkpt lat="44.1183662" lon="11.5704018"><ele>754.0</ele><time>2026-04-11T13:45:48.496Z</time></trkpt><trkpt lat="44.1184065" lon="11.5703233"><ele>751.6666666666667</ele><time>2026-04-11T13:45:49.494Z</time></trkpt><trkpt lat="44.1184455" lon="11.5702442"><ele>749.3333333333334</ele><time>2026-04-11T13:45:50.494Z</time></trkpt><trkpt lat="44.1184913" lon="11.5701702"><ele>747.0</ele><time>2026-04-11T13:45:51.495Z</time></trkpt><trkpt lat="44.1185477" lon="11.5701192"><ele>744.6666666666666</ele><time>2026-04-11T13:45:52.495Z</time></trkpt><trkpt lat="44.118664" lon="11.5701088"><ele>742.3333333333333</ele><time>2026-04-11T13:45:54.493Z</time></trkpt><trkpt lat="44.1187628" lon="11.5701853"><ele>740.0</ele><time>2026-04-11T13:45:56.492Z</time></trkpt><trkpt lat="44.1188482" lon="11.5701792"><ele>740.0</ele><time>2026-04-11T13:45:58.495Z</time></trkpt><trkpt lat="44.1189058" lon="11.5701355"><ele>740.0</ele><time>2026-04-11T13:45:59.496Z</time></trkpt><trkpt lat="44.1189748" lon="11.5700613"><ele>740.0</ele><time>2026-04-11T13:46:00.495Z</time></trkpt><trkpt lat="44.1190585" lon="11.569968"><ele>740.0</ele><time>2026-04-11T13:46:01.494Z</time></trkpt><trkpt lat="44.1191588" lon="11.5698697"><ele>740.0</ele><time>2026-04-11T13:46:02.495Z</time></trkpt><trkpt lat="44.119269" lon="11.5697678"><ele>740.8</ele><time>2026-04-11T13:46:03.494Z</time></trkpt><trkpt lat="44.1193733" lon="11.5696798"><ele>741.6</ele><time>2026-04-11T13:46:04.494Z</time></trkpt><trkpt lat="44.1194682" lon="11.5696115"><ele>742.4000000000001</ele><time>2026-04-11T13:46:05.495Z</time></trkpt><trkpt lat="44.1195443" lon="11.5695652"><ele>743.2</ele><time>2026-04-11T13:46:06.494Z</time></trkpt><trkpt lat="44.1196067" lon="11.5694638"><ele>744.0</ele><time>2026-04-11T13:46:08.493Z</time></trkpt><trkpt lat="44.1196187" lon="11.5693673"><ele>744.1428571428572</ele><time>2026-04-11T13:46:09.494Z</time></trkpt><trkpt lat="44.1196317" lon="11.5692605"><ele>744.2857142857143</ele><time>2026-04-11T13:46:10.495Z</time></trkpt><trkpt lat="44.1196583" lon="11.5691717"><ele>744.4285714285714</ele><time>2026-04-11T13:46:11.495Z</time></trkpt><trkpt lat="44.1196888" lon="11.5690892"><ele>744.5714285714287</ele><time>2026-04-11T13:46:12.495Z</time></trkpt><trkpt lat="44.119718" lon="11.5690033"><ele>744.7142857142857</ele><time>2026-04-11T13:46:13.494Z</time></trkpt><trkpt lat="44.1197367" lon="11.5689102"><ele>744.8571428571429</ele><time>2026-04-11T13:46:14.494Z</time></trkpt><trkpt lat="44.1197578" lon="11.5688122"><ele>745.0</ele><time>2026-04-11T13:46:15.494Z</time></trkpt><trkpt lat="44.1197932" lon="11.5687062"><ele>744.8</ele><time>2026-04-11T13:46:16.493Z</time></trkpt><trkpt lat="44.1198508" lon="11.5685957"><ele>744.6</ele><time>2026-04-11T13:46:17.493Z</time></trkpt><trkpt lat="44.119915" lon="11.56849"><ele>744.4000000000001</ele><time>2026-04-11T13:46:18.493Z</time></trkpt><trkpt lat="44.120031" lon="11.568308"><ele>744.2</ele><time>2026-04-11T13:46:20.491Z</time></trkpt><trkpt lat="44.1200848" lon="11.5682313"><ele>744.0</ele><time>2026-04-11T13:46:21.491Z</time></trkpt><trkpt lat="44.1201228" lon="11.5681572"><ele>744.0</ele><time>2026-04-11T13:46:22.493Z</time></trkpt><trkpt lat="44.1201542" lon="11.5680758"><ele>744.0</ele><time>2026-04-11T13:46:23.494Z</time></trkpt><trkpt lat="44.1201843" lon="11.5679883"><ele>744.0</ele><time>2026-04-11T13:46:24.494Z</time></trkpt><trkpt lat="44.1202072" lon="11.5679032"><ele>744.0</ele><time>2026-04-11T13:46:25.493Z</time></trkpt><trkpt lat="44.120209" lon="11.5677428"><ele>744.0</ele><time>2026-04-11T13:46:27.493Z</time></trkpt><trkpt lat="44.1202007" lon="11.5675775"><ele>744.0</ele><time>2026-04-11T13:46:29.497Z</time></trkpt><trkpt lat="44.1202703" lon="11.5675188"><ele>744.0</ele><time>2026-04-11T13:46:31.495Z</time></trkpt><trkpt lat="44.120354" lon="11.5676207"><ele>744.0</ele><time>2026-04-11T13:46:33.495Z</time></trkpt><trkpt lat="44.1203912" lon="11.5677032"><ele>744.0</ele><time>2026-04-11T13:46:34.496Z</time></trkpt><trkpt lat="44.1204198" lon="11.5677855"><ele>744.0</ele><time>2026-04-11T13:46:35.497Z</time></trkpt><trkpt lat="44.1204383" lon="11.5679452"><ele>744.0</ele><time>2026-04-11T13:46:37.495Z</time></trkpt><trkpt lat="44.120517" lon="11.5680633"><ele>744.0</ele><time>2026-04-11T13:46:39.493Z</time></trkpt><trkpt lat="44.1205762" lon="11.5681108"><ele>744.0</ele><time>2026-04-11T13:46:40.494Z</time></trkpt><trkpt lat="44.1206447" lon="11.5681377"><ele>744.0</ele><time>2026-04-11T13:46:41.493Z</time></trkpt><trkpt lat="44.1207542" lon="11.5681772"><ele>744.0</ele><time>2026-04-11T13:46:43.492Z</time></trkpt><trkpt lat="44.1208122" lon="11.5682455"><ele>744.0</ele><time>2026-04-11T13:46:45.492Z</time></trkpt><trkpt lat="44.1208807" lon="11.5682237"><ele>744.0</ele><time>2026-04-11T13:46:47.494Z</time></trkpt><trkpt lat="44.1209517" lon="11.5681265"><ele>738.8000000000001</ele><time>2026-04-11T13:46:49.492Z</time></trkpt><trkpt lat="44.121026" lon="11.5679988"><ele>733.6</ele><time>2026-04-11T13:46:51.494Z</time></trkpt><trkpt lat="44.1210852" lon="11.5678533"><ele>728.4</ele><time>2026-04-11T13:46:53.493Z</time></trkpt><trkpt lat="44.1211335" lon="11.5676845"><ele>723.2</ele><time>2026-04-11T13:46:55.494Z</time></trkpt><trkpt lat="44.1211753" lon="11.5676002"><ele>718.0</ele><time>2026-04-11T13:46:56.496Z</time></trkpt><trkpt lat="44.121228" lon="11.5675295"><ele>717.5999999999999</ele><time>2026-04-11T13:46:57.494Z</time></trkpt><trkpt lat="44.1212862" lon="11.5674895"><ele>717.1999999999999</ele><time>2026-04-11T13:46:58.495Z</time></trkpt><trkpt lat="44.1213783" lon="11.5675122"><ele>716.8</ele><time>2026-04-11T13:47:00.493Z</time></trkpt><trkpt lat="44.1214578" lon="11.5676137"><ele>716.4</ele><time>2026-04-11T13:47:02.494Z</time></trkpt><trkpt lat="44.1215323" lon="11.5677335"><ele>716.0</ele><time>2026-04-11T13:47:04.494Z</time></trkpt><trkpt lat="44.1216363" lon="11.5677952"><ele>712.0000000000001</ele><time>2026-04-11T13:47:06.494Z</time></trkpt><trkpt lat="44.1217015" lon="11.5677792"><ele>708.0</ele><time>2026-04-11T13:47:07.494Z</time></trkpt><trkpt lat="44.1217702" lon="11.5677472"><ele>704.0</ele><time>2026-04-11T13:47:08.494Z</time></trkpt><trkpt lat="44.1218457" lon="11.5677137"><ele>700.0</ele><time>2026-04-11T13:47:09.493Z</time></trkpt><trkpt lat="44.1219203" lon="11.5676928"><ele>696.0</ele><time>2026-04-11T13:47:10.493Z</time></trkpt><trkpt lat="44.1219878" lon="11.5677032"><ele>692.0000000000001</ele><time>2026-04-11T13:47:11.494Z</time></trkpt><trkpt lat="44.1220557" lon="11.5677273"><ele>688.0</ele><time>2026-04-11T13:47:12.494Z</time></trkpt><trkpt lat="44.1221282" lon="11.567748"><ele>688.0</ele><time>2026-04-11T13:47:13.493Z</time></trkpt><trkpt lat="44.1222095" lon="11.5677607"><ele>688.0</ele><time>2026-04-11T13:47:14.495Z</time></trkpt><trkpt lat="44.1223033" lon="11.5677473"><ele>688.0</ele><time>2026-04-11T13:47:16.495Z</time></trkpt><trkpt lat="44.1222317" lon="11.5676238"><ele>688.0</ele><time>2026-04-11T13:47:20.496Z</time></trkpt><trkpt lat="44.1221977" lon="11.5675477"><ele>688.0</ele><time>2026-04-11T13:47:21.494Z</time></trkpt><trkpt lat="44.1221718" lon="11.5674487"><ele>688.0</ele><time>2026-04-11T13:47:22.494Z</time></trkpt><trkpt lat="44.1221492" lon="11.5673453"><ele>688.0</ele><time>2026-04-11T13:47:23.494Z</time></trkpt><trkpt lat="44.122123" lon="11.5672255"><ele>688.0</ele><time>2026-04-11T13:47:24.494Z</time></trkpt><trkpt lat="44.1220382" lon="11.5669932"><ele>688.0</ele><time>2026-04-11T13:47:26.493Z</time></trkpt><trkpt lat="44.1219813" lon="11.5669012"><ele>688.0</ele><time>2026-04-11T13:47:27.493Z</time></trkpt><trkpt lat="44.1219135" lon="11.566822"><ele>686.2</ele><time>2026-04-11T13:47:28.495Z</time></trkpt><trkpt lat="44.1218382" lon="11.5667432"><ele>684.4</ele><time>2026-04-11T13:47:29.495Z</time></trkpt><trkpt lat="44.1217625" lon="11.5666662"><ele>682.6</ele><time>2026-04-11T13:47:30.496Z</time></trkpt><trkpt lat="44.121694" lon="11.5665753"><ele>680.8000000000001</ele><time>2026-04-11T13:47:31.492Z</time></trkpt><trkpt lat="44.1216248" lon="11.5664825"><ele>679.0</ele><time>2026-04-11T13:47:32.49Z</time></trkpt><trkpt lat="44.1215577" lon="11.5663938"><ele>678.2</ele><time>2026-04-11T13:47:33.492Z</time></trkpt><trkpt lat="44.1214883" lon="11.566303"><ele>677.4000000000001</ele><time>2026-04-11T13:47:34.491Z</time></trkpt><trkpt lat="44.1214212" lon="11.5662163"><ele>676.6</ele><time>2026-04-11T13:47:35.491Z</time></trkpt><trkpt lat="44.121344" lon="11.5661318"><ele>675.8</ele><time>2026-04-11T13:47:36.492Z</time></trkpt><trkpt lat="44.12125" lon="11.5660362"><ele>675.0</ele><time>2026-04-11T13:47:37.492Z</time></trkpt><trkpt lat="44.121154" lon="11.5659483"><ele>675.0</ele><time>2026-04-11T13:47:38.494Z</time></trkpt><trkpt lat="44.1210655" lon="11.5658723"><ele>675.0</ele><time>2026-04-11T13:47:39.492Z</time></trkpt><trkpt lat="44.1209828" lon="11.5658042"><ele>675.0</ele><time>2026-04-11T13:47:40.493Z</time></trkpt><trkpt lat="44.120912" lon="11.5657373"><ele>675.0</ele><time>2026-04-11T13:47:41.492Z</time></trkpt><trkpt lat="44.120864" lon="11.5656765"><ele>675.0</ele><time>2026-04-11T13:47:42.492Z</time></trkpt><trkpt lat="44.1208063" lon="11.565566"><ele>675.0</ele><time>2026-04-11T13:47:44.493Z</time></trkpt><trkpt lat="44.1207235" lon="11.5655042"><ele>676.0</ele><time>2026-04-11T13:47:46.495Z</time></trkpt><trkpt lat="44.120668" lon="11.565457"><ele>677.0</ele><time>2026-04-11T13:47:47.495Z</time></trkpt><trkpt lat="44.1206108" lon="11.5653923"><ele>678.0</ele><time>2026-04-11T13:47:48.495Z</time></trkpt><trkpt lat="44.1205458" lon="11.5653212"><ele>679.0</ele><time>2026-04-11T13:47:49.492Z</time></trkpt><trkpt lat="44.1204757" lon="11.5652432"><ele>680.0</ele><time>2026-04-11T13:47:50.493Z</time></trkpt><trkpt lat="44.120405" lon="11.5651693"><ele>681.0</ele><time>2026-04-11T13:47:51.492Z</time></trkpt><trkpt lat="44.1203303" lon="11.5651035"><ele>681.0</ele><time>2026-04-11T13:47:52.492Z</time></trkpt><trkpt lat="44.1202697" lon="11.5650322"><ele>681.0</ele><time>2026-04-11T13:47:53.493Z</time></trkpt><trkpt lat="44.1202185" lon="11.5649453"><ele>681.0</ele><time>2026-04-11T13:47:54.493Z</time></trkpt><trkpt lat="44.1201682" lon="11.5648507"><ele>681.0</ele><time>2026-04-11T13:47:55.494Z</time></trkpt><trkpt lat="44.1201178" lon="11.5647483"><ele>681.0</ele><time>2026-04-11T13:47:56.491Z</time></trkpt><trkpt lat="44.1200752" lon="11.5646425"><ele>681.0</ele><time>2026-04-11T13:47:57.492Z</time></trkpt><trkpt lat="44.1199897" lon="11.5644372"><ele>680.1666666666666</ele><time>2026-04-11T13:47:59.493Z</time></trkpt><trkpt lat="44.1199583" lon="11.5643605"><ele>679.3333333333334</ele><time>2026-04-11T13:48:00.495Z</time></trkpt><trkpt lat="44.1199002" lon="11.564232"><ele>678.5</ele><time>2026-04-11T13:48:02.494Z</time></trkpt><trkpt lat="44.1198258" lon="11.5641312"><ele>677.6666666666667</ele><time>2026-04-11T13:48:04.495Z</time></trkpt><trkpt lat="44.1197655" lon="11.5641053"><ele>676.8333333333334</ele><time>2026-04-11T13:48:05.495Z</time></trkpt><trkpt lat="44.1196983" lon="11.564082"><ele>676.0</ele><time>2026-04-11T13:48:06.496Z</time></trkpt><trkpt lat="44.1196185" lon="11.564042"><ele>676.0</ele><time>2026-04-11T13:48:07.494Z</time></trkpt><trkpt lat="44.1195313" lon="11.5639858"><ele>676.0</ele><time>2026-04-11T13:48:08.494Z</time></trkpt><trkpt lat="44.1194478" lon="11.5639278"><ele>676.0</ele><time>2026-04-11T13:48:09.492Z</time></trkpt><trkpt lat="44.1193713" lon="11.563884"><ele>676.0</ele><time>2026-04-11T13:48:10.494Z</time></trkpt><trkpt lat="44.1193113" lon="11.5638527"><ele>676.0</ele><time>2026-04-11T13:48:11.495Z</time></trkpt><trkpt lat="44.119253" lon="11.5637818"><ele>676.0</ele><time>2026-04-11T13:48:13.491Z</time></trkpt><trkpt lat="44.1192478" lon="11.5636678"><ele>676.0</ele><time>2026-04-11T13:48:15.493Z</time></trkpt><trkpt lat="44.1191982" lon="11.5635692"><ele>676.0</ele><time>2026-04-11T13:48:17.491Z</time></trkpt><trkpt lat="44.1190975" lon="11.5634715"><ele>676.0</ele><time>2026-04-11T13:48:19.493Z</time></trkpt><trkpt lat="44.1190467" lon="11.5634105"><ele>676.0</ele><time>2026-04-11T13:48:20.492Z</time></trkpt><trkpt lat="44.118999" lon="11.5633458"><ele>676.0</ele><time>2026-04-11T13:48:21.49Z</time></trkpt><trkpt lat="44.1189522" lon="11.5632863"><ele>676.0</ele><time>2026-04-11T13:48:22.49Z</time></trkpt><trkpt lat="44.118886" lon="11.5632457"><ele>676.0</ele><time>2026-04-11T13:48:23.491Z</time></trkpt><trkpt lat="44.1188088" lon="11.5632125"><ele>676.0</ele><time>2026-04-11T13:48:24.493Z</time></trkpt><trkpt lat="44.1187225" lon="11.5631802"><ele>676.0</ele><time>2026-04-11T13:48:25.493Z</time></trkpt><trkpt lat="44.1186353" lon="11.5631548"><ele>676.0</ele><time>2026-04-11T13:48:26.491Z</time></trkpt><trkpt lat="44.118546" lon="11.5631312"><ele>676.0</ele><time>2026-04-11T13:48:27.493Z</time></trkpt><trkpt lat="44.1184725" lon="11.5631055"><ele>676.0</ele><time>2026-04-11T13:48:28.495Z</time></trkpt><trkpt lat="44.1183957" lon="11.5630277"><ele>676.0</ele><time>2026-04-11T13:48:30.497Z</time></trkpt><trkpt lat="44.1183245" lon="11.562915"><ele>676.0</ele><time>2026-04-11T13:48:32.495Z</time></trkpt><trkpt lat="44.118215" lon="11.5628537"><ele>676.0</ele><time>2026-04-11T13:48:34.495Z</time></trkpt><trkpt lat="44.118151" lon="11.5628157"><ele>676.0</ele><time>2026-04-11T13:48:35.494Z</time></trkpt><trkpt lat="44.1180942" lon="11.5627593"><ele>676.0</ele><time>2026-04-11T13:48:36.494Z</time></trkpt><trkpt lat="44.1180505" lon="11.5626857"><ele>676.0</ele><time>2026-04-11T13:48:37.493Z</time></trkpt><trkpt lat="44.1179987" lon="11.5626037"><ele>675.1666666666667</ele><time>2026-04-11T13:48:38.494Z</time></trkpt><trkpt lat="44.1179432" lon="11.5625325"><ele>674.3333333333334</ele><time>2026-04-11T13:48:39.493Z</time></trkpt><trkpt lat="44.1178283" lon="11.5624697"><ele>673.5</ele><time>2026-04-11T13:48:41.498Z</time></trkpt><trkpt lat="44.1177645" lon="11.5624658"><ele>672.6666666666666</ele><time>2026-04-11T13:48:42.496Z</time></trkpt><trkpt lat="44.1176613" lon="11.5625338"><ele>671.8333333333333</ele><time>2026-04-11T13:48:44.494Z</time></trkpt><trkpt lat="44.1176075" lon="11.562584"><ele>671.0</ele><time>2026-04-11T13:48:45.493Z</time></trkpt><trkpt lat="44.1175493" lon="11.5626358"><ele>671.0</ele><time>2026-04-11T13:48:46.493Z</time></trkpt><trkpt lat="44.1174922" lon="11.5626755"><ele>671.0</ele><time>2026-04-11T13:48:47.493Z</time></trkpt><trkpt lat="44.1173757" lon="11.5626532"><ele>671.0</ele><time>2026-04-11T13:48:49.495Z</time></trkpt><trkpt lat="44.1173108" lon="11.5626112"><ele>671.0</ele><time>2026-04-11T13:48:50.495Z</time></trkpt><trkpt lat="44.1172448" lon="11.5625855"><ele>671.0</ele><time>2026-04-11T13:48:51.494Z</time></trkpt><trkpt lat="44.1171257" lon="11.5625485"><ele>671.0</ele><time>2026-04-11T13:48:53.495Z</time></trkpt><trkpt lat="44.117008" lon="11.5625322"><ele>671.1666666666666</ele><time>2026-04-11T13:48:55.493Z</time></trkpt><trkpt lat="44.1169327" lon="11.5625393"><ele>671.3333333333333</ele><time>2026-04-11T13:48:57.493Z</time></trkpt><trkpt lat="44.1168448" lon="11.562498"><ele>671.5</ele><time>2026-04-11T13:49:03.496Z</time></trkpt><trkpt lat="44.1167843" lon="11.5624577"><ele>671.6666666666666</ele><time>2026-04-11T13:49:05.494Z</time></trkpt><trkpt lat="44.1167138" lon="11.5623783"><ele>671.8333333333334</ele><time>2026-04-11T13:49:37.493Z</time></trkpt><trkpt lat="44.1166413" lon="11.5622442"><ele>672.0</ele><time>2026-04-11T13:49:39.496Z</time></trkpt><trkpt lat="44.1165992" lon="11.5621607"><ele>671.3333333333334</ele><time>2026-04-11T13:49:40.495Z</time></trkpt><trkpt lat="44.1165628" lon="11.5620727"><ele>670.6666666666666</ele><time>2026-04-11T13:49:41.496Z</time></trkpt><trkpt lat="44.1165273" lon="11.5619785"><ele>670.0</ele><time>2026-04-11T13:49:42.495Z</time></trkpt><trkpt lat="44.1164915" lon="11.5618917"><ele>669.3333333333333</ele><time>2026-04-11T13:49:43.495Z</time></trkpt><trkpt lat="44.1164645" lon="11.5618102"><ele>668.6666666666666</ele><time>2026-04-11T13:49:44.495Z</time></trkpt><trkpt lat="44.1164518" lon="11.5616527"><ele>668.0</ele><time>2026-04-11T13:49:46.495Z</time></trkpt><trkpt lat="44.1164637" lon="11.5614808"><ele>668.0</ele><time>2026-04-11T13:49:48.494Z</time></trkpt><trkpt lat="44.1164603" lon="11.5613922"><ele>668.0</ele><time>2026-04-11T13:49:49.494Z</time></trkpt><trkpt lat="44.1164082" lon="11.561306"><ele>668.0</ele><time>2026-04-11T13:49:51.495Z</time></trkpt><trkpt lat="44.1163008" lon="11.5613458"><ele>668.0</ele><time>2026-04-11T13:49:53.498Z</time></trkpt><trkpt lat="44.1162227" lon="11.5614015"><ele>668.0</ele><time>2026-04-11T13:49:54.495Z</time></trkpt><trkpt lat="44.1161327" lon="11.561465"><ele>668.0</ele><time>2026-04-11T13:49:55.494Z</time></trkpt><trkpt lat="44.1160433" lon="11.5615182"><ele>668.0</ele><time>2026-04-11T13:49:56.494Z</time></trkpt><trkpt lat="44.1159637" lon="11.5615368"><ele>668.0</ele><time>2026-04-11T13:49:57.493Z</time></trkpt><trkpt lat="44.1158912" lon="11.561534"><ele>668.0</ele><time>2026-04-11T13:49:58.495Z</time></trkpt><trkpt lat="44.115815" lon="11.5615307"><ele>668.0</ele><time>2026-04-11T13:49:59.491Z</time></trkpt><trkpt lat="44.1157337" lon="11.5615152"><ele>668.0</ele><time>2026-04-11T13:50:00.49Z</time></trkpt><trkpt lat="44.1156522" lon="11.5614923"><ele>668.0</ele><time>2026-04-11T13:50:01.489Z</time></trkpt><trkpt lat="44.1155715" lon="11.5614543"><ele>668.0</ele><time>2026-04-11T13:50:02.492Z</time></trkpt><trkpt lat="44.1154927" lon="11.561439"><ele>668.0</ele><time>2026-04-11T13:50:03.49Z</time></trkpt><trkpt lat="44.1154218" lon="11.5614205"><ele>668.0</ele><time>2026-04-11T13:50:04.489Z</time></trkpt><trkpt lat="44.115359" lon="11.561391"><ele>668.0</ele><time>2026-04-11T13:50:05.491Z</time></trkpt><trkpt lat="44.1152503" lon="11.5612913"><ele>668.0</ele><time>2026-04-11T13:50:07.49Z</time></trkpt><trkpt lat="44.1151853" lon="11.5612435"><ele>668.0</ele><time>2026-04-11T13:50:08.491Z</time></trkpt><trkpt lat="44.1151082" lon="11.5612113"><ele>664.5</ele><time>2026-04-11T13:50:09.492Z</time></trkpt><trkpt lat="44.115043" lon="11.5611788"><ele>661.0</ele><time>2026-04-11T13:50:10.491Z</time></trkpt><trkpt lat="44.1149302" lon="11.5611008"><ele>657.5</ele><time>2026-04-11T13:50:12.492Z</time></trkpt><trkpt lat="44.1148585" lon="11.561067"><ele>654.0</ele><time>2026-04-11T13:50:13.492Z</time></trkpt><trkpt lat="44.1147803" lon="11.5610252"><ele>650.5</ele><time>2026-04-11T13:50:14.491Z</time></trkpt><trkpt lat="44.114702" lon="11.5609795"><ele>647.0</ele><time>2026-04-11T13:50:15.492Z</time></trkpt><trkpt lat="44.1146292" lon="11.5609298"><ele>647.0</ele><time>2026-04-11T13:50:16.492Z</time></trkpt><trkpt lat="44.1145535" lon="11.5608788"><ele>647.0</ele><time>2026-04-11T13:50:17.494Z</time></trkpt><trkpt lat="44.114488" lon="11.5608375"><ele>647.0</ele><time>2026-04-11T13:50:18.493Z</time></trkpt><trkpt lat="44.1144302" lon="11.5607947"><ele>647.0</ele><time>2026-04-11T13:50:19.493Z</time></trkpt><trkpt lat="44.114387" lon="11.5607182"><ele>647.0</ele><time>2026-04-11T13:50:21.494Z</time></trkpt><trkpt lat="44.1143282" lon="11.5606662"><ele>647.0</ele><time>2026-04-11T13:50:38.498Z</time></trkpt><trkpt lat="44.1143613" lon="11.5605403"><ele>647.0</ele><time>2026-04-11T13:50:45.495Z</time></trkpt><trkpt lat="44.1143863" lon="11.560443"><ele>647.0</ele><time>2026-04-11T13:50:55.495Z</time></trkpt><trkpt lat="44.1144387" lon="11.560331"><ele>647.0</ele><time>2026-04-11T13:50:57.495Z</time></trkpt><trkpt lat="44.1145198" lon="11.5602163"><ele>647.0</ele><time>2026-04-11T13:50:59.494Z</time></trkpt><trkpt lat="44.1145887" lon="11.5600768"><ele>647.0</ele><time>2026-04-11T13:51:01.492Z</time></trkpt><trkpt lat="44.1146165" lon="11.5599852"><ele>649.8333333333333</ele><time>2026-04-11T13:51:02.494Z</time></trkpt><trkpt lat="44.1146477" lon="11.5598883"><ele>652.6666666666666</ele><time>2026-04-11T13:51:03.494Z</time></trkpt><trkpt lat="44.1146832" lon="11.5598013"><ele>655.5</ele><time>2026-04-11T13:51:04.493Z</time></trkpt><trkpt lat="44.1147267" lon="11.5597128"><ele>658.3333333333334</ele><time>2026-04-11T13:51:05.494Z</time></trkpt><trkpt lat="44.1147732" lon="11.559638"><ele>661.1666666666667</ele><time>2026-04-11T13:51:06.494Z</time></trkpt><trkpt lat="44.114842" lon="11.5594957"><ele>664.0</ele><time>2026-04-11T13:51:08.495Z</time></trkpt><trkpt lat="44.1148912" lon="11.559339"><ele>660.6666666666667</ele><time>2026-04-11T13:51:10.495Z</time></trkpt><trkpt lat="44.1149662" lon="11.5592323"><ele>657.3333333333334</ele><time>2026-04-11T13:51:12.491Z</time></trkpt><trkpt lat="44.1150368" lon="11.559136"><ele>654.0</ele><time>2026-04-11T13:51:14.491Z</time></trkpt><trkpt lat="44.1151142" lon="11.5590535"><ele>650.6666666666666</ele><time>2026-04-11T13:51:16.494Z</time></trkpt><trkpt lat="44.1151577" lon="11.5591232"><ele>647.3333333333333</ele><time>2026-04-11T13:51:19.497Z</time></trkpt><trkpt lat="44.1151442" lon="11.5592137"><ele>644.0</ele><time>2026-04-11T13:51:21.494Z</time></trkpt><trkpt lat="44.1152302" lon="11.5591343"><ele>644.0</ele><time>2026-04-11T13:51:25.494Z</time></trkpt><trkpt lat="44.1152875" lon="11.5589882"><ele>644.0</ele><time>2026-04-11T13:51:27.494Z</time></trkpt><trkpt lat="44.1153035" lon="11.5588632"><ele>644.0</ele><time>2026-04-11T13:51:29.494Z</time></trkpt><trkpt lat="44.1153532" lon="11.558767"><ele>644.0</ele><time>2026-04-11T13:51:32.493Z</time></trkpt><trkpt lat="44.1153822" lon="11.558644"><ele>644.0</ele><time>2026-04-11T13:51:34.493Z</time></trkpt><trkpt lat="44.1154013" lon="11.558559"><ele>645.8333333333333</ele><time>2026-04-11T13:51:35.494Z</time></trkpt><trkpt lat="44.1154828" lon="11.5584222"><ele>647.6666666666666</ele><time>2026-04-11T13:51:37.491Z</time></trkpt><trkpt lat="44.1155313" lon="11.5583452"><ele>649.5</ele><time>2026-04-11T13:51:38.493Z</time></trkpt><trkpt lat="44.1155843" lon="11.5582772"><ele>651.3333333333334</ele><time>2026-04-11T13:51:39.492Z</time></trkpt><trkpt lat="44.1156238" lon="11.5582088"><ele>653.1666666666667</ele><time>2026-04-11T13:51:40.492Z</time></trkpt><trkpt lat="44.1156498" lon="11.5581245"><ele>655.0</ele><time>2026-04-11T13:51:41.493Z</time></trkpt><trkpt lat="44.1156553" lon="11.5580308"><ele>655.0</ele><time>2026-04-11T13:51:42.494Z</time></trkpt><trkpt lat="44.1156407" lon="11.5579408"><ele>655.0</ele><time>2026-04-11T13:51:43.493Z</time></trkpt><trkpt lat="44.1155723" lon="11.5577845"><ele>655.0</ele><time>2026-04-11T13:51:45.494Z</time></trkpt><trkpt lat="44.1155313" lon="11.5576802"><ele>655.0</ele><time>2026-04-11T13:51:46.493Z</time></trkpt><trkpt lat="44.1154932" lon="11.5575715"><ele>655.0</ele><time>2026-04-11T13:51:47.495Z</time></trkpt><trkpt lat="44.1154475" lon="11.557484"><ele>655.0</ele><time>2026-04-11T13:51:48.497Z</time></trkpt><trkpt lat="44.1153158" lon="11.5572995"><ele>651.6</ele><time>2026-04-11T13:51:50.492Z</time></trkpt><trkpt lat="44.1152575" lon="11.5572233"><ele>648.2</ele><time>2026-04-11T13:51:51.492Z</time></trkpt><trkpt lat="44.1151832" lon="11.5571472"><ele>644.8</ele><time>2026-04-11T13:51:52.494Z</time></trkpt><trkpt lat="44.1151057" lon="11.5570638"><ele>641.4</ele><time>2026-04-11T13:51:53.494Z</time></trkpt><trkpt lat="44.1150332" lon="11.5569798"><ele>638.0</ele><time>2026-04-11T13:51:54.492Z</time></trkpt><trkpt lat="44.1149643" lon="11.556903"><ele>636.2857142857143</ele><time>2026-04-11T13:51:55.491Z</time></trkpt><trkpt lat="44.114901" lon="11.5568393"><ele>634.5714285714286</ele><time>2026-04-11T13:51:56.491Z</time></trkpt><trkpt lat="44.1148365" lon="11.5567815"><ele>632.8571428571429</ele><time>2026-04-11T13:51:57.491Z</time></trkpt><trkpt lat="44.1147697" lon="11.556734"><ele>631.1428571428571</ele><time>2026-04-11T13:51:58.491Z</time></trkpt><trkpt lat="44.1146985" lon="11.5566988"><ele>629.4285714285714</ele><time>2026-04-11T13:51:59.492Z</time></trkpt><trkpt lat="44.1146367" lon="11.556669"><ele>627.7142857142857</ele><time>2026-04-11T13:52:00.492Z</time></trkpt><trkpt lat="44.1145683" lon="11.5566298"><ele>626.0</ele><time>2026-04-11T13:52:01.492Z</time></trkpt><trkpt lat="44.1145053" lon="11.5565742"><ele>626.0</ele><time>2026-04-11T13:52:02.492Z</time></trkpt><trkpt lat="44.114455" lon="11.5565017"><ele>626.0</ele><time>2026-04-11T13:52:03.491Z</time></trkpt><trkpt lat="44.1143965" lon="11.5564295"><ele>626.0</ele><time>2026-04-11T13:52:04.49Z</time></trkpt><trkpt lat="44.1143237" lon="11.5563652"><ele>626.0</ele><time>2026-04-11T13:52:05.491Z</time></trkpt><trkpt lat="44.1142443" lon="11.5563158"><ele>626.0</ele><time>2026-04-11T13:52:06.491Z</time></trkpt><trkpt lat="44.1141692" lon="11.5562602"><ele>626.0</ele><time>2026-04-11T13:52:07.491Z</time></trkpt><trkpt lat="44.1140912" lon="11.5562117"><ele>623.3333333333333</ele><time>2026-04-11T13:52:08.491Z</time></trkpt><trkpt lat="44.1140073" lon="11.5561572"><ele>620.6666666666666</ele><time>2026-04-11T13:52:09.492Z</time></trkpt><trkpt lat="44.1139318" lon="11.5561128"><ele>618.0</ele><time>2026-04-11T13:52:10.49Z</time></trkpt><trkpt lat="44.1138453" lon="11.5560607"><ele>615.3333333333334</ele><time>2026-04-11T13:52:11.491Z</time></trkpt><trkpt lat="44.1137688" lon="11.5560095"><ele>612.6666666666667</ele><time>2026-04-11T13:52:12.49Z</time></trkpt><trkpt lat="44.1136988" lon="11.555938"><ele>610.0</ele><time>2026-04-11T13:52:13.489Z</time></trkpt><trkpt lat="44.1136363" lon="11.5558558"><ele>610.0</ele><time>2026-04-11T13:52:14.491Z</time></trkpt><trkpt lat="44.1135683" lon="11.5557677"><ele>610.0</ele><time>2026-04-11T13:52:15.491Z</time></trkpt><trkpt lat="44.1134958" lon="11.5556988"><ele>610.0</ele><time>2026-04-11T13:52:16.49Z</time></trkpt><trkpt lat="44.1134253" lon="11.5556392"><ele>610.0</ele><time>2026-04-11T13:52:17.489Z</time></trkpt><trkpt lat="44.1133698" lon="11.5555913"><ele>610.0</ele><time>2026-04-11T13:52:18.493Z</time></trkpt><trkpt lat="44.113322" lon="11.5555233"><ele>610.0</ele><time>2026-04-11T13:52:19.49Z</time></trkpt><trkpt lat="44.1132962" lon="11.5554393"><ele>609.2</ele><time>2026-04-11T13:52:20.491Z</time></trkpt><trkpt lat="44.1132827" lon="11.5553325"><ele>608.4</ele><time>2026-04-11T13:52:21.492Z</time></trkpt><trkpt lat="44.1132487" lon="11.555137"><ele>607.6</ele><time>2026-04-11T13:52:23.492Z</time></trkpt><trkpt lat="44.1132172" lon="11.5550472"><ele>606.8</ele><time>2026-04-11T13:52:24.491Z</time></trkpt><trkpt lat="44.113126" lon="11.5549493"><ele>606.0</ele><time>2026-04-11T13:52:26.491Z</time></trkpt><trkpt lat="44.113006" lon="11.5549572"><ele>606.0</ele><time>2026-04-11T13:52:28.49Z</time></trkpt><trkpt lat="44.1129382" lon="11.554964"><ele>606.0</ele><time>2026-04-11T13:52:29.491Z</time></trkpt><trkpt lat="44.1128677" lon="11.5549532"><ele>606.0</ele><time>2026-04-11T13:52:30.491Z</time></trkpt><trkpt lat="44.1127953" lon="11.5549337"><ele>606.0</ele><time>2026-04-11T13:52:31.491Z</time></trkpt><trkpt lat="44.1127207" lon="11.5549005"><ele>606.0</ele><time>2026-04-11T13:52:32.491Z</time></trkpt><trkpt lat="44.1126395" lon="11.554857"><ele>606.0</ele><time>2026-04-11T13:52:33.491Z</time></trkpt><trkpt lat="44.1125683" lon="11.5548"><ele>606.0</ele><time>2026-04-11T13:52:34.489Z</time></trkpt><trkpt lat="44.1125107" lon="11.5547312"><ele>606.0</ele><time>2026-04-11T13:52:35.492Z</time></trkpt><trkpt lat="44.1124585" lon="11.5546575"><ele>606.0</ele><time>2026-04-11T13:52:36.491Z</time></trkpt><trkpt lat="44.1124198" lon="11.5545872"><ele>606.0</ele><time>2026-04-11T13:52:37.491Z</time></trkpt><trkpt lat="44.1123663" lon="11.5544478"><ele>606.0</ele><time>2026-04-11T13:52:39.49Z</time></trkpt><trkpt lat="44.1123208" lon="11.5543732"><ele>606.0</ele><time>2026-04-11T13:52:40.491Z</time></trkpt><trkpt lat="44.1122658" lon="11.554329"><ele>600.0</ele><time>2026-04-11T13:52:41.492Z</time></trkpt><trkpt lat="44.1121953" lon="11.5543038"><ele>594.0</ele><time>2026-04-11T13:52:42.492Z</time></trkpt><trkpt lat="44.112123" lon="11.5542895"><ele>588.0</ele><time>2026-04-11T13:52:43.492Z</time></trkpt><trkpt lat="44.1120517" lon="11.5542965"><ele>582.0</ele><time>2026-04-11T13:52:44.491Z</time></trkpt><trkpt lat="44.111975" lon="11.554295"><ele>576.0</ele><time>2026-04-11T13:52:45.491Z</time></trkpt><trkpt lat="44.1119038" lon="11.5542795"><ele>570.0</ele><time>2026-04-11T13:52:46.492Z</time></trkpt><trkpt lat="44.111767" lon="11.5543025"><ele>570.0</ele><time>2026-04-11T13:52:48.49Z</time></trkpt><trkpt lat="44.1116958" lon="11.554337"><ele>570.0</ele><time>2026-04-11T13:52:49.49Z</time></trkpt><trkpt lat="44.1116127" lon="11.5543643"><ele>570.0</ele><time>2026-04-11T13:52:50.489Z</time></trkpt><trkpt lat="44.111536" lon="11.5543727"><ele>570.0</ele><time>2026-04-11T13:52:51.489Z</time></trkpt><trkpt lat="44.1114692" lon="11.5543718"><ele>570.0</ele><time>2026-04-11T13:52:52.491Z</time></trkpt><trkpt lat="44.111398" lon="11.5543515"><ele>570.0</ele><time>2026-04-11T13:52:53.489Z</time></trkpt><trkpt lat="44.111326" lon="11.5543253"><ele>566.5</ele><time>2026-04-11T13:52:54.49Z</time></trkpt><trkpt lat="44.1111533" lon="11.5542942"><ele>563.0</ele><time>2026-04-11T13:52:56.491Z</time></trkpt><trkpt lat="44.1110728" lon="11.5542732"><ele>559.5</ele><time>2026-04-11T13:52:57.489Z</time></trkpt><trkpt lat="44.110998" lon="11.5542287"><ele>556.0</ele><time>2026-04-11T13:52:58.488Z</time></trkpt><trkpt lat="44.110907" lon="11.5541022"><ele>556.0</ele><time>2026-04-11T13:53:00.489Z</time></trkpt><trkpt lat="44.1108745" lon="11.5540205"><ele>556.0</ele><time>2026-04-11T13:53:01.489Z</time></trkpt><trkpt lat="44.1108385" lon="11.5539307"><ele>556.0</ele><time>2026-04-11T13:53:02.491Z</time></trkpt><trkpt lat="44.1107948" lon="11.5538295"><ele>556.0</ele><time>2026-04-11T13:53:03.491Z</time></trkpt><trkpt lat="44.110753" lon="11.5537193"><ele>556.0</ele><time>2026-04-11T13:53:04.491Z</time></trkpt><trkpt lat="44.1107078" lon="11.5536257"><ele>556.0</ele><time>2026-04-11T13:53:05.492Z</time></trkpt><trkpt lat="44.1106565" lon="11.5535527"><ele>550.6666666666667</ele><time>2026-04-11T13:53:06.491Z</time></trkpt><trkpt lat="44.1105773" lon="11.5534568"><ele>545.3333333333334</ele><time>2026-04-11T13:53:08.491Z</time></trkpt><trkpt lat="44.1106023" lon="11.5533447"><ele>540.0</ele><time>2026-04-11T13:53:10.49Z</time></trkpt><trkpt lat="44.1106878" lon="11.5533057"><ele>534.6666666666666</ele><time>2026-04-11T13:53:12.492Z</time></trkpt><trkpt lat="44.110661" lon="11.553194"><ele>529.3333333333333</ele><time>2026-04-11T13:53:15.492Z</time></trkpt><trkpt lat="44.1106043" lon="11.5531247"><ele>524.0</ele><time>2026-04-11T13:53:16.491Z</time></trkpt><trkpt lat="44.1105388" lon="11.5530448"><ele>524.0</ele><time>2026-04-11T13:53:17.492Z</time></trkpt><trkpt lat="44.1104663" lon="11.5529583"><ele>524.0</ele><time>2026-04-11T13:53:18.493Z</time></trkpt><trkpt lat="44.1103883" lon="11.5528582"><ele>524.0</ele><time>2026-04-11T13:53:19.494Z</time></trkpt><trkpt lat="44.1103085" lon="11.5527537"><ele>524.0</ele><time>2026-04-11T13:53:20.494Z</time></trkpt><trkpt lat="44.1102362" lon="11.5526692"><ele>524.0</ele><time>2026-04-11T13:53:21.494Z</time></trkpt><trkpt lat="44.1101807" lon="11.5525917"><ele>520.0</ele><time>2026-04-11T13:53:22.494Z</time></trkpt><trkpt lat="44.1101615" lon="11.5524712"><ele>516.0</ele><time>2026-04-11T13:53:24.494Z</time></trkpt><trkpt lat="44.1102608" lon="11.5523818"><ele>512.0</ele><time>2026-04-11T13:53:26.493Z</time></trkpt><trkpt lat="44.1103375" lon="11.5523457"><ele>508.0</ele><time>2026-04-11T13:53:27.493Z</time></trkpt><trkpt lat="44.1104852" lon="11.5523363"><ele>504.0</ele><time>2026-04-11T13:53:29.493Z</time></trkpt><trkpt lat="44.1105782" lon="11.5523207"><ele>504.0</ele><time>2026-04-11T13:53:31.492Z</time></trkpt><trkpt lat="44.110551" lon="11.5522393"><ele>504.0</ele><time>2026-04-11T13:53:33.493Z</time></trkpt><trkpt lat="44.110429" lon="11.5521242"><ele>504.0</ele><time>2026-04-11T13:53:35.493Z</time></trkpt><trkpt lat="44.1103487" lon="11.5520558"><ele>504.0</ele><time>2026-04-11T13:53:36.493Z</time></trkpt><trkpt lat="44.1102617" lon="11.5519953"><ele>504.0</ele><time>2026-04-11T13:53:37.492Z</time></trkpt><trkpt lat="44.1101713" lon="11.551936"><ele>498.6</ele><time>2026-04-11T13:53:38.492Z</time></trkpt><trkpt lat="44.1100765" lon="11.5518738"><ele>493.2</ele><time>2026-04-11T13:53:39.491Z</time></trkpt><trkpt lat="44.1099737" lon="11.551812"><ele>487.80000000000007</ele><time>2026-04-11T13:53:40.491Z</time></trkpt><trkpt lat="44.1098632" lon="11.551754"><ele>482.40000000000003</ele><time>2026-04-11T13:53:41.491Z</time></trkpt><trkpt lat="44.1097612" lon="11.5517085"><ele>477.0</ele><time>2026-04-11T13:53:42.49Z</time></trkpt><trkpt lat="44.1096662" lon="11.551683"><ele>474.40000000000003</ele><time>2026-04-11T13:53:43.492Z</time></trkpt><trkpt lat="44.1095752" lon="11.5516857"><ele>471.80000000000007</ele><time>2026-04-11T13:53:44.493Z</time></trkpt><trkpt lat="44.1094962" lon="11.551709"><ele>469.2</ele><time>2026-04-11T13:53:45.492Z</time></trkpt><trkpt lat="44.1094277" lon="11.5517423"><ele>466.6</ele><time>2026-04-11T13:53:46.492Z</time></trkpt><trkpt lat="44.1093142" lon="11.5517743"><ele>464.0</ele><time>2026-04-11T13:53:48.495Z</time></trkpt><trkpt lat="44.1092475" lon="11.5516747"><ele>463.99999999999994</ele><time>2026-04-11T13:53:50.494Z</time></trkpt><trkpt lat="44.1092842" lon="11.5515102"><ele>464.0</ele><time>2026-04-11T13:53:52.491Z</time></trkpt><trkpt lat="44.1093258" lon="11.5514285"><ele>464.0</ele><time>2026-04-11T13:53:53.491Z</time></trkpt><trkpt lat="44.1093717" lon="11.5513462"><ele>464.0</ele><time>2026-04-11T13:53:54.493Z</time></trkpt><trkpt lat="44.1094117" lon="11.5512775"><ele>463.99999999999994</ele><time>2026-04-11T13:53:55.49Z</time></trkpt><trkpt lat="44.1094983" lon="11.5512095"><ele>464.0</ele><time>2026-04-11T13:53:57.491Z</time></trkpt><trkpt lat="44.1095607" lon="11.5511972"><ele>461.79999999999995</ele><time>2026-04-11T13:53:58.492Z</time></trkpt><trkpt lat="44.1096355" lon="11.5511935"><ele>459.59999999999997</ele><time>2026-04-11T13:53:59.49Z</time></trkpt><trkpt lat="44.1097185" lon="11.5511937"><ele>457.4</ele><time>2026-04-11T13:54:00.49Z</time></trkpt><trkpt lat="44.1099023" lon="11.5511788"><ele>455.2</ele><time>2026-04-11T13:54:02.491Z</time></trkpt><trkpt lat="44.1099945" lon="11.5511498"><ele>453.0</ele><time>2026-04-11T13:54:03.491Z</time></trkpt><trkpt lat="44.1100787" lon="11.5510902"><ele>453.0</ele><time>2026-04-11T13:54:04.491Z</time></trkpt><trkpt lat="44.1101635" lon="11.5510072"><ele>452.99999999999994</ele><time>2026-04-11T13:54:05.489Z</time></trkpt><trkpt lat="44.1102465" lon="11.5509062"><ele>452.99999999999994</ele><time>2026-04-11T13:54:06.489Z</time></trkpt><trkpt lat="44.1103325" lon="11.5508065"><ele>453.0</ele><time>2026-04-11T13:54:07.492Z</time></trkpt><trkpt lat="44.1104202" lon="11.5507128"><ele>453.0</ele><time>2026-04-11T13:54:08.494Z</time></trkpt><trkpt lat="44.1105177" lon="11.5506352"><ele>453.0</ele><time>2026-04-11T13:54:09.492Z</time></trkpt><trkpt lat="44.1106235" lon="11.5505683"><ele>453.0</ele><time>2026-04-11T13:54:10.492Z</time></trkpt><trkpt lat="44.1107403" lon="11.55052"><ele>453.0</ele><time>2026-04-11T13:54:11.492Z</time></trkpt><trkpt lat="44.1108598" lon="11.5504822"><ele>453.0</ele><time>2026-04-11T13:54:12.491Z</time></trkpt><trkpt lat="44.11098" lon="11.5504542"><ele>454.75</ele><time>2026-04-11T13:54:13.49Z</time></trkpt><trkpt lat="44.1111022" lon="11.5504302"><ele>456.5</ele><time>2026-04-11T13:54:14.492Z</time></trkpt><trkpt lat="44.1112252" lon="11.5504085"><ele>458.25</ele><time>2026-04-11T13:54:15.489Z</time></trkpt><trkpt lat="44.1113452" lon="11.5503887"><ele>460.0</ele><time>2026-04-11T13:54:16.49Z</time></trkpt><trkpt lat="44.111467" lon="11.5503703"><ele>454.25</ele><time>2026-04-11T13:54:17.491Z</time></trkpt><trkpt lat="44.1115858" lon="11.5503538"><ele>448.5</ele><time>2026-04-11T13:54:18.492Z</time></trkpt><trkpt lat="44.1117025" lon="11.550334"><ele>442.75</ele><time>2026-04-11T13:54:19.491Z</time></trkpt><trkpt lat="44.111819" lon="11.550315"><ele>437.0</ele><time>2026-04-11T13:54:20.49Z</time></trkpt><trkpt lat="44.1119295" lon="11.5502878"><ele>437.0</ele><time>2026-04-11T13:54:21.489Z</time></trkpt><trkpt lat="44.1120375" lon="11.5502593"><ele>437.00000000000006</ele><time>2026-04-11T13:54:22.489Z</time></trkpt><trkpt lat="44.1121372" lon="11.5502158"><ele>437.00000000000006</ele><time>2026-04-11T13:54:23.492Z</time></trkpt><trkpt lat="44.11223" lon="11.5501488"><ele>437.0</ele><time>2026-04-11T13:54:24.491Z</time></trkpt><trkpt lat="44.1123117" lon="11.550058"><ele>437.0</ele><time>2026-04-11T13:54:25.49Z</time></trkpt><trkpt lat="44.1123758" lon="11.549942"><ele>436.40000000000003</ele><time>2026-04-11T13:54:26.491Z</time></trkpt><trkpt lat="44.1124165" lon="11.5498075"><ele>435.80000000000007</ele><time>2026-04-11T13:54:27.493Z</time></trkpt><trkpt lat="44.1124415" lon="11.5496638"><ele>435.2</ele><time>2026-04-11T13:54:28.489Z</time></trkpt><trkpt lat="44.112464" lon="11.5495215"><ele>434.6</ele><time>2026-04-11T13:54:29.491Z</time></trkpt><trkpt lat="44.1124863" lon="11.549382"><ele>434.0</ele><time>2026-04-11T13:54:30.491Z</time></trkpt><trkpt lat="44.11251" lon="11.5492453"><ele>434.0</ele><time>2026-04-11T13:54:31.491Z</time></trkpt><trkpt lat="44.1125347" lon="11.549111"><ele>434.0</ele><time>2026-04-11T13:54:32.493Z</time></trkpt><trkpt lat="44.112557" lon="11.5489802"><ele>434.0</ele><time>2026-04-11T13:54:33.493Z</time></trkpt><trkpt lat="44.1125947" lon="11.5487358"><ele>434.0</ele><time>2026-04-11T13:54:35.494Z</time></trkpt><trkpt lat="44.112603" lon="11.5486303"><ele>433.49999999999994</ele><time>2026-04-11T13:54:36.493Z</time></trkpt><trkpt lat="44.1126097" lon="11.5485372"><ele>433.0</ele><time>2026-04-11T13:54:37.493Z</time></trkpt><trkpt lat="44.1125815" lon="11.548383"><ele>432.5</ele><time>2026-04-11T13:54:39.493Z</time></trkpt><trkpt lat="44.1125215" lon="11.5482272"><ele>432.0</ele><time>2026-04-11T13:54:41.494Z</time></trkpt><trkpt lat="44.1125255" lon="11.5481315"><ele>431.49999999999994</ele><time>2026-04-11T13:54:42.492Z</time></trkpt><trkpt lat="44.1125482" lon="11.5480372"><ele>431.0</ele><time>2026-04-11T13:54:43.493Z</time></trkpt><trkpt lat="44.1125883" lon="11.5479567"><ele>430.99999999999994</ele><time>2026-04-11T13:54:44.494Z</time></trkpt><trkpt lat="44.1126435" lon="11.5479007"><ele>431.0</ele><time>2026-04-11T13:54:45.493Z</time></trkpt><trkpt lat="44.1127105" lon="11.547867"><ele>431.0</ele><time>2026-04-11T13:54:46.493Z</time></trkpt><trkpt lat="44.1127892" lon="11.5478635"><ele>431.0</ele><time>2026-04-11T13:54:47.493Z</time></trkpt><trkpt lat="44.112872" lon="11.5478817"><ele>430.99999999999994</ele><time>2026-04-11T13:54:48.494Z</time></trkpt><trkpt lat="44.1129543" lon="11.5479038"><ele>431.0</ele><time>2026-04-11T13:54:49.496Z</time></trkpt><trkpt lat="44.1130315" lon="11.5479258"><ele>430.99999999999994</ele><time>2026-04-11T13:54:50.501Z</time></trkpt><trkpt lat="44.1131018" lon="11.5479462"><ele>431.0</ele><time>2026-04-11T13:54:51.495Z</time></trkpt><trkpt lat="44.1131657" lon="11.5479643"><ele>431.0</ele><time>2026-04-11T13:54:52.493Z</time></trkpt><trkpt lat="44.1132783" lon="11.5480028"><ele>431.0</ele><time>2026-04-11T13:54:54.493Z</time></trkpt><trkpt lat="44.1133845" lon="11.5480465"><ele>430.99999999999994</ele><time>2026-04-11T13:54:56.493Z</time></trkpt><trkpt lat="44.1134553" lon="11.5479918"><ele>431.0</ele><time>2026-04-11T13:54:58.494Z</time></trkpt><trkpt lat="44.1134612" lon="11.5478513"><ele>430.49999999999994</ele><time>2026-04-11T13:55:00.493Z</time></trkpt><trkpt lat="44.1134647" lon="11.5476772"><ele>430.0</ele><time>2026-04-11T13:55:02.493Z</time></trkpt><trkpt lat="44.1134667" lon="11.547579"><ele>429.5</ele><time>2026-04-11T13:55:03.494Z</time></trkpt><trkpt lat="44.1134687" lon="11.5474727"><ele>429.0</ele><time>2026-04-11T13:55:04.493Z</time></trkpt><trkpt lat="44.1134763" lon="11.5473625"><ele>428.49999999999994</ele><time>2026-04-11T13:55:05.493Z</time></trkpt><trkpt lat="44.1134892" lon="11.5472528"><ele>428.0</ele><time>2026-04-11T13:55:06.493Z</time></trkpt><trkpt lat="44.1135462" lon="11.5470533"><ele>428.49999999999994</ele><time>2026-04-11T13:55:08.494Z</time></trkpt><trkpt lat="44.1135973" lon="11.5469668"><ele>429.0</ele><time>2026-04-11T13:55:09.495Z</time></trkpt><trkpt lat="44.1136548" lon="11.5468795"><ele>429.5</ele><time>2026-04-11T13:55:10.492Z</time></trkpt><trkpt lat="44.1137182" lon="11.5467972"><ele>430.0</ele><time>2026-04-11T13:55:11.493Z</time></trkpt><trkpt lat="44.1137868" lon="11.5467172"><ele>430.49999999999994</ele><time>2026-04-11T13:55:12.494Z</time></trkpt><trkpt lat="44.113856" lon="11.5466353"><ele>431.0</ele><time>2026-04-11T13:55:13.493Z</time></trkpt><trkpt lat="44.1139268" lon="11.5465542"><ele>431.0</ele><time>2026-04-11T13:55:14.494Z</time></trkpt><trkpt lat="44.1139925" lon="11.5464647"><ele>431.0</ele><time>2026-04-11T13:55:15.493Z</time></trkpt><trkpt lat="44.1140473" lon="11.5463782"><ele>431.0</ele><time>2026-04-11T13:55:16.492Z</time></trkpt><trkpt lat="44.1140792" lon="11.546293"><ele>431.0</ele><time>2026-04-11T13:55:17.506Z</time></trkpt><trkpt lat="44.1140863" lon="11.5462052"><ele>431.0</ele><time>2026-04-11T13:55:18.492Z</time></trkpt><trkpt lat="44.1140697" lon="11.5461187"><ele>431.0</ele><time>2026-04-11T13:55:19.491Z</time></trkpt><trkpt lat="44.114034" lon="11.5460335"><ele>431.0</ele><time>2026-04-11T13:55:20.491Z</time></trkpt><trkpt lat="44.1139883" lon="11.5459452"><ele>431.4</ele><time>2026-04-11T13:55:21.494Z</time></trkpt><trkpt lat="44.1139355" lon="11.5458502"><ele>431.8</ele><time>2026-04-11T13:55:22.491Z</time></trkpt><trkpt lat="44.1138812" lon="11.5457495"><ele>432.19999999999993</ele><time>2026-04-11T13:55:23.492Z</time></trkpt><trkpt lat="44.1138215" lon="11.5456427"><ele>432.59999999999997</ele><time>2026-04-11T13:55:24.493Z</time></trkpt><trkpt lat="44.1137605" lon="11.5455282"><ele>433.0</ele><time>2026-04-11T13:55:25.494Z</time></trkpt><trkpt lat="44.1137012" lon="11.5454057"><ele>433.2</ele><time>2026-04-11T13:55:26.492Z</time></trkpt><trkpt lat="44.1136395" lon="11.545275"><ele>433.4</ele><time>2026-04-11T13:55:27.491Z</time></trkpt><trkpt lat="44.1135755" lon="11.5451433"><ele>433.59999999999997</ele><time>2026-04-11T13:55:28.494Z</time></trkpt><trkpt lat="44.113511" lon="11.5450155"><ele>433.79999999999995</ele><time>2026-04-11T13:55:29.491Z</time></trkpt><trkpt lat="44.1134467" lon="11.5448912"><ele>434.0</ele><time>2026-04-11T13:55:30.492Z</time></trkpt><trkpt lat="44.1133822" lon="11.5447672"><ele>434.0</ele><time>2026-04-11T13:55:31.494Z</time></trkpt><trkpt lat="44.1133162" lon="11.544643"><ele>434.0</ele><time>2026-04-11T13:55:32.493Z</time></trkpt><trkpt lat="44.1132508" lon="11.544516"><ele>434.0</ele><time>2026-04-11T13:55:33.491Z</time></trkpt><trkpt lat="44.1131832" lon="11.5443882"><ele>434.0</ele><time>2026-04-11T13:55:34.491Z</time></trkpt><trkpt lat="44.1131147" lon="11.5442605"><ele>434.5</ele><time>2026-04-11T13:55:35.492Z</time></trkpt><trkpt lat="44.113047" lon="11.5441325"><ele>435.0</ele><time>2026-04-11T13:55:36.493Z</time></trkpt><trkpt lat="44.1129802" lon="11.544004"><ele>435.5</ele><time>2026-04-11T13:55:37.494Z</time></trkpt><trkpt lat="44.1129132" lon="11.5438753"><ele>436.0</ele><time>2026-04-11T13:55:38.496Z</time></trkpt><trkpt lat="44.1127812" lon="11.5436177"><ele>436.5</ele><time>2026-04-11T13:55:40.496Z</time></trkpt><trkpt lat="44.1127142" lon="11.5434875"><ele>437.0</ele><time>2026-04-11T13:55:41.492Z</time></trkpt><trkpt lat="44.1126477" lon="11.5433573"><ele>437.5</ele><time>2026-04-11T13:55:42.492Z</time></trkpt><trkpt lat="44.1125797" lon="11.543227"><ele>438.0</ele><time>2026-04-11T13:55:43.491Z</time></trkpt><trkpt lat="44.1125103" lon="11.5430975"><ele>438.0</ele><time>2026-04-11T13:55:44.491Z</time></trkpt><trkpt lat="44.1124422" lon="11.5429667"><ele>438.0</ele><time>2026-04-11T13:55:45.492Z</time></trkpt><trkpt lat="44.1123742" lon="11.5428368"><ele>438.0</ele><time>2026-04-11T13:55:46.494Z</time></trkpt><trkpt lat="44.1123053" lon="11.5427077"><ele>438.0</ele><time>2026-04-11T13:55:47.493Z</time></trkpt><trkpt lat="44.1122367" lon="11.5425792"><ele>439.0</ele><time>2026-04-11T13:55:48.493Z</time></trkpt><trkpt lat="44.1121687" lon="11.5424498"><ele>440.0</ele><time>2026-04-11T13:55:49.492Z</time></trkpt><trkpt lat="44.112101" lon="11.5423185"><ele>441.0</ele><time>2026-04-11T13:55:50.494Z</time></trkpt><trkpt lat="44.112032" lon="11.542188"><ele>442.0</ele><time>2026-04-11T13:55:51.494Z</time></trkpt><trkpt lat="44.1119627" lon="11.5420573"><ele>441.75</ele><time>2026-04-11T13:55:52.494Z</time></trkpt><trkpt lat="44.1118933" lon="11.541926"><ele>441.5</ele><time>2026-04-11T13:55:53.495Z</time></trkpt><trkpt lat="44.1118233" lon="11.541794"><ele>441.25</ele><time>2026-04-11T13:55:54.494Z</time></trkpt><trkpt lat="44.1117523" lon="11.5416612"><ele>441.0</ele><time>2026-04-11T13:55:55.493Z</time></trkpt><trkpt lat="44.1116787" lon="11.5415287"><ele>441.0</ele><time>2026-04-11T13:55:56.495Z</time></trkpt><trkpt lat="44.1116048" lon="11.541394"><ele>441.0</ele><time>2026-04-11T13:55:57.495Z</time></trkpt><trkpt lat="44.11153" lon="11.5412573"><ele>441.0</ele><time>2026-04-11T13:55:58.493Z</time></trkpt><trkpt lat="44.1114565" lon="11.5411188"><ele>441.0</ele><time>2026-04-11T13:55:59.494Z</time></trkpt><trkpt lat="44.1113833" lon="11.5409807"><ele>441.0</ele><time>2026-04-11T13:56:00.495Z</time></trkpt><trkpt lat="44.1113107" lon="11.5408427"><ele>441.0</ele><time>2026-04-11T13:56:01.494Z</time></trkpt><trkpt lat="44.1112392" lon="11.5407032"><ele>441.0</ele><time>2026-04-11T13:56:02.495Z</time></trkpt><trkpt lat="44.1111663" lon="11.540564"><ele>441.0</ele><time>2026-04-11T13:56:03.495Z</time></trkpt><trkpt lat="44.1110933" lon="11.5404257"><ele>440.5</ele><time>2026-04-11T13:56:04.494Z</time></trkpt><trkpt lat="44.1110208" lon="11.540288"><ele>440.0</ele><time>2026-04-11T13:56:05.494Z</time></trkpt><trkpt lat="44.1109465" lon="11.540154"><ele>439.5</ele><time>2026-04-11T13:56:06.491Z</time></trkpt><trkpt lat="44.1108722" lon="11.5400223"><ele>439.0</ele><time>2026-04-11T13:56:07.491Z</time></trkpt><trkpt lat="44.1108" lon="11.5398862"><ele>439.5</ele><time>2026-04-11T13:56:08.491Z</time></trkpt><trkpt lat="44.1107267" lon="11.5397505"><ele>440.0</ele><time>2026-04-11T13:56:09.489Z</time></trkpt><trkpt lat="44.1106542" lon="11.5396127"><ele>440.5</ele><time>2026-04-11T13:56:10.491Z</time></trkpt><trkpt lat="44.1105812" lon="11.5394758"><ele>441.0</ele><time>2026-04-11T13:56:11.492Z</time></trkpt><trkpt lat="44.1104298" lon="11.5392063"><ele>441.0</ele><time>2026-04-11T13:56:13.493Z</time></trkpt><trkpt lat="44.110354" lon="11.5390707"><ele>441.0</ele><time>2026-04-11T13:56:14.493Z</time></trkpt><trkpt lat="44.1102782" lon="11.5389353"><ele>441.0</ele><time>2026-04-11T13:56:15.492Z</time></trkpt><trkpt lat="44.1102017" lon="11.538801"><ele>441.0</ele><time>2026-04-11T13:56:16.493Z</time></trkpt><trkpt lat="44.1101242" lon="11.5386668"><ele>441.75</ele><time>2026-04-11T13:56:17.493Z</time></trkpt><trkpt lat="44.1100462" lon="11.538533"><ele>442.5</ele><time>2026-04-11T13:56:18.492Z</time></trkpt><trkpt lat="44.1099695" lon="11.5383985"><ele>443.25</ele><time>2026-04-11T13:56:19.492Z</time></trkpt><trkpt lat="44.1098923" lon="11.5382643"><ele>444.0</ele><time>2026-04-11T13:56:20.493Z</time></trkpt><trkpt lat="44.109815" lon="11.5381302"><ele>444.25</ele><time>2026-04-11T13:56:21.492Z</time></trkpt><trkpt lat="44.1097392" lon="11.5379952"><ele>444.5</ele><time>2026-04-11T13:56:22.492Z</time></trkpt><trkpt lat="44.109665" lon="11.5378593"><ele>444.75</ele><time>2026-04-11T13:56:23.493Z</time></trkpt><trkpt lat="44.109593" lon="11.5377225"><ele>445.0</ele><time>2026-04-11T13:56:24.496Z</time></trkpt><trkpt lat="44.109525" lon="11.5375847"><ele>445.0</ele><time>2026-04-11T13:56:25.491Z</time></trkpt><trkpt lat="44.1094615" lon="11.5374425"><ele>445.0</ele><time>2026-04-11T13:56:26.492Z</time></trkpt><trkpt lat="44.1094013" lon="11.5372955"><ele>445.0</ele><time>2026-04-11T13:56:27.493Z</time></trkpt><trkpt lat="44.1093433" lon="11.5371433"><ele>445.0</ele><time>2026-04-11T13:56:28.492Z</time></trkpt><trkpt lat="44.1092865" lon="11.5369877"><ele>446.5</ele><time>2026-04-11T13:56:29.492Z</time></trkpt><trkpt lat="44.109226" lon="11.5368338"><ele>448.0</ele><time>2026-04-11T13:56:30.491Z</time></trkpt><trkpt lat="44.1091642" lon="11.5366837"><ele>449.5</ele><time>2026-04-11T13:56:31.489Z</time></trkpt><trkpt lat="44.109102" lon="11.5365352"><ele>451.0</ele><time>2026-04-11T13:56:32.49Z</time></trkpt><trkpt lat="44.1090365" lon="11.5363905"><ele>450.0</ele><time>2026-04-11T13:56:33.491Z</time></trkpt><trkpt lat="44.1089635" lon="11.5362508"><ele>449.0</ele><time>2026-04-11T13:56:34.493Z</time></trkpt><trkpt lat="44.108886" lon="11.536115"><ele>448.0</ele><time>2026-04-11T13:56:35.492Z</time></trkpt><trkpt lat="44.108807" lon="11.535982"><ele>447.0</ele><time>2026-04-11T13:56:36.495Z</time></trkpt><trkpt lat="44.1087278" lon="11.53585"><ele>447.0</ele><time>2026-04-11T13:56:37.492Z</time></trkpt><trkpt lat="44.1086488" lon="11.5357198"><ele>447.0</ele><time>2026-04-11T13:56:38.494Z</time></trkpt><trkpt lat="44.10857" lon="11.5355912"><ele>447.0</ele><time>2026-04-11T13:56:39.492Z</time></trkpt><trkpt lat="44.108492" lon="11.535464"><ele>447.0</ele><time>2026-04-11T13:56:40.492Z</time></trkpt><trkpt lat="44.1084155" lon="11.5353377"><ele>447.0</ele><time>2026-04-11T13:56:41.493Z</time></trkpt><trkpt lat="44.1083397" lon="11.5352132"><ele>447.0</ele><time>2026-04-11T13:56:42.493Z</time></trkpt><trkpt lat="44.1082643" lon="11.5350892"><ele>447.0</ele><time>2026-04-11T13:56:43.492Z</time></trkpt><trkpt lat="44.1081908" lon="11.534966"><ele>447.0</ele><time>2026-04-11T13:56:44.495Z</time></trkpt><trkpt lat="44.1080647" lon="11.5347598"><ele>447.6666666666667</ele><time>2026-04-11T13:56:46.492Z</time></trkpt><trkpt lat="44.1080125" lon="11.5346777"><ele>448.33333333333337</ele><time>2026-04-11T13:56:47.493Z</time></trkpt><trkpt lat="44.1079698" lon="11.5346025"><ele>449.0</ele><time>2026-04-11T13:56:48.492Z</time></trkpt><trkpt lat="44.1079702" lon="11.5344512"><ele>449.6666666666667</ele><time>2026-04-11T13:56:50.494Z</time></trkpt><trkpt lat="44.1080105" lon="11.5343742"><ele>450.33333333333337</ele><time>2026-04-11T13:56:51.493Z</time></trkpt><trkpt lat="44.108062" lon="11.5342905"><ele>451.0</ele><time>2026-04-11T13:56:52.494Z</time></trkpt><trkpt lat="44.1081218" lon="11.5342023"><ele>451.0</ele><time>2026-04-11T13:56:53.494Z</time></trkpt><trkpt lat="44.108188" lon="11.534105"><ele>451.0</ele><time>2026-04-11T13:56:54.494Z</time></trkpt><trkpt lat="44.1082553" lon="11.5340015"><ele>451.0</ele><time>2026-04-11T13:56:55.49Z</time></trkpt><trkpt lat="44.108312" lon="11.5338903"><ele>451.0</ele><time>2026-04-11T13:56:56.49Z</time></trkpt><trkpt lat="44.1083555" lon="11.5337628"><ele>451.0</ele><time>2026-04-11T13:56:57.49Z</time></trkpt><trkpt lat="44.1083925" lon="11.5336197"><ele>453.75</ele><time>2026-04-11T13:56:58.49Z</time></trkpt><trkpt lat="44.1084205" lon="11.53347"><ele>456.5</ele><time>2026-04-11T13:56:59.492Z</time></trkpt><trkpt lat="44.1084342" lon="11.5333162"><ele>459.25</ele><time>2026-04-11T13:57:00.493Z</time></trkpt><trkpt lat="44.1084385" lon="11.5331517"><ele>462.0</ele><time>2026-04-11T13:57:01.494Z</time></trkpt><trkpt lat="44.1084407" lon="11.5329832"><ele>465.75</ele><time>2026-04-11T13:57:02.492Z</time></trkpt><trkpt lat="44.1084452" lon="11.5328145"><ele>469.5</ele><time>2026-04-11T13:57:03.492Z</time></trkpt><trkpt lat="44.1084522" lon="11.532644"><ele>473.25</ele><time>2026-04-11T13:57:04.492Z</time></trkpt><trkpt lat="44.1084655" lon="11.532474"><ele>477.0</ele><time>2026-04-11T13:57:05.491Z</time></trkpt><trkpt lat="44.1084888" lon="11.5323018"><ele>477.0</ele><time>2026-04-11T13:57:06.492Z</time></trkpt><trkpt lat="44.1085147" lon="11.5321248"><ele>477.0</ele><time>2026-04-11T13:57:07.49Z</time></trkpt><trkpt lat="44.1085443" lon="11.5319443"><ele>477.0</ele><time>2026-04-11T13:57:08.491Z</time></trkpt><trkpt lat="44.1085767" lon="11.531769"><ele>477.0</ele><time>2026-04-11T13:57:09.49Z</time></trkpt><trkpt lat="44.1086083" lon="11.5315993"><ele>481.0</ele><time>2026-04-11T13:57:10.489Z</time></trkpt><trkpt lat="44.1086427" lon="11.5314365"><ele>485.0</ele><time>2026-04-11T13:57:11.49Z</time></trkpt><trkpt lat="44.108678" lon="11.531274"><ele>489.0</ele><time>2026-04-11T13:57:12.49Z</time></trkpt><trkpt lat="44.1087105" lon="11.5311047"><ele>493.0</ele><time>2026-04-11T13:57:13.491Z</time></trkpt><trkpt lat="44.1087353" lon="11.5309182"><ele>497.75</ele><time>2026-04-11T13:57:14.492Z</time></trkpt><trkpt lat="44.1087563" lon="11.5307232"><ele>502.5</ele><time>2026-04-11T13:57:15.49Z</time></trkpt><trkpt lat="44.1087773" lon="11.5305245"><ele>507.25</ele><time>2026-04-11T13:57:16.491Z</time></trkpt><trkpt lat="44.1087982" lon="11.5303258"><ele>512.0</ele><time>2026-04-11T13:57:17.492Z</time></trkpt><trkpt lat="44.108846" lon="11.529767"><ele>516.25</ele><time>2026-04-11T13:57:20.49Z</time></trkpt><trkpt lat="44.108843" lon="11.5295783"><ele>520.5</ele><time>2026-04-11T13:57:21.49Z</time></trkpt><trkpt lat="44.1088372" lon="11.529373"><ele>524.75</ele><time>2026-04-11T13:57:22.489Z</time></trkpt><trkpt lat="44.1088273" lon="11.52916"><ele>529.0</ele><time>2026-04-11T13:57:23.491Z</time></trkpt><trkpt lat="44.1088153" lon="11.5289485"><ele>532.25</ele><time>2026-04-11T13:57:24.491Z</time></trkpt><trkpt lat="44.1088015" lon="11.5287503"><ele>535.5</ele><time>2026-04-11T13:57:25.491Z</time></trkpt><trkpt lat="44.10879" lon="11.5285653"><ele>538.75</ele><time>2026-04-11T13:57:26.49Z</time></trkpt><trkpt lat="44.1087852" lon="11.5283938"><ele>542.0</ele><time>2026-04-11T13:57:27.491Z</time></trkpt><trkpt lat="44.108785" lon="11.5282337"><ele>542.0</ele><time>2026-04-11T13:57:28.49Z</time></trkpt><trkpt lat="44.1087805" lon="11.5280883"><ele>542.0</ele><time>2026-04-11T13:57:29.49Z</time></trkpt><trkpt lat="44.108779" lon="11.5279608"><ele>542.0</ele><time>2026-04-11T13:57:30.49Z</time></trkpt><trkpt lat="44.1088145" lon="11.527847"><ele>542.0</ele><time>2026-04-11T13:57:31.49Z</time></trkpt><trkpt lat="44.1088572" lon="11.5277387"><ele>542.0</ele><time>2026-04-11T13:57:32.489Z</time></trkpt><trkpt lat="44.108889" lon="11.5276293"><ele>542.8333333333333</ele><time>2026-04-11T13:57:33.489Z</time></trkpt><trkpt lat="44.108925" lon="11.5275093"><ele>543.6666666666666</ele><time>2026-04-11T13:57:34.491Z</time></trkpt><trkpt lat="44.1089602" lon="11.5273988"><ele>544.5</ele><time>2026-04-11T13:57:35.49Z</time></trkpt><trkpt lat="44.1089808" lon="11.5273035"><ele>545.3333333333334</ele><time>2026-04-11T13:57:36.49Z</time></trkpt><trkpt lat="44.108962" lon="11.527153"><ele>546.1666666666667</ele><time>2026-04-11T13:57:38.492Z</time></trkpt><trkpt lat="44.108942" lon="11.527054"><ele>547.0</ele><time>2026-04-11T13:57:39.491Z</time></trkpt><trkpt lat="44.1089267" lon="11.5269382"><ele>547.6666666666667</ele><time>2026-04-11T13:57:40.491Z</time></trkpt><trkpt lat="44.1089362" lon="11.5268022"><ele>548.3333333333334</ele><time>2026-04-11T13:57:41.494Z</time></trkpt><trkpt lat="44.1089542" lon="11.5266788"><ele>549.0</ele><time>2026-04-11T13:57:42.492Z</time></trkpt><trkpt lat="44.108979" lon="11.5265788"><ele>549.6666666666666</ele><time>2026-04-11T13:57:43.491Z</time></trkpt><trkpt lat="44.1090225" lon="11.526511"><ele>550.3333333333333</ele><time>2026-04-11T13:57:44.49Z</time></trkpt><trkpt lat="44.109091" lon="11.5264715"><ele>551.0</ele><time>2026-04-11T13:57:45.489Z</time></trkpt><trkpt lat="44.1091645" lon="11.5264402"><ele>547.6</ele><time>2026-04-11T13:57:46.489Z</time></trkpt><trkpt lat="44.1092287" lon="11.5263862"><ele>544.2</ele><time>2026-04-11T13:57:47.489Z</time></trkpt><trkpt lat="44.109266" lon="11.5263122"><ele>540.8</ele><time>2026-04-11T13:57:48.491Z</time></trkpt><trkpt lat="44.1092895" lon="11.5262072"><ele>537.4</ele><time>2026-04-11T13:57:49.491Z</time></trkpt><trkpt lat="44.1093217" lon="11.5260852"><ele>534.0</ele><time>2026-04-11T13:57:50.492Z</time></trkpt><trkpt lat="44.1094213" lon="11.5258903"><ele>534.0000000000001</ele><time>2026-04-11T13:57:52.491Z</time></trkpt><trkpt lat="44.1094455" lon="11.5257973"><ele>534.0</ele><time>2026-04-11T13:57:53.492Z</time></trkpt><trkpt lat="44.1094498" lon="11.5256923"><ele>534.0</ele><time>2026-04-11T13:57:54.491Z</time></trkpt><trkpt lat="44.1094458" lon="11.5255798"><ele>534.0</ele><time>2026-04-11T13:57:55.49Z</time></trkpt><trkpt lat="44.1094562" lon="11.525482"><ele>534.0</ele><time>2026-04-11T13:57:56.492Z</time></trkpt><trkpt lat="44.1094948" lon="11.525412"><ele>534.0000000000001</ele><time>2026-04-11T13:57:57.49Z</time></trkpt><trkpt lat="44.1095543" lon="11.5253668"><ele>534.0</ele><time>2026-04-11T13:57:58.49Z</time></trkpt><trkpt lat="44.109631" lon="11.5253252"><ele>531.0</ele><time>2026-04-11T13:57:59.49Z</time></trkpt><trkpt lat="44.109703" lon="11.5252623"><ele>528.0</ele><time>2026-04-11T13:58:00.491Z</time></trkpt><trkpt lat="44.1097723" lon="11.5251718"><ele>525.0</ele><time>2026-04-11T13:58:01.49Z</time></trkpt><trkpt lat="44.109839" lon="11.525054"><ele>522.0</ele><time>2026-04-11T13:58:02.492Z</time></trkpt><trkpt lat="44.1098992" lon="11.5249192"><ele>519.0</ele><time>2026-04-11T13:58:03.49Z</time></trkpt><trkpt lat="44.1099463" lon="11.5247808"><ele>519.0</ele><time>2026-04-11T13:58:04.49Z</time></trkpt><trkpt lat="44.1099642" lon="11.5246582"><ele>519.0</ele><time>2026-04-11T13:58:05.491Z</time></trkpt><trkpt lat="44.1099703" lon="11.5245608"><ele>519.0</ele><time>2026-04-11T13:58:06.49Z</time></trkpt><trkpt lat="44.1099557" lon="11.5244723"><ele>519.0</ele><time>2026-04-11T13:58:07.491Z</time></trkpt><trkpt lat="44.1099163" lon="11.524386"><ele>519.0</ele><time>2026-04-11T13:58:08.491Z</time></trkpt><trkpt lat="44.1098617" lon="11.524301"><ele>519.0</ele><time>2026-04-11T13:58:09.49Z</time></trkpt><trkpt lat="44.109794" lon="11.5242215"><ele>525.6</ele><time>2026-04-11T13:58:10.49Z</time></trkpt><trkpt lat="44.1097247" lon="11.524135"><ele>532.2</ele><time>2026-04-11T13:58:11.49Z</time></trkpt><trkpt lat="44.1096552" lon="11.5240463"><ele>538.8000000000001</ele><time>2026-04-11T13:58:12.495Z</time></trkpt><trkpt lat="44.1095938" lon="11.5239412"><ele>545.4</ele><time>2026-04-11T13:58:13.491Z</time></trkpt><trkpt lat="44.1095392" lon="11.5238317"><ele>552.0</ele><time>2026-04-11T13:58:14.491Z</time></trkpt><trkpt lat="44.1094912" lon="11.523728"><ele>552.0</ele><time>2026-04-11T13:58:15.491Z</time></trkpt><trkpt lat="44.1094337" lon="11.5236102"><ele>552.0</ele><time>2026-04-11T13:58:16.493Z</time></trkpt><trkpt lat="44.109366" lon="11.5234922"><ele>552.0</ele><time>2026-04-11T13:58:17.49Z</time></trkpt><trkpt lat="44.1092852" lon="11.5233822"><ele>552.0</ele><time>2026-04-11T13:58:18.491Z</time></trkpt><trkpt lat="44.1092227" lon="11.5232702"><ele>552.0</ele><time>2026-04-11T13:58:19.49Z</time></trkpt><trkpt lat="44.1091818" lon="11.5231572"><ele>552.0</ele><time>2026-04-11T13:58:20.492Z</time></trkpt><trkpt lat="44.1091537" lon="11.5230682"><ele>552.0</ele><time>2026-04-11T13:58:21.49Z</time></trkpt><trkpt lat="44.1090492" lon="11.5229512"><ele>552.0</ele><time>2026-04-11T13:58:23.493Z</time></trkpt><trkpt lat="44.1088677" lon="11.5228137"><ele>552.0</ele><time>2026-04-11T13:58:25.491Z</time></trkpt><trkpt lat="44.1087723" lon="11.5227275"><ele>553.8333333333334</ele><time>2026-04-11T13:58:26.493Z</time></trkpt><trkpt lat="44.108692" lon="11.5226442"><ele>555.6666666666666</ele><time>2026-04-11T13:58:27.49Z</time></trkpt><trkpt lat="44.1086458" lon="11.522562"><ele>557.5</ele><time>2026-04-11T13:58:28.489Z</time></trkpt><trkpt lat="44.1085798" lon="11.5224875"><ele>559.3333333333333</ele><time>2026-04-11T13:58:29.49Z</time></trkpt><trkpt lat="44.1085073" lon="11.5224433"><ele>561.1666666666666</ele><time>2026-04-11T13:58:30.49Z</time></trkpt><trkpt lat="44.1084357" lon="11.5224328"><ele>563.0</ele><time>2026-04-11T13:58:31.49Z</time></trkpt><trkpt lat="44.108355" lon="11.5224503"><ele>563.0</ele><time>2026-04-11T13:58:32.492Z</time></trkpt><trkpt lat="44.1082585" lon="11.5224825"><ele>563.0</ele><time>2026-04-11T13:58:33.489Z</time></trkpt><trkpt lat="44.1081638" lon="11.5225057"><ele>563.0</ele><time>2026-04-11T13:58:34.492Z</time></trkpt><trkpt lat="44.1080772" lon="11.522505"><ele>563.0</ele><time>2026-04-11T13:58:35.491Z</time></trkpt><trkpt lat="44.107998" lon="11.5224702"><ele>563.0</ele><time>2026-04-11T13:58:36.49Z</time></trkpt><trkpt lat="44.1079177" lon="11.5224312"><ele>565.8333333333333</ele><time>2026-04-11T13:58:37.491Z</time></trkpt><trkpt lat="44.1078415" lon="11.5224167"><ele>568.6666666666666</ele><time>2026-04-11T13:58:38.491Z</time></trkpt><trkpt lat="44.1077633" lon="11.522444"><ele>571.5</ele><time>2026-04-11T13:58:39.491Z</time></trkpt><trkpt lat="44.1076775" lon="11.5224908"><ele>574.3333333333334</ele><time>2026-04-11T13:58:40.492Z</time></trkpt><trkpt lat="44.107582" lon="11.5225195"><ele>577.1666666666667</ele><time>2026-04-11T13:58:41.493Z</time></trkpt><trkpt lat="44.1074858" lon="11.5225222"><ele>580.0</ele><time>2026-04-11T13:58:42.492Z</time></trkpt><trkpt lat="44.1073892" lon="11.5225003"><ele>584.5</ele><time>2026-04-11T13:58:43.49Z</time></trkpt><trkpt lat="44.1073008" lon="11.5224592"><ele>589.0</ele><time>2026-04-11T13:58:44.49Z</time></trkpt><trkpt lat="44.1072265" lon="11.522426"><ele>593.5</ele><time>2026-04-11T13:58:45.49Z</time></trkpt><trkpt lat="44.1071565" lon="11.5224015"><ele>598.0</ele><time>2026-04-11T13:58:46.49Z</time></trkpt><trkpt lat="44.1070958" lon="11.5223767"><ele>602.5</ele><time>2026-04-11T13:58:47.491Z</time></trkpt><trkpt lat="44.1069835" lon="11.5222923"><ele>607.0</ele><time>2026-04-11T13:58:49.49Z</time></trkpt><trkpt lat="44.1069297" lon="11.5222408"><ele>607.0</ele><time>2026-04-11T13:58:50.491Z</time></trkpt><trkpt lat="44.1068457" lon="11.5221278"><ele>607.0</ele><time>2026-04-11T13:58:52.491Z</time></trkpt><trkpt lat="44.106782" lon="11.5220325"><ele>607.0</ele><time>2026-04-11T13:58:54.492Z</time></trkpt><trkpt lat="44.1067113" lon="11.5221423"><ele>607.0</ele><time>2026-04-11T13:58:58.489Z</time></trkpt><trkpt lat="44.1067128" lon="11.5222998"><ele>607.0</ele><time>2026-04-11T13:59:00.49Z</time></trkpt><trkpt lat="44.1066745" lon="11.5223748"><ele>607.0</ele><time>2026-04-11T13:59:06.492Z</time></trkpt><trkpt lat="44.1066372" lon="11.5225057"><ele>607.0</ele><time>2026-04-11T13:59:10.493Z</time></trkpt><trkpt lat="44.1066152" lon="11.5226455"><ele>607.0</ele><time>2026-04-11T13:59:12.492Z</time></trkpt><trkpt lat="44.106667" lon="11.5227183"><ele>607.0</ele><time>2026-04-11T13:59:14.492Z</time></trkpt><trkpt lat="44.1067537" lon="11.5227433"><ele>607.0</ele><time>2026-04-11T13:59:16.491Z</time></trkpt><trkpt lat="44.1068348" lon="11.5227808"><ele>607.0</ele><time>2026-04-11T13:59:18.492Z</time></trkpt><trkpt lat="44.1069365" lon="11.5228032"><ele>607.0</ele><time>2026-04-11T13:59:20.494Z</time></trkpt><trkpt lat="44.1069922" lon="11.5228803"><ele>607.0</ele><time>2026-04-11T13:59:22.491Z</time></trkpt><trkpt lat="44.107041" lon="11.5230393"><ele>607.0</ele><time>2026-04-11T13:59:24.49Z</time></trkpt><trkpt lat="44.1070783" lon="11.5231355"><ele>607.0</ele><time>2026-04-11T13:59:25.488Z</time></trkpt><trkpt lat="44.1071143" lon="11.523209"><ele>607.0</ele><time>2026-04-11T13:59:26.492Z</time></trkpt><trkpt lat="44.1072235" lon="11.5232592"><ele>606.6</ele><time>2026-04-11T13:59:28.491Z</time></trkpt><trkpt lat="44.1073757" lon="11.5233578"><ele>606.2</ele><time>2026-04-11T13:59:31.493Z</time></trkpt><trkpt lat="44.1074505" lon="11.523462"><ele>605.8</ele><time>2026-04-11T13:59:33.492Z</time></trkpt><trkpt lat="44.1074947" lon="11.5235377"><ele>605.4</ele><time>2026-04-11T13:59:36.493Z</time></trkpt><trkpt lat="44.1074842" lon="11.5236618"><ele>605.0</ele><time>2026-04-11T13:59:43.493Z</time></trkpt><trkpt lat="44.1074258" lon="11.5237653"><ele>615.4</ele><time>2026-04-11T13:59:45.494Z</time></trkpt><trkpt lat="44.1073695" lon="11.5238782"><ele>625.8</ele><time>2026-04-11T13:59:47.491Z</time></trkpt><trkpt lat="44.1073252" lon="11.5240215"><ele>636.2</ele><time>2026-04-11T13:59:49.491Z</time></trkpt><trkpt lat="44.1072907" lon="11.5241402"><ele>646.6</ele><time>2026-04-11T13:59:51.493Z</time></trkpt><trkpt lat="44.1072612" lon="11.52426"><ele>657.0</ele><time>2026-04-11T13:59:53.493Z</time></trkpt><trkpt lat="44.1072135" lon="11.5243637"><ele>657.0</ele><time>2026-04-11T13:59:55.492Z</time></trkpt><trkpt lat="44.107165" lon="11.5244523"><ele>657.0</ele><time>2026-04-11T13:59:57.494Z</time></trkpt><trkpt lat="44.1071142" lon="11.524533"><ele>657.0</ele><time>2026-04-11T13:59:59.493Z</time></trkpt><trkpt lat="44.1070547" lon="11.5246407"><ele>657.0</ele><time>2026-04-11T14:00:01.495Z</time></trkpt><trkpt lat="44.1069813" lon="11.524801"><ele>657.0</ele><time>2026-04-11T14:00:04.495Z</time></trkpt><trkpt lat="44.1069362" lon="11.5249088"><ele>657.2</ele><time>2026-04-11T14:00:06.493Z</time></trkpt><trkpt lat="44.1068942" lon="11.5250308"><ele>657.4000000000001</ele><time>2026-04-11T14:00:08.494Z</time></trkpt><trkpt lat="44.1068567" lon="11.5251278"><ele>657.5999999999999</ele><time>2026-04-11T14:00:10.493Z</time></trkpt><trkpt lat="44.1068837" lon="11.5252238"><ele>657.8</ele><time>2026-04-11T14:00:32.495Z</time></trkpt><trkpt lat="44.1068308" lon="11.5252938"><ele>658.0</ele><time>2026-04-11T14:00:34.493Z</time></trkpt><trkpt lat="44.1066982" lon="11.5253218"><ele>658.0</ele><time>2026-04-11T14:00:38.491Z</time></trkpt><trkpt lat="44.106599" lon="11.5252728"><ele>658.0</ele><time>2026-04-11T14:00:40.494Z</time></trkpt><trkpt lat="44.1065433" lon="11.5251803"><ele>658.0</ele><time>2026-04-11T14:00:42.491Z</time></trkpt><trkpt lat="44.1064885" lon="11.5250532"><ele>658.0</ele><time>2026-04-11T14:00:44.492Z</time></trkpt><trkpt lat="44.1064368" lon="11.524943"><ele>658.0</ele><time>2026-04-11T14:00:46.491Z</time></trkpt><trkpt lat="44.1063778" lon="11.5248238"><ele>657.8</ele><time>2026-04-11T14:00:48.491Z</time></trkpt><trkpt lat="44.1063293" lon="11.5247013"><ele>657.5999999999999</ele><time>2026-04-11T14:00:50.491Z</time></trkpt><trkpt lat="44.1063105" lon="11.5245552"><ele>657.4000000000001</ele><time>2026-04-11T14:00:52.492Z</time></trkpt><trkpt lat="44.1063035" lon="11.5244002"><ele>657.2</ele><time>2026-04-11T14:00:54.491Z</time></trkpt><trkpt lat="44.1062578" lon="11.5242725"><ele>657.0</ele><time>2026-04-11T14:00:56.491Z</time></trkpt><trkpt lat="44.106177" lon="11.5241623"><ele>657.0</ele><time>2026-04-11T14:00:58.492Z</time></trkpt><trkpt lat="44.1060863" lon="11.5240618"><ele>657.0</ele><time>2026-04-11T14:01:00.489Z</time></trkpt><trkpt lat="44.106042" lon="11.5239965"><ele>657.0</ele><time>2026-04-11T14:01:01.49Z</time></trkpt><trkpt lat="44.105981" lon="11.5238698"><ele>657.0</ele><time>2026-04-11T14:01:03.49Z</time></trkpt><trkpt lat="44.1059138" lon="11.5237558"><ele>657.0</ele><time>2026-04-11T14:01:05.492Z</time></trkpt><trkpt lat="44.1058605" lon="11.5236228"><ele>657.4000000000001</ele><time>2026-04-11T14:01:07.491Z</time></trkpt><trkpt lat="44.105825" lon="11.5235463"><ele>657.8000000000001</ele><time>2026-04-11T14:01:08.494Z</time></trkpt><trkpt lat="44.105771" lon="11.5234363"><ele>658.2</ele><time>2026-04-11T14:01:10.493Z</time></trkpt><trkpt lat="44.1057468" lon="11.5232968"><ele>658.6</ele><time>2026-04-11T14:01:12.491Z</time></trkpt><trkpt lat="44.1057497" lon="11.523145"><ele>659.0</ele><time>2026-04-11T14:01:14.494Z</time></trkpt><trkpt lat="44.105725" lon="11.5229893"><ele>657.2</ele><time>2026-04-11T14:01:16.493Z</time></trkpt><trkpt lat="44.1056902" lon="11.5228477"><ele>655.4000000000001</ele><time>2026-04-11T14:01:18.493Z</time></trkpt><trkpt lat="44.1056517" lon="11.5226983"><ele>653.6</ele><time>2026-04-11T14:01:20.495Z</time></trkpt><trkpt lat="44.1056605" lon="11.5225652"><ele>651.8</ele><time>2026-04-11T14:01:22.492Z</time></trkpt><trkpt lat="44.1056583" lon="11.5224368"><ele>650.0</ele><time>2026-04-11T14:01:24.492Z</time></trkpt><trkpt lat="44.1056313" lon="11.5222847"><ele>650.0</ele><time>2026-04-11T14:01:26.491Z</time></trkpt><trkpt lat="44.1056292" lon="11.522136"><ele>650.0</ele><time>2026-04-11T14:01:28.491Z</time></trkpt><trkpt lat="44.1056325" lon="11.521998"><ele>650.0</ele><time>2026-04-11T14:01:30.49Z</time></trkpt><trkpt lat="44.105625" lon="11.521855"><ele>650.0</ele><time>2026-04-11T14:01:32.492Z</time></trkpt><trkpt lat="44.105643" lon="11.5217198"><ele>650.0</ele><time>2026-04-11T14:01:34.491Z</time></trkpt><trkpt lat="44.1056415" lon="11.521586"><ele>655.2</ele><time>2026-04-11T14:01:36.491Z</time></trkpt><trkpt lat="44.1055713" lon="11.5214568"><ele>660.4</ele><time>2026-04-11T14:01:38.49Z</time></trkpt><trkpt lat="44.105528" lon="11.5213908"><ele>665.5999999999999</ele><time>2026-04-11T14:01:39.491Z</time></trkpt><trkpt lat="44.1054807" lon="11.5213142"><ele>670.8</ele><time>2026-04-11T14:01:40.491Z</time></trkpt><trkpt lat="44.1054272" lon="11.521233"><ele>676.0</ele><time>2026-04-11T14:01:41.491Z</time></trkpt><trkpt lat="44.1053112" lon="11.5210658"><ele>678.4</ele><time>2026-04-11T14:01:43.49Z</time></trkpt><trkpt lat="44.1052675" lon="11.5209873"><ele>680.8</ele><time>2026-04-11T14:01:44.491Z</time></trkpt><trkpt lat="44.1051832" lon="11.520868"><ele>683.1999999999999</ele><time>2026-04-11T14:01:46.49Z</time></trkpt><trkpt lat="44.1050972" lon="11.520774"><ele>685.5999999999999</ele><time>2026-04-11T14:01:48.49Z</time></trkpt><trkpt lat="44.1050118" lon="11.5206892"><ele>688.0</ele><time>2026-04-11T14:01:50.489Z</time></trkpt><trkpt lat="44.1049392" lon="11.5205822"><ele>687.5</ele><time>2026-04-11T14:01:52.489Z</time></trkpt><trkpt lat="44.1048813" lon="11.5205085"><ele>687.0</ele><time>2026-04-11T14:01:54.492Z</time></trkpt><trkpt lat="44.1048233" lon="11.5204332"><ele>686.5</ele><time>2026-04-11T14:01:56.492Z</time></trkpt><trkpt lat="44.1047462" lon="11.5203242"><ele>686.0</ele><time>2026-04-11T14:01:58.492Z</time></trkpt><trkpt lat="44.1046955" lon="11.5202527"><ele>685.5</ele><time>2026-04-11T14:01:59.491Z</time></trkpt><trkpt lat="44.104647" lon="11.5201757"><ele>685.0</ele><time>2026-04-11T14:02:00.493Z</time></trkpt><trkpt lat="44.1046013" lon="11.5201152"><ele>685.0</ele><time>2026-04-11T14:02:01.49Z</time></trkpt><trkpt lat="44.1045138" lon="11.5200317"><ele>685.0</ele><time>2026-04-11T14:02:03.492Z</time></trkpt><trkpt lat="44.1044505" lon="11.5199367"><ele>685.0</ele><time>2026-04-11T14:02:05.491Z</time></trkpt><trkpt lat="44.1043907" lon="11.5198292"><ele>685.0</ele><time>2026-04-11T14:02:07.493Z</time></trkpt><trkpt lat="44.1043318" lon="11.519704"><ele>685.0</ele><time>2026-04-11T14:02:09.493Z</time></trkpt><trkpt lat="44.1042685" lon="11.5195622"><ele>685.8</ele><time>2026-04-11T14:02:11.494Z</time></trkpt><trkpt lat="44.1041983" lon="11.5194265"><ele>686.6</ele><time>2026-04-11T14:02:13.492Z</time></trkpt><trkpt lat="44.1041538" lon="11.5193598"><ele>687.4000000000001</ele><time>2026-04-11T14:02:14.49Z</time></trkpt><trkpt lat="44.104074" lon="11.5192537"><ele>688.2</ele><time>2026-04-11T14:02:16.489Z</time></trkpt><trkpt lat="44.1039935" lon="11.5191692"><ele>689.0</ele><time>2026-04-11T14:02:18.491Z</time></trkpt><trkpt lat="44.1038898" lon="11.5191265"><ele>689.2</ele><time>2026-04-11T14:02:20.491Z</time></trkpt><trkpt lat="44.1038223" lon="11.5191098"><ele>689.4000000000001</ele><time>2026-04-11T14:02:21.49Z</time></trkpt><trkpt lat="44.1037232" lon="11.5190557"><ele>689.6</ele><time>2026-04-11T14:02:23.491Z</time></trkpt><trkpt lat="44.1036298" lon="11.5189793"><ele>689.8</ele><time>2026-04-11T14:02:25.49Z</time></trkpt><trkpt lat="44.1035335" lon="11.5189047"><ele>690.0</ele><time>2026-04-11T14:02:27.491Z</time></trkpt><trkpt lat="44.1034713" lon="11.5188193"><ele>692.0</ele><time>2026-04-11T14:02:29.492Z</time></trkpt><trkpt lat="44.1034438" lon="11.5186928"><ele>694.0</ele><time>2026-04-11T14:02:31.494Z</time></trkpt><trkpt lat="44.103416" lon="11.5185618"><ele>696.0</ele><time>2026-04-11T14:02:33.492Z</time></trkpt><trkpt lat="44.1033713" lon="11.5184383"><ele>698.0</ele><time>2026-04-11T14:02:35.492Z</time></trkpt><trkpt lat="44.103337" lon="11.5183583"><ele>700.0</ele><time>2026-04-11T14:02:36.492Z</time></trkpt><trkpt lat="44.1032978" lon="11.5182682"><ele>702.0</ele><time>2026-04-11T14:02:37.491Z</time></trkpt><trkpt lat="44.1032582" lon="11.518182"><ele>702.4000000000001</ele><time>2026-04-11T14:02:38.492Z</time></trkpt><trkpt lat="44.1032227" lon="11.518101"><ele>702.8000000000001</ele><time>2026-04-11T14:02:39.491Z</time></trkpt><trkpt lat="44.1031705" lon="11.5179585"><ele>703.2</ele><time>2026-04-11T14:02:41.49Z</time></trkpt><trkpt lat="44.1031043" lon="11.5178235"><ele>703.6</ele><time>2026-04-11T14:02:43.494Z</time></trkpt><trkpt lat="44.1030345" lon="11.5177015"><ele>704.0</ele><time>2026-04-11T14:02:45.493Z</time></trkpt><trkpt lat="44.1029612" lon="11.5176072"><ele>704.0</ele><time>2026-04-11T14:02:47.493Z</time></trkpt><trkpt lat="44.1028848" lon="11.5174872"><ele>704.0</ele><time>2026-04-11T14:02:49.493Z</time></trkpt><trkpt lat="44.1028083" lon="11.5173522"><ele>704.0</ele><time>2026-04-11T14:02:51.495Z</time></trkpt><trkpt lat="44.1027198" lon="11.5172468"><ele>704.0</ele><time>2026-04-11T14:02:53.493Z</time></trkpt><trkpt lat="44.1026637" lon="11.5172067"><ele>704.0</ele><time>2026-04-11T14:02:54.496Z</time></trkpt><trkpt lat="44.1025638" lon="11.517134"><ele>705.0</ele><time>2026-04-11T14:02:56.493Z</time></trkpt><trkpt lat="44.1024897" lon="11.5170513"><ele>706.0</ele><time>2026-04-11T14:02:58.494Z</time></trkpt><trkpt lat="44.1024275" lon="11.5169572"><ele>707.0</ele><time>2026-04-11T14:03:00.494Z</time></trkpt><trkpt lat="44.1023572" lon="11.5168462"><ele>708.0</ele><time>2026-04-11T14:03:02.492Z</time></trkpt><trkpt lat="44.1022783" lon="11.5167252"><ele>709.0</ele><time>2026-04-11T14:03:04.492Z</time></trkpt><trkpt lat="44.102215" lon="11.516619"><ele>708.8000000000001</ele><time>2026-04-11T14:03:06.493Z</time></trkpt><trkpt lat="44.1021962" lon="11.5165193"><ele>708.6</ele><time>2026-04-11T14:03:08.495Z</time></trkpt><trkpt lat="44.102196" lon="11.516417"><ele>708.4</ele><time>2026-04-11T14:03:10.493Z</time></trkpt><trkpt lat="44.1021815" lon="11.5163033"><ele>708.2</ele><time>2026-04-11T14:03:12.493Z</time></trkpt><trkpt lat="44.1021428" lon="11.5161472"><ele>708.0</ele><time>2026-04-11T14:03:14.495Z</time></trkpt><trkpt lat="44.102108" lon="11.515987"><ele>708.0</ele><time>2026-04-11T14:03:16.494Z</time></trkpt><trkpt lat="44.102077" lon="11.5158538"><ele>708.0</ele><time>2026-04-11T14:03:18.495Z</time></trkpt><trkpt lat="44.102058" lon="11.5157265"><ele>708.0</ele><time>2026-04-11T14:03:20.494Z</time></trkpt><trkpt lat="44.10207" lon="11.5156035"><ele>708.0</ele><time>2026-04-11T14:03:22.493Z</time></trkpt><trkpt lat="44.1020738" lon="11.5154852"><ele>708.0</ele><time>2026-04-11T14:03:24.494Z</time></trkpt><trkpt lat="44.1020595" lon="11.5153468"><ele>708.0</ele><time>2026-04-11T14:03:26.495Z</time></trkpt><trkpt lat="44.1020152" lon="11.5152298"><ele>708.0</ele><time>2026-04-11T14:03:28.491Z</time></trkpt><trkpt lat="44.101971" lon="11.5151073"><ele>708.0</ele><time>2026-04-11T14:03:30.492Z</time></trkpt><trkpt lat="44.1019317" lon="11.5149642"><ele>708.0</ele><time>2026-04-11T14:03:32.494Z</time></trkpt><trkpt lat="44.1019088" lon="11.5148025"><ele>708.0</ele><time>2026-04-11T14:03:34.493Z</time></trkpt><trkpt lat="44.1019143" lon="11.5146457"><ele>707.6666666666666</ele><time>2026-04-11T14:03:36.493Z</time></trkpt><trkpt lat="44.1019577" lon="11.5144895"><ele>707.3333333333334</ele><time>2026-04-11T14:03:38.494Z</time></trkpt><trkpt lat="44.1019725" lon="11.514402"><ele>707.0</ele><time>2026-04-11T14:03:39.494Z</time></trkpt><trkpt lat="44.1019828" lon="11.514299"><ele>706.6666666666667</ele><time>2026-04-11T14:03:40.493Z</time></trkpt><trkpt lat="44.1019937" lon="11.514197"><ele>706.3333333333334</ele><time>2026-04-11T14:03:41.496Z</time></trkpt><trkpt lat="44.1019945" lon="11.514099"><ele>706.0</ele><time>2026-04-11T14:03:42.493Z</time></trkpt><trkpt lat="44.101984" lon="11.5139897"><ele>706.0</ele><time>2026-04-11T14:03:43.493Z</time></trkpt><trkpt lat="44.1019653" lon="11.5138713"><ele>706.0</ele><time>2026-04-11T14:03:44.494Z</time></trkpt><trkpt lat="44.1019497" lon="11.513759"><ele>706.0</ele><time>2026-04-11T14:03:45.493Z</time></trkpt><trkpt lat="44.1019408" lon="11.5136533"><ele>706.0</ele><time>2026-04-11T14:03:46.492Z</time></trkpt><trkpt lat="44.1019373" lon="11.5135435"><ele>706.0</ele><time>2026-04-11T14:03:47.492Z</time></trkpt><trkpt lat="44.1019437" lon="11.5134282"><ele>706.0</ele><time>2026-04-11T14:03:48.493Z</time></trkpt><trkpt lat="44.101954" lon="11.513323"><ele>706.8333333333334</ele><time>2026-04-11T14:03:49.492Z</time></trkpt><trkpt lat="44.1019558" lon="11.5132193"><ele>707.6666666666667</ele><time>2026-04-11T14:03:50.492Z</time></trkpt><trkpt lat="44.1019467" lon="11.5131262"><ele>708.5</ele><time>2026-04-11T14:03:51.493Z</time></trkpt><trkpt lat="44.1019272" lon="11.5130338"><ele>709.3333333333334</ele><time>2026-04-11T14:03:52.489Z</time></trkpt><trkpt lat="44.1018947" lon="11.5129437"><ele>710.1666666666666</ele><time>2026-04-11T14:03:53.491Z</time></trkpt><trkpt lat="44.1018202" lon="11.5127547"><ele>711.0</ele><time>2026-04-11T14:03:55.494Z</time></trkpt><trkpt lat="44.1017723" lon="11.5126787"><ele>713.1999999999999</ele><time>2026-04-11T14:03:56.492Z</time></trkpt><trkpt lat="44.1017312" lon="11.5126113"><ele>715.4</ele><time>2026-04-11T14:03:57.492Z</time></trkpt><trkpt lat="44.1016902" lon="11.5125447"><ele>717.6</ele><time>2026-04-11T14:03:58.497Z</time></trkpt><trkpt lat="44.1016525" lon="11.5124122"><ele>719.8</ele><time>2026-04-11T14:04:00.495Z</time></trkpt><trkpt lat="44.1016642" lon="11.512267"><ele>722.0</ele><time>2026-04-11T14:04:02.493Z</time></trkpt><trkpt lat="44.1016773" lon="11.5121068"><ele>721.4000000000001</ele><time>2026-04-11T14:04:04.493Z</time></trkpt><trkpt lat="44.1016822" lon="11.511947"><ele>720.8000000000001</ele><time>2026-04-11T14:04:06.494Z</time></trkpt><trkpt lat="44.10165" lon="11.5117892"><ele>720.2</ele><time>2026-04-11T14:04:08.493Z</time></trkpt><trkpt lat="44.1016042" lon="11.5116253"><ele>719.6</ele><time>2026-04-11T14:04:10.495Z</time></trkpt><trkpt lat="44.101571" lon="11.5115323"><ele>719.0</ele><time>2026-04-11T14:04:11.493Z</time></trkpt><trkpt lat="44.1015423" lon="11.511437"><ele>719.0</ele><time>2026-04-11T14:04:12.493Z</time></trkpt><trkpt lat="44.1015172" lon="11.511347"><ele>719.0</ele><time>2026-04-11T14:04:13.493Z</time></trkpt><trkpt lat="44.1014963" lon="11.5112608"><ele>719.0</ele><time>2026-04-11T14:04:14.493Z</time></trkpt><trkpt lat="44.101478" lon="11.5111762"><ele>719.0</ele><time>2026-04-11T14:04:15.491Z</time></trkpt><trkpt lat="44.1014292" lon="11.5110428"><ele>719.0</ele><time>2026-04-11T14:04:17.49Z</time></trkpt><trkpt lat="44.1013482" lon="11.510938"><ele>719.0</ele><time>2026-04-11T14:04:19.49Z</time></trkpt><trkpt lat="44.101289" lon="11.510893"><ele>723.0</ele><time>2026-04-11T14:04:20.493Z</time></trkpt><trkpt lat="44.1012343" lon="11.5108395"><ele>727.0</ele><time>2026-04-11T14:04:21.492Z</time></trkpt><trkpt lat="44.1011833" lon="11.5107848"><ele>731.0</ele><time>2026-04-11T14:04:22.492Z</time></trkpt><trkpt lat="44.1011262" lon="11.5107317"><ele>735.0</ele><time>2026-04-11T14:04:23.494Z</time></trkpt><trkpt lat="44.1010708" lon="11.5106847"><ele>739.0</ele><time>2026-04-11T14:04:24.493Z</time></trkpt><trkpt lat="44.1009925" lon="11.5105817"><ele>743.0</ele><time>2026-04-11T14:04:26.493Z</time></trkpt><trkpt lat="44.1009647" lon="11.510446"><ele>744.0</ele><time>2026-04-11T14:04:28.491Z</time></trkpt><trkpt lat="44.1009653" lon="11.5102785"><ele>745.0</ele><time>2026-04-11T14:04:30.491Z</time></trkpt><trkpt lat="44.1009712" lon="11.5101848"><ele>746.0</ele><time>2026-04-11T14:04:31.49Z</time></trkpt><trkpt lat="44.100979" lon="11.5100883"><ele>747.0</ele><time>2026-04-11T14:04:32.492Z</time></trkpt><trkpt lat="44.1010192" lon="11.509932"><ele>748.0</ele><time>2026-04-11T14:04:34.493Z</time></trkpt><trkpt lat="44.1010535" lon="11.5098555"><ele>749.0</ele><time>2026-04-11T14:04:35.492Z</time></trkpt><trkpt lat="44.1011005" lon="11.5097068"><ele>749.0</ele><time>2026-04-11T14:04:37.492Z</time></trkpt><trkpt lat="44.1011195" lon="11.5095437"><ele>749.0</ele><time>2026-04-11T14:04:39.492Z</time></trkpt><trkpt lat="44.1011247" lon="11.5093643"><ele>749.0</ele><time>2026-04-11T14:04:41.491Z</time></trkpt><trkpt lat="44.1011468" lon="11.5091607"><ele>749.0</ele><time>2026-04-11T14:04:43.491Z</time></trkpt><trkpt lat="44.1011672" lon="11.5090432"><ele>749.0</ele><time>2026-04-11T14:04:44.494Z</time></trkpt><trkpt lat="44.1011965" lon="11.5089388"><ele>749.0</ele><time>2026-04-11T14:04:45.494Z</time></trkpt><trkpt lat="44.10122" lon="11.5088267"><ele>749.0</ele><time>2026-04-11T14:04:46.495Z</time></trkpt><trkpt lat="44.1012487" lon="11.5087183"><ele>749.0</ele><time>2026-04-11T14:04:47.493Z</time></trkpt><trkpt lat="44.1012808" lon="11.5086175"><ele>749.0</ele><time>2026-04-11T14:04:48.492Z</time></trkpt><trkpt lat="44.1013158" lon="11.508522"><ele>749.0</ele><time>2026-04-11T14:04:49.492Z</time></trkpt><trkpt lat="44.1013512" lon="11.5084222"><ele>748.8333333333333</ele><time>2026-04-11T14:04:50.494Z</time></trkpt><trkpt lat="44.1013885" lon="11.5083258"><ele>748.6666666666666</ele><time>2026-04-11T14:04:51.494Z</time></trkpt><trkpt lat="44.101422" lon="11.5082255"><ele>748.5</ele><time>2026-04-11T14:04:52.492Z</time></trkpt><trkpt lat="44.1014575" lon="11.5081223"><ele>748.3333333333334</ele><time>2026-04-11T14:04:53.494Z</time></trkpt><trkpt lat="44.1014985" lon="11.5080307"><ele>748.1666666666667</ele><time>2026-04-11T14:04:54.495Z</time></trkpt><trkpt lat="44.1015762" lon="11.5079198"><ele>748.0</ele><time>2026-04-11T14:04:56.495Z</time></trkpt><trkpt lat="44.1016095" lon="11.5078408"><ele>745.8333333333334</ele><time>2026-04-11T14:05:01.493Z</time></trkpt><trkpt lat="44.1015703" lon="11.5077693"><ele>743.6666666666667</ele><time>2026-04-11T14:05:11.495Z</time></trkpt><trkpt lat="44.1015383" lon="11.507692"><ele>741.5</ele><time>2026-04-11T14:06:06.494Z</time></trkpt><trkpt lat="44.1014647" lon="11.5075145"><ele>739.3333333333334</ele><time>2026-04-11T14:06:09.493Z</time></trkpt><trkpt lat="44.1014207" lon="11.5074175"><ele>737.1666666666666</ele><time>2026-04-11T14:06:10.493Z</time></trkpt><trkpt lat="44.1013775" lon="11.5073135"><ele>735.0</ele><time>2026-04-11T14:06:11.495Z</time></trkpt><trkpt lat="44.1013372" lon="11.507202"><ele>734.2</ele><time>2026-04-11T14:06:12.493Z</time></trkpt><trkpt lat="44.101295" lon="11.5070695"><ele>733.4</ele><time>2026-04-11T14:06:13.493Z</time></trkpt><trkpt lat="44.1012518" lon="11.5069525"><ele>732.5999999999999</ele><time>2026-04-11T14:06:14.493Z</time></trkpt><trkpt lat="44.1011863" lon="11.5068325"><ele>731.8</ele><time>2026-04-11T14:06:15.493Z</time></trkpt><trkpt lat="44.1011163" lon="11.5067183"><ele>731.0</ele><time>2026-04-11T14:06:16.494Z</time></trkpt><trkpt lat="44.1010435" lon="11.5066065"><ele>731.0</ele><time>2026-04-11T14:06:17.494Z</time></trkpt><trkpt lat="44.1009768" lon="11.5065032"><ele>731.0</ele><time>2026-04-11T14:06:18.493Z</time></trkpt><trkpt lat="44.1009255" lon="11.5063982"><ele>731.0</ele><time>2026-04-11T14:06:19.492Z</time></trkpt><trkpt lat="44.1009055" lon="11.5062928"><ele>731.0</ele><time>2026-04-11T14:06:20.493Z</time></trkpt><trkpt lat="44.100913" lon="11.5061858"><ele>731.0</ele><time>2026-04-11T14:06:21.493Z</time></trkpt><trkpt lat="44.100941" lon="11.5060667"><ele>731.0</ele><time>2026-04-11T14:06:22.494Z</time></trkpt><trkpt lat="44.1009765" lon="11.5059293"><ele>729.0</ele><time>2026-04-11T14:06:23.496Z</time></trkpt><trkpt lat="44.1010177" lon="11.5057637"><ele>727.0</ele><time>2026-04-11T14:06:24.495Z</time></trkpt><trkpt lat="44.101065" lon="11.5055772"><ele>725.0</ele><time>2026-04-11T14:06:25.496Z</time></trkpt><trkpt lat="44.101112" lon="11.5054032"><ele>723.0</ele><time>2026-04-11T14:06:26.494Z</time></trkpt><trkpt lat="44.101157" lon="11.505238"><ele>719.75</ele><time>2026-04-11T14:06:27.493Z</time></trkpt><trkpt lat="44.1012003" lon="11.5050822"><ele>716.5</ele><time>2026-04-11T14:06:28.494Z</time></trkpt><trkpt lat="44.1012403" lon="11.5049327"><ele>713.25</ele><time>2026-04-11T14:06:29.495Z</time></trkpt><trkpt lat="44.1012748" lon="11.5047852"><ele>710.0</ele><time>2026-04-11T14:06:30.495Z</time></trkpt><trkpt lat="44.1013095" lon="11.504648"><ele>708.2</ele><time>2026-04-11T14:06:31.496Z</time></trkpt><trkpt lat="44.101343" lon="11.5045192"><ele>706.4</ele><time>2026-04-11T14:06:32.496Z</time></trkpt><trkpt lat="44.1013672" lon="11.5044083"><ele>704.5999999999999</ele><time>2026-04-11T14:06:33.496Z</time></trkpt><trkpt lat="44.1013743" lon="11.5043108"><ele>702.8</ele><time>2026-04-11T14:06:34.495Z</time></trkpt><trkpt lat="44.101332" lon="11.5041693"><ele>701.0</ele><time>2026-04-11T14:06:36.496Z</time></trkpt><trkpt lat="44.1013487" lon="11.5040085"><ele>701.0</ele><time>2026-04-11T14:06:38.496Z</time></trkpt><trkpt lat="44.1013778" lon="11.5039213"><ele>701.0</ele><time>2026-04-11T14:06:39.495Z</time></trkpt><trkpt lat="44.1013958" lon="11.5038327"><ele>701.0</ele><time>2026-04-11T14:06:40.494Z</time></trkpt><trkpt lat="44.1014237" lon="11.5036873"><ele>701.0</ele><time>2026-04-11T14:06:42.494Z</time></trkpt><trkpt lat="44.1014988" lon="11.503668"><ele>701.0</ele><time>2026-04-11T14:06:44.492Z</time></trkpt><trkpt lat="44.1016143" lon="11.5036703"><ele>701.0</ele><time>2026-04-11T14:06:46.492Z</time></trkpt><trkpt lat="44.1016818" lon="11.503636"><ele>701.4285714285714</ele><time>2026-04-11T14:06:47.493Z</time></trkpt><trkpt lat="44.101749" lon="11.5035818"><ele>701.8571428571428</ele><time>2026-04-11T14:06:48.493Z</time></trkpt><trkpt lat="44.101809" lon="11.5035242"><ele>702.2857142857142</ele><time>2026-04-11T14:06:49.493Z</time></trkpt><trkpt lat="44.1018522" lon="11.5034528"><ele>702.7142857142858</ele><time>2026-04-11T14:06:50.493Z</time></trkpt><trkpt lat="44.1018908" lon="11.5033803"><ele>703.1428571428571</ele><time>2026-04-11T14:06:51.492Z</time></trkpt><trkpt lat="44.10194" lon="11.5033202"><ele>703.5714285714286</ele><time>2026-04-11T14:06:52.492Z</time></trkpt><trkpt lat="44.1019947" lon="11.5032707"><ele>704.0</ele><time>2026-04-11T14:06:53.493Z</time></trkpt><trkpt lat="44.1020572" lon="11.503158"><ele>704.0</ele><time>2026-04-11T14:06:55.493Z</time></trkpt><trkpt lat="44.1019965" lon="11.5030312"><ele>704.0</ele><time>2026-04-11T14:06:57.492Z</time></trkpt><trkpt lat="44.1019288" lon="11.5029712"><ele>704.0</ele><time>2026-04-11T14:06:58.492Z</time></trkpt><trkpt lat="44.1018687" lon="11.5029225"><ele>704.0</ele><time>2026-04-11T14:06:59.492Z</time></trkpt><trkpt lat="44.1018035" lon="11.5028105"><ele>704.0</ele><time>2026-04-11T14:07:01.493Z</time></trkpt><trkpt lat="44.1017735" lon="11.5026368"><ele>704.3333333333333</ele><time>2026-04-11T14:07:03.493Z</time></trkpt><trkpt lat="44.1017723" lon="11.5025313"><ele>704.6666666666666</ele><time>2026-04-11T14:07:04.493Z</time></trkpt><trkpt lat="44.1017697" lon="11.502415"><ele>705.0</ele><time>2026-04-11T14:07:05.494Z</time></trkpt><trkpt lat="44.101757" lon="11.5023138"><ele>705.3333333333334</ele><time>2026-04-11T14:07:06.492Z</time></trkpt><trkpt lat="44.1017283" lon="11.5022203"><ele>705.6666666666667</ele><time>2026-04-11T14:07:07.491Z</time></trkpt><trkpt lat="44.1016855" lon="11.5021157"><ele>706.0</ele><time>2026-04-11T14:07:08.492Z</time></trkpt><trkpt lat="44.1016503" lon="11.5020133"><ele>704.0</ele><time>2026-04-11T14:07:09.491Z</time></trkpt><trkpt lat="44.1016328" lon="11.5019075"><ele>702.0</ele><time>2026-04-11T14:07:10.491Z</time></trkpt><trkpt lat="44.1016228" lon="11.5017958"><ele>700.0</ele><time>2026-04-11T14:07:11.491Z</time></trkpt><trkpt lat="44.1015993" lon="11.5016978"><ele>698.0</ele><time>2026-04-11T14:07:12.493Z</time></trkpt><trkpt lat="44.101564" lon="11.5016083"><ele>696.0</ele><time>2026-04-11T14:07:13.491Z</time></trkpt><trkpt lat="44.101364" lon="11.5013863"><ele>696.0</ele><time>2026-04-11T14:07:16.492Z</time></trkpt><trkpt lat="44.1012933" lon="11.501325"><ele>696.0</ele><time>2026-04-11T14:07:17.494Z</time></trkpt><trkpt lat="44.1012298" lon="11.501264"><ele>696.0</ele><time>2026-04-11T14:07:18.492Z</time></trkpt><trkpt lat="44.1011622" lon="11.5012128"><ele>696.0</ele><time>2026-04-11T14:07:19.491Z</time></trkpt><trkpt lat="44.1010877" lon="11.5011868"><ele>696.0</ele><time>2026-04-11T14:07:20.491Z</time></trkpt><trkpt lat="44.1010093" lon="11.5011753"><ele>696.0</ele><time>2026-04-11T14:07:21.492Z</time></trkpt><trkpt lat="44.1009325" lon="11.5011672"><ele>693.3333333333334</ele><time>2026-04-11T14:07:22.494Z</time></trkpt><trkpt lat="44.1008568" lon="11.501142"><ele>690.6666666666666</ele><time>2026-04-11T14:07:23.494Z</time></trkpt><trkpt lat="44.1007975" lon="11.5010987"><ele>688.0</ele><time>2026-04-11T14:07:24.492Z</time></trkpt><trkpt lat="44.1007332" lon="11.5009448"><ele>685.3333333333333</ele><time>2026-04-11T14:07:26.494Z</time></trkpt><trkpt lat="44.1007202" lon="11.5008272"><ele>682.6666666666666</ele><time>2026-04-11T14:07:27.493Z</time></trkpt><trkpt lat="44.1007177" lon="11.5007028"><ele>680.0</ele><time>2026-04-11T14:07:28.492Z</time></trkpt><trkpt lat="44.1007202" lon="11.5005888"><ele>680.0</ele><time>2026-04-11T14:07:29.491Z</time></trkpt><trkpt lat="44.100706" lon="11.5004833"><ele>680.0</ele><time>2026-04-11T14:07:30.492Z</time></trkpt><trkpt lat="44.1006715" lon="11.5003853"><ele>680.0</ele><time>2026-04-11T14:07:31.491Z</time></trkpt><trkpt lat="44.100617" lon="11.5002873"><ele>680.0</ele><time>2026-04-11T14:07:32.491Z</time></trkpt><trkpt lat="44.100552" lon="11.5001965"><ele>680.0</ele><time>2026-04-11T14:07:33.49Z</time></trkpt><trkpt lat="44.1004757" lon="11.5001148"><ele>680.0</ele><time>2026-04-11T14:07:34.49Z</time></trkpt><trkpt lat="44.1003912" lon="11.5000443"><ele>685.0</ele><time>2026-04-11T14:07:35.491Z</time></trkpt><trkpt lat="44.1003138" lon="11.4999895"><ele>690.0</ele><time>2026-04-11T14:07:36.493Z</time></trkpt><trkpt lat="44.100251" lon="11.4999198"><ele>695.0</ele><time>2026-04-11T14:07:37.492Z</time></trkpt><trkpt lat="44.1002028" lon="11.4998403"><ele>700.0</ele><time>2026-04-11T14:07:38.491Z</time></trkpt><trkpt lat="44.100144" lon="11.4997662"><ele>705.0</ele><time>2026-04-11T14:07:39.494Z</time></trkpt><trkpt lat="44.1000787" lon="11.499696"><ele>710.0</ele><time>2026-04-11T14:07:40.492Z</time></trkpt><trkpt lat="44.100005" lon="11.499643"><ele>710.0</ele><time>2026-04-11T14:07:41.492Z</time></trkpt><trkpt lat="44.0999258" lon="11.4996007"><ele>710.0</ele><time>2026-04-11T14:07:42.492Z</time></trkpt><trkpt lat="44.09985" lon="11.4995563"><ele>710.0</ele><time>2026-04-11T14:07:43.492Z</time></trkpt><trkpt lat="44.0997815" lon="11.4995083"><ele>710.0</ele><time>2026-04-11T14:07:44.493Z</time></trkpt><trkpt lat="44.0997333" lon="11.4993687"><ele>710.0</ele><time>2026-04-11T14:07:46.493Z</time></trkpt><trkpt lat="44.0997125" lon="11.4990517"><ele>710.0</ele><time>2026-04-11T14:07:49.492Z</time></trkpt><trkpt lat="44.0997057" lon="11.4989562"><ele>710.0</ele><time>2026-04-11T14:07:50.492Z</time></trkpt><trkpt lat="44.0997585" lon="11.4988288"><ele>710.0</ele><time>2026-04-11T14:07:52.491Z</time></trkpt><trkpt lat="44.0998175" lon="11.498777"><ele>710.0</ele><time>2026-04-11T14:07:53.491Z</time></trkpt><trkpt lat="44.0998797" lon="11.498733"><ele>710.0</ele><time>2026-04-11T14:07:54.491Z</time></trkpt><trkpt lat="44.0999838" lon="11.4986475"><ele>710.0</ele><time>2026-04-11T14:07:56.491Z</time></trkpt><trkpt lat="44.1000488" lon="11.4985887"><ele>710.0</ele><time>2026-04-11T14:07:57.49Z</time></trkpt><trkpt lat="44.1001158" lon="11.4985395"><ele>710.0</ele><time>2026-04-11T14:07:58.491Z</time></trkpt><trkpt lat="44.1002322" lon="11.4985175"><ele>710.0</ele><time>2026-04-11T14:08:00.494Z</time></trkpt><trkpt lat="44.1003337" lon="11.4984552"><ele>710.0</ele><time>2026-04-11T14:08:02.492Z</time></trkpt><trkpt lat="44.1003722" lon="11.4983835"><ele>710.0</ele><time>2026-04-11T14:08:03.491Z</time></trkpt><trkpt lat="44.100391" lon="11.498253"><ele>710.0</ele><time>2026-04-11T14:08:05.491Z</time></trkpt><trkpt lat="44.1003573" lon="11.498138"><ele>710.0</ele><time>2026-04-11T14:08:06.491Z</time></trkpt><trkpt lat="44.100323" lon="11.497998"><ele>710.0</ele><time>2026-04-11T14:08:07.493Z</time></trkpt><trkpt lat="44.1002952" lon="11.4978605"><ele>710.0</ele><time>2026-04-11T14:08:08.494Z</time></trkpt><trkpt lat="44.1002607" lon="11.4977315"><ele>710.0</ele><time>2026-04-11T14:08:09.493Z</time></trkpt><trkpt lat="44.1002238" lon="11.4976103"><ele>709.4</ele><time>2026-04-11T14:08:10.493Z</time></trkpt><trkpt lat="44.100188" lon="11.4974825"><ele>708.8</ele><time>2026-04-11T14:08:11.493Z</time></trkpt><trkpt lat="44.1001625" lon="11.4973468"><ele>708.2</ele><time>2026-04-11T14:08:12.491Z</time></trkpt><trkpt lat="44.100142" lon="11.49721"><ele>707.6</ele><time>2026-04-11T14:08:13.491Z</time></trkpt><trkpt lat="44.100134" lon="11.497092"><ele>707.0</ele><time>2026-04-11T14:08:14.493Z</time></trkpt><trkpt lat="44.1001375" lon="11.496969"><ele>707.0</ele><time>2026-04-11T14:08:15.491Z</time></trkpt><trkpt lat="44.1001225" lon="11.4968392"><ele>707.0</ele><time>2026-04-11T14:08:16.491Z</time></trkpt><trkpt lat="44.100104" lon="11.4966902"><ele>707.0</ele><time>2026-04-11T14:08:17.492Z</time></trkpt><trkpt lat="44.1000733" lon="11.49653"><ele>707.0</ele><time>2026-04-11T14:08:18.492Z</time></trkpt><trkpt lat="44.1000408" lon="11.4963872"><ele>707.0</ele><time>2026-04-11T14:08:19.492Z</time></trkpt><trkpt lat="44.1000163" lon="11.4960798"><ele>707.4000000000001</ele><time>2026-04-11T14:08:22.491Z</time></trkpt><trkpt lat="44.1000382" lon="11.4959742"><ele>707.8000000000001</ele><time>2026-04-11T14:08:23.491Z</time></trkpt><trkpt lat="44.1000602" lon="11.4958535"><ele>708.2</ele><time>2026-04-11T14:08:24.491Z</time></trkpt><trkpt lat="44.1000898" lon="11.4957298"><ele>708.6</ele><time>2026-04-11T14:08:25.493Z</time></trkpt><trkpt lat="44.100129" lon="11.4956073"><ele>709.0</ele><time>2026-04-11T14:08:26.495Z</time></trkpt><trkpt lat="44.1001678" lon="11.4954793"><ele>707.0</ele><time>2026-04-11T14:08:27.493Z</time></trkpt><trkpt lat="44.100205" lon="11.4953618"><ele>705.0</ele><time>2026-04-11T14:08:28.494Z</time></trkpt><trkpt lat="44.100246" lon="11.4952593"><ele>703.0</ele><time>2026-04-11T14:08:29.494Z</time></trkpt><trkpt lat="44.1002873" lon="11.4951875"><ele>701.0</ele><time>2026-04-11T14:08:30.494Z</time></trkpt><trkpt lat="44.1003875" lon="11.495097"><ele>699.0</ele><time>2026-04-11T14:08:32.494Z</time></trkpt><trkpt lat="44.1004692" lon="11.495064"><ele>697.0</ele><time>2026-04-11T14:08:33.494Z</time></trkpt><trkpt lat="44.1005533" lon="11.4950168"><ele>697.0</ele><time>2026-04-11T14:08:34.493Z</time></trkpt><trkpt lat="44.1006263" lon="11.4949588"><ele>697.0</ele><time>2026-04-11T14:08:35.492Z</time></trkpt><trkpt lat="44.1006805" lon="11.494881"><ele>697.0</ele><time>2026-04-11T14:08:36.493Z</time></trkpt><trkpt lat="44.1007263" lon="11.4947907"><ele>697.0</ele><time>2026-04-11T14:08:37.495Z</time></trkpt><trkpt lat="44.100775" lon="11.4946953"><ele>697.0</ele><time>2026-04-11T14:08:38.494Z</time></trkpt><trkpt lat="44.1008283" lon="11.4946195"><ele>697.0</ele><time>2026-04-11T14:08:39.494Z</time></trkpt><trkpt lat="44.1008775" lon="11.4945393"><ele>699.8333333333334</ele><time>2026-04-11T14:08:40.493Z</time></trkpt><trkpt lat="44.1009332" lon="11.4944588"><ele>702.6666666666667</ele><time>2026-04-11T14:08:41.494Z</time></trkpt><trkpt lat="44.1009855" lon="11.494378"><ele>705.5</ele><time>2026-04-11T14:08:42.493Z</time></trkpt><trkpt lat="44.1010332" lon="11.4942913"><ele>708.3333333333334</ele><time>2026-04-11T14:08:43.493Z</time></trkpt><trkpt lat="44.1010788" lon="11.4942213"><ele>711.1666666666666</ele><time>2026-04-11T14:08:44.493Z</time></trkpt><trkpt lat="44.101125" lon="11.4941608"><ele>714.0</ele><time>2026-04-11T14:08:45.491Z</time></trkpt><trkpt lat="44.101214" lon="11.4940375"><ele>714.0</ele><time>2026-04-11T14:08:47.493Z</time></trkpt><trkpt lat="44.1012437" lon="11.4938807"><ele>714.0</ele><time>2026-04-11T14:08:49.492Z</time></trkpt><trkpt lat="44.1012517" lon="11.4937863"><ele>714.0</ele><time>2026-04-11T14:08:50.494Z</time></trkpt><trkpt lat="44.101266" lon="11.4936837"><ele>714.0</ele><time>2026-04-11T14:08:51.494Z</time></trkpt><trkpt lat="44.1012858" lon="11.4935833"><ele>714.0</ele><time>2026-04-11T14:08:52.497Z</time></trkpt><trkpt lat="44.1013145" lon="11.4934872"><ele>714.0</ele><time>2026-04-11T14:08:53.496Z</time></trkpt><trkpt lat="44.1014232" lon="11.4931943"><ele>713.4000000000001</ele><time>2026-04-11T14:08:56.495Z</time></trkpt><trkpt lat="44.1014507" lon="11.4930892"><ele>712.8</ele><time>2026-04-11T14:08:57.498Z</time></trkpt><trkpt lat="44.1014647" lon="11.4929845"><ele>712.2</ele><time>2026-04-11T14:08:58.495Z</time></trkpt><trkpt lat="44.1014573" lon="11.492881"><ele>711.5999999999999</ele><time>2026-04-11T14:08:59.494Z</time></trkpt><trkpt lat="44.1014423" lon="11.492792"><ele>711.0</ele><time>2026-04-11T14:09:00.494Z</time></trkpt><trkpt lat="44.1028742" lon="11.492789"><ele>718.5</ele><time>2026-04-11T14:09:51.49Z</time></trkpt><trkpt lat="44.1029362" lon="11.4927107"><ele>726.0</ele><time>2026-04-11T14:09:56.493Z</time></trkpt><trkpt lat="44.1030788" lon="11.4925877"><ele>733.5</ele><time>2026-04-11T14:09:59.491Z</time></trkpt><trkpt lat="44.1031765" lon="11.4925727"><ele>741.0</ele><time>2026-04-11T14:10:01.491Z</time></trkpt><trkpt lat="44.1032828" lon="11.4926173"><ele>744.4</ele><time>2026-04-11T14:10:03.493Z</time></trkpt><trkpt lat="44.1033808" lon="11.4926278"><ele>747.8</ele><time>2026-04-11T14:10:05.492Z</time></trkpt><trkpt lat="44.1034568" lon="11.4925392"><ele>751.1999999999999</ele><time>2026-04-11T14:10:07.494Z</time></trkpt><trkpt lat="44.1035235" lon="11.4924487"><ele>754.5999999999999</ele><time>2026-04-11T14:10:09.493Z</time></trkpt><trkpt lat="44.1035925" lon="11.4923637"><ele>758.0</ele><time>2026-04-11T14:10:11.493Z</time></trkpt><trkpt lat="44.1036252" lon="11.4922198"><ele>756.8333333333333</ele><time>2026-04-11T14:10:13.492Z</time></trkpt><trkpt lat="44.1036185" lon="11.4920895"><ele>755.6666666666666</ele><time>2026-04-11T14:10:15.492Z</time></trkpt><trkpt lat="44.1036392" lon="11.4920002"><ele>754.5</ele><time>2026-04-11T14:10:17.493Z</time></trkpt><trkpt lat="44.1036803" lon="11.49188"><ele>753.3333333333334</ele><time>2026-04-11T14:10:19.491Z</time></trkpt><trkpt lat="44.103692" lon="11.4917922"><ele>752.1666666666667</ele><time>2026-04-11T14:10:20.491Z</time></trkpt><trkpt lat="44.1037067" lon="11.4917053"><ele>751.0</ele><time>2026-04-11T14:10:21.491Z</time></trkpt><trkpt lat="44.1037617" lon="11.4915642"><ele>751.0</ele><time>2026-04-11T14:10:23.491Z</time></trkpt><trkpt lat="44.1037995" lon="11.4914317"><ele>751.0</ele><time>2026-04-11T14:10:25.489Z</time></trkpt><trkpt lat="44.1038232" lon="11.4912818"><ele>751.0</ele><time>2026-04-11T14:10:27.491Z</time></trkpt><trkpt lat="44.1038225" lon="11.49116"><ele>751.0</ele><time>2026-04-11T14:10:29.494Z</time></trkpt><trkpt lat="44.1038625" lon="11.4910227"><ele>751.0</ele><time>2026-04-11T14:10:33.492Z</time></trkpt><trkpt lat="44.1039298" lon="11.4909392"><ele>750.5</ele><time>2026-04-11T14:10:37.493Z</time></trkpt><trkpt lat="44.1039828" lon="11.4908913"><ele>750.0</ele><time>2026-04-11T14:10:39.492Z</time></trkpt><trkpt lat="44.1040413" lon="11.4908228"><ele>749.5</ele><time>2026-04-11T14:10:41.493Z</time></trkpt><trkpt lat="44.1040985" lon="11.4907482"><ele>749.0</ele><time>2026-04-11T14:10:43.492Z</time></trkpt><trkpt lat="44.1041323" lon="11.4906438"><ele>748.5</ele><time>2026-04-11T14:10:45.493Z</time></trkpt><trkpt lat="44.1041663" lon="11.4905022"><ele>748.0</ele><time>2026-04-11T14:10:47.494Z</time></trkpt><trkpt lat="44.1041802" lon="11.4903368"><ele>754.2</ele><time>2026-04-11T14:10:49.49Z</time></trkpt><trkpt lat="44.104171" lon="11.4901927"><ele>760.4</ele><time>2026-04-11T14:10:51.492Z</time></trkpt><trkpt lat="44.104166" lon="11.4900685"><ele>766.6</ele><time>2026-04-11T14:10:53.494Z</time></trkpt><trkpt lat="44.1041852" lon="11.489942"><ele>772.8000000000001</ele><time>2026-04-11T14:10:55.492Z</time></trkpt><trkpt lat="44.1042097" lon="11.4898222"><ele>779.0</ele><time>2026-04-11T14:10:57.493Z</time></trkpt><trkpt lat="44.1042612" lon="11.4896633"><ele>779.2</ele><time>2026-04-11T14:10:59.493Z</time></trkpt><trkpt lat="44.1043062" lon="11.4895655"><ele>779.4000000000001</ele><time>2026-04-11T14:11:00.494Z</time></trkpt><trkpt lat="44.104344" lon="11.4894685"><ele>779.6</ele><time>2026-04-11T14:11:01.494Z</time></trkpt><trkpt lat="44.104371" lon="11.489377"><ele>779.8</ele><time>2026-04-11T14:11:02.493Z</time></trkpt><trkpt lat="44.104393" lon="11.489294"><ele>780.0</ele><time>2026-04-11T14:11:03.493Z</time></trkpt><trkpt lat="44.1044505" lon="11.4890845"><ele>780.0</ele><time>2026-04-11T14:11:06.494Z</time></trkpt><trkpt lat="44.1045122" lon="11.4889443"><ele>780.0</ele><time>2026-04-11T14:11:08.494Z</time></trkpt><trkpt lat="44.1045392" lon="11.4888637"><ele>780.0</ele><time>2026-04-11T14:11:09.495Z</time></trkpt><trkpt lat="44.1045947" lon="11.4887327"><ele>780.0</ele><time>2026-04-11T14:11:11.494Z</time></trkpt><trkpt lat="44.1046175" lon="11.4885662"><ele>780.0</ele><time>2026-04-11T14:11:13.491Z</time></trkpt><trkpt lat="44.1046227" lon="11.4884578"><ele>779.8</ele><time>2026-04-11T14:11:14.493Z</time></trkpt><trkpt lat="44.104621" lon="11.4883602"><ele>779.6</ele><time>2026-04-11T14:11:15.491Z</time></trkpt><trkpt lat="44.1046138" lon="11.4881873"><ele>779.4000000000001</ele><time>2026-04-11T14:11:17.495Z</time></trkpt><trkpt lat="44.1046318" lon="11.4881032"><ele>779.2</ele><time>2026-04-11T14:11:18.497Z</time></trkpt><trkpt lat="44.104709" lon="11.4879802"><ele>779.0</ele><time>2026-04-11T14:11:20.494Z</time></trkpt><trkpt lat="44.1047537" lon="11.4878935"><ele>781.4000000000001</ele><time>2026-04-11T14:11:22.494Z</time></trkpt><trkpt lat="44.1047355" lon="11.487796"><ele>783.8</ele><time>2026-04-11T14:12:11.494Z</time></trkpt><trkpt lat="44.1046455" lon="11.4877592"><ele>786.2</ele><time>2026-04-11T14:12:13.496Z</time></trkpt><trkpt lat="44.1045398" lon="11.4876817"><ele>788.5999999999999</ele><time>2026-04-11T14:12:15.494Z</time></trkpt><trkpt lat="44.1044903" lon="11.4875472"><ele>791.0</ele><time>2026-04-11T14:12:17.494Z</time></trkpt><trkpt lat="44.1044785" lon="11.4874535"><ele>791.0000000000001</ele><time>2026-04-11T14:12:18.493Z</time></trkpt><trkpt lat="44.1044632" lon="11.4873432"><ele>791.0</ele><time>2026-04-11T14:12:19.495Z</time></trkpt><trkpt lat="44.1044372" lon="11.4872285"><ele>791.0</ele><time>2026-04-11T14:12:20.493Z</time></trkpt><trkpt lat="44.104404" lon="11.4871243"><ele>791.0</ele><time>2026-04-11T14:12:21.493Z</time></trkpt><trkpt lat="44.1043545" lon="11.487029"><ele>791.0000000000001</ele><time>2026-04-11T14:12:22.493Z</time></trkpt><trkpt lat="44.1043035" lon="11.4869332"><ele>791.0</ele><time>2026-04-11T14:12:23.494Z</time></trkpt><trkpt lat="44.104248" lon="11.4868398"><ele>791.8333333333334</ele><time>2026-04-11T14:12:24.494Z</time></trkpt><trkpt lat="44.1041918" lon="11.4867462"><ele>792.6666666666667</ele><time>2026-04-11T14:12:25.493Z</time></trkpt><trkpt lat="44.1041337" lon="11.4866508"><ele>793.5</ele><time>2026-04-11T14:12:26.491Z</time></trkpt><trkpt lat="44.1040827" lon="11.4865595"><ele>794.3333333333333</ele><time>2026-04-11T14:12:27.492Z</time></trkpt><trkpt lat="44.1040347" lon="11.4864762"><ele>795.1666666666666</ele><time>2026-04-11T14:12:28.491Z</time></trkpt><trkpt lat="44.1039767" lon="11.4864155"><ele>796.0</ele><time>2026-04-11T14:12:29.492Z</time></trkpt><trkpt lat="44.1039198" lon="11.48637"><ele>795.9999999999999</ele><time>2026-04-11T14:12:30.493Z</time></trkpt><trkpt lat="44.103864" lon="11.4863062"><ele>796.0</ele><time>2026-04-11T14:12:31.492Z</time></trkpt><trkpt lat="44.1037998" lon="11.4862308"><ele>796.0</ele><time>2026-04-11T14:12:32.492Z</time></trkpt><trkpt lat="44.1037353" lon="11.4861712"><ele>796.0</ele><time>2026-04-11T14:12:33.494Z</time></trkpt><trkpt lat="44.1036632" lon="11.4861382"><ele>795.9999999999999</ele><time>2026-04-11T14:12:34.492Z</time></trkpt><trkpt lat="44.103592" lon="11.4861055"><ele>796.0</ele><time>2026-04-11T14:12:35.494Z</time></trkpt><trkpt lat="44.1035322" lon="11.4860588"><ele>805.25</ele><time>2026-04-11T14:12:36.495Z</time></trkpt><trkpt lat="44.103284" lon="11.4859983"><ele>814.5</ele><time>2026-04-11T14:12:40.492Z</time></trkpt><trkpt lat="44.1032115" lon="11.4859938"><ele>823.75</ele><time>2026-04-11T14:12:41.493Z</time></trkpt><trkpt lat="44.1031392" lon="11.4860042"><ele>833.0</ele><time>2026-04-11T14:12:42.494Z</time></trkpt><trkpt lat="44.103075" lon="11.4860065"><ele>833.0</ele><time>2026-04-11T14:12:43.493Z</time></trkpt><trkpt lat="44.1029462" lon="11.4859333"><ele>833.0</ele><time>2026-04-11T14:12:45.492Z</time></trkpt><trkpt lat="44.102865" lon="11.4858743"><ele>833.0</ele><time>2026-04-11T14:12:46.492Z</time></trkpt><trkpt lat="44.1027933" lon="11.4858388"><ele>833.0</ele><time>2026-04-11T14:12:47.492Z</time></trkpt><trkpt lat="44.1027157" lon="11.4858445"><ele>833.0</ele><time>2026-04-11T14:12:48.498Z</time></trkpt><trkpt lat="44.1026323" lon="11.4858707"><ele>833.0</ele><time>2026-04-11T14:12:49.494Z</time></trkpt><trkpt lat="44.1025565" lon="11.4858868"><ele>833.0</ele><time>2026-04-11T14:12:50.491Z</time></trkpt><trkpt lat="44.1024362" lon="11.4858698"><ele>833.0</ele><time>2026-04-11T14:12:52.491Z</time></trkpt><trkpt lat="44.102315" lon="11.4858325"><ele>833.0</ele><time>2026-04-11T14:12:54.495Z</time></trkpt><trkpt lat="44.102205" lon="11.4857745"><ele>833.0</ele><time>2026-04-11T14:12:56.495Z</time></trkpt><trkpt lat="44.1021292" lon="11.4856742"><ele>833.0</ele><time>2026-04-11T14:12:58.497Z</time></trkpt><trkpt lat="44.1021812" lon="11.4855643"><ele>833.0</ele><time>2026-04-11T14:13:02.496Z</time></trkpt><trkpt lat="44.1022462" lon="11.4854963"><ele>833.0</ele><time>2026-04-11T14:13:04.497Z</time></trkpt><trkpt lat="44.1023333" lon="11.4854678"><ele>833.0</ele><time>2026-04-11T14:13:06.497Z</time></trkpt><trkpt lat="44.102456" lon="11.485498"><ele>833.0</ele><time>2026-04-11T14:13:08.496Z</time></trkpt><trkpt lat="44.1025602" lon="11.4854657"><ele>836.0</ele><time>2026-04-11T14:13:10.495Z</time></trkpt><trkpt lat="44.1026938" lon="11.4853413"><ele>839.0</ele><time>2026-04-11T14:13:13.495Z</time></trkpt><trkpt lat="44.1027853" lon="11.4852543"><ele>842.0</ele><time>2026-04-11T14:13:15.494Z</time></trkpt><trkpt lat="44.1028893" lon="11.4852025"><ele>845.0</ele><time>2026-04-11T14:13:17.494Z</time></trkpt><trkpt lat="44.103017" lon="11.4852045"><ele>845.0</ele><time>2026-04-11T14:13:19.498Z</time></trkpt><trkpt lat="44.1030887" lon="11.4851925"><ele>845.0</ele><time>2026-04-11T14:13:20.497Z</time></trkpt><trkpt lat="44.1031973" lon="11.4851052"><ele>845.0</ele><time>2026-04-11T14:13:22.496Z</time></trkpt><trkpt lat="44.1032885" lon="11.4849977"><ele>845.0</ele><time>2026-04-11T14:13:24.495Z</time></trkpt><trkpt lat="44.1033535" lon="11.4849423"><ele>845.0</ele><time>2026-04-11T14:13:25.495Z</time></trkpt><trkpt lat="44.1034175" lon="11.4848902"><ele>848.8</ele><time>2026-04-11T14:13:26.496Z</time></trkpt><trkpt lat="44.1035073" lon="11.4847967"><ele>852.6</ele><time>2026-04-11T14:13:28.495Z</time></trkpt><trkpt lat="44.1036025" lon="11.4846883"><ele>856.4000000000001</ele><time>2026-04-11T14:13:30.494Z</time></trkpt><trkpt lat="44.1036742" lon="11.4845775"><ele>860.2</ele><time>2026-04-11T14:13:32.494Z</time></trkpt><trkpt lat="44.1037468" lon="11.48454"><ele>864.0</ele><time>2026-04-11T14:13:34.495Z</time></trkpt><trkpt lat="44.103818" lon="11.4846582"><ele>864.0</ele><time>2026-04-11T14:13:37.495Z</time></trkpt><trkpt lat="44.1038627" lon="11.4848113"><ele>864.0000000000001</ele><time>2026-04-11T14:13:39.493Z</time></trkpt><trkpt lat="44.103926" lon="11.4848723"><ele>864.0000000000001</ele><time>2026-04-11T14:13:41.492Z</time></trkpt><trkpt lat="44.1039855" lon="11.4847808"><ele>864.0</ele><time>2026-04-11T14:13:43.493Z</time></trkpt><trkpt lat="44.104074" lon="11.484621"><ele>864.0</ele><time>2026-04-11T14:13:46.495Z</time></trkpt><trkpt lat="44.1041628" lon="11.4845525"><ele>869.0</ele><time>2026-04-11T14:13:48.495Z</time></trkpt><trkpt lat="44.104233" lon="11.4844215"><ele>874.0000000000001</ele><time>2026-04-11T14:13:50.496Z</time></trkpt><trkpt lat="44.104245" lon="11.4843092"><ele>879.0000000000001</ele><time>2026-04-11T14:13:51.496Z</time></trkpt><trkpt lat="44.104245" lon="11.4841833"><ele>884.0</ele><time>2026-04-11T14:13:52.497Z</time></trkpt><trkpt lat="44.1042507" lon="11.4840593"><ele>889.0</ele><time>2026-04-11T14:13:53.497Z</time></trkpt><trkpt lat="44.1042705" lon="11.4839398"><ele>888.9999999999999</ele><time>2026-04-11T14:13:54.495Z</time></trkpt><trkpt lat="44.1042937" lon="11.483832"><ele>889.0</ele><time>2026-04-11T14:13:55.495Z</time></trkpt><trkpt lat="44.1043128" lon="11.4837243"><ele>889.0</ele><time>2026-04-11T14:13:56.496Z</time></trkpt><trkpt lat="44.1043303" lon="11.4836102"><ele>889.0</ele><time>2026-04-11T14:13:57.498Z</time></trkpt><trkpt lat="44.1043467" lon="11.4834963"><ele>888.9999999999999</ele><time>2026-04-11T14:13:58.495Z</time></trkpt><trkpt lat="44.1043627" lon="11.4833845"><ele>889.0</ele><time>2026-04-11T14:13:59.499Z</time></trkpt><trkpt lat="44.1043778" lon="11.4832907"><ele>889.6666666666666</ele><time>2026-04-11T14:14:00.498Z</time></trkpt><trkpt lat="44.1043893" lon="11.4831907"><ele>890.3333333333333</ele><time>2026-04-11T14:14:01.496Z</time></trkpt><trkpt lat="44.1044" lon="11.4830708"><ele>891.0</ele><time>2026-04-11T14:14:02.496Z</time></trkpt><trkpt lat="44.104406" lon="11.48295"><ele>891.6666666666667</ele><time>2026-04-11T14:14:03.494Z</time></trkpt><trkpt lat="44.1044123" lon="11.4828395"><ele>892.3333333333334</ele><time>2026-04-11T14:14:04.492Z</time></trkpt><trkpt lat="44.1044142" lon="11.482736"><ele>893.0</ele><time>2026-04-11T14:14:05.492Z</time></trkpt><trkpt lat="44.1044063" lon="11.4826292"><ele>894.0000000000001</ele><time>2026-04-11T14:14:06.493Z</time></trkpt><trkpt lat="44.1044015" lon="11.482504"><ele>895.0</ele><time>2026-04-11T14:14:07.492Z</time></trkpt><trkpt lat="44.1044065" lon="11.4823813"><ele>896.0</ele><time>2026-04-11T14:14:08.495Z</time></trkpt><trkpt lat="44.1044173" lon="11.4822667"><ele>897.0</ele><time>2026-04-11T14:14:09.492Z</time></trkpt><trkpt lat="44.1044327" lon="11.4821653"><ele>898.0000000000001</ele><time>2026-04-11T14:14:10.493Z</time></trkpt><trkpt lat="44.1044543" lon="11.4820748"><ele>899.0</ele><time>2026-04-11T14:14:11.494Z</time></trkpt><trkpt lat="44.1045052" lon="11.4819208"><ele>899.0</ele><time>2026-04-11T14:14:13.492Z</time></trkpt><trkpt lat="44.104552" lon="11.4817762"><ele>899.0</ele><time>2026-04-11T14:14:15.492Z</time></trkpt><trkpt lat="44.1045782" lon="11.4816093"><ele>899.0</ele><time>2026-04-11T14:14:17.493Z</time></trkpt><trkpt lat="44.104619" lon="11.4812717"><ele>898.6</ele><time>2026-04-11T14:14:20.493Z</time></trkpt><trkpt lat="44.1046247" lon="11.4811232"><ele>898.2</ele><time>2026-04-11T14:14:21.493Z</time></trkpt><trkpt lat="44.104616" lon="11.4809582"><ele>897.8000000000001</ele><time>2026-04-11T14:14:22.492Z</time></trkpt><trkpt lat="44.1046025" lon="11.4808027"><ele>897.4000000000001</ele><time>2026-04-11T14:14:23.494Z</time></trkpt><trkpt lat="44.1045902" lon="11.480659"><ele>897.0</ele><time>2026-04-11T14:14:24.494Z</time></trkpt><trkpt lat="44.1045868" lon="11.4805145"><ele>896.4000000000001</ele><time>2026-04-11T14:14:25.492Z</time></trkpt><trkpt lat="44.1045907" lon="11.480361"><ele>895.8000000000001</ele><time>2026-04-11T14:14:26.494Z</time></trkpt><trkpt lat="44.1045875" lon="11.4802102"><ele>895.2</ele><time>2026-04-11T14:14:27.494Z</time></trkpt><trkpt lat="44.1046018" lon="11.4800838"><ele>894.6</ele><time>2026-04-11T14:14:28.491Z</time></trkpt><trkpt lat="44.1046205" lon="11.4799705"><ele>894.0</ele><time>2026-04-11T14:14:29.492Z</time></trkpt><trkpt lat="44.1046352" lon="11.4798593"><ele>894.0</ele><time>2026-04-11T14:14:30.495Z</time></trkpt><trkpt lat="44.1046558" lon="11.4797718"><ele>894.0</ele><time>2026-04-11T14:14:31.493Z</time></trkpt><trkpt lat="44.104682" lon="11.4796832"><ele>894.0</ele><time>2026-04-11T14:14:32.493Z</time></trkpt><trkpt lat="44.1047055" lon="11.4795812"><ele>894.0</ele><time>2026-04-11T14:14:33.493Z</time></trkpt><trkpt lat="44.1047088" lon="11.4794638"><ele>894.0</ele><time>2026-04-11T14:14:34.493Z</time></trkpt><trkpt lat="44.1047067" lon="11.4793525"><ele>894.0</ele><time>2026-04-11T14:14:35.493Z</time></trkpt><trkpt lat="44.1047012" lon="11.479239"><ele>893.9999999999999</ele><time>2026-04-11T14:14:36.493Z</time></trkpt><trkpt lat="44.1047018" lon="11.4791265"><ele>894.0</ele><time>2026-04-11T14:14:37.493Z</time></trkpt><trkpt lat="44.1047133" lon="11.4790302"><ele>894.0</ele><time>2026-04-11T14:14:38.494Z</time></trkpt><trkpt lat="44.1047325" lon="11.4789457"><ele>894.0</ele><time>2026-04-11T14:14:39.492Z</time></trkpt><trkpt lat="44.1047617" lon="11.4788488"><ele>894.0</ele><time>2026-04-11T14:14:40.493Z</time></trkpt><trkpt lat="44.104803" lon="11.4787598"><ele>893.9999999999999</ele><time>2026-04-11T14:14:41.494Z</time></trkpt><trkpt lat="44.1048355" lon="11.4786595"><ele>894.0</ele><time>2026-04-11T14:14:42.493Z</time></trkpt><trkpt lat="44.1048547" lon="11.4785635"><ele>894.8333333333334</ele><time>2026-04-11T14:14:43.492Z</time></trkpt><trkpt lat="44.1048523" lon="11.4784737"><ele>895.6666666666667</ele><time>2026-04-11T14:14:44.493Z</time></trkpt><trkpt lat="44.1048243" lon="11.4783118"><ele>896.5</ele><time>2026-04-11T14:14:46.493Z</time></trkpt><trkpt lat="44.1048005" lon="11.47823"><ele>897.3333333333334</ele><time>2026-04-11T14:14:47.496Z</time></trkpt><trkpt lat="44.1047637" lon="11.4780757"><ele>898.1666666666667</ele><time>2026-04-11T14:14:49.494Z</time></trkpt><trkpt lat="44.1047573" lon="11.4779883"><ele>899.0</ele><time>2026-04-11T14:14:50.494Z</time></trkpt><trkpt lat="44.1047652" lon="11.4779"><ele>901.75</ele><time>2026-04-11T14:14:51.494Z</time></trkpt><trkpt lat="44.104698" lon="11.4776158"><ele>904.5</ele><time>2026-04-11T14:14:54.493Z</time></trkpt><trkpt lat="44.104667" lon="11.4775027"><ele>907.25</ele><time>2026-04-11T14:14:55.494Z</time></trkpt><trkpt lat="44.1046388" lon="11.4773792"><ele>910.0</ele><time>2026-04-11T14:14:56.495Z</time></trkpt><trkpt lat="44.1046163" lon="11.4772485"><ele>909.9999999999999</ele><time>2026-04-11T14:14:57.495Z</time></trkpt><trkpt lat="44.1045995" lon="11.4771245"><ele>910.0</ele><time>2026-04-11T14:14:58.496Z</time></trkpt><trkpt lat="44.1045752" lon="11.4770102"><ele>910.0</ele><time>2026-04-11T14:14:59.496Z</time></trkpt><trkpt lat="44.1045692" lon="11.4769015"><ele>910.0</ele><time>2026-04-11T14:15:00.496Z</time></trkpt><trkpt lat="44.1045707" lon="11.4767833"><ele>909.9999999999999</ele><time>2026-04-11T14:15:01.496Z</time></trkpt><trkpt lat="44.1045703" lon="11.4766673"><ele>910.0</ele><time>2026-04-11T14:15:02.497Z</time></trkpt><trkpt lat="44.1045617" lon="11.4765523"><ele>912.1666666666666</ele><time>2026-04-11T14:15:03.494Z</time></trkpt><trkpt lat="44.1045568" lon="11.4764322"><ele>914.3333333333333</ele><time>2026-04-11T14:15:04.494Z</time></trkpt><trkpt lat="44.1045627" lon="11.4763132"><ele>916.5</ele><time>2026-04-11T14:15:05.495Z</time></trkpt><trkpt lat="44.1045687" lon="11.4762192"><ele>918.6666666666667</ele><time>2026-04-11T14:15:06.495Z</time></trkpt><trkpt lat="44.1045902" lon="11.4761127"><ele>920.8333333333334</ele><time>2026-04-11T14:15:08.495Z</time></trkpt><trkpt lat="44.1045702" lon="11.4759837"><ele>923.0</ele><time>2026-04-11T14:15:10.496Z</time></trkpt><trkpt lat="44.1045593" lon="11.475888"><ele>923.0000000000001</ele><time>2026-04-11T14:15:11.498Z</time></trkpt><trkpt lat="44.1045707" lon="11.4757965"><ele>923.0</ele><time>2026-04-11T14:15:12.497Z</time></trkpt><trkpt lat="44.1046202" lon="11.4756433"><ele>923.0</ele><time>2026-04-11T14:15:14.495Z</time></trkpt><trkpt lat="44.1046357" lon="11.4755547"><ele>923.0</ele><time>2026-04-11T14:15:15.494Z</time></trkpt><trkpt lat="44.104644" lon="11.4754542"><ele>923.0000000000001</ele><time>2026-04-11T14:15:16.493Z</time></trkpt><trkpt lat="44.1046537" lon="11.4753535"><ele>923.0</ele><time>2026-04-11T14:15:17.492Z</time></trkpt><trkpt lat="44.1046767" lon="11.4752587"><ele>922.5000000000001</ele><time>2026-04-11T14:15:18.492Z</time></trkpt><trkpt lat="44.1047185" lon="11.4751605"><ele>922.0</ele><time>2026-04-11T14:15:19.491Z</time></trkpt><trkpt lat="44.104751" lon="11.4750425"><ele>921.5</ele><time>2026-04-11T14:15:20.495Z</time></trkpt><trkpt lat="44.1047787" lon="11.4749263"><ele>921.0</ele><time>2026-04-11T14:15:21.496Z</time></trkpt><trkpt lat="44.1048088" lon="11.4748327"><ele>920.5000000000001</ele><time>2026-04-11T14:15:22.496Z</time></trkpt><trkpt lat="44.1048272" lon="11.4747337"><ele>920.0</ele><time>2026-04-11T14:15:23.498Z</time></trkpt><trkpt lat="44.1048327" lon="11.4746378"><ele>918.6666666666667</ele><time>2026-04-11T14:15:24.493Z</time></trkpt><trkpt lat="44.1047887" lon="11.474308"><ele>917.3333333333333</ele><time>2026-04-11T14:15:27.495Z</time></trkpt><trkpt lat="44.1047632" lon="11.4741668"><ele>916.0</ele><time>2026-04-11T14:15:28.495Z</time></trkpt><trkpt lat="44.104737" lon="11.4740075"><ele>916.0</ele><time>2026-04-11T14:15:29.498Z</time></trkpt><trkpt lat="44.1047153" lon="11.4738423"><ele>915.9999999999999</ele><time>2026-04-11T14:15:30.494Z</time></trkpt><trkpt lat="44.1046975" lon="11.4736947"><ele>915.9999999999999</ele><time>2026-04-11T14:15:31.497Z</time></trkpt><trkpt lat="44.1046745" lon="11.4735633"><ele>916.0</ele><time>2026-04-11T14:15:32.497Z</time></trkpt><trkpt lat="44.1046393" lon="11.473443"><ele>916.0</ele><time>2026-04-11T14:15:33.499Z</time></trkpt><trkpt lat="44.104592" lon="11.4733293"><ele>917.1666666666666</ele><time>2026-04-11T14:15:34.495Z</time></trkpt><trkpt lat="44.104539" lon="11.4732328"><ele>918.3333333333333</ele><time>2026-04-11T14:15:35.497Z</time></trkpt><trkpt lat="44.1044818" lon="11.473159"><ele>919.5</ele><time>2026-04-11T14:15:36.495Z</time></trkpt><trkpt lat="44.1044248" lon="11.4731043"><ele>920.6666666666667</ele><time>2026-04-11T14:15:37.495Z</time></trkpt><trkpt lat="44.1043693" lon="11.4730445"><ele>921.8333333333334</ele><time>2026-04-11T14:15:38.496Z</time></trkpt><trkpt lat="44.104294" lon="11.4729515"><ele>923.0</ele><time>2026-04-11T14:15:40.497Z</time></trkpt><trkpt lat="44.104229" lon="11.4728473"><ele>925.8333333333334</ele><time>2026-04-11T14:15:42.494Z</time></trkpt><trkpt lat="44.104228" lon="11.4727278"><ele>928.6666666666667</ele><time>2026-04-11T14:15:44.494Z</time></trkpt><trkpt lat="44.1042523" lon="11.4725963"><ele>931.5</ele><time>2026-04-11T14:15:46.498Z</time></trkpt><trkpt lat="44.1042763" lon="11.4724833"><ele>934.3333333333333</ele><time>2026-04-11T14:15:48.498Z</time></trkpt><trkpt lat="44.1043393" lon="11.4724063"><ele>937.1666666666666</ele><time>2026-04-11T14:15:50.5Z</time></trkpt><trkpt lat="44.1043835" lon="11.472316"><ele>940.0</ele><time>2026-04-11T14:15:52.497Z</time></trkpt><trkpt lat="44.104379" lon="11.472209"><ele>942.8333333333333</ele><time>2026-04-11T14:15:54.495Z</time></trkpt><trkpt lat="44.104361" lon="11.472101"><ele>945.6666666666666</ele><time>2026-04-11T14:15:56.497Z</time></trkpt><trkpt lat="44.1043315" lon="11.4720127"><ele>948.5</ele><time>2026-04-11T14:16:10.496Z</time></trkpt><trkpt lat="44.1043097" lon="11.4718938"><ele>951.3333333333333</ele><time>2026-04-11T14:16:16.497Z</time></trkpt><trkpt lat="44.1042842" lon="11.4718132"><ele>954.1666666666666</ele><time>2026-04-11T14:16:18.497Z</time></trkpt><trkpt lat="44.1042725" lon="11.4717198"><ele>957.0</ele><time>2026-04-11T14:16:20.499Z</time></trkpt><trkpt lat="44.1043105" lon="11.471618"><ele>957.0</ele><time>2026-04-11T14:16:22.496Z</time></trkpt><trkpt lat="44.1043783" lon="11.471523"><ele>957.0</ele><time>2026-04-11T14:16:24.497Z</time></trkpt><trkpt lat="44.1044568" lon="11.4713785"><ele>957.0</ele><time>2026-04-11T14:16:26.496Z</time></trkpt><trkpt lat="44.104499" lon="11.4712893"><ele>957.0</ele><time>2026-04-11T14:16:27.497Z</time></trkpt><trkpt lat="44.1045375" lon="11.471191"><ele>957.0</ele><time>2026-04-11T14:16:28.496Z</time></trkpt><trkpt lat="44.1045665" lon="11.4710887"><ele>957.8</ele><time>2026-04-11T14:16:29.498Z</time></trkpt><trkpt lat="44.1045923" lon="11.470984"><ele>958.6</ele><time>2026-04-11T14:16:30.496Z</time></trkpt><trkpt lat="44.1046162" lon="11.470885"><ele>959.3999999999999</ele><time>2026-04-11T14:16:31.495Z</time></trkpt><trkpt lat="44.1046715" lon="11.4706217"><ele>960.1999999999999</ele><time>2026-04-11T14:16:34.496Z</time></trkpt><trkpt lat="44.1046598" lon="11.4705173"><ele>961.0</ele><time>2026-04-11T14:17:21.498Z</time></trkpt><trkpt lat="44.104668" lon="11.4704118"><ele>962.1666666666666</ele><time>2026-04-11T14:17:23.494Z</time></trkpt><trkpt lat="44.1046777" lon="11.4702728"><ele>963.3333333333333</ele><time>2026-04-11T14:17:25.496Z</time></trkpt><trkpt lat="44.1047008" lon="11.4701483"><ele>964.5</ele><time>2026-04-11T14:17:27.495Z</time></trkpt><trkpt lat="44.1047237" lon="11.470044"><ele>965.6666666666667</ele><time>2026-04-11T14:17:29.494Z</time></trkpt><trkpt lat="44.1047595" lon="11.469947"><ele>966.8333333333334</ele><time>2026-04-11T14:17:31.494Z</time></trkpt><trkpt lat="44.1048355" lon="11.469938"><ele>968.0</ele><time>2026-04-11T14:17:35.495Z</time></trkpt><trkpt lat="44.1049145" lon="11.4699078"><ele>968.0</ele><time>2026-04-11T14:17:40.494Z</time></trkpt><trkpt lat="44.1048757" lon="11.4698302"><ele>967.9999999999999</ele><time>2026-04-11T14:17:42.495Z</time></trkpt><trkpt lat="44.1048667" lon="11.4697138"><ele>968.0</ele><time>2026-04-11T14:17:44.493Z</time></trkpt><trkpt lat="44.1048745" lon="11.4696258"><ele>968.0</ele><time>2026-04-11T14:17:46.492Z</time></trkpt><trkpt lat="44.1048768" lon="11.4695312"><ele>967.9999999999999</ele><time>2026-04-11T14:17:49.495Z</time></trkpt><trkpt lat="44.1048723" lon="11.4694322"><ele>968.0</ele><time>2026-04-11T14:18:27.495Z</time></trkpt><trkpt lat="44.1048622" lon="11.469335"><ele>968.0</ele><time>2026-04-11T14:22:18.494Z</time></trkpt><trkpt lat="44.1048353" lon="11.4692502"><ele>973.4</ele><time>2026-04-11T14:22:24.497Z</time></trkpt><trkpt lat="44.1048112" lon="11.469123"><ele>978.8</ele><time>2026-04-11T14:22:28.494Z</time></trkpt><trkpt lat="44.104771" lon="11.4690252"><ele>984.2</ele><time>2026-04-11T14:22:30.497Z</time></trkpt><trkpt lat="44.1047028" lon="11.4689302"><ele>989.6</ele><time>2026-04-11T14:22:32.497Z</time></trkpt><trkpt lat="44.1046267" lon="11.4688315"><ele>995.0</ele><time>2026-04-11T14:22:34.495Z</time></trkpt><trkpt lat="44.1045545" lon="11.4687462"><ele>1005.25</ele><time>2026-04-11T14:22:36.494Z</time></trkpt><trkpt lat="44.104439" lon="11.4685597"><ele>1015.5</ele><time>2026-04-11T14:22:40.491Z</time></trkpt><trkpt lat="44.1044007" lon="11.4684632"><ele>1025.75</ele><time>2026-04-11T14:22:42.493Z</time></trkpt><trkpt lat="44.1043295" lon="11.4683738"><ele>1036.0</ele><time>2026-04-11T14:22:44.496Z</time></trkpt><trkpt lat="44.1042347" lon="11.4682683"><ele>1036.0</ele><time>2026-04-11T14:22:46.495Z</time></trkpt><trkpt lat="44.104147" lon="11.4681908"><ele>1036.0</ele><time>2026-04-11T14:22:48.494Z</time></trkpt><trkpt lat="44.1040572" lon="11.4681552"><ele>1036.0</ele><time>2026-04-11T14:22:50.494Z</time></trkpt><trkpt lat="44.1039657" lon="11.4681172"><ele>1036.0</ele><time>2026-04-11T14:22:52.494Z</time></trkpt><trkpt lat="44.1038767" lon="11.4680603"><ele>1036.0</ele><time>2026-04-11T14:22:54.496Z</time></trkpt><trkpt lat="44.1038002" lon="11.4679835"><ele>1033.6</ele><time>2026-04-11T14:22:56.495Z</time></trkpt><trkpt lat="44.1037775" lon="11.4678713"><ele>1031.1999999999998</ele><time>2026-04-11T14:22:59.499Z</time></trkpt><trkpt lat="44.1037767" lon="11.4677775"><ele>1028.8000000000002</ele><time>2026-04-11T14:23:01.497Z</time></trkpt><trkpt lat="44.1037797" lon="11.4676427"><ele>1026.4</ele><time>2026-04-11T14:23:03.497Z</time></trkpt><trkpt lat="44.1037868" lon="11.4674843"><ele>1024.0</ele><time>2026-04-11T14:23:05.494Z</time></trkpt><trkpt lat="44.1037873" lon="11.4673167"><ele>1024.0</ele><time>2026-04-11T14:23:07.495Z</time></trkpt><trkpt lat="44.1037823" lon="11.4671625"><ele>1024.0</ele><time>2026-04-11T14:23:09.495Z</time></trkpt><trkpt lat="44.1037672" lon="11.4670688"><ele>1024.0</ele><time>2026-04-11T14:23:10.497Z</time></trkpt><trkpt lat="44.1037522" lon="11.4669822"><ele>1024.0</ele><time>2026-04-11T14:23:11.5Z</time></trkpt><trkpt lat="44.1037293" lon="11.4667673"><ele>1024.0</ele><time>2026-04-11T14:23:14.497Z</time></trkpt><trkpt lat="44.1036805" lon="11.4666763"><ele>1025.5</ele><time>2026-04-11T14:25:54.494Z</time></trkpt><trkpt lat="44.103599" lon="11.4664547"><ele>1027.0</ele><time>2026-04-11T14:25:58.496Z</time></trkpt><trkpt lat="44.1035708" lon="11.4663238"><ele>1028.5</ele><time>2026-04-11T14:26:00.496Z</time></trkpt><trkpt lat="44.1035283" lon="11.466174"><ele>1030.0</ele><time>2026-04-11T14:26:02.498Z</time></trkpt><trkpt lat="44.1034987" lon="11.4660957"><ele>1031.6666666666665</ele><time>2026-04-11T14:26:03.496Z</time></trkpt><trkpt lat="44.103466" lon="11.4660118"><ele>1033.3333333333333</ele><time>2026-04-11T14:26:04.495Z</time></trkpt><trkpt lat="44.103429" lon="11.4659328"><ele>1035.0</ele><time>2026-04-11T14:26:05.495Z</time></trkpt><trkpt lat="44.1033858" lon="11.4658665"><ele>1036.6666666666667</ele><time>2026-04-11T14:26:06.496Z</time></trkpt><trkpt lat="44.1032902" lon="11.4657948"><ele>1038.3333333333335</ele><time>2026-04-11T14:26:08.494Z</time></trkpt><trkpt lat="44.103174" lon="11.4657608"><ele>1040.0</ele><time>2026-04-11T14:26:10.494Z</time></trkpt><trkpt lat="44.103075" lon="11.4657028"><ele>1039.0</ele><time>2026-04-11T14:26:12.495Z</time></trkpt><trkpt lat="44.102985" lon="11.4656417"><ele>1038.0</ele><time>2026-04-11T14:26:14.495Z</time></trkpt><trkpt lat="44.1029243" lon="11.4655823"><ele>1037.0</ele><time>2026-04-11T14:26:16.496Z</time></trkpt><trkpt lat="44.1028612" lon="11.4655028"><ele>1036.0</ele><time>2026-04-11T14:26:19.492Z</time></trkpt><trkpt lat="44.1028192" lon="11.4653942"><ele>1035.0</ele><time>2026-04-11T14:26:21.492Z</time></trkpt><trkpt lat="44.1027965" lon="11.4652625"><ele>1034.0</ele><time>2026-04-11T14:26:23.497Z</time></trkpt><trkpt lat="44.102825" lon="11.4651043"><ele>1034.0</ele><time>2026-04-11T14:26:25.496Z</time></trkpt><trkpt lat="44.1028532" lon="11.4649452"><ele>1034.0</ele><time>2026-04-11T14:26:27.495Z</time></trkpt><trkpt lat="44.1028502" lon="11.4647792"><ele>1034.0</ele><time>2026-04-11T14:26:29.493Z</time></trkpt><trkpt lat="44.1027942" lon="11.464537"><ele>1034.0</ele><time>2026-04-11T14:26:32.494Z</time></trkpt><trkpt lat="44.1027683" lon="11.4644498"><ele>1035.0</ele><time>2026-04-11T14:26:33.494Z</time></trkpt><trkpt lat="44.1027435" lon="11.4643572"><ele>1036.0</ele><time>2026-04-11T14:26:34.494Z</time></trkpt><trkpt lat="44.1027315" lon="11.4642702"><ele>1037.0</ele><time>2026-04-11T14:26:35.493Z</time></trkpt><trkpt lat="44.1027362" lon="11.4641242"><ele>1038.0</ele><time>2026-04-11T14:26:37.493Z</time></trkpt><trkpt lat="44.102756" lon="11.4639878"><ele>1039.0</ele><time>2026-04-11T14:26:39.493Z</time></trkpt><trkpt lat="44.1027332" lon="11.463892"><ele>1040.0</ele><time>2026-04-11T14:26:42.494Z</time></trkpt><trkpt lat="44.1027598" lon="11.4638117"><ele>1036.8</ele><time>2026-04-11T14:26:49.493Z</time></trkpt><trkpt lat="44.1028328" lon="11.4637798"><ele>1033.6</ele><time>2026-04-11T14:26:55.494Z</time></trkpt><trkpt lat="44.1028968" lon="11.4637605"><ele>1030.4</ele><time>2026-04-11T14:26:59.496Z</time></trkpt><trkpt lat="44.102967" lon="11.4637315"><ele>1027.2</ele><time>2026-04-11T14:27:02.497Z</time></trkpt><trkpt lat="44.1031243" lon="11.4636922"><ele>1024.0</ele><time>2026-04-11T14:27:06.498Z</time></trkpt><trkpt lat="44.1032155" lon="11.4636072"><ele>1023.9999999999999</ele><time>2026-04-11T14:27:08.494Z</time></trkpt><trkpt lat="44.1033413" lon="11.463554"><ele>1024.0</ele><time>2026-04-11T14:27:10.493Z</time></trkpt><trkpt lat="44.1034243" lon="11.4635253"><ele>1024.0</ele><time>2026-04-11T14:27:11.495Z</time></trkpt><trkpt lat="44.1035043" lon="11.4634925"><ele>1024.0</ele><time>2026-04-11T14:27:12.495Z</time></trkpt><trkpt lat="44.1035768" lon="11.4634628"><ele>1023.9999999999999</ele><time>2026-04-11T14:27:13.495Z</time></trkpt><trkpt lat="44.1036387" lon="11.4634407"><ele>1024.0</ele><time>2026-04-11T14:27:14.497Z</time></trkpt><trkpt lat="44.1037417" lon="11.4633972"><ele>1024.0</ele><time>2026-04-11T14:27:16.494Z</time></trkpt><trkpt lat="44.1038055" lon="11.4633847"><ele>1023.9999999999999</ele><time>2026-04-11T14:27:17.495Z</time></trkpt><trkpt lat="44.1038743" lon="11.4633752"><ele>1024.0</ele><time>2026-04-11T14:27:18.495Z</time></trkpt><trkpt lat="44.103966" lon="11.463339"><ele>1024.0</ele><time>2026-04-11T14:27:20.497Z</time></trkpt><trkpt lat="44.1040325" lon="11.4632928"><ele>1023.9999999999999</ele><time>2026-04-11T14:27:24.495Z</time></trkpt><trkpt lat="44.1040907" lon="11.463238"><ele>1024.0</ele><time>2026-04-11T14:27:28.494Z</time></trkpt><trkpt lat="44.1041578" lon="11.4632087"><ele>1024.0</ele><time>2026-04-11T14:27:32.494Z</time></trkpt><trkpt lat="44.1042473" lon="11.463196"><ele>1023.0</ele><time>2026-04-11T14:27:35.491Z</time></trkpt><trkpt lat="44.1043865" lon="11.4630933"><ele>1022.0000000000001</ele><time>2026-04-11T14:27:40.495Z</time></trkpt><trkpt lat="44.104453" lon="11.463034"><ele>1021.0000000000001</ele><time>2026-04-11T14:27:42.492Z</time></trkpt><trkpt lat="44.104515" lon="11.462983"><ele>1020.0</ele><time>2026-04-11T14:27:44.493Z</time></trkpt><trkpt lat="44.1045885" lon="11.4629132"><ele>1019.0</ele><time>2026-04-11T14:27:46.496Z</time></trkpt><trkpt lat="44.1046418" lon="11.4628623"><ele>1016.5000000000001</ele><time>2026-04-11T14:27:48.494Z</time></trkpt><trkpt lat="44.1047062" lon="11.4628413"><ele>1014.0</ele><time>2026-04-11T14:27:50.494Z</time></trkpt><trkpt lat="44.1047837" lon="11.4627718"><ele>1011.5</ele><time>2026-04-11T14:27:53.495Z</time></trkpt><trkpt lat="44.1048507" lon="11.4627515"><ele>1009.0</ele><time>2026-04-11T14:27:55.493Z</time></trkpt><trkpt lat="44.1049422" lon="11.4626703"><ele>1006.5000000000001</ele><time>2026-04-11T14:27:58.492Z</time></trkpt><trkpt lat="44.1050477" lon="11.4626278"><ele>1004.0</ele><time>2026-04-11T14:28:00.495Z</time></trkpt><trkpt lat="44.10515" lon="11.4625868"><ele>1004.0</ele><time>2026-04-11T14:28:02.495Z</time></trkpt><trkpt lat="44.1052447" lon="11.462509"><ele>1004.0000000000001</ele><time>2026-04-11T14:28:04.494Z</time></trkpt><trkpt lat="44.1053235" lon="11.4624225"><ele>1004.0000000000001</ele><time>2026-04-11T14:28:06.496Z</time></trkpt><trkpt lat="44.1053783" lon="11.4623402"><ele>1004.0</ele><time>2026-04-11T14:28:08.492Z</time></trkpt><trkpt lat="44.1054075" lon="11.4622483"><ele>1004.0</ele><time>2026-04-11T14:28:10.493Z</time></trkpt><trkpt lat="44.1055115" lon="11.4621603"><ele>1004.0</ele><time>2026-04-11T14:28:14.496Z</time></trkpt><trkpt lat="44.1055837" lon="11.46212"><ele>1004.0000000000001</ele><time>2026-04-11T14:28:17.493Z</time></trkpt><trkpt lat="44.1056673" lon="11.462018"><ele>1004.0000000000001</ele><time>2026-04-11T14:28:19.495Z</time></trkpt><trkpt lat="44.1057222" lon="11.461891"><ele>1004.0</ele><time>2026-04-11T14:28:21.494Z</time></trkpt><trkpt lat="44.1057912" lon="11.461788"><ele>1004.0</ele><time>2026-04-11T14:28:23.494Z</time></trkpt><trkpt lat="44.1058585" lon="11.4617257"><ele>1002.0000000000001</ele><time>2026-04-11T14:28:25.494Z</time></trkpt><trkpt lat="44.1059285" lon="11.4616625"><ele>1000.0</ele><time>2026-04-11T14:28:27.494Z</time></trkpt><trkpt lat="44.1059855" lon="11.4615943"><ele>998.0</ele><time>2026-04-11T14:28:29.495Z</time></trkpt><trkpt lat="44.1060363" lon="11.4615273"><ele>996.0</ele><time>2026-04-11T14:28:31.497Z</time></trkpt><trkpt lat="44.1060998" lon="11.4614632"><ele>994.0000000000001</ele><time>2026-04-11T14:28:34.499Z</time></trkpt><trkpt lat="44.1061767" lon="11.461429"><ele>992.0</ele><time>2026-04-11T14:28:37.496Z</time></trkpt><trkpt lat="44.1062512" lon="11.4614667"><ele>992.0</ele><time>2026-04-11T14:28:41.496Z</time></trkpt><trkpt lat="44.106312" lon="11.4614975"><ele>992.0000000000001</ele><time>2026-04-11T14:28:45.496Z</time></trkpt><trkpt lat="44.1063707" lon="11.46154"><ele>992.0</ele><time>2026-04-11T14:28:48.492Z</time></trkpt><trkpt lat="44.1064402" lon="11.4614945"><ele>992.0</ele><time>2026-04-11T14:28:53.496Z</time></trkpt><trkpt lat="44.106504" lon="11.4614785"><ele>992.0000000000001</ele><time>2026-04-11T14:28:56.495Z</time></trkpt><trkpt lat="44.1065747" lon="11.4614668"><ele>992.0</ele><time>2026-04-11T14:29:00.493Z</time></trkpt><trkpt lat="44.1066415" lon="11.4613963"><ele>992.0</ele><time>2026-04-11T14:29:04.494Z</time></trkpt><trkpt lat="44.1067175" lon="11.4614122"><ele>990.0</ele><time>2026-04-11T14:29:08.494Z</time></trkpt><trkpt lat="44.1067757" lon="11.4614503"><ele>988.0</ele><time>2026-04-11T14:29:11.491Z</time></trkpt><trkpt lat="44.1068523" lon="11.4614893"><ele>986.0</ele><time>2026-04-11T14:29:14.493Z</time></trkpt><trkpt lat="44.106937" lon="11.4615503"><ele>984.0</ele><time>2026-04-11T14:29:17.493Z</time></trkpt><trkpt lat="44.1070808" lon="11.461495"><ele>982.0</ele><time>2026-04-11T14:29:22.493Z</time></trkpt><trkpt lat="44.107129" lon="11.461431"><ele>982.0</ele><time>2026-04-11T14:29:24.493Z</time></trkpt><trkpt lat="44.1071732" lon="11.4613505"><ele>981.9999999999999</ele><time>2026-04-11T14:29:26.493Z</time></trkpt><trkpt lat="44.1072153" lon="11.4612773"><ele>982.0</ele><time>2026-04-11T14:29:28.493Z</time></trkpt><trkpt lat="44.1072633" lon="11.4611955"><ele>982.0</ele><time>2026-04-11T14:29:31.492Z</time></trkpt><trkpt lat="44.1073157" lon="11.4611468"><ele>981.9999999999999</ele><time>2026-04-11T14:29:35.492Z</time></trkpt><trkpt lat="44.1073395" lon="11.4610648"><ele>982.0</ele><time>2026-04-11T14:29:40.492Z</time></trkpt><trkpt lat="44.1073925" lon="11.4609887"><ele>982.0</ele><time>2026-04-11T14:29:52.495Z</time></trkpt><trkpt lat="44.1074197" lon="11.4609057"><ele>973.0</ele><time>2026-04-11T14:30:03.492Z</time></trkpt><trkpt lat="44.1075282" lon="11.460794"><ele>964.0</ele><time>2026-04-11T14:30:12.493Z</time></trkpt><trkpt lat="44.1076323" lon="11.4606695"><ele>955.0</ele><time>2026-04-11T14:30:51.494Z</time></trkpt><trkpt lat="44.1076683" lon="11.4605925"><ele>946.0</ele><time>2026-04-11T14:31:34.495Z</time></trkpt><trkpt lat="44.1077507" lon="11.4604633"><ele>940.5999999999999</ele><time>2026-04-11T14:31:42.495Z</time></trkpt><trkpt lat="44.1078238" lon="11.4603345"><ele>935.1999999999999</ele><time>2026-04-11T14:31:53.494Z</time></trkpt><trkpt lat="44.1078658" lon="11.4604175"><ele>929.8000000000001</ele><time>2026-04-11T14:32:01.493Z</time></trkpt><trkpt lat="44.1079228" lon="11.4603795"><ele>924.4000000000001</ele><time>2026-04-11T14:32:08.495Z</time></trkpt><trkpt lat="44.1079803" lon="11.4603313"><ele>919.0</ele><time>2026-04-11T14:32:18.494Z</time></trkpt><trkpt lat="44.1082567" lon="11.4600985"><ele>918.9999999999999</ele><time>2026-04-11T14:32:30.493Z</time></trkpt><trkpt lat="44.108325" lon="11.4600865"><ele>919.0</ele><time>2026-04-11T14:33:09.495Z</time></trkpt><trkpt lat="44.1084163" lon="11.46003"><ele>919.0</ele><time>2026-04-11T14:33:12.494Z</time></trkpt><trkpt lat="44.1084878" lon="11.4600098"><ele>919.0</ele><time>2026-04-11T14:33:20.494Z</time></trkpt><trkpt lat="44.1085582" lon="11.4600018"><ele>918.9999999999999</ele><time>2026-04-11T14:33:28.493Z</time></trkpt><trkpt lat="44.1086327" lon="11.4600108"><ele>919.0</ele><time>2026-04-11T14:33:45.493Z</time></trkpt><trkpt lat="44.108708" lon="11.4600355"><ele>918.9999999999999</ele><time>2026-04-11T14:34:04.49Z</time></trkpt><trkpt lat="44.1087782" lon="11.4600282"><ele>919.0</ele><time>2026-04-11T14:34:13.493Z</time></trkpt><trkpt lat="44.1088498" lon="11.4600245"><ele>919.0</ele><time>2026-04-11T14:34:16.492Z</time></trkpt><trkpt lat="44.1089203" lon="11.4600107"><ele>919.0</ele><time>2026-04-11T14:34:20.493Z</time></trkpt><trkpt lat="44.108984" lon="11.4599935"><ele>918.9999999999999</ele><time>2026-04-11T14:34:29.49Z</time></trkpt><trkpt lat="44.1090512" lon="11.4599247"><ele>919.0</ele><time>2026-04-11T14:34:32.49Z</time></trkpt><trkpt lat="44.1091228" lon="11.4598367"><ele>919.3333333333333</ele><time>2026-04-11T14:34:35.491Z</time></trkpt><trkpt lat="44.1091827" lon="11.459807"><ele>919.6666666666666</ele><time>2026-04-11T14:34:37.492Z</time></trkpt><trkpt lat="44.109262" lon="11.4597843"><ele>920.0</ele><time>2026-04-11T14:34:40.492Z</time></trkpt><trkpt lat="44.1093353" lon="11.4597992"><ele>920.3333333333333</ele><time>2026-04-11T14:34:42.491Z</time></trkpt><trkpt lat="44.1094187" lon="11.4598463"><ele>920.6666666666666</ele><time>2026-04-11T14:34:44.494Z</time></trkpt><trkpt lat="44.1094952" lon="11.4599198"><ele>921.0</ele><time>2026-04-11T14:34:46.492Z</time></trkpt><trkpt lat="44.1095727" lon="11.4599615"><ele>921.0</ele><time>2026-04-11T14:34:49.492Z</time></trkpt><trkpt lat="44.10964" lon="11.4599415"><ele>921.0</ele><time>2026-04-11T14:34:51.492Z</time></trkpt><trkpt lat="44.10977" lon="11.4598465"><ele>921.0</ele><time>2026-04-11T14:34:57.492Z</time></trkpt><trkpt lat="44.1098418" lon="11.45981"><ele>921.0</ele><time>2026-04-11T14:34:59.492Z</time></trkpt><trkpt lat="44.1099057" lon="11.4597705"><ele>921.0</ele><time>2026-04-11T14:35:01.493Z</time></trkpt><trkpt lat="44.1099608" lon="11.4597115"><ele>921.0</ele><time>2026-04-11T14:35:04.491Z</time></trkpt><trkpt lat="44.1100335" lon="11.4596515"><ele>915.0</ele><time>2026-04-11T14:35:07.507Z</time></trkpt><trkpt lat="44.110108" lon="11.4595728"><ele>909.0</ele><time>2026-04-11T14:35:10.493Z</time></trkpt><trkpt lat="44.1101732" lon="11.459535"><ele>903.0</ele><time>2026-04-11T14:35:12.492Z</time></trkpt><trkpt lat="44.1102548" lon="11.4595007"><ele>897.0</ele><time>2026-04-11T14:35:14.492Z</time></trkpt><trkpt lat="44.1103243" lon="11.4594313"><ele>891.0</ele><time>2026-04-11T14:35:16.492Z</time></trkpt><trkpt lat="44.1103948" lon="11.4593617"><ele>885.0</ele><time>2026-04-11T14:35:18.491Z</time></trkpt><trkpt lat="44.1104387" lon="11.4592625"><ele>885.0</ele><time>2026-04-11T14:35:21.494Z</time></trkpt><trkpt lat="44.1104443" lon="11.4591597"><ele>885.0</ele><time>2026-04-11T14:35:23.491Z</time></trkpt><trkpt lat="44.1104375" lon="11.4590493"><ele>885.0</ele><time>2026-04-11T14:35:26.496Z</time></trkpt><trkpt lat="44.1104888" lon="11.4588903"><ele>885.0</ele><time>2026-04-11T14:35:31.494Z</time></trkpt><trkpt lat="44.1105228" lon="11.4588055"><ele>885.0</ele><time>2026-04-11T14:35:34.495Z</time></trkpt><trkpt lat="44.11057" lon="11.4587152"><ele>885.0</ele><time>2026-04-11T14:36:18.495Z</time></trkpt><trkpt lat="44.1105978" lon="11.4586155"><ele>882.1666666666666</ele><time>2026-04-11T14:37:37.494Z</time></trkpt><trkpt lat="44.1106315" lon="11.4584722"><ele>879.3333333333333</ele><time>2026-04-11T14:37:41.494Z</time></trkpt><trkpt lat="44.1106928" lon="11.458394"><ele>876.5</ele><time>2026-04-11T14:37:43.492Z</time></trkpt><trkpt lat="44.110733" lon="11.4582798"><ele>873.6666666666666</ele><time>2026-04-11T14:37:45.491Z</time></trkpt><trkpt lat="44.1107267" lon="11.4581572"><ele>870.8333333333333</ele><time>2026-04-11T14:37:47.491Z</time></trkpt><trkpt lat="44.1107383" lon="11.4580542"><ele>868.0</ele><time>2026-04-11T14:37:49.493Z</time></trkpt><trkpt lat="44.1107613" lon="11.457934"><ele>867.9999999999999</ele><time>2026-04-11T14:37:52.492Z</time></trkpt><trkpt lat="44.1107952" lon="11.4578353"><ele>868.0</ele><time>2026-04-11T14:37:55.493Z</time></trkpt><trkpt lat="44.1108548" lon="11.4577548"><ele>868.0</ele><time>2026-04-11T14:37:58.494Z</time></trkpt><trkpt lat="44.1109007" lon="11.4576467"><ele>868.0</ele><time>2026-04-11T14:38:01.492Z</time></trkpt><trkpt lat="44.1109438" lon="11.4575718"><ele>867.9999999999999</ele><time>2026-04-11T14:38:03.492Z</time></trkpt><trkpt lat="44.1110083" lon="11.4575045"><ele>868.0</ele><time>2026-04-11T14:38:05.491Z</time></trkpt><trkpt lat="44.1110653" lon="11.4574105"><ele>868.0</ele><time>2026-04-11T14:38:07.493Z</time></trkpt><trkpt lat="44.111126" lon="11.4572932"><ele>868.0</ele><time>2026-04-11T14:38:09.49Z</time></trkpt><trkpt lat="44.1111685" lon="11.4571782"><ele>868.0</ele><time>2026-04-11T14:38:11.493Z</time></trkpt><trkpt lat="44.1112437" lon="11.4569988"><ele>868.0</ele><time>2026-04-11T14:38:15.492Z</time></trkpt><trkpt lat="44.1112785" lon="11.4569042"><ele>868.0</ele><time>2026-04-11T14:38:17.492Z</time></trkpt><trkpt lat="44.1112962" lon="11.4567937"><ele>864.6666666666666</ele><time>2026-04-11T14:38:19.492Z</time></trkpt><trkpt lat="44.111307" lon="11.4566917"><ele>861.3333333333333</ele><time>2026-04-11T14:38:21.493Z</time></trkpt><trkpt lat="44.1113305" lon="11.4565853"><ele>858.0</ele><time>2026-04-11T14:38:23.492Z</time></trkpt><trkpt lat="44.1113547" lon="11.456499"><ele>854.6666666666667</ele><time>2026-04-11T14:38:25.492Z</time></trkpt><trkpt lat="44.1113703" lon="11.4563892"><ele>851.3333333333334</ele><time>2026-04-11T14:38:27.492Z</time></trkpt><trkpt lat="44.1113758" lon="11.4562782"><ele>848.0</ele><time>2026-04-11T14:38:29.493Z</time></trkpt><trkpt lat="44.1113675" lon="11.4561783"><ele>845.1666666666667</ele><time>2026-04-11T14:38:31.492Z</time></trkpt><trkpt lat="44.1113632" lon="11.4560685"><ele>842.3333333333334</ele><time>2026-04-11T14:38:33.491Z</time></trkpt><trkpt lat="44.1113718" lon="11.4559615"><ele>839.5</ele><time>2026-04-11T14:38:35.492Z</time></trkpt><trkpt lat="44.1113717" lon="11.4558545"><ele>836.6666666666667</ele><time>2026-04-11T14:38:38.492Z</time></trkpt><trkpt lat="44.1113985" lon="11.4557295"><ele>833.8333333333334</ele><time>2026-04-11T14:38:41.493Z</time></trkpt><trkpt lat="44.11142" lon="11.455614"><ele>831.0</ele><time>2026-04-11T14:38:43.493Z</time></trkpt><trkpt lat="44.1114292" lon="11.4555107"><ele>827.8</ele><time>2026-04-11T14:38:45.495Z</time></trkpt><trkpt lat="44.111437" lon="11.4552843"><ele>824.5999999999999</ele><time>2026-04-11T14:38:49.496Z</time></trkpt><trkpt lat="44.111442" lon="11.4551442"><ele>821.4</ele><time>2026-04-11T14:38:51.497Z</time></trkpt><trkpt lat="44.1114348" lon="11.455031"><ele>818.2</ele><time>2026-04-11T14:38:53.494Z</time></trkpt><trkpt lat="44.1114113" lon="11.4549152"><ele>815.0</ele><time>2026-04-11T14:38:55.493Z</time></trkpt><trkpt lat="44.1114008" lon="11.4548145"><ele>815.0</ele><time>2026-04-11T14:38:57.496Z</time></trkpt><trkpt lat="44.1114027" lon="11.4547218"><ele>815.0</ele><time>2026-04-11T14:38:59.494Z</time></trkpt><trkpt lat="44.1113992" lon="11.4546105"><ele>815.0</ele><time>2026-04-11T14:39:01.492Z</time></trkpt><trkpt lat="44.1113998" lon="11.4544965"><ele>815.0</ele><time>2026-04-11T14:39:03.495Z</time></trkpt><trkpt lat="44.1113943" lon="11.4543913"><ele>815.0</ele><time>2026-04-11T14:39:05.496Z</time></trkpt><trkpt lat="44.1114083" lon="11.4542898"><ele>815.0</ele><time>2026-04-11T14:39:07.497Z</time></trkpt><trkpt lat="44.1114295" lon="11.4541977"><ele>815.0</ele><time>2026-04-11T14:39:09.497Z</time></trkpt><trkpt lat="44.1114772" lon="11.454122"><ele>814.6</ele><time>2026-04-11T14:39:11.496Z</time></trkpt><trkpt lat="44.1115467" lon="11.4540675"><ele>814.2</ele><time>2026-04-11T14:39:13.495Z</time></trkpt><trkpt lat="44.1116108" lon="11.454"><ele>813.8</ele><time>2026-04-11T14:39:15.495Z</time></trkpt><trkpt lat="44.1116655" lon="11.453906"><ele>813.4</ele><time>2026-04-11T14:39:17.498Z</time></trkpt><trkpt lat="44.1117137" lon="11.4537748"><ele>813.0</ele><time>2026-04-11T14:39:19.495Z</time></trkpt><trkpt lat="44.1117633" lon="11.4535145"><ele>813.0</ele><time>2026-04-11T14:39:23.494Z</time></trkpt><trkpt lat="44.111776" lon="11.4533638"><ele>813.0</ele><time>2026-04-11T14:39:25.496Z</time></trkpt><trkpt lat="44.1117898" lon="11.4532355"><ele>813.0</ele><time>2026-04-11T14:39:27.497Z</time></trkpt><trkpt lat="44.111807" lon="11.4531108"><ele>813.0</ele><time>2026-04-11T14:39:29.498Z</time></trkpt><trkpt lat="44.111812" lon="11.4529813"><ele>813.0</ele><time>2026-04-11T14:39:31.496Z</time></trkpt><trkpt lat="44.1118202" lon="11.4528328"><ele>809.25</ele><time>2026-04-11T14:39:33.498Z</time></trkpt><trkpt lat="44.111848" lon="11.452667"><ele>805.5</ele><time>2026-04-11T14:39:35.495Z</time></trkpt><trkpt lat="44.1118687" lon="11.4525078"><ele>801.75</ele><time>2026-04-11T14:39:37.497Z</time></trkpt><trkpt lat="44.1118772" lon="11.4523385"><ele>798.0</ele><time>2026-04-11T14:39:39.499Z</time></trkpt><trkpt lat="44.1118688" lon="11.4521923"><ele>796.5999999999999</ele><time>2026-04-11T14:39:41.497Z</time></trkpt><trkpt lat="44.1118433" lon="11.4520727"><ele>795.1999999999999</ele><time>2026-04-11T14:39:43.498Z</time></trkpt><trkpt lat="44.1118333" lon="11.4519433"><ele>793.8</ele><time>2026-04-11T14:39:45.497Z</time></trkpt><trkpt lat="44.1118457" lon="11.451793"><ele>792.4</ele><time>2026-04-11T14:39:47.494Z</time></trkpt><trkpt lat="44.1118453" lon="11.451645"><ele>791.0</ele><time>2026-04-11T14:39:49.491Z</time></trkpt><trkpt lat="44.1118475" lon="11.451515"><ele>791.0</ele><time>2026-04-11T14:39:51.491Z</time></trkpt><trkpt lat="44.111821" lon="11.4513818"><ele>791.0</ele><time>2026-04-11T14:39:53.491Z</time></trkpt><trkpt lat="44.111812" lon="11.4511868"><ele>791.0</ele><time>2026-04-11T14:39:57.492Z</time></trkpt><trkpt lat="44.1118192" lon="11.4510977"><ele>791.0</ele><time>2026-04-11T14:40:02.493Z</time></trkpt><trkpt lat="44.1118405" lon="11.4509828"><ele>791.0</ele><time>2026-04-11T14:40:11.492Z</time></trkpt><trkpt lat="44.1118383" lon="11.4508512"><ele>790.3333333333334</ele><time>2026-04-11T14:40:14.493Z</time></trkpt><trkpt lat="44.1117915" lon="11.450748"><ele>789.6666666666667</ele><time>2026-04-11T14:40:16.492Z</time></trkpt><trkpt lat="44.1117553" lon="11.4506297"><ele>789.0</ele><time>2026-04-11T14:40:18.493Z</time></trkpt><trkpt lat="44.1117455" lon="11.4505182"><ele>788.3333333333333</ele><time>2026-04-11T14:40:20.493Z</time></trkpt><trkpt lat="44.1117203" lon="11.450433"><ele>787.6666666666666</ele><time>2026-04-11T14:40:23.493Z</time></trkpt><trkpt lat="44.1116928" lon="11.4503328"><ele>787.0</ele><time>2026-04-11T14:40:55.493Z</time></trkpt><trkpt lat="44.1116565" lon="11.450261"><ele>787.0</ele><time>2026-04-11T14:41:09.492Z</time></trkpt><trkpt lat="44.111677" lon="11.4500225"><ele>787.0</ele><time>2026-04-11T14:41:18.494Z</time></trkpt><trkpt lat="44.1116538" lon="11.4498505"><ele>787.0</ele><time>2026-04-11T14:41:26.49Z</time></trkpt><trkpt lat="44.1116423" lon="11.4497382"><ele>787.0</ele><time>2026-04-11T14:41:29.493Z</time></trkpt><trkpt lat="44.111618" lon="11.44956"><ele>786.0</ele><time>2026-04-11T14:41:33.493Z</time></trkpt><trkpt lat="44.1115738" lon="11.4494598"><ele>785.0</ele><time>2026-04-11T14:41:39.497Z</time></trkpt><trkpt lat="44.1115237" lon="11.4493125"><ele>784.0</ele><time>2026-04-11T14:42:02.496Z</time></trkpt><trkpt lat="44.1114723" lon="11.449235"><ele>783.0</ele><time>2026-04-11T14:43:20.496Z</time></trkpt><trkpt lat="44.1114337" lon="11.4490668"><ele>782.0</ele><time>2026-04-11T14:43:26.496Z</time></trkpt><trkpt lat="44.1114758" lon="11.4489845"><ele>782.0000000000001</ele><time>2026-04-11T14:43:29.495Z</time></trkpt><trkpt lat="44.1115627" lon="11.4489713"><ele>782.0</ele><time>2026-04-11T14:44:07.497Z</time></trkpt><trkpt lat="44.1116348" lon="11.4489705"><ele>782.0</ele><time>2026-04-11T14:44:24.494Z</time></trkpt><trkpt lat="44.1117227" lon="11.4489353"><ele>782.0</ele><time>2026-04-11T14:44:26.495Z</time></trkpt><trkpt lat="44.1118145" lon="11.4488632"><ele>782.0000000000001</ele><time>2026-04-11T14:44:28.494Z</time></trkpt><trkpt lat="44.1118683" lon="11.4487647"><ele>782.0</ele><time>2026-04-11T14:44:30.495Z</time></trkpt><trkpt lat="44.1118983" lon="11.4486362"><ele>781.5</ele><time>2026-04-11T14:44:32.495Z</time></trkpt><trkpt lat="44.111926" lon="11.4484978"><ele>781.0</ele><time>2026-04-11T14:44:34.494Z</time></trkpt><trkpt lat="44.1119223" lon="11.4483463"><ele>780.5</ele><time>2026-04-11T14:44:36.494Z</time></trkpt><trkpt lat="44.1119305" lon="11.4481875"><ele>780.0</ele><time>2026-04-11T14:44:38.498Z</time></trkpt><trkpt lat="44.1119515" lon="11.4479598"><ele>780.0</ele><time>2026-04-11T14:44:41.492Z</time></trkpt><trkpt lat="44.1119593" lon="11.4477975"><ele>780.0</ele><time>2026-04-11T14:44:43.49Z</time></trkpt><trkpt lat="44.111974" lon="11.4477092"><ele>780.0</ele><time>2026-04-11T14:44:44.493Z</time></trkpt><trkpt lat="44.1119895" lon="11.447624"><ele>780.0</ele><time>2026-04-11T14:44:45.495Z</time></trkpt><trkpt lat="44.112019" lon="11.4474487"><ele>780.0</ele><time>2026-04-11T14:44:47.494Z</time></trkpt><trkpt lat="44.112033" lon="11.4473595"><ele>780.0</ele><time>2026-04-11T14:44:48.492Z</time></trkpt><trkpt lat="44.1120355" lon="11.4472637"><ele>780.0</ele><time>2026-04-11T14:44:49.492Z</time></trkpt><trkpt lat="44.1120647" lon="11.4471452"><ele>780.0</ele><time>2026-04-11T14:44:51.494Z</time></trkpt><trkpt lat="44.112107" lon="11.4470472"><ele>780.0</ele><time>2026-04-11T14:44:53.493Z</time></trkpt><trkpt lat="44.112152" lon="11.4469137"><ele>780.0</ele><time>2026-04-11T14:44:55.493Z</time></trkpt><trkpt lat="44.1121788" lon="11.4467597"><ele>780.0</ele><time>2026-04-11T14:44:57.492Z</time></trkpt><trkpt lat="44.11218" lon="11.4466168"><ele>781.1428571428571</ele><time>2026-04-11T14:44:59.492Z</time></trkpt><trkpt lat="44.1121777" lon="11.4465235"><ele>782.2857142857142</ele><time>2026-04-11T14:45:00.493Z</time></trkpt><trkpt lat="44.1121815" lon="11.4464115"><ele>783.4285714285714</ele><time>2026-04-11T14:45:01.492Z</time></trkpt><trkpt lat="44.1121802" lon="11.4463097"><ele>784.5714285714286</ele><time>2026-04-11T14:45:02.492Z</time></trkpt><trkpt lat="44.1121882" lon="11.4462183"><ele>785.7142857142858</ele><time>2026-04-11T14:45:03.491Z</time></trkpt><trkpt lat="44.1122135" lon="11.4461338"><ele>786.8571428571429</ele><time>2026-04-11T14:45:04.491Z</time></trkpt><trkpt lat="44.1122398" lon="11.446049"><ele>788.0</ele><time>2026-04-11T14:45:05.491Z</time></trkpt><trkpt lat="44.112261" lon="11.4459575"><ele>790.6666666666667</ele><time>2026-04-11T14:45:06.488Z</time></trkpt><trkpt lat="44.1122982" lon="11.4458775"><ele>793.3333333333334</ele><time>2026-04-11T14:45:07.488Z</time></trkpt><trkpt lat="44.1123473" lon="11.4457862"><ele>796.0</ele><time>2026-04-11T14:45:08.488Z</time></trkpt><trkpt lat="44.1124027" lon="11.445683"><ele>798.6666666666667</ele><time>2026-04-11T14:45:09.489Z</time></trkpt><trkpt lat="44.1124622" lon="11.4455848"><ele>801.3333333333334</ele><time>2026-04-11T14:45:10.489Z</time></trkpt><trkpt lat="44.1125238" lon="11.44549"><ele>804.0</ele><time>2026-04-11T14:45:11.491Z</time></trkpt><trkpt lat="44.1125812" lon="11.4454098"><ele>794.0</ele><time>2026-04-11T14:45:12.491Z</time></trkpt><trkpt lat="44.1127838" lon="11.4451928"><ele>784.0</ele><time>2026-04-11T14:45:15.492Z</time></trkpt><trkpt lat="44.1128457" lon="11.4451345"><ele>774.0</ele><time>2026-04-11T14:45:16.492Z</time></trkpt><trkpt lat="44.1128967" lon="11.4450817"><ele>764.0</ele><time>2026-04-11T14:45:17.51Z</time></trkpt><trkpt lat="44.1129985" lon="11.444973"><ele>764.0</ele><time>2026-04-11T14:45:19.492Z</time></trkpt><trkpt lat="44.113042" lon="11.4449065"><ele>764.0</ele><time>2026-04-11T14:45:20.492Z</time></trkpt><trkpt lat="44.1131172" lon="11.4447565"><ele>764.0</ele><time>2026-04-11T14:45:22.491Z</time></trkpt><trkpt lat="44.1131533" lon="11.4446667"><ele>764.0</ele><time>2026-04-11T14:45:23.494Z</time></trkpt><trkpt lat="44.1131763" lon="11.4445708"><ele>764.0</ele><time>2026-04-11T14:45:24.492Z</time></trkpt><trkpt lat="44.1131897" lon="11.4444668"><ele>764.0</ele><time>2026-04-11T14:45:25.491Z</time></trkpt><trkpt lat="44.1131933" lon="11.444357"><ele>764.6666666666666</ele><time>2026-04-11T14:45:26.492Z</time></trkpt><trkpt lat="44.1131897" lon="11.4442525"><ele>765.3333333333333</ele><time>2026-04-11T14:45:27.493Z</time></trkpt><trkpt lat="44.1131853" lon="11.4441382"><ele>766.0</ele><time>2026-04-11T14:45:28.491Z</time></trkpt><trkpt lat="44.1131888" lon="11.4440205"><ele>766.6666666666666</ele><time>2026-04-11T14:45:29.493Z</time></trkpt><trkpt lat="44.1132033" lon="11.4439102"><ele>767.3333333333334</ele><time>2026-04-11T14:45:30.489Z</time></trkpt><trkpt lat="44.1132198" lon="11.4438122"><ele>768.0</ele><time>2026-04-11T14:45:31.489Z</time></trkpt><trkpt lat="44.1132412" lon="11.4437295"><ele>758.6666666666666</ele><time>2026-04-11T14:45:32.491Z</time></trkpt><trkpt lat="44.1132605" lon="11.443636"><ele>749.3333333333334</ele><time>2026-04-11T14:45:33.491Z</time></trkpt><trkpt lat="44.1132943" lon="11.4435328"><ele>740.0</ele><time>2026-04-11T14:45:34.494Z</time></trkpt><trkpt lat="44.113332" lon="11.4434248"><ele>730.6666666666667</ele><time>2026-04-11T14:45:35.494Z</time></trkpt><trkpt lat="44.1133733" lon="11.4433225"><ele>721.3333333333334</ele><time>2026-04-11T14:45:36.493Z</time></trkpt><trkpt lat="44.113421" lon="11.4432368"><ele>712.0</ele><time>2026-04-11T14:45:37.492Z</time></trkpt><trkpt lat="44.1134907" lon="11.4431472"><ele>712.0</ele><time>2026-04-11T14:45:39.495Z</time></trkpt><trkpt lat="44.1135545" lon="11.4431525"><ele>712.0</ele><time>2026-04-11T14:45:42.499Z</time></trkpt><trkpt lat="44.1135652" lon="11.4432883"><ele>712.0</ele><time>2026-04-11T14:45:45.497Z</time></trkpt><trkpt lat="44.1135043" lon="11.443597"><ele>712.0</ele><time>2026-04-11T14:45:49.494Z</time></trkpt><trkpt lat="44.1135067" lon="11.4436898"><ele>712.0</ele><time>2026-04-11T14:45:50.494Z</time></trkpt><trkpt lat="44.1134967" lon="11.4437775"><ele>712.0</ele><time>2026-04-11T14:45:51.494Z</time></trkpt><trkpt lat="44.1134867" lon="11.4439393"><ele>712.0</ele><time>2026-04-11T14:45:53.494Z</time></trkpt><trkpt lat="44.1135367" lon="11.4441047"><ele>712.0</ele><time>2026-04-11T14:45:55.49Z</time></trkpt><trkpt lat="44.1135833" lon="11.4441995"><ele>712.0</ele><time>2026-04-11T14:45:56.49Z</time></trkpt><trkpt lat="44.113635" lon="11.444289"><ele>712.3333333333334</ele><time>2026-04-11T14:45:57.49Z</time></trkpt><trkpt lat="44.1136898" lon="11.4443697"><ele>712.6666666666667</ele><time>2026-04-11T14:45:58.489Z</time></trkpt><trkpt lat="44.1137503" lon="11.444451"><ele>713.0</ele><time>2026-04-11T14:45:59.494Z</time></trkpt><trkpt lat="44.1138083" lon="11.444529"><ele>713.3333333333334</ele><time>2026-04-11T14:46:00.493Z</time></trkpt><trkpt lat="44.1138558" lon="11.4446037"><ele>713.6666666666666</ele><time>2026-04-11T14:46:01.494Z</time></trkpt><trkpt lat="44.1138988" lon="11.4446835"><ele>714.0</ele><time>2026-04-11T14:46:02.493Z</time></trkpt><trkpt lat="44.1139327" lon="11.4447647"><ele>714.0</ele><time>2026-04-11T14:46:03.494Z</time></trkpt><trkpt lat="44.1139698" lon="11.4449227"><ele>714.0</ele><time>2026-04-11T14:46:05.492Z</time></trkpt><trkpt lat="44.1139758" lon="11.4450545"><ele>714.0</ele><time>2026-04-11T14:46:07.492Z</time></trkpt><trkpt lat="44.1139252" lon="11.4451662"><ele>714.0</ele><time>2026-04-11T14:46:09.493Z</time></trkpt><trkpt lat="44.1138313" lon="11.4452633"><ele>714.0</ele><time>2026-04-11T14:46:11.493Z</time></trkpt><trkpt lat="44.1137258" lon="11.4453417"><ele>714.0</ele><time>2026-04-11T14:46:13.492Z</time></trkpt><trkpt lat="44.11367" lon="11.4454012"><ele>714.0</ele><time>2026-04-11T14:46:14.493Z</time></trkpt><trkpt lat="44.113615" lon="11.4454517"><ele>714.0</ele><time>2026-04-11T14:46:15.493Z</time></trkpt><trkpt lat="44.1135467" lon="11.4455468"><ele>714.0</ele><time>2026-04-11T14:46:17.493Z</time></trkpt><trkpt lat="44.1134908" lon="11.4456652"><ele>714.0</ele><time>2026-04-11T14:46:19.488Z</time></trkpt><trkpt lat="44.1135485" lon="11.4459758"><ele>710.1666666666666</ele><time>2026-04-11T14:46:23.492Z</time></trkpt><trkpt lat="44.1135867" lon="11.4460748"><ele>706.3333333333334</ele><time>2026-04-11T14:46:24.493Z</time></trkpt><trkpt lat="44.1136203" lon="11.4461742"><ele>702.5</ele><time>2026-04-11T14:46:25.493Z</time></trkpt><trkpt lat="44.1136543" lon="11.4462915"><ele>698.6666666666667</ele><time>2026-04-11T14:46:26.491Z</time></trkpt><trkpt lat="44.1136753" lon="11.4463905"><ele>694.8333333333334</ele><time>2026-04-11T14:46:27.492Z</time></trkpt><trkpt lat="44.1137368" lon="11.4465292"><ele>691.0</ele><time>2026-04-11T14:46:29.492Z</time></trkpt><trkpt lat="44.1138157" lon="11.4465643"><ele>688.8</ele><time>2026-04-11T14:46:31.491Z</time></trkpt><trkpt lat="44.1138407" lon="11.4464612"><ele>686.5999999999999</ele><time>2026-04-11T14:46:34.491Z</time></trkpt><trkpt lat="44.1138597" lon="11.4463758"><ele>684.4</ele><time>2026-04-11T14:46:37.49Z</time></trkpt><trkpt lat="44.113912" lon="11.446477"><ele>682.2</ele><time>2026-04-11T14:46:40.49Z</time></trkpt><trkpt lat="44.1139472" lon="11.4466077"><ele>680.0</ele><time>2026-04-11T14:46:42.49Z</time></trkpt><trkpt lat="44.1140038" lon="11.4467613"><ele>680.0</ele><time>2026-04-11T14:46:44.489Z</time></trkpt><trkpt lat="44.1140547" lon="11.4468343"><ele>680.0</ele><time>2026-04-11T14:46:45.488Z</time></trkpt><trkpt lat="44.1141038" lon="11.4469177"><ele>680.0</ele><time>2026-04-11T14:46:46.488Z</time></trkpt><trkpt lat="44.114142" lon="11.4470037"><ele>680.0</ele><time>2026-04-11T14:46:47.49Z</time></trkpt><trkpt lat="44.1142287" lon="11.4471168"><ele>680.0</ele><time>2026-04-11T14:46:49.49Z</time></trkpt><trkpt lat="44.1143105" lon="11.447218"><ele>668.75</ele><time>2026-04-11T14:46:51.491Z</time></trkpt><trkpt lat="44.114364" lon="11.4473642"><ele>657.5</ele><time>2026-04-11T14:46:53.49Z</time></trkpt><trkpt lat="44.1143913" lon="11.4474517"><ele>646.25</ele><time>2026-04-11T14:46:54.492Z</time></trkpt><trkpt lat="44.1144547" lon="11.4477223"><ele>635.0</ele><time>2026-04-11T14:46:57.491Z</time></trkpt><trkpt lat="44.1144428" lon="11.4478437"><ele>633.3333333333333</ele><time>2026-04-11T14:46:59.492Z</time></trkpt><trkpt lat="44.1143845" lon="11.4479608"><ele>631.6666666666666</ele><time>2026-04-11T14:47:01.494Z</time></trkpt><trkpt lat="44.1143467" lon="11.4480345"><ele>630.0</ele><time>2026-04-11T14:47:02.491Z</time></trkpt><trkpt lat="44.1143098" lon="11.4481185"><ele>628.3333333333334</ele><time>2026-04-11T14:47:03.491Z</time></trkpt><trkpt lat="44.1142712" lon="11.4482133"><ele>626.6666666666667</ele><time>2026-04-11T14:47:04.49Z</time></trkpt><trkpt lat="44.1142298" lon="11.4483058"><ele>625.0</ele><time>2026-04-11T14:47:05.49Z</time></trkpt><trkpt lat="44.1142015" lon="11.4484005"><ele>625.0000000000001</ele><time>2026-04-11T14:47:06.49Z</time></trkpt><trkpt lat="44.114187" lon="11.4485008"><ele>625.0</ele><time>2026-04-11T14:47:07.488Z</time></trkpt><trkpt lat="44.1141898" lon="11.448596"><ele>625.0</ele><time>2026-04-11T14:47:08.488Z</time></trkpt><trkpt lat="44.1141995" lon="11.4486858"><ele>625.0</ele><time>2026-04-11T14:47:09.488Z</time></trkpt><trkpt lat="44.1142232" lon="11.448784"><ele>625.0</ele><time>2026-04-11T14:47:10.487Z</time></trkpt><trkpt lat="44.1142367" lon="11.4488842"><ele>625.0000000000001</ele><time>2026-04-11T14:47:11.487Z</time></trkpt><trkpt lat="44.114263" lon="11.4489948"><ele>625.0</ele><time>2026-04-11T14:47:12.49Z</time></trkpt><trkpt lat="44.1143005" lon="11.449113"><ele>622.6666666666667</ele><time>2026-04-11T14:47:13.489Z</time></trkpt><trkpt lat="44.1143447" lon="11.4492297"><ele>620.3333333333334</ele><time>2026-04-11T14:47:14.489Z</time></trkpt><trkpt lat="44.11438" lon="11.4493363"><ele>618.0</ele><time>2026-04-11T14:47:15.491Z</time></trkpt><trkpt lat="44.1144115" lon="11.4494295"><ele>615.6666666666666</ele><time>2026-04-11T14:47:16.49Z</time></trkpt><trkpt lat="44.1144435" lon="11.449508"><ele>613.3333333333333</ele><time>2026-04-11T14:47:17.491Z</time></trkpt><trkpt lat="44.1144662" lon="11.449593"><ele>611.0</ele><time>2026-04-11T14:47:18.49Z</time></trkpt><trkpt lat="44.1145083" lon="11.4497213"><ele>611.0</ele><time>2026-04-11T14:47:20.489Z</time></trkpt><trkpt lat="44.1145915" lon="11.4496563"><ele>611.0</ele><time>2026-04-11T14:47:23.489Z</time></trkpt><trkpt lat="44.1146187" lon="11.4494712"><ele>611.0</ele><time>2026-04-11T14:47:25.489Z</time></trkpt><trkpt lat="44.114632" lon="11.449377"><ele>611.0</ele><time>2026-04-11T14:47:26.489Z</time></trkpt><trkpt lat="44.1146427" lon="11.4492895"><ele>611.0</ele><time>2026-04-11T14:47:27.489Z</time></trkpt><trkpt lat="44.114646" lon="11.4492007"><ele>611.0</ele><time>2026-04-11T14:47:28.491Z</time></trkpt><trkpt lat="44.1146883" lon="11.4489518"><ele>611.0000000000001</ele><time>2026-04-11T14:47:31.488Z</time></trkpt><trkpt lat="44.1147207" lon="11.448873"><ele>611.0</ele><time>2026-04-11T14:47:32.488Z</time></trkpt><trkpt lat="44.1147623" lon="11.4487977"><ele>611.0</ele><time>2026-04-11T14:47:33.488Z</time></trkpt><trkpt lat="44.1147995" lon="11.448718"><ele>611.0</ele><time>2026-04-11T14:47:34.488Z</time></trkpt><trkpt lat="44.114836" lon="11.4486382"><ele>611.0</ele><time>2026-04-11T14:47:35.489Z</time></trkpt><trkpt lat="44.1148818" lon="11.4485627"><ele>611.0000000000001</ele><time>2026-04-11T14:47:36.488Z</time></trkpt><trkpt lat="44.1149317" lon="11.4484923"><ele>611.0</ele><time>2026-04-11T14:47:37.489Z</time></trkpt><trkpt lat="44.114979" lon="11.4484235"><ele>606.7142857142858</ele><time>2026-04-11T14:47:38.49Z</time></trkpt><trkpt lat="44.1150107" lon="11.44834"><ele>602.4285714285714</ele><time>2026-04-11T14:47:39.491Z</time></trkpt><trkpt lat="44.1150417" lon="11.4482525"><ele>598.1428571428571</ele><time>2026-04-11T14:47:40.49Z</time></trkpt><trkpt lat="44.1150797" lon="11.448164"><ele>593.8571428571429</ele><time>2026-04-11T14:47:41.491Z</time></trkpt><trkpt lat="44.1151208" lon="11.448078"><ele>589.5714285714286</ele><time>2026-04-11T14:47:42.491Z</time></trkpt><trkpt lat="44.1151662" lon="11.4479892"><ele>585.2857142857143</ele><time>2026-04-11T14:47:43.49Z</time></trkpt><trkpt lat="44.1152253" lon="11.4479153"><ele>581.0</ele><time>2026-04-11T14:47:44.491Z</time></trkpt><trkpt lat="44.1152798" lon="11.4478512"><ele>581.0</ele><time>2026-04-11T14:47:45.492Z</time></trkpt><trkpt lat="44.1153252" lon="11.4477853"><ele>581.0</ele><time>2026-04-11T14:47:46.49Z</time></trkpt><trkpt lat="44.1153857" lon="11.447663"><ele>581.0</ele><time>2026-04-11T14:47:48.492Z</time></trkpt><trkpt lat="44.1153912" lon="11.4475438"><ele>581.0</ele><time>2026-04-11T14:47:50.492Z</time></trkpt><trkpt lat="44.1153832" lon="11.447451"><ele>581.0</ele><time>2026-04-11T14:47:51.492Z</time></trkpt><trkpt lat="44.115371" lon="11.4473455"><ele>581.0</ele><time>2026-04-11T14:47:52.493Z</time></trkpt><trkpt lat="44.115358" lon="11.4472467"><ele>581.0</ele><time>2026-04-11T14:47:53.493Z</time></trkpt><trkpt lat="44.1153438" lon="11.4471463"><ele>581.0</ele><time>2026-04-11T14:47:54.493Z</time></trkpt><trkpt lat="44.1153343" lon="11.4470592"><ele>581.0</ele><time>2026-04-11T14:47:55.492Z</time></trkpt><trkpt lat="44.1153523" lon="11.446925"><ele>581.0</ele><time>2026-04-11T14:47:57.489Z</time></trkpt><trkpt lat="44.1154253" lon="11.4468413"><ele>581.0</ele><time>2026-04-11T14:47:59.489Z</time></trkpt><trkpt lat="44.1155233" lon="11.4468308"><ele>581.0</ele><time>2026-04-11T14:48:01.491Z</time></trkpt><trkpt lat="44.1157277" lon="11.4467967"><ele>570.8</ele><time>2026-04-11T14:48:05.492Z</time></trkpt><trkpt lat="44.115805" lon="11.4466673"><ele>560.6</ele><time>2026-04-11T14:48:07.492Z</time></trkpt><trkpt lat="44.1158513" lon="11.446606"><ele>550.4</ele><time>2026-04-11T14:48:08.492Z</time></trkpt><trkpt lat="44.1159363" lon="11.4465965"><ele>540.2</ele><time>2026-04-11T14:48:10.493Z</time></trkpt><trkpt lat="44.1160065" lon="11.446639"><ele>530.0</ele><time>2026-04-11T14:48:12.493Z</time></trkpt><trkpt lat="44.1161005" lon="11.4467425"><ele>530.0</ele><time>2026-04-11T14:48:14.492Z</time></trkpt><trkpt lat="44.1161505" lon="11.4468913"><ele>530.0</ele><time>2026-04-11T14:48:16.492Z</time></trkpt><trkpt lat="44.1161585" lon="11.4470512"><ele>530.0</ele><time>2026-04-11T14:48:18.492Z</time></trkpt><trkpt lat="44.1161467" lon="11.4471982"><ele>530.0</ele><time>2026-04-11T14:48:20.493Z</time></trkpt><trkpt lat="44.1161507" lon="11.4472942"><ele>530.0</ele><time>2026-04-11T14:48:21.492Z</time></trkpt><trkpt lat="44.1161655" lon="11.4473852"><ele>531.0</ele><time>2026-04-11T14:48:22.489Z</time></trkpt><trkpt lat="44.1162328" lon="11.4475177"><ele>532.0</ele><time>2026-04-11T14:48:24.49Z</time></trkpt><trkpt lat="44.116313" lon="11.447559"><ele>533.0</ele><time>2026-04-11T14:48:26.492Z</time></trkpt><trkpt lat="44.116387" lon="11.44757"><ele>534.0</ele><time>2026-04-11T14:48:28.492Z</time></trkpt><trkpt lat="44.116436" lon="11.4474647"><ele>535.0</ele><time>2026-04-11T14:48:31.491Z</time></trkpt><trkpt lat="44.1164342" lon="11.44737"><ele>536.0</ele><time>2026-04-11T14:48:32.492Z</time></trkpt><trkpt lat="44.1164252" lon="11.4472587"><ele>536.0</ele><time>2026-04-11T14:48:33.491Z</time></trkpt><trkpt lat="44.1164272" lon="11.4471428"><ele>536.0</ele><time>2026-04-11T14:48:34.491Z</time></trkpt><trkpt lat="44.1164483" lon="11.4470233"><ele>536.0</ele><time>2026-04-11T14:48:35.491Z</time></trkpt><trkpt lat="44.1164823" lon="11.4469047"><ele>536.0</ele><time>2026-04-11T14:48:36.492Z</time></trkpt><trkpt lat="44.1166127" lon="11.4465512"><ele>527.6</ele><time>2026-04-11T14:48:39.492Z</time></trkpt><trkpt lat="44.1166745" lon="11.4464505"><ele>519.2</ele><time>2026-04-11T14:48:40.492Z</time></trkpt><trkpt lat="44.1167385" lon="11.4463535"><ele>510.79999999999995</ele><time>2026-04-11T14:48:41.492Z</time></trkpt><trkpt lat="44.116805" lon="11.4462593"><ele>502.4</ele><time>2026-04-11T14:48:42.491Z</time></trkpt><trkpt lat="44.116872" lon="11.4461703"><ele>494.0</ele><time>2026-04-11T14:48:43.492Z</time></trkpt><trkpt lat="44.1169375" lon="11.4460833"><ele>493.3333333333333</ele><time>2026-04-11T14:48:44.493Z</time></trkpt><trkpt lat="44.1169925" lon="11.4459983"><ele>492.66666666666663</ele><time>2026-04-11T14:48:45.492Z</time></trkpt><trkpt lat="44.1170263" lon="11.4458983"><ele>492.0</ele><time>2026-04-11T14:48:46.49Z</time></trkpt><trkpt lat="44.1170442" lon="11.4457795"><ele>491.33333333333337</ele><time>2026-04-11T14:48:47.492Z</time></trkpt><trkpt lat="44.1170587" lon="11.4456485"><ele>490.6666666666667</ele><time>2026-04-11T14:48:48.491Z</time></trkpt><trkpt lat="44.1170762" lon="11.4455152"><ele>490.0</ele><time>2026-04-11T14:48:49.491Z</time></trkpt><trkpt lat="44.1170995" lon="11.4453782"><ele>489.8</ele><time>2026-04-11T14:48:50.493Z</time></trkpt><trkpt lat="44.1171248" lon="11.4452335"><ele>489.6</ele><time>2026-04-11T14:48:51.492Z</time></trkpt><trkpt lat="44.1171273" lon="11.4450853"><ele>489.4</ele><time>2026-04-11T14:48:52.491Z</time></trkpt><trkpt lat="44.1171078" lon="11.4449447"><ele>489.2</ele><time>2026-04-11T14:48:53.494Z</time></trkpt><trkpt lat="44.1170848" lon="11.4448243"><ele>489.0</ele><time>2026-04-11T14:48:54.493Z</time></trkpt><trkpt lat="44.117083" lon="11.444715"><ele>491.0</ele><time>2026-04-11T14:48:55.493Z</time></trkpt><trkpt lat="44.117103" lon="11.4446062"><ele>493.0</ele><time>2026-04-11T14:48:56.492Z</time></trkpt><trkpt lat="44.1171272" lon="11.4444942"><ele>495.0</ele><time>2026-04-11T14:48:57.492Z</time></trkpt><trkpt lat="44.1171588" lon="11.4443853"><ele>497.0</ele><time>2026-04-11T14:48:58.493Z</time></trkpt><trkpt lat="44.1171958" lon="11.4442822"><ele>499.0</ele><time>2026-04-11T14:48:59.493Z</time></trkpt><trkpt lat="44.117238" lon="11.4441848"><ele>501.0</ele><time>2026-04-11T14:49:00.494Z</time></trkpt><trkpt lat="44.1172925" lon="11.4440982"><ele>501.0</ele><time>2026-04-11T14:49:01.493Z</time></trkpt><trkpt lat="44.1173597" lon="11.4440193"><ele>501.0</ele><time>2026-04-11T14:49:02.493Z</time></trkpt><trkpt lat="44.1174347" lon="11.4439482"><ele>501.0</ele><time>2026-04-11T14:49:03.492Z</time></trkpt><trkpt lat="44.1175177" lon="11.4438932"><ele>501.0</ele><time>2026-04-11T14:49:04.491Z</time></trkpt><trkpt lat="44.1176058" lon="11.4438665"><ele>501.0</ele><time>2026-04-11T14:49:05.491Z</time></trkpt><trkpt lat="44.1176918" lon="11.4438657"><ele>501.0</ele><time>2026-04-11T14:49:06.491Z</time></trkpt><trkpt lat="44.1177663" lon="11.443853"><ele>491.66666666666663</ele><time>2026-04-11T14:49:07.491Z</time></trkpt><trkpt lat="44.1178207" lon="11.4437982"><ele>482.3333333333333</ele><time>2026-04-11T14:49:08.492Z</time></trkpt><trkpt lat="44.1178757" lon="11.4437048"><ele>473.0</ele><time>2026-04-11T14:49:09.493Z</time></trkpt><trkpt lat="44.1180657" lon="11.4433655"><ele>473.0</ele><time>2026-04-11T14:49:12.491Z</time></trkpt><trkpt lat="44.1181158" lon="11.443243"><ele>472.99999999999994</ele><time>2026-04-11T14:49:13.492Z</time></trkpt><trkpt lat="44.1181458" lon="11.4431063"><ele>472.99999999999994</ele><time>2026-04-11T14:49:14.492Z</time></trkpt><trkpt lat="44.118153" lon="11.4429608"><ele>473.0</ele><time>2026-04-11T14:49:15.492Z</time></trkpt><trkpt lat="44.1181442" lon="11.4428128"><ele>473.0</ele><time>2026-04-11T14:49:16.493Z</time></trkpt><trkpt lat="44.1181235" lon="11.442661"><ele>471.75</ele><time>2026-04-11T14:49:17.493Z</time></trkpt><trkpt lat="44.1180902" lon="11.44251"><ele>470.5</ele><time>2026-04-11T14:49:18.492Z</time></trkpt><trkpt lat="44.1180458" lon="11.4423615"><ele>469.25</ele><time>2026-04-11T14:49:19.494Z</time></trkpt><trkpt lat="44.1179998" lon="11.442214"><ele>468.0</ele><time>2026-04-11T14:49:20.492Z</time></trkpt><trkpt lat="44.1179623" lon="11.4420587"><ele>464.25</ele><time>2026-04-11T14:49:21.492Z</time></trkpt><trkpt lat="44.1179373" lon="11.4418977"><ele>460.5</ele><time>2026-04-11T14:49:22.491Z</time></trkpt><trkpt lat="44.1179267" lon="11.4417335"><ele>456.75</ele><time>2026-04-11T14:49:23.49Z</time></trkpt><trkpt lat="44.1179303" lon="11.44157"><ele>453.0</ele><time>2026-04-11T14:49:24.491Z</time></trkpt><trkpt lat="44.1179303" lon="11.4414175"><ele>450.6666666666667</ele><time>2026-04-11T14:49:25.491Z</time></trkpt><trkpt lat="44.1179082" lon="11.4412878"><ele>448.33333333333337</ele><time>2026-04-11T14:49:26.491Z</time></trkpt><trkpt lat="44.1178632" lon="11.4411782"><ele>446.0</ele><time>2026-04-11T14:49:27.491Z</time></trkpt><trkpt lat="44.1178102" lon="11.4410753"><ele>443.6666666666667</ele><time>2026-04-11T14:49:28.49Z</time></trkpt><trkpt lat="44.1177765" lon="11.4409655"><ele>441.33333333333337</ele><time>2026-04-11T14:49:29.491Z</time></trkpt><trkpt lat="44.117771" lon="11.4408582"><ele>439.0</ele><time>2026-04-11T14:49:30.492Z</time></trkpt><trkpt lat="44.1177967" lon="11.440761"><ele>439.0</ele><time>2026-04-11T14:49:31.49Z</time></trkpt><trkpt lat="44.1178478" lon="11.440682"><ele>439.0</ele><time>2026-04-11T14:49:32.491Z</time></trkpt><trkpt lat="44.1179185" lon="11.4406143"><ele>439.0</ele><time>2026-04-11T14:49:33.491Z</time></trkpt><trkpt lat="44.118009" lon="11.4405627"><ele>439.0</ele><time>2026-04-11T14:49:34.493Z</time></trkpt><trkpt lat="44.1181078" lon="11.4405257"><ele>439.0</ele><time>2026-04-11T14:49:35.49Z</time></trkpt><trkpt lat="44.1182123" lon="11.4404958"><ele>437.6</ele><time>2026-04-11T14:49:36.489Z</time></trkpt><trkpt lat="44.1183158" lon="11.440459"><ele>436.2</ele><time>2026-04-11T14:49:37.489Z</time></trkpt><trkpt lat="44.1184155" lon="11.4404105"><ele>434.80000000000007</ele><time>2026-04-11T14:49:38.489Z</time></trkpt><trkpt lat="44.1185122" lon="11.440362"><ele>433.40000000000003</ele><time>2026-04-11T14:49:39.49Z</time></trkpt><trkpt lat="44.1186095" lon="11.4403175"><ele>432.0</ele><time>2026-04-11T14:49:40.492Z</time></trkpt><trkpt lat="44.1187082" lon="11.4402792"><ele>432.0</ele><time>2026-04-11T14:49:41.491Z</time></trkpt><trkpt lat="44.1188095" lon="11.4402462"><ele>432.0</ele><time>2026-04-11T14:49:42.491Z</time></trkpt><trkpt lat="44.1189155" lon="11.4402153"><ele>432.0</ele><time>2026-04-11T14:49:43.491Z</time></trkpt><trkpt lat="44.1192253" lon="11.4401392"><ele>428.20000000000005</ele><time>2026-04-11T14:49:46.491Z</time></trkpt><trkpt lat="44.1193253" lon="11.4401132"><ele>424.40000000000003</ele><time>2026-04-11T14:49:47.492Z</time></trkpt><trkpt lat="44.1194248" lon="11.4400943"><ele>420.6</ele><time>2026-04-11T14:49:48.492Z</time></trkpt><trkpt lat="44.1195218" lon="11.440083"><ele>416.79999999999995</ele><time>2026-04-11T14:49:49.49Z</time></trkpt><trkpt lat="44.1196183" lon="11.4400803"><ele>413.0</ele><time>2026-04-11T14:49:50.491Z</time></trkpt><trkpt lat="44.1197133" lon="11.4400873"><ele>413.0</ele><time>2026-04-11T14:49:51.49Z</time></trkpt><trkpt lat="44.1198058" lon="11.4401048"><ele>413.0</ele><time>2026-04-11T14:49:52.491Z</time></trkpt><trkpt lat="44.119901" lon="11.4401363"><ele>413.0</ele><time>2026-04-11T14:49:53.493Z</time></trkpt><trkpt lat="44.1200018" lon="11.4401682"><ele>413.0</ele><time>2026-04-11T14:49:54.49Z</time></trkpt><trkpt lat="44.1201057" lon="11.4401942"><ele>413.0</ele><time>2026-04-11T14:49:55.49Z</time></trkpt><trkpt lat="44.1202062" lon="11.4402065"><ele>411.4</ele><time>2026-04-11T14:49:56.49Z</time></trkpt><trkpt lat="44.1203093" lon="11.440225"><ele>409.79999999999995</ele><time>2026-04-11T14:49:57.491Z</time></trkpt><trkpt lat="44.1204167" lon="11.4402472"><ele>408.2</ele><time>2026-04-11T14:49:58.491Z</time></trkpt><trkpt lat="44.1205195" lon="11.4402765"><ele>406.6</ele><time>2026-04-11T14:49:59.49Z</time></trkpt><trkpt lat="44.1206208" lon="11.4403067"><ele>405.0</ele><time>2026-04-11T14:50:00.49Z</time></trkpt><trkpt lat="44.1207225" lon="11.4403282"><ele>404.8</ele><time>2026-04-11T14:50:01.488Z</time></trkpt><trkpt lat="44.1208245" lon="11.4403487"><ele>404.6</ele><time>2026-04-11T14:50:02.488Z</time></trkpt><trkpt lat="44.1209268" lon="11.4403748"><ele>404.4</ele><time>2026-04-11T14:50:03.489Z</time></trkpt><trkpt lat="44.1210257" lon="11.4403942"><ele>404.2</ele><time>2026-04-11T14:50:04.49Z</time></trkpt><trkpt lat="44.1211205" lon="11.440413"><ele>404.0</ele><time>2026-04-11T14:50:05.49Z</time></trkpt><trkpt lat="44.1212063" lon="11.4404148"><ele>403.99999999999994</ele><time>2026-04-11T14:50:06.492Z</time></trkpt><trkpt lat="44.1212818" lon="11.4403805"><ele>404.0</ele><time>2026-04-11T14:50:07.492Z</time></trkpt><trkpt lat="44.1213417" lon="11.440312"><ele>404.0</ele><time>2026-04-11T14:50:08.493Z</time></trkpt><trkpt lat="44.1213933" lon="11.4402242"><ele>404.0</ele><time>2026-04-11T14:50:09.492Z</time></trkpt><trkpt lat="44.1214423" lon="11.440129"><ele>403.99999999999994</ele><time>2026-04-11T14:50:10.492Z</time></trkpt><trkpt lat="44.1214985" lon="11.4400403"><ele>404.0</ele><time>2026-04-11T14:50:11.492Z</time></trkpt><trkpt lat="44.1215643" lon="11.4399627"><ele>400.4</ele><time>2026-04-11T14:50:12.493Z</time></trkpt><trkpt lat="44.1216293" lon="11.439879"><ele>396.79999999999995</ele><time>2026-04-11T14:50:13.493Z</time></trkpt><trkpt lat="44.1216832" lon="11.4397772"><ele>393.20000000000005</ele><time>2026-04-11T14:50:14.492Z</time></trkpt><trkpt lat="44.1217247" lon="11.439671"><ele>389.6</ele><time>2026-04-11T14:50:15.492Z</time></trkpt><trkpt lat="44.1217545" lon="11.4395707"><ele>386.0</ele><time>2026-04-11T14:50:16.493Z</time></trkpt><trkpt lat="44.1218025" lon="11.4393952"><ele>386.0</ele><time>2026-04-11T14:50:18.493Z</time></trkpt><trkpt lat="44.1218865" lon="11.4392705"><ele>386.0</ele><time>2026-04-11T14:50:20.492Z</time></trkpt><trkpt lat="44.121949" lon="11.43921"><ele>386.0</ele><time>2026-04-11T14:50:21.493Z</time></trkpt><trkpt lat="44.1220228" lon="11.4391387"><ele>386.0</ele><time>2026-04-11T14:50:22.494Z</time></trkpt><trkpt lat="44.122098" lon="11.4390623"><ele>386.0</ele><time>2026-04-11T14:50:23.494Z</time></trkpt><trkpt lat="44.1221705" lon="11.4389777"><ele>386.0</ele><time>2026-04-11T14:50:24.49Z</time></trkpt><trkpt lat="44.1222378" lon="11.4388902"><ele>386.0</ele><time>2026-04-11T14:50:25.492Z</time></trkpt><trkpt lat="44.1223063" lon="11.4388005"><ele>386.0</ele><time>2026-04-11T14:50:26.491Z</time></trkpt><trkpt lat="44.1223732" lon="11.4387093"><ele>386.0</ele><time>2026-04-11T14:50:27.49Z</time></trkpt><trkpt lat="44.1224393" lon="11.4386182"><ele>386.0</ele><time>2026-04-11T14:50:28.492Z</time></trkpt><trkpt lat="44.1225055" lon="11.438526"><ele>380.99999999999994</ele><time>2026-04-11T14:50:29.493Z</time></trkpt><trkpt lat="44.1225703" lon="11.4384345"><ele>376.0</ele><time>2026-04-11T14:50:30.492Z</time></trkpt><trkpt lat="44.1226333" lon="11.4383433"><ele>371.0</ele><time>2026-04-11T14:50:31.492Z</time></trkpt><trkpt lat="44.122694" lon="11.4382523"><ele>366.0</ele><time>2026-04-11T14:50:32.493Z</time></trkpt><trkpt lat="44.1227507" lon="11.4381628"><ele>361.0</ele><time>2026-04-11T14:50:33.492Z</time></trkpt><trkpt lat="44.1227975" lon="11.4380757"><ele>356.0</ele><time>2026-04-11T14:50:34.491Z</time></trkpt><trkpt lat="44.1228162" lon="11.4379845"><ele>355.0</ele><time>2026-04-11T14:50:35.493Z</time></trkpt><trkpt lat="44.1227988" lon="11.4378948"><ele>354.0</ele><time>2026-04-11T14:50:36.494Z</time></trkpt><trkpt lat="44.1227533" lon="11.4378103"><ele>353.0</ele><time>2026-04-11T14:50:37.492Z</time></trkpt><trkpt lat="44.1227007" lon="11.4377278"><ele>352.0</ele><time>2026-04-11T14:50:38.494Z</time></trkpt><trkpt lat="44.1226522" lon="11.4376375"><ele>351.0</ele><time>2026-04-11T14:50:39.495Z</time></trkpt><trkpt lat="44.122609" lon="11.437538"><ele>350.0</ele><time>2026-04-11T14:50:40.493Z</time></trkpt><trkpt lat="44.12258" lon="11.4374287"><ele>350.0</ele><time>2026-04-11T14:50:41.493Z</time></trkpt><trkpt lat="44.1225687" lon="11.4373137"><ele>350.0</ele><time>2026-04-11T14:50:42.495Z</time></trkpt><trkpt lat="44.1225625" lon="11.4371965"><ele>350.0</ele><time>2026-04-11T14:50:43.494Z</time></trkpt><trkpt lat="44.1225537" lon="11.4370538"><ele>350.0</ele><time>2026-04-11T14:50:44.694Z</time></trkpt><trkpt lat="44.1225323" lon="11.4368317"><ele>350.0</ele><time>2026-04-11T14:50:46.496Z</time></trkpt><trkpt lat="44.122522" lon="11.4367088"><ele>349.4</ele><time>2026-04-11T14:50:47.495Z</time></trkpt><trkpt lat="44.1225167" lon="11.4365895"><ele>348.8</ele><time>2026-04-11T14:50:48.494Z</time></trkpt><trkpt lat="44.12252" lon="11.4364755"><ele>348.20000000000005</ele><time>2026-04-11T14:50:49.493Z</time></trkpt><trkpt lat="44.1225468" lon="11.4362668"><ele>347.6</ele><time>2026-04-11T14:50:51.494Z</time></trkpt><trkpt lat="44.122566" lon="11.4361742"><ele>347.0</ele><time>2026-04-11T14:50:52.494Z</time></trkpt><trkpt lat="44.122604" lon="11.4360618"><ele>349.33333333333337</ele><time>2026-04-11T14:50:54.494Z</time></trkpt><trkpt lat="44.122632" lon="11.435975"><ele>351.6666666666667</ele><time>2026-04-11T14:53:00.497Z</time></trkpt><trkpt lat="44.1226657" lon="11.4358718"><ele>354.0</ele><time>2026-04-11T14:53:03.499Z</time></trkpt><trkpt lat="44.1227247" lon="11.4358183"><ele>356.3333333333333</ele><time>2026-04-11T14:53:07.496Z</time></trkpt><trkpt lat="44.1227832" lon="11.4359513"><ele>358.66666666666663</ele><time>2026-04-11T15:01:58.493Z</time></trkpt><trkpt lat="44.1228535" lon="11.436008"><ele>361.0</ele><time>2026-04-11T15:02:00.494Z</time></trkpt><trkpt lat="44.1229752" lon="11.4360515"><ele>361.0</ele><time>2026-04-11T15:02:02.495Z</time></trkpt><trkpt lat="44.123051" lon="11.4360683"><ele>361.0</ele><time>2026-04-11T15:02:03.495Z</time></trkpt><trkpt lat="44.1231343" lon="11.4360908"><ele>361.0</ele><time>2026-04-11T15:02:04.496Z</time></trkpt><trkpt lat="44.123219" lon="11.436117"><ele>361.0</ele><time>2026-04-11T15:02:05.495Z</time></trkpt><trkpt lat="44.1233042" lon="11.4361453"><ele>361.0</ele><time>2026-04-11T15:02:06.494Z</time></trkpt><trkpt lat="44.1233905" lon="11.4361722"><ele>361.0</ele><time>2026-04-11T15:02:07.492Z</time></trkpt><trkpt lat="44.1234772" lon="11.4361972"><ele>361.5</ele><time>2026-04-11T15:02:08.494Z</time></trkpt><trkpt lat="44.1235588" lon="11.4362212"><ele>362.0</ele><time>2026-04-11T15:02:09.493Z</time></trkpt><trkpt lat="44.1236343" lon="11.436244"><ele>362.5</ele><time>2026-04-11T15:02:10.493Z</time></trkpt><trkpt lat="44.1237075" lon="11.4362603"><ele>363.0</ele><time>2026-04-11T15:02:11.492Z</time></trkpt><trkpt lat="44.1237737" lon="11.4362743"><ele>363.5</ele><time>2026-04-11T15:02:12.493Z</time></trkpt><trkpt lat="44.1238783" lon="11.4363132"><ele>364.0</ele><time>2026-04-11T15:02:14.491Z</time></trkpt><trkpt lat="44.1239962" lon="11.4362613"><ele>364.2</ele><time>2026-04-11T15:02:16.491Z</time></trkpt><trkpt lat="44.1240653" lon="11.4361907"><ele>364.4</ele><time>2026-04-11T15:02:17.491Z</time></trkpt><trkpt lat="44.1241432" lon="11.4361117"><ele>364.6</ele><time>2026-04-11T15:02:18.492Z</time></trkpt><trkpt lat="44.1242303" lon="11.4360303"><ele>364.8</ele><time>2026-04-11T15:02:19.496Z</time></trkpt><trkpt lat="44.1243252" lon="11.4359463"><ele>365.0</ele><time>2026-04-11T15:02:20.496Z</time></trkpt><trkpt lat="44.1244273" lon="11.4358612"><ele>365.0</ele><time>2026-04-11T15:02:21.492Z</time></trkpt><trkpt lat="44.124535" lon="11.4357718"><ele>365.0</ele><time>2026-04-11T15:02:22.494Z</time></trkpt><trkpt lat="44.1246447" lon="11.4356738"><ele>365.0</ele><time>2026-04-11T15:02:23.493Z</time></trkpt><trkpt lat="44.1247535" lon="11.4355722"><ele>365.0</ele><time>2026-04-11T15:02:24.493Z</time></trkpt><trkpt lat="44.1248615" lon="11.4354672"><ele>367.25</ele><time>2026-04-11T15:02:25.492Z</time></trkpt><trkpt lat="44.124966" lon="11.4353588"><ele>369.5</ele><time>2026-04-11T15:02:26.493Z</time></trkpt><trkpt lat="44.1250627" lon="11.4352465"><ele>371.75</ele><time>2026-04-11T15:02:27.492Z</time></trkpt><trkpt lat="44.1251548" lon="11.4351332"><ele>374.0</ele><time>2026-04-11T15:02:28.492Z</time></trkpt><trkpt lat="44.1252448" lon="11.4350185"><ele>374.0</ele><time>2026-04-11T15:02:29.493Z</time></trkpt><trkpt lat="44.1255488" lon="11.4347443"><ele>374.0</ele><time>2026-04-11T15:02:32.493Z</time></trkpt><trkpt lat="44.1256552" lon="11.434709"><ele>373.6</ele><time>2026-04-11T15:02:33.493Z</time></trkpt><trkpt lat="44.1257615" lon="11.4347052"><ele>373.2</ele><time>2026-04-11T15:02:34.491Z</time></trkpt><trkpt lat="44.1258703" lon="11.434717"><ele>372.8</ele><time>2026-04-11T15:02:35.492Z</time></trkpt><trkpt lat="44.1259827" lon="11.4347308"><ele>372.40000000000003</ele><time>2026-04-11T15:02:36.494Z</time></trkpt><trkpt lat="44.1260988" lon="11.434731"><ele>372.0</ele><time>2026-04-11T15:02:37.492Z</time></trkpt><trkpt lat="44.126217" lon="11.4347127"><ele>372.0</ele><time>2026-04-11T15:02:38.493Z</time></trkpt><trkpt lat="44.1263325" lon="11.4346825"><ele>372.0</ele><time>2026-04-11T15:02:39.492Z</time></trkpt><trkpt lat="44.1264392" lon="11.4346358"><ele>372.0</ele><time>2026-04-11T15:02:40.49Z</time></trkpt><trkpt lat="44.1265392" lon="11.4345642"><ele>372.0</ele><time>2026-04-11T15:02:41.492Z</time></trkpt><trkpt lat="44.1266337" lon="11.4344613"><ele>373.6</ele><time>2026-04-11T15:02:42.491Z</time></trkpt><trkpt lat="44.1267222" lon="11.4343532"><ele>375.20000000000005</ele><time>2026-04-11T15:02:43.493Z</time></trkpt><trkpt lat="44.1268072" lon="11.4342645"><ele>376.8</ele><time>2026-04-11T15:02:44.494Z</time></trkpt><trkpt lat="44.1268952" lon="11.4342058"><ele>378.4</ele><time>2026-04-11T15:02:45.493Z</time></trkpt><trkpt lat="44.1269852" lon="11.4341612"><ele>380.0</ele><time>2026-04-11T15:02:46.492Z</time></trkpt><trkpt lat="44.1270688" lon="11.4341128"><ele>380.0</ele><time>2026-04-11T15:02:47.494Z</time></trkpt><trkpt lat="44.1271422" lon="11.4340583"><ele>380.0</ele><time>2026-04-11T15:02:48.493Z</time></trkpt><trkpt lat="44.1271947" lon="11.4339913"><ele>380.0</ele><time>2026-04-11T15:02:49.493Z</time></trkpt><trkpt lat="44.1272267" lon="11.4339115"><ele>380.0</ele><time>2026-04-11T15:02:50.495Z</time></trkpt><trkpt lat="44.1272523" lon="11.4338095"><ele>380.0</ele><time>2026-04-11T15:02:51.491Z</time></trkpt><trkpt lat="44.1272742" lon="11.4336945"><ele>380.0</ele><time>2026-04-11T15:02:52.492Z</time></trkpt><trkpt lat="44.1273003" lon="11.4335873"><ele>382.6666666666667</ele><time>2026-04-11T15:02:53.492Z</time></trkpt><trkpt lat="44.1273262" lon="11.4334832"><ele>385.33333333333337</ele><time>2026-04-11T15:02:54.493Z</time></trkpt><trkpt lat="44.1273382" lon="11.4333715"><ele>388.0</ele><time>2026-04-11T15:02:55.492Z</time></trkpt><trkpt lat="44.1273257" lon="11.433256"><ele>390.6666666666667</ele><time>2026-04-11T15:02:56.496Z</time></trkpt><trkpt lat="44.127296" lon="11.433136"><ele>393.3333333333333</ele><time>2026-04-11T15:02:57.494Z</time></trkpt><trkpt lat="44.1272698" lon="11.4330123"><ele>396.0</ele><time>2026-04-11T15:02:58.493Z</time></trkpt><trkpt lat="44.1272623" lon="11.4328937"><ele>396.0</ele><time>2026-04-11T15:02:59.493Z</time></trkpt><trkpt lat="44.1272768" lon="11.4327975"><ele>396.0</ele><time>2026-04-11T15:03:00.493Z</time></trkpt><trkpt lat="44.1273438" lon="11.4327002"><ele>396.0</ele><time>2026-04-11T15:03:02.493Z</time></trkpt><trkpt lat="44.1274387" lon="11.4328243"><ele>396.0</ele><time>2026-04-11T15:03:06.492Z</time></trkpt><trkpt lat="44.1274642" lon="11.4329103"><ele>396.0</ele><time>2026-04-11T15:03:07.491Z</time></trkpt><trkpt lat="44.1275048" lon="11.4330062"><ele>396.0</ele><time>2026-04-11T15:03:08.492Z</time></trkpt><trkpt lat="44.1275513" lon="11.4331048"><ele>396.0</ele><time>2026-04-11T15:03:09.494Z</time></trkpt><trkpt lat="44.1276018" lon="11.433198"><ele>396.0</ele><time>2026-04-11T15:03:10.493Z</time></trkpt><trkpt lat="44.1276517" lon="11.4332733"><ele>396.0</ele><time>2026-04-11T15:03:11.493Z</time></trkpt><trkpt lat="44.1277077" lon="11.4333272"><ele>396.0</ele><time>2026-04-11T15:03:12.493Z</time></trkpt><trkpt lat="44.127774" lon="11.4333708"><ele>396.0</ele><time>2026-04-11T15:03:13.494Z</time></trkpt><trkpt lat="44.1278467" lon="11.4334132"><ele>396.0</ele><time>2026-04-11T15:03:14.502Z</time></trkpt><trkpt lat="44.1279242" lon="11.4334478"><ele>396.0</ele><time>2026-04-11T15:03:15.492Z</time></trkpt><trkpt lat="44.1280008" lon="11.4334718"><ele>396.0</ele><time>2026-04-11T15:03:16.492Z</time></trkpt><trkpt lat="44.1280943" lon="11.4335357"><ele>396.0</ele><time>2026-04-11T15:03:18.491Z</time></trkpt><trkpt lat="44.1281065" lon="11.4336363"><ele>396.0</ele><time>2026-04-11T15:03:20.492Z</time></trkpt><trkpt lat="44.1280557" lon="11.4337357"><ele>396.0</ele><time>2026-04-11T15:03:22.49Z</time></trkpt><trkpt lat="44.1279753" lon="11.433885"><ele>396.1666666666667</ele><time>2026-04-11T15:03:24.492Z</time></trkpt><trkpt lat="44.1279337" lon="11.4339828"><ele>396.33333333333337</ele><time>2026-04-11T15:03:25.491Z</time></trkpt><trkpt lat="44.1278885" lon="11.4340783"><ele>396.5</ele><time>2026-04-11T15:03:26.491Z</time></trkpt><trkpt lat="44.127844" lon="11.4341662"><ele>396.6666666666667</ele><time>2026-04-11T15:03:27.495Z</time></trkpt><trkpt lat="44.1278057" lon="11.4342507"><ele>396.83333333333337</ele><time>2026-04-11T15:03:28.489Z</time></trkpt><trkpt lat="44.1277735" lon="11.4344195"><ele>397.0</ele><time>2026-04-11T15:03:30.491Z</time></trkpt><trkpt lat="44.1277768" lon="11.4345148"><ele>400.33333333333337</ele><time>2026-04-11T15:03:31.489Z</time></trkpt><trkpt lat="44.1278262" lon="11.4346808"><ele>403.6666666666667</ele><time>2026-04-11T15:03:33.494Z</time></trkpt><trkpt lat="44.127856" lon="11.4347717"><ele>407.0</ele><time>2026-04-11T15:03:34.493Z</time></trkpt><trkpt lat="44.127872" lon="11.4348617"><ele>410.33333333333337</ele><time>2026-04-11T15:03:35.493Z</time></trkpt><trkpt lat="44.127886" lon="11.4349505"><ele>413.6666666666667</ele><time>2026-04-11T15:03:36.494Z</time></trkpt><trkpt lat="44.127889" lon="11.43504"><ele>417.0</ele><time>2026-04-11T15:03:37.494Z</time></trkpt><trkpt lat="44.127795" lon="11.435321"><ele>417.0</ele><time>2026-04-11T15:03:40.492Z</time></trkpt><trkpt lat="44.127741" lon="11.4354008"><ele>417.0</ele><time>2026-04-11T15:03:41.492Z</time></trkpt><trkpt lat="44.127676" lon="11.4354828"><ele>417.0</ele><time>2026-04-11T15:03:42.492Z</time></trkpt><trkpt lat="44.1276115" lon="11.4355807"><ele>417.0</ele><time>2026-04-11T15:03:43.492Z</time></trkpt><trkpt lat="44.1275503" lon="11.4356883"><ele>417.0</ele><time>2026-04-11T15:03:44.492Z</time></trkpt><trkpt lat="44.1274863" lon="11.4357897"><ele>415.1666666666667</ele><time>2026-04-11T15:03:45.496Z</time></trkpt><trkpt lat="44.1274198" lon="11.4358725"><ele>413.33333333333337</ele><time>2026-04-11T15:03:46.493Z</time></trkpt><trkpt lat="44.1273487" lon="11.435948"><ele>411.5</ele><time>2026-04-11T15:03:47.494Z</time></trkpt><trkpt lat="44.1272797" lon="11.4360275"><ele>409.6666666666667</ele><time>2026-04-11T15:03:48.493Z</time></trkpt><trkpt lat="44.1272143" lon="11.4361152"><ele>407.83333333333337</ele><time>2026-04-11T15:03:49.494Z</time></trkpt><trkpt lat="44.1271535" lon="11.4361918"><ele>406.0</ele><time>2026-04-11T15:03:50.493Z</time></trkpt><trkpt lat="44.1270953" lon="11.436246"><ele>406.0</ele><time>2026-04-11T15:03:51.492Z</time></trkpt><trkpt lat="44.1270335" lon="11.4362713"><ele>406.0</ele><time>2026-04-11T15:03:52.493Z</time></trkpt><trkpt lat="44.1269602" lon="11.4362745"><ele>406.0</ele><time>2026-04-11T15:03:53.492Z</time></trkpt><trkpt lat="44.1268893" lon="11.4362613"><ele>406.0</ele><time>2026-04-11T15:03:54.491Z</time></trkpt><trkpt lat="44.1268242" lon="11.4362345"><ele>406.0</ele><time>2026-04-11T15:03:55.491Z</time></trkpt><trkpt lat="44.1267257" lon="11.4362168"><ele>406.0</ele><time>2026-04-11T15:03:57.495Z</time></trkpt><trkpt lat="44.12673" lon="11.4363103"><ele>406.0</ele><time>2026-04-11T15:04:01.492Z</time></trkpt><trkpt lat="44.1267993" lon="11.4363608"><ele>407.4</ele><time>2026-04-11T15:04:03.491Z</time></trkpt><trkpt lat="44.1268843" lon="11.4364027"><ele>408.8</ele><time>2026-04-11T15:04:05.491Z</time></trkpt><trkpt lat="44.126979" lon="11.436438"><ele>410.2</ele><time>2026-04-11T15:04:07.491Z</time></trkpt><trkpt lat="44.1271037" lon="11.4364377"><ele>411.59999999999997</ele><time>2026-04-11T15:04:09.49Z</time></trkpt><trkpt lat="44.1271785" lon="11.4364085"><ele>413.0</ele><time>2026-04-11T15:04:10.491Z</time></trkpt><trkpt lat="44.1272478" lon="11.4363523"><ele>418.75</ele><time>2026-04-11T15:04:11.49Z</time></trkpt><trkpt lat="44.1274452" lon="11.4361372"><ele>424.5</ele><time>2026-04-11T15:04:14.491Z</time></trkpt><trkpt lat="44.1275258" lon="11.4360865"><ele>430.25</ele><time>2026-04-11T15:04:15.493Z</time></trkpt><trkpt lat="44.1276105" lon="11.4360265"><ele>436.0</ele><time>2026-04-11T15:04:16.492Z</time></trkpt><trkpt lat="44.1276852" lon="11.435946"><ele>436.00000000000006</ele><time>2026-04-11T15:04:17.49Z</time></trkpt><trkpt lat="44.1277568" lon="11.4358585"><ele>436.0</ele><time>2026-04-11T15:04:18.493Z</time></trkpt><trkpt lat="44.127829" lon="11.4357817"><ele>436.0</ele><time>2026-04-11T15:04:19.492Z</time></trkpt><trkpt lat="44.1279073" lon="11.4357197"><ele>436.0</ele><time>2026-04-11T15:04:20.492Z</time></trkpt><trkpt lat="44.1279842" lon="11.4356702"><ele>436.00000000000006</ele><time>2026-04-11T15:04:21.497Z</time></trkpt><trkpt lat="44.1280592" lon="11.4356143"><ele>436.0</ele><time>2026-04-11T15:04:22.494Z</time></trkpt><trkpt lat="44.1281243" lon="11.4355458"><ele>438.6666666666667</ele><time>2026-04-11T15:04:23.493Z</time></trkpt><trkpt lat="44.1281773" lon="11.4354627"><ele>441.33333333333337</ele><time>2026-04-11T15:04:24.495Z</time></trkpt><trkpt lat="44.1282327" lon="11.4353618"><ele>444.0</ele><time>2026-04-11T15:04:25.494Z</time></trkpt><trkpt lat="44.1282875" lon="11.4352508"><ele>446.66666666666663</ele><time>2026-04-11T15:04:26.494Z</time></trkpt><trkpt lat="44.128328" lon="11.435143"><ele>449.3333333333333</ele><time>2026-04-11T15:04:27.495Z</time></trkpt><trkpt lat="44.1283585" lon="11.4350558"><ele>452.0</ele><time>2026-04-11T15:04:28.494Z</time></trkpt><trkpt lat="44.128435" lon="11.4349587"><ele>451.99999999999994</ele><time>2026-04-11T15:04:30.497Z</time></trkpt><trkpt lat="44.1285435" lon="11.4349015"><ele>452.0</ele><time>2026-04-11T15:04:32.497Z</time></trkpt><trkpt lat="44.1286043" lon="11.4348623"><ele>452.0</ele><time>2026-04-11T15:04:33.497Z</time></trkpt><trkpt lat="44.1286642" lon="11.4348207"><ele>452.0</ele><time>2026-04-11T15:04:34.494Z</time></trkpt><trkpt lat="44.1287307" lon="11.4347842"><ele>451.99999999999994</ele><time>2026-04-11T15:04:35.495Z</time></trkpt><trkpt lat="44.1288015" lon="11.434751"><ele>452.0</ele><time>2026-04-11T15:04:36.495Z</time></trkpt><trkpt lat="44.128877" lon="11.4347227"><ele>451.99999999999994</ele><time>2026-04-11T15:04:37.495Z</time></trkpt><trkpt lat="44.1289572" lon="11.4347005"><ele>452.0</ele><time>2026-04-11T15:04:38.498Z</time></trkpt><trkpt lat="44.1290393" lon="11.4346748"><ele>452.0</ele><time>2026-04-11T15:04:39.497Z</time></trkpt><trkpt lat="44.1291153" lon="11.4346347"><ele>452.0</ele><time>2026-04-11T15:04:40.497Z</time></trkpt><trkpt lat="44.1291813" lon="11.4345847"><ele>451.99999999999994</ele><time>2026-04-11T15:04:41.495Z</time></trkpt><trkpt lat="44.1292355" lon="11.4345298"><ele>452.0</ele><time>2026-04-11T15:04:42.493Z</time></trkpt><trkpt lat="44.1292812" lon="11.4344627"><ele>458.5</ele><time>2026-04-11T15:04:43.492Z</time></trkpt><trkpt lat="44.1293213" lon="11.434391"><ele>465.0</ele><time>2026-04-11T15:04:44.492Z</time></trkpt><trkpt lat="44.1295175" lon="11.4342022"><ele>471.5</ele><time>2026-04-11T15:04:48.497Z</time></trkpt><trkpt lat="44.1295768" lon="11.4341045"><ele>478.0</ele><time>2026-04-11T15:04:50.498Z</time></trkpt><trkpt lat="44.1296177" lon="11.4339622"><ele>479.00000000000006</ele><time>2026-04-11T15:04:52.497Z</time></trkpt><trkpt lat="44.1296548" lon="11.4337995"><ele>480.0</ele><time>2026-04-11T15:04:54.495Z</time></trkpt><trkpt lat="44.1296793" lon="11.433714"><ele>481.0</ele><time>2026-04-11T15:04:55.493Z</time></trkpt><trkpt lat="44.1296797" lon="11.4335467"><ele>482.0</ele><time>2026-04-11T15:04:57.493Z</time></trkpt><trkpt lat="44.1296592" lon="11.4334562"><ele>483.00000000000006</ele><time>2026-04-11T15:04:58.494Z</time></trkpt><trkpt lat="44.1296388" lon="11.4333697"><ele>484.0</ele><time>2026-04-11T15:04:59.494Z</time></trkpt><trkpt lat="44.1296093" lon="11.4332877"><ele>484.00000000000006</ele><time>2026-04-11T15:05:00.496Z</time></trkpt><trkpt lat="44.1295615" lon="11.4332132"><ele>484.0</ele><time>2026-04-11T15:05:01.497Z</time></trkpt><trkpt lat="44.1295033" lon="11.4331393"><ele>484.0</ele><time>2026-04-11T15:05:02.497Z</time></trkpt><trkpt lat="44.1294475" lon="11.4330658"><ele>484.0</ele><time>2026-04-11T15:05:03.496Z</time></trkpt><trkpt lat="44.1294028" lon="11.432993"><ele>484.00000000000006</ele><time>2026-04-11T15:05:04.496Z</time></trkpt><trkpt lat="44.1293703" lon="11.4328753"><ele>484.0</ele><time>2026-04-11T15:05:06.494Z</time></trkpt><trkpt lat="44.1294093" lon="11.4327683"><ele>485.50000000000006</ele><time>2026-04-11T15:05:08.493Z</time></trkpt><trkpt lat="44.1294885" lon="11.4326407"><ele>487.0</ele><time>2026-04-11T15:05:10.495Z</time></trkpt><trkpt lat="44.1295348" lon="11.4325613"><ele>488.5</ele><time>2026-04-11T15:05:11.494Z</time></trkpt><trkpt lat="44.129586" lon="11.4324808"><ele>490.0</ele><time>2026-04-11T15:05:12.495Z</time></trkpt><trkpt lat="44.1296347" lon="11.4324112"><ele>491.50000000000006</ele><time>2026-04-11T15:05:13.494Z</time></trkpt><trkpt lat="44.1296822" lon="11.4323502"><ele>493.0</ele><time>2026-04-11T15:05:14.492Z</time></trkpt><trkpt lat="44.1297312" lon="11.432291"><ele>493.0</ele><time>2026-04-11T15:05:15.492Z</time></trkpt><trkpt lat="44.1298162" lon="11.4321787"><ele>493.0</ele><time>2026-04-11T15:05:17.493Z</time></trkpt><trkpt lat="44.1298805" lon="11.432045"><ele>493.0</ele><time>2026-04-11T15:05:19.492Z</time></trkpt><trkpt lat="44.1299513" lon="11.4317993"><ele>493.0</ele><time>2026-04-11T15:05:22.492Z</time></trkpt><trkpt lat="44.1300107" lon="11.4316518"><ele>504.5</ele><time>2026-04-11T15:05:24.49Z</time></trkpt><trkpt lat="44.1300778" lon="11.4315153"><ele>516.0</ele><time>2026-04-11T15:05:26.492Z</time></trkpt><trkpt lat="44.1301737" lon="11.4314402"><ele>527.5</ele><time>2026-04-11T15:05:28.493Z</time></trkpt><trkpt lat="44.130271" lon="11.4313827"><ele>539.0</ele><time>2026-04-11T15:05:30.491Z</time></trkpt><trkpt lat="44.1303805" lon="11.4313233"><ele>536.1666666666666</ele><time>2026-04-11T15:05:32.493Z</time></trkpt><trkpt lat="44.130494" lon="11.4312537"><ele>533.3333333333333</ele><time>2026-04-11T15:05:34.492Z</time></trkpt><trkpt lat="44.1305565" lon="11.4312208"><ele>530.5</ele><time>2026-04-11T15:05:35.494Z</time></trkpt><trkpt lat="44.1306193" lon="11.4311923"><ele>527.6666666666666</ele><time>2026-04-11T15:05:36.493Z</time></trkpt><trkpt lat="44.1306868" lon="11.431167"><ele>524.8333333333334</ele><time>2026-04-11T15:05:37.493Z</time></trkpt><trkpt lat="44.1307498" lon="11.4311332"><ele>522.0</ele><time>2026-04-11T15:05:38.494Z</time></trkpt><trkpt lat="44.1308152" lon="11.4311077"><ele>528.6666666666666</ele><time>2026-04-11T15:05:39.494Z</time></trkpt><trkpt lat="44.1308818" lon="11.4310805"><ele>535.3333333333334</ele><time>2026-04-11T15:05:40.493Z</time></trkpt><trkpt lat="44.1309598" lon="11.43106"><ele>542.0</ele><time>2026-04-11T15:05:41.493Z</time></trkpt><trkpt lat="44.1310297" lon="11.4310292"><ele>548.6666666666667</ele><time>2026-04-11T15:05:42.492Z</time></trkpt><trkpt lat="44.1310938" lon="11.4309882"><ele>555.3333333333334</ele><time>2026-04-11T15:05:43.493Z</time></trkpt><trkpt lat="44.131133" lon="11.4309167"><ele>562.0</ele><time>2026-04-11T15:05:44.493Z</time></trkpt><trkpt lat="44.1312115" lon="11.4307945"><ele>562.0000000000001</ele><time>2026-04-11T15:05:46.492Z</time></trkpt><trkpt lat="44.1312687" lon="11.4307328"><ele>562.0</ele><time>2026-04-11T15:05:47.493Z</time></trkpt><trkpt lat="44.1313355" lon="11.4306798"><ele>562.0</ele><time>2026-04-11T15:05:48.493Z</time></trkpt><trkpt lat="44.1313998" lon="11.4306245"><ele>562.0</ele><time>2026-04-11T15:05:49.492Z</time></trkpt><trkpt lat="44.1314563" lon="11.430563"><ele>562.0</ele><time>2026-04-11T15:05:50.492Z</time></trkpt><trkpt lat="44.1315085" lon="11.4304902"><ele>562.0000000000001</ele><time>2026-04-11T15:05:51.493Z</time></trkpt><trkpt lat="44.131564" lon="11.430424"><ele>562.0</ele><time>2026-04-11T15:05:52.493Z</time></trkpt><trkpt lat="44.1317088" lon="11.4301755"><ele>565.5</ele><time>2026-04-11T15:05:56.491Z</time></trkpt><trkpt lat="44.1317315" lon="11.4300728"><ele>569.0</ele><time>2026-04-11T15:05:57.491Z</time></trkpt><trkpt lat="44.1317563" lon="11.4299783"><ele>572.5</ele><time>2026-04-11T15:05:58.49Z</time></trkpt><trkpt lat="44.1318442" lon="11.4298735"><ele>576.0</ele><time>2026-04-11T15:06:00.493Z</time></trkpt><trkpt lat="44.1319035" lon="11.429836"><ele>579.5</ele><time>2026-04-11T15:06:01.493Z</time></trkpt><trkpt lat="44.1319652" lon="11.4298118"><ele>583.0</ele><time>2026-04-11T15:06:02.492Z</time></trkpt><trkpt lat="44.1320725" lon="11.4297952"><ele>583.0</ele><time>2026-04-11T15:06:04.492Z</time></trkpt><trkpt lat="44.1321923" lon="11.429741"><ele>583.0</ele><time>2026-04-11T15:06:06.493Z</time></trkpt><trkpt lat="44.1322632" lon="11.4296765"><ele>583.0</ele><time>2026-04-11T15:06:07.494Z</time></trkpt><trkpt lat="44.1323393" lon="11.4296105"><ele>583.0</ele><time>2026-04-11T15:06:08.494Z</time></trkpt><trkpt lat="44.132419" lon="11.4295593"><ele>583.0</ele><time>2026-04-11T15:06:09.493Z</time></trkpt><trkpt lat="44.1324973" lon="11.4295173"><ele>584.5714285714287</ele><time>2026-04-11T15:06:10.492Z</time></trkpt><trkpt lat="44.132569" lon="11.42948"><ele>586.1428571428571</ele><time>2026-04-11T15:06:11.495Z</time></trkpt><trkpt lat="44.132637" lon="11.4294377"><ele>587.7142857142858</ele><time>2026-04-11T15:06:12.494Z</time></trkpt><trkpt lat="44.1327032" lon="11.4293893"><ele>589.2857142857143</ele><time>2026-04-11T15:06:13.493Z</time></trkpt><trkpt lat="44.132768" lon="11.42935"><ele>590.8571428571429</ele><time>2026-04-11T15:06:14.495Z</time></trkpt><trkpt lat="44.1328302" lon="11.4293165"><ele>592.4285714285714</ele><time>2026-04-11T15:06:15.494Z</time></trkpt><trkpt lat="44.1328873" lon="11.429271"><ele>594.0</ele><time>2026-04-11T15:06:16.494Z</time></trkpt><trkpt lat="44.1329417" lon="11.429211"><ele>594.0</ele><time>2026-04-11T15:06:17.493Z</time></trkpt><trkpt lat="44.132999" lon="11.4291348"><ele>594.0</ele><time>2026-04-11T15:06:18.493Z</time></trkpt><trkpt lat="44.1330437" lon="11.429057"><ele>594.0</ele><time>2026-04-11T15:06:19.493Z</time></trkpt><trkpt lat="44.1330865" lon="11.428975"><ele>594.0</ele><time>2026-04-11T15:06:20.493Z</time></trkpt><trkpt lat="44.1331363" lon="11.428891"><ele>594.0</ele><time>2026-04-11T15:06:21.492Z</time></trkpt><trkpt lat="44.1331937" lon="11.4288047"><ele>594.0</ele><time>2026-04-11T15:06:22.491Z</time></trkpt><trkpt lat="44.1332438" lon="11.4287143"><ele>596.4</ele><time>2026-04-11T15:06:23.491Z</time></trkpt><trkpt lat="44.1332892" lon="11.4286245"><ele>598.8</ele><time>2026-04-11T15:06:24.496Z</time></trkpt><trkpt lat="44.1333263" lon="11.4285292"><ele>601.2</ele><time>2026-04-11T15:06:25.493Z</time></trkpt><trkpt lat="44.1333537" lon="11.428431"><ele>603.6</ele><time>2026-04-11T15:06:26.493Z</time></trkpt><trkpt lat="44.133327" lon="11.4282393"><ele>606.0</ele><time>2026-04-11T15:06:29.494Z</time></trkpt><trkpt lat="44.1332232" lon="11.4281765"><ele>605.2</ele><time>2026-04-11T15:06:31.495Z</time></trkpt><trkpt lat="44.133125" lon="11.428038"><ele>604.4000000000001</ele><time>2026-04-11T15:06:33.493Z</time></trkpt><trkpt lat="44.1330668" lon="11.427945"><ele>603.6</ele><time>2026-04-11T15:06:34.494Z</time></trkpt><trkpt lat="44.1330082" lon="11.4278482"><ele>602.8000000000001</ele><time>2026-04-11T15:06:35.496Z</time></trkpt><trkpt lat="44.1329502" lon="11.427767"><ele>602.0</ele><time>2026-04-11T15:06:36.496Z</time></trkpt><trkpt lat="44.1328962" lon="11.4276942"><ele>602.0</ele><time>2026-04-11T15:06:37.496Z</time></trkpt><trkpt lat="44.1328628" lon="11.4276192"><ele>602.0</ele><time>2026-04-11T15:06:38.497Z</time></trkpt><trkpt lat="44.1328397" lon="11.4275275"><ele>602.0</ele><time>2026-04-11T15:06:39.495Z</time></trkpt><trkpt lat="44.1328138" lon="11.4274392"><ele>602.0</ele><time>2026-04-11T15:06:40.493Z</time></trkpt><trkpt lat="44.1327755" lon="11.4273632"><ele>602.0</ele><time>2026-04-11T15:06:41.496Z</time></trkpt><trkpt lat="44.1327238" lon="11.427301"><ele>602.0</ele><time>2026-04-11T15:06:42.494Z</time></trkpt><trkpt lat="44.1326578" lon="11.4272622"><ele>602.0</ele><time>2026-04-11T15:06:43.494Z</time></trkpt><trkpt lat="44.1325873" lon="11.4272583"><ele>602.0</ele><time>2026-04-11T15:06:44.493Z</time></trkpt><trkpt lat="44.1325227" lon="11.4272595"><ele>602.0</ele><time>2026-04-11T15:06:45.492Z</time></trkpt><trkpt lat="44.1324187" lon="11.4271962"><ele>602.0</ele><time>2026-04-11T15:06:47.492Z</time></trkpt><trkpt lat="44.1323712" lon="11.4270465"><ele>602.0</ele><time>2026-04-11T15:06:49.499Z</time></trkpt><trkpt lat="44.1323523" lon="11.4269598"><ele>602.0</ele><time>2026-04-11T15:06:50.498Z</time></trkpt><trkpt lat="44.1323157" lon="11.4268282"><ele>603.25</ele><time>2026-04-11T15:06:52.498Z</time></trkpt><trkpt lat="44.1322592" lon="11.4267262"><ele>604.5</ele><time>2026-04-11T15:06:54.495Z</time></trkpt><trkpt lat="44.132174" lon="11.4266468"><ele>605.75</ele><time>2026-04-11T15:06:56.496Z</time></trkpt><trkpt lat="44.1320667" lon="11.4266018"><ele>607.0</ele><time>2026-04-11T15:06:58.496Z</time></trkpt><trkpt lat="44.1318057" lon="11.4265783"><ele>607.0</ele><time>2026-04-11T15:07:02.497Z</time></trkpt><trkpt lat="44.1317413" lon="11.4265953"><ele>607.0</ele><time>2026-04-11T15:07:03.494Z</time></trkpt><trkpt lat="44.131673" lon="11.4266217"><ele>607.0</ele><time>2026-04-11T15:07:04.495Z</time></trkpt><trkpt lat="44.1316073" lon="11.4266443"><ele>607.0</ele><time>2026-04-11T15:07:05.494Z</time></trkpt><trkpt lat="44.131491" lon="11.426666"><ele>607.0</ele><time>2026-04-11T15:07:07.496Z</time></trkpt><trkpt lat="44.1314285" lon="11.4266188"><ele>607.0</ele><time>2026-04-11T15:07:09.495Z</time></trkpt><trkpt lat="44.1314328" lon="11.4264912"><ele>608.6</ele><time>2026-04-11T15:07:11.494Z</time></trkpt><trkpt lat="44.1314643" lon="11.4263372"><ele>610.2</ele><time>2026-04-11T15:07:13.494Z</time></trkpt><trkpt lat="44.1315198" lon="11.4261867"><ele>611.8</ele><time>2026-04-11T15:07:15.497Z</time></trkpt><trkpt lat="44.1315648" lon="11.4261148"><ele>613.4</ele><time>2026-04-11T15:07:16.495Z</time></trkpt><trkpt lat="44.1316147" lon="11.426037"><ele>615.0</ele><time>2026-04-11T15:07:17.495Z</time></trkpt><trkpt lat="44.1316607" lon="11.4259508"><ele>615.0</ele><time>2026-04-11T15:07:18.495Z</time></trkpt><trkpt lat="44.1316942" lon="11.4258693"><ele>615.0</ele><time>2026-04-11T15:07:19.494Z</time></trkpt><trkpt lat="44.1317463" lon="11.425745"><ele>615.0</ele><time>2026-04-11T15:07:21.495Z</time></trkpt><trkpt lat="44.1317857" lon="11.425628"><ele>615.0</ele><time>2026-04-11T15:07:23.49Z</time></trkpt><trkpt lat="44.131831" lon="11.4255558"><ele>615.0</ele><time>2026-04-11T15:07:24.49Z</time></trkpt><trkpt lat="44.1318872" lon="11.4254852"><ele>615.0</ele><time>2026-04-11T15:07:25.489Z</time></trkpt><trkpt lat="44.1319473" lon="11.425418"><ele>612.0</ele><time>2026-04-11T15:07:26.488Z</time></trkpt><trkpt lat="44.1320227" lon="11.4253478"><ele>609.0</ele><time>2026-04-11T15:07:27.489Z</time></trkpt><trkpt lat="44.1321018" lon="11.425276"><ele>606.0</ele><time>2026-04-11T15:07:28.489Z</time></trkpt><trkpt lat="44.1321717" lon="11.4252015"><ele>603.0</ele><time>2026-04-11T15:07:29.488Z</time></trkpt><trkpt lat="44.1322432" lon="11.42514"><ele>600.0</ele><time>2026-04-11T15:07:30.49Z</time></trkpt><trkpt lat="44.1323058" lon="11.4250658"><ele>597.0</ele><time>2026-04-11T15:07:31.488Z</time></trkpt><trkpt lat="44.1323625" lon="11.4249915"><ele>599.0</ele><time>2026-04-11T15:07:32.494Z</time></trkpt><trkpt lat="44.1324115" lon="11.4249125"><ele>601.0</ele><time>2026-04-11T15:07:33.487Z</time></trkpt><trkpt lat="44.1324998" lon="11.4246525"><ele>603.0</ele><time>2026-04-11T15:07:36.489Z</time></trkpt><trkpt lat="44.1325197" lon="11.4244865"><ele>605.0</ele><time>2026-04-11T15:07:38.492Z</time></trkpt><trkpt lat="44.1325788" lon="11.4243555"><ele>605.0</ele><time>2026-04-11T15:07:40.492Z</time></trkpt><trkpt lat="44.1326217" lon="11.424287"><ele>605.0</ele><time>2026-04-11T15:07:41.494Z</time></trkpt><trkpt lat="44.1327068" lon="11.4241702"><ele>605.0</ele><time>2026-04-11T15:07:43.49Z</time></trkpt><trkpt lat="44.1327588" lon="11.4241138"><ele>605.0</ele><time>2026-04-11T15:07:44.491Z</time></trkpt><trkpt lat="44.1328567" lon="11.4240267"><ele>605.0</ele><time>2026-04-11T15:07:46.49Z</time></trkpt><trkpt lat="44.1329475" lon="11.4239557"><ele>605.0</ele><time>2026-04-11T15:07:48.493Z</time></trkpt><trkpt lat="44.1330202" lon="11.4238572"><ele>605.0</ele><time>2026-04-11T15:07:50.49Z</time></trkpt><trkpt lat="44.1330748" lon="11.4237695"><ele>605.0</ele><time>2026-04-11T15:07:52.49Z</time></trkpt><trkpt lat="44.1331433" lon="11.423651"><ele>605.0</ele><time>2026-04-11T15:07:54.491Z</time></trkpt><trkpt lat="44.1332255" lon="11.423566"><ele>605.0</ele><time>2026-04-11T15:07:56.49Z</time></trkpt><trkpt lat="44.133254" lon="11.4234652"><ele>606.4</ele><time>2026-04-11T15:07:58.491Z</time></trkpt><trkpt lat="44.1332295" lon="11.4233807"><ele>607.8</ele><time>2026-04-11T15:08:00.49Z</time></trkpt><trkpt lat="44.1331458" lon="11.4233102"><ele>609.2</ele><time>2026-04-11T15:08:02.497Z</time></trkpt><trkpt lat="44.1330652" lon="11.423252"><ele>610.6</ele><time>2026-04-11T15:08:04.49Z</time></trkpt><trkpt lat="44.1329585" lon="11.4231947"><ele>612.0</ele><time>2026-04-11T15:08:06.493Z</time></trkpt><trkpt lat="44.1328142" lon="11.4230047"><ele>611.4</ele><time>2026-04-11T15:08:10.492Z</time></trkpt><trkpt lat="44.1327707" lon="11.4228892"><ele>610.8000000000001</ele><time>2026-04-11T15:08:12.494Z</time></trkpt><trkpt lat="44.13269" lon="11.4228255"><ele>610.2</ele><time>2026-04-11T15:08:14.492Z</time></trkpt><trkpt lat="44.1325695" lon="11.4228272"><ele>609.6</ele><time>2026-04-11T15:08:16.492Z</time></trkpt><trkpt lat="44.1324677" lon="11.4228537"><ele>609.0</ele><time>2026-04-11T15:08:18.493Z</time></trkpt><trkpt lat="44.1323805" lon="11.4228435"><ele>604.2</ele><time>2026-04-11T15:08:20.495Z</time></trkpt><trkpt lat="44.132291" lon="11.4227905"><ele>599.4</ele><time>2026-04-11T15:08:22.491Z</time></trkpt><trkpt lat="44.132208" lon="11.4227698"><ele>594.6</ele><time>2026-04-11T15:08:24.492Z</time></trkpt><trkpt lat="44.1321112" lon="11.422761"><ele>589.8</ele><time>2026-04-11T15:08:26.493Z</time></trkpt><trkpt lat="44.1320233" lon="11.4227043"><ele>585.0</ele><time>2026-04-11T15:08:28.494Z</time></trkpt><trkpt lat="44.1319445" lon="11.4226218"><ele>585.0</ele><time>2026-04-11T15:08:30.498Z</time></trkpt><trkpt lat="44.131846" lon="11.422553"><ele>585.0</ele><time>2026-04-11T15:08:32.495Z</time></trkpt><trkpt lat="44.1317857" lon="11.4225048"><ele>585.0</ele><time>2026-04-11T15:08:34.493Z</time></trkpt><trkpt lat="44.1317723" lon="11.4224128"><ele>585.0</ele><time>2026-04-11T15:08:36.496Z</time></trkpt><trkpt lat="44.1317965" lon="11.4222827"><ele>585.0</ele><time>2026-04-11T15:08:38.495Z</time></trkpt><trkpt lat="44.1318427" lon="11.4221283"><ele>584.75</ele><time>2026-04-11T15:08:40.493Z</time></trkpt><trkpt lat="44.1319273" lon="11.4219197"><ele>584.5</ele><time>2026-04-11T15:08:43.493Z</time></trkpt><trkpt lat="44.1319812" lon="11.4218075"><ele>584.25</ele><time>2026-04-11T15:08:45.495Z</time></trkpt><trkpt lat="44.1320068" lon="11.421689"><ele>584.0</ele><time>2026-04-11T15:08:47.49Z</time></trkpt><trkpt lat="44.1320035" lon="11.4215588"><ele>584.0</ele><time>2026-04-11T15:08:49.491Z</time></trkpt><trkpt lat="44.1319667" lon="11.4213992"><ele>584.0</ele><time>2026-04-11T15:08:51.494Z</time></trkpt><trkpt lat="44.1319585" lon="11.4212457"><ele>584.0</ele><time>2026-04-11T15:08:53.495Z</time></trkpt><trkpt lat="44.1319793" lon="11.4210918"><ele>584.0</ele><time>2026-04-11T15:08:55.492Z</time></trkpt><trkpt lat="44.1319717" lon="11.4209368"><ele>583.0</ele><time>2026-04-11T15:08:57.492Z</time></trkpt><trkpt lat="44.1319662" lon="11.4207657"><ele>582.0</ele><time>2026-04-11T15:08:59.492Z</time></trkpt><trkpt lat="44.1319665" lon="11.4206713"><ele>581.0</ele><time>2026-04-11T15:09:00.491Z</time></trkpt><trkpt lat="44.131985" lon="11.420529"><ele>580.0</ele><time>2026-04-11T15:09:02.492Z</time></trkpt><trkpt lat="44.1320365" lon="11.420433"><ele>579.0</ele><time>2026-04-11T15:09:04.492Z</time></trkpt><trkpt lat="44.1321262" lon="11.4203747"><ele>579.0</ele><time>2026-04-11T15:09:13.491Z</time></trkpt><trkpt lat="44.13231" lon="11.4202908"><ele>579.0</ele><time>2026-04-11T15:09:17.491Z</time></trkpt><trkpt lat="44.1323888" lon="11.4202602"><ele>579.0</ele><time>2026-04-11T15:09:19.489Z</time></trkpt><trkpt lat="44.1324748" lon="11.420252"><ele>579.0</ele><time>2026-04-11T15:09:22.49Z</time></trkpt><trkpt lat="44.1325612" lon="11.4202377"><ele>579.0</ele><time>2026-04-11T15:09:25.488Z</time></trkpt><trkpt lat="44.1326275" lon="11.4202103"><ele>584.4</ele><time>2026-04-11T15:09:28.489Z</time></trkpt><trkpt lat="44.132668" lon="11.420128"><ele>589.8</ele><time>2026-04-11T15:09:30.488Z</time></trkpt><trkpt lat="44.1326365" lon="11.4200272"><ele>595.2</ele><time>2026-04-11T15:09:32.49Z</time></trkpt><trkpt lat="44.1325683" lon="11.419922"><ele>600.6</ele><time>2026-04-11T15:09:34.49Z</time></trkpt><trkpt lat="44.1325005" lon="11.4198207"><ele>606.0</ele><time>2026-04-11T15:09:36.487Z</time></trkpt><trkpt lat="44.1324175" lon="11.4197345"><ele>601.75</ele><time>2026-04-11T15:09:38.488Z</time></trkpt><trkpt lat="44.1323197" lon="11.4196665"><ele>597.5</ele><time>2026-04-11T15:09:40.491Z</time></trkpt><trkpt lat="44.1322103" lon="11.4196238"><ele>593.25</ele><time>2026-04-11T15:09:42.492Z</time></trkpt><trkpt lat="44.1320955" lon="11.4195915"><ele>589.0</ele><time>2026-04-11T15:09:44.492Z</time></trkpt><trkpt lat="44.131977" lon="11.4195548"><ele>589.0</ele><time>2026-04-11T15:09:46.489Z</time></trkpt><trkpt lat="44.1317722" lon="11.4194473"><ele>589.0</ele><time>2026-04-11T15:09:50.491Z</time></trkpt><trkpt lat="44.1317095" lon="11.4193438"><ele>589.0</ele><time>2026-04-11T15:09:52.49Z</time></trkpt><trkpt lat="44.1317115" lon="11.4192212"><ele>589.0</ele><time>2026-04-11T15:09:54.495Z</time></trkpt><trkpt lat="44.131727" lon="11.4190905"><ele>589.0</ele><time>2026-04-11T15:09:56.492Z</time></trkpt><trkpt lat="44.1317228" lon="11.4189732"><ele>589.0</ele><time>2026-04-11T15:09:58.491Z</time></trkpt><trkpt lat="44.1317023" lon="11.41885"><ele>589.0</ele><time>2026-04-11T15:10:00.489Z</time></trkpt><trkpt lat="44.1316712" lon="11.4187575"><ele>589.0</ele><time>2026-04-11T15:10:02.489Z</time></trkpt><trkpt lat="44.1316098" lon="11.4186828"><ele>589.0</ele><time>2026-04-11T15:10:05.491Z</time></trkpt><trkpt lat="44.1315368" lon="11.4186428"><ele>589.0</ele><time>2026-04-11T15:10:08.491Z</time></trkpt><trkpt lat="44.1314733" lon="11.4186483"><ele>589.8333333333334</ele><time>2026-04-11T15:10:10.49Z</time></trkpt><trkpt lat="44.1313992" lon="11.4187282"><ele>590.6666666666667</ele><time>2026-04-11T15:10:13.492Z</time></trkpt><trkpt lat="44.1313368" lon="11.4187455"><ele>591.5</ele><time>2026-04-11T15:10:15.492Z</time></trkpt><trkpt lat="44.1312685" lon="11.418731"><ele>592.3333333333334</ele><time>2026-04-11T15:10:17.494Z</time></trkpt><trkpt lat="44.131191" lon="11.4187495"><ele>593.1666666666666</ele><time>2026-04-11T15:10:19.493Z</time></trkpt><trkpt lat="44.131121" lon="11.4188"><ele>594.0</ele><time>2026-04-11T15:10:21.492Z</time></trkpt><trkpt lat="44.131054" lon="11.4188265"><ele>594.0</ele><time>2026-04-11T15:10:25.489Z</time></trkpt><trkpt lat="44.1309867" lon="11.4188788"><ele>594.0</ele><time>2026-04-11T15:10:30.493Z</time></trkpt><trkpt lat="44.1309248" lon="11.4189595"><ele>594.0</ele><time>2026-04-11T15:10:33.49Z</time></trkpt><trkpt lat="44.1308785" lon="11.4190215"><ele>594.0</ele><time>2026-04-11T15:10:37.492Z</time></trkpt><trkpt lat="44.1308133" lon="11.4190828"><ele>594.0</ele><time>2026-04-11T15:10:41.492Z</time></trkpt><trkpt lat="44.130756" lon="11.41912"><ele>594.0</ele><time>2026-04-11T15:10:43.492Z</time></trkpt><trkpt lat="44.130683" lon="11.4191517"><ele>594.0</ele><time>2026-04-11T15:10:45.494Z</time></trkpt><trkpt lat="44.130593" lon="11.4191657"><ele>597.6</ele><time>2026-04-11T15:10:48.493Z</time></trkpt><trkpt lat="44.1305452" lon="11.4190838"><ele>601.2</ele><time>2026-04-11T15:10:50.489Z</time></trkpt><trkpt lat="44.1305772" lon="11.419001"><ele>604.8000000000001</ele><time>2026-04-11T15:10:52.488Z</time></trkpt><trkpt lat="44.1306445" lon="11.418894"><ele>608.4</ele><time>2026-04-11T15:10:54.491Z</time></trkpt><trkpt lat="44.1307612" lon="11.4187922"><ele>612.0</ele><time>2026-04-11T15:10:57.492Z</time></trkpt><trkpt lat="44.1308387" lon="11.418756"><ele>612.0</ele><time>2026-04-11T15:10:59.494Z</time></trkpt><trkpt lat="44.1309267" lon="11.418667"><ele>612.0</ele><time>2026-04-11T15:11:01.493Z</time></trkpt><trkpt lat="44.1309907" lon="11.4185572"><ele>612.0</ele><time>2026-04-11T15:11:03.492Z</time></trkpt><trkpt lat="44.1310368" lon="11.418411"><ele>612.0</ele><time>2026-04-11T15:11:05.495Z</time></trkpt><trkpt lat="44.1310625" lon="11.4183273"><ele>612.0</ele><time>2026-04-11T15:11:06.492Z</time></trkpt><trkpt lat="44.1310882" lon="11.4181753"><ele>612.0</ele><time>2026-04-11T15:11:08.493Z</time></trkpt><trkpt lat="44.1310668" lon="11.4180753"><ele>612.0</ele><time>2026-04-11T15:11:10.492Z</time></trkpt><trkpt lat="44.1310073" lon="11.4180338"><ele>612.0</ele><time>2026-04-11T15:11:12.491Z</time></trkpt><trkpt lat="44.1309362" lon="11.4180333"><ele>612.0</ele><time>2026-04-11T15:11:14.49Z</time></trkpt><trkpt lat="44.1308487" lon="11.4180398"><ele>612.0</ele><time>2026-04-11T15:11:16.491Z</time></trkpt><trkpt lat="44.1307682" lon="11.4180588"><ele>612.0</ele><time>2026-04-11T15:11:18.493Z</time></trkpt><trkpt lat="44.1306995" lon="11.4180732"><ele>620.0</ele><time>2026-04-11T15:11:20.491Z</time></trkpt><trkpt lat="44.1306133" lon="11.4180798"><ele>628.0</ele><time>2026-04-11T15:11:22.491Z</time></trkpt><trkpt lat="44.1305452" lon="11.4180822"><ele>636.0</ele><time>2026-04-11T15:11:24.491Z</time></trkpt><trkpt lat="44.1304817" lon="11.4180742"><ele>644.0</ele><time>2026-04-11T15:11:27.493Z</time></trkpt><trkpt lat="44.1304058" lon="11.4181528"><ele>652.0</ele><time>2026-04-11T15:11:32.493Z</time></trkpt><trkpt lat="44.1303213" lon="11.4182888"><ele>660.0</ele><time>2026-04-11T15:11:34.493Z</time></trkpt><trkpt lat="44.1302772" lon="11.4183702"><ele>660.0</ele><time>2026-04-11T15:11:35.493Z</time></trkpt><trkpt lat="44.1302357" lon="11.4184565"><ele>660.0</ele><time>2026-04-11T15:11:36.493Z</time></trkpt><trkpt lat="44.1301982" lon="11.4185453"><ele>660.0</ele><time>2026-04-11T15:11:37.492Z</time></trkpt><trkpt lat="44.1301613" lon="11.4186328"><ele>660.0</ele><time>2026-04-11T15:11:38.491Z</time></trkpt><trkpt lat="44.1301243" lon="11.4187212"><ele>660.0</ele><time>2026-04-11T15:11:39.489Z</time></trkpt><trkpt lat="44.130085" lon="11.418812"><ele>660.0</ele><time>2026-04-11T15:11:40.489Z</time></trkpt><trkpt lat="44.1300492" lon="11.41891"><ele>656.6666666666666</ele><time>2026-04-11T15:11:41.488Z</time></trkpt><trkpt lat="44.1300142" lon="11.4190105"><ele>653.3333333333334</ele><time>2026-04-11T15:11:42.492Z</time></trkpt><trkpt lat="44.129975" lon="11.4191083"><ele>650.0</ele><time>2026-04-11T15:11:43.49Z</time></trkpt><trkpt lat="44.1299295" lon="11.419203"><ele>646.6666666666667</ele><time>2026-04-11T15:11:44.491Z</time></trkpt><trkpt lat="44.1298812" lon="11.4192932"><ele>643.3333333333334</ele><time>2026-04-11T15:11:45.491Z</time></trkpt><trkpt lat="44.129832" lon="11.4193842"><ele>640.0</ele><time>2026-04-11T15:11:46.491Z</time></trkpt><trkpt lat="44.129782" lon="11.4194797"><ele>647.5</ele><time>2026-04-11T15:11:47.491Z</time></trkpt><trkpt lat="44.1297433" lon="11.419576"><ele>655.0</ele><time>2026-04-11T15:11:48.49Z</time></trkpt><trkpt lat="44.1297207" lon="11.419682"><ele>662.5</ele><time>2026-04-11T15:11:49.49Z</time></trkpt><trkpt lat="44.1297088" lon="11.419793"><ele>670.0</ele><time>2026-04-11T15:11:50.493Z</time></trkpt><trkpt lat="44.129689" lon="11.4199005"><ele>677.5</ele><time>2026-04-11T15:11:51.492Z</time></trkpt><trkpt lat="44.1296567" lon="11.4199898"><ele>685.0</ele><time>2026-04-11T15:11:52.489Z</time></trkpt><trkpt lat="44.1296113" lon="11.4200558"><ele>685.0</ele><time>2026-04-11T15:11:53.49Z</time></trkpt><trkpt lat="44.1295518" lon="11.4200993"><ele>685.0</ele><time>2026-04-11T15:11:54.491Z</time></trkpt><trkpt lat="44.1294828" lon="11.4201373"><ele>685.0</ele><time>2026-04-11T15:11:55.492Z</time></trkpt><trkpt lat="44.129413" lon="11.4201875"><ele>685.0</ele><time>2026-04-11T15:11:56.492Z</time></trkpt><trkpt lat="44.1293487" lon="11.4202563"><ele>685.0</ele><time>2026-04-11T15:11:57.492Z</time></trkpt><trkpt lat="44.129296" lon="11.4203477"><ele>685.0</ele><time>2026-04-11T15:11:58.492Z</time></trkpt><trkpt lat="44.1292497" lon="11.4204495"><ele>685.25</ele><time>2026-04-11T15:11:59.492Z</time></trkpt><trkpt lat="44.1292005" lon="11.4205483"><ele>685.5</ele><time>2026-04-11T15:12:00.492Z</time></trkpt><trkpt lat="44.129147" lon="11.420642"><ele>685.75</ele><time>2026-04-11T15:12:01.491Z</time></trkpt><trkpt lat="44.1289642" lon="11.4208892"><ele>686.0</ele><time>2026-04-11T15:12:04.488Z</time></trkpt><trkpt lat="44.1289162" lon="11.4209772"><ele>686.0</ele><time>2026-04-11T15:12:05.489Z</time></trkpt><trkpt lat="44.128871" lon="11.4210475"><ele>686.0</ele><time>2026-04-11T15:12:06.492Z</time></trkpt><trkpt lat="44.128761" lon="11.4211153"><ele>686.0</ele><time>2026-04-11T15:12:08.493Z</time></trkpt><trkpt lat="44.1286927" lon="11.4211113"><ele>686.0</ele><time>2026-04-11T15:12:09.494Z</time></trkpt><trkpt lat="44.128618" lon="11.4210945"><ele>686.0</ele><time>2026-04-11T15:12:10.495Z</time></trkpt><trkpt lat="44.1285487" lon="11.4210928"><ele>686.0</ele><time>2026-04-11T15:12:11.492Z</time></trkpt><trkpt lat="44.1284827" lon="11.4211175"><ele>686.0</ele><time>2026-04-11T15:12:12.492Z</time></trkpt><trkpt lat="44.1284183" lon="11.4211673"><ele>686.0</ele><time>2026-04-11T15:12:13.49Z</time></trkpt><trkpt lat="44.1283552" lon="11.4212118"><ele>686.0</ele><time>2026-04-11T15:12:14.493Z</time></trkpt><trkpt lat="44.1282912" lon="11.4212318"><ele>686.0</ele><time>2026-04-11T15:12:15.493Z</time></trkpt><trkpt lat="44.1282242" lon="11.4212188"><ele>686.0</ele><time>2026-04-11T15:12:16.492Z</time></trkpt><trkpt lat="44.128147" lon="11.4211837"><ele>686.0</ele><time>2026-04-11T15:12:17.494Z</time></trkpt><trkpt lat="44.1280652" lon="11.4211433"><ele>686.0</ele><time>2026-04-11T15:12:18.494Z</time></trkpt><trkpt lat="44.1279883" lon="11.4211112"><ele>690.1666666666666</ele><time>2026-04-11T15:12:19.493Z</time></trkpt><trkpt lat="44.1279143" lon="11.4210883"><ele>694.3333333333333</ele><time>2026-04-11T15:12:20.494Z</time></trkpt><trkpt lat="44.1278352" lon="11.4210865"><ele>698.5</ele><time>2026-04-11T15:12:21.492Z</time></trkpt><trkpt lat="44.1277545" lon="11.4211133"><ele>702.6666666666666</ele><time>2026-04-11T15:12:22.493Z</time></trkpt><trkpt lat="44.1276728" lon="11.4211535"><ele>706.8333333333334</ele><time>2026-04-11T15:12:23.492Z</time></trkpt><trkpt lat="44.127592" lon="11.4211997"><ele>711.0</ele><time>2026-04-11T15:12:24.491Z</time></trkpt><trkpt lat="44.1275103" lon="11.4212502"><ele>711.0</ele><time>2026-04-11T15:12:25.49Z</time></trkpt><trkpt lat="44.1274283" lon="11.4213028"><ele>711.0</ele><time>2026-04-11T15:12:26.488Z</time></trkpt><trkpt lat="44.1273487" lon="11.4213622"><ele>711.0</ele><time>2026-04-11T15:12:27.487Z</time></trkpt><trkpt lat="44.12728" lon="11.4214393"><ele>711.0</ele><time>2026-04-11T15:12:28.488Z</time></trkpt><trkpt lat="44.1272165" lon="11.4215265"><ele>711.0</ele><time>2026-04-11T15:12:29.489Z</time></trkpt><trkpt lat="44.1271502" lon="11.4216088"><ele>711.0</ele><time>2026-04-11T15:12:30.491Z</time></trkpt><trkpt lat="44.1270808" lon="11.421681"><ele>711.5999999999999</ele><time>2026-04-11T15:12:31.488Z</time></trkpt><trkpt lat="44.1270183" lon="11.4217532"><ele>712.2</ele><time>2026-04-11T15:12:32.49Z</time></trkpt><trkpt lat="44.1269735" lon="11.4218373"><ele>712.8</ele><time>2026-04-11T15:12:33.491Z</time></trkpt><trkpt lat="44.1269467" lon="11.4219362"><ele>713.4000000000001</ele><time>2026-04-11T15:12:34.491Z</time></trkpt><trkpt lat="44.12692" lon="11.4220377"><ele>714.0</ele><time>2026-04-11T15:12:35.492Z</time></trkpt><trkpt lat="44.1267507" lon="11.422295"><ele>706.2</ele><time>2026-04-11T15:12:38.49Z</time></trkpt><trkpt lat="44.1266737" lon="11.4223782"><ele>698.4000000000001</ele><time>2026-04-11T15:12:39.491Z</time></trkpt><trkpt lat="44.126596" lon="11.42246"><ele>690.6</ele><time>2026-04-11T15:12:40.489Z</time></trkpt><trkpt lat="44.1265118" lon="11.4225383"><ele>682.8</ele><time>2026-04-11T15:12:41.49Z</time></trkpt><trkpt lat="44.1264232" lon="11.4226223"><ele>675.0</ele><time>2026-04-11T15:12:42.491Z</time></trkpt><trkpt lat="44.1263392" lon="11.4227068"><ele>675.0</ele><time>2026-04-11T15:12:43.491Z</time></trkpt><trkpt lat="44.1262658" lon="11.4227795"><ele>675.0</ele><time>2026-04-11T15:12:44.492Z</time></trkpt><trkpt lat="44.1262022" lon="11.4228422"><ele>675.0</ele><time>2026-04-11T15:12:45.492Z</time></trkpt><trkpt lat="44.1261452" lon="11.4228885"><ele>675.0</ele><time>2026-04-11T15:12:46.492Z</time></trkpt><trkpt lat="44.1260483" lon="11.4228988"><ele>675.0</ele><time>2026-04-11T15:12:48.496Z</time></trkpt><trkpt lat="44.1259837" lon="11.4227877"><ele>675.0</ele><time>2026-04-11T15:12:50.496Z</time></trkpt><trkpt lat="44.12597" lon="11.4226948"><ele>675.0</ele><time>2026-04-11T15:12:51.494Z</time></trkpt><trkpt lat="44.1259642" lon="11.4225852"><ele>675.0</ele><time>2026-04-11T15:12:52.491Z</time></trkpt><trkpt lat="44.1259578" lon="11.4224678"><ele>675.0</ele><time>2026-04-11T15:12:53.491Z</time></trkpt><trkpt lat="44.1259462" lon="11.4223462"><ele>675.0</ele><time>2026-04-11T15:12:54.491Z</time></trkpt><trkpt lat="44.1259337" lon="11.4222223"><ele>675.0</ele><time>2026-04-11T15:12:55.491Z</time></trkpt><trkpt lat="44.1259255" lon="11.4220902"><ele>675.0</ele><time>2026-04-11T15:12:56.494Z</time></trkpt><trkpt lat="44.1259183" lon="11.4219543"><ele>676.6666666666666</ele><time>2026-04-11T15:12:57.494Z</time></trkpt><trkpt lat="44.125916" lon="11.4218218"><ele>678.3333333333334</ele><time>2026-04-11T15:12:58.494Z</time></trkpt><trkpt lat="44.1259088" lon="11.4216945"><ele>680.0</ele><time>2026-04-11T15:12:59.493Z</time></trkpt><trkpt lat="44.1258927" lon="11.4215723"><ele>681.6666666666667</ele><time>2026-04-11T15:13:00.494Z</time></trkpt><trkpt lat="44.1258707" lon="11.421455"><ele>683.3333333333334</ele><time>2026-04-11T15:13:01.492Z</time></trkpt><trkpt lat="44.125855" lon="11.4213407"><ele>685.0</ele><time>2026-04-11T15:13:02.492Z</time></trkpt><trkpt lat="44.125851" lon="11.4212197"><ele>687.0</ele><time>2026-04-11T15:13:03.492Z</time></trkpt><trkpt lat="44.1258558" lon="11.4210917"><ele>689.0</ele><time>2026-04-11T15:13:04.492Z</time></trkpt><trkpt lat="44.1258635" lon="11.4209525"><ele>691.0</ele><time>2026-04-11T15:13:05.494Z</time></trkpt><trkpt lat="44.1258753" lon="11.42082"><ele>693.0</ele><time>2026-04-11T15:13:06.492Z</time></trkpt><trkpt lat="44.1258977" lon="11.42071"><ele>695.0</ele><time>2026-04-11T15:13:07.491Z</time></trkpt><trkpt lat="44.12593" lon="11.4206088"><ele>698.5</ele><time>2026-04-11T15:13:08.495Z</time></trkpt><trkpt lat="44.1259418" lon="11.420274"><ele>702.0</ele><time>2026-04-11T15:13:11.493Z</time></trkpt><trkpt lat="44.1259438" lon="11.4201635"><ele>705.5</ele><time>2026-04-11T15:13:12.491Z</time></trkpt><trkpt lat="44.1259537" lon="11.4200587"><ele>709.0</ele><time>2026-04-11T15:13:13.49Z</time></trkpt><trkpt lat="44.1259633" lon="11.4199567"><ele>709.0</ele><time>2026-04-11T15:13:14.492Z</time></trkpt><trkpt lat="44.1259627" lon="11.4198562"><ele>709.0</ele><time>2026-04-11T15:13:15.496Z</time></trkpt><trkpt lat="44.1259098" lon="11.4197208"><ele>709.0</ele><time>2026-04-11T15:13:17.49Z</time></trkpt><trkpt lat="44.1257825" lon="11.419703"><ele>709.0</ele><time>2026-04-11T15:13:19.489Z</time></trkpt><trkpt lat="44.1256978" lon="11.4197367"><ele>709.0</ele><time>2026-04-11T15:13:20.492Z</time></trkpt><trkpt lat="44.1256023" lon="11.4197905"><ele>706.6</ele><time>2026-04-11T15:13:21.493Z</time></trkpt><trkpt lat="44.1254993" lon="11.4198412"><ele>704.2</ele><time>2026-04-11T15:13:22.493Z</time></trkpt><trkpt lat="44.1253955" lon="11.4198763"><ele>701.8000000000001</ele><time>2026-04-11T15:13:23.494Z</time></trkpt><trkpt lat="44.1253057" lon="11.4198965"><ele>699.4000000000001</ele><time>2026-04-11T15:13:24.493Z</time></trkpt><trkpt lat="44.1252225" lon="11.4198982"><ele>697.0</ele><time>2026-04-11T15:13:25.495Z</time></trkpt><trkpt lat="44.1251507" lon="11.4198743"><ele>697.0</ele><time>2026-04-11T15:13:26.495Z</time></trkpt><trkpt lat="44.1250967" lon="11.4198167"><ele>697.0</ele><time>2026-04-11T15:13:27.495Z</time></trkpt><trkpt lat="44.1250545" lon="11.4197338"><ele>697.0</ele><time>2026-04-11T15:13:28.493Z</time></trkpt><trkpt lat="44.1250152" lon="11.419627"><ele>697.0</ele><time>2026-04-11T15:13:29.493Z</time></trkpt><trkpt lat="44.124959" lon="11.4195218"><ele>697.0</ele><time>2026-04-11T15:13:30.493Z</time></trkpt><trkpt lat="44.1248922" lon="11.4194287"><ele>697.0</ele><time>2026-04-11T15:13:31.492Z</time></trkpt><trkpt lat="44.1248152" lon="11.4193467"><ele>698.0</ele><time>2026-04-11T15:13:32.495Z</time></trkpt><trkpt lat="44.1247417" lon="11.4192587"><ele>699.0</ele><time>2026-04-11T15:13:33.492Z</time></trkpt><trkpt lat="44.1246673" lon="11.4191752"><ele>700.0</ele><time>2026-04-11T15:13:34.492Z</time></trkpt><trkpt lat="44.12461" lon="11.4190893"><ele>701.0</ele><time>2026-04-11T15:13:35.494Z</time></trkpt><trkpt lat="44.1245795" lon="11.418999"><ele>702.0</ele><time>2026-04-11T15:13:36.494Z</time></trkpt><trkpt lat="44.1245713" lon="11.4189118"><ele>703.0</ele><time>2026-04-11T15:13:37.493Z</time></trkpt><trkpt lat="44.1245757" lon="11.4188122"><ele>704.75</ele><time>2026-04-11T15:13:38.493Z</time></trkpt><trkpt lat="44.1245817" lon="11.418699"><ele>706.5</ele><time>2026-04-11T15:13:39.494Z</time></trkpt><trkpt lat="44.124579" lon="11.4185793"><ele>708.25</ele><time>2026-04-11T15:13:40.492Z</time></trkpt><trkpt lat="44.1245598" lon="11.4184557"><ele>710.0</ele><time>2026-04-11T15:13:41.49Z</time></trkpt><trkpt lat="44.1244188" lon="11.4181353"><ele>710.0</ele><time>2026-04-11T15:13:44.492Z</time></trkpt><trkpt lat="44.1243463" lon="11.4180527"><ele>710.0</ele><time>2026-04-11T15:13:45.493Z</time></trkpt><trkpt lat="44.1242732" lon="11.4179673"><ele>710.0</ele><time>2026-04-11T15:13:46.493Z</time></trkpt><trkpt lat="44.1242062" lon="11.4178707"><ele>710.0</ele><time>2026-04-11T15:13:47.493Z</time></trkpt><trkpt lat="44.1241482" lon="11.4177668"><ele>710.0</ele><time>2026-04-11T15:13:48.493Z</time></trkpt><trkpt lat="44.1240933" lon="11.4176608"><ele>707.5</ele><time>2026-04-11T15:13:49.493Z</time></trkpt><trkpt lat="44.1240303" lon="11.4175692"><ele>705.0</ele><time>2026-04-11T15:13:50.494Z</time></trkpt><trkpt lat="44.1239523" lon="11.4174942"><ele>702.5</ele><time>2026-04-11T15:13:51.492Z</time></trkpt><trkpt lat="44.1238247" lon="11.4174203"><ele>700.0</ele><time>2026-04-11T15:13:52.891Z</time></trkpt><trkpt lat="44.123684" lon="11.4173623"><ele>700.0</ele><time>2026-04-11T15:13:54.3Z</time></trkpt><trkpt lat="44.1235668" lon="11.4173082"><ele>700.0</ele><time>2026-04-11T15:13:55.495Z</time></trkpt><trkpt lat="44.1234698" lon="11.417269"><ele>700.0</ele><time>2026-04-11T15:13:56.495Z</time></trkpt><trkpt lat="44.1233737" lon="11.4172383"><ele>700.0</ele><time>2026-04-11T15:13:57.495Z</time></trkpt><trkpt lat="44.1232792" lon="11.4172128"><ele>700.0</ele><time>2026-04-11T15:13:58.495Z</time></trkpt><trkpt lat="44.1231915" lon="11.4171837"><ele>698.6666666666667</ele><time>2026-04-11T15:13:59.494Z</time></trkpt><trkpt lat="44.1231188" lon="11.4171302"><ele>697.3333333333334</ele><time>2026-04-11T15:14:00.494Z</time></trkpt><trkpt lat="44.1230642" lon="11.417054"><ele>696.0</ele><time>2026-04-11T15:14:01.494Z</time></trkpt><trkpt lat="44.1230308" lon="11.4169627"><ele>694.6666666666666</ele><time>2026-04-11T15:14:02.493Z</time></trkpt><trkpt lat="44.1230255" lon="11.4168647"><ele>693.3333333333333</ele><time>2026-04-11T15:14:03.493Z</time></trkpt><trkpt lat="44.1230365" lon="11.416766"><ele>692.0</ele><time>2026-04-11T15:14:04.491Z</time></trkpt><trkpt lat="44.1230602" lon="11.4166537"><ele>692.0</ele><time>2026-04-11T15:14:05.491Z</time></trkpt><trkpt lat="44.1230968" lon="11.4165345"><ele>692.0</ele><time>2026-04-11T15:14:06.491Z</time></trkpt><trkpt lat="44.1231437" lon="11.4164102"><ele>692.0</ele><time>2026-04-11T15:14:07.489Z</time></trkpt><trkpt lat="44.1231995" lon="11.4162917"><ele>692.0</ele><time>2026-04-11T15:14:08.491Z</time></trkpt><trkpt lat="44.1232563" lon="11.4161772"><ele>692.0</ele><time>2026-04-11T15:14:09.491Z</time></trkpt><trkpt lat="44.1233102" lon="11.4160622"><ele>693.6</ele><time>2026-04-11T15:14:10.491Z</time></trkpt><trkpt lat="44.1233617" lon="11.4159407"><ele>695.2</ele><time>2026-04-11T15:14:11.492Z</time></trkpt><trkpt lat="44.1234113" lon="11.4158137"><ele>696.8</ele><time>2026-04-11T15:14:12.493Z</time></trkpt><trkpt lat="44.1234592" lon="11.415687"><ele>698.4</ele><time>2026-04-11T15:14:13.491Z</time></trkpt><trkpt lat="44.1235018" lon="11.41555"><ele>700.0</ele><time>2026-04-11T15:14:14.493Z</time></trkpt><trkpt lat="44.1236428" lon="11.4151493"><ele>696.6</ele><time>2026-04-11T15:14:17.491Z</time></trkpt><trkpt lat="44.1236835" lon="11.4150195"><ele>693.2</ele><time>2026-04-11T15:14:18.492Z</time></trkpt><trkpt lat="44.1237137" lon="11.4148902"><ele>689.8</ele><time>2026-04-11T15:14:19.496Z</time></trkpt><trkpt lat="44.1237408" lon="11.4147642"><ele>686.4</ele><time>2026-04-11T15:14:20.498Z</time></trkpt><trkpt lat="44.1237757" lon="11.414647"><ele>683.0</ele><time>2026-04-11T15:14:21.494Z</time></trkpt><trkpt lat="44.1238263" lon="11.4145433"><ele>685.4</ele><time>2026-04-11T15:14:22.493Z</time></trkpt><trkpt lat="44.1238892" lon="11.4144405"><ele>687.8</ele><time>2026-04-11T15:14:23.496Z</time></trkpt><trkpt lat="44.1239547" lon="11.4143278"><ele>690.2</ele><time>2026-04-11T15:14:24.493Z</time></trkpt><trkpt lat="44.124016" lon="11.4142092"><ele>692.6</ele><time>2026-04-11T15:14:25.492Z</time></trkpt><trkpt lat="44.1240768" lon="11.414087"><ele>695.0</ele><time>2026-04-11T15:14:26.493Z</time></trkpt><trkpt lat="44.1241345" lon="11.4139715"><ele>695.0</ele><time>2026-04-11T15:14:27.495Z</time></trkpt><trkpt lat="44.1241908" lon="11.4138752"><ele>695.0</ele><time>2026-04-11T15:14:28.494Z</time></trkpt><trkpt lat="44.1242355" lon="11.41381"><ele>695.0</ele><time>2026-04-11T15:14:29.493Z</time></trkpt><trkpt lat="44.1243197" lon="11.413777"><ele>695.0</ele><time>2026-04-11T15:14:31.491Z</time></trkpt><trkpt lat="44.124443" lon="11.41376"><ele>695.0</ele><time>2026-04-11T15:14:33.494Z</time></trkpt><trkpt lat="44.1245198" lon="11.4137362"><ele>695.0</ele><time>2026-04-11T15:14:34.492Z</time></trkpt><trkpt lat="44.1246048" lon="11.4137053"><ele>696.4</ele><time>2026-04-11T15:14:35.493Z</time></trkpt><trkpt lat="44.1246935" lon="11.4136743"><ele>697.8</ele><time>2026-04-11T15:14:36.494Z</time></trkpt><trkpt lat="44.1247787" lon="11.4136458"><ele>699.2</ele><time>2026-04-11T15:14:37.493Z</time></trkpt><trkpt lat="44.1248658" lon="11.413624"><ele>700.6</ele><time>2026-04-11T15:14:38.495Z</time></trkpt><trkpt lat="44.1249565" lon="11.4135992"><ele>702.0</ele><time>2026-04-11T15:14:39.492Z</time></trkpt><trkpt lat="44.1250507" lon="11.413562"><ele>702.0</ele><time>2026-04-11T15:14:40.494Z</time></trkpt><trkpt lat="44.1251448" lon="11.4135172"><ele>702.0</ele><time>2026-04-11T15:14:41.495Z</time></trkpt><trkpt lat="44.125237" lon="11.4134697"><ele>702.0</ele><time>2026-04-11T15:14:42.493Z</time></trkpt><trkpt lat="44.1253247" lon="11.4134195"><ele>702.0</ele><time>2026-04-11T15:14:43.498Z</time></trkpt><trkpt lat="44.125406" lon="11.4133583"><ele>702.0</ele><time>2026-04-11T15:14:44.494Z</time></trkpt><trkpt lat="44.1254807" lon="11.4132803"><ele>702.0</ele><time>2026-04-11T15:14:45.493Z</time></trkpt><trkpt lat="44.1255513" lon="11.413191"><ele>702.0</ele><time>2026-04-11T15:14:46.495Z</time></trkpt><trkpt lat="44.1256192" lon="11.4130952"><ele>702.0</ele><time>2026-04-11T15:14:47.494Z</time></trkpt><trkpt lat="44.1258287" lon="11.41292"><ele>702.0</ele><time>2026-04-11T15:14:50.494Z</time></trkpt><trkpt lat="44.1258997" lon="11.4129273"><ele>703.0</ele><time>2026-04-11T15:14:51.497Z</time></trkpt><trkpt lat="44.125963" lon="11.4129638"><ele>704.0</ele><time>2026-04-11T15:14:52.494Z</time></trkpt><trkpt lat="44.1260142" lon="11.4130243"><ele>705.0</ele><time>2026-04-11T15:14:53.496Z</time></trkpt><trkpt lat="44.1260625" lon="11.4131005"><ele>706.0</ele><time>2026-04-11T15:14:54.493Z</time></trkpt><trkpt lat="44.1261108" lon="11.41319"><ele>707.0</ele><time>2026-04-11T15:14:55.491Z</time></trkpt><trkpt lat="44.1261557" lon="11.4132922"><ele>708.0</ele><time>2026-04-11T15:14:56.494Z</time></trkpt><trkpt lat="44.1262073" lon="11.413392"><ele>709.6666666666666</ele><time>2026-04-11T15:14:57.491Z</time></trkpt><trkpt lat="44.1262708" lon="11.41347"><ele>711.3333333333334</ele><time>2026-04-11T15:14:58.493Z</time></trkpt><trkpt lat="44.1263422" lon="11.413521"><ele>713.0</ele><time>2026-04-11T15:14:59.492Z</time></trkpt><trkpt lat="44.1264178" lon="11.4135412"><ele>714.6666666666667</ele><time>2026-04-11T15:15:00.492Z</time></trkpt><trkpt lat="44.1264867" lon="11.4135225"><ele>716.3333333333334</ele><time>2026-04-11T15:15:01.492Z</time></trkpt><trkpt lat="44.1265507" lon="11.4134615"><ele>718.0</ele><time>2026-04-11T15:15:02.493Z</time></trkpt><trkpt lat="44.1266125" lon="11.4133775"><ele>722.0</ele><time>2026-04-11T15:15:03.492Z</time></trkpt><trkpt lat="44.1266818" lon="11.4132958"><ele>726.0</ele><time>2026-04-11T15:15:04.494Z</time></trkpt><trkpt lat="44.12676" lon="11.4132333"><ele>730.0</ele><time>2026-04-11T15:15:05.492Z</time></trkpt><trkpt lat="44.1268452" lon="11.4131843"><ele>734.0</ele><time>2026-04-11T15:15:06.493Z</time></trkpt><trkpt lat="44.1269367" lon="11.4131533"><ele>738.0</ele><time>2026-04-11T15:15:07.493Z</time></trkpt><trkpt lat="44.1270255" lon="11.4131368"><ele>738.0</ele><time>2026-04-11T15:15:08.493Z</time></trkpt><trkpt lat="44.1270978" lon="11.413152"><ele>738.0</ele><time>2026-04-11T15:15:09.493Z</time></trkpt><trkpt lat="44.1271588" lon="11.413202"><ele>738.0</ele><time>2026-04-11T15:15:10.494Z</time></trkpt><trkpt lat="44.1272098" lon="11.413283"><ele>738.0</ele><time>2026-04-11T15:15:11.496Z</time></trkpt><trkpt lat="44.127264" lon="11.4133765"><ele>738.0</ele><time>2026-04-11T15:15:12.493Z</time></trkpt><trkpt lat="44.1273295" lon="11.4134675"><ele>738.0</ele><time>2026-04-11T15:15:13.494Z</time></trkpt><trkpt lat="44.127407" lon="11.4135493"><ele>739.2</ele><time>2026-04-11T15:15:14.494Z</time></trkpt><trkpt lat="44.1274878" lon="11.4136318"><ele>740.4</ele><time>2026-04-11T15:15:15.494Z</time></trkpt><trkpt lat="44.1275597" lon="11.4137247"><ele>741.6</ele><time>2026-04-11T15:15:16.495Z</time></trkpt><trkpt lat="44.1276175" lon="11.4138353"><ele>742.8000000000001</ele><time>2026-04-11T15:15:17.495Z</time></trkpt><trkpt lat="44.1276522" lon="11.4139525"><ele>744.0</ele><time>2026-04-11T15:15:18.493Z</time></trkpt><trkpt lat="44.1276627" lon="11.4140723"><ele>747.25</ele><time>2026-04-11T15:15:19.491Z</time></trkpt><trkpt lat="44.1276642" lon="11.4141983"><ele>750.5</ele><time>2026-04-11T15:15:20.491Z</time></trkpt><trkpt lat="44.1276855" lon="11.4145642"><ele>753.75</ele><time>2026-04-11T15:15:23.492Z</time></trkpt><trkpt lat="44.1277352" lon="11.4146555"><ele>757.0</ele><time>2026-04-11T15:15:24.492Z</time></trkpt><trkpt lat="44.1278037" lon="11.4147197"><ele>757.0</ele><time>2026-04-11T15:15:25.49Z</time></trkpt><trkpt lat="44.1278868" lon="11.4147533"><ele>757.0</ele><time>2026-04-11T15:15:26.491Z</time></trkpt><trkpt lat="44.1279777" lon="11.4147587"><ele>757.0</ele><time>2026-04-11T15:15:27.492Z</time></trkpt><trkpt lat="44.1280602" lon="11.4147373"><ele>757.0</ele><time>2026-04-11T15:15:28.492Z</time></trkpt><trkpt lat="44.1281287" lon="11.4146832"><ele>757.0</ele><time>2026-04-11T15:15:29.493Z</time></trkpt><trkpt lat="44.1281957" lon="11.414598"><ele>757.0</ele><time>2026-04-11T15:15:30.492Z</time></trkpt><trkpt lat="44.1282627" lon="11.4144822"><ele>757.5</ele><time>2026-04-11T15:15:31.494Z</time></trkpt><trkpt lat="44.1283293" lon="11.4143528"><ele>758.0</ele><time>2026-04-11T15:15:32.493Z</time></trkpt><trkpt lat="44.1284012" lon="11.4142188"><ele>758.5</ele><time>2026-04-11T15:15:33.491Z</time></trkpt><trkpt lat="44.1284793" lon="11.4140832"><ele>759.0</ele><time>2026-04-11T15:15:34.492Z</time></trkpt><trkpt lat="44.1285607" lon="11.4139555"><ele>759.0</ele><time>2026-04-11T15:15:35.492Z</time></trkpt><trkpt lat="44.1286328" lon="11.4138237"><ele>759.0</ele><time>2026-04-11T15:15:36.492Z</time></trkpt><trkpt lat="44.1286897" lon="11.4137003"><ele>759.0</ele><time>2026-04-11T15:15:37.492Z</time></trkpt><trkpt lat="44.128728" lon="11.413627"><ele>759.0</ele><time>2026-04-11T15:15:38.494Z</time></trkpt><trkpt lat="44.1287438" lon="11.4134503"><ele>759.0</ele><time>2026-04-11T15:16:01.492Z</time></trkpt><trkpt lat="44.1287778" lon="11.4132858"><ele>757.5714285714286</ele><time>2026-04-11T15:16:03.492Z</time></trkpt><trkpt lat="44.1287998" lon="11.4131857"><ele>756.1428571428571</ele><time>2026-04-11T15:16:04.493Z</time></trkpt><trkpt lat="44.128823" lon="11.413079"><ele>754.7142857142858</ele><time>2026-04-11T15:16:05.493Z</time></trkpt><trkpt lat="44.1288452" lon="11.4129847"><ele>753.2857142857142</ele><time>2026-04-11T15:16:06.492Z</time></trkpt><trkpt lat="44.1288615" lon="11.412889"><ele>751.8571428571429</ele><time>2026-04-11T15:16:07.492Z</time></trkpt><trkpt lat="44.1288807" lon="11.4127905"><ele>750.4285714285714</ele><time>2026-04-11T15:16:08.491Z</time></trkpt><trkpt lat="44.1289098" lon="11.4127098"><ele>749.0</ele><time>2026-04-11T15:16:09.491Z</time></trkpt><trkpt lat="44.1289703" lon="11.4125633"><ele>749.5</ele><time>2026-04-11T15:16:11.493Z</time></trkpt><trkpt lat="44.1290605" lon="11.4124865"><ele>750.0</ele><time>2026-04-11T15:16:13.492Z</time></trkpt><trkpt lat="44.1291672" lon="11.4125347"><ele>750.5</ele><time>2026-04-11T15:16:15.493Z</time></trkpt><trkpt lat="44.1292642" lon="11.4126363"><ele>751.0</ele><time>2026-04-11T15:16:17.492Z</time></trkpt><trkpt lat="44.1293813" lon="11.4126747"><ele>751.0</ele><time>2026-04-11T15:16:19.492Z</time></trkpt><trkpt lat="44.1295177" lon="11.412615"><ele>751.0</ele><time>2026-04-11T15:16:21.492Z</time></trkpt><trkpt lat="44.1295918" lon="11.4125667"><ele>751.0</ele><time>2026-04-11T15:16:22.492Z</time></trkpt><trkpt lat="44.1296743" lon="11.4125205"><ele>751.0</ele><time>2026-04-11T15:16:23.491Z</time></trkpt><trkpt lat="44.1297492" lon="11.4124735"><ele>751.0</ele><time>2026-04-11T15:16:24.491Z</time></trkpt><trkpt lat="44.1298283" lon="11.4124232"><ele>753.4</ele><time>2026-04-11T15:16:25.49Z</time></trkpt><trkpt lat="44.129906" lon="11.412361"><ele>755.8</ele><time>2026-04-11T15:16:26.489Z</time></trkpt><trkpt lat="44.1299822" lon="11.4122963"><ele>758.1999999999999</ele><time>2026-04-11T15:16:27.49Z</time></trkpt><trkpt lat="44.130059" lon="11.4122267"><ele>760.5999999999999</ele><time>2026-04-11T15:16:28.489Z</time></trkpt><trkpt lat="44.1301443" lon="11.412157"><ele>763.0</ele><time>2026-04-11T15:16:29.488Z</time></trkpt><trkpt lat="44.1302347" lon="11.4120887"><ele>754.25</ele><time>2026-04-11T15:16:30.489Z</time></trkpt><trkpt lat="44.1303293" lon="11.412022"><ele>745.5</ele><time>2026-04-11T15:16:31.487Z</time></trkpt><trkpt lat="44.1305457" lon="11.411845"><ele>736.75</ele><time>2026-04-11T15:16:34.488Z</time></trkpt><trkpt lat="44.1305853" lon="11.4117768"><ele>728.0</ele><time>2026-04-11T15:16:35.489Z</time></trkpt><trkpt lat="44.1306013" lon="11.4116882"><ele>728.0</ele><time>2026-04-11T15:16:36.488Z</time></trkpt><trkpt lat="44.1305985" lon="11.4115758"><ele>728.0</ele><time>2026-04-11T15:16:37.488Z</time></trkpt><trkpt lat="44.1305805" lon="11.4114648"><ele>728.0</ele><time>2026-04-11T15:16:38.489Z</time></trkpt><trkpt lat="44.1305658" lon="11.4113595"><ele>728.0</ele><time>2026-04-11T15:16:39.49Z</time></trkpt><trkpt lat="44.1305677" lon="11.4112693"><ele>728.0</ele><time>2026-04-11T15:16:40.491Z</time></trkpt><trkpt lat="44.1306088" lon="11.4111015"><ele>728.0</ele><time>2026-04-11T15:16:42.491Z</time></trkpt><trkpt lat="44.1306438" lon="11.4110182"><ele>726.0</ele><time>2026-04-11T15:16:43.492Z</time></trkpt><trkpt lat="44.1306818" lon="11.4109347"><ele>724.0</ele><time>2026-04-11T15:16:44.492Z</time></trkpt><trkpt lat="44.1307073" lon="11.410842"><ele>722.0</ele><time>2026-04-11T15:16:45.491Z</time></trkpt><trkpt lat="44.130732" lon="11.4107532"><ele>720.0</ele><time>2026-04-11T15:16:46.49Z</time></trkpt><trkpt lat="44.1307543" lon="11.4106663"><ele>718.0</ele><time>2026-04-11T15:16:47.491Z</time></trkpt><trkpt lat="44.1308245" lon="11.4105443"><ele>716.0</ele><time>2026-04-11T15:16:49.49Z</time></trkpt><trkpt lat="44.1309103" lon="11.4104423"><ele>716.0</ele><time>2026-04-11T15:16:51.49Z</time></trkpt><trkpt lat="44.1309863" lon="11.4103062"><ele>716.0</ele><time>2026-04-11T15:16:53.492Z</time></trkpt><trkpt lat="44.1310825" lon="11.4102183"><ele>716.0</ele><time>2026-04-11T15:16:55.491Z</time></trkpt><trkpt lat="44.1311662" lon="11.4101248"><ele>716.0</ele><time>2026-04-11T15:16:57.489Z</time></trkpt><trkpt lat="44.1312233" lon="11.4100027"><ele>716.0</ele><time>2026-04-11T15:16:59.488Z</time></trkpt><trkpt lat="44.1312915" lon="11.4098655"><ele>716.0</ele><time>2026-04-11T15:17:01.489Z</time></trkpt><trkpt lat="44.1313905" lon="11.4097635"><ele>716.0</ele><time>2026-04-11T15:17:03.49Z</time></trkpt><trkpt lat="44.1315978" lon="11.4096442"><ele>715.5</ele><time>2026-04-11T15:17:06.489Z</time></trkpt><trkpt lat="44.1316792" lon="11.4096053"><ele>715.0</ele><time>2026-04-11T15:17:07.489Z</time></trkpt><trkpt lat="44.1317615" lon="11.4095572"><ele>714.5</ele><time>2026-04-11T15:17:08.489Z</time></trkpt><trkpt lat="44.131832" lon="11.4094907"><ele>714.0</ele><time>2026-04-11T15:17:09.489Z</time></trkpt><trkpt lat="44.1319035" lon="11.4094257"><ele>713.5</ele><time>2026-04-11T15:17:10.488Z</time></trkpt><trkpt lat="44.1319747" lon="11.409354"><ele>713.0</ele><time>2026-04-11T15:17:11.489Z</time></trkpt><trkpt lat="44.1320427" lon="11.4093018"><ele>713.0</ele><time>2026-04-11T15:17:12.489Z</time></trkpt><trkpt lat="44.1321118" lon="11.4092535"><ele>713.0</ele><time>2026-04-11T15:17:13.486Z</time></trkpt><trkpt lat="44.1321692" lon="11.4092127"><ele>713.0</ele><time>2026-04-11T15:17:14.488Z</time></trkpt><trkpt lat="44.132296" lon="11.4091728"><ele>713.0</ele><time>2026-04-11T15:17:16.488Z</time></trkpt><trkpt lat="44.132419" lon="11.4091847"><ele>713.0</ele><time>2026-04-11T15:17:18.489Z</time></trkpt><trkpt lat="44.1324818" lon="11.4091668"><ele>714.8</ele><time>2026-04-11T15:17:19.487Z</time></trkpt><trkpt lat="44.132523" lon="11.4090405"><ele>716.5999999999999</ele><time>2026-04-11T15:17:21.486Z</time></trkpt><trkpt lat="44.1324585" lon="11.4088925"><ele>718.4000000000001</ele><time>2026-04-11T15:17:23.486Z</time></trkpt><trkpt lat="44.1323858" lon="11.4088023"><ele>720.2</ele><time>2026-04-11T15:17:24.486Z</time></trkpt><trkpt lat="44.13229" lon="11.4087092"><ele>722.0</ele><time>2026-04-11T15:17:25.488Z</time></trkpt><trkpt lat="44.132198" lon="11.4086377"><ele>722.0</ele><time>2026-04-11T15:17:26.488Z</time></trkpt><trkpt lat="44.1321035" lon="11.4085747"><ele>722.0</ele><time>2026-04-11T15:17:27.488Z</time></trkpt><trkpt lat="44.1320083" lon="11.4085228"><ele>722.0</ele><time>2026-04-11T15:17:28.489Z</time></trkpt><trkpt lat="44.1319147" lon="11.408489"><ele>722.0</ele><time>2026-04-11T15:17:29.491Z</time></trkpt><trkpt lat="44.1318227" lon="11.408464"><ele>722.0</ele><time>2026-04-11T15:17:30.493Z</time></trkpt><trkpt lat="44.1317393" lon="11.4084363"><ele>722.0</ele><time>2026-04-11T15:17:31.489Z</time></trkpt><trkpt lat="44.1316608" lon="11.4083898"><ele>722.0</ele><time>2026-04-11T15:17:32.492Z</time></trkpt><trkpt lat="44.131591" lon="11.408323"><ele>722.0</ele><time>2026-04-11T15:17:33.491Z</time></trkpt><trkpt lat="44.1315267" lon="11.408249"><ele>722.0</ele><time>2026-04-11T15:17:34.49Z</time></trkpt><trkpt lat="44.1314563" lon="11.4081597"><ele>722.0</ele><time>2026-04-11T15:17:35.492Z</time></trkpt><trkpt lat="44.1313748" lon="11.4080953"><ele>722.0</ele><time>2026-04-11T15:17:36.492Z</time></trkpt><trkpt lat="44.1312862" lon="11.4080537"><ele>728.3333333333333</ele><time>2026-04-11T15:17:37.492Z</time></trkpt><trkpt lat="44.1309825" lon="11.4079665"><ele>734.6666666666666</ele><time>2026-04-11T15:17:40.491Z</time></trkpt><trkpt lat="44.1308777" lon="11.407969"><ele>741.0</ele><time>2026-04-11T15:17:41.491Z</time></trkpt><trkpt lat="44.1307772" lon="11.4079508"><ele>735.0</ele><time>2026-04-11T15:17:42.493Z</time></trkpt><trkpt lat="44.1306813" lon="11.4079242"><ele>729.0</ele><time>2026-04-11T15:17:43.491Z</time></trkpt><trkpt lat="44.1305955" lon="11.4079165"><ele>723.0</ele><time>2026-04-11T15:17:44.491Z</time></trkpt><trkpt lat="44.1305185" lon="11.4079237"><ele>717.0</ele><time>2026-04-11T15:17:45.492Z</time></trkpt><trkpt lat="44.1304533" lon="11.4079085"><ele>711.0</ele><time>2026-04-11T15:17:46.49Z</time></trkpt><trkpt lat="44.1303673" lon="11.4077898"><ele>705.0</ele><time>2026-04-11T15:17:48.491Z</time></trkpt><trkpt lat="44.1303435" lon="11.4077038"><ele>705.0</ele><time>2026-04-11T15:17:49.493Z</time></trkpt><trkpt lat="44.1303312" lon="11.4076177"><ele>705.0</ele><time>2026-04-11T15:17:50.495Z</time></trkpt><trkpt lat="44.1303013" lon="11.4074602"><ele>705.0</ele><time>2026-04-11T15:17:52.494Z</time></trkpt><trkpt lat="44.1302192" lon="11.4073193"><ele>705.0</ele><time>2026-04-11T15:17:54.492Z</time></trkpt><trkpt lat="44.1301597" lon="11.4072607"><ele>705.0</ele><time>2026-04-11T15:17:55.491Z</time></trkpt><trkpt lat="44.1300898" lon="11.4072187"><ele>705.0</ele><time>2026-04-11T15:17:56.493Z</time></trkpt><trkpt lat="44.1300157" lon="11.407199"><ele>705.0</ele><time>2026-04-11T15:17:57.493Z</time></trkpt><trkpt lat="44.1299428" lon="11.4071808"><ele>705.0</ele><time>2026-04-11T15:17:58.494Z</time></trkpt><trkpt lat="44.1298758" lon="11.4071575"><ele>705.0</ele><time>2026-04-11T15:17:59.493Z</time></trkpt><trkpt lat="44.1297897" lon="11.4070417"><ele>705.0</ele><time>2026-04-11T15:18:01.492Z</time></trkpt><trkpt lat="44.1297602" lon="11.4069448"><ele>705.0</ele><time>2026-04-11T15:18:02.495Z</time></trkpt><trkpt lat="44.1297278" lon="11.406829"><ele>704.2</ele><time>2026-04-11T15:18:03.493Z</time></trkpt><trkpt lat="44.1296805" lon="11.4067243"><ele>703.4</ele><time>2026-04-11T15:18:04.491Z</time></trkpt><trkpt lat="44.1296143" lon="11.4066278"><ele>702.5999999999999</ele><time>2026-04-11T15:18:05.491Z</time></trkpt><trkpt lat="44.1295365" lon="11.4065475"><ele>701.8</ele><time>2026-04-11T15:18:06.491Z</time></trkpt><trkpt lat="44.1294557" lon="11.406481"><ele>701.0</ele><time>2026-04-11T15:18:07.493Z</time></trkpt><trkpt lat="44.1293888" lon="11.4064272"><ele>701.5</ele><time>2026-04-11T15:18:08.496Z</time></trkpt><trkpt lat="44.1293008" lon="11.4063065"><ele>702.0</ele><time>2026-04-11T15:18:10.49Z</time></trkpt><trkpt lat="44.1291458" lon="11.4061198"><ele>702.5</ele><time>2026-04-11T15:18:13.491Z</time></trkpt><trkpt lat="44.1290788" lon="11.4060615"><ele>703.0</ele><time>2026-04-11T15:18:14.497Z</time></trkpt><trkpt lat="44.1290138" lon="11.4059957"><ele>703.0</ele><time>2026-04-11T15:18:15.495Z</time></trkpt><trkpt lat="44.128953" lon="11.4059185"><ele>703.0</ele><time>2026-04-11T15:18:16.495Z</time></trkpt><trkpt lat="44.1288887" lon="11.4058203"><ele>703.0</ele><time>2026-04-11T15:18:17.496Z</time></trkpt><trkpt lat="44.1288228" lon="11.4057068"><ele>703.0</ele><time>2026-04-11T15:18:18.495Z</time></trkpt><trkpt lat="44.1287632" lon="11.405592"><ele>703.0</ele><time>2026-04-11T15:18:19.493Z</time></trkpt><trkpt lat="44.128713" lon="11.405473"><ele>701.4</ele><time>2026-04-11T15:18:20.494Z</time></trkpt><trkpt lat="44.1286702" lon="11.4053483"><ele>699.8</ele><time>2026-04-11T15:18:21.494Z</time></trkpt><trkpt lat="44.1286342" lon="11.4052225"><ele>698.2</ele><time>2026-04-11T15:18:22.494Z</time></trkpt><trkpt lat="44.1285952" lon="11.4050987"><ele>696.6</ele><time>2026-04-11T15:18:23.495Z</time></trkpt><trkpt lat="44.1285502" lon="11.4049748"><ele>695.0</ele><time>2026-04-11T15:18:24.494Z</time></trkpt><trkpt lat="44.128502" lon="11.4048552"><ele>695.0</ele><time>2026-04-11T15:18:25.493Z</time></trkpt><trkpt lat="44.1284498" lon="11.4047428"><ele>695.0</ele><time>2026-04-11T15:18:26.494Z</time></trkpt><trkpt lat="44.128395" lon="11.4046353"><ele>695.0</ele><time>2026-04-11T15:18:27.496Z</time></trkpt><trkpt lat="44.1283348" lon="11.4045345"><ele>695.0</ele><time>2026-04-11T15:18:28.493Z</time></trkpt><trkpt lat="44.128275" lon="11.4044402"><ele>695.0</ele><time>2026-04-11T15:18:29.494Z</time></trkpt><trkpt lat="44.1282175" lon="11.404343"><ele>692.6666666666666</ele><time>2026-04-11T15:18:30.495Z</time></trkpt><trkpt lat="44.1281592" lon="11.40426"><ele>690.3333333333333</ele><time>2026-04-11T15:18:31.493Z</time></trkpt><trkpt lat="44.1280948" lon="11.4041848"><ele>688.0</ele><time>2026-04-11T15:18:32.495Z</time></trkpt><trkpt lat="44.128023" lon="11.4041018"><ele>685.6666666666666</ele><time>2026-04-11T15:18:33.496Z</time></trkpt><trkpt lat="44.1279525" lon="11.4040185"><ele>683.3333333333334</ele><time>2026-04-11T15:18:34.493Z</time></trkpt><trkpt lat="44.1278835" lon="11.4039467"><ele>681.0</ele><time>2026-04-11T15:18:35.495Z</time></trkpt><trkpt lat="44.12781" lon="11.4039068"><ele>681.0</ele><time>2026-04-11T15:18:36.491Z</time></trkpt><trkpt lat="44.1277292" lon="11.4039022"><ele>681.0</ele><time>2026-04-11T15:18:37.49Z</time></trkpt><trkpt lat="44.1276473" lon="11.403924"><ele>681.0</ele><time>2026-04-11T15:18:38.492Z</time></trkpt><trkpt lat="44.1275535" lon="11.403966"><ele>681.0</ele><time>2026-04-11T15:18:39.496Z</time></trkpt><trkpt lat="44.127451" lon="11.4040335"><ele>681.0</ele><time>2026-04-11T15:18:40.495Z</time></trkpt><trkpt lat="44.1273587" lon="11.4041087"><ele>676.5999999999999</ele><time>2026-04-11T15:18:41.495Z</time></trkpt><trkpt lat="44.1272703" lon="11.4041768"><ele>672.2</ele><time>2026-04-11T15:18:42.493Z</time></trkpt><trkpt lat="44.127186" lon="11.4042337"><ele>667.8</ele><time>2026-04-11T15:18:43.492Z</time></trkpt><trkpt lat="44.1270322" lon="11.4042682"><ele>663.4000000000001</ele><time>2026-04-11T15:18:45.493Z</time></trkpt><trkpt lat="44.1269563" lon="11.4042292"><ele>659.0</ele><time>2026-04-11T15:18:46.493Z</time></trkpt><trkpt lat="44.126884" lon="11.4041587"><ele>659.0</ele><time>2026-04-11T15:18:47.495Z</time></trkpt><trkpt lat="44.1268288" lon="11.4040637"><ele>659.0</ele><time>2026-04-11T15:18:48.496Z</time></trkpt><trkpt lat="44.1267852" lon="11.4039438"><ele>659.0</ele><time>2026-04-11T15:18:49.495Z</time></trkpt><trkpt lat="44.1267437" lon="11.4038073"><ele>659.0</ele><time>2026-04-11T15:18:50.495Z</time></trkpt><trkpt lat="44.1266935" lon="11.4036585"><ele>659.0</ele><time>2026-04-11T15:18:51.494Z</time></trkpt><trkpt lat="44.126643" lon="11.4035275"><ele>659.2</ele><time>2026-04-11T15:18:52.494Z</time></trkpt><trkpt lat="44.12659" lon="11.4034132"><ele>659.4000000000001</ele><time>2026-04-11T15:18:53.493Z</time></trkpt><trkpt lat="44.1265528" lon="11.403308"><ele>659.6</ele><time>2026-04-11T15:18:54.495Z</time></trkpt><trkpt lat="44.1265583" lon="11.4031472"><ele>659.8</ele><time>2026-04-11T15:18:56.494Z</time></trkpt><trkpt lat="44.1266008" lon="11.4030702"><ele>660.0</ele><time>2026-04-11T15:18:57.494Z</time></trkpt><trkpt lat="44.12666" lon="11.4029875"><ele>660.0</ele><time>2026-04-11T15:18:58.494Z</time></trkpt><trkpt lat="44.1267323" lon="11.4029128"><ele>660.0</ele><time>2026-04-11T15:18:59.491Z</time></trkpt><trkpt lat="44.126806" lon="11.4028523"><ele>660.0</ele><time>2026-04-11T15:19:00.491Z</time></trkpt><trkpt lat="44.1268883" lon="11.4028095"><ele>660.0</ele><time>2026-04-11T15:19:01.49Z</time></trkpt><trkpt lat="44.1269787" lon="11.402775"><ele>660.0</ele><time>2026-04-11T15:19:02.492Z</time></trkpt><trkpt lat="44.127078" lon="11.402727"><ele>660.0</ele><time>2026-04-11T15:19:03.492Z</time></trkpt><trkpt lat="44.1271802" lon="11.40268"><ele>660.0</ele><time>2026-04-11T15:19:04.492Z</time></trkpt><trkpt lat="44.1272855" lon="11.4026438"><ele>660.0</ele><time>2026-04-11T15:19:05.493Z</time></trkpt><trkpt lat="44.1273872" lon="11.402624"><ele>660.0</ele><time>2026-04-11T15:19:06.491Z</time></trkpt><trkpt lat="44.1274763" lon="11.4026118"><ele>660.0</ele><time>2026-04-11T15:19:07.491Z</time></trkpt><trkpt lat="44.1275547" lon="11.4025918"><ele>659.0</ele><time>2026-04-11T15:19:08.491Z</time></trkpt><trkpt lat="44.1276248" lon="11.4025398"><ele>658.0</ele><time>2026-04-11T15:19:09.492Z</time></trkpt><trkpt lat="44.1276862" lon="11.402441"><ele>657.0</ele><time>2026-04-11T15:19:10.492Z</time></trkpt><trkpt lat="44.1277507" lon="11.4023092"><ele>656.0</ele><time>2026-04-11T15:19:11.493Z</time></trkpt><trkpt lat="44.1278258" lon="11.4021673"><ele>655.0</ele><time>2026-04-11T15:19:12.493Z</time></trkpt><trkpt lat="44.1279068" lon="11.402029"><ele>652.25</ele><time>2026-04-11T15:19:13.491Z</time></trkpt><trkpt lat="44.1279785" lon="11.4019003"><ele>649.5</ele><time>2026-04-11T15:19:14.492Z</time></trkpt><trkpt lat="44.1280355" lon="11.4017727"><ele>646.75</ele><time>2026-04-11T15:19:15.491Z</time></trkpt><trkpt lat="44.1280893" lon="11.401651"><ele>644.0</ele><time>2026-04-11T15:19:16.492Z</time></trkpt><trkpt lat="44.1282768" lon="11.4014402"><ele>643.8000000000001</ele><time>2026-04-11T15:19:19.492Z</time></trkpt><trkpt lat="44.1283543" lon="11.4014328"><ele>643.6</ele><time>2026-04-11T15:19:20.495Z</time></trkpt><trkpt lat="44.1284342" lon="11.4014548"><ele>643.4</ele><time>2026-04-11T15:19:21.494Z</time></trkpt><trkpt lat="44.128513" lon="11.4015127"><ele>643.2</ele><time>2026-04-11T15:19:22.493Z</time></trkpt><trkpt lat="44.1285947" lon="11.4015977"><ele>643.0</ele><time>2026-04-11T15:19:23.493Z</time></trkpt><trkpt lat="44.128671" lon="11.4016948"><ele>643.0</ele><time>2026-04-11T15:19:24.491Z</time></trkpt><trkpt lat="44.12874" lon="11.401792"><ele>643.0</ele><time>2026-04-11T15:19:25.491Z</time></trkpt><trkpt lat="44.1288112" lon="11.4018865"><ele>643.0</ele><time>2026-04-11T15:19:26.491Z</time></trkpt><trkpt lat="44.1288882" lon="11.401972"><ele>643.0</ele><time>2026-04-11T15:19:27.491Z</time></trkpt><trkpt lat="44.1289618" lon="11.4020555"><ele>643.0</ele><time>2026-04-11T15:19:28.491Z</time></trkpt><trkpt lat="44.129035" lon="11.4021308"><ele>642.4</ele><time>2026-04-11T15:19:29.493Z</time></trkpt><trkpt lat="44.1291023" lon="11.402194"><ele>641.8</ele><time>2026-04-11T15:19:30.492Z</time></trkpt><trkpt lat="44.1292072" lon="11.4022538"><ele>641.2</ele><time>2026-04-11T15:19:32.491Z</time></trkpt><trkpt lat="44.1292635" lon="11.4021952"><ele>640.6</ele><time>2026-04-11T15:19:34.491Z</time></trkpt><trkpt lat="44.1292203" lon="11.4020105"><ele>640.0</ele><time>2026-04-11T15:19:36.49Z</time></trkpt><trkpt lat="44.1291897" lon="11.4018862"><ele>638.4</ele><time>2026-04-11T15:19:37.489Z</time></trkpt><trkpt lat="44.1291795" lon="11.4017445"><ele>636.8</ele><time>2026-04-11T15:19:38.489Z</time></trkpt><trkpt lat="44.12919" lon="11.4015983"><ele>635.2</ele><time>2026-04-11T15:19:39.49Z</time></trkpt><trkpt lat="44.1292172" lon="11.4014582"><ele>633.6</ele><time>2026-04-11T15:19:40.489Z</time></trkpt><trkpt lat="44.1292383" lon="11.4013232"><ele>632.0</ele><time>2026-04-11T15:19:41.489Z</time></trkpt><trkpt lat="44.1292355" lon="11.4012053"><ele>630.5</ele><time>2026-04-11T15:19:42.489Z</time></trkpt><trkpt lat="44.1292087" lon="11.4011212"><ele>629.0</ele><time>2026-04-11T15:19:43.489Z</time></trkpt><trkpt lat="44.1291662" lon="11.4010382"><ele>627.5</ele><time>2026-04-11T15:19:44.488Z</time></trkpt><trkpt lat="44.1291438" lon="11.4009465"><ele>626.0</ele><time>2026-04-11T15:19:45.489Z</time></trkpt><trkpt lat="44.1291438" lon="11.4008373"><ele>624.5</ele><time>2026-04-11T15:19:46.489Z</time></trkpt><trkpt lat="44.1291568" lon="11.4007265"><ele>623.0</ele><time>2026-04-11T15:19:47.49Z</time></trkpt><trkpt lat="44.1291692" lon="11.4006128"><ele>623.0</ele><time>2026-04-11T15:19:48.487Z</time></trkpt><trkpt lat="44.1291725" lon="11.400501"><ele>623.0</ele><time>2026-04-11T15:19:49.488Z</time></trkpt><trkpt lat="44.1291127" lon="11.4002888"><ele>623.0</ele><time>2026-04-11T15:19:51.49Z</time></trkpt><trkpt lat="44.1290605" lon="11.4001952"><ele>623.0</ele><time>2026-04-11T15:19:52.491Z</time></trkpt><trkpt lat="44.129025" lon="11.4001047"><ele>623.0</ele><time>2026-04-11T15:19:53.492Z</time></trkpt><trkpt lat="44.1290155" lon="11.4000138"><ele>621.5</ele><time>2026-04-11T15:19:54.493Z</time></trkpt><trkpt lat="44.1290283" lon="11.3999187"><ele>620.0</ele><time>2026-04-11T15:19:55.491Z</time></trkpt><trkpt lat="44.1290545" lon="11.3998295"><ele>618.5</ele><time>2026-04-11T15:19:56.492Z</time></trkpt><trkpt lat="44.1291008" lon="11.399758"><ele>617.0</ele><time>2026-04-11T15:19:57.492Z</time></trkpt><trkpt lat="44.129163" lon="11.3997113"><ele>615.5</ele><time>2026-04-11T15:19:58.491Z</time></trkpt><trkpt lat="44.129221" lon="11.3996623"><ele>614.0</ele><time>2026-04-11T15:19:59.491Z</time></trkpt><trkpt lat="44.1292538" lon="11.399523"><ele>612.4</ele><time>2026-04-11T15:20:01.492Z</time></trkpt><trkpt lat="44.1291862" lon="11.3993613"><ele>610.8</ele><time>2026-04-11T15:20:03.492Z</time></trkpt><trkpt lat="44.1291155" lon="11.3992763"><ele>609.2</ele><time>2026-04-11T15:20:04.491Z</time></trkpt><trkpt lat="44.1290272" lon="11.3991762"><ele>607.6</ele><time>2026-04-11T15:20:05.492Z</time></trkpt><trkpt lat="44.1289427" lon="11.3990832"><ele>606.0</ele><time>2026-04-11T15:20:06.494Z</time></trkpt><trkpt lat="44.1288755" lon="11.3989973"><ele>602.8</ele><time>2026-04-11T15:20:07.491Z</time></trkpt><trkpt lat="44.1288375" lon="11.3989063"><ele>599.6</ele><time>2026-04-11T15:20:08.493Z</time></trkpt><trkpt lat="44.1288182" lon="11.3987993"><ele>596.4</ele><time>2026-04-11T15:20:09.492Z</time></trkpt><trkpt lat="44.1288017" lon="11.3986722"><ele>593.2</ele><time>2026-04-11T15:20:10.491Z</time></trkpt><trkpt lat="44.1287843" lon="11.398531"><ele>590.0</ele><time>2026-04-11T15:20:11.492Z</time></trkpt><trkpt lat="44.128768" lon="11.398384"><ele>590.0</ele><time>2026-04-11T15:20:12.491Z</time></trkpt><trkpt lat="44.1287428" lon="11.3982243"><ele>590.0</ele><time>2026-04-11T15:20:13.491Z</time></trkpt><trkpt lat="44.1287118" lon="11.3980483"><ele>590.0</ele><time>2026-04-11T15:20:14.49Z</time></trkpt><trkpt lat="44.1286868" lon="11.3978805"><ele>590.0</ele><time>2026-04-11T15:20:15.491Z</time></trkpt><trkpt lat="44.1286547" lon="11.3977278"><ele>591.75</ele><time>2026-04-11T15:20:16.495Z</time></trkpt><trkpt lat="44.1286087" lon="11.3975788"><ele>593.5</ele><time>2026-04-11T15:20:17.493Z</time></trkpt><trkpt lat="44.1285533" lon="11.3974347"><ele>595.25</ele><time>2026-04-11T15:20:18.494Z</time></trkpt><trkpt lat="44.1284878" lon="11.3972952"><ele>597.0</ele><time>2026-04-11T15:20:19.493Z</time></trkpt><trkpt lat="44.128408" lon="11.3971765"><ele>595.0</ele><time>2026-04-11T15:20:20.494Z</time></trkpt><trkpt lat="44.1283275" lon="11.3970788"><ele>593.0</ele><time>2026-04-11T15:20:21.495Z</time></trkpt><trkpt lat="44.1282565" lon="11.3969832"><ele>591.0</ele><time>2026-04-11T15:20:22.493Z</time></trkpt><trkpt lat="44.1281122" lon="11.3965548"><ele>591.0</ele><time>2026-04-11T15:20:25.494Z</time></trkpt><trkpt lat="44.1280758" lon="11.3963977"><ele>591.0</ele><time>2026-04-11T15:20:26.493Z</time></trkpt><trkpt lat="44.1280528" lon="11.3962382"><ele>591.0</ele><time>2026-04-11T15:20:27.494Z</time></trkpt><trkpt lat="44.1280377" lon="11.3960688"><ele>591.0</ele><time>2026-04-11T15:20:28.493Z</time></trkpt><trkpt lat="44.1280173" lon="11.3959045"><ele>593.5</ele><time>2026-04-11T15:20:29.495Z</time></trkpt><trkpt lat="44.1279895" lon="11.3957605"><ele>596.0</ele><time>2026-04-11T15:20:30.496Z</time></trkpt><trkpt lat="44.127961" lon="11.3956363"><ele>598.5</ele><time>2026-04-11T15:20:31.493Z</time></trkpt><trkpt lat="44.1279375" lon="11.3955383"><ele>601.0</ele><time>2026-04-11T15:20:32.496Z</time></trkpt><trkpt lat="44.1279092" lon="11.3954162"><ele>603.5</ele><time>2026-04-11T15:20:34.496Z</time></trkpt><trkpt lat="44.1278757" lon="11.3953367"><ele>606.0</ele><time>2026-04-11T15:20:39.492Z</time></trkpt><trkpt lat="44.1277695" lon="11.3952302"><ele>606.6</ele><time>2026-04-11T15:20:41.497Z</time></trkpt><trkpt lat="44.127694" lon="11.3951653"><ele>607.2</ele><time>2026-04-11T15:20:42.497Z</time></trkpt><trkpt lat="44.1276157" lon="11.3950973"><ele>607.8</ele><time>2026-04-11T15:20:43.496Z</time></trkpt><trkpt lat="44.1275338" lon="11.3950288"><ele>608.4</ele><time>2026-04-11T15:20:44.497Z</time></trkpt><trkpt lat="44.127449" lon="11.3949625"><ele>609.0</ele><time>2026-04-11T15:20:45.494Z</time></trkpt><trkpt lat="44.1273623" lon="11.3949025"><ele>607.8</ele><time>2026-04-11T15:20:46.495Z</time></trkpt><trkpt lat="44.1272732" lon="11.3948407"><ele>606.5999999999999</ele><time>2026-04-11T15:20:47.495Z</time></trkpt><trkpt lat="44.12718" lon="11.3947693"><ele>605.4</ele><time>2026-04-11T15:20:48.495Z</time></trkpt><trkpt lat="44.1270875" lon="11.3946825"><ele>604.1999999999999</ele><time>2026-04-11T15:20:49.497Z</time></trkpt><trkpt lat="44.126998" lon="11.3945772"><ele>603.0</ele><time>2026-04-11T15:20:50.498Z</time></trkpt><trkpt lat="44.126916" lon="11.3944538"><ele>601.75</ele><time>2026-04-11T15:20:51.497Z</time></trkpt><trkpt lat="44.1268437" lon="11.3943205"><ele>600.5</ele><time>2026-04-11T15:20:52.496Z</time></trkpt><trkpt lat="44.1267777" lon="11.394187"><ele>599.25</ele><time>2026-04-11T15:20:53.497Z</time></trkpt><trkpt lat="44.126716" lon="11.3940543"><ele>598.0</ele><time>2026-04-11T15:20:54.498Z</time></trkpt><trkpt lat="44.1266477" lon="11.3939227"><ele>591.0</ele><time>2026-04-11T15:20:55.496Z</time></trkpt><trkpt lat="44.1263877" lon="11.39353"><ele>584.0</ele><time>2026-04-11T15:20:58.494Z</time></trkpt><trkpt lat="44.1263008" lon="11.3934025"><ele>584.0</ele><time>2026-04-11T15:20:59.496Z</time></trkpt><trkpt lat="44.1262175" lon="11.393275"><ele>584.0</ele><time>2026-04-11T15:21:00.496Z</time></trkpt><trkpt lat="44.1261448" lon="11.3931445"><ele>584.0</ele><time>2026-04-11T15:21:01.496Z</time></trkpt><trkpt lat="44.1260795" lon="11.3930048"><ele>584.0</ele><time>2026-04-11T15:21:02.496Z</time></trkpt><trkpt lat="44.1260182" lon="11.3928587"><ele>584.2</ele><time>2026-04-11T15:21:03.495Z</time></trkpt><trkpt lat="44.1259612" lon="11.3927138"><ele>584.4</ele><time>2026-04-11T15:21:04.496Z</time></trkpt><trkpt lat="44.1259138" lon="11.3925683"><ele>584.6</ele><time>2026-04-11T15:21:05.494Z</time></trkpt><trkpt lat="44.1258868" lon="11.3924297"><ele>584.8</ele><time>2026-04-11T15:21:06.495Z</time></trkpt><trkpt lat="44.125891" lon="11.3923025"><ele>585.0</ele><time>2026-04-11T15:21:07.495Z</time></trkpt><trkpt lat="44.1259268" lon="11.3921863"><ele>584.0</ele><time>2026-04-11T15:21:08.497Z</time></trkpt><trkpt lat="44.1259807" lon="11.3920832"><ele>583.0</ele><time>2026-04-11T15:21:09.496Z</time></trkpt><trkpt lat="44.1260427" lon="11.3919872"><ele>582.0</ele><time>2026-04-11T15:21:10.495Z</time></trkpt><trkpt lat="44.1260992" lon="11.3918885"><ele>581.0</ele><time>2026-04-11T15:21:11.495Z</time></trkpt><trkpt lat="44.1261307" lon="11.3917845"><ele>580.0</ele><time>2026-04-11T15:21:12.498Z</time></trkpt><trkpt lat="44.1261268" lon="11.3916862"><ele>579.0</ele><time>2026-04-11T15:21:13.495Z</time></trkpt><trkpt lat="44.1260882" lon="11.3916023"><ele>579.0</ele><time>2026-04-11T15:21:14.496Z</time></trkpt><trkpt lat="44.1260207" lon="11.3915288"><ele>579.0</ele><time>2026-04-11T15:21:15.494Z</time></trkpt><trkpt lat="44.125924" lon="11.3914542"><ele>579.0</ele><time>2026-04-11T15:21:16.494Z</time></trkpt><trkpt lat="44.1258153" lon="11.3913725"><ele>579.0</ele><time>2026-04-11T15:21:17.497Z</time></trkpt><trkpt lat="44.1257068" lon="11.3912848"><ele>579.0</ele><time>2026-04-11T15:21:18.496Z</time></trkpt><trkpt lat="44.1256067" lon="11.391185"><ele>575.0</ele><time>2026-04-11T15:21:19.495Z</time></trkpt><trkpt lat="44.1255333" lon="11.3910632"><ele>571.0</ele><time>2026-04-11T15:21:20.496Z</time></trkpt><trkpt lat="44.1254785" lon="11.3909285"><ele>567.0</ele><time>2026-04-11T15:21:21.497Z</time></trkpt><trkpt lat="44.1254187" lon="11.390803"><ele>563.0</ele><time>2026-04-11T15:21:22.499Z</time></trkpt><trkpt lat="44.1253453" lon="11.3907048"><ele>559.0</ele><time>2026-04-11T15:21:23.497Z</time></trkpt><trkpt lat="44.125272" lon="11.3906455"><ele>559.0</ele><time>2026-04-11T15:21:24.496Z</time></trkpt><trkpt lat="44.125183" lon="11.390536"><ele>559.0</ele><time>2026-04-11T15:21:26.493Z</time></trkpt><trkpt lat="44.1251477" lon="11.3904623"><ele>559.0</ele><time>2026-04-11T15:21:27.494Z</time></trkpt><trkpt lat="44.1251073" lon="11.3903838"><ele>559.0</ele><time>2026-04-11T15:21:28.493Z</time></trkpt><trkpt lat="44.1249877" lon="11.390132"><ele>558.3333333333334</ele><time>2026-04-11T15:21:31.495Z</time></trkpt><trkpt lat="44.12494" lon="11.3900633"><ele>557.6666666666667</ele><time>2026-04-11T15:21:32.498Z</time></trkpt><trkpt lat="44.124885" lon="11.3899937"><ele>557.0</ele><time>2026-04-11T15:21:33.499Z</time></trkpt><trkpt lat="44.1248245" lon="11.3899182"><ele>556.3333333333334</ele><time>2026-04-11T15:21:34.497Z</time></trkpt><trkpt lat="44.124766" lon="11.3898318"><ele>555.6666666666666</ele><time>2026-04-11T15:21:35.497Z</time></trkpt><trkpt lat="44.1247118" lon="11.38973"><ele>555.0</ele><time>2026-04-11T15:21:36.498Z</time></trkpt><trkpt lat="44.1246707" lon="11.3896255"><ele>553.2857142857143</ele><time>2026-04-11T15:21:37.494Z</time></trkpt><trkpt lat="44.1246345" lon="11.389517"><ele>551.5714285714286</ele><time>2026-04-11T15:21:38.497Z</time></trkpt><trkpt lat="44.1246042" lon="11.3894155"><ele>549.8571428571429</ele><time>2026-04-11T15:21:39.494Z</time></trkpt><trkpt lat="44.1245788" lon="11.3893208"><ele>548.1428571428571</ele><time>2026-04-11T15:21:40.496Z</time></trkpt><trkpt lat="44.1245568" lon="11.3892308"><ele>546.4285714285714</ele><time>2026-04-11T15:21:41.496Z</time></trkpt><trkpt lat="44.1245388" lon="11.3891393"><ele>544.7142857142858</ele><time>2026-04-11T15:21:42.496Z</time></trkpt><trkpt lat="44.1245155" lon="11.3890513"><ele>543.0</ele><time>2026-04-11T15:21:43.496Z</time></trkpt><trkpt lat="44.124481" lon="11.388963"><ele>543.0</ele><time>2026-04-11T15:21:44.497Z</time></trkpt><trkpt lat="44.124442" lon="11.3888783"><ele>543.0</ele><time>2026-04-11T15:21:45.497Z</time></trkpt><trkpt lat="44.124398" lon="11.388788"><ele>543.0</ele><time>2026-04-11T15:21:46.495Z</time></trkpt><trkpt lat="44.124351" lon="11.3886965"><ele>543.0</ele><time>2026-04-11T15:21:47.495Z</time></trkpt><trkpt lat="44.1243053" lon="11.3886043"><ele>543.0</ele><time>2026-04-11T15:21:48.495Z</time></trkpt><trkpt lat="44.1242515" lon="11.3885188"><ele>543.0</ele><time>2026-04-11T15:21:49.495Z</time></trkpt><trkpt lat="44.1241912" lon="11.3884262"><ele>543.0</ele><time>2026-04-11T15:21:50.494Z</time></trkpt><trkpt lat="44.1241215" lon="11.3883405"><ele>543.0</ele><time>2026-04-11T15:21:51.492Z</time></trkpt><trkpt lat="44.1240643" lon="11.3882553"><ele>543.0</ele><time>2026-04-11T15:21:52.493Z</time></trkpt><trkpt lat="44.1240188" lon="11.3881713"><ele>543.0</ele><time>2026-04-11T15:21:53.494Z</time></trkpt><trkpt lat="44.1239707" lon="11.3880853"><ele>543.0</ele><time>2026-04-11T15:21:54.496Z</time></trkpt><trkpt lat="44.1239257" lon="11.3879913"><ele>543.0</ele><time>2026-04-11T15:21:55.497Z</time></trkpt><trkpt lat="44.1238803" lon="11.3879007"><ele>539.0</ele><time>2026-04-11T15:21:56.497Z</time></trkpt><trkpt lat="44.1238318" lon="11.3878125"><ele>535.0</ele><time>2026-04-11T15:21:57.497Z</time></trkpt><trkpt lat="44.1237888" lon="11.3877253"><ele>531.0</ele><time>2026-04-11T15:21:58.494Z</time></trkpt><trkpt lat="44.1237558" lon="11.3876322"><ele>527.0</ele><time>2026-04-11T15:21:59.493Z</time></trkpt><trkpt lat="44.1237293" lon="11.3875378"><ele>523.0</ele><time>2026-04-11T15:22:00.494Z</time></trkpt><trkpt lat="44.1236953" lon="11.3874572"><ele>519.0</ele><time>2026-04-11T15:22:01.494Z</time></trkpt><trkpt lat="44.1236225" lon="11.3871967"><ele>517.8333333333334</ele><time>2026-04-11T15:22:04.494Z</time></trkpt><trkpt lat="44.1236305" lon="11.3870975"><ele>516.6666666666666</ele><time>2026-04-11T15:22:05.496Z</time></trkpt><trkpt lat="44.1236573" lon="11.3870077"><ele>515.5</ele><time>2026-04-11T15:22:06.496Z</time></trkpt><trkpt lat="44.1236933" lon="11.3869273"><ele>514.3333333333333</ele><time>2026-04-11T15:22:07.495Z</time></trkpt><trkpt lat="44.1237107" lon="11.3867542"><ele>513.1666666666666</ele><time>2026-04-11T15:22:09.494Z</time></trkpt><trkpt lat="44.1236995" lon="11.3866478"><ele>512.0</ele><time>2026-04-11T15:22:10.495Z</time></trkpt><trkpt lat="44.12368" lon="11.3865313"><ele>511.99999999999994</ele><time>2026-04-11T15:22:11.493Z</time></trkpt><trkpt lat="44.1236582" lon="11.3864082"><ele>512.0</ele><time>2026-04-11T15:22:12.494Z</time></trkpt><trkpt lat="44.123644" lon="11.3862932"><ele>512.0</ele><time>2026-04-11T15:22:13.494Z</time></trkpt><trkpt lat="44.1236222" lon="11.3861737"><ele>512.0</ele><time>2026-04-11T15:22:14.495Z</time></trkpt><trkpt lat="44.1235893" lon="11.3860547"><ele>511.99999999999994</ele><time>2026-04-11T15:22:15.495Z</time></trkpt><trkpt lat="44.1235555" lon="11.3859362"><ele>512.0</ele><time>2026-04-11T15:22:16.495Z</time></trkpt><trkpt lat="44.1235212" lon="11.3858157"><ele>510.0</ele><time>2026-04-11T15:22:17.493Z</time></trkpt><trkpt lat="44.1234898" lon="11.3856915"><ele>508.00000000000006</ele><time>2026-04-11T15:22:18.493Z</time></trkpt><trkpt lat="44.1234632" lon="11.385572"><ele>506.00000000000006</ele><time>2026-04-11T15:22:19.495Z</time></trkpt><trkpt lat="44.1234273" lon="11.3854558"><ele>504.0</ele><time>2026-04-11T15:22:20.497Z</time></trkpt><trkpt lat="44.1233778" lon="11.3853423"><ele>502.0</ele><time>2026-04-11T15:22:21.495Z</time></trkpt><trkpt lat="44.1233218" lon="11.3852335"><ele>500.6666666666667</ele><time>2026-04-11T15:22:22.496Z</time></trkpt><trkpt lat="44.123264" lon="11.3851248"><ele>499.33333333333337</ele><time>2026-04-11T15:22:23.496Z</time></trkpt><trkpt lat="44.1232197" lon="11.3850232"><ele>498.0</ele><time>2026-04-11T15:22:24.495Z</time></trkpt><trkpt lat="44.1231898" lon="11.3849233"><ele>496.66666666666663</ele><time>2026-04-11T15:22:25.495Z</time></trkpt><trkpt lat="44.1231628" lon="11.3848057"><ele>495.3333333333333</ele><time>2026-04-11T15:22:26.498Z</time></trkpt><trkpt lat="44.1231387" lon="11.384683"><ele>494.0</ele><time>2026-04-11T15:22:27.499Z</time></trkpt><trkpt lat="44.1231162" lon="11.3845567"><ele>490.99999999999994</ele><time>2026-04-11T15:22:28.497Z</time></trkpt><trkpt lat="44.1231" lon="11.3844398"><ele>488.0</ele><time>2026-04-11T15:22:29.497Z</time></trkpt><trkpt lat="44.1230915" lon="11.3843327"><ele>485.0</ele><time>2026-04-11T15:22:30.498Z</time></trkpt><trkpt lat="44.1230942" lon="11.3842267"><ele>482.0</ele><time>2026-04-11T15:22:31.497Z</time></trkpt><trkpt lat="44.1230913" lon="11.3841187"><ele>478.99999999999994</ele><time>2026-04-11T15:22:32.496Z</time></trkpt><trkpt lat="44.1230787" lon="11.3840075"><ele>476.0</ele><time>2026-04-11T15:22:33.496Z</time></trkpt><trkpt lat="44.1229813" lon="11.3836842"><ele>475.0</ele><time>2026-04-11T15:22:36.497Z</time></trkpt><trkpt lat="44.1229273" lon="11.383598"><ele>474.0</ele><time>2026-04-11T15:22:37.497Z</time></trkpt><trkpt lat="44.1228562" lon="11.3835182"><ele>473.0</ele><time>2026-04-11T15:22:38.497Z</time></trkpt><trkpt lat="44.1227827" lon="11.383435"><ele>472.0</ele><time>2026-04-11T15:22:39.495Z</time></trkpt><trkpt lat="44.122703" lon="11.3833465"><ele>471.0</ele><time>2026-04-11T15:22:40.493Z</time></trkpt><trkpt lat="44.1226198" lon="11.3832537"><ele>471.0</ele><time>2026-04-11T15:22:41.493Z</time></trkpt><trkpt lat="44.1225318" lon="11.3831545"><ele>471.0</ele><time>2026-04-11T15:22:42.493Z</time></trkpt><trkpt lat="44.1224472" lon="11.3830457"><ele>471.0</ele><time>2026-04-11T15:22:43.496Z</time></trkpt><trkpt lat="44.1223665" lon="11.3829272"><ele>471.0</ele><time>2026-04-11T15:22:44.495Z</time></trkpt><trkpt lat="44.122281" lon="11.3828085"><ele>467.25</ele><time>2026-04-11T15:22:45.496Z</time></trkpt><trkpt lat="44.1221967" lon="11.3826865"><ele>463.5</ele><time>2026-04-11T15:22:46.495Z</time></trkpt><trkpt lat="44.1221118" lon="11.382559"><ele>459.75</ele><time>2026-04-11T15:22:47.497Z</time></trkpt><trkpt lat="44.1220277" lon="11.3824285"><ele>456.0</ele><time>2026-04-11T15:22:48.499Z</time></trkpt><trkpt lat="44.1219465" lon="11.3822965"><ele>454.6666666666667</ele><time>2026-04-11T15:22:49.498Z</time></trkpt><trkpt lat="44.1218733" lon="11.3821815"><ele>453.33333333333337</ele><time>2026-04-11T15:22:50.498Z</time></trkpt><trkpt lat="44.1218097" lon="11.3821102"><ele>452.0</ele><time>2026-04-11T15:22:51.497Z</time></trkpt><trkpt lat="44.1217418" lon="11.3820748"><ele>450.6666666666667</ele><time>2026-04-11T15:22:52.495Z</time></trkpt><trkpt lat="44.1216717" lon="11.382054"><ele>449.33333333333337</ele><time>2026-04-11T15:22:53.495Z</time></trkpt><trkpt lat="44.1216007" lon="11.3820258"><ele>448.0</ele><time>2026-04-11T15:22:54.499Z</time></trkpt><trkpt lat="44.1215348" lon="11.381987"><ele>446.50000000000006</ele><time>2026-04-11T15:22:55.495Z</time></trkpt><trkpt lat="44.1214638" lon="11.3819683"><ele>445.0</ele><time>2026-04-11T15:22:56.497Z</time></trkpt><trkpt lat="44.1213933" lon="11.3819913"><ele>443.5</ele><time>2026-04-11T15:22:57.496Z</time></trkpt><trkpt lat="44.121331" lon="11.3820475"><ele>442.0</ele><time>2026-04-11T15:22:58.495Z</time></trkpt><trkpt lat="44.1212877" lon="11.3821372"><ele>440.50000000000006</ele><time>2026-04-11T15:22:59.497Z</time></trkpt><trkpt lat="44.1212677" lon="11.382252"><ele>439.0</ele><time>2026-04-11T15:23:00.496Z</time></trkpt><trkpt lat="44.1212592" lon="11.3823858"><ele>439.0</ele><time>2026-04-11T15:23:01.496Z</time></trkpt><trkpt lat="44.1212415" lon="11.3825283"><ele>439.0</ele><time>2026-04-11T15:23:02.496Z</time></trkpt><trkpt lat="44.1212075" lon="11.3826675"><ele>439.0</ele><time>2026-04-11T15:23:03.495Z</time></trkpt><trkpt lat="44.1211592" lon="11.382805"><ele>439.0</ele><time>2026-04-11T15:23:04.494Z</time></trkpt><trkpt lat="44.1211023" lon="11.3829378"><ele>439.0</ele><time>2026-04-11T15:23:05.492Z</time></trkpt><trkpt lat="44.1210453" lon="11.3830627"><ele>440.25</ele><time>2026-04-11T15:23:06.493Z</time></trkpt><trkpt lat="44.120935" lon="11.3832903"><ele>441.5</ele><time>2026-04-11T15:23:08.496Z</time></trkpt><trkpt lat="44.1208757" lon="11.3833905"><ele>442.75</ele><time>2026-04-11T15:23:09.496Z</time></trkpt><trkpt lat="44.1208167" lon="11.3834845"><ele>444.0</ele><time>2026-04-11T15:23:10.499Z</time></trkpt><trkpt lat="44.1207533" lon="11.3835675"><ele>441.8333333333333</ele><time>2026-04-11T15:23:11.497Z</time></trkpt><trkpt lat="44.1206777" lon="11.383615"><ele>439.66666666666663</ele><time>2026-04-11T15:23:12.496Z</time></trkpt><trkpt lat="44.1205985" lon="11.383615"><ele>437.5</ele><time>2026-04-11T15:23:13.496Z</time></trkpt><trkpt lat="44.1205255" lon="11.3835682"><ele>435.3333333333333</ele><time>2026-04-11T15:23:14.496Z</time></trkpt><trkpt lat="44.1204692" lon="11.3834822"><ele>433.16666666666663</ele><time>2026-04-11T15:23:15.496Z</time></trkpt><trkpt lat="44.1204417" lon="11.3833693"><ele>431.0</ele><time>2026-04-11T15:23:16.496Z</time></trkpt><trkpt lat="44.1204497" lon="11.3832555"><ele>431.0</ele><time>2026-04-11T15:23:17.497Z</time></trkpt><trkpt lat="44.1204903" lon="11.3831512"><ele>431.0</ele><time>2026-04-11T15:23:18.5Z</time></trkpt><trkpt lat="44.1205513" lon="11.3830465"><ele>431.0</ele><time>2026-04-11T15:23:19.495Z</time></trkpt><trkpt lat="44.120605" lon="11.382926"><ele>431.0</ele><time>2026-04-11T15:23:20.496Z</time></trkpt><trkpt lat="44.120643" lon="11.3827887"><ele>431.0</ele><time>2026-04-11T15:23:21.496Z</time></trkpt><trkpt lat="44.1206735" lon="11.3826397"><ele>430.6</ele><time>2026-04-11T15:23:22.496Z</time></trkpt><trkpt lat="44.1206955" lon="11.3824883"><ele>430.20000000000005</ele><time>2026-04-11T15:23:23.497Z</time></trkpt><trkpt lat="44.1207027" lon="11.382335"><ele>429.79999999999995</ele><time>2026-04-11T15:23:24.498Z</time></trkpt><trkpt lat="44.1206887" lon="11.3821792"><ele>429.4</ele><time>2026-04-11T15:23:25.496Z</time></trkpt><trkpt lat="44.1206572" lon="11.3820263"><ele>429.0</ele><time>2026-04-11T15:23:26.497Z</time></trkpt><trkpt lat="44.1206177" lon="11.3818842"><ele>428.4</ele><time>2026-04-11T15:23:27.497Z</time></trkpt><trkpt lat="44.1205792" lon="11.3817493"><ele>427.79999999999995</ele><time>2026-04-11T15:23:28.499Z</time></trkpt><trkpt lat="44.1205525" lon="11.3816185"><ele>427.20000000000005</ele><time>2026-04-11T15:23:29.494Z</time></trkpt><trkpt lat="44.1205565" lon="11.3814933"><ele>426.6</ele><time>2026-04-11T15:23:30.495Z</time></trkpt><trkpt lat="44.1205938" lon="11.3813725"><ele>426.0</ele><time>2026-04-11T15:23:31.493Z</time></trkpt><trkpt lat="44.1206565" lon="11.3812595"><ele>426.0</ele><time>2026-04-11T15:23:32.496Z</time></trkpt><trkpt lat="44.120729" lon="11.381148"><ele>426.0</ele><time>2026-04-11T15:23:33.496Z</time></trkpt><trkpt lat="44.1207877" lon="11.3810338"><ele>426.0</ele><time>2026-04-11T15:23:34.497Z</time></trkpt><trkpt lat="44.1208195" lon="11.38091"><ele>426.0</ele><time>2026-04-11T15:23:35.496Z</time></trkpt><trkpt lat="44.1208212" lon="11.380788"><ele>426.0</ele><time>2026-04-11T15:23:36.495Z</time></trkpt><trkpt lat="44.1208032" lon="11.38068"><ele>426.0</ele><time>2026-04-11T15:23:37.496Z</time></trkpt><trkpt lat="44.1207783" lon="11.3805938"><ele>426.0</ele><time>2026-04-11T15:23:38.498Z</time></trkpt><trkpt lat="44.120751" lon="11.3805087"><ele>426.0</ele><time>2026-04-11T15:23:39.497Z</time></trkpt><trkpt lat="44.120613" lon="11.3801988"><ele>426.0</ele><time>2026-04-11T15:23:42.502Z</time></trkpt><trkpt lat="44.120564" lon="11.3800968"><ele>426.0</ele><time>2026-04-11T15:23:43.498Z</time></trkpt><trkpt lat="44.1205168" lon="11.3799933"><ele>426.0</ele><time>2026-04-11T15:23:44.497Z</time></trkpt><trkpt lat="44.120468" lon="11.379888"><ele>426.0</ele><time>2026-04-11T15:23:45.497Z</time></trkpt><trkpt lat="44.1204182" lon="11.37978"><ele>426.0</ele><time>2026-04-11T15:23:46.496Z</time></trkpt><trkpt lat="44.1203698" lon="11.379669"><ele>426.0</ele><time>2026-04-11T15:23:47.498Z</time></trkpt><trkpt lat="44.1203238" lon="11.3795523"><ele>426.0</ele><time>2026-04-11T15:23:48.499Z</time></trkpt><trkpt lat="44.1202818" lon="11.379436"><ele>426.0</ele><time>2026-04-11T15:23:49.494Z</time></trkpt><trkpt lat="44.1202467" lon="11.3793253"><ele>426.0</ele><time>2026-04-11T15:23:50.496Z</time></trkpt><trkpt lat="44.1202143" lon="11.3792173"><ele>426.0</ele><time>2026-04-11T15:23:51.495Z</time></trkpt><trkpt lat="44.1201868" lon="11.3791182"><ele>426.0</ele><time>2026-04-11T15:23:52.496Z</time></trkpt><trkpt lat="44.1201613" lon="11.3790248"><ele>426.0</ele><time>2026-04-11T15:23:53.494Z</time></trkpt><trkpt lat="44.120135" lon="11.3789278"><ele>426.3333333333333</ele><time>2026-04-11T15:23:54.496Z</time></trkpt><trkpt lat="44.1201075" lon="11.3788253"><ele>426.66666666666663</ele><time>2026-04-11T15:23:55.493Z</time></trkpt><trkpt lat="44.1200787" lon="11.3787173"><ele>427.0</ele><time>2026-04-11T15:23:56.493Z</time></trkpt><trkpt lat="44.1200465" lon="11.3786062"><ele>427.3333333333333</ele><time>2026-04-11T15:23:57.495Z</time></trkpt><trkpt lat="44.1200143" lon="11.3785002"><ele>427.66666666666663</ele><time>2026-04-11T15:23:58.495Z</time></trkpt><trkpt lat="44.1199852" lon="11.3784037"><ele>428.0</ele><time>2026-04-11T15:23:59.498Z</time></trkpt><trkpt lat="44.1199723" lon="11.3783142"><ele>427.99999999999994</ele><time>2026-04-11T15:24:00.496Z</time></trkpt><trkpt lat="44.1200347" lon="11.3781575"><ele>428.0</ele><time>2026-04-11T15:24:02.497Z</time></trkpt><trkpt lat="44.1200897" lon="11.378082"><ele>428.0</ele><time>2026-04-11T15:24:03.496Z</time></trkpt><trkpt lat="44.1201455" lon="11.3780062"><ele>428.0</ele><time>2026-04-11T15:24:04.494Z</time></trkpt><trkpt lat="44.1202023" lon="11.3779303"><ele>427.99999999999994</ele><time>2026-04-11T15:24:05.497Z</time></trkpt><trkpt lat="44.1202595" lon="11.3778538"><ele>428.0</ele><time>2026-04-11T15:24:06.495Z</time></trkpt><trkpt lat="44.1203172" lon="11.377778"><ele>428.3333333333333</ele><time>2026-04-11T15:24:07.494Z</time></trkpt><trkpt lat="44.1203755" lon="11.3777072"><ele>428.66666666666663</ele><time>2026-04-11T15:24:08.494Z</time></trkpt><trkpt lat="44.1204343" lon="11.3776358"><ele>429.0</ele><time>2026-04-11T15:24:09.496Z</time></trkpt><trkpt lat="44.1204957" lon="11.3775607"><ele>429.33333333333337</ele><time>2026-04-11T15:24:10.498Z</time></trkpt><trkpt lat="44.1205565" lon="11.377483"><ele>429.6666666666667</ele><time>2026-04-11T15:24:11.497Z</time></trkpt><trkpt lat="44.1206168" lon="11.3774027"><ele>430.0</ele><time>2026-04-11T15:24:12.509Z</time></trkpt><trkpt lat="44.1207837" lon="11.3771468"><ele>432.00000000000006</ele><time>2026-04-11T15:24:15.495Z</time></trkpt><trkpt lat="44.120834" lon="11.3770648"><ele>434.0</ele><time>2026-04-11T15:24:16.496Z</time></trkpt><trkpt lat="44.1208828" lon="11.3769815"><ele>436.0</ele><time>2026-04-11T15:24:17.495Z</time></trkpt><trkpt lat="44.1209312" lon="11.3768897"><ele>438.0</ele><time>2026-04-11T15:24:18.493Z</time></trkpt><trkpt lat="44.1209715" lon="11.3767923"><ele>440.00000000000006</ele><time>2026-04-11T15:24:19.491Z</time></trkpt><trkpt lat="44.1209997" lon="11.3766827"><ele>442.0</ele><time>2026-04-11T15:24:20.493Z</time></trkpt><trkpt lat="44.1210337" lon="11.3765742"><ele>442.0</ele><time>2026-04-11T15:24:21.495Z</time></trkpt><trkpt lat="44.1210878" lon="11.3764788"><ele>442.00000000000006</ele><time>2026-04-11T15:24:22.496Z</time></trkpt><trkpt lat="44.1211615" lon="11.3763895"><ele>442.00000000000006</ele><time>2026-04-11T15:24:23.497Z</time></trkpt><trkpt lat="44.1212448" lon="11.3762987"><ele>442.0</ele><time>2026-04-11T15:24:24.496Z</time></trkpt><trkpt lat="44.1213287" lon="11.3762017"><ele>442.0</ele><time>2026-04-11T15:24:25.496Z</time></trkpt><trkpt lat="44.1214142" lon="11.3760988"><ele>442.5</ele><time>2026-04-11T15:24:26.497Z</time></trkpt><trkpt lat="44.1214993" lon="11.3759935"><ele>443.0</ele><time>2026-04-11T15:24:27.495Z</time></trkpt><trkpt lat="44.1215852" lon="11.3758892"><ele>443.5</ele><time>2026-04-11T15:24:28.495Z</time></trkpt><trkpt lat="44.12167" lon="11.3757863"><ele>444.0</ele><time>2026-04-11T15:24:29.496Z</time></trkpt><trkpt lat="44.1217528" lon="11.3756853"><ele>447.2</ele><time>2026-04-11T15:24:30.496Z</time></trkpt><trkpt lat="44.1218297" lon="11.3755802"><ele>450.4</ele><time>2026-04-11T15:24:31.496Z</time></trkpt><trkpt lat="44.1218992" lon="11.3754667"><ele>453.6</ele><time>2026-04-11T15:24:32.497Z</time></trkpt><trkpt lat="44.1219602" lon="11.375342"><ele>456.8</ele><time>2026-04-11T15:24:33.496Z</time></trkpt><trkpt lat="44.1220143" lon="11.3752077"><ele>460.0</ele><time>2026-04-11T15:24:34.496Z</time></trkpt><trkpt lat="44.1220633" lon="11.3750672"><ele>460.6</ele><time>2026-04-11T15:24:35.497Z</time></trkpt><trkpt lat="44.1221107" lon="11.3749243"><ele>461.2</ele><time>2026-04-11T15:24:36.497Z</time></trkpt><trkpt lat="44.1221578" lon="11.3747833"><ele>461.79999999999995</ele><time>2026-04-11T15:24:37.496Z</time></trkpt><trkpt lat="44.122207" lon="11.374647"><ele>462.4</ele><time>2026-04-11T15:24:38.497Z</time></trkpt><trkpt lat="44.1222633" lon="11.3745157"><ele>463.0</ele><time>2026-04-11T15:24:39.498Z</time></trkpt><trkpt lat="44.1223265" lon="11.3743885"><ele>463.25</ele><time>2026-04-11T15:24:40.5Z</time></trkpt><trkpt lat="44.1223965" lon="11.3742672"><ele>463.5</ele><time>2026-04-11T15:24:41.498Z</time></trkpt><trkpt lat="44.1224718" lon="11.3741512"><ele>463.75</ele><time>2026-04-11T15:24:42.497Z</time></trkpt><trkpt lat="44.1225528" lon="11.3740353"><ele>464.0</ele><time>2026-04-11T15:24:43.497Z</time></trkpt><trkpt lat="44.1226415" lon="11.3739182"><ele>473.0</ele><time>2026-04-11T15:24:44.495Z</time></trkpt><trkpt lat="44.1227347" lon="11.3737987"><ele>482.0</ele><time>2026-04-11T15:24:45.496Z</time></trkpt><trkpt lat="44.12302" lon="11.3734052"><ele>482.0</ele><time>2026-04-11T15:24:48.498Z</time></trkpt><trkpt lat="44.1230985" lon="11.3732775"><ele>482.00000000000006</ele><time>2026-04-11T15:24:49.498Z</time></trkpt><trkpt lat="44.1231547" lon="11.3731408"><ele>482.00000000000006</ele><time>2026-04-11T15:24:50.498Z</time></trkpt><trkpt lat="44.1231845" lon="11.3729993"><ele>482.0</ele><time>2026-04-11T15:24:51.498Z</time></trkpt><trkpt lat="44.1232077" lon="11.3728597"><ele>482.0</ele><time>2026-04-11T15:24:52.497Z</time></trkpt><trkpt lat="44.123237" lon="11.3727373"><ele>485.16666666666663</ele><time>2026-04-11T15:24:53.496Z</time></trkpt><trkpt lat="44.1232593" lon="11.3726202"><ele>488.3333333333333</ele><time>2026-04-11T15:24:54.496Z</time></trkpt><trkpt lat="44.1232745" lon="11.3725067"><ele>491.5</ele><time>2026-04-11T15:24:55.496Z</time></trkpt><trkpt lat="44.1232853" lon="11.372401"><ele>494.66666666666663</ele><time>2026-04-11T15:24:56.498Z</time></trkpt><trkpt lat="44.123304" lon="11.3723132"><ele>497.8333333333333</ele><time>2026-04-11T15:24:57.497Z</time></trkpt><trkpt lat="44.1233863" lon="11.3721762"><ele>501.0</ele><time>2026-04-11T15:24:59.499Z</time></trkpt><trkpt lat="44.1234635" lon="11.3720298"><ele>503.4</ele><time>2026-04-11T15:25:01.496Z</time></trkpt><trkpt lat="44.1234975" lon="11.3719198"><ele>505.8</ele><time>2026-04-11T15:25:02.498Z</time></trkpt><trkpt lat="44.1235397" lon="11.3718127"><ele>508.19999999999993</ele><time>2026-04-11T15:25:03.496Z</time></trkpt><trkpt lat="44.1235952" lon="11.3717123"><ele>510.59999999999997</ele><time>2026-04-11T15:25:04.496Z</time></trkpt><trkpt lat="44.1236602" lon="11.3716177"><ele>513.0</ele><time>2026-04-11T15:25:05.498Z</time></trkpt><trkpt lat="44.1237283" lon="11.3715332"><ele>513.0</ele><time>2026-04-11T15:25:06.497Z</time></trkpt><trkpt lat="44.1238002" lon="11.371444"><ele>513.0</ele><time>2026-04-11T15:25:07.495Z</time></trkpt><trkpt lat="44.1238722" lon="11.3713607"><ele>513.0</ele><time>2026-04-11T15:25:08.494Z</time></trkpt><trkpt lat="44.1239473" lon="11.3712762"><ele>513.0</ele><time>2026-04-11T15:25:09.494Z</time></trkpt><trkpt lat="44.1240265" lon="11.3711928"><ele>513.0</ele><time>2026-04-11T15:25:10.496Z</time></trkpt><trkpt lat="44.1241102" lon="11.3711078"><ele>517.5</ele><time>2026-04-11T15:25:11.498Z</time></trkpt><trkpt lat="44.1242015" lon="11.3710155"><ele>522.0</ele><time>2026-04-11T15:25:12.498Z</time></trkpt><trkpt lat="44.1242988" lon="11.3709192"><ele>526.5</ele><time>2026-04-11T15:25:13.497Z</time></trkpt><trkpt lat="44.124401" lon="11.3708222"><ele>531.0</ele><time>2026-04-11T15:25:14.497Z</time></trkpt><trkpt lat="44.1244993" lon="11.370729"><ele>531.0</ele><time>2026-04-11T15:25:15.497Z</time></trkpt><trkpt lat="44.1245887" lon="11.370643"><ele>531.0</ele><time>2026-04-11T15:25:16.496Z</time></trkpt><trkpt lat="44.1246727" lon="11.3705647"><ele>531.0</ele><time>2026-04-11T15:25:17.499Z</time></trkpt><trkpt lat="44.1247527" lon="11.3704928"><ele>531.0</ele><time>2026-04-11T15:25:18.496Z</time></trkpt><trkpt lat="44.1248997" lon="11.3703903"><ele>534.4</ele><time>2026-04-11T15:25:20.499Z</time></trkpt><trkpt lat="44.1249733" lon="11.3703627"><ele>537.8</ele><time>2026-04-11T15:25:21.494Z</time></trkpt><trkpt lat="44.12506" lon="11.37034"><ele>541.1999999999999</ele><time>2026-04-11T15:25:22.495Z</time></trkpt><trkpt lat="44.125154" lon="11.3703202"><ele>544.6</ele><time>2026-04-11T15:25:23.497Z</time></trkpt><trkpt lat="44.1252625" lon="11.3703038"><ele>548.0</ele><time>2026-04-11T15:25:24.497Z</time></trkpt><trkpt lat="44.1253838" lon="11.3702882"><ele>548.0</ele><time>2026-04-11T15:25:25.495Z</time></trkpt><trkpt lat="44.1254997" lon="11.3702703"><ele>548.0</ele><time>2026-04-11T15:25:26.496Z</time></trkpt><trkpt lat="44.125612" lon="11.3702412"><ele>548.0</ele><time>2026-04-11T15:25:27.495Z</time></trkpt><trkpt lat="44.1257187" lon="11.3701953"><ele>548.0</ele><time>2026-04-11T15:25:28.495Z</time></trkpt><trkpt lat="44.1258267" lon="11.370137"><ele>548.5</ele><time>2026-04-11T15:25:29.496Z</time></trkpt><trkpt lat="44.1259343" lon="11.3700863"><ele>549.0</ele><time>2026-04-11T15:25:30.497Z</time></trkpt><trkpt lat="44.1260438" lon="11.3700298"><ele>549.5</ele><time>2026-04-11T15:25:31.494Z</time></trkpt><trkpt lat="44.1261625" lon="11.3699738"><ele>550.0</ele><time>2026-04-11T15:25:32.493Z</time></trkpt><trkpt lat="44.1262823" lon="11.3699168"><ele>550.0</ele><time>2026-04-11T15:25:33.493Z</time></trkpt><trkpt lat="44.1263998" lon="11.3698568"><ele>550.0</ele><time>2026-04-11T15:25:34.492Z</time></trkpt><trkpt lat="44.1265192" lon="11.3697907"><ele>550.0</ele><time>2026-04-11T15:25:35.496Z</time></trkpt><trkpt lat="44.1266273" lon="11.369726"><ele>550.0</ele><time>2026-04-11T15:25:36.496Z</time></trkpt><trkpt lat="44.1267248" lon="11.3696688"><ele>550.6</ele><time>2026-04-11T15:25:37.498Z</time></trkpt><trkpt lat="44.1268072" lon="11.3696378"><ele>551.2</ele><time>2026-04-11T15:25:38.496Z</time></trkpt><trkpt lat="44.1268982" lon="11.3696263"><ele>551.8</ele><time>2026-04-11T15:25:39.497Z</time></trkpt><trkpt lat="44.1269957" lon="11.3696323"><ele>552.4</ele><time>2026-04-11T15:25:40.498Z</time></trkpt><trkpt lat="44.1270963" lon="11.3696323"><ele>553.0</ele><time>2026-04-11T15:25:41.496Z</time></trkpt><trkpt lat="44.1272018" lon="11.3696263"><ele>553.0</ele><time>2026-04-11T15:25:42.498Z</time></trkpt><trkpt lat="44.1273075" lon="11.3696113"><ele>553.0</ele><time>2026-04-11T15:25:43.496Z</time></trkpt><trkpt lat="44.1274005" lon="11.3695893"><ele>553.0</ele><time>2026-04-11T15:25:44.495Z</time></trkpt><trkpt lat="44.1274903" lon="11.3695888"><ele>553.0</ele><time>2026-04-11T15:25:45.496Z</time></trkpt><trkpt lat="44.127582" lon="11.3696172"><ele>553.0</ele><time>2026-04-11T15:25:46.494Z</time></trkpt><trkpt lat="44.1276817" lon="11.3696658"><ele>552.1999999999999</ele><time>2026-04-11T15:25:47.496Z</time></trkpt><trkpt lat="44.1277917" lon="11.3697085"><ele>551.4</ele><time>2026-04-11T15:25:48.494Z</time></trkpt><trkpt lat="44.1278962" lon="11.3697422"><ele>550.5999999999999</ele><time>2026-04-11T15:25:49.495Z</time></trkpt><trkpt lat="44.1279945" lon="11.3697652"><ele>549.8</ele><time>2026-04-11T15:25:50.497Z</time></trkpt><trkpt lat="44.128088" lon="11.3697663"><ele>549.0</ele><time>2026-04-11T15:25:51.498Z</time></trkpt><trkpt lat="44.1282658" lon="11.3697145"><ele>550.2</ele><time>2026-04-11T15:25:53.498Z</time></trkpt><trkpt lat="44.1283497" lon="11.3696903"><ele>551.4</ele><time>2026-04-11T15:25:54.497Z</time></trkpt><trkpt lat="44.1284467" lon="11.3696603"><ele>552.6</ele><time>2026-04-11T15:25:55.495Z</time></trkpt><trkpt lat="44.1285483" lon="11.3696278"><ele>553.8</ele><time>2026-04-11T15:25:56.494Z</time></trkpt><trkpt lat="44.1286475" lon="11.3696002"><ele>555.0</ele><time>2026-04-11T15:25:57.495Z</time></trkpt><trkpt lat="44.1287487" lon="11.3695737"><ele>555.0</ele><time>2026-04-11T15:25:58.493Z</time></trkpt><trkpt lat="44.1288487" lon="11.3695477"><ele>555.0</ele><time>2026-04-11T15:25:59.495Z</time></trkpt><trkpt lat="44.1289453" lon="11.3695242"><ele>555.0</ele><time>2026-04-11T15:26:00.495Z</time></trkpt><trkpt lat="44.1290362" lon="11.3695145"><ele>555.0</ele><time>2026-04-11T15:26:01.494Z</time></trkpt><trkpt lat="44.1291165" lon="11.369527"><ele>555.0</ele><time>2026-04-11T15:26:02.496Z</time></trkpt><trkpt lat="44.1291928" lon="11.3695578"><ele>557.2</ele><time>2026-04-11T15:26:03.495Z</time></trkpt><trkpt lat="44.1292725" lon="11.369608"><ele>559.4</ele><time>2026-04-11T15:26:04.497Z</time></trkpt><trkpt lat="44.1293497" lon="11.369669"><ele>561.6</ele><time>2026-04-11T15:26:05.497Z</time></trkpt><trkpt lat="44.1294375" lon="11.3697267"><ele>563.8</ele><time>2026-04-11T15:26:06.498Z</time></trkpt><trkpt lat="44.1295417" lon="11.3697642"><ele>566.0</ele><time>2026-04-11T15:26:07.498Z</time></trkpt><trkpt lat="44.1296577" lon="11.3697747"><ele>566.75</ele><time>2026-04-11T15:26:08.497Z</time></trkpt><trkpt lat="44.1297887" lon="11.3697495"><ele>567.5</ele><time>2026-04-11T15:26:09.498Z</time></trkpt><trkpt lat="44.1299305" lon="11.3697122"><ele>568.25</ele><time>2026-04-11T15:26:10.497Z</time></trkpt><trkpt lat="44.1300638" lon="11.3696905"><ele>569.0</ele><time>2026-04-11T15:26:11.497Z</time></trkpt><trkpt lat="44.130199" lon="11.3696798"><ele>569.2</ele><time>2026-04-11T15:26:12.497Z</time></trkpt><trkpt lat="44.1303107" lon="11.369669"><ele>569.4</ele><time>2026-04-11T15:26:13.496Z</time></trkpt><trkpt lat="44.1303867" lon="11.3696465"><ele>569.6</ele><time>2026-04-11T15:26:14.497Z</time></trkpt><trkpt lat="44.1304455" lon="11.3695767"><ele>569.8</ele><time>2026-04-11T15:26:16.497Z</time></trkpt><trkpt lat="44.1305473" lon="11.36952"><ele>570.0</ele><time>2026-04-11T15:26:19.496Z</time></trkpt><trkpt lat="44.130662" lon="11.3694968"><ele>571.75</ele><time>2026-04-11T15:26:21.493Z</time></trkpt><trkpt lat="44.1307683" lon="11.3695203"><ele>573.5</ele><time>2026-04-11T15:26:23.494Z</time></trkpt><trkpt lat="44.1308295" lon="11.3695472"><ele>575.25</ele><time>2026-04-11T15:26:24.496Z</time></trkpt><trkpt lat="44.1311045" lon="11.3695393"><ele>577.0</ele><time>2026-04-11T15:26:27.497Z</time></trkpt><trkpt lat="44.1311982" lon="11.3695165"><ele>577.0</ele><time>2026-04-11T15:26:28.498Z</time></trkpt><trkpt lat="44.1312868" lon="11.369485"><ele>577.0</ele><time>2026-04-11T15:26:29.497Z</time></trkpt><trkpt lat="44.131379" lon="11.3694557"><ele>577.0</ele><time>2026-04-11T15:26:30.499Z</time></trkpt><trkpt lat="44.1314688" lon="11.3694292"><ele>577.0</ele><time>2026-04-11T15:26:31.499Z</time></trkpt><trkpt lat="44.1315513" lon="11.3694027"><ele>577.0</ele><time>2026-04-11T15:26:32.5Z</time></trkpt><trkpt lat="44.1316378" lon="11.3693843"><ele>579.3333333333334</ele><time>2026-04-11T15:26:33.499Z</time></trkpt><trkpt lat="44.1317203" lon="11.3693685"><ele>581.6666666666667</ele><time>2026-04-11T15:26:34.496Z</time></trkpt><trkpt lat="44.1317997" lon="11.3693375"><ele>584.0</ele><time>2026-04-11T15:26:35.497Z</time></trkpt><trkpt lat="44.1318637" lon="11.3692825"><ele>586.3333333333334</ele><time>2026-04-11T15:26:36.497Z</time></trkpt><trkpt lat="44.13192" lon="11.3692102"><ele>588.6666666666666</ele><time>2026-04-11T15:26:37.496Z</time></trkpt><trkpt lat="44.1319688" lon="11.3691238"><ele>591.0</ele><time>2026-04-11T15:26:38.496Z</time></trkpt><trkpt lat="44.1320173" lon="11.3690368"><ele>591.0</ele><time>2026-04-11T15:26:39.496Z</time></trkpt><trkpt lat="44.1320677" lon="11.3689593"><ele>591.0</ele><time>2026-04-11T15:26:40.496Z</time></trkpt><trkpt lat="44.132122" lon="11.3688995"><ele>591.0</ele><time>2026-04-11T15:26:41.499Z</time></trkpt><trkpt lat="44.1321838" lon="11.3688577"><ele>591.0</ele><time>2026-04-11T15:26:42.497Z</time></trkpt><trkpt lat="44.132252" lon="11.368833"><ele>591.0</ele><time>2026-04-11T15:26:43.497Z</time></trkpt><trkpt lat="44.1323175" lon="11.3688042"><ele>591.0</ele><time>2026-04-11T15:26:44.495Z</time></trkpt><trkpt lat="44.13238" lon="11.368759"><ele>591.0</ele><time>2026-04-11T15:26:45.495Z</time></trkpt><trkpt lat="44.1324452" lon="11.368706"><ele>593.0</ele><time>2026-04-11T15:26:46.493Z</time></trkpt><trkpt lat="44.1325117" lon="11.368629"><ele>595.0</ele><time>2026-04-11T15:26:47.495Z</time></trkpt><trkpt lat="44.1325798" lon="11.3685268"><ele>597.0</ele><time>2026-04-11T15:26:48.496Z</time></trkpt><trkpt lat="44.132645" lon="11.3684058"><ele>599.0</ele><time>2026-04-11T15:26:49.498Z</time></trkpt><trkpt lat="44.1327035" lon="11.368269"><ele>601.0</ele><time>2026-04-11T15:26:50.497Z</time></trkpt><trkpt lat="44.13275" lon="11.3681247"><ele>598.75</ele><time>2026-04-11T15:26:51.497Z</time></trkpt><trkpt lat="44.1327855" lon="11.3679825"><ele>596.5</ele><time>2026-04-11T15:26:52.501Z</time></trkpt><trkpt lat="44.1328185" lon="11.3678392"><ele>594.25</ele><time>2026-04-11T15:26:53.5Z</time></trkpt><trkpt lat="44.1328577" lon="11.3676843"><ele>592.0</ele><time>2026-04-11T15:26:54.497Z</time></trkpt><trkpt lat="44.132915" lon="11.3675217"><ele>592.0</ele><time>2026-04-11T15:26:55.496Z</time></trkpt><trkpt lat="44.1329923" lon="11.3673415"><ele>592.0</ele><time>2026-04-11T15:26:56.497Z</time></trkpt><trkpt lat="44.1330698" lon="11.3671648"><ele>592.0</ele><time>2026-04-11T15:26:57.498Z</time></trkpt><trkpt lat="44.1331475" lon="11.3669897"><ele>592.0</ele><time>2026-04-11T15:26:58.498Z</time></trkpt><trkpt lat="44.1333482" lon="11.3664853"><ele>592.5</ele><time>2026-04-11T15:27:01.499Z</time></trkpt><trkpt lat="44.1333905" lon="11.3663275"><ele>593.0</ele><time>2026-04-11T15:27:02.496Z</time></trkpt><trkpt lat="44.1334125" lon="11.3661593"><ele>593.5</ele><time>2026-04-11T15:27:03.498Z</time></trkpt><trkpt lat="44.1334168" lon="11.365969"><ele>594.0</ele><time>2026-04-11T15:27:04.497Z</time></trkpt><trkpt lat="44.1334198" lon="11.3657938"><ele>594.0</ele><time>2026-04-11T15:27:05.498Z</time></trkpt><trkpt lat="44.133425" lon="11.3656272"><ele>594.0</ele><time>2026-04-11T15:27:06.498Z</time></trkpt><trkpt lat="44.133435" lon="11.3654615"><ele>594.0</ele><time>2026-04-11T15:27:07.497Z</time></trkpt><trkpt lat="44.1334513" lon="11.3653082"><ele>594.0</ele><time>2026-04-11T15:27:08.496Z</time></trkpt><trkpt lat="44.133475" lon="11.365173"><ele>593.8333333333334</ele><time>2026-04-11T15:27:09.497Z</time></trkpt><trkpt lat="44.1335008" lon="11.3650538"><ele>593.6666666666666</ele><time>2026-04-11T15:27:10.494Z</time></trkpt><trkpt lat="44.1335277" lon="11.3649462"><ele>593.5</ele><time>2026-04-11T15:27:11.496Z</time></trkpt><trkpt lat="44.1335555" lon="11.3648427"><ele>593.3333333333333</ele><time>2026-04-11T15:27:12.494Z</time></trkpt><trkpt lat="44.1335807" lon="11.3647427"><ele>593.1666666666666</ele><time>2026-04-11T15:27:13.496Z</time></trkpt><trkpt lat="44.1336032" lon="11.364639"><ele>593.0</ele><time>2026-04-11T15:27:14.495Z</time></trkpt><trkpt lat="44.1336225" lon="11.3645332"><ele>593.0</ele><time>2026-04-11T15:27:15.499Z</time></trkpt><trkpt lat="44.1336292" lon="11.3644192"><ele>593.0</ele><time>2026-04-11T15:27:16.496Z</time></trkpt><trkpt lat="44.1336307" lon="11.3643003"><ele>593.0</ele><time>2026-04-11T15:27:17.497Z</time></trkpt><trkpt lat="44.1336427" lon="11.3641758"><ele>593.0</ele><time>2026-04-11T15:27:18.498Z</time></trkpt><trkpt lat="44.1336652" lon="11.3640522"><ele>593.0</ele><time>2026-04-11T15:27:19.497Z</time></trkpt><trkpt lat="44.1336897" lon="11.3639428"><ele>593.0</ele><time>2026-04-11T15:27:20.498Z</time></trkpt><trkpt lat="44.1337107" lon="11.3638437"><ele>592.8333333333333</ele><time>2026-04-11T15:27:21.498Z</time></trkpt><trkpt lat="44.133733" lon="11.3637553"><ele>592.6666666666666</ele><time>2026-04-11T15:27:22.497Z</time></trkpt><trkpt lat="44.1338157" lon="11.3636438"><ele>592.5</ele><time>2026-04-11T15:27:24.498Z</time></trkpt><trkpt lat="44.1338777" lon="11.3636253"><ele>592.3333333333334</ele><time>2026-04-11T15:27:25.498Z</time></trkpt><trkpt lat="44.1339467" lon="11.36362"><ele>592.1666666666667</ele><time>2026-04-11T15:27:26.498Z</time></trkpt><trkpt lat="44.1340167" lon="11.3636215"><ele>592.0</ele><time>2026-04-11T15:27:27.498Z</time></trkpt><trkpt lat="44.1340912" lon="11.3636252"><ele>593.2</ele><time>2026-04-11T15:27:28.498Z</time></trkpt><trkpt lat="44.1341688" lon="11.3636332"><ele>594.4000000000001</ele><time>2026-04-11T15:27:29.497Z</time></trkpt><trkpt lat="44.1342508" lon="11.3636413"><ele>595.5999999999999</ele><time>2026-04-11T15:27:30.496Z</time></trkpt><trkpt lat="44.1343303" lon="11.3636298"><ele>596.8</ele><time>2026-04-11T15:27:31.496Z</time></trkpt><trkpt lat="44.1344022" lon="11.3635953"><ele>598.0</ele><time>2026-04-11T15:27:32.495Z</time></trkpt><trkpt lat="44.134589" lon="11.3633538"><ele>598.0</ele><time>2026-04-11T15:27:35.495Z</time></trkpt><trkpt lat="44.1346513" lon="11.3632642"><ele>598.0</ele><time>2026-04-11T15:27:36.495Z</time></trkpt><trkpt lat="44.1347187" lon="11.3631782"><ele>598.0</ele><time>2026-04-11T15:27:37.495Z</time></trkpt><trkpt lat="44.1347917" lon="11.3630917"><ele>598.0</ele><time>2026-04-11T15:27:38.496Z</time></trkpt><trkpt lat="44.1348742" lon="11.362994"><ele>598.0</ele><time>2026-04-11T15:27:39.497Z</time></trkpt><trkpt lat="44.1349662" lon="11.3628825"><ele>595.25</ele><time>2026-04-11T15:27:40.495Z</time></trkpt><trkpt lat="44.1350608" lon="11.3627632"><ele>592.5</ele><time>2026-04-11T15:27:41.497Z</time></trkpt><trkpt lat="44.1351568" lon="11.3626457"><ele>589.75</ele><time>2026-04-11T15:27:42.498Z</time></trkpt><trkpt lat="44.1352542" lon="11.3625318"><ele>587.0</ele><time>2026-04-11T15:27:43.495Z</time></trkpt><trkpt lat="44.1353507" lon="11.3624198"><ele>587.0</ele><time>2026-04-11T15:27:44.496Z</time></trkpt><trkpt lat="44.1354455" lon="11.3623088"><ele>587.0</ele><time>2026-04-11T15:27:45.497Z</time></trkpt><trkpt lat="44.1355385" lon="11.3621978"><ele>587.0</ele><time>2026-04-11T15:27:46.497Z</time></trkpt><trkpt lat="44.1356298" lon="11.362088"><ele>587.0</ele><time>2026-04-11T15:27:47.498Z</time></trkpt><trkpt lat="44.1357253" lon="11.3619838"><ele>583.5</ele><time>2026-04-11T15:27:48.499Z</time></trkpt><trkpt lat="44.1358232" lon="11.3618933"><ele>580.0</ele><time>2026-04-11T15:27:49.496Z</time></trkpt><trkpt lat="44.1359252" lon="11.3618183"><ele>576.5</ele><time>2026-04-11T15:27:50.497Z</time></trkpt><trkpt lat="44.1360293" lon="11.3617545"><ele>573.0</ele><time>2026-04-11T15:27:51.496Z</time></trkpt><trkpt lat="44.1361323" lon="11.361695"><ele>573.0</ele><time>2026-04-11T15:27:52.497Z</time></trkpt><trkpt lat="44.136231" lon="11.3616303"><ele>573.0</ele><time>2026-04-11T15:27:53.498Z</time></trkpt><trkpt lat="44.1363235" lon="11.361552"><ele>573.0</ele><time>2026-04-11T15:27:54.496Z</time></trkpt><trkpt lat="44.136413" lon="11.3614578"><ele>573.0</ele><time>2026-04-11T15:27:55.497Z</time></trkpt><trkpt lat="44.1365088" lon="11.3613502"><ele>571.75</ele><time>2026-04-11T15:27:56.499Z</time></trkpt><trkpt lat="44.1366085" lon="11.3612398"><ele>570.5</ele><time>2026-04-11T15:27:57.497Z</time></trkpt><trkpt lat="44.1367148" lon="11.3611275"><ele>569.25</ele><time>2026-04-11T15:27:58.493Z</time></trkpt><trkpt lat="44.13682" lon="11.3610175"><ele>568.0</ele><time>2026-04-11T15:27:59.494Z</time></trkpt><trkpt lat="44.1369223" lon="11.36091"><ele>568.0</ele><time>2026-04-11T15:28:00.493Z</time></trkpt><trkpt lat="44.137024" lon="11.3608023"><ele>568.0</ele><time>2026-04-11T15:28:01.493Z</time></trkpt><trkpt lat="44.1371213" lon="11.3606952"><ele>568.0</ele><time>2026-04-11T15:28:02.496Z</time></trkpt><trkpt lat="44.1372112" lon="11.3605852"><ele>568.0</ele><time>2026-04-11T15:28:03.497Z</time></trkpt><trkpt lat="44.1372947" lon="11.360471"><ele>569.0</ele><time>2026-04-11T15:28:04.495Z</time></trkpt><trkpt lat="44.1373713" lon="11.3603545"><ele>570.0</ele><time>2026-04-11T15:28:05.498Z</time></trkpt><trkpt lat="44.1375067" lon="11.3599262"><ele>571.0</ele><time>2026-04-11T15:28:08.496Z</time></trkpt><trkpt lat="44.1375353" lon="11.3597687"><ele>569.0</ele><time>2026-04-11T15:28:09.495Z</time></trkpt><trkpt lat="44.1375837" lon="11.359638"><ele>567.0</ele><time>2026-04-11T15:28:10.496Z</time></trkpt><trkpt lat="44.137643" lon="11.3595563"><ele>565.0</ele><time>2026-04-11T15:28:11.495Z</time></trkpt><trkpt lat="44.1377125" lon="11.3595103"><ele>563.0</ele><time>2026-04-11T15:28:12.497Z</time></trkpt><trkpt lat="44.1377947" lon="11.3594992"><ele>561.0</ele><time>2026-04-11T15:28:13.497Z</time></trkpt><trkpt lat="44.1378805" lon="11.359517"><ele>559.0</ele><time>2026-04-11T15:28:14.497Z</time></trkpt><trkpt lat="44.1379653" lon="11.3595552"><ele>559.0</ele><time>2026-04-11T15:28:15.496Z</time></trkpt><trkpt lat="44.1380488" lon="11.359594"><ele>559.0</ele><time>2026-04-11T15:28:16.497Z</time></trkpt><trkpt lat="44.1381262" lon="11.3596077"><ele>559.0</ele><time>2026-04-11T15:28:17.497Z</time></trkpt><trkpt lat="44.1381993" lon="11.3595737"><ele>559.0</ele><time>2026-04-11T15:28:18.497Z</time></trkpt><trkpt lat="44.1382755" lon="11.3595032"><ele>559.0</ele><time>2026-04-11T15:28:19.498Z</time></trkpt><trkpt lat="44.1383642" lon="11.359434"><ele>559.0</ele><time>2026-04-11T15:28:20.5Z</time></trkpt><trkpt lat="44.1384627" lon="11.3593905"><ele>558.25</ele><time>2026-04-11T15:28:21.497Z</time></trkpt><trkpt lat="44.1385675" lon="11.359352"><ele>557.5</ele><time>2026-04-11T15:28:22.495Z</time></trkpt><trkpt lat="44.1386757" lon="11.3593052"><ele>556.75</ele><time>2026-04-11T15:28:23.495Z</time></trkpt><trkpt lat="44.1387828" lon="11.359239"><ele>556.0</ele><time>2026-04-11T15:28:24.495Z</time></trkpt><trkpt lat="44.138889" lon="11.3591512"><ele>556.0</ele><time>2026-04-11T15:28:25.496Z</time></trkpt><trkpt lat="44.1389957" lon="11.3590422"><ele>556.0</ele><time>2026-04-11T15:28:26.496Z</time></trkpt><trkpt lat="44.1391025" lon="11.3589253"><ele>556.0</ele><time>2026-04-11T15:28:27.497Z</time></trkpt><trkpt lat="44.1392115" lon="11.3588288"><ele>556.0</ele><time>2026-04-11T15:28:28.497Z</time></trkpt><trkpt lat="44.1393192" lon="11.3587628"><ele>556.6</ele><time>2026-04-11T15:28:29.497Z</time></trkpt><trkpt lat="44.1394187" lon="11.3587038"><ele>557.2</ele><time>2026-04-11T15:28:30.497Z</time></trkpt><trkpt lat="44.1395072" lon="11.3586247"><ele>557.8</ele><time>2026-04-11T15:28:31.498Z</time></trkpt><trkpt lat="44.1395978" lon="11.3585318"><ele>558.4</ele><time>2026-04-11T15:28:32.497Z</time></trkpt><trkpt lat="44.1397008" lon="11.3584425"><ele>559.0</ele><time>2026-04-11T15:28:33.498Z</time></trkpt><trkpt lat="44.1398133" lon="11.3583673"><ele>560.0</ele><time>2026-04-11T15:28:34.497Z</time></trkpt><trkpt lat="44.1399213" lon="11.3582942"><ele>561.0</ele><time>2026-04-11T15:28:35.5Z</time></trkpt><trkpt lat="44.1400193" lon="11.3582078"><ele>562.0</ele><time>2026-04-11T15:28:36.5Z</time></trkpt><trkpt lat="44.1401107" lon="11.3581085"><ele>563.0</ele><time>2026-04-11T15:28:37.498Z</time></trkpt><trkpt lat="44.1402032" lon="11.3580135"><ele>563.0</ele><time>2026-04-11T15:28:38.498Z</time></trkpt><trkpt lat="44.1404947" lon="11.3579328"><ele>563.0</ele><time>2026-04-11T15:28:41.498Z</time></trkpt><trkpt lat="44.1405815" lon="11.35796"><ele>563.0</ele><time>2026-04-11T15:28:42.496Z</time></trkpt><trkpt lat="44.140661" lon="11.3579555"><ele>559.0</ele><time>2026-04-11T15:28:43.496Z</time></trkpt><trkpt lat="44.140737" lon="11.3579058"><ele>555.0</ele><time>2026-04-11T15:28:44.498Z</time></trkpt><trkpt lat="44.1408075" lon="11.3578163"><ele>551.0</ele><time>2026-04-11T15:28:45.498Z</time></trkpt><trkpt lat="44.1408727" lon="11.3576953"><ele>547.0</ele><time>2026-04-11T15:28:46.497Z</time></trkpt><trkpt lat="44.1409347" lon="11.3575575"><ele>543.0</ele><time>2026-04-11T15:28:47.497Z</time></trkpt><trkpt lat="44.1409973" lon="11.3574242"><ele>543.0</ele><time>2026-04-11T15:28:48.495Z</time></trkpt><trkpt lat="44.1410688" lon="11.3573062"><ele>543.0</ele><time>2026-04-11T15:28:49.495Z</time></trkpt><trkpt lat="44.1411465" lon="11.3572023"><ele>543.0</ele><time>2026-04-11T15:28:50.496Z</time></trkpt><trkpt lat="44.1412282" lon="11.3571128"><ele>543.0</ele><time>2026-04-11T15:28:51.498Z</time></trkpt><trkpt lat="44.1413138" lon="11.3570335"><ele>543.0</ele><time>2026-04-11T15:28:52.498Z</time></trkpt><trkpt lat="44.1414033" lon="11.3569663"><ele>542.1999999999999</ele><time>2026-04-11T15:28:53.498Z</time></trkpt><trkpt lat="44.1414972" lon="11.3569207"><ele>541.4</ele><time>2026-04-11T15:28:54.497Z</time></trkpt><trkpt lat="44.141592" lon="11.3568993"><ele>540.5999999999999</ele><time>2026-04-11T15:28:55.496Z</time></trkpt><trkpt lat="44.1416848" lon="11.3568928"><ele>539.8</ele><time>2026-04-11T15:28:56.497Z</time></trkpt><trkpt lat="44.1417725" lon="11.3568753"><ele>539.0</ele><time>2026-04-11T15:28:57.498Z</time></trkpt><trkpt lat="44.141855" lon="11.3568288"><ele>539.0</ele><time>2026-04-11T15:28:58.497Z</time></trkpt><trkpt lat="44.1419353" lon="11.3567533"><ele>539.0</ele><time>2026-04-11T15:28:59.498Z</time></trkpt><trkpt lat="44.1420212" lon="11.3566802"><ele>539.0</ele><time>2026-04-11T15:29:00.497Z</time></trkpt><trkpt lat="44.1421157" lon="11.3566252"><ele>539.0</ele><time>2026-04-11T15:29:01.497Z</time></trkpt><trkpt lat="44.14221" lon="11.356589"><ele>539.0</ele><time>2026-04-11T15:29:02.498Z</time></trkpt><trkpt lat="44.1423027" lon="11.356578"><ele>537.0</ele><time>2026-04-11T15:29:03.497Z</time></trkpt><trkpt lat="44.142395" lon="11.356599"><ele>535.0</ele><time>2026-04-11T15:29:04.497Z</time></trkpt><trkpt lat="44.142477" lon="11.3566423"><ele>533.0</ele><time>2026-04-11T15:29:05.499Z</time></trkpt><trkpt lat="44.1425473" lon="11.3566915"><ele>531.0</ele><time>2026-04-11T15:29:06.498Z</time></trkpt><trkpt lat="44.1426137" lon="11.3567355"><ele>529.0</ele><time>2026-04-11T15:29:07.497Z</time></trkpt><trkpt lat="44.142686" lon="11.3567827"><ele>527.0</ele><time>2026-04-11T15:29:08.498Z</time></trkpt><trkpt lat="44.1427625" lon="11.3568388"><ele>527.0</ele><time>2026-04-11T15:29:09.497Z</time></trkpt><trkpt lat="44.1428398" lon="11.3569052"><ele>527.0</ele><time>2026-04-11T15:29:10.495Z</time></trkpt><trkpt lat="44.1429123" lon="11.3569742"><ele>527.0</ele><time>2026-04-11T15:29:11.496Z</time></trkpt><trkpt lat="44.1430775" lon="11.357195"><ele>527.0</ele><time>2026-04-11T15:29:14.495Z</time></trkpt><trkpt lat="44.143176" lon="11.3572812"><ele>527.0</ele><time>2026-04-11T15:29:16.496Z</time></trkpt><trkpt lat="44.1432747" lon="11.3572473"><ele>527.0</ele><time>2026-04-11T15:29:18.496Z</time></trkpt><trkpt lat="44.1432862" lon="11.3571307"><ele>527.0</ele><time>2026-04-11T15:29:20.495Z</time></trkpt><trkpt lat="44.1432415" lon="11.356993"><ele>527.0</ele><time>2026-04-11T15:29:22.495Z</time></trkpt><trkpt lat="44.1431892" lon="11.3568522"><ele>527.0</ele><time>2026-04-11T15:29:24.496Z</time></trkpt><trkpt lat="44.1431692" lon="11.3567342"><ele>527.4</ele><time>2026-04-11T15:29:26.496Z</time></trkpt><trkpt lat="44.1432447" lon="11.3566912"><ele>527.8000000000001</ele><time>2026-04-11T15:29:29.495Z</time></trkpt><trkpt lat="44.1433273" lon="11.3567157"><ele>528.2</ele><time>2026-04-11T15:29:31.495Z</time></trkpt><trkpt lat="44.1434402" lon="11.3567432"><ele>528.6</ele><time>2026-04-11T15:29:33.496Z</time></trkpt><trkpt lat="44.1435632" lon="11.3567767"><ele>529.0</ele><time>2026-04-11T15:29:35.497Z</time></trkpt><trkpt lat="44.1436393" lon="11.356795"><ele>529.0</ele><time>2026-04-11T15:29:36.493Z</time></trkpt><trkpt lat="44.1437153" lon="11.356797"><ele>529.0</ele><time>2026-04-11T15:29:37.493Z</time></trkpt><trkpt lat="44.1437773" lon="11.3567707"><ele>529.0</ele><time>2026-04-11T15:29:38.494Z</time></trkpt><trkpt lat="44.1438383" lon="11.3567422"><ele>529.0</ele><time>2026-04-11T15:29:39.494Z</time></trkpt><trkpt lat="44.1439557" lon="11.3566858"><ele>529.0</ele><time>2026-04-11T15:29:41.497Z</time></trkpt><trkpt lat="44.1440312" lon="11.3566183"><ele>529.0</ele><time>2026-04-11T15:29:43.496Z</time></trkpt><trkpt lat="44.1440033" lon="11.3563758"><ele>529.8</ele><time>2026-04-11T15:29:48.498Z</time></trkpt><trkpt lat="44.1440368" lon="11.3562352"><ele>530.5999999999999</ele><time>2026-04-11T15:29:50.497Z</time></trkpt><trkpt lat="44.1441073" lon="11.3560993"><ele>531.4</ele><time>2026-04-11T15:29:52.497Z</time></trkpt><trkpt lat="44.1441507" lon="11.3560353"><ele>532.1999999999999</ele><time>2026-04-11T15:29:53.498Z</time></trkpt><trkpt lat="44.1442188" lon="11.3558768"><ele>533.0</ele><time>2026-04-11T15:29:55.497Z</time></trkpt><trkpt lat="44.1442507" lon="11.3557798"><ele>536.0</ele><time>2026-04-11T15:29:56.498Z</time></trkpt><trkpt lat="44.144278" lon="11.3556902"><ele>539.0</ele><time>2026-04-11T15:29:57.497Z</time></trkpt><trkpt lat="44.1443158" lon="11.3555173"><ele>542.0</ele><time>2026-04-11T15:29:59.5Z</time></trkpt><trkpt lat="44.1443373" lon="11.3554298"><ele>545.0</ele><time>2026-04-11T15:30:00.495Z</time></trkpt><trkpt lat="44.1443585" lon="11.355335"><ele>548.0</ele><time>2026-04-11T15:30:01.494Z</time></trkpt><trkpt lat="44.1443823" lon="11.3552445"><ele>551.0</ele><time>2026-04-11T15:30:02.495Z</time></trkpt><trkpt lat="44.1444095" lon="11.355164"><ele>552.0</ele><time>2026-04-11T15:30:03.494Z</time></trkpt><trkpt lat="44.1444567" lon="11.3550043"><ele>553.0</ele><time>2026-04-11T15:30:05.496Z</time></trkpt><trkpt lat="44.144474" lon="11.3549087"><ele>554.0</ele><time>2026-04-11T15:30:06.495Z</time></trkpt><trkpt lat="44.1444912" lon="11.3548128"><ele>555.0</ele><time>2026-04-11T15:30:07.496Z</time></trkpt><trkpt lat="44.1445093" lon="11.3547202"><ele>556.0</ele><time>2026-04-11T15:30:08.496Z</time></trkpt><trkpt lat="44.1445345" lon="11.35456"><ele>557.25</ele><time>2026-04-11T15:30:10.495Z</time></trkpt><trkpt lat="44.1445302" lon="11.3543952"><ele>558.5</ele><time>2026-04-11T15:30:12.499Z</time></trkpt><trkpt lat="44.1445363" lon="11.3542437"><ele>559.75</ele><time>2026-04-11T15:30:14.497Z</time></trkpt><trkpt lat="44.1445838" lon="11.3541075"><ele>561.0</ele><time>2026-04-11T15:30:16.497Z</time></trkpt><trkpt lat="44.1446833" lon="11.3540038"><ele>562.0</ele><time>2026-04-11T15:30:18.497Z</time></trkpt><trkpt lat="44.1448728" lon="11.3538672"><ele>563.0</ele><time>2026-04-11T15:30:21.497Z</time></trkpt><trkpt lat="44.1449812" lon="11.3538402"><ele>564.0</ele><time>2026-04-11T15:30:23.497Z</time></trkpt><trkpt lat="44.1450682" lon="11.3539335"><ele>565.0</ele><time>2026-04-11T15:30:25.493Z</time></trkpt><trkpt lat="44.145111" lon="11.3540007"><ele>568.2</ele><time>2026-04-11T15:30:26.494Z</time></trkpt><trkpt lat="44.1452032" lon="11.3540722"><ele>571.4</ele><time>2026-04-11T15:30:28.493Z</time></trkpt><trkpt lat="44.1452923" lon="11.3540373"><ele>574.6</ele><time>2026-04-11T15:30:30.497Z</time></trkpt><trkpt lat="44.1453735" lon="11.3538923"><ele>577.8</ele><time>2026-04-11T15:30:32.496Z</time></trkpt><trkpt lat="44.1454205" lon="11.3537927"><ele>581.0</ele><time>2026-04-11T15:30:33.496Z</time></trkpt><trkpt lat="44.1454658" lon="11.353702"><ele>581.6666666666666</ele><time>2026-04-11T15:30:34.495Z</time></trkpt><trkpt lat="44.1455122" lon="11.353617"><ele>582.3333333333333</ele><time>2026-04-11T15:30:35.496Z</time></trkpt><trkpt lat="44.1455563" lon="11.3535298"><ele>583.0</ele><time>2026-04-11T15:30:36.496Z</time></trkpt><trkpt lat="44.1455985" lon="11.3534362"><ele>583.6666666666666</ele><time>2026-04-11T15:30:37.494Z</time></trkpt><trkpt lat="44.1456387" lon="11.3533433"><ele>584.3333333333334</ele><time>2026-04-11T15:30:38.496Z</time></trkpt><trkpt lat="44.1456802" lon="11.3532503"><ele>585.0</ele><time>2026-04-11T15:30:39.496Z</time></trkpt><trkpt lat="44.1457268" lon="11.3531683"><ele>586.0</ele><time>2026-04-11T15:30:40.495Z</time></trkpt><trkpt lat="44.1457747" lon="11.3530785"><ele>587.0</ele><time>2026-04-11T15:30:41.495Z</time></trkpt><trkpt lat="44.1458257" lon="11.3529855"><ele>588.0</ele><time>2026-04-11T15:30:42.495Z</time></trkpt><trkpt lat="44.1458812" lon="11.3528943"><ele>589.0</ele><time>2026-04-11T15:30:43.496Z</time></trkpt><trkpt lat="44.145936" lon="11.352803"><ele>590.0</ele><time>2026-04-11T15:30:44.495Z</time></trkpt><trkpt lat="44.1459908" lon="11.35271"><ele>591.0</ele><time>2026-04-11T15:30:45.493Z</time></trkpt><trkpt lat="44.1460422" lon="11.3526138"><ele>591.6666666666666</ele><time>2026-04-11T15:30:46.497Z</time></trkpt><trkpt lat="44.1460935" lon="11.352523"><ele>592.3333333333334</ele><time>2026-04-11T15:30:47.495Z</time></trkpt><trkpt lat="44.146145" lon="11.3524333"><ele>593.0</ele><time>2026-04-11T15:30:48.495Z</time></trkpt><trkpt lat="44.1461935" lon="11.3523328"><ele>593.6666666666667</ele><time>2026-04-11T15:30:49.494Z</time></trkpt><trkpt lat="44.1462483" lon="11.3522282"><ele>594.3333333333334</ele><time>2026-04-11T15:30:50.494Z</time></trkpt><trkpt lat="44.1463043" lon="11.3521305"><ele>595.0</ele><time>2026-04-11T15:30:51.492Z</time></trkpt><trkpt lat="44.1464452" lon="11.3518665"><ele>595.0</ele><time>2026-04-11T15:30:54.495Z</time></trkpt><trkpt lat="44.14648" lon="11.351782"><ele>595.0</ele><time>2026-04-11T15:30:55.495Z</time></trkpt><trkpt lat="44.1465475" lon="11.351679"><ele>595.0</ele><time>2026-04-11T15:30:57.497Z</time></trkpt><trkpt lat="44.1466253" lon="11.3516348"><ele>595.0</ele><time>2026-04-11T15:30:59.498Z</time></trkpt><trkpt lat="44.1466965" lon="11.3515477"><ele>595.0</ele><time>2026-04-11T15:31:01.496Z</time></trkpt><trkpt lat="44.1467683" lon="11.3514727"><ele>595.0</ele><time>2026-04-11T15:31:03.496Z</time></trkpt><trkpt lat="44.1468367" lon="11.3513618"><ele>599.2</ele><time>2026-04-11T15:31:05.497Z</time></trkpt><trkpt lat="44.146898" lon="11.3512362"><ele>603.4</ele><time>2026-04-11T15:31:07.495Z</time></trkpt><trkpt lat="44.1469663" lon="11.3511135"><ele>607.6</ele><time>2026-04-11T15:31:09.497Z</time></trkpt><trkpt lat="44.1470277" lon="11.3510075"><ele>611.8</ele><time>2026-04-11T15:31:11.496Z</time></trkpt><trkpt lat="44.14709" lon="11.3509093"><ele>616.0</ele><time>2026-04-11T15:31:13.497Z</time></trkpt><trkpt lat="44.1471522" lon="11.3507798"><ele>616.0</ele><time>2026-04-11T15:31:15.494Z</time></trkpt><trkpt lat="44.1471915" lon="11.3507107"><ele>616.0</ele><time>2026-04-11T15:31:16.492Z</time></trkpt><trkpt lat="44.1472512" lon="11.3505977"><ele>616.0</ele><time>2026-04-11T15:31:18.495Z</time></trkpt><trkpt lat="44.1473115" lon="11.3504783"><ele>616.0</ele><time>2026-04-11T15:31:20.496Z</time></trkpt><trkpt lat="44.1473897" lon="11.3503673"><ele>616.0</ele><time>2026-04-11T15:31:22.496Z</time></trkpt><trkpt lat="44.1474707" lon="11.350255"><ele>620.25</ele><time>2026-04-11T15:31:24.496Z</time></trkpt><trkpt lat="44.1475922" lon="11.3500632"><ele>624.5</ele><time>2026-04-11T15:31:28.496Z</time></trkpt><trkpt lat="44.1476435" lon="11.349936"><ele>628.75</ele><time>2026-04-11T15:31:30.496Z</time></trkpt><trkpt lat="44.1476763" lon="11.3498572"><ele>633.0</ele><time>2026-04-11T15:31:31.498Z</time></trkpt><trkpt lat="44.1477328" lon="11.3497013"><ele>633.0</ele><time>2026-04-11T15:31:33.498Z</time></trkpt><trkpt lat="44.1477602" lon="11.3496208"><ele>633.0</ele><time>2026-04-11T15:31:34.496Z</time></trkpt><trkpt lat="44.1477882" lon="11.3495405"><ele>633.0</ele><time>2026-04-11T15:31:35.496Z</time></trkpt><trkpt lat="44.1478155" lon="11.3494602"><ele>633.0</ele><time>2026-04-11T15:31:36.495Z</time></trkpt><trkpt lat="44.1478502" lon="11.3493822"><ele>633.0</ele><time>2026-04-11T15:31:37.498Z</time></trkpt><trkpt lat="44.1478883" lon="11.3492987"><ele>633.0</ele><time>2026-04-11T15:31:38.495Z</time></trkpt><trkpt lat="44.1479275" lon="11.3492243"><ele>633.0</ele><time>2026-04-11T15:31:39.493Z</time></trkpt><trkpt lat="44.1479683" lon="11.3491435"><ele>633.0</ele><time>2026-04-11T15:31:40.493Z</time></trkpt><trkpt lat="44.1480115" lon="11.3490655"><ele>633.0</ele><time>2026-04-11T15:31:41.494Z</time></trkpt><trkpt lat="44.1480523" lon="11.3489863"><ele>633.0</ele><time>2026-04-11T15:31:42.493Z</time></trkpt><trkpt lat="44.1480898" lon="11.3489085"><ele>633.0</ele><time>2026-04-11T15:31:43.496Z</time></trkpt><trkpt lat="44.148143" lon="11.3487992"><ele>633.0</ele><time>2026-04-11T15:31:45.496Z</time></trkpt><trkpt lat="44.148163" lon="11.3487082"><ele>633.0</ele><time>2026-04-11T15:32:15.502Z</time></trkpt><trkpt lat="44.1482173" lon="11.3486417"><ele>633.0</ele><time>2026-04-11T15:32:17.497Z</time></trkpt><trkpt lat="44.1482667" lon="11.3485452"><ele>635.8</ele><time>2026-04-11T15:32:19.496Z</time></trkpt><trkpt lat="44.1483195" lon="11.3484458"><ele>638.5999999999999</ele><time>2026-04-11T15:32:21.498Z</time></trkpt><trkpt lat="44.1483958" lon="11.348365"><ele>641.4000000000001</ele><time>2026-04-11T15:32:24.5Z</time></trkpt><trkpt lat="44.1484655" lon="11.348289"><ele>644.2</ele><time>2026-04-11T15:32:26.497Z</time></trkpt><trkpt lat="44.1485132" lon="11.3481823"><ele>647.0</ele><time>2026-04-11T15:32:28.494Z</time></trkpt><trkpt lat="44.1485548" lon="11.3480402"><ele>647.75</ele><time>2026-04-11T15:32:30.494Z</time></trkpt><trkpt lat="44.1486198" lon="11.3479057"><ele>648.5</ele><time>2026-04-11T15:32:32.499Z</time></trkpt><trkpt lat="44.1486915" lon="11.3477912"><ele>649.25</ele><time>2026-04-11T15:32:34.496Z</time></trkpt><trkpt lat="44.1487405" lon="11.3476752"><ele>650.0</ele><time>2026-04-11T15:32:36.495Z</time></trkpt><trkpt lat="44.1488848" lon="11.347455"><ele>650.0</ele><time>2026-04-11T15:32:40.496Z</time></trkpt><trkpt lat="44.1489488" lon="11.34732"><ele>650.0</ele><time>2026-04-11T15:32:42.499Z</time></trkpt><trkpt lat="44.1490177" lon="11.3472048"><ele>650.0</ele><time>2026-04-11T15:32:44.496Z</time></trkpt><trkpt lat="44.1490985" lon="11.3470963"><ele>650.0</ele><time>2026-04-11T15:32:46.495Z</time></trkpt><trkpt lat="44.1491867" lon="11.346994"><ele>652.6</ele><time>2026-04-11T15:32:48.497Z</time></trkpt><trkpt lat="44.1492795" lon="11.3469163"><ele>655.2</ele><time>2026-04-11T15:32:50.496Z</time></trkpt><trkpt lat="44.1493658" lon="11.3468487"><ele>657.8</ele><time>2026-04-11T15:32:52.493Z</time></trkpt><trkpt lat="44.1494537" lon="11.3467617"><ele>660.4</ele><time>2026-04-11T15:32:54.493Z</time></trkpt><trkpt lat="44.149541" lon="11.3466823"><ele>663.0</ele><time>2026-04-11T15:32:56.495Z</time></trkpt><trkpt lat="44.149613" lon="11.346577"><ele>663.0</ele><time>2026-04-11T15:32:58.496Z</time></trkpt><trkpt lat="44.1496788" lon="11.3465023"><ele>663.0</ele><time>2026-04-11T15:33:00.495Z</time></trkpt><trkpt lat="44.1497648" lon="11.3464882"><ele>663.0</ele><time>2026-04-11T15:33:02.497Z</time></trkpt><trkpt lat="44.1498375" lon="11.3464703"><ele>663.0</ele><time>2026-04-11T15:33:04.496Z</time></trkpt><trkpt lat="44.1499063" lon="11.3463883"><ele>663.0</ele><time>2026-04-11T15:33:07.497Z</time></trkpt><trkpt lat="44.1499947" lon="11.346366"><ele>663.0</ele><time>2026-04-11T15:33:10.495Z</time></trkpt><trkpt lat="44.1501317" lon="11.3463305"><ele>664.6666666666666</ele><time>2026-04-11T15:33:13.496Z</time></trkpt><trkpt lat="44.1502317" lon="11.3463268"><ele>666.3333333333334</ele><time>2026-04-11T15:33:15.496Z</time></trkpt><trkpt lat="44.1503432" lon="11.3462933"><ele>668.0</ele><time>2026-04-11T15:33:17.494Z</time></trkpt><trkpt lat="44.150415" lon="11.3462712"><ele>669.6666666666667</ele><time>2026-04-11T15:33:18.494Z</time></trkpt><trkpt lat="44.1504867" lon="11.3462447"><ele>671.3333333333334</ele><time>2026-04-11T15:33:19.492Z</time></trkpt><trkpt lat="44.1505502" lon="11.3462033"><ele>673.0</ele><time>2026-04-11T15:33:20.494Z</time></trkpt><trkpt lat="44.1506008" lon="11.3461467"><ele>673.0</ele><time>2026-04-11T15:33:21.495Z</time></trkpt><trkpt lat="44.1506877" lon="11.3460208"><ele>673.0</ele><time>2026-04-11T15:33:23.496Z</time></trkpt><trkpt lat="44.15075" lon="11.3459018"><ele>673.0</ele><time>2026-04-11T15:33:25.495Z</time></trkpt><trkpt lat="44.1508098" lon="11.345761"><ele>673.0</ele><time>2026-04-11T15:33:27.496Z</time></trkpt><trkpt lat="44.1508453" lon="11.3456878"><ele>673.0</ele><time>2026-04-11T15:33:28.496Z</time></trkpt><trkpt lat="44.1508813" lon="11.3456108"><ele>674.7142857142858</ele><time>2026-04-11T15:33:29.497Z</time></trkpt><trkpt lat="44.1509135" lon="11.3455248"><ele>676.4285714285713</ele><time>2026-04-11T15:33:30.496Z</time></trkpt><trkpt lat="44.1509483" lon="11.3454437"><ele>678.1428571428571</ele><time>2026-04-11T15:33:31.496Z</time></trkpt><trkpt lat="44.150992" lon="11.3453587"><ele>679.8571428571429</ele><time>2026-04-11T15:33:32.496Z</time></trkpt><trkpt lat="44.1510363" lon="11.3452773"><ele>681.5714285714287</ele><time>2026-04-11T15:33:33.496Z</time></trkpt><trkpt lat="44.1510833" lon="11.3452103"><ele>683.2857142857142</ele><time>2026-04-11T15:33:34.497Z</time></trkpt><trkpt lat="44.1511372" lon="11.3451538"><ele>685.0</ele><time>2026-04-11T15:33:35.496Z</time></trkpt><trkpt lat="44.1511958" lon="11.3450975"><ele>685.0</ele><time>2026-04-11T15:33:36.496Z</time></trkpt><trkpt lat="44.1512692" lon="11.3450063"><ele>685.0</ele><time>2026-04-11T15:33:38.495Z</time></trkpt><trkpt lat="44.1513247" lon="11.3448915"><ele>685.0</ele><time>2026-04-11T15:33:40.497Z</time></trkpt><trkpt lat="44.1513918" lon="11.3447838"><ele>685.0</ele><time>2026-04-11T15:33:42.494Z</time></trkpt><trkpt lat="44.1514878" lon="11.3447035"><ele>685.0</ele><time>2026-04-11T15:33:46.496Z</time></trkpt><trkpt lat="44.1515475" lon="11.3446707"><ele>685.8333333333334</ele><time>2026-04-11T15:33:50.497Z</time></trkpt><trkpt lat="44.151605" lon="11.3446307"><ele>686.6666666666667</ele><time>2026-04-11T15:33:56.497Z</time></trkpt><trkpt lat="44.1517005" lon="11.3446522"><ele>687.5</ele><time>2026-04-11T15:34:00.497Z</time></trkpt><trkpt lat="44.1518018" lon="11.3447123"><ele>688.3333333333334</ele><time>2026-04-11T15:34:02.497Z</time></trkpt><trkpt lat="44.1518722" lon="11.3447365"><ele>689.1666666666666</ele><time>2026-04-11T15:34:03.497Z</time></trkpt><trkpt lat="44.1519525" lon="11.3447528"><ele>690.0</ele><time>2026-04-11T15:34:04.499Z</time></trkpt><trkpt lat="44.1520393" lon="11.3447638"><ele>690.0</ele><time>2026-04-11T15:34:05.496Z</time></trkpt><trkpt lat="44.152131" lon="11.3447685"><ele>690.0</ele><time>2026-04-11T15:34:06.497Z</time></trkpt><trkpt lat="44.1522263" lon="11.3447723"><ele>690.0</ele><time>2026-04-11T15:34:07.495Z</time></trkpt><trkpt lat="44.1523228" lon="11.3447752"><ele>690.0</ele><time>2026-04-11T15:34:08.497Z</time></trkpt><trkpt lat="44.1524212" lon="11.3447785"><ele>690.0</ele><time>2026-04-11T15:34:09.496Z</time></trkpt><trkpt lat="44.1525195" lon="11.3447812"><ele>690.8</ele><time>2026-04-11T15:34:10.498Z</time></trkpt><trkpt lat="44.152619" lon="11.3447852"><ele>691.6</ele><time>2026-04-11T15:34:11.498Z</time></trkpt><trkpt lat="44.1527197" lon="11.3447868"><ele>692.4000000000001</ele><time>2026-04-11T15:34:12.497Z</time></trkpt><trkpt lat="44.1528167" lon="11.3447845"><ele>693.2</ele><time>2026-04-11T15:34:13.497Z</time></trkpt><trkpt lat="44.1529103" lon="11.3447743"><ele>694.0</ele><time>2026-04-11T15:34:14.498Z</time></trkpt><trkpt lat="44.1530027" lon="11.344755"><ele>694.0</ele><time>2026-04-11T15:34:15.497Z</time></trkpt><trkpt lat="44.1530935" lon="11.3447253"><ele>694.0</ele><time>2026-04-11T15:34:16.497Z</time></trkpt><trkpt lat="44.1531843" lon="11.3446842"><ele>694.0</ele><time>2026-04-11T15:34:17.498Z</time></trkpt><trkpt lat="44.1534612" lon="11.344523"><ele>696.3333333333334</ele><time>2026-04-11T15:34:20.498Z</time></trkpt><trkpt lat="44.1535447" lon="11.3444583"><ele>698.6666666666667</ele><time>2026-04-11T15:34:21.5Z</time></trkpt><trkpt lat="44.1536247" lon="11.344387"><ele>701.0</ele><time>2026-04-11T15:34:22.498Z</time></trkpt><trkpt lat="44.1537007" lon="11.3443142"><ele>703.3333333333334</ele><time>2026-04-11T15:34:23.498Z</time></trkpt><trkpt lat="44.1537682" lon="11.3442435"><ele>705.6666666666666</ele><time>2026-04-11T15:34:24.498Z</time></trkpt><trkpt lat="44.1538162" lon="11.3441713"><ele>708.0</ele><time>2026-04-11T15:34:25.496Z</time></trkpt><trkpt lat="44.153849" lon="11.3440903"><ele>708.0</ele><time>2026-04-11T15:34:26.498Z</time></trkpt><trkpt lat="44.1538712" lon="11.3440015"><ele>708.0</ele><time>2026-04-11T15:34:27.499Z</time></trkpt><trkpt lat="44.1538875" lon="11.3439045"><ele>708.0</ele><time>2026-04-11T15:34:28.496Z</time></trkpt><trkpt lat="44.1539015" lon="11.3438005"><ele>708.0</ele><time>2026-04-11T15:34:29.497Z</time></trkpt><trkpt lat="44.153915" lon="11.343696"><ele>708.0</ele><time>2026-04-11T15:34:30.498Z</time></trkpt><trkpt lat="44.1539357" lon="11.3435902"><ele>708.0</ele><time>2026-04-11T15:34:31.493Z</time></trkpt><trkpt lat="44.1539627" lon="11.3434865"><ele>708.0</ele><time>2026-04-11T15:34:32.496Z</time></trkpt><trkpt lat="44.1539993" lon="11.3434072"><ele>710.4</ele><time>2026-04-11T15:34:33.495Z</time></trkpt><trkpt lat="44.1541042" lon="11.3433268"><ele>712.8</ele><time>2026-04-11T15:34:35.497Z</time></trkpt><trkpt lat="44.154208" lon="11.3432497"><ele>715.2</ele><time>2026-04-11T15:34:37.496Z</time></trkpt><trkpt lat="44.1542582" lon="11.3431942"><ele>717.6</ele><time>2026-04-11T15:34:38.497Z</time></trkpt><trkpt lat="44.1543087" lon="11.3431368"><ele>720.0</ele><time>2026-04-11T15:34:39.497Z</time></trkpt><trkpt lat="44.1543982" lon="11.343126"><ele>720.0</ele><time>2026-04-11T15:34:41.496Z</time></trkpt><trkpt lat="44.1544787" lon="11.343135"><ele>720.0</ele><time>2026-04-11T15:34:43.498Z</time></trkpt><trkpt lat="44.1545507" lon="11.3430465"><ele>720.0</ele><time>2026-04-11T15:34:45.497Z</time></trkpt><trkpt lat="44.1545975" lon="11.3429698"><ele>720.0</ele><time>2026-04-11T15:34:46.497Z</time></trkpt><trkpt lat="44.1546587" lon="11.3428858"><ele>720.0</ele><time>2026-04-11T15:34:47.497Z</time></trkpt><trkpt lat="44.1547297" lon="11.3427988"><ele>720.0</ele><time>2026-04-11T15:34:48.498Z</time></trkpt><trkpt lat="44.154803" lon="11.3427052"><ele>720.25</ele><time>2026-04-11T15:34:49.496Z</time></trkpt><trkpt lat="44.1548688" lon="11.3426065"><ele>720.5</ele><time>2026-04-11T15:34:50.496Z</time></trkpt><trkpt lat="44.1549273" lon="11.3425097"><ele>720.75</ele><time>2026-04-11T15:34:51.496Z</time></trkpt><trkpt lat="44.1551048" lon="11.3422768"><ele>721.0</ele><time>2026-04-11T15:34:54.496Z</time></trkpt><trkpt lat="44.1551653" lon="11.3422252"><ele>723.6666666666667</ele><time>2026-04-11T15:34:55.493Z</time></trkpt><trkpt lat="44.15521" lon="11.3421558"><ele>726.3333333333334</ele><time>2026-04-11T15:34:56.494Z</time></trkpt><trkpt lat="44.1552442" lon="11.3420803"><ele>729.0</ele><time>2026-04-11T15:34:57.494Z</time></trkpt><trkpt lat="44.1553083" lon="11.3419687"><ele>731.6666666666666</ele><time>2026-04-11T15:34:59.497Z</time></trkpt><trkpt lat="44.1553775" lon="11.3419475"><ele>734.3333333333333</ele><time>2026-04-11T15:35:01.497Z</time></trkpt><trkpt lat="44.1554668" lon="11.3419687"><ele>737.0</ele><time>2026-04-11T15:35:03.496Z</time></trkpt><trkpt lat="44.1555937" lon="11.341991"><ele>738.0</ele><time>2026-04-11T15:35:05.496Z</time></trkpt><trkpt lat="44.1557043" lon="11.3419625"><ele>739.0</ele><time>2026-04-11T15:35:07.495Z</time></trkpt><trkpt lat="44.1557932" lon="11.341892"><ele>740.0</ele><time>2026-04-11T15:35:09.496Z</time></trkpt><trkpt lat="44.155881" lon="11.341797"><ele>741.0</ele><time>2026-04-11T15:35:11.495Z</time></trkpt><trkpt lat="44.1559598" lon="11.341674"><ele>742.0</ele><time>2026-04-11T15:35:13.495Z</time></trkpt><trkpt lat="44.156039" lon="11.3416057"><ele>742.0</ele><time>2026-04-11T15:35:15.495Z</time></trkpt><trkpt lat="44.156106" lon="11.3416195"><ele>742.0</ele><time>2026-04-11T15:35:17.495Z</time></trkpt><trkpt lat="44.1562183" lon="11.3415705"><ele>742.0</ele><time>2026-04-11T15:35:19.493Z</time></trkpt><trkpt lat="44.1562852" lon="11.3415137"><ele>742.0</ele><time>2026-04-11T15:35:20.493Z</time></trkpt><trkpt lat="44.1563525" lon="11.3414433"><ele>742.0</ele><time>2026-04-11T15:35:21.493Z</time></trkpt><trkpt lat="44.156419" lon="11.3413652"><ele>742.0</ele><time>2026-04-11T15:35:22.492Z</time></trkpt><trkpt lat="44.1564935" lon="11.341288"><ele>745.6666666666667</ele><time>2026-04-11T15:35:23.495Z</time></trkpt><trkpt lat="44.1565698" lon="11.3412173"><ele>749.3333333333334</ele><time>2026-04-11T15:35:24.495Z</time></trkpt><trkpt lat="44.1566485" lon="11.341151"><ele>753.0</ele><time>2026-04-11T15:35:25.495Z</time></trkpt><trkpt lat="44.156872" lon="11.3409287"><ele>753.0</ele><time>2026-04-11T15:35:28.495Z</time></trkpt><trkpt lat="44.1569508" lon="11.3408785"><ele>753.0</ele><time>2026-04-11T15:35:29.496Z</time></trkpt><trkpt lat="44.1570362" lon="11.3408365"><ele>753.0</ele><time>2026-04-11T15:35:30.499Z</time></trkpt><trkpt lat="44.1571228" lon="11.3407967"><ele>753.0</ele><time>2026-04-11T15:35:31.496Z</time></trkpt><trkpt lat="44.1572078" lon="11.3407617"><ele>753.0</ele><time>2026-04-11T15:35:32.495Z</time></trkpt><trkpt lat="44.1572895" lon="11.3407242"><ele>753.0</ele><time>2026-04-11T15:35:33.495Z</time></trkpt><trkpt lat="44.157362" lon="11.3406703"><ele>753.6666666666666</ele><time>2026-04-11T15:35:34.494Z</time></trkpt><trkpt lat="44.1574292" lon="11.340601"><ele>754.3333333333334</ele><time>2026-04-11T15:35:35.496Z</time></trkpt><trkpt lat="44.1574978" lon="11.3405207"><ele>755.0</ele><time>2026-04-11T15:35:36.495Z</time></trkpt><trkpt lat="44.1575732" lon="11.34044"><ele>755.6666666666667</ele><time>2026-04-11T15:35:37.494Z</time></trkpt><trkpt lat="44.1576487" lon="11.340373"><ele>756.3333333333334</ele><time>2026-04-11T15:35:38.496Z</time></trkpt><trkpt lat="44.157724" lon="11.3403308"><ele>757.0</ele><time>2026-04-11T15:35:39.496Z</time></trkpt><trkpt lat="44.1578085" lon="11.3403065"><ele>758.6</ele><time>2026-04-11T15:35:40.496Z</time></trkpt><trkpt lat="44.1579048" lon="11.340297"><ele>760.2</ele><time>2026-04-11T15:35:41.5Z</time></trkpt><trkpt lat="44.1580047" lon="11.3402903"><ele>761.8</ele><time>2026-04-11T15:35:42.496Z</time></trkpt><trkpt lat="44.1581057" lon="11.3402795"><ele>763.4</ele><time>2026-04-11T15:35:43.494Z</time></trkpt><trkpt lat="44.158203" lon="11.3402722"><ele>765.0</ele><time>2026-04-11T15:35:44.493Z</time></trkpt><trkpt lat="44.1583013" lon="11.3402608"><ele>765.4</ele><time>2026-04-11T15:35:45.495Z</time></trkpt><trkpt lat="44.1583965" lon="11.3402427"><ele>765.8</ele><time>2026-04-11T15:35:46.493Z</time></trkpt><trkpt lat="44.1584903" lon="11.3402157"><ele>766.2</ele><time>2026-04-11T15:35:47.494Z</time></trkpt><trkpt lat="44.1585848" lon="11.3401952"><ele>766.6</ele><time>2026-04-11T15:35:48.497Z</time></trkpt><trkpt lat="44.1586725" lon="11.340187"><ele>767.0</ele><time>2026-04-11T15:35:49.496Z</time></trkpt><trkpt lat="44.1587553" lon="11.3401863"><ele>767.0</ele><time>2026-04-11T15:35:50.496Z</time></trkpt><trkpt lat="44.1588327" lon="11.3401835"><ele>767.0</ele><time>2026-04-11T15:35:51.498Z</time></trkpt><trkpt lat="44.15891" lon="11.3401798"><ele>767.0</ele><time>2026-04-11T15:35:52.496Z</time></trkpt><trkpt lat="44.1589847" lon="11.340175"><ele>767.0</ele><time>2026-04-11T15:35:53.494Z</time></trkpt><trkpt lat="44.15906" lon="11.3401557"><ele>767.0</ele><time>2026-04-11T15:35:54.495Z</time></trkpt><trkpt lat="44.1591385" lon="11.3401108"><ele>767.0</ele><time>2026-04-11T15:35:55.496Z</time></trkpt><trkpt lat="44.159215" lon="11.3400433"><ele>767.25</ele><time>2026-04-11T15:35:56.496Z</time></trkpt><trkpt lat="44.1592992" lon="11.3399728"><ele>767.5</ele><time>2026-04-11T15:35:57.495Z</time></trkpt><trkpt lat="44.159378" lon="11.3399057"><ele>767.75</ele><time>2026-04-11T15:35:58.495Z</time></trkpt><trkpt lat="44.159449" lon="11.3398427"><ele>768.0</ele><time>2026-04-11T15:35:59.497Z</time></trkpt><trkpt lat="44.1596092" lon="11.3396952"><ele>773.0</ele><time>2026-04-11T15:36:02.496Z</time></trkpt><trkpt lat="44.1597338" lon="11.3394947"><ele>778.0</ele><time>2026-04-11T15:36:53.498Z</time></trkpt><trkpt lat="44.1597112" lon="11.3387188"><ele>786.0</ele><time>2026-04-11T15:37:00.494Z</time></trkpt><trkpt lat="44.1596565" lon="11.3379373"><ele>786.0</ele><time>2026-04-11T15:37:07.496Z</time></trkpt><trkpt lat="44.1596308" lon="11.3378295"><ele>786.0</ele><time>2026-04-11T15:37:08.496Z</time></trkpt><trkpt lat="44.159422" lon="11.3369965"><ele>789.5</ele><time>2026-04-11T15:37:15.497Z</time></trkpt><trkpt lat="44.1593883" lon="11.3368852"><ele>793.0</ele><time>2026-04-11T15:37:16.495Z</time></trkpt><trkpt lat="44.1591307" lon="11.336496"><ele>796.5</ele><time>2026-04-11T15:37:21.496Z</time></trkpt><trkpt lat="44.1590845" lon="11.3363312"><ele>800.0</ele><time>2026-04-11T15:37:23.495Z</time></trkpt><trkpt lat="44.159036" lon="11.3357753"><ele>801.0</ele><time>2026-04-11T15:37:28.497Z</time></trkpt><trkpt lat="44.1590303" lon="11.3356578"><ele>802.0</ele><time>2026-04-11T15:37:29.497Z</time></trkpt><trkpt lat="44.1590113" lon="11.3352072"><ele>803.0</ele><time>2026-04-11T15:37:33.497Z</time></trkpt><trkpt lat="44.1590223" lon="11.3349538"><ele>804.0</ele><time>2026-04-11T15:37:36.497Z</time></trkpt><trkpt lat="44.1590722" lon="11.3348252"><ele>805.0</ele><time>2026-04-11T15:37:38.497Z</time></trkpt><trkpt lat="44.1593305" lon="11.3345905"><ele>806.0</ele><time>2026-04-11T15:37:43.496Z</time></trkpt><trkpt lat="44.1593942" lon="11.334595"><ele>807.6666666666667</ele><time>2026-04-11T15:37:44.497Z</time></trkpt><trkpt lat="44.1596115" lon="11.3345263"><ele>809.3333333333333</ele><time>2026-04-11T15:37:48.495Z</time></trkpt><trkpt lat="44.1597782" lon="11.3343215"><ele>811.0</ele><time>2026-04-11T15:37:52.496Z</time></trkpt><trkpt lat="44.1598733" lon="11.3342362"><ele>811.5</ele><time>2026-04-11T15:37:54.495Z</time></trkpt><trkpt lat="44.1602683" lon="11.3343568"><ele>812.0</ele><time>2026-04-11T15:38:02.495Z</time></trkpt><trkpt lat="44.16081" lon="11.3343402"><ele>828.0</ele><time>2026-04-11T15:38:09.495Z</time></trkpt><trkpt lat="44.1611518" lon="11.333179"><ele>828.0</ele><time>2026-04-11T15:38:19.497Z</time></trkpt><trkpt lat="44.1612343" lon="11.333116"><ele>828.0</ele><time>2026-04-11T15:38:20.495Z</time></trkpt><trkpt lat="44.1618427" lon="11.3328465"><ele>835.5</ele><time>2026-04-11T15:38:26.495Z</time></trkpt><trkpt lat="44.1619292" lon="11.3328147"><ele>843.0</ele><time>2026-04-11T15:38:27.499Z</time></trkpt><trkpt lat="44.1625998" lon="11.3328578"><ele>843.0</ele><time>2026-04-11T15:38:33.496Z</time></trkpt><trkpt lat="44.1626968" lon="11.3328813"><ele>843.0</ele><time>2026-04-11T15:38:34.495Z</time></trkpt><trkpt lat="44.1629933" lon="11.3329163"><ele>843.0</ele><time>2026-04-11T15:38:38.493Z</time></trkpt><trkpt lat="44.1631085" lon="11.3328733"><ele>843.0</ele><time>2026-04-11T15:38:40.494Z</time></trkpt><trkpt lat="44.1631822" lon="11.3328278"><ele>843.0</ele><time>2026-04-11T15:38:41.496Z</time></trkpt><trkpt lat="44.1635408" lon="11.332869"><ele>843.0</ele><time>2026-04-11T15:38:46.494Z</time></trkpt><trkpt lat="44.1636087" lon="11.3328975"><ele>844.3333333333333</ele><time>2026-04-11T15:38:47.494Z</time></trkpt><trkpt lat="44.1638642" lon="11.3330528"><ele>845.6666666666666</ele><time>2026-04-11T15:38:51.493Z</time></trkpt><trkpt lat="44.163924" lon="11.333119"><ele>847.0</ele><time>2026-04-11T15:38:52.495Z</time></trkpt><trkpt lat="44.1641627" lon="11.3335355"><ele>847.0</ele><time>2026-04-11T15:38:57.493Z</time></trkpt><trkpt lat="44.1641745" lon="11.3336477"><ele>847.0</ele><time>2026-04-11T15:38:58.494Z</time></trkpt><trkpt lat="44.1641598" lon="11.3344695"><ele>847.0</ele><time>2026-04-11T15:39:05.497Z</time></trkpt><trkpt lat="44.1641123" lon="11.3348088"><ele>847.0</ele><time>2026-04-11T15:39:08.494Z</time></trkpt><trkpt lat="44.1641728" lon="11.336281"><ele>845.5</ele><time>2026-04-11T15:39:20.493Z</time></trkpt><trkpt lat="44.1642173" lon="11.3364388"><ele>844.0</ele><time>2026-04-11T15:39:22.492Z</time></trkpt><trkpt lat="44.1642383" lon="11.3365258"><ele>842.5</ele><time>2026-04-11T15:39:23.491Z</time></trkpt><trkpt lat="44.164341" lon="11.3368045"><ele>841.0</ele><time>2026-04-11T15:39:26.489Z</time></trkpt><trkpt lat="44.164379" lon="11.3368912"><ele>841.0</ele><time>2026-04-11T15:39:27.49Z</time></trkpt><trkpt lat="44.1645028" lon="11.3371523"><ele>841.0</ele><time>2026-04-11T15:39:33.493Z</time></trkpt><trkpt lat="44.164438" lon="11.3369627"><ele>841.0</ele><time>2026-04-11T15:40:12.496Z</time></trkpt><trkpt lat="44.1643813" lon="11.336834"><ele>841.0</ele><time>2026-04-11T15:40:14.489Z</time></trkpt><trkpt lat="44.1642455" lon="11.3364602"><ele>841.0</ele><time>2026-04-11T15:40:19.493Z</time></trkpt><trkpt lat="44.1644072" lon="11.3360498"><ele>843.0</ele><time>2026-04-11T15:40:24.491Z</time></trkpt><trkpt lat="44.1644702" lon="11.3359665"><ele>845.0</ele><time>2026-04-11T15:40:25.492Z</time></trkpt><trkpt lat="44.1648032" lon="11.3355332"><ele>846.5</ele><time>2026-04-11T15:40:30.492Z</time></trkpt><trkpt lat="44.1648783" lon="11.3354615"><ele>848.0</ele><time>2026-04-11T15:40:31.492Z</time></trkpt><trkpt lat="44.1649577" lon="11.3353987"><ele>849.5</ele><time>2026-04-11T15:40:32.493Z</time></trkpt><trkpt lat="44.165156" lon="11.335266"><ele>851.0</ele><time>2026-04-11T15:40:35.492Z</time></trkpt><trkpt lat="44.1653113" lon="11.3350827"><ele>850.0</ele><time>2026-04-11T15:40:51.495Z</time></trkpt><trkpt lat="44.1650558" lon="11.3345885"><ele>849.0</ele><time>2026-04-11T15:40:58.492Z</time></trkpt><trkpt lat="44.164802" lon="11.3343543"><ele>849.0</ele><time>2026-04-11T15:41:04.492Z</time></trkpt><trkpt lat="44.1646878" lon="11.3342865"><ele>849.0</ele><time>2026-04-11T15:41:07.493Z</time></trkpt><trkpt lat="44.1646642" lon="11.3341847"><ele>849.0</ele><time>2026-04-11T15:42:53.493Z</time></trkpt><trkpt lat="44.1647315" lon="11.3343003"><ele>849.0</ele><time>2026-04-11T15:42:58.492Z</time></trkpt><trkpt lat="44.1648805" lon="11.334364"><ele>849.6666666666667</ele><time>2026-04-11T15:43:01.492Z</time></trkpt><trkpt lat="44.1651092" lon="11.3347007"><ele>850.3333333333334</ele><time>2026-04-11T15:43:05.492Z</time></trkpt><trkpt lat="44.1651747" lon="11.3348045"><ele>851.0</ele><time>2026-04-11T15:43:06.492Z</time></trkpt><trkpt lat="44.1652925" lon="11.3350395"><ele>851.0</ele><time>2026-04-11T15:43:08.494Z</time></trkpt><trkpt lat="44.1653337" lon="11.3351762"><ele>851.0</ele><time>2026-04-11T15:43:09.493Z</time></trkpt><trkpt lat="44.1654132" lon="11.3357767"><ele>851.5</ele><time>2026-04-11T15:43:13.492Z</time></trkpt><trkpt lat="44.1654452" lon="11.3360238"><ele>852.0</ele><time>2026-04-11T15:43:15.492Z</time></trkpt><trkpt lat="44.1656225" lon="11.3363707"><ele>853.5</ele><time>2026-04-11T15:43:19.492Z</time></trkpt><trkpt lat="44.1658037" lon="11.3365992"><ele>855.0</ele><time>2026-04-11T15:43:23.49Z</time></trkpt><trkpt lat="44.166203" lon="11.3363985"><ele>856.3333333333333</ele><time>2026-04-11T15:43:30.488Z</time></trkpt><trkpt lat="44.1662793" lon="11.3363595"><ele>857.6666666666666</ele><time>2026-04-11T15:43:31.489Z</time></trkpt><trkpt lat="44.166408" lon="11.3363262"><ele>859.0</ele><time>2026-04-11T15:43:33.49Z</time></trkpt><trkpt lat="44.1666197" lon="11.3364985"><ele>859.0</ele><time>2026-04-11T15:43:37.49Z</time></trkpt><trkpt lat="44.166638" lon="11.3365855"><ele>859.0</ele><time>2026-04-11T15:43:38.491Z</time></trkpt><trkpt lat="44.1668682" lon="11.3370765"><ele>859.0</ele><time>2026-04-11T15:43:44.49Z</time></trkpt><trkpt lat="44.1669303" lon="11.3371175"><ele>859.0</ele><time>2026-04-11T15:43:45.492Z</time></trkpt><trkpt lat="44.1670495" lon="11.3371932"><ele>859.0</ele><time>2026-04-11T15:43:47.492Z</time></trkpt><trkpt lat="44.1674147" lon="11.337601"><ele>863.6666666666666</ele><time>2026-04-11T15:43:52.49Z</time></trkpt><trkpt lat="44.167488" lon="11.3376772"><ele>868.3333333333333</ele><time>2026-04-11T15:43:53.489Z</time></trkpt><trkpt lat="44.1675665" lon="11.3377492"><ele>873.0</ele><time>2026-04-11T15:43:54.489Z</time></trkpt><trkpt lat="44.16801" lon="11.3381662"><ele>874.0</ele><time>2026-04-11T15:43:59.492Z</time></trkpt><trkpt lat="44.1681075" lon="11.3382697"><ele>875.0</ele><time>2026-04-11T15:44:00.492Z</time></trkpt><trkpt lat="44.1682032" lon="11.3383792"><ele>876.0</ele><time>2026-04-11T15:44:01.492Z</time></trkpt><trkpt lat="44.1686187" lon="11.3390515"><ele>899.0</ele><time>2026-04-11T15:44:07.492Z</time></trkpt><trkpt lat="44.1691943" lon="11.339477"><ele>899.0</ele><time>2026-04-11T15:44:14.493Z</time></trkpt><trkpt lat="44.1692683" lon="11.3395682"><ele>899.0</ele><time>2026-04-11T15:44:15.492Z</time></trkpt><trkpt lat="44.1698973" lon="11.340661"><ele>927.0</ele><time>2026-04-11T15:44:24.492Z</time></trkpt><trkpt lat="44.1704112" lon="11.3410097"><ele>940.0</ele><time>2026-04-11T15:44:32.49Z</time></trkpt><trkpt lat="44.1708523" lon="11.3412588"><ele>940.0</ele><time>2026-04-11T15:44:38.49Z</time></trkpt><trkpt lat="44.1709523" lon="11.3412378"><ele>940.0</ele><time>2026-04-11T15:44:39.49Z</time></trkpt><trkpt lat="44.1718652" lon="11.3415815"><ele>966.0</ele><time>2026-04-11T15:44:48.494Z</time></trkpt><trkpt lat="44.1725598" lon="11.3418712"><ele>966.0</ele><time>2026-04-11T15:44:56.495Z</time></trkpt><trkpt lat="44.1728667" lon="11.3418445"><ele>966.0</ele><time>2026-04-11T15:45:00.492Z</time></trkpt><trkpt lat="44.1729443" lon="11.3418387"><ele>966.0</ele><time>2026-04-11T15:45:01.492Z</time></trkpt><trkpt lat="44.1732255" lon="11.3419133"><ele>957.0</ele><time>2026-04-11T15:45:06.495Z</time></trkpt><trkpt lat="44.1736228" lon="11.343072"><ele>957.0</ele><time>2026-04-11T15:45:15.496Z</time></trkpt><trkpt lat="44.1736895" lon="11.3432138"><ele>957.0</ele><time>2026-04-11T15:45:16.495Z</time></trkpt><trkpt lat="44.1753508" lon="11.3443212"><ele>946.5</ele><time>2026-04-11T15:45:31.493Z</time></trkpt><trkpt lat="44.1755915" lon="11.3443882"><ele>936.0</ele><time>2026-04-11T15:45:33.495Z</time></trkpt><trkpt lat="44.1758247" lon="11.3444783"><ele>931.5</ele><time>2026-04-11T15:45:35.493Z</time></trkpt><trkpt lat="44.1760532" lon="11.3445975"><ele>927.0</ele><time>2026-04-11T15:45:37.494Z</time></trkpt><trkpt lat="44.176908" lon="11.3452798"><ele>927.0</ele><time>2026-04-11T15:45:45.496Z</time></trkpt><trkpt lat="44.176997" lon="11.3453928"><ele>927.0</ele><time>2026-04-11T15:45:46.495Z</time></trkpt><trkpt lat="44.1781187" lon="11.3459373"><ele>925.2</ele><time>2026-04-11T15:45:56.493Z</time></trkpt><trkpt lat="44.1782153" lon="11.3460005"><ele>923.4000000000001</ele><time>2026-04-11T15:45:57.492Z</time></trkpt><trkpt lat="44.1782957" lon="11.3460898"><ele>921.5999999999999</ele><time>2026-04-11T15:45:58.492Z</time></trkpt><trkpt lat="44.1783577" lon="11.3462022"><ele>919.8</ele><time>2026-04-11T15:45:59.493Z</time></trkpt><trkpt lat="44.178397" lon="11.346332"><ele>918.0</ele><time>2026-04-11T15:46:00.495Z</time></trkpt><trkpt lat="44.1784293" lon="11.346466"><ele>918.0</ele><time>2026-04-11T15:46:01.494Z</time></trkpt><trkpt lat="44.1784747" lon="11.3465962"><ele>918.0</ele><time>2026-04-11T15:46:02.494Z</time></trkpt><trkpt lat="44.1785438" lon="11.3467098"><ele>918.0</ele><time>2026-04-11T15:46:03.495Z</time></trkpt><trkpt lat="44.178636" lon="11.3467957"><ele>918.0</ele><time>2026-04-11T15:46:04.494Z</time></trkpt><trkpt lat="44.1787447" lon="11.3468503"><ele>918.0</ele><time>2026-04-11T15:46:05.495Z</time></trkpt><trkpt lat="44.1788653" lon="11.346879"><ele>918.0</ele><time>2026-04-11T15:46:06.494Z</time></trkpt><trkpt lat="44.1789912" lon="11.346897"><ele>918.0</ele><time>2026-04-11T15:46:07.494Z</time></trkpt><trkpt lat="44.1791128" lon="11.3469118"><ele>918.0</ele><time>2026-04-11T15:46:08.496Z</time></trkpt><trkpt lat="44.1793363" lon="11.346953"><ele>917.8</ele><time>2026-04-11T15:46:10.493Z</time></trkpt><trkpt lat="44.1794353" lon="11.3470043"><ele>917.5999999999999</ele><time>2026-04-11T15:46:11.495Z</time></trkpt><trkpt lat="44.179523" lon="11.347092"><ele>917.4000000000001</ele><time>2026-04-11T15:46:12.494Z</time></trkpt><trkpt lat="44.1795908" lon="11.3472125"><ele>917.2</ele><time>2026-04-11T15:46:13.496Z</time></trkpt><trkpt lat="44.1796423" lon="11.3473478"><ele>917.0</ele><time>2026-04-11T15:46:14.495Z</time></trkpt><trkpt lat="44.179696" lon="11.3474733"><ele>917.0</ele><time>2026-04-11T15:46:15.494Z</time></trkpt><trkpt lat="44.1797643" lon="11.3475773"><ele>917.0</ele><time>2026-04-11T15:46:16.495Z</time></trkpt><trkpt lat="44.179852" lon="11.3476485"><ele>917.0</ele><time>2026-04-11T15:46:17.494Z</time></trkpt><trkpt lat="44.179958" lon="11.3476862"><ele>917.0</ele><time>2026-04-11T15:46:18.494Z</time></trkpt><trkpt lat="44.1800753" lon="11.3477005"><ele>917.0</ele><time>2026-04-11T15:46:19.494Z</time></trkpt><trkpt lat="44.1802005" lon="11.347707"><ele>912.25</ele><time>2026-04-11T15:46:20.494Z</time></trkpt><trkpt lat="44.1803268" lon="11.3477175"><ele>907.5</ele><time>2026-04-11T15:46:21.492Z</time></trkpt><trkpt lat="44.1804497" lon="11.3477278"><ele>902.75</ele><time>2026-04-11T15:46:22.492Z</time></trkpt><trkpt lat="44.180569" lon="11.347737"><ele>898.0</ele><time>2026-04-11T15:46:23.492Z</time></trkpt><trkpt lat="44.1806847" lon="11.347754"><ele>895.0</ele><time>2026-04-11T15:46:24.493Z</time></trkpt><trkpt lat="44.180797" lon="11.3477897"><ele>892.0</ele><time>2026-04-11T15:46:25.494Z</time></trkpt><trkpt lat="44.1809072" lon="11.3478427"><ele>889.0</ele><time>2026-04-11T15:46:26.495Z</time></trkpt><trkpt lat="44.1810143" lon="11.3479098"><ele>886.0</ele><time>2026-04-11T15:46:27.494Z</time></trkpt><trkpt lat="44.1811192" lon="11.3479877"><ele>887.0</ele><time>2026-04-11T15:46:28.495Z</time></trkpt><trkpt lat="44.1812225" lon="11.348072"><ele>888.0</ele><time>2026-04-11T15:46:29.496Z</time></trkpt><trkpt lat="44.1813252" lon="11.3481593"><ele>889.0</ele><time>2026-04-11T15:46:30.495Z</time></trkpt><trkpt lat="44.181429" lon="11.3482463"><ele>890.0</ele><time>2026-04-11T15:46:31.496Z</time></trkpt><trkpt lat="44.181533" lon="11.3483312"><ele>890.0</ele><time>2026-04-11T15:46:32.496Z</time></trkpt><trkpt lat="44.1816348" lon="11.3484162"><ele>890.0</ele><time>2026-04-11T15:46:33.495Z</time></trkpt><trkpt lat="44.1817313" lon="11.3485003"><ele>890.0</ele><time>2026-04-11T15:46:34.495Z</time></trkpt><trkpt lat="44.1818215" lon="11.3485862"><ele>890.0</ele><time>2026-04-11T15:46:35.497Z</time></trkpt><trkpt lat="44.1819025" lon="11.3486863"><ele>890.0</ele><time>2026-04-11T15:46:36.481Z</time></trkpt><trkpt lat="44.181969" lon="11.3487995"><ele>890.0</ele><time>2026-04-11T15:46:37.495Z</time></trkpt><trkpt lat="44.1820232" lon="11.3489162"><ele>890.0</ele><time>2026-04-11T15:46:38.497Z</time></trkpt><trkpt lat="44.1820707" lon="11.3490385"><ele>890.0</ele><time>2026-04-11T15:46:39.496Z</time></trkpt><trkpt lat="44.1821218" lon="11.349165"><ele>890.0</ele><time>2026-04-11T15:46:40.496Z</time></trkpt><trkpt lat="44.1821807" lon="11.349291"><ele>889.0</ele><time>2026-04-11T15:46:41.496Z</time></trkpt><trkpt lat="44.1823247" lon="11.3495432"><ele>888.0</ele><time>2026-04-11T15:46:43.495Z</time></trkpt><trkpt lat="44.1824005" lon="11.3496768"><ele>887.0</ele><time>2026-04-11T15:46:44.494Z</time></trkpt><trkpt lat="44.1824793" lon="11.3498137"><ele>887.0</ele><time>2026-04-11T15:46:45.492Z</time></trkpt><trkpt lat="44.182564" lon="11.349948"><ele>887.0</ele><time>2026-04-11T15:46:46.492Z</time></trkpt><trkpt lat="44.1826522" lon="11.3500705"><ele>887.0</ele><time>2026-04-11T15:46:47.492Z</time></trkpt><trkpt lat="44.1827428" lon="11.3501835"><ele>887.0</ele><time>2026-04-11T15:46:48.492Z</time></trkpt><trkpt lat="44.1828357" lon="11.3502943"><ele>887.0</ele><time>2026-04-11T15:46:49.495Z</time></trkpt><trkpt lat="44.1829332" lon="11.3504047"><ele>887.0</ele><time>2026-04-11T15:46:50.494Z</time></trkpt><trkpt lat="44.1830348" lon="11.3505157"><ele>887.0</ele><time>2026-04-11T15:46:51.494Z</time></trkpt><trkpt lat="44.183138" lon="11.3506298"><ele>887.0</ele><time>2026-04-11T15:46:52.493Z</time></trkpt><trkpt lat="44.1832422" lon="11.3507432"><ele>884.75</ele><time>2026-04-11T15:46:53.496Z</time></trkpt><trkpt lat="44.1833462" lon="11.3508572"><ele>882.5</ele><time>2026-04-11T15:46:54.494Z</time></trkpt><trkpt lat="44.183452" lon="11.3509737"><ele>880.25</ele><time>2026-04-11T15:46:55.494Z</time></trkpt><trkpt lat="44.1835593" lon="11.3510878"><ele>878.0</ele><time>2026-04-11T15:46:56.494Z</time></trkpt><trkpt lat="44.1836682" lon="11.3511975"><ele>878.0</ele><time>2026-04-11T15:46:57.495Z</time></trkpt><trkpt lat="44.1837767" lon="11.3513008"><ele>878.0</ele><time>2026-04-11T15:46:58.495Z</time></trkpt><trkpt lat="44.183884" lon="11.3513978"><ele>878.0</ele><time>2026-04-11T15:46:59.495Z</time></trkpt><trkpt lat="44.1839908" lon="11.3514863"><ele>878.0</ele><time>2026-04-11T15:47:00.496Z</time></trkpt><trkpt lat="44.184098" lon="11.3515685"><ele>876.5</ele><time>2026-04-11T15:47:01.495Z</time></trkpt><trkpt lat="44.1842035" lon="11.3516485"><ele>875.0</ele><time>2026-04-11T15:47:02.496Z</time></trkpt><trkpt lat="44.1843078" lon="11.3517293"><ele>873.5</ele><time>2026-04-11T15:47:03.495Z</time></trkpt><trkpt lat="44.1844083" lon="11.3518177"><ele>872.0</ele><time>2026-04-11T15:47:04.494Z</time></trkpt><trkpt lat="44.1845007" lon="11.3519225"><ele>872.0</ele><time>2026-04-11T15:47:05.495Z</time></trkpt><trkpt lat="44.1845765" lon="11.3520455"><ele>872.0</ele><time>2026-04-11T15:47:06.495Z</time></trkpt><trkpt lat="44.1846412" lon="11.3521795"><ele>872.0</ele><time>2026-04-11T15:47:07.496Z</time></trkpt><trkpt lat="44.1847112" lon="11.3523147"><ele>872.0</ele><time>2026-04-11T15:47:08.495Z</time></trkpt><trkpt lat="44.1847957" lon="11.3524402"><ele>870.5</ele><time>2026-04-11T15:47:09.493Z</time></trkpt><trkpt lat="44.1848908" lon="11.352553"><ele>869.0</ele><time>2026-04-11T15:47:10.492Z</time></trkpt><trkpt lat="44.184987" lon="11.3526517"><ele>867.5</ele><time>2026-04-11T15:47:11.492Z</time></trkpt><trkpt lat="44.1850807" lon="11.3527432"><ele>866.0</ele><time>2026-04-11T15:47:12.493Z</time></trkpt><trkpt lat="44.1851748" lon="11.352825"><ele>866.0</ele><time>2026-04-11T15:47:13.494Z</time></trkpt><trkpt lat="44.1852788" lon="11.3528952"><ele>866.0</ele><time>2026-04-11T15:47:14.497Z</time></trkpt><trkpt lat="44.1855167" lon="11.3529828"><ele>866.0</ele><time>2026-04-11T15:47:16.495Z</time></trkpt><trkpt lat="44.185644" lon="11.3529907"><ele>863.75</ele><time>2026-04-11T15:47:17.496Z</time></trkpt><trkpt lat="44.1857747" lon="11.3529792"><ele>861.5</ele><time>2026-04-11T15:47:18.496Z</time></trkpt><trkpt lat="44.1859057" lon="11.352957"><ele>859.25</ele><time>2026-04-11T15:47:19.495Z</time></trkpt><trkpt lat="44.1860357" lon="11.3529333"><ele>857.0</ele><time>2026-04-11T15:47:20.495Z</time></trkpt><trkpt lat="44.186164" lon="11.3529127"><ele>857.0</ele><time>2026-04-11T15:47:21.495Z</time></trkpt><trkpt lat="44.1862897" lon="11.3528927"><ele>857.0</ele><time>2026-04-11T15:47:22.495Z</time></trkpt><trkpt lat="44.1864108" lon="11.3528702"><ele>857.0</ele><time>2026-04-11T15:47:23.496Z</time></trkpt><trkpt lat="44.1865297" lon="11.352847"><ele>857.0</ele><time>2026-04-11T15:47:24.495Z</time></trkpt><trkpt lat="44.1866485" lon="11.3528248"><ele>855.25</ele><time>2026-04-11T15:47:25.497Z</time></trkpt><trkpt lat="44.1867678" lon="11.3528035"><ele>853.5</ele><time>2026-04-11T15:47:26.497Z</time></trkpt><trkpt lat="44.1868862" lon="11.35278"><ele>851.75</ele><time>2026-04-11T15:47:27.496Z</time></trkpt><trkpt lat="44.1870032" lon="11.3527562"><ele>850.0</ele><time>2026-04-11T15:47:28.494Z</time></trkpt><trkpt lat="44.1871182" lon="11.3527412"><ele>850.0</ele><time>2026-04-11T15:47:29.496Z</time></trkpt><trkpt lat="44.1872325" lon="11.352744"><ele>850.0</ele><time>2026-04-11T15:47:30.495Z</time></trkpt><trkpt lat="44.1873465" lon="11.3527687"><ele>850.0</ele><time>2026-04-11T15:47:31.495Z</time></trkpt><trkpt lat="44.1874525" lon="11.3528223"><ele>850.0</ele><time>2026-04-11T15:47:32.495Z</time></trkpt><trkpt lat="44.1875477" lon="11.3529033"><ele>850.2</ele><time>2026-04-11T15:47:33.495Z</time></trkpt><trkpt lat="44.1876308" lon="11.353007"><ele>850.4</ele><time>2026-04-11T15:47:34.494Z</time></trkpt><trkpt lat="44.1877005" lon="11.3531252"><ele>850.5999999999999</ele><time>2026-04-11T15:47:35.494Z</time></trkpt><trkpt lat="44.1877578" lon="11.3532582"><ele>850.8</ele><time>2026-04-11T15:47:36.493Z</time></trkpt><trkpt lat="44.1878037" lon="11.3534047"><ele>851.0</ele><time>2026-04-11T15:47:37.494Z</time></trkpt><trkpt lat="44.187836" lon="11.3535613"><ele>851.0</ele><time>2026-04-11T15:47:38.496Z</time></trkpt><trkpt lat="44.1878623" lon="11.353725"><ele>851.0</ele><time>2026-04-11T15:47:39.496Z</time></trkpt><trkpt lat="44.1878925" lon="11.3538935"><ele>851.0</ele><time>2026-04-11T15:47:40.495Z</time></trkpt><trkpt lat="44.187923" lon="11.3540622"><ele>851.0</ele><time>2026-04-11T15:47:41.496Z</time></trkpt><trkpt lat="44.1879533" lon="11.3542298"><ele>851.0</ele><time>2026-04-11T15:47:42.495Z</time></trkpt><trkpt lat="44.1879875" lon="11.354393"><ele>851.0</ele><time>2026-04-11T15:47:43.494Z</time></trkpt><trkpt lat="44.188033" lon="11.354548"><ele>851.0</ele><time>2026-04-11T15:47:44.494Z</time></trkpt><trkpt lat="44.1880975" lon="11.3546877"><ele>851.0</ele><time>2026-04-11T15:47:45.495Z</time></trkpt><trkpt lat="44.18818" lon="11.3548148"><ele>845.5</ele><time>2026-04-11T15:47:46.495Z</time></trkpt><trkpt lat="44.188278" lon="11.3549288"><ele>840.0</ele><time>2026-04-11T15:47:47.493Z</time></trkpt><trkpt lat="44.188577" lon="11.3552377"><ele>840.0</ele><time>2026-04-11T15:47:50.494Z</time></trkpt><trkpt lat="44.188672" lon="11.3553325"><ele>840.0</ele><time>2026-04-11T15:47:51.496Z</time></trkpt><trkpt lat="44.1887602" lon="11.3554303"><ele>840.0</ele><time>2026-04-11T15:47:52.495Z</time></trkpt><trkpt lat="44.188838" lon="11.355536"><ele>840.0</ele><time>2026-04-11T15:47:53.495Z</time></trkpt><trkpt lat="44.1889022" lon="11.3556495"><ele>840.0</ele><time>2026-04-11T15:47:54.495Z</time></trkpt><trkpt lat="44.1889437" lon="11.3557735"><ele>840.4</ele><time>2026-04-11T15:47:55.495Z</time></trkpt><trkpt lat="44.1889622" lon="11.3559073"><ele>840.8</ele><time>2026-04-11T15:47:56.495Z</time></trkpt><trkpt lat="44.1889622" lon="11.356053"><ele>841.2</ele><time>2026-04-11T15:47:57.495Z</time></trkpt><trkpt lat="44.1889507" lon="11.3562103"><ele>841.6</ele><time>2026-04-11T15:47:58.494Z</time></trkpt><trkpt lat="44.1889315" lon="11.3563765"><ele>842.0</ele><time>2026-04-11T15:47:59.493Z</time></trkpt><trkpt lat="44.1889108" lon="11.3565497"><ele>842.0</ele><time>2026-04-11T15:48:00.493Z</time></trkpt><trkpt lat="44.1888885" lon="11.3567277"><ele>842.0</ele><time>2026-04-11T15:48:01.492Z</time></trkpt><trkpt lat="44.1888657" lon="11.356906"><ele>842.0</ele><time>2026-04-11T15:48:02.493Z</time></trkpt><trkpt lat="44.1888483" lon="11.3570825"><ele>842.0</ele><time>2026-04-11T15:48:03.494Z</time></trkpt><trkpt lat="44.1888387" lon="11.3572573"><ele>840.25</ele><time>2026-04-11T15:48:04.493Z</time></trkpt><trkpt lat="44.1888365" lon="11.3574298"><ele>838.5</ele><time>2026-04-11T15:48:05.495Z</time></trkpt><trkpt lat="44.1888362" lon="11.3575995"><ele>836.75</ele><time>2026-04-11T15:48:06.494Z</time></trkpt><trkpt lat="44.1888355" lon="11.3577665"><ele>835.0</ele><time>2026-04-11T15:48:07.494Z</time></trkpt><trkpt lat="44.1888377" lon="11.3579307"><ele>834.25</ele><time>2026-04-11T15:48:08.494Z</time></trkpt><trkpt lat="44.1888417" lon="11.3580908"><ele>833.5</ele><time>2026-04-11T15:48:09.495Z</time></trkpt><trkpt lat="44.188845" lon="11.3582487"><ele>832.75</ele><time>2026-04-11T15:48:10.495Z</time></trkpt><trkpt lat="44.1888488" lon="11.3584057"><ele>832.0</ele><time>2026-04-11T15:48:11.495Z</time></trkpt><trkpt lat="44.1888553" lon="11.3585628"><ele>832.0</ele><time>2026-04-11T15:48:12.495Z</time></trkpt><trkpt lat="44.1888703" lon="11.3587213"><ele>832.0</ele><time>2026-04-11T15:48:13.494Z</time></trkpt><trkpt lat="44.1888953" lon="11.3588783"><ele>832.0</ele><time>2026-04-11T15:48:14.494Z</time></trkpt><trkpt lat="44.1889343" lon="11.3590292"><ele>832.0</ele><time>2026-04-11T15:48:15.494Z</time></trkpt><trkpt lat="44.1889935" lon="11.3591727"><ele>828.5</ele><time>2026-04-11T15:48:16.494Z</time></trkpt><trkpt lat="44.1890668" lon="11.3593092"><ele>825.0</ele><time>2026-04-11T15:48:17.495Z</time></trkpt><trkpt lat="44.1891482" lon="11.3594435"><ele>821.5</ele><time>2026-04-11T15:48:18.495Z</time></trkpt><trkpt lat="44.189234" lon="11.3595757"><ele>818.0</ele><time>2026-04-11T15:48:19.495Z</time></trkpt><trkpt lat="44.1893202" lon="11.3597067"><ele>818.0</ele><time>2026-04-11T15:48:20.496Z</time></trkpt><trkpt lat="44.1895643" lon="11.3600898"><ele>818.0</ele><time>2026-04-11T15:48:23.493Z</time></trkpt><trkpt lat="44.189645" lon="11.360212"><ele>818.0</ele><time>2026-04-11T15:48:24.492Z</time></trkpt><trkpt lat="44.1897255" lon="11.3603335"><ele>818.0</ele><time>2026-04-11T15:48:25.493Z</time></trkpt><trkpt lat="44.1898057" lon="11.3604553"><ele>818.0</ele><time>2026-04-11T15:48:26.493Z</time></trkpt><trkpt lat="44.1898838" lon="11.3605767"><ele>818.0</ele><time>2026-04-11T15:48:27.495Z</time></trkpt><trkpt lat="44.1899628" lon="11.3606927"><ele>815.5</ele><time>2026-04-11T15:48:28.495Z</time></trkpt><trkpt lat="44.1900467" lon="11.360802"><ele>813.0</ele><time>2026-04-11T15:48:29.496Z</time></trkpt><trkpt lat="44.1901392" lon="11.3608988"><ele>810.5</ele><time>2026-04-11T15:48:30.496Z</time></trkpt><trkpt lat="44.1902432" lon="11.3609742"><ele>808.0</ele><time>2026-04-11T15:48:31.494Z</time></trkpt><trkpt lat="44.1903562" lon="11.3610203"><ele>808.0</ele><time>2026-04-11T15:48:32.495Z</time></trkpt><trkpt lat="44.1904713" lon="11.361039"><ele>808.0</ele><time>2026-04-11T15:48:33.494Z</time></trkpt><trkpt lat="44.1905903" lon="11.3610323"><ele>808.0</ele><time>2026-04-11T15:48:34.495Z</time></trkpt><trkpt lat="44.1907103" lon="11.3609958"><ele>808.0</ele><time>2026-04-11T15:48:35.496Z</time></trkpt><trkpt lat="44.1908233" lon="11.3609282"><ele>806.5</ele><time>2026-04-11T15:48:36.495Z</time></trkpt><trkpt lat="44.190928" lon="11.3608353"><ele>805.0</ele><time>2026-04-11T15:48:37.495Z</time></trkpt><trkpt lat="44.1910258" lon="11.3607282"><ele>803.5</ele><time>2026-04-11T15:48:38.496Z</time></trkpt><trkpt lat="44.1911193" lon="11.3606182"><ele>802.0</ele><time>2026-04-11T15:48:39.495Z</time></trkpt><trkpt lat="44.19121" lon="11.3605128"><ele>800.8</ele><time>2026-04-11T15:48:40.496Z</time></trkpt><trkpt lat="44.1912987" lon="11.3604137"><ele>799.6</ele><time>2026-04-11T15:48:41.496Z</time></trkpt><trkpt lat="44.1913855" lon="11.3603202"><ele>798.4</ele><time>2026-04-11T15:48:42.496Z</time></trkpt><trkpt lat="44.191475" lon="11.3602337"><ele>797.1999999999999</ele><time>2026-04-11T15:48:43.494Z</time></trkpt><trkpt lat="44.1915718" lon="11.3601592"><ele>796.0</ele><time>2026-04-11T15:48:44.496Z</time></trkpt><trkpt lat="44.191677" lon="11.3600952"><ele>794.75</ele><time>2026-04-11T15:48:45.495Z</time></trkpt><trkpt lat="44.1917892" lon="11.3600412"><ele>793.5</ele><time>2026-04-11T15:48:46.494Z</time></trkpt><trkpt lat="44.1919065" lon="11.3600003"><ele>792.25</ele><time>2026-04-11T15:48:47.494Z</time></trkpt><trkpt lat="44.1920262" lon="11.3599688"><ele>791.0</ele><time>2026-04-11T15:48:48.493Z</time></trkpt><trkpt lat="44.1921468" lon="11.3599393"><ele>791.0</ele><time>2026-04-11T15:48:49.492Z</time></trkpt><trkpt lat="44.1922643" lon="11.3599105"><ele>791.0</ele><time>2026-04-11T15:48:50.492Z</time></trkpt><trkpt lat="44.1923805" lon="11.3598837"><ele>791.0</ele><time>2026-04-11T15:48:51.493Z</time></trkpt><trkpt lat="44.1924993" lon="11.359857"><ele>791.0</ele><time>2026-04-11T15:48:52.494Z</time></trkpt><trkpt lat="44.1926185" lon="11.3598278"><ele>790.6666666666667</ele><time>2026-04-11T15:48:53.495Z</time></trkpt><trkpt lat="44.1928523" lon="11.3597682"><ele>790.3333333333333</ele><time>2026-04-11T15:48:55.496Z</time></trkpt><trkpt lat="44.1929702" lon="11.3597403"><ele>790.0</ele><time>2026-04-11T15:48:56.495Z</time></trkpt><trkpt lat="44.1930888" lon="11.359711"><ele>786.5</ele><time>2026-04-11T15:48:57.495Z</time></trkpt><trkpt lat="44.1932068" lon="11.3596807"><ele>783.0</ele><time>2026-04-11T15:48:58.494Z</time></trkpt><trkpt lat="44.1933227" lon="11.3596502"><ele>779.5</ele><time>2026-04-11T15:48:59.495Z</time></trkpt><trkpt lat="44.1934367" lon="11.359617"><ele>776.0</ele><time>2026-04-11T15:49:00.495Z</time></trkpt><trkpt lat="44.1935512" lon="11.3595755"><ele>776.0</ele><time>2026-04-11T15:49:01.494Z</time></trkpt><trkpt lat="44.1936645" lon="11.3595243"><ele>776.0</ele><time>2026-04-11T15:49:02.495Z</time></trkpt><trkpt lat="44.1937755" lon="11.3594678"><ele>776.0</ele><time>2026-04-11T15:49:03.495Z</time></trkpt><trkpt lat="44.1938848" lon="11.3594108"><ele>776.0</ele><time>2026-04-11T15:49:04.495Z</time></trkpt><trkpt lat="44.1939933" lon="11.359354"><ele>776.0</ele><time>2026-04-11T15:49:05.495Z</time></trkpt><trkpt lat="44.1941027" lon="11.3592943"><ele>776.0</ele><time>2026-04-11T15:49:06.495Z</time></trkpt><trkpt lat="44.1942132" lon="11.359232"><ele>776.0</ele><time>2026-04-11T15:49:07.494Z</time></trkpt><trkpt lat="44.1943225" lon="11.3591687"><ele>776.0</ele><time>2026-04-11T15:49:08.496Z</time></trkpt><trkpt lat="44.1944307" lon="11.359105"><ele>776.0</ele><time>2026-04-11T15:49:09.496Z</time></trkpt><trkpt lat="44.1945378" lon="11.3590433"><ele>776.0</ele><time>2026-04-11T15:49:10.495Z</time></trkpt><trkpt lat="44.1946442" lon="11.3589828"><ele>776.0</ele><time>2026-04-11T15:49:11.495Z</time></trkpt><trkpt lat="44.1947497" lon="11.3589218"><ele>776.0</ele><time>2026-04-11T15:49:12.493Z</time></trkpt><trkpt lat="44.1948555" lon="11.35886"><ele>773.0</ele><time>2026-04-11T15:49:13.493Z</time></trkpt><trkpt lat="44.194961" lon="11.3587985"><ele>770.0</ele><time>2026-04-11T15:49:14.493Z</time></trkpt><trkpt lat="44.1950672" lon="11.3587347"><ele>767.0</ele><time>2026-04-11T15:49:15.493Z</time></trkpt><trkpt lat="44.195173" lon="11.3586727"><ele>764.0</ele><time>2026-04-11T15:49:16.495Z</time></trkpt><trkpt lat="44.1952772" lon="11.3586137"><ele>764.0</ele><time>2026-04-11T15:49:17.495Z</time></trkpt><trkpt lat="44.1953772" lon="11.3585627"><ele>764.0</ele><time>2026-04-11T15:49:18.496Z</time></trkpt><trkpt lat="44.1954742" lon="11.3585322"><ele>764.0</ele><time>2026-04-11T15:49:19.496Z</time></trkpt><trkpt lat="44.1955703" lon="11.358532"><ele>764.0</ele><time>2026-04-11T15:49:20.495Z</time></trkpt><trkpt lat="44.1956658" lon="11.358566"><ele>764.0</ele><time>2026-04-11T15:49:21.495Z</time></trkpt><trkpt lat="44.1957597" lon="11.3586292"><ele>763.75</ele><time>2026-04-11T15:49:22.495Z</time></trkpt><trkpt lat="44.1958525" lon="11.3587123"><ele>763.5</ele><time>2026-04-11T15:49:23.496Z</time></trkpt><trkpt lat="44.1959465" lon="11.3588053"><ele>763.25</ele><time>2026-04-11T15:49:24.496Z</time></trkpt><trkpt lat="44.196043" lon="11.3588997"><ele>763.0</ele><time>2026-04-11T15:49:25.496Z</time></trkpt><trkpt lat="44.196142" lon="11.358993"><ele>761.3333333333334</ele><time>2026-04-11T15:49:26.496Z</time></trkpt><trkpt lat="44.19634" lon="11.3591812"><ele>759.6666666666666</ele><time>2026-04-11T15:49:28.495Z</time></trkpt><trkpt lat="44.1964363" lon="11.3592738"><ele>758.0</ele><time>2026-04-11T15:49:29.496Z</time></trkpt><trkpt lat="44.1965325" lon="11.3593678"><ele>758.0</ele><time>2026-04-11T15:49:30.497Z</time></trkpt><trkpt lat="44.1966298" lon="11.359462"><ele>758.0</ele><time>2026-04-11T15:49:31.496Z</time></trkpt><trkpt lat="44.1967268" lon="11.3595562"><ele>758.0</ele><time>2026-04-11T15:49:32.496Z</time></trkpt><trkpt lat="44.196824" lon="11.3596503"><ele>758.0</ele><time>2026-04-11T15:49:33.496Z</time></trkpt><trkpt lat="44.1969218" lon="11.3597453"><ele>760.5</ele><time>2026-04-11T15:49:34.496Z</time></trkpt><trkpt lat="44.19702" lon="11.3598425"><ele>763.0</ele><time>2026-04-11T15:49:35.496Z</time></trkpt><trkpt lat="44.1971175" lon="11.359943"><ele>765.5</ele><time>2026-04-11T15:49:36.494Z</time></trkpt><trkpt lat="44.1972148" lon="11.3600453"><ele>768.0</ele><time>2026-04-11T15:49:37.494Z</time></trkpt><trkpt lat="44.1973112" lon="11.3601448"><ele>765.25</ele><time>2026-04-11T15:49:38.494Z</time></trkpt><trkpt lat="44.1974043" lon="11.3602403"><ele>762.5</ele><time>2026-04-11T15:49:39.494Z</time></trkpt><trkpt lat="44.197495" lon="11.3603327"><ele>759.75</ele><time>2026-04-11T15:49:40.494Z</time></trkpt><trkpt lat="44.1975845" lon="11.3604242"><ele>757.0</ele><time>2026-04-11T15:49:41.495Z</time></trkpt><trkpt lat="44.1976782" lon="11.3605135"><ele>758.0</ele><time>2026-04-11T15:49:42.494Z</time></trkpt><trkpt lat="44.1977777" lon="11.360593"><ele>759.0</ele><time>2026-04-11T15:49:43.495Z</time></trkpt><trkpt lat="44.197883" lon="11.3606583"><ele>760.0</ele><time>2026-04-11T15:49:44.497Z</time></trkpt><trkpt lat="44.1979945" lon="11.360701"><ele>761.0</ele><time>2026-04-11T15:49:45.496Z</time></trkpt><trkpt lat="44.1981102" lon="11.3607193"><ele>760.0</ele><time>2026-04-11T15:49:46.494Z</time></trkpt><trkpt lat="44.1982235" lon="11.3607147"><ele>759.0</ele><time>2026-04-11T15:49:47.495Z</time></trkpt><trkpt lat="44.1983343" lon="11.3606937"><ele>758.0</ele><time>2026-04-11T15:49:48.496Z</time></trkpt><trkpt lat="44.1984452" lon="11.3606673"><ele>757.0</ele><time>2026-04-11T15:49:49.494Z</time></trkpt><trkpt lat="44.1985575" lon="11.3606415"><ele>757.0</ele><time>2026-04-11T15:49:50.494Z</time></trkpt><trkpt lat="44.1986723" lon="11.3606128"><ele>757.0</ele><time>2026-04-11T15:49:51.494Z</time></trkpt><trkpt lat="44.19879" lon="11.3605823"><ele>757.0</ele><time>2026-04-11T15:49:52.494Z</time></trkpt><trkpt lat="44.19891" lon="11.3605523"><ele>757.0</ele><time>2026-04-11T15:49:53.495Z</time></trkpt><trkpt lat="44.1990313" lon="11.3605228"><ele>755.0</ele><time>2026-04-11T15:49:54.496Z</time></trkpt><trkpt lat="44.1991515" lon="11.360495"><ele>753.0</ele><time>2026-04-11T15:49:55.496Z</time></trkpt><trkpt lat="44.1992712" lon="11.3604713"><ele>751.0</ele><time>2026-04-11T15:49:56.495Z</time></trkpt><trkpt lat="44.1993897" lon="11.360461"><ele>749.0</ele><time>2026-04-11T15:49:57.496Z</time></trkpt><trkpt lat="44.1995057" lon="11.3604773"><ele>749.0</ele><time>2026-04-11T15:49:58.495Z</time></trkpt><trkpt lat="44.1996157" lon="11.3605233"><ele>749.0</ele><time>2026-04-11T15:49:59.496Z</time></trkpt><trkpt lat="44.1998988" lon="11.3607945"><ele>749.25</ele><time>2026-04-11T15:50:02.493Z</time></trkpt><trkpt lat="44.1999878" lon="11.3608947"><ele>749.5</ele><time>2026-04-11T15:50:03.494Z</time></trkpt><trkpt lat="44.2000802" lon="11.3609852"><ele>749.75</ele><time>2026-04-11T15:50:04.494Z</time></trkpt><trkpt lat="44.2001808" lon="11.3610538"><ele>750.0</ele><time>2026-04-11T15:50:05.495Z</time></trkpt><trkpt lat="44.2002902" lon="11.3610953"><ele>750.0</ele><time>2026-04-11T15:50:06.495Z</time></trkpt><trkpt lat="44.2004038" lon="11.3611072"><ele>750.0</ele><time>2026-04-11T15:50:07.495Z</time></trkpt><trkpt lat="44.2005163" lon="11.3610802"><ele>750.0</ele><time>2026-04-11T15:50:08.496Z</time></trkpt><trkpt lat="44.2006185" lon="11.3610158"><ele>750.0</ele><time>2026-04-11T15:50:09.497Z</time></trkpt><trkpt lat="44.200712" lon="11.36093"><ele>749.4</ele><time>2026-04-11T15:50:10.495Z</time></trkpt><trkpt lat="44.2008018" lon="11.3608402"><ele>748.8</ele><time>2026-04-11T15:50:11.495Z</time></trkpt><trkpt lat="44.2008947" lon="11.3607558"><ele>748.2</ele><time>2026-04-11T15:50:12.496Z</time></trkpt><trkpt lat="44.200994" lon="11.3606825"><ele>747.6</ele><time>2026-04-11T15:50:13.495Z</time></trkpt><trkpt lat="44.2010992" lon="11.3606243"><ele>747.0</ele><time>2026-04-11T15:50:14.496Z</time></trkpt><trkpt lat="44.2012097" lon="11.3605802"><ele>747.0</ele><time>2026-04-11T15:50:15.495Z</time></trkpt><trkpt lat="44.2013235" lon="11.3605527"><ele>747.0</ele><time>2026-04-11T15:50:16.494Z</time></trkpt><trkpt lat="44.2014403" lon="11.3605367"><ele>747.0</ele><time>2026-04-11T15:50:17.496Z</time></trkpt><trkpt lat="44.2015585" lon="11.3605232"><ele>747.0</ele><time>2026-04-11T15:50:18.494Z</time></trkpt><trkpt lat="44.2016762" lon="11.360506"><ele>746.0</ele><time>2026-04-11T15:50:19.495Z</time></trkpt><trkpt lat="44.2017923" lon="11.3604895"><ele>745.0</ele><time>2026-04-11T15:50:20.495Z</time></trkpt><trkpt lat="44.2019075" lon="11.3604702"><ele>744.0</ele><time>2026-04-11T15:50:21.494Z</time></trkpt><trkpt lat="44.20202" lon="11.3604397"><ele>743.0</ele><time>2026-04-11T15:50:22.494Z</time></trkpt><trkpt lat="44.2021282" lon="11.360399"><ele>743.0</ele><time>2026-04-11T15:50:23.494Z</time></trkpt><trkpt lat="44.2022322" lon="11.3603393"><ele>743.0</ele><time>2026-04-11T15:50:24.494Z</time></trkpt><trkpt lat="44.2023285" lon="11.360249"><ele>743.0</ele><time>2026-04-11T15:50:25.492Z</time></trkpt><trkpt lat="44.2024193" lon="11.3601385"><ele>743.0</ele><time>2026-04-11T15:50:26.492Z</time></trkpt><trkpt lat="44.2025063" lon="11.3600157"><ele>743.25</ele><time>2026-04-11T15:50:27.493Z</time></trkpt><trkpt lat="44.2025935" lon="11.3598905"><ele>743.5</ele><time>2026-04-11T15:50:28.493Z</time></trkpt><trkpt lat="44.2026812" lon="11.3597685"><ele>743.75</ele><time>2026-04-11T15:50:29.498Z</time></trkpt><trkpt lat="44.2027693" lon="11.3596515"><ele>744.0</ele><time>2026-04-11T15:50:30.496Z</time></trkpt><trkpt lat="44.2028547" lon="11.3595317"><ele>741.0</ele><time>2026-04-11T15:50:31.494Z</time></trkpt><trkpt lat="44.2029377" lon="11.3594103"><ele>738.0</ele><time>2026-04-11T15:50:32.496Z</time></trkpt><trkpt lat="44.203105" lon="11.3591692"><ele>735.0</ele><time>2026-04-11T15:50:34.493Z</time></trkpt><trkpt lat="44.2031898" lon="11.359048"><ele>735.0</ele><time>2026-04-11T15:50:35.495Z</time></trkpt><trkpt lat="44.2032748" lon="11.3589217"><ele>735.0</ele><time>2026-04-11T15:50:36.495Z</time></trkpt><trkpt lat="44.2033595" lon="11.3587978"><ele>735.0</ele><time>2026-04-11T15:50:37.495Z</time></trkpt><trkpt lat="44.2034437" lon="11.3586765"><ele>735.0</ele><time>2026-04-11T15:50:38.495Z</time></trkpt><trkpt lat="44.2035278" lon="11.3585575"><ele>732.25</ele><time>2026-04-11T15:50:39.494Z</time></trkpt><trkpt lat="44.2036118" lon="11.3584388"><ele>729.5</ele><time>2026-04-11T15:50:40.494Z</time></trkpt><trkpt lat="44.2036957" lon="11.3583225"><ele>726.75</ele><time>2026-04-11T15:50:41.496Z</time></trkpt><trkpt lat="44.203778" lon="11.3582078"><ele>724.0</ele><time>2026-04-11T15:50:42.496Z</time></trkpt><trkpt lat="44.2038583" lon="11.358092"><ele>723.0</ele><time>2026-04-11T15:50:43.495Z</time></trkpt><trkpt lat="44.2039393" lon="11.3579752"><ele>722.0</ele><time>2026-04-11T15:50:44.495Z</time></trkpt><trkpt lat="44.2040208" lon="11.3578583"><ele>721.0</ele><time>2026-04-11T15:50:45.495Z</time></trkpt><trkpt lat="44.2041008" lon="11.357741"><ele>720.0</ele><time>2026-04-11T15:50:46.495Z</time></trkpt><trkpt lat="44.2041818" lon="11.3576248"><ele>720.0</ele><time>2026-04-11T15:50:47.495Z</time></trkpt><trkpt lat="44.2042623" lon="11.3575102"><ele>720.0</ele><time>2026-04-11T15:50:48.495Z</time></trkpt><trkpt lat="44.2043452" lon="11.3574077"><ele>720.0</ele><time>2026-04-11T15:50:49.495Z</time></trkpt><trkpt lat="44.2044365" lon="11.3573242"><ele>720.0</ele><time>2026-04-11T15:50:50.493Z</time></trkpt><trkpt lat="44.2045388" lon="11.3572613"><ele>720.0</ele><time>2026-04-11T15:50:51.494Z</time></trkpt><trkpt lat="44.2046505" lon="11.3572262"><ele>720.0</ele><time>2026-04-11T15:50:52.493Z</time></trkpt><trkpt lat="44.2047675" lon="11.3572147"><ele>720.0</ele><time>2026-04-11T15:50:53.493Z</time></trkpt><trkpt lat="44.2048877" lon="11.3572172"><ele>720.0</ele><time>2026-04-11T15:50:54.495Z</time></trkpt><trkpt lat="44.2050093" lon="11.3572282"><ele>720.0</ele><time>2026-04-11T15:50:55.496Z</time></trkpt><trkpt lat="44.2051313" lon="11.3572458"><ele>719.25</ele><time>2026-04-11T15:50:56.495Z</time></trkpt><trkpt lat="44.2052505" lon="11.3572787"><ele>718.5</ele><time>2026-04-11T15:50:57.494Z</time></trkpt><trkpt lat="44.205365" lon="11.3573305"><ele>717.75</ele><time>2026-04-11T15:50:58.494Z</time></trkpt><trkpt lat="44.2054753" lon="11.3573935"><ele>717.0</ele><time>2026-04-11T15:50:59.495Z</time></trkpt><trkpt lat="44.2055855" lon="11.3574578"><ele>715.25</ele><time>2026-04-11T15:51:00.496Z</time></trkpt><trkpt lat="44.205698" lon="11.357516"><ele>713.5</ele><time>2026-04-11T15:51:01.494Z</time></trkpt><trkpt lat="44.2058145" lon="11.35756"><ele>711.75</ele><time>2026-04-11T15:51:02.495Z</time></trkpt><trkpt lat="44.2059338" lon="11.357586"><ele>710.0</ele><time>2026-04-11T15:51:03.494Z</time></trkpt><trkpt lat="44.2060525" lon="11.3575858"><ele>710.0</ele><time>2026-04-11T15:51:04.497Z</time></trkpt><trkpt lat="44.2061687" lon="11.3575567"><ele>710.0</ele><time>2026-04-11T15:51:05.494Z</time></trkpt><trkpt lat="44.2064005" lon="11.3574917"><ele>710.0</ele><time>2026-04-11T15:51:07.494Z</time></trkpt><trkpt lat="44.2065173" lon="11.3574767"><ele>709.5</ele><time>2026-04-11T15:51:08.495Z</time></trkpt><trkpt lat="44.206635" lon="11.3574785"><ele>709.0</ele><time>2026-04-11T15:51:09.495Z</time></trkpt><trkpt lat="44.2067513" lon="11.3575053"><ele>708.5</ele><time>2026-04-11T15:51:10.494Z</time></trkpt><trkpt lat="44.2068615" lon="11.3575637"><ele>708.0</ele><time>2026-04-11T15:51:11.494Z</time></trkpt><trkpt lat="44.2069622" lon="11.3576523"><ele>708.0</ele><time>2026-04-11T15:51:12.494Z</time></trkpt><trkpt lat="44.2070512" lon="11.357764"><ele>708.0</ele><time>2026-04-11T15:51:13.495Z</time></trkpt><trkpt lat="44.2071295" lon="11.3578927"><ele>708.0</ele><time>2026-04-11T15:51:14.494Z</time></trkpt><trkpt lat="44.2072003" lon="11.3580308"><ele>708.0</ele><time>2026-04-11T15:51:15.493Z</time></trkpt><trkpt lat="44.2072685" lon="11.3581728"><ele>706.0</ele><time>2026-04-11T15:51:16.492Z</time></trkpt><trkpt lat="44.2073423" lon="11.3583083"><ele>704.0</ele><time>2026-04-11T15:51:17.492Z</time></trkpt><trkpt lat="44.2074207" lon="11.358431"><ele>702.0</ele><time>2026-04-11T15:51:18.492Z</time></trkpt><trkpt lat="44.20751" lon="11.3585375"><ele>700.0</ele><time>2026-04-11T15:51:19.496Z</time></trkpt><trkpt lat="44.2076033" lon="11.3586327"><ele>700.0</ele><time>2026-04-11T15:51:20.496Z</time></trkpt><trkpt lat="44.2077053" lon="11.358721"><ele>700.0</ele><time>2026-04-11T15:51:21.495Z</time></trkpt><trkpt lat="44.2078105" lon="11.3588063"><ele>700.0</ele><time>2026-04-11T15:51:22.494Z</time></trkpt><trkpt lat="44.2079168" lon="11.358887"><ele>700.0</ele><time>2026-04-11T15:51:23.496Z</time></trkpt><trkpt lat="44.2080222" lon="11.3589685"><ele>698.25</ele><time>2026-04-11T15:51:24.494Z</time></trkpt><trkpt lat="44.2081267" lon="11.3590467"><ele>696.5</ele><time>2026-04-11T15:51:25.495Z</time></trkpt><trkpt lat="44.2082288" lon="11.3591227"><ele>694.75</ele><time>2026-04-11T15:51:26.494Z</time></trkpt><trkpt lat="44.2083278" lon="11.3591987"><ele>693.0</ele><time>2026-04-11T15:51:27.496Z</time></trkpt><trkpt lat="44.2084265" lon="11.3592693"><ele>693.0</ele><time>2026-04-11T15:51:28.495Z</time></trkpt><trkpt lat="44.2085265" lon="11.3593342"><ele>693.0</ele><time>2026-04-11T15:51:29.494Z</time></trkpt><trkpt lat="44.2086302" lon="11.3593783"><ele>693.0</ele><time>2026-04-11T15:51:30.495Z</time></trkpt><trkpt lat="44.2087373" lon="11.3593958"><ele>693.0</ele><time>2026-04-11T15:51:31.494Z</time></trkpt><trkpt lat="44.2088435" lon="11.3593803"><ele>693.0</ele><time>2026-04-11T15:51:32.494Z</time></trkpt><trkpt lat="44.2089502" lon="11.3593343"><ele>691.0</ele><time>2026-04-11T15:51:33.494Z</time></trkpt><trkpt lat="44.2090575" lon="11.3592757"><ele>689.0</ele><time>2026-04-11T15:51:34.496Z</time></trkpt><trkpt lat="44.2091632" lon="11.3592103"><ele>687.0</ele><time>2026-04-11T15:51:35.494Z</time></trkpt><trkpt lat="44.2092665" lon="11.3591483"><ele>685.0</ele><time>2026-04-11T15:51:36.495Z</time></trkpt><trkpt lat="44.2093693" lon="11.3591008"><ele>685.0</ele><time>2026-04-11T15:51:37.495Z</time></trkpt><trkpt lat="44.2094747" lon="11.3590752"><ele>685.0</ele><time>2026-04-11T15:51:38.493Z</time></trkpt><trkpt lat="44.209697" lon="11.3590932"><ele>685.0</ele><time>2026-04-11T15:51:40.493Z</time></trkpt><trkpt lat="44.209815" lon="11.3591252"><ele>684.5</ele><time>2026-04-11T15:51:41.492Z</time></trkpt><trkpt lat="44.2099368" lon="11.3591623"><ele>684.0</ele><time>2026-04-11T15:51:42.492Z</time></trkpt><trkpt lat="44.2100597" lon="11.3591987"><ele>683.5</ele><time>2026-04-11T15:51:43.494Z</time></trkpt><trkpt lat="44.2101775" lon="11.3592325"><ele>683.0</ele><time>2026-04-11T15:51:44.496Z</time></trkpt><trkpt lat="44.2102917" lon="11.3592597"><ele>683.0</ele><time>2026-04-11T15:51:45.495Z</time></trkpt><trkpt lat="44.2104098" lon="11.3592702"><ele>683.0</ele><time>2026-04-11T15:51:46.494Z</time></trkpt><trkpt lat="44.2105338" lon="11.359261"><ele>683.0</ele><time>2026-04-11T15:51:47.494Z</time></trkpt><trkpt lat="44.2106595" lon="11.3592323"><ele>683.0</ele><time>2026-04-11T15:51:48.495Z</time></trkpt><trkpt lat="44.2107835" lon="11.3591892"><ele>681.25</ele><time>2026-04-11T15:51:49.494Z</time></trkpt><trkpt lat="44.2109045" lon="11.359137"><ele>679.5</ele><time>2026-04-11T15:51:50.494Z</time></trkpt><trkpt lat="44.2110257" lon="11.3590878"><ele>677.75</ele><time>2026-04-11T15:51:51.494Z</time></trkpt><trkpt lat="44.2111467" lon="11.3590445"><ele>676.0</ele><time>2026-04-11T15:51:52.494Z</time></trkpt><trkpt lat="44.211268" lon="11.3590132"><ele>676.0</ele><time>2026-04-11T15:51:53.496Z</time></trkpt><trkpt lat="44.2113862" lon="11.359003"><ele>676.0</ele><time>2026-04-11T15:51:54.495Z</time></trkpt><trkpt lat="44.2114992" lon="11.3590272"><ele>676.0</ele><time>2026-04-11T15:51:55.494Z</time></trkpt><trkpt lat="44.2116022" lon="11.359089"><ele>676.0</ele><time>2026-04-11T15:51:56.495Z</time></trkpt><trkpt lat="44.2116932" lon="11.3591827"><ele>674.75</ele><time>2026-04-11T15:51:57.494Z</time></trkpt><trkpt lat="44.211773" lon="11.3592998"><ele>673.5</ele><time>2026-04-11T15:51:58.495Z</time></trkpt><trkpt lat="44.211845" lon="11.3594293"><ele>672.25</ele><time>2026-04-11T15:51:59.495Z</time></trkpt><trkpt lat="44.211911" lon="11.3595593"><ele>671.0</ele><time>2026-04-11T15:52:00.495Z</time></trkpt><trkpt lat="44.2119773" lon="11.359683"><ele>669.8</ele><time>2026-04-11T15:52:01.495Z</time></trkpt><trkpt lat="44.21205" lon="11.3597867"><ele>668.5999999999999</ele><time>2026-04-11T15:52:02.494Z</time></trkpt><trkpt lat="44.2121335" lon="11.3598525"><ele>667.4</ele><time>2026-04-11T15:52:03.493Z</time></trkpt><trkpt lat="44.2122227" lon="11.3598612"><ele>666.2</ele><time>2026-04-11T15:52:04.491Z</time></trkpt><trkpt lat="44.2123002" lon="11.3598128"><ele>665.0</ele><time>2026-04-11T15:52:05.492Z</time></trkpt><trkpt lat="44.2123513" lon="11.3597177"><ele>666.2</ele><time>2026-04-11T15:52:06.494Z</time></trkpt><trkpt lat="44.212367" lon="11.3595958"><ele>667.4</ele><time>2026-04-11T15:52:07.493Z</time></trkpt><trkpt lat="44.2123423" lon="11.3594713"><ele>668.5999999999999</ele><time>2026-04-11T15:52:08.494Z</time></trkpt><trkpt lat="44.2122912" lon="11.3593452"><ele>669.8</ele><time>2026-04-11T15:52:09.497Z</time></trkpt><trkpt lat="44.2122342" lon="11.3592078"><ele>671.0</ele><time>2026-04-11T15:52:10.494Z</time></trkpt><trkpt lat="44.2121767" lon="11.359062"><ele>666.0</ele><time>2026-04-11T15:52:11.495Z</time></trkpt><trkpt lat="44.212054" lon="11.3585998"><ele>661.0</ele><time>2026-04-11T15:52:14.494Z</time></trkpt><trkpt lat="44.2120232" lon="11.3584487"><ele>661.0</ele><time>2026-04-11T15:52:15.494Z</time></trkpt><trkpt lat="44.2119928" lon="11.3583007"><ele>661.0</ele><time>2026-04-11T15:52:16.494Z</time></trkpt><trkpt lat="44.2119623" lon="11.358151"><ele>661.0</ele><time>2026-04-11T15:52:17.495Z</time></trkpt><trkpt lat="44.2119293" lon="11.3580015"><ele>661.0</ele><time>2026-04-11T15:52:18.494Z</time></trkpt><trkpt lat="44.2118838" lon="11.357863"><ele>661.0</ele><time>2026-04-11T15:52:19.494Z</time></trkpt><trkpt lat="44.2118212" lon="11.3577418"><ele>659.0</ele><time>2026-04-11T15:52:20.494Z</time></trkpt><trkpt lat="44.211745" lon="11.357641"><ele>657.0</ele><time>2026-04-11T15:52:21.493Z</time></trkpt><trkpt lat="44.2116548" lon="11.3575645"><ele>655.0</ele><time>2026-04-11T15:52:22.493Z</time></trkpt><trkpt lat="44.211552" lon="11.357519"><ele>653.0</ele><time>2026-04-11T15:52:23.493Z</time></trkpt><trkpt lat="44.211441" lon="11.3575007"><ele>651.0</ele><time>2026-04-11T15:52:24.494Z</time></trkpt><trkpt lat="44.2113267" lon="11.3574888"><ele>651.0</ele><time>2026-04-11T15:52:25.494Z</time></trkpt><trkpt lat="44.2112102" lon="11.357468"><ele>651.0</ele><time>2026-04-11T15:52:26.496Z</time></trkpt><trkpt lat="44.2110965" lon="11.3574267"><ele>651.0</ele><time>2026-04-11T15:52:27.493Z</time></trkpt><trkpt lat="44.2109963" lon="11.357349"><ele>651.0</ele><time>2026-04-11T15:52:28.492Z</time></trkpt><trkpt lat="44.210917" lon="11.3572333"><ele>648.0</ele><time>2026-04-11T15:52:29.492Z</time></trkpt><trkpt lat="44.2108533" lon="11.3570957"><ele>645.0</ele><time>2026-04-11T15:52:30.493Z</time></trkpt><trkpt lat="44.2107952" lon="11.356947"><ele>642.0</ele><time>2026-04-11T15:52:31.492Z</time></trkpt><trkpt lat="44.2107375" lon="11.3567948"><ele>639.0</ele><time>2026-04-11T15:52:32.494Z</time></trkpt><trkpt lat="44.21068" lon="11.356644"><ele>639.5</ele><time>2026-04-11T15:52:33.494Z</time></trkpt><trkpt lat="44.2106235" lon="11.3564968"><ele>640.0</ele><time>2026-04-11T15:52:34.494Z</time></trkpt><trkpt lat="44.2105682" lon="11.3563505"><ele>640.5</ele><time>2026-04-11T15:52:35.495Z</time></trkpt><trkpt lat="44.2105167" lon="11.3562037"><ele>641.0</ele><time>2026-04-11T15:52:36.494Z</time></trkpt><trkpt lat="44.210473" lon="11.356055"><ele>641.0</ele><time>2026-04-11T15:52:37.494Z</time></trkpt><trkpt lat="44.210443" lon="11.3559037"><ele>641.0</ele><time>2026-04-11T15:52:38.495Z</time></trkpt><trkpt lat="44.2104292" lon="11.355754"><ele>641.0</ele><time>2026-04-11T15:52:39.496Z</time></trkpt><trkpt lat="44.210423" lon="11.3556025"><ele>641.0</ele><time>2026-04-11T15:52:40.496Z</time></trkpt><trkpt lat="44.2104163" lon="11.3554518"><ele>641.0</ele><time>2026-04-11T15:52:41.496Z</time></trkpt><trkpt lat="44.2104038" lon="11.3553088"><ele>639.0</ele><time>2026-04-11T15:52:42.495Z</time></trkpt><trkpt lat="44.2103785" lon="11.3551703"><ele>637.0</ele><time>2026-04-11T15:52:43.494Z</time></trkpt><trkpt lat="44.2103382" lon="11.3550308"><ele>635.0</ele><time>2026-04-11T15:52:44.495Z</time></trkpt><trkpt lat="44.2102148" lon="11.3547548"><ele>633.0</ele><time>2026-04-11T15:52:46.495Z</time></trkpt><trkpt lat="44.2101368" lon="11.3546195"><ele>634.25</ele><time>2026-04-11T15:52:47.496Z</time></trkpt><trkpt lat="44.2100532" lon="11.3544857"><ele>635.5</ele><time>2026-04-11T15:52:48.495Z</time></trkpt><trkpt lat="44.2099702" lon="11.3543552"><ele>636.75</ele><time>2026-04-11T15:52:49.495Z</time></trkpt><trkpt lat="44.2098908" lon="11.35423"><ele>638.0</ele><time>2026-04-11T15:52:50.494Z</time></trkpt><trkpt lat="44.2098192" lon="11.3541068"><ele>638.0</ele><time>2026-04-11T15:52:51.495Z</time></trkpt><trkpt lat="44.2097593" lon="11.3539773"><ele>638.0</ele><time>2026-04-11T15:52:52.492Z</time></trkpt><trkpt lat="44.2097123" lon="11.3538358"><ele>638.0</ele><time>2026-04-11T15:52:53.493Z</time></trkpt><trkpt lat="44.209686" lon="11.353683"><ele>638.0</ele><time>2026-04-11T15:52:54.493Z</time></trkpt><trkpt lat="44.209693" lon="11.3535243"><ele>638.0</ele><time>2026-04-11T15:52:55.493Z</time></trkpt><trkpt lat="44.2097345" lon="11.3533773"><ele>637.0</ele><time>2026-04-11T15:52:56.494Z</time></trkpt><trkpt lat="44.2097997" lon="11.3532433"><ele>636.0</ele><time>2026-04-11T15:52:57.496Z</time></trkpt><trkpt lat="44.209885" lon="11.3531267"><ele>635.0</ele><time>2026-04-11T15:52:58.496Z</time></trkpt><trkpt lat="44.2099838" lon="11.3530283"><ele>634.0</ele><time>2026-04-11T15:52:59.496Z</time></trkpt><trkpt lat="44.2100843" lon="11.3529452"><ele>631.8</ele><time>2026-04-11T15:53:00.495Z</time></trkpt><trkpt lat="44.2101743" lon="11.352857"><ele>629.5999999999999</ele><time>2026-04-11T15:53:01.494Z</time></trkpt><trkpt lat="44.2102538" lon="11.352755"><ele>627.4</ele><time>2026-04-11T15:53:02.495Z</time></trkpt><trkpt lat="44.2103197" lon="11.3526348"><ele>625.1999999999999</ele><time>2026-04-11T15:53:03.495Z</time></trkpt><trkpt lat="44.2103702" lon="11.3524962"><ele>623.0</ele><time>2026-04-11T15:53:04.495Z</time></trkpt><trkpt lat="44.210399" lon="11.352343"><ele>621.5</ele><time>2026-04-11T15:53:05.495Z</time></trkpt><trkpt lat="44.2104093" lon="11.3521812"><ele>620.0</ele><time>2026-04-11T15:53:06.495Z</time></trkpt><trkpt lat="44.2103983" lon="11.3520162"><ele>618.5</ele><time>2026-04-11T15:53:07.494Z</time></trkpt><trkpt lat="44.2103632" lon="11.3518593"><ele>617.0</ele><time>2026-04-11T15:53:08.495Z</time></trkpt><trkpt lat="44.2103038" lon="11.3517182"><ele>617.0</ele><time>2026-04-11T15:53:09.495Z</time></trkpt><trkpt lat="44.2102238" lon="11.3515988"><ele>617.0</ele><time>2026-04-11T15:53:10.496Z</time></trkpt><trkpt lat="44.2101302" lon="11.3515028"><ele>617.0</ele><time>2026-04-11T15:53:11.495Z</time></trkpt><trkpt lat="44.2100263" lon="11.3514307"><ele>617.0</ele><time>2026-04-11T15:53:12.494Z</time></trkpt><trkpt lat="44.2099133" lon="11.3513893"><ele>618.0</ele><time>2026-04-11T15:53:13.493Z</time></trkpt><trkpt lat="44.2097967" lon="11.3513808"><ele>619.0</ele><time>2026-04-11T15:53:14.494Z</time></trkpt><trkpt lat="44.2096783" lon="11.351391"><ele>620.0</ele><time>2026-04-11T15:53:15.494Z</time></trkpt><trkpt lat="44.2095595" lon="11.3514113"><ele>621.0</ele><time>2026-04-11T15:53:16.494Z</time></trkpt><trkpt lat="44.2094405" lon="11.3514287"><ele>610.5</ele><time>2026-04-11T15:53:17.493Z</time></trkpt><trkpt lat="44.2091042" lon="11.3513428"><ele>600.0</ele><time>2026-04-11T15:53:20.493Z</time></trkpt><trkpt lat="44.2090053" lon="11.3512605"><ele>605.0</ele><time>2026-04-11T15:53:21.495Z</time></trkpt><trkpt lat="44.2089197" lon="11.3511503"><ele>610.0</ele><time>2026-04-11T15:53:22.494Z</time></trkpt><trkpt lat="44.2088497" lon="11.3510175"><ele>615.0</ele><time>2026-04-11T15:53:23.495Z</time></trkpt><trkpt lat="44.2088013" lon="11.350868"><ele>620.0</ele><time>2026-04-11T15:53:24.495Z</time></trkpt><trkpt lat="44.208777" lon="11.3507087"><ele>620.0</ele><time>2026-04-11T15:53:25.494Z</time></trkpt><trkpt lat="44.2087723" lon="11.350546"><ele>620.0</ele><time>2026-04-11T15:53:26.495Z</time></trkpt><trkpt lat="44.2087803" lon="11.3503845"><ele>620.0</ele><time>2026-04-11T15:53:27.495Z</time></trkpt><trkpt lat="44.2087915" lon="11.3502245"><ele>620.0</ele><time>2026-04-11T15:53:28.494Z</time></trkpt><trkpt lat="44.2087992" lon="11.3500655"><ele>618.2</ele><time>2026-04-11T15:53:29.495Z</time></trkpt><trkpt lat="44.2087973" lon="11.3499062"><ele>616.4</ele><time>2026-04-11T15:53:30.496Z</time></trkpt><trkpt lat="44.2087805" lon="11.3497517"><ele>614.6</ele><time>2026-04-11T15:53:31.494Z</time></trkpt><trkpt lat="44.2087403" lon="11.349613"><ele>612.8</ele><time>2026-04-11T15:53:32.495Z</time></trkpt><trkpt lat="44.208674" lon="11.34949"><ele>611.0</ele><time>2026-04-11T15:53:33.496Z</time></trkpt><trkpt lat="44.20859" lon="11.3493822"><ele>607.5</ele><time>2026-04-11T15:53:34.495Z</time></trkpt><trkpt lat="44.2084902" lon="11.3492948"><ele>604.0</ele><time>2026-04-11T15:53:35.497Z</time></trkpt><trkpt lat="44.2083812" lon="11.3492217"><ele>600.5</ele><time>2026-04-11T15:53:36.496Z</time></trkpt><trkpt lat="44.208272" lon="11.3491563"><ele>597.0</ele><time>2026-04-11T15:53:37.496Z</time></trkpt><trkpt lat="44.2081638" lon="11.3490952"><ele>598.0</ele><time>2026-04-11T15:53:38.495Z</time></trkpt><trkpt lat="44.2080593" lon="11.3490327"><ele>599.0</ele><time>2026-04-11T15:53:39.496Z</time></trkpt><trkpt lat="44.2079572" lon="11.3489683"><ele>600.0</ele><time>2026-04-11T15:53:40.496Z</time></trkpt><trkpt lat="44.207853" lon="11.3489082"><ele>601.0</ele><time>2026-04-11T15:53:41.494Z</time></trkpt><trkpt lat="44.2077467" lon="11.3488503"><ele>598.0</ele><time>2026-04-11T15:53:42.494Z</time></trkpt><trkpt lat="44.20764" lon="11.34879"><ele>595.0</ele><time>2026-04-11T15:53:43.493Z</time></trkpt><trkpt lat="44.2075327" lon="11.3487285"><ele>592.0</ele><time>2026-04-11T15:53:44.492Z</time></trkpt><trkpt lat="44.2074247" lon="11.3486662"><ele>589.0</ele><time>2026-04-11T15:53:45.494Z</time></trkpt><trkpt lat="44.2073157" lon="11.3486028"><ele>589.0</ele><time>2026-04-11T15:53:46.495Z</time></trkpt><trkpt lat="44.2072048" lon="11.3485423"><ele>589.0</ele><time>2026-04-11T15:53:47.495Z</time></trkpt><trkpt lat="44.2070947" lon="11.3484822"><ele>589.0</ele><time>2026-04-11T15:53:48.495Z</time></trkpt><trkpt lat="44.2069863" lon="11.3484215"><ele>589.0</ele><time>2026-04-11T15:53:49.494Z</time></trkpt><trkpt lat="44.206879" lon="11.3483625"><ele>589.0</ele><time>2026-04-11T15:53:50.498Z</time></trkpt><trkpt lat="44.2066698" lon="11.3482423"><ele>589.0</ele><time>2026-04-11T15:53:52.495Z</time></trkpt><trkpt lat="44.2065655" lon="11.3481863"><ele>589.0</ele><time>2026-04-11T15:53:53.495Z</time></trkpt><trkpt lat="44.2064595" lon="11.3481407"><ele>589.0</ele><time>2026-04-11T15:53:54.495Z</time></trkpt><trkpt lat="44.2063517" lon="11.3481172"><ele>590.0</ele><time>2026-04-11T15:53:55.494Z</time></trkpt><trkpt lat="44.2062445" lon="11.3481202"><ele>591.0</ele><time>2026-04-11T15:53:56.492Z</time></trkpt><trkpt lat="44.2061408" lon="11.3481318"><ele>592.0</ele><time>2026-04-11T15:53:57.494Z</time></trkpt><trkpt lat="44.2060418" lon="11.3481222"><ele>593.0</ele><time>2026-04-11T15:53:58.495Z</time></trkpt><trkpt lat="44.205949" lon="11.3480787"><ele>594.0</ele><time>2026-04-11T15:53:59.494Z</time></trkpt><trkpt lat="44.205872" lon="11.347994"><ele>592.0</ele><time>2026-04-11T15:54:00.494Z</time></trkpt><trkpt lat="44.2058242" lon="11.3478762"><ele>590.0</ele><time>2026-04-11T15:54:01.494Z</time></trkpt><trkpt lat="44.205817" lon="11.3477455"><ele>588.0</ele><time>2026-04-11T15:54:02.495Z</time></trkpt><trkpt lat="44.2058487" lon="11.3476265"><ele>586.0</ele><time>2026-04-11T15:54:03.495Z</time></trkpt><trkpt lat="44.2059112" lon="11.3475295"><ele>584.0</ele><time>2026-04-11T15:54:04.493Z</time></trkpt><trkpt lat="44.2059957" lon="11.3474622"><ele>584.0</ele><time>2026-04-11T15:54:05.494Z</time></trkpt><trkpt lat="44.2060963" lon="11.347426"><ele>584.0</ele><time>2026-04-11T15:54:06.492Z</time></trkpt><trkpt lat="44.2062063" lon="11.3474118"><ele>584.0</ele><time>2026-04-11T15:54:07.491Z</time></trkpt><trkpt lat="44.2063138" lon="11.3473917"><ele>584.0</ele><time>2026-04-11T15:54:08.493Z</time></trkpt><trkpt lat="44.2064122" lon="11.3473423"><ele>584.0</ele><time>2026-04-11T15:54:09.493Z</time></trkpt><trkpt lat="44.2064967" lon="11.3472577"><ele>581.0</ele><time>2026-04-11T15:54:10.495Z</time></trkpt><trkpt lat="44.2065722" lon="11.34715"><ele>578.0</ele><time>2026-04-11T15:54:11.495Z</time></trkpt><trkpt lat="44.2066437" lon="11.3470393"><ele>575.0</ele><time>2026-04-11T15:54:12.495Z</time></trkpt><trkpt lat="44.2067142" lon="11.3469297"><ele>572.0</ele><time>2026-04-11T15:54:13.496Z</time></trkpt><trkpt lat="44.2067895" lon="11.3468282"><ele>569.0</ele><time>2026-04-11T15:54:14.494Z</time></trkpt><trkpt lat="44.2068757" lon="11.3467432"><ele>569.0</ele><time>2026-04-11T15:54:15.494Z</time></trkpt><trkpt lat="44.2069737" lon="11.3466747"><ele>569.0</ele><time>2026-04-11T15:54:16.494Z</time></trkpt><trkpt lat="44.2070818" lon="11.3466265"><ele>569.0</ele><time>2026-04-11T15:54:17.494Z</time></trkpt><trkpt lat="44.2071963" lon="11.3465998"><ele>569.0</ele><time>2026-04-11T15:54:18.497Z</time></trkpt><trkpt lat="44.2073143" lon="11.3465958"><ele>568.25</ele><time>2026-04-11T15:54:19.494Z</time></trkpt><trkpt lat="44.2074325" lon="11.3466088"><ele>567.5</ele><time>2026-04-11T15:54:20.495Z</time></trkpt><trkpt lat="44.2075493" lon="11.3466258"><ele>566.75</ele><time>2026-04-11T15:54:21.495Z</time></trkpt><trkpt lat="44.207666" lon="11.3466428"><ele>566.0</ele><time>2026-04-11T15:54:22.495Z</time></trkpt><trkpt lat="44.2077795" lon="11.346662"><ele>566.0</ele><time>2026-04-11T15:54:23.495Z</time></trkpt><trkpt lat="44.2081102" lon="11.3467212"><ele>566.0</ele><time>2026-04-11T15:54:26.496Z</time></trkpt><trkpt lat="44.2082188" lon="11.3467248"><ele>566.0</ele><time>2026-04-11T15:54:27.496Z</time></trkpt><trkpt lat="44.2083282" lon="11.3467193"><ele>565.0</ele><time>2026-04-11T15:54:28.494Z</time></trkpt><trkpt lat="44.208436" lon="11.3467037"><ele>564.0</ele><time>2026-04-11T15:54:29.495Z</time></trkpt><trkpt lat="44.2085385" lon="11.3466763"><ele>563.0</ele><time>2026-04-11T15:54:30.493Z</time></trkpt><trkpt lat="44.208638" lon="11.3466417"><ele>562.0</ele><time>2026-04-11T15:54:31.492Z</time></trkpt><trkpt lat="44.2087373" lon="11.3466033"><ele>561.0</ele><time>2026-04-11T15:54:32.493Z</time></trkpt><trkpt lat="44.2088362" lon="11.346563"><ele>561.0</ele><time>2026-04-11T15:54:33.492Z</time></trkpt><trkpt lat="44.2089352" lon="11.3465255"><ele>561.0</ele><time>2026-04-11T15:54:34.492Z</time></trkpt><trkpt lat="44.2090347" lon="11.3464943"><ele>561.0</ele><time>2026-04-11T15:54:35.496Z</time></trkpt><trkpt lat="44.2091303" lon="11.3464718"><ele>561.0</ele><time>2026-04-11T15:54:36.495Z</time></trkpt><trkpt lat="44.2092253" lon="11.3464757"><ele>561.0</ele><time>2026-04-11T15:54:37.495Z</time></trkpt><trkpt lat="44.2093127" lon="11.3465115"><ele>560.2</ele><time>2026-04-11T15:54:38.495Z</time></trkpt><trkpt lat="44.209386" lon="11.3465657"><ele>559.4000000000001</ele><time>2026-04-11T15:54:39.495Z</time></trkpt><trkpt lat="44.2094475" lon="11.3466155"><ele>558.6</ele><time>2026-04-11T15:54:40.496Z</time></trkpt><trkpt lat="44.209548" lon="11.3466212"><ele>557.8000000000001</ele><time>2026-04-11T15:54:42.495Z</time></trkpt><trkpt lat="44.2095913" lon="11.3465122"><ele>557.0</ele><time>2026-04-11T15:54:44.496Z</time></trkpt><trkpt lat="44.2095998" lon="11.3463337"><ele>555.5714285714286</ele><time>2026-04-11T15:54:46.495Z</time></trkpt><trkpt lat="44.2095823" lon="11.346248"><ele>554.1428571428571</ele><time>2026-04-11T15:54:47.497Z</time></trkpt><trkpt lat="44.2095447" lon="11.3461717"><ele>552.7142857142857</ele><time>2026-04-11T15:54:48.497Z</time></trkpt><trkpt lat="44.2094897" lon="11.3461095"><ele>551.2857142857142</ele><time>2026-04-11T15:54:49.495Z</time></trkpt><trkpt lat="44.2094207" lon="11.3460612"><ele>549.8571428571428</ele><time>2026-04-11T15:54:50.496Z</time></trkpt><trkpt lat="44.2093453" lon="11.3460213"><ele>548.4285714285714</ele><time>2026-04-11T15:54:51.497Z</time></trkpt><trkpt lat="44.2092707" lon="11.3459872"><ele>547.0</ele><time>2026-04-11T15:54:52.496Z</time></trkpt><trkpt lat="44.2092008" lon="11.345958"><ele>547.0</ele><time>2026-04-11T15:54:53.497Z</time></trkpt><trkpt lat="44.209137" lon="11.3459315"><ele>547.0</ele><time>2026-04-11T15:54:54.495Z</time></trkpt><trkpt lat="44.2090267" lon="11.345886"><ele>547.0</ele><time>2026-04-11T15:54:56.494Z</time></trkpt><trkpt lat="44.2089345" lon="11.3458663"><ele>551.0</ele><time>2026-04-11T15:54:58.494Z</time></trkpt><trkpt lat="44.2089037" lon="11.3457875"><ele>551.0</ele><time>2026-04-11T15:55:02.496Z</time></trkpt></trkseg></trk></gpx>